Mt Inkerman Weather Station

Historical Log

Idx Date & Time Min Avg Max Dir Press QNH Temp Hum Dew Cloudbase AMSL Batt CSQ
533215 Apr 11:40:0289.4 mph11SSE (159°)9982310197624.8°C86.8%22.4°C1554ft (474m)14.19v18
533115 Apr 11:39:5067.5 mph8SSE (165°)9982610197924.8°C86.9%22.5°C1546ft (471m)14.2v18
533015 Apr 11:39:3955.9 mph7S (169°)9982710198024.8°C86.8%22.4°C1554ft (474m)14.24v15
532915 Apr 11:39:2856.7 mph9SSE (159°)9982710198024.8°C86.8%22.4°C1554ft (474m)14.22v15
532815 Apr 11:39:17810.4 mph12SSE (165°)9982610197924.8°C86.9%22.5°C1546ft (471m)14.2v15
532715 Apr 11:39:0578.3 mph10SSE (166°)9982210197524.8°C86.9%22.5°C1546ft (471m)14.21v15
532615 Apr 11:38:5456 mph7SSE (165°)9983010198324.8°C86.9%22.5°C1546ft (471m)14.18v16
532515 Apr 11:38:4334.1 mph6S (172°)9982810198124.8°C86.8%22.4°C1554ft (474m)14.19v16
532415 Apr 11:38:3255.7 mph7SSE (158°)9982810198124.8°C86.8%22.4°C1554ft (474m)14.19v14
532315 Apr 11:38:2055.8 mph7S (172°)9983010198324.9°C86.8%22.5°C1555ft (474m)14.21v14
532215 Apr 11:38:0977.7 mph8S (171°)9982710198024.9°C86.8%22.5°C1555ft (474m)14.2v15
532115 Apr 11:37:5888.3 mph10SSE (165°)9982810198124.8°C86.8%22.4°C1554ft (474m)14.23v14
532015 Apr 11:37:4789.3 mph10S (170°)9982610197924.9°C86.9%22.6°C1547ft (472m)14.19v17
531915 Apr 11:37:3588.5 mph10SSE (164°)9982610197924.9°C86.9%22.6°C1547ft (472m)14.21v17
531815 Apr 11:37:2499.7 mph11SSE (164°)9982910198224.9°C86.8%22.5°C1555ft (474m)14.21v13
531715 Apr 11:37:1368.7 mph12S (174°)9982510197824.9°C86.9%22.6°C1547ft (472m)14.21v17
531615 Apr 11:37:0265.8 mph6SSE (160°)9983110198424.9°C86.8%22.5°C1555ft (474m)14.2v15
531515 Apr 11:36:5089.6 mph11SSE (150°)9983410198724.9°C86.8%22.5°C1555ft (474m)14.19v16
531415 Apr 11:36:3968.4 mph11SSE (161°)9982810198124.9°C86.8%22.5°C1555ft (474m)14.2v16
531315 Apr 11:36:2899.5 mph10S (176°)9983410198724.9°C86.8%22.5°C1555ft (474m)14.19v15
531215 Apr 11:36:1777.9 mph9S (172°)9983210198524.9°C86.9%22.6°C1547ft (472m)14.21v15
531115 Apr 11:36:0589.7 mph12SE (141°)9982910198224.9°C86.9%22.6°C1547ft (472m)14.2v17
531015 Apr 11:35:541010.7 mph11SSE (160°)9982810198124.9°C87%22.6°C1539ft (469m)14.24v17
530915 Apr 11:35:4389.2 mph11SSE (158°)9982410197724.9°C87.1%22.6°C1532ft (467m)14.19v15
530815 Apr 11:35:3256.8 mph8SSE (165°)9983810199224.9°C87%22.6°C1539ft (469m)14.19v15
530715 Apr 11:35:2056 mph7SSE (162°)9983710199024.9°C87%22.6°C1539ft (469m)14.2v17
530615 Apr 11:35:0955.8 mph7SE (142°)9983410198724.9°C87.1%22.6°C1532ft (467m)14.19v17
530515 Apr 11:34:5855.5 mph6S (177°)9984010199424.9°C87.1%22.6°C1532ft (467m)14.2v16
530415 Apr 11:34:4755.6 mph6SSE (159°)9983810199224.9°C87.1%22.6°C1532ft (467m)14.19v15
530315 Apr 11:34:3534 mph5SSE (163°)9983910199324.9°C87%22.6°C1539ft (469m)14.22v14
530215 Apr 11:34:2456.1 mph8SSE (167°)9984010199424.9°C87%22.6°C1539ft (469m)14.21v17
530115 Apr 11:34:1355.3 mph6S (169°)9983910199324.9°C87%22.6°C1539ft (469m)14.24v16
530015 Apr 11:34:0278.7 mph11SSE (156°)9983910199324.9°C87%22.6°C1539ft (469m)14.2v17
529915 Apr 11:33:5067.8 mph10SSE (163°)9983010198324.9°C87.2%22.6°C1524ft (465m)14.2v14
529815 Apr 11:33:3966.1 mph7SSE (160°)9983810199224.9°C87.2%22.6°C1524ft (465m)14.21v15
529715 Apr 11:33:2855.9 mph8S (180°)9984010199424.9°C87.1%22.6°C1532ft (467m)14.21v14
529615 Apr 11:33:1766.9 mph9S (172°)9983810199224.9°C87.1%22.6°C1532ft (467m)14.19v14
529515 Apr 11:33:0579 mph12SSE (159°)9983610198924.9°C87.2%22.6°C1524ft (465m)14.21v15
529415 Apr 11:32:5456.1 mph7S (178°)9984110199524.9°C87.2%22.6°C1524ft (465m)14.17v15
529315 Apr 11:32:4355.9 mph7SSE (163°)9983810199224.9°C87.1%22.6°C1532ft (467m)14.2v14
529215 Apr 11:32:3267.5 mph8SSE (167°)9984410199824.9°C87.1%22.6°C1532ft (467m)14.17v14
529115 Apr 11:32:2089.1 mph10S (174°)9983910199324.9°C87.2%22.6°C1524ft (465m)14.25v14
529015 Apr 11:32:091010.8 mph12S (172°)9984010199424.9°C87.2%22.6°C1524ft (465m)14.2v15
528915 Apr 11:31:5867.3 mph9S (170°)9983710199024.9°C87.2%22.6°C1524ft (465m)14.2v16
528815 Apr 11:31:4789 mph10SSE (163°)9984010199424.9°C87.2%22.6°C1524ft (465m)14.19v14
528715 Apr 11:31:3557.9 mph11SSE (168°)9983310198624.9°C87.2%22.6°C1524ft (465m)14.2v17
528615 Apr 11:31:2466.6 mph8SSE (162°)9984410199824.9°C87.2%22.6°C1524ft (465m)14.19v15
528515 Apr 11:31:1388.6 mph9S (174°)9984210199624.9°C87.3%22.6°C1516ft (462m)14.23v15
528415 Apr 11:31:0256.8 mph9S (175°)9984410199824.9°C87.3%22.6°C1516ft (462m)14.2v15
528315 Apr 11:30:5057 mph10S (170°)9984510199924.9°C87.3%22.6°C1516ft (462m)14.18v14
528215 Apr 11:30:3988.7 mph10S (172°)9984210199624.9°C87.3%22.6°C1516ft (462m)14.23v16
528115 Apr 11:30:2878.2 mph11S (184°)9984210199624.9°C87.2%22.6°C1524ft (465m)14.2v14
528015 Apr 11:30:17910.5 mph12SSE (162°)9984210199624.9°C87.3%22.6°C1516ft (462m)14.18v15
527915 Apr 11:30:05810.2 mph14SSE (162°)9983510198824.9°C87.2%22.6°C1524ft (465m)14.21v16
527815 Apr 11:29:5457 mph9SSW (194°)9985010200424.9°C87.3%22.6°C1516ft (462m)14.2v17
527715 Apr 11:29:4345.4 mph7SSE (164°)9984910200324.9°C87.2%22.6°C1524ft (465m)14.22v14
527615 Apr 11:29:3266.7 mph8SSW (193°)9984810200224.9°C87.2%22.6°C1524ft (465m)14.2v16
527515 Apr 11:29:2067 mph8S (189°)9984610200024.9°C87.3%22.6°C1516ft (462m)14.17v16
527415 Apr 11:29:0988.5 mph9SSE (157°)9984810200224.9°C87.2%22.6°C1524ft (465m)14.21v18
527315 Apr 11:28:5889.2 mph12SSE (162°)9984610200024.9°C87.2%22.6°C1524ft (465m)14.17v14
527215 Apr 11:28:4789.5 mph11SSE (165°)9984410199824.9°C87.3%22.6°C1516ft (462m)14.2v15
527115 Apr 11:28:3599.4 mph10SSE (161°)9984610200024.9°C87.3%22.6°C1516ft (462m)14.19v16
527015 Apr 11:28:2488.7 mph10SSE (164°)9984910200324.9°C87.3%22.6°C1516ft (462m)14.22v14
526915 Apr 11:28:13910 mph11S (170°)9984510199924.9°C87.2%22.6°C1524ft (465m)14.17v17
526815 Apr 11:28:0268.2 mph11S (182°)9984010199424.9°C87.2%22.6°C1524ft (465m)14.24v16
526715 Apr 11:27:5057.4 mph9SSE (164°)9985410200824.9°C87.2%22.6°C1524ft (465m)14.2v17
526615 Apr 11:27:3956.2 mph9S (172°)9984510199924.9°C87.3%22.6°C1516ft (462m)14.25v14
526515 Apr 11:27:2899.7 mph11S (182°)9985310200724.9°C87.3%22.6°C1516ft (462m)14.19v14
526415 Apr 11:27:1768 mph9S (179°)9984910200324.9°C87.3%22.6°C1516ft (462m)14.19v14
526315 Apr 11:27:0587.9 mph8S (177°)9984910200324.9°C87.3%22.6°C1516ft (462m)14.2v14
526215 Apr 11:26:5488.6 mph9SSE (160°)9984910200324.9°C87.4%22.7°C1508ft (460m)14.2v14
526115 Apr 11:26:4378.4 mph11SSE (164°)9985210200624.9°C87.4%22.7°C1508ft (460m)14.18v15
526015 Apr 11:26:3299.7 mph12S (170°)9985310200724.9°C87.5%22.7°C1501ft (458m)14.2v14
525915 Apr 11:26:2067.1 mph9S (170°)9985810201224.9°C87.4%22.7°C1508ft (460m)14.19v14
525815 Apr 11:26:0967.6 mph9S (170°)9985310200724.9°C87.4%22.7°C1508ft (460m)14.21v17
525715 Apr 11:25:5856.8 mph8SSE (155°)9985210200624.9°C87.3%22.6°C1516ft (462m)14.18v14
525615 Apr 11:25:4776.9 mph8SSE (161°)9985810201224.9°C87.2%22.6°C1524ft (465m)14.21v15
525515 Apr 11:25:3556.2 mph8S (183°)9985610201024.9°C87.2%22.6°C1524ft (465m)14.23v15
525415 Apr 11:25:2477.5 mph9S (173°)9985510200924.9°C87.1%22.6°C1532ft (467m)14.18v15
525315 Apr 11:25:1367.3 mph9S (175°)9985610201024.9°C87.2%22.6°C1524ft (465m)14.19v14
525215 Apr 11:25:0288.3 mph9S (186°)9985610201024.9°C87.1%22.6°C1532ft (467m)14.19v14
525115 Apr 11:24:5078.3 mph10S (175°)9985610201024.9°C87%22.6°C1539ft (469m)14.24v14
525015 Apr 11:24:391212.7 mph13S (178°)9985210200625°C87%22.7°C1540ft (469m)14.19v16
524915 Apr 11:24:281111.6 mph13SSE (154°)9985710201124.9°C87.1%22.6°C1532ft (467m)14.19v14
524815 Apr 11:24:17810 mph14SSE (150°)9985210200624.9°C87.1%22.6°C1532ft (467m)14.18v16
524715 Apr 11:24:0578.1 mph10SSE (167°)9985910201324.9°C87.1%22.6°C1532ft (467m)14.23v17
524615 Apr 11:23:5477.7 mph10S (171°)9986310201724.9°C87.2%22.6°C1524ft (465m)14.21v17
524515 Apr 11:23:431011.1 mph13SE (144°)9985510200924.9°C87.1%22.6°C1532ft (467m)14.22v17
524415 Apr 11:23:3289.9 mph13SSE (159°)9984810200224.9°C87.2%22.6°C1524ft (465m)14.21v15
524315 Apr 11:23:2078.5 mph12SSE (158°)9985910201324.9°C87.1%22.6°C1532ft (467m)14.18v17
524215 Apr 11:23:091111.2 mph14SE (136°)9985910201324.9°C87.1%22.6°C1532ft (467m)14.21v14
524115 Apr 11:22:5899.6 mph11SSE (147°)9985610201024.9°C87.3%22.6°C1516ft (462m)14.17v14
524015 Apr 11:22:4778.7 mph10SSE (156°)9986410201824.9°C87.2%22.6°C1524ft (465m)14.22v17
523915 Apr 11:22:3557.1 mph9SSE (152°)9986310201724.9°C87.1%22.6°C1532ft (467m)14.2v17
523815 Apr 11:22:2477.5 mph8SE (141°)9986310201724.9°C87.3%22.6°C1516ft (462m)14.19v16
523715 Apr 11:22:1335.8 mph7SSE (159°)9986210201624.9°C87.2%22.6°C1524ft (465m)14.24v17
523615 Apr 11:22:0246.1 mph8S (175°)9986410201824.9°C87.2%22.6°C1524ft (465m)14.23v14
523515 Apr 11:21:5067.1 mph10S (174°)9986610202024.9°C87.1%22.6°C1532ft (467m)14.23v18
523415 Apr 11:21:39910.6 mph12SSE (163°)9986010201424.9°C87%22.6°C1539ft (469m)14.2v15
523315 Apr 11:21:2878.7 mph11SSE (164°)9986210201624.9°C87%22.6°C1539ft (469m)14.15v16
523215 Apr 11:21:1767.7 mph9S (172°)9986710202124.9°C87.1%22.6°C1532ft (467m)14.22v14
523115 Apr 11:21:0666.8 mph8S (183°)9986110201524.9°C87.1%22.6°C1532ft (467m)14.19v14
523015 Apr 11:20:5587.8 mph10S (186°)9986310201724.9°C87.1%22.6°C1532ft (467m)14.24v15
522915 Apr 11:20:441011.3 mph12SSE (158°)9986110201524.9°C87%22.6°C1539ft (469m)14.22v14
522815 Apr 11:20:32810.2 mph13SSE (158°)9985810201224.9°C87.1%22.6°C1532ft (467m)14.24v15
522715 Apr 11:20:211011.1 mph13SSE (168°)9986210201624.9°C87.1%22.6°C1532ft (467m)14.21v17
522615 Apr 11:20:101011 mph12SSE (158°)9986610202024.9°C87.1%22.6°C1532ft (467m)14.17v15
522515 Apr 11:19:5978 mph10SSE (165°)9985010200424.9°C87.1%22.6°C1532ft (467m)14.21v15
522415 Apr 11:19:4766.8 mph8SSE (160°)9986810202224.9°C87%22.6°C1539ft (469m)14.21v14
522315 Apr 11:19:3667.7 mph11SSE (153°)9987110202524.9°C87%22.6°C1539ft (469m)14.2v15
522215 Apr 11:19:2579.2 mph12SE (146°)9985510200924.9°C87%22.6°C1539ft (469m)14.19v14
522115 Apr 11:19:1478.8 mph12SSE (152°)9987410202824.9°C86.9%22.6°C1547ft (472m)14.25v14
522015 Apr 11:19:0299.7 mph11SE (146°)9986710202124.9°C86.9%22.6°C1547ft (472m)14.2v14
521915 Apr 11:18:51910 mph13SSE (158°)9987110202524.9°C86.9%22.6°C1547ft (472m)14.17v14
521815 Apr 11:18:4069.2 mph12S (185°)9986910202324.9°C86.9%22.6°C1547ft (472m)14.18v16
521715 Apr 11:18:2978.2 mph11S (171°)9986210201624.9°C86.9%22.6°C1547ft (472m)14.18v14
521615 Apr 11:18:1767 mph10S (175°)9986810202224.9°C86.8%22.5°C1555ft (474m)14.2v15
521515 Apr 11:18:0579.5 mph13SSE (153°)9986710202124.9°C86.9%22.6°C1547ft (472m)14.19v18
521415 Apr 11:17:541112.9 mph15SE (145°)9986510201924.9°C86.9%22.6°C1547ft (472m)14.23v15
521315 Apr 11:17:4388.4 mph10SSE (163°)9985610201024.9°C87%22.6°C1539ft (469m)14.25v15
521215 Apr 11:17:3278 mph9SSE (166°)9987210202624.9°C87%22.6°C1539ft (469m)14.21v15
521115 Apr 11:17:2077.6 mph11SSE (164°)9987610203024.9°C86.9%22.6°C1547ft (472m)14.2v14
521015 Apr 11:17:0988.6 mph9SSE (157°)9987310202724.9°C86.9%22.6°C1547ft (472m)14.21v14
520915 Apr 11:16:5845.7 mph10SSE (168°)9987810203224.9°C86.8%22.5°C1555ft (474m)14.17v16
520815 Apr 11:16:4779.2 mph11SSE (162°)9987310202724.9°C86.8%22.5°C1555ft (474m)14.21v16
520715 Apr 11:16:3555.9 mph7SSE (159°)9986910202324.9°C86.8%22.5°C1555ft (474m)14.18v14
520615 Apr 11:16:24810.1 mph14SSE (156°)9987410202824.9°C86.7%22.5°C1563ft (476m)14.22v13
520515 Apr 11:16:131313.9 mph16SE (141°)9987110202524.9°C86.8%22.5°C1555ft (474m)14.2v14
520415 Apr 11:16:021011.8 mph14SE (146°)9986610202024.9°C86.8%22.5°C1555ft (474m)14.2v14
520315 Apr 11:15:501112.5 mph15SE (140°)9987010202424.9°C87%22.6°C1539ft (469m)14.17v15
520215 Apr 11:15:3957.7 mph11SSE (161°)9987310202724.9°C87%22.6°C1539ft (469m)14.19v15
520115 Apr 11:15:2868.4 mph11SE (142°)9987910203324.9°C87%22.6°C1539ft (469m)14.16v17
520015 Apr 11:15:1777.6 mph11SSE (151°)9987910203324.9°C86.9%22.6°C1547ft (472m)14.24v15
519915 Apr 11:15:05710.2 mph13SE (146°)9987610203024.9°C86.8%22.5°C1555ft (474m)14.2v15
519815 Apr 11:14:5467.2 mph8SSE (167°)9988310203724.9°C87%22.6°C1539ft (469m)14.19v15
519715 Apr 11:14:43910.3 mph12S (171°)9987410202824.9°C86.9%22.6°C1547ft (472m)14.25v14
519615 Apr 11:14:3279.2 mph12SE (141°)9987110202524.9°C86.8%22.5°C1555ft (474m)14.21v14
519515 Apr 11:14:2066.9 mph10SSE (167°)9987510202924.9°C86.9%22.6°C1547ft (472m)14.21v15
519415 Apr 11:14:09911.4 mph14SE (142°)9987310202724.9°C86.8%22.5°C1555ft (474m)14.21v16
519315 Apr 11:13:5868.9 mph13SSE (149°)9986410201824.9°C86.8%22.5°C1555ft (474m)14.18v15
519215 Apr 11:13:47910.2 mph12S (169°)9987710203124.9°C86.8%22.5°C1555ft (474m)14.23v16
519115 Apr 11:13:3578.5 mph11SSE (150°)9987010202424.9°C86.9%22.6°C1547ft (472m)14.21v17
519015 Apr 11:13:2466.6 mph9SSE (150°)9987710203124.9°C87%22.6°C1539ft (469m)14.19v14
518915 Apr 11:13:1377.8 mph9SSE (151°)9988010203424.9°C86.9%22.6°C1547ft (472m)14.22v14
518815 Apr 11:13:0278.7 mph11SE (140°)9988010203424.9°C86.9%22.6°C1547ft (472m)14.18v14
518715 Apr 11:12:501010.4 mph12SE (138°)9987810203224.9°C87.1%22.6°C1532ft (467m)14.23v14
518615 Apr 11:12:3999.9 mph12SE (143°)9986910202324.9°C87.1%22.6°C1532ft (467m)14.18v16
518515 Apr 11:12:2857.2 mph9SE (129°)9988010203424.9°C87.2%22.6°C1524ft (465m)14.16v14
518415 Apr 11:12:17910.3 mph12SE (142°)9987810203224.9°C87.2%22.6°C1524ft (465m)14.2v16
518315 Apr 11:12:061011.1 mph12SSE (155°)9988210203624.9°C87.2%22.6°C1524ft (465m)14.2v15
518215 Apr 11:11:5468 mph10S (172°)9988210203624.9°C87.2%22.6°C1524ft (465m)14.17v16
518115 Apr 11:11:4388.8 mph10S (169°)9988210203624.9°C87.3%22.6°C1516ft (462m)14.23v14
518015 Apr 11:11:3256.4 mph8SSE (148°)9988010203424.9°C87.3%22.6°C1516ft (462m)14.22v15
517915 Apr 11:11:21810.1 mph12SSE (160°)9987610203024.9°C87.3%22.6°C1516ft (462m)14.06v16
517815 Apr 11:11:0988.4 mph10SSE (165°)9988010203424.9°C87.3%22.6°C1516ft (462m)13.9v16
517715 Apr 11:10:581112.6 mph15SE (141°)9988410203924.9°C87.4%22.7°C1508ft (460m)13.74v15
517615 Apr 11:10:471010.7 mph14S (178°)9988210203624.9°C87.4%22.7°C1508ft (460m)13.63v14
517515 Apr 11:10:3689.7 mph13SSE (166°)9988010203424.9°C87.5%22.7°C1501ft (458m)13.54v14
517415 Apr 11:10:2489.7 mph11SE (145°)9987910203324.9°C87.6%22.7°C1493ft (455m)13.63v16
517315 Apr 11:10:1387.9 mph10SSE (167°)9988210203624.9°C87.6%22.7°C1493ft (455m)13.91v15
517215 Apr 11:10:0256.2 mph9SSE (158°)9987710203124.9°C87.6%22.7°C1493ft (455m)14.01v14
517115 Apr 11:09:5067.8 mph10SSE (160°)9987610203024.9°C87.7%22.7°C1485ft (453m)14.13v15
517015 Apr 11:09:3956 mph7SSE (162°)9987910203324.9°C87.7%22.7°C1485ft (453m)14.2v14
516915 Apr 11:09:2856.6 mph8S (179°)9988010203424.9°C87.8%22.7°C1478ft (450m)14.19v14
516815 Apr 11:09:1767.1 mph9SSE (165°)9987710203124.9°C87.8%22.7°C1478ft (450m)14.19v14
516715 Apr 11:09:0645.1 mph7SSE (166°)9987810203224.9°C87.7%22.7°C1485ft (453m)14.21v14
516615 Apr 11:08:5477.2 mph8SSE (166°)9987910203324.9°C87.7%22.7°C1485ft (453m)14.18v14
516515 Apr 11:08:4356.7 mph8S (177°)9988010203424.9°C87.6%22.7°C1493ft (455m)14.23v17
516415 Apr 11:08:3245.6 mph8SSE (152°)9987510202924.9°C87.7%22.7°C1485ft (453m)14.16v14
516315 Apr 11:08:2189.5 mph12S (173°)9987810203224.9°C87.7%22.7°C1485ft (453m)14.22v16
516215 Apr 11:08:0988.5 mph9S (172°)9987110202524.9°C87.6%22.7°C1493ft (455m)14.2v16
516115 Apr 11:07:5868.3 mph11S (175°)9987710203124.9°C87.6%22.7°C1493ft (455m)14.19v14
516015 Apr 11:07:4799.5 mph11S (183°)9987110202524.9°C87.4%22.7°C1508ft (460m)14.19v14
515915 Apr 11:07:3689.5 mph10S (178°)9987610203024.9°C87.7%22.7°C1485ft (453m)14.22v15
515815 Apr 11:07:2478.1 mph10S (171°)9986710202124.9°C87.6%22.7°C1493ft (455m)14.23v14
515715 Apr 11:07:1388.8 mph10S (174°)9987510202924.9°C87.6%22.7°C1493ft (455m)14.18v16
515615 Apr 11:07:0278.8 mph11S (175°)9987510202924.9°C87.6%22.7°C1493ft (455m)14.19v15
515515 Apr 11:06:5178.6 mph11S (186°)9987110202524.9°C87.6%22.7°C1493ft (455m)14.15v16
515415 Apr 11:06:39911.5 mph15S (176°)9986710202124.9°C87.5%22.7°C1501ft (458m)14.21v15
515315 Apr 11:06:2899.7 mph11SSW (196°)9987110202524.9°C87.5%22.7°C1501ft (458m)14.16v16
515215 Apr 11:06:18910 mph11SSW (192°)9987410202824.9°C87.6%22.7°C1493ft (455m)14.24v15
515115 Apr 11:06:0678.7 mph11S (180°)9986910202324.9°C87.6%22.7°C1493ft (455m)14.21v14
515015 Apr 11:05:55810.1 mph13S (174°)9987010202424.9°C87.6%22.7°C1493ft (455m)14.21v14
514915 Apr 11:05:441313.5 mph16SSE (167°)9986610202024.9°C87.6%22.7°C1493ft (455m)14.24v13
514815 Apr 11:05:33710.1 mph14S (171°)9987410202824.9°C87.6%22.7°C1493ft (455m)14.18v13
514715 Apr 11:05:2189.5 mph13S (171°)9987810203224.9°C87.5%22.7°C1501ft (458m)14.25v16
514615 Apr 11:05:1089.5 mph11SSW (195°)9987710203124.9°C87.5%22.7°C1501ft (458m)14.19v16
514515 Apr 11:04:59810.4 mph14S (182°)9987710203124.9°C87.6%22.7°C1493ft (455m)14.19v12
514415 Apr 11:04:481010.5 mph12S (180°)9987010202424.9°C87.6%22.7°C1493ft (455m)14.21v16
514315 Apr 11:04:361010.8 mph13S (178°)9987410202824.9°C87.4%22.7°C1508ft (460m)14.18v16
514215 Apr 11:04:251012.3 mph15S (182°)9987510202924.9°C87.6%22.7°C1493ft (455m)14.21v14
514115 Apr 11:04:141111.3 mph12SSE (165°)9987410202824.9°C87.7%22.7°C1485ft (453m)14.22v14
514015 Apr 11:04:031112.3 mph16SSE (160°)9987410202824.9°C87.8%22.7°C1478ft (450m)14.22v13
513915 Apr 11:03:511214.5 mph17S (174°)9987010202424.9°C87.7%22.7°C1485ft (453m)14.19v16
513815 Apr 11:03:40910.2 mph12S (178°)9987810203224.9°C87.8%22.7°C1478ft (450m)14.23v16
513715 Apr 11:03:291010.6 mph13SSW (196°)9987610203024.9°C87.5%22.7°C1501ft (458m)14.19v15
513615 Apr 11:03:171314.7 mph16S (178°)9986810202224.9°C87.6%22.7°C1493ft (455m)14.22v15
513515 Apr 11:03:051515.2 mph17SSW (196°)9987710203124.9°C87.4%22.7°C1508ft (460m)14.16v16
513415 Apr 11:02:5468 mph10SSW (201°)9986610202024.9°C87.7%22.7°C1485ft (453m)14.22v16
513315 Apr 11:02:431112.1 mph17S (185°)9987210202624.9°C87.7%22.7°C1485ft (453m)14.19v15
513215 Apr 11:02:321315.4 mph19S (179°)9986610202024.9°C87.5%22.7°C1501ft (458m)14.24v16
513115 Apr 11:02:201313.9 mph16S (179°)9986710202124.9°C87.8%22.7°C1478ft (450m)14.19v14
513015 Apr 11:02:091013.4 mph15SSE (167°)9986010201424.9°C87.9%22.8°C1470ft (448m)14.2v16
512915 Apr 11:01:5889.5 mph12SSW (192°)9987110202524.9°C87.8%22.7°C1478ft (450m)14.22v17
512815 Apr 11:01:471114.8 mph17S (171°)9987310202724.9°C87.8%22.7°C1478ft (450m)14.19v14
512715 Apr 11:01:35910.8 mph13S (189°)9987510202924.9°C88%22.8°C1462ft (446m)14.14v15
512615 Apr 11:01:24911 mph14S (179°)9987910203324.9°C88.1%22.8°C1454ft (443m)14.19v16
512515 Apr 11:01:131010.5 mph13S (185°)9987310202724.9°C87.9%22.8°C1470ft (448m)14.18v14
512415 Apr 11:01:02810.1 mph12S (181°)9988010203424.9°C88.2%22.8°C1447ft (441m)14.18v16
512315 Apr 11:00:501314.6 mph17S (175°)9987510202924.9°C88.1%22.8°C1454ft (443m)14.22v15
512215 Apr 11:00:39911.5 mph14S (175°)9986210201624.9°C88.3%22.8°C1439ft (439m)14.22v14
512115 Apr 11:00:281213.5 mph15SSE (164°)9987710203124.9°C88.3%22.8°C1439ft (439m)14.2v16
512015 Apr 11:00:171011.1 mph14S (186°)9987310202724.9°C88%22.8°C1462ft (446m)14.19v16
511915 Apr 11:00:051112 mph14S (169°)9987210202624.9°C88.4%22.8°C1431ft (436m)14.17v15
511815 Apr 10:59:541112.3 mph16S (179°)9987910203324.9°C88.2%22.8°C1447ft (441m)14.23v13
511715 Apr 10:59:431112.2 mph15S (186°)9987110202524.9°C88.3%22.8°C1439ft (439m)14.22v15
511615 Apr 10:59:321212.6 mph14S (177°)9987110202524.9°C88.4%22.8°C1431ft (436m)14.22v14
511515 Apr 10:59:201415.9 mph18S (184°)9987710203124.9°C88.3%22.8°C1439ft (439m)14.23v14
511415 Apr 10:59:091012.9 mph16SSW (206°)9987710203124.9°C88.2%22.8°C1447ft (441m)14.19v14
511315 Apr 10:58:581314.3 mph16SSW (197°)9985710201124.9°C88.2%22.8°C1447ft (441m)14.21v14
511215 Apr 10:58:471212.7 mph15SSW (195°)9987710203124.9°C88.2%22.8°C1447ft (441m)14.23v13
511115 Apr 10:58:351515.5 mph17S (185°)9987810203224.9°C88%22.8°C1462ft (446m)14.2v13
511015 Apr 10:58:241113.7 mph16SSW (201°)9986810202224.9°C87.9%22.8°C1470ft (448m)14.17v13
510915 Apr 10:58:131313.8 mph15SSW (197°)9987510202924.9°C87.7%22.7°C1485ft (453m)14.18v13
510815 Apr 10:58:021012 mph14SSW (192°)9987610203024.9°C87.9%22.8°C1470ft (448m)14.01v15
510715 Apr 10:57:501414.9 mph17SSW (194°)9987210202624.9°C87.6%22.7°C1493ft (455m)13.83v15
510615 Apr 10:57:391215.1 mph19SSW (198°)9987510202924.9°C87.6%22.7°C1493ft (455m)13.53v13
510515 Apr 10:57:281313.1 mph14SSW (200°)9987310202724.9°C87.5%22.7°C1501ft (458m)13.46v15
510415 Apr 10:57:171213.9 mph16SSW (193°)9987010202424.9°C87.5%22.7°C1501ft (458m)13.46v16
510315 Apr 10:57:051212.4 mph14SSW (198°)9987010202424.9°C87.4%22.7°C1508ft (460m)13.46v15
510215 Apr 10:56:5499.3 mph11SSW (195°)9988010203424.9°C87.8%22.7°C1478ft (450m)13.64v14
510115 Apr 10:56:43910.5 mph12S (191°)9987310202724.9°C87.8%22.7°C1478ft (450m)13.96v14
510015 Apr 10:56:321112.8 mph15S (185°)9987510202924.9°C87.8%22.7°C1478ft (450m)14.12v15
509915 Apr 10:56:201012.2 mph15S (172°)9987310202724.9°C87.9%22.8°C1470ft (448m)14.11v15
509815 Apr 10:56:091213.2 mph15SSW (200°)9988110203524.9°C87.5%22.7°C1501ft (458m)14.01v16
509715 Apr 10:55:58710.1 mph14S (183°)9987610203024.9°C87.6%22.7°C1493ft (455m)13.94v14
509615 Apr 10:55:4799.4 mph11S (182°)9988510204024.9°C87.6%22.7°C1493ft (455m)13.81v14
509515 Apr 10:55:351112.1 mph13SSW (206°)9988210203624.9°C87.3%22.6°C1516ft (462m)13.65v17
509415 Apr 10:55:241011 mph14S (185°)9988610204124.9°C87.5%22.7°C1501ft (458m)13.49v13
509315 Apr 10:55:13910.7 mph13S (187°)9988210203625°C87.2%22.7°C1525ft (465m)13.43v14
509215 Apr 10:55:02911.6 mph15SSW (196°)9988010203425°C87.3%22.7°C1517ft (462m)13.38v13
509115 Apr 10:54:50811.6 mph14SSW (193°)9988510204025°C87.4%22.8°C1509ft (460m)13.39v15
509015 Apr 10:54:391011.7 mph14SSW (193°)9988210203625°C87%22.7°C1540ft (469m)13.4v16
508915 Apr 10:54:281212.9 mph14SSW (193°)9987910203325°C87.1%22.7°C1532ft (467m)13.4v16
508815 Apr 10:54:171213.2 mph15S (188°)9988310203725°C87.3%22.7°C1517ft (462m)13.39v14
508715 Apr 10:54:051212.9 mph15SSW (196°)9987910203325°C87%22.7°C1540ft (469m)13.36v14
508615 Apr 10:53:541213.1 mph14S (189°)9988510204025°C87.1%22.7°C1532ft (467m)13.33v15
508515 Apr 10:53:43710.1 mph13S (190°)9988210203625°C86.9%22.7°C1548ft (472m)13.34v16
508415 Apr 10:53:3256 mph8S (181°)9988410203925°C86.9%22.7°C1548ft (472m)13.37v14
508315 Apr 10:53:2089.1 mph10SSW (197°)9988210203625°C86.7%22.6°C1563ft (476m)13.39v15
508215 Apr 10:53:09910.3 mph14S (178°)9988010203425°C86.6%22.6°C1571ft (479m)13.42v15
508115 Apr 10:52:581213.6 mph15S (187°)9987310202725°C86.8%22.6°C1556ft (474m)13.47v16
508015 Apr 10:52:471214.7 mph17S (182°)9986810202225°C86.6%22.6°C1571ft (479m)13.58v14
507915 Apr 10:52:351113.2 mph16S (191°)9987310202725°C86.6%22.6°C1571ft (479m)13.57v16
507815 Apr 10:52:2489.4 mph12SSW (197°)9988310203725°C86.6%22.6°C1571ft (479m)13.5v17
507715 Apr 10:52:1378.3 mph10S (188°)9988010203425°C86.6%22.6°C1571ft (479m)13.46v16
507615 Apr 10:52:0289.4 mph11SSW (197°)9989010204525°C86.8%22.6°C1556ft (474m)13.45v16
507515 Apr 10:51:5079 mph11S (185°)9988310203725°C86.7%22.6°C1563ft (476m)13.48v16
507415 Apr 10:51:3966.3 mph8S (184°)9988610204125°C86.7%22.6°C1563ft (476m)13.87v16
507315 Apr 10:51:2866.8 mph9S (178°)9988710204225.1°C86.7%22.7°C1564ft (477m)14.09v16
507215 Apr 10:51:1866.9 mph8SSW (199°)9988910204425.1°C86.5%22.7°C1580ft (482m)14.16v16
507115 Apr 10:51:0699.2 mph10S (189°)9988610204125.1°C86.6%22.7°C1572ft (479m)14.2v17
507015 Apr 10:50:5577.9 mph10S (181°)9988510204025.1°C86.6%22.7°C1572ft (479m)14.19v13
506915 Apr 10:50:4477.9 mph10S (179°)9988210203625°C86.6%22.6°C1571ft (479m)14.19v13
506815 Apr 10:50:3379.1 mph11SSW (198°)9988510204025°C86.6%22.6°C1571ft (479m)14.22v16
506715 Apr 10:50:2178 mph10S (173°)9988910204425°C86.6%22.6°C1571ft (479m)14.19v16
506615 Apr 10:50:1099.3 mph10S (175°)9988110203525°C86.7%22.6°C1563ft (476m)14.17v16
506515 Apr 10:49:5967 mph9SSW (196°)9988610204125°C86.4%22.6°C1587ft (484m)14.18v16
506415 Apr 10:49:4888.9 mph11S (175°)9989010204525°C86.4%22.6°C1587ft (484m)14.18v16
506315 Apr 10:49:3688.9 mph12S (177°)9988210203625°C86.5%22.6°C1579ft (481m)14.23v15
506215 Apr 10:49:251213 mph16S (186°)9988910204425°C86.3%22.5°C1595ft (486m)14.2v16
506115 Apr 10:49:14810.2 mph12S (184°)9988710204225°C86.3%22.5°C1595ft (486m)14.18v15
506015 Apr 10:49:031313.3 mph14SSW (196°)9987610203025°C86.2%22.5°C1603ft (489m)14.19v16
505915 Apr 10:48:51913.1 mph15SSW (199°)9988510204025.1°C86.3%22.6°C1595ft (486m)14.22v16
505815 Apr 10:48:4088.9 mph10S (174°)9988710204225.1°C86.5%22.7°C1580ft (482m)14.18v14
505715 Apr 10:48:2988.7 mph9S (185°)9989110204625.1°C86.4%22.7°C1588ft (484m)14.19v16
505615 Apr 10:48:1788.5 mph10SSW (196°)9989210204725.1°C86.3%22.6°C1595ft (486m)14.23v17
505515 Apr 10:48:0599.6 mph11S (180°)9989010204525.1°C86.4%22.7°C1588ft (484m)14.17v14
505415 Apr 10:47:5468.3 mph10S (188°)9989210204725.1°C86.3%22.6°C1595ft (486m)13.98v15
505315 Apr 10:47:4377.8 mph9SSW (192°)9989010204525.1°C86%22.6°C1619ft (493m)13.91v15
505215 Apr 10:47:3267.5 mph9S (179°)9989010204525.1°C86.2%22.6°C1603ft (489m)13.78v17
505115 Apr 10:47:20810.6 mph13S (183°)9989210204725.1°C86%22.6°C1619ft (493m)13.67v15
505015 Apr 10:47:0968.3 mph11S (191°)9988610204125.1°C86%22.6°C1619ft (493m)13.59v14
504915 Apr 10:46:5878.2 mph9S (177°)9989310204825.1°C86.3%22.6°C1595ft (486m)13.48v17
504815 Apr 10:46:4778.6 mph10S (187°)9988610204125.1°C86.2%22.6°C1603ft (489m)13.65v14
504715 Apr 10:46:3566.5 mph7S (180°)9989510205025.1°C86.2%22.6°C1603ft (489m)13.65v14
504615 Apr 10:46:2434.2 mph6S (174°)9989410204925.1°C86.2%22.6°C1603ft (489m)13.54v13
504515 Apr 10:46:1333.5 mph5SSE (165°)9989810205325.1°C86.1%22.6°C1611ft (491m)13.48v17
504415 Apr 10:46:0245.9 mph12SE (140°)9989610205125.1°C85.9%22.6°C1627ft (496m)13.63v14
504315 Apr 10:45:501010.4 mph12SSW (212°)9988710204225.1°C85.8%22.6°C1635ft (498m)13.92v16
504215 Apr 10:45:3967.7 mph10SSW (193°)9988510204025.1°C85.8%22.6°C1635ft (498m)14.05v13
504115 Apr 10:45:28911 mph12SSW (210°)9988510204025.1°C85.6%22.5°C1651ft (503m)14.14v16
504015 Apr 10:45:1866.6 mph8SSW (199°)9989010204525.2°C85.7%22.6°C1643ft (501m)14.16v16
503915 Apr 10:45:0656.6 mph8SSW (208°)9989010204525.2°C85.6%22.6°C1651ft (503m)14.2v15
503815 Apr 10:44:5589 mph11SSW (208°)9988410203925.2°C85.4%22.6°C1667ft (508m)14.17v15
503715 Apr 10:44:4499.7 mph11SSW (200°)9989210204725.2°C85.3%22.6°C1675ft (511m)14.19v16
503615 Apr 10:44:331111.8 mph13SSW (201°)9988810204325.2°C85.1%22.5°C1691ft (515m)14.23v16
503515 Apr 10:44:211313.3 mph15SSW (200°)9988510204025.2°C84.9%22.5°C1707ft (520m)14.22v13
503415 Apr 10:44:10912.8 mph16S (187°)9988410203925.2°C85%22.5°C1699ft (518m)14.23v14
503315 Apr 10:43:591112.9 mph16S (190°)9988910204425.2°C84.9%22.5°C1707ft (520m)14.18v13
503215 Apr 10:43:481213 mph14S (190°)9987810203225.2°C84.9%22.5°C1707ft (520m)14.05v13
503115 Apr 10:43:3678.1 mph9S (183°)9988410203925.2°C85.1%22.5°C1691ft (515m)14.02v14
503015 Apr 10:43:25810.5 mph13S (190°)9988010203425.2°C84.8%22.5°C1715ft (523m)14.04v15
502915 Apr 10:43:141011.9 mph15SSW (194°)9988610204125.3°C84.6%22.5°C1732ft (528m)14.11v15
502815 Apr 10:43:031010.5 mph11SSW (194°)9989210204725.3°C84.7%22.5°C1724ft (525m)14.2v17
502715 Apr 10:42:5188.9 mph10SSW (194°)9988710204225.3°C85%22.6°C1700ft (518m)14.11v15
502615 Apr 10:42:40910.5 mph12S (189°)9989110204625.3°C85%22.6°C1700ft (518m)13.95v15
502515 Apr 10:42:2989.4 mph11S (188°)9989010204525.3°C85%22.6°C1700ft (518m)13.79v17
502415 Apr 10:42:1866.7 mph8SSW (194°)9989510205025.3°C85%22.6°C1700ft (518m)13.52v17
502315 Apr 10:42:0644.9 mph6S (180°)9989410204925.3°C85%22.6°C1700ft (518m)13.38v17
502215 Apr 10:41:5556.3 mph8SSE (154°)9989810205325.3°C84.9%22.6°C1708ft (521m)13.33v17
502115 Apr 10:41:4455.3 mph6S (171°)9990110205625.3°C85%22.6°C1700ft (518m)13.3v16
502015 Apr 10:41:3345.3 mph7S (176°)9989710205225.3°C84.9%22.6°C1708ft (521m)13.28v16
501915 Apr 10:41:2156.2 mph8SSE (164°)9989910205425.3°C84.8%22.6°C1716ft (523m)13.27v18
501815 Apr 10:41:1066.2 mph8S (176°)9990210205725.3°C84.9%22.6°C1708ft (521m)13.26v17
501715 Apr 10:40:5956.1 mph7SSE (167°)9990110205625.3°C84.9%22.6°C1708ft (521m)13.25v15
501615 Apr 10:40:4866.8 mph8SSE (164°)9989710205225.3°C84.9%22.6°C1708ft (521m)13.26v16
501515 Apr 10:40:3667.2 mph9S (174°)9989710205225.3°C85%22.6°C1700ft (518m)13.26v16
501415 Apr 10:40:2556.2 mph8SSE (164°)9989710205225.3°C84.9%22.6°C1708ft (521m)13.27v17
501315 Apr 10:40:1455.3 mph6S (169°)9989710205225.4°C85%22.7°C1701ft (518m)13.27v15
501215 Apr 10:40:0356 mph7S (171°)9989710205225.4°C85%22.7°C1701ft (518m)13.24v13
501115 Apr 10:39:5156.8 mph8S (174°)9989610205125.4°C84.9%22.7°C1708ft (521m)13.23v18
501015 Apr 10:39:4033.2 mph4SSW (196°)9990010205525.4°C85%22.7°C1701ft (518m)13.24v16
500915 Apr 10:39:2924.1 mph5S (182°)9989710205225.4°C84.9%22.7°C1708ft (521m)13.22v18
500815 Apr 10:39:1822.9 mph4SSE (168°)9989710205225.4°C84.8%22.7°C1716ft (523m)13.23v16
500715 Apr 10:39:0644.8 mph6S (189°)9989610205125.4°C84.9%22.7°C1708ft (521m)13.22v15
500615 Apr 10:38:5567.6 mph8S (173°)9989410204925.4°C84.7%22.6°C1724ft (525m)13.22v18
500515 Apr 10:38:4457.3 mph9S (172°)9989310204825.4°C84.7%22.6°C1724ft (525m)13.21v19
500415 Apr 10:38:3367.5 mph9S (174°)9989310204825.4°C84.7%22.6°C1724ft (525m)13.2v17
500315 Apr 10:38:2189.2 mph12S (175°)9988910204425.5°C84.6%22.7°C1733ft (528m)13.21v15
500215 Apr 10:38:1067.4 mph9SSW (193°)9988810204325.4°C84.7%22.6°C1724ft (525m)13.22v17
500115 Apr 10:37:5977.7 mph9SSW (201°)9988310203725.4°C84.7%22.6°C1724ft (525m)13.23v20
500015 Apr 10:37:4856 mph8SSW (194°)9988210203625.4°C84.7%22.6°C1724ft (525m)13.22v18
499915 Apr 10:37:3656 mph8S (190°)9988510204025.5°C84.7%22.7°C1725ft (526m)13.21v17
499815 Apr 10:37:2567.7 mph10S (185°)9988310203725.5°C84.4%22.7°C1749ft (533m)13.22v17
499715 Apr 10:37:1489 mph10SSW (199°)9988610204125.5°C84.5%22.7°C1741ft (531m)13.21v20
499615 Apr 10:37:0389.9 mph11SSW (205°)9988610204125.5°C84.3%22.7°C1757ft (536m)13.19v18
499515 Apr 10:36:5167.8 mph9SW (214°)9988510204025.5°C84.5%22.7°C1741ft (531m)13.18v18
499415 Apr 10:36:4068.5 mph11SSW (197°)9988210203625.5°C84.1%22.6°C1773ft (540m)13.16v20
499315 Apr 10:36:2955.5 mph6SSW (210°)9988610204125.5°C84.3%22.7°C1757ft (536m)13.17v18
499215 Apr 10:36:1866.5 mph7SSW (213°)9988210203625.5°C84.3%22.7°C1757ft (536m)13.18v18
499115 Apr 10:36:0756 mph7SW (217°)9988210203625.5°C84.2%22.6°C1765ft (538m)13.17v18
499015 Apr 10:35:5577.9 mph9SSW (199°)9988010203425.5°C84%22.6°C1781ft (543m)13.18v19
498915 Apr 10:35:4499.2 mph10SW (215°)9988010203425.5°C84%22.6°C1781ft (543m)13.17v17
498815 Apr 10:35:3389.3 mph11SSW (202°)9988110203525.5°C83.8%22.6°C1798ft (548m)13.16v18
498715 Apr 10:35:2267.4 mph9SSW (207°)9988310203725.5°C84%22.6°C1781ft (543m)13.17v17
498615 Apr 10:35:1056.4 mph8SSW (212°)9988510204025.5°C84%22.6°C1781ft (543m)13.17v17
498515 Apr 10:34:5977.7 mph9SSW (200°)9988610204125.5°C83.9%22.6°C1789ft (545m)13.18v17
498415 Apr 10:34:4877.7 mph9SSW (209°)9988610204125.5°C83.9%22.6°C1789ft (545m)13.16v19
498315 Apr 10:34:3767.2 mph9SSW (204°)9989010204525.5°C83.9%22.6°C1789ft (545m)13.17v18
498215 Apr 10:34:2544.6 mph6S (187°)9989210204725.5°C83.8%22.6°C1798ft (548m)13.17v17
498115 Apr 10:34:1444.4 mph7S (188°)9989210204725.5°C83.8%22.6°C1798ft (548m)13.16v18
498015 Apr 10:34:0379.1 mph10SSW (192°)9989210204725.5°C83.9%22.6°C1789ft (545m)13.15v18
497915 Apr 10:33:5156.4 mph9S (185°)9988710204225.6°C83.8%22.7°C1798ft (548m)13.14v18
497815 Apr 10:33:4045.4 mph7S (190°)9989310204825.5°C83.9%22.6°C1789ft (545m)13.14v18
497715 Apr 10:33:2934 mph5S (173°)9989210204725.5°C83.8%22.6°C1798ft (548m)13.15v15
497615 Apr 10:33:1833.5 mph4S (189°)9989010204525.5°C83.8%22.6°C1798ft (548m)13.14v18
497515 Apr 10:33:0744.9 mph6SSW (195°)9988910204425.5°C83.8%22.6°C1798ft (548m)13.15v19
497415 Apr 10:32:5555.1 mph6SSW (192°)9988710204225.6°C83.7%22.6°C1807ft (551m)13.15v18
497315 Apr 10:32:4445.2 mph6SSW (205°)9988610204125.6°C83.7%22.6°C1807ft (551m)13.15v18
497215 Apr 10:32:3366.9 mph9SSW (197°)9988310203725.6°C83.6%22.6°C1815ft (553m)13.17v16
497115 Apr 10:32:2199.6 mph10SSW (199°)9987810203225.6°C83.6%22.6°C1815ft (553m)13.15v15
497015 Apr 10:32:1067.5 mph9SSW (194°)9987910203325.6°C83.8%22.7°C1798ft (548m)13.18v16
496915 Apr 10:31:5967.5 mph9SSW (211°)9988210203625.6°C83.8%22.7°C1798ft (548m)13.2v19
496815 Apr 10:31:4844.8 mph6SW (233°)9988510204025.6°C83.8%22.7°C1798ft (548m)13.22v18
496715 Apr 10:31:3645.4 mph6SSW (204°)9988510204025.6°C83.8%22.7°C1798ft (548m)13.21v18
496615 Apr 10:31:2578.6 mph11SSW (202°)9988710204225.6°C83.7%22.6°C1807ft (551m)13.21v18
496515 Apr 10:31:1468.5 mph10SSW (203°)9989110204625.6°C83.9%22.7°C1790ft (546m)13.22v19
496415 Apr 10:31:0344.9 mph6SSW (208°)9988710204225.6°C83.9%22.7°C1790ft (546m)13.22v17
496315 Apr 10:30:5144.7 mph6S (180°)9988910204425.6°C83.8%22.7°C1798ft (548m)13.2v18
496215 Apr 10:30:4055.5 mph6SSW (198°)9988610204125.6°C83.8%22.7°C1798ft (548m)13.18v15
496115 Apr 10:30:2977.4 mph8SSW (198°)9988710204225.7°C83.7%22.7°C1807ft (551m)13.19v16
496015 Apr 10:30:1878.4 mph11SSW (206°)9989010204525.7°C83.7%22.7°C1807ft (551m)13.19v16
495915 Apr 10:30:0644.3 mph6SSW (192°)9988910204425.7°C83.6%22.7°C1816ft (554m)13.18v16
495815 Apr 10:29:5555.4 mph6S (183°)9988910204425.7°C83.6%22.7°C1816ft (554m)13.17v16
495715 Apr 10:29:4467.2 mph8S (191°)9988810204325.7°C83.6%22.7°C1816ft (554m)13.19v16
495615 Apr 10:29:3345.2 mph7SSW (197°)9988410203925.7°C83.6%22.7°C1816ft (554m)13.18v15
495515 Apr 10:29:2155.5 mph7SSW (205°)9988310203725.7°C83.5%22.7°C1824ft (556m)13.16v15
495415 Apr 10:29:1056.1 mph8SSW (207°)9988510204025.7°C83.5%22.7°C1824ft (556m)13.19v14
495315 Apr 10:28:5945.3 mph7S (190°)9988210203625.7°C83.5%22.7°C1824ft (556m)13.21v15
495215 Apr 10:28:4855.4 mph7SSW (210°)9987810203225.7°C83.5%22.7°C1824ft (556m)13.2v13
495115 Apr 10:28:3655.6 mph7SSW (200°)9987910203325.7°C83.4%22.7°C1832ft (558m)13.21v14
495015 Apr 10:28:2578.1 mph9SSW (193°)9988110203525.7°C83.4%22.7°C1832ft (558m)13.22v14
494915 Apr 10:28:1466.5 mph8SSW (200°)9987610203025.7°C83.4%22.7°C1832ft (558m)13.23v13
494815 Apr 10:28:0345.6 mph8SSW (202°)9987710203125.7°C83.4%22.7°C1832ft (558m)13.24v13
494715 Apr 10:27:5156.5 mph9SW (217°)9987710203125.8°C83.4%22.8°C1833ft (559m)13.26v14
494615 Apr 10:27:4055.5 mph6SSW (195°)9987410202825.8°C83.4%22.8°C1833ft (559m)13.28v13
494515 Apr 10:27:2944.8 mph6SSW (213°)9987510202925.8°C83.4%22.8°C1833ft (559m)13.29v16
494415 Apr 10:27:1855.9 mph7SW (216°)9987210202625.8°C83.3%22.7°C1841ft (561m)13.33v15
494315 Apr 10:27:0666.3 mph7SSW (213°)9987310202725.8°C83.3%22.7°C1841ft (561m)13.33v14
494215 Apr 10:26:5555.7 mph7SW (232°)9987410202825.8°C83.2%22.7°C1849ft (564m)13.36v16
494115 Apr 10:26:4445 mph6SSW (210°)9987510202925.8°C83.2%22.7°C1849ft (564m)13.36v14
494015 Apr 10:26:3355.5 mph6SW (222°)9987310202725.8°C83.2%22.7°C1849ft (564m)13.38v15
493915 Apr 10:26:2166.4 mph7SW (226°)9987210202625.8°C83.1%22.7°C1857ft (566m)13.39v13
493815 Apr 10:26:1055.9 mph7SW (226°)9987810203225.8°C83.1%22.7°C1857ft (566m)13.4v13
493715 Apr 10:25:5977.8 mph10SSW (209°)9987810203225.8°C83%22.7°C1865ft (568m)13.41v14
493615 Apr 10:25:4855.7 mph7SSW (201°)9987810203225.9°C83%22.8°C1866ft (569m)13.4v15
493515 Apr 10:25:3667.4 mph9SSW (209°)9988010203425.9°C83%22.8°C1866ft (569m)13.4v14
493415 Apr 10:25:2556.4 mph9SW (215°)9987710203125.9°C83%22.8°C1866ft (569m)13.41v15
493315 Apr 10:25:1456.7 mph8SW (215°)9987510202925.9°C83%22.8°C1866ft (569m)13.41v15
493215 Apr 10:25:0334.5 mph7SSW (204°)9987410202825.9°C83%22.8°C1866ft (569m)13.45v15
493115 Apr 10:24:5144.9 mph6SW (230°)9987510202925.9°C83%22.8°C1866ft (569m)13.47v15
493015 Apr 10:24:4056.1 mph8SW (221°)9987610203025.9°C82.9%22.8°C1874ft (571m)13.47v13
492915 Apr 10:24:2965.8 mph7SW (215°)9987710203125.9°C82.8%22.7°C1882ft (574m)13.47v15
492815 Apr 10:24:1889.1 mph10SW (222°)9987310202725.9°C82.9%22.8°C1874ft (571m)13.58v15
492715 Apr 10:24:0645.1 mph6SW (226°)9987610203025.9°C83%22.8°C1866ft (569m)13.65v13
492615 Apr 10:23:5534 mph5SW (230°)9987810203225.9°C82.7%22.7°C1891ft (576m)13.61v16
492515 Apr 10:23:4446.6 mph9SSW (211°)9987710203125.9°C82.7%22.7°C1891ft (576m)13.54v13
492415 Apr 10:23:3356.9 mph9SW (216°)9987610203025.9°C82.7%22.7°C1891ft (576m)13.55v13
492315 Apr 10:23:2145.3 mph6SW (224°)9987810203225.9°C82.6%22.7°C1899ft (579m)13.51v16
492215 Apr 10:23:1067.5 mph9SW (219°)9987510202926°C82.6%22.8°C1900ft (579m)13.49v13
492115 Apr 10:22:5967 mph8SSW (212°)9987710203126°C82.5%22.8°C1908ft (582m)13.45v15
492015 Apr 10:22:4878.3 mph9SW (229°)9988210203626°C82.5%22.8°C1908ft (582m)13.43v16
491915 Apr 10:22:3656.7 mph9SW (225°)9987610203026°C82.5%22.8°C1908ft (582m)13.41v15
491815 Apr 10:22:2544.9 mph8SW (220°)9988210203626°C82.5%22.8°C1908ft (582m)13.4v15
491715 Apr 10:22:1434.6 mph6SW (227°)9988010203426°C82.4%22.8°C1916ft (584m)13.4v13
491615 Apr 10:22:0333.6 mph4SW (217°)9988110203526°C82.3%22.7°C1924ft (586m)13.4v14
491515 Apr 10:21:5144.5 mph5SW (227°)9988010203426°C82.2%22.7°C1933ft (589m)13.39v14
491415 Apr 10:21:4055.6 mph6SW (223°)9988310203726°C82.2%22.7°C1933ft (589m)13.37v16
491315 Apr 10:21:2956.6 mph7SW (216°)9988410203926°C82.1%22.7°C1941ft (592m)13.36v14
491215 Apr 10:21:1855.4 mph7SSW (210°)9988610204126°C82.1%22.7°C1941ft (592m)13.38v15
491115 Apr 10:21:0766 mph7SSW (213°)9988410203926°C82%22.7°C1949ft (594m)13.37v15
491015 Apr 10:20:5566.5 mph9S (188°)9988210203626.1°C81.8%22.7°C1967ft (600m)13.36v15
490915 Apr 10:20:4465.8 mph7SSW (209°)9988210203626.1°C81.7%22.7°C1975ft (602m)13.35v15
490815 Apr 10:20:3344.6 mph6SW (216°)9988710204226.1°C81.6%22.7°C1983ft (604m)13.36v14
490715 Apr 10:20:2188.4 mph9SSW (207°)9988510204026.1°C81.6%22.7°C1983ft (604m)13.35v15
490615 Apr 10:20:1076.9 mph8SSW (211°)9988810204326.2°C81.6%22.8°C1984ft (605m)13.36v16
490515 Apr 10:19:5956.8 mph9SSW (205°)9988610204126.1°C81.5%22.7°C1992ft (607m)13.37v15
490415 Apr 10:19:4878 mph9SSW (201°)9988510204026.2°C81.5%22.8°C1993ft (607m)13.37v13
490315 Apr 10:19:3655.5 mph7SSW (209°)9988610204126.1°C81.6%22.7°C1983ft (604m)13.39v14
490215 Apr 10:19:2544.4 mph5SW (217°)9988610204126.1°C81.6%22.7°C1983ft (604m)13.4v13
490115 Apr 10:19:1466.2 mph7SW (223°)9988810204326.1°C81.5%22.7°C1992ft (607m)13.4v14
490015 Apr 10:19:0355.3 mph6SW (221°)9988510204026.1°C81.6%22.7°C1983ft (604m)13.42v15
489915 Apr 10:18:5144.9 mph6SW (221°)9988710204226.1°C81.6%22.7°C1983ft (604m)13.42v15
489815 Apr 10:18:4044.9 mph6SW (216°)9988910204426.1°C81.7%22.7°C1975ft (602m)13.41v14
489715 Apr 10:18:2955 mph5SW (217°)9988710204226°C81.8%22.6°C1966ft (599m)13.4v16
489615 Apr 10:18:1855.4 mph7SW (216°)9988510204026°C81.8%22.6°C1966ft (599m)13.39v15
489515 Apr 10:18:0666.7 mph8SSW (206°)9988810204326°C81.9%22.7°C1957ft (596m)13.4v14
489415 Apr 10:17:5567.5 mph9SSW (199°)9988710204226°C82%22.7°C1949ft (594m)13.41v14
489315 Apr 10:17:4456.8 mph9SSW (207°)9988510204026°C82.1%22.7°C1941ft (592m)13.42v17
489215 Apr 10:17:3388.8 mph9SSW (204°)9988410203925.9°C82.2%22.6°C1932ft (589m)13.45v15
489115 Apr 10:17:2167.4 mph9SSW (193°)9988510204025.9°C82.4%22.7°C1915ft (584m)13.49v14
489015 Apr 10:17:1089.2 mph10SSW (195°)9988210203625.9°C82.5%22.7°C1907ft (581m)13.5v17
488915 Apr 10:16:5988.7 mph10SSW (202°)9988710204225.8°C82.8%22.7°C1881ft (573m)13.51v15
488815 Apr 10:16:4855.9 mph9SSW (201°)9988410203925.8°C83%22.7°C1865ft (568m)13.55v14
488715 Apr 10:16:3666.4 mph7SW (214°)9988810204325.8°C83.1%22.7°C1857ft (566m)13.51v16
488615 Apr 10:16:2566.7 mph8SSW (213°)9988710204225.8°C83.3%22.7°C1841ft (561m)13.51v16
488515 Apr 10:16:1445 mph6SSW (208°)9989010204525.7°C83.3%22.7°C1840ft (561m)13.55v14
488415 Apr 10:16:0344.4 mph5SSW (211°)9988810204325.7°C83.3%22.7°C1840ft (561m)13.53v14
488315 Apr 10:15:5156.2 mph7SW (221°)9988710204225.7°C83.5%22.7°C1824ft (556m)13.53v15
488215 Apr 10:15:4055.9 mph7SSW (204°)9988810204325.7°C83.6%22.7°C1816ft (554m)13.57v15
488115 Apr 10:15:2955.4 mph6SSW (211°)9989110204625.7°C83.6%22.7°C1816ft (554m)13.55v16
488015 Apr 10:15:1766.3 mph7SSW (207°)9989210204725.6°C83.7%22.6°C1807ft (551m)13.52v14
487915 Apr 10:15:0655.4 mph6SSW (204°)9989010204525.6°C83.8%22.7°C1798ft (548m)13.52v16
487815 Apr 10:14:5456 mph7SSW (209°)9989110204625.6°C83.7%22.6°C1807ft (551m)13.5v16
487715 Apr 10:14:4356.4 mph8SSW (213°)9988810204325.6°C83.8%22.7°C1798ft (548m)13.5v18
487615 Apr 10:14:3255.7 mph7SW (214°)9988910204425.6°C83.8%22.7°C1798ft (548m)13.9v18
487515 Apr 10:14:2155.4 mph6SW (216°)9988810204325.6°C83.8%22.7°C1798ft (548m)13.88v18
487415 Apr 10:14:0967.5 mph9SSW (205°)9989110204625.6°C83.9%22.7°C1790ft (546m)13.88v18
487315 Apr 10:13:5845 mph6SW (225°)9989010204525.6°C83.9%22.7°C1790ft (546m)13.85v16
487215 Apr 10:13:4766.6 mph8SSW (205°)9989110204625.6°C83.9%22.7°C1790ft (546m)13.68v17
487115 Apr 10:13:3667.2 mph8SSW (208°)9989010204525.6°C84%22.7°C1782ft (543m)13.5v18
487015 Apr 10:13:2499.5 mph10SSW (204°)9988610204125.6°C84%22.7°C1782ft (543m)13.93v18
486915 Apr 10:13:1345.2 mph6SSW (199°)9988810204325.6°C84.2%22.7°C1766ft (538m)13.91v17
486815 Apr 10:13:0244.8 mph5SW (215°)9989010204525.6°C84%22.7°C1782ft (543m)13.77v19
486715 Apr 10:12:5166.5 mph7SW (214°)9989210204725.6°C84%22.7°C1782ft (543m)13.59v17
486615 Apr 10:12:3977.1 mph8SW (218°)9989010204525.5°C84%22.6°C1781ft (543m)13.6v18
486515 Apr 10:12:2846.7 mph9SSW (209°)9988610204125.5°C84.1%22.6°C1773ft (540m)13.84v17
486415 Apr 10:12:1755.7 mph6SSW (208°)9989110204625.5°C84.1%22.6°C1773ft (540m)13.72v18
486315 Apr 10:12:0645.1 mph6SSW (212°)9989010204525.5°C84.2%22.6°C1765ft (538m)13.58v17
486215 Apr 10:11:5445 mph6SSW (212°)9989010204525.5°C84.2%22.6°C1765ft (538m)13.55v17
486115 Apr 10:11:4367.3 mph9SSW (211°)9989110204625.5°C84.2%22.6°C1765ft (538m)13.92v19
486015 Apr 10:11:3255 mph5SW (221°)9988910204425.5°C84.2%22.6°C1765ft (538m)13.84v17
485915 Apr 10:11:2166 mph6SW (218°)9989210204725.5°C84.3%22.7°C1757ft (536m)13.65v17
485815 Apr 10:11:0955.6 mph6SW (218°)9989110204625.5°C84.4%22.7°C1749ft (533m)13.53v19
485715 Apr 10:10:5834.2 mph5SSW (210°)9989210204725.5°C84.4%22.7°C1749ft (533m)13.91v18
485615 Apr 10:10:4766.4 mph8SW (216°)9989010204525.5°C84.3%22.7°C1757ft (536m)13.88v18
485515 Apr 10:10:3655.9 mph7SSW (210°)9989110204625.5°C84.5%22.7°C1741ft (531m)13.82v16
485415 Apr 10:10:2433.4 mph4SW (218°)9989010204525.5°C84.6%22.7°C1733ft (528m)13.73v16
485315 Apr 10:10:1334.7 mph6SW (220°)9989410204925.5°C84.3%22.7°C1757ft (536m)13.65v19
485215 Apr 10:10:0245.2 mph6SW (225°)9989310204825.5°C84.4%22.7°C1749ft (533m)13.51v17
485115 Apr 10:09:5144.4 mph5SW (216°)9989110204625.4°C84.5%22.6°C1740ft (530m)13.62v17
485015 Apr 10:09:3955.8 mph7SSW (209°)9989410204925.4°C84.5%22.6°C1740ft (530m)13.64v17
484915 Apr 10:09:2854.8 mph5SSW (213°)9989010204525.4°C84.5%22.6°C1740ft (530m)13.6v16
484815 Apr 10:09:1844.8 mph6SW (224°)9989010204525.4°C84.5%22.6°C1740ft (530m)13.51v18
484715 Apr 10:09:0656 mph8SSW (209°)9989010204525.4°C84.4%22.6°C1748ft (533m)13.6v17
484615 Apr 10:08:5545.3 mph8SW (218°)9989110204625.4°C84.6%22.6°C1732ft (528m)13.67v19
484515 Apr 10:08:4455.8 mph6SW (220°)9989510205025.4°C84.6%22.6°C1732ft (528m)13.62v18
484415 Apr 10:08:3334.1 mph5SW (217°)9989610205125.4°C84.6%22.6°C1732ft (528m)13.53v19
484315 Apr 10:08:2155.3 mph7SW (216°)9989410204925.4°C84.7%22.6°C1724ft (525m)13.57v19
484215 Apr 10:08:1088.4 mph9SSW (201°)9989110204625.4°C84.6%22.6°C1732ft (528m)13.57v14
484115 Apr 10:07:5966.9 mph8SSW (210°)9989410204925.4°C84.7%22.6°C1724ft (525m)13.53v14
484015 Apr 10:07:4867.1 mph8SSW (208°)9989310204825.4°C84.7%22.6°C1724ft (525m)13.52v13
483915 Apr 10:07:3655.7 mph7SW (216°)9989610205125.4°C84.8%22.7°C1716ft (523m)13.48v13
483815 Apr 10:07:2544.7 mph6SW (215°)9989710205225.4°C84.9%22.7°C1708ft (521m)13.48v15
483715 Apr 10:07:1444.6 mph6SSW (204°)9989510205025.4°C84.7%22.6°C1724ft (525m)13.46v14
483615 Apr 10:07:0355.3 mph6SW (224°)9989710205225.4°C84.7%22.6°C1724ft (525m)13.44v15
483515 Apr 10:06:5155.7 mph6SW (221°)9989710205225.4°C84.7%22.6°C1724ft (525m)13.43v15
483415 Apr 10:06:4034 mph5SW (219°)9989910205425.4°C84.6%22.6°C1732ft (528m)13.42v13
483315 Apr 10:06:2933.8 mph4SW (218°)9989810205325.4°C84.5%22.6°C1740ft (530m)13.42v14
483215 Apr 10:06:1844.9 mph6SW (220°)9989610205125.4°C84.5%22.6°C1740ft (530m)13.39v14
483115 Apr 10:06:0655.7 mph6SSW (211°)9989510205025.4°C84.4%22.6°C1748ft (533m)13.4v16
483015 Apr 10:05:5555.5 mph6SSW (211°)9989510205025.4°C84.3%22.6°C1756ft (535m)13.41v15
482915 Apr 10:05:4477.4 mph8SW (215°)9989610205125.4°C84.4%22.6°C1748ft (533m)13.41v15
482815 Apr 10:05:3345.5 mph7SSW (198°)9989310204825.4°C84.5%22.6°C1740ft (530m)13.39v15
482715 Apr 10:05:2166.3 mph7SSW (206°)9989710205225.4°C84.5%22.6°C1740ft (530m)13.4v14
482615 Apr 10:05:1066.3 mph7SSW (209°)9989610205125.4°C84.5%22.6°C1740ft (530m)13.41v14
482515 Apr 10:04:5956.3 mph7SW (219°)9989510205025.4°C84.5%22.6°C1740ft (530m)13.4v13
482415 Apr 10:04:4867 mph8SSW (211°)9989710205225.4°C84.5%22.6°C1740ft (530m)13.4v16
482315 Apr 10:04:3666.1 mph7SSW (213°)9989710205225.4°C84.6%22.6°C1732ft (528m)13.4v16
482215 Apr 10:04:2555.7 mph6SSW (209°)9989210204725.4°C84.6%22.6°C1732ft (528m)13.39v15
482115 Apr 10:04:1456.2 mph7SW (216°)9989910205425.4°C84.5%22.6°C1740ft (530m)13.42v14
482015 Apr 10:04:0356.2 mph7SSW (213°)9989510205025.3°C84.6%22.5°C1732ft (528m)13.44v13
481915 Apr 10:03:5133.8 mph5SW (223°)9989810205325.3°C84.6%22.5°C1732ft (528m)13.43v13
481815 Apr 10:03:4044.8 mph5SSW (213°)9989310204825.3°C84.6%22.5°C1732ft (528m)13.43v16
481715 Apr 10:03:2955.5 mph6SW (215°)9989710205225.3°C84.6%22.5°C1732ft (528m)13.41v14
481615 Apr 10:03:1844 mph5SSW (210°)9989410204925.3°C84.6%22.5°C1732ft (528m)13.42v13
481515 Apr 10:03:0644.4 mph5SW (221°)9989610205125.3°C84.5%22.5°C1740ft (530m)13.45v16
481415 Apr 10:02:5544.8 mph5SSW (208°)9989510205025.3°C84.5%22.5°C1740ft (530m)13.43v13
481315 Apr 10:02:4455.5 mph6SW (219°)9989810205325.3°C84.5%22.5°C1740ft (530m)13.43v13
481215 Apr 10:02:3356.6 mph9SSW (213°)9989510205025.3°C84.5%22.5°C1740ft (530m)13.43v13
481115 Apr 10:02:2166.2 mph7SSW (211°)9989310204825.3°C84.5%22.5°C1740ft (530m)13.43v15
481015 Apr 10:02:1056 mph8SSW (209°)9989510205025.4°C84.4%22.6°C1748ft (533m)13.43v14
480915 Apr 10:01:5955.5 mph6SSW (207°)9989610205125.4°C84.4%22.6°C1748ft (533m)13.43v14
480815 Apr 10:01:4877.1 mph8SSW (204°)9989410204925.4°C84.3%22.6°C1756ft (535m)13.41v13
480715 Apr 10:01:3655.3 mph6SSW (198°)9989710205225.4°C84.4%22.6°C1748ft (533m)13.42v13
480615 Apr 10:01:2556.1 mph8SSW (206°)9989510205025.3°C84.4%22.5°C1748ft (533m)13.43v16
480515 Apr 10:01:1457 mph8SSW (205°)9989210204725.3°C84.4%22.5°C1748ft (533m)13.42v14
480415 Apr 10:01:0367.4 mph9SSW (196°)9989910205425.3°C84.4%22.5°C1748ft (533m)13.43v16
480315 Apr 10:00:5167.5 mph9SSW (198°)9989510205025.3°C84.5%22.5°C1740ft (530m)13.43v15
480215 Apr 10:00:4077.1 mph8SSW (207°)9989710205225.3°C84.6%22.5°C1732ft (528m)13.43v14
480115 Apr 10:00:2966.7 mph8SSW (206°)9989410204925.3°C84.6%22.5°C1732ft (528m)13.44v16
480015 Apr 10:00:1877.6 mph8SSW (210°)9989510205025.3°C84.6%22.5°C1732ft (528m)13.43v16
479915 Apr 10:00:0688.8 mph10SSW (202°)9989310204825.3°C84.6%22.5°C1732ft (528m)13.42v15
479815 Apr 09:59:5566.5 mph7SSW (198°)9989510205025.3°C84.6%22.5°C1732ft (528m)13.42v16
479715 Apr 09:59:4456.9 mph9SSW (206°)9989510205025.3°C84.6%22.5°C1732ft (528m)13.42v15
479615 Apr 09:59:3345.3 mph6SSW (210°)9989510205025.3°C84.6%22.5°C1732ft (528m)13.42v16
479515 Apr 09:59:2155.4 mph6SSW (211°)9989710205225.3°C84.5%22.5°C1740ft (530m)13.43v13
479415 Apr 09:59:1055.8 mph7SW (215°)9989510205025.3°C84.5%22.5°C1740ft (530m)13.43v16
479315 Apr 09:58:5945.3 mph8S (191°)9989610205125.3°C84.5%22.5°C1740ft (530m)13.44v16
479215 Apr 09:58:4877.6 mph9SSW (209°)9989110204625.3°C84.6%22.5°C1732ft (528m)13.45v14
479115 Apr 09:58:3666.6 mph8SSW (205°)9989710205225.3°C84.6%22.5°C1732ft (528m)13.42v16
479015 Apr 09:58:2556.3 mph7SW (224°)9989510205025.3°C84.6%22.5°C1732ft (528m)13.45v14
478915 Apr 09:58:1456.4 mph7SSW (213°)9989510205025.3°C84.6%22.5°C1732ft (528m)13.45v14
478815 Apr 09:58:0366.9 mph8SW (221°)9989610205125.3°C84.6%22.5°C1732ft (528m)13.45v13
478715 Apr 09:57:5177.6 mph8SSW (213°)9989510205025.3°C84.6%22.5°C1732ft (528m)13.46v14
478615 Apr 09:57:4077.2 mph8SSW (208°)9989410204925.3°C84.7%22.5°C1724ft (525m)13.46v15
478515 Apr 09:57:2957.2 mph9SSW (211°)9989610205125.3°C84.8%22.6°C1716ft (523m)13.45v14
478415 Apr 09:57:1856 mph7SSW (209°)9989410204925.3°C84.8%22.6°C1716ft (523m)13.46v13
478315 Apr 09:57:0666.1 mph7SSW (213°)9989310204825.3°C84.8%22.6°C1716ft (523m)13.44v14
478215 Apr 09:56:5578.5 mph10SSW (207°)9989210204725.3°C84.7%22.5°C1724ft (525m)13.43v14
478115 Apr 09:56:4468.2 mph10SSW (203°)9989210204725.3°C84.7%22.5°C1724ft (525m)13.45v14
478015 Apr 09:56:3355.3 mph6SSW (212°)9989610205125.3°C84.7%22.5°C1724ft (525m)13.46v13
477915 Apr 09:56:2178.7 mph10SW (220°)9989610205125.3°C84.7%22.5°C1724ft (525m)13.45v13
477815 Apr 09:56:1077.9 mph9SW (222°)9989510205025.3°C84.7%22.5°C1724ft (525m)13.43v16
477715 Apr 09:55:5955.6 mph6SSW (213°)9989710205225.3°C84.8%22.6°C1716ft (523m)13.45v13
477615 Apr 09:55:4855.4 mph6SW (216°)9989510205025.3°C84.7%22.5°C1724ft (525m)13.45v13
477515 Apr 09:55:3666.8 mph8SW (229°)9989710205225.3°C84.6%22.5°C1732ft (528m)13.45v16
477415 Apr 09:55:2578.6 mph10SSW (212°)9989410204925.3°C84.6%22.5°C1732ft (528m)13.46v14
477315 Apr 09:55:1466.8 mph8SW (216°)9989310204825.3°C84.7%22.5°C1724ft (525m)13.47v17
477215 Apr 09:55:0367.1 mph8SSW (206°)9989610205125.3°C84.6%22.5°C1732ft (528m)13.47v13
477115 Apr 09:54:5167 mph8SSW (198°)9989410204925.3°C84.8%22.6°C1716ft (523m)13.47v13
477015 Apr 09:54:4089 mph10SSW (204°)9989510205025.3°C84.8%22.6°C1716ft (523m)13.47v14
476915 Apr 09:54:2977.9 mph9SW (214°)9989810205325.3°C84.8%22.6°C1716ft (523m)13.46v16
476815 Apr 09:54:1877.1 mph8SSW (207°)9989710205225.3°C84.9%22.6°C1708ft (521m)13.47v13
476715 Apr 09:54:0677.2 mph8SSW (209°)9989510205025.3°C84.9%22.6°C1708ft (521m)13.46v14
476615 Apr 09:53:5567.1 mph8SSW (202°)9989610205125.3°C85%22.6°C1700ft (518m)13.45v13
476515 Apr 09:53:4456.9 mph8SSW (205°)9989710205225.2°C85.1%22.5°C1691ft (515m)13.45v13
476415 Apr 09:53:3344.9 mph6SSW (207°)9989410204925.2°C85.1%22.5°C1691ft (515m)13.47v16
476315 Apr 09:53:2145.5 mph7SW (214°)9989510205025.2°C85.1%22.5°C1691ft (515m)13.46v15
476215 Apr 09:53:1067 mph8SW (220°)9989510205025.2°C85.1%22.5°C1691ft (515m)13.47v13
476115 Apr 09:52:5977.3 mph8SSW (213°)9989510205025.2°C85.2%22.5°C1683ft (513m)13.46v13
476015 Apr 09:52:4867.2 mph8SW (216°)9989610205125.2°C85.3%22.6°C1675ft (511m)13.49v16
475915 Apr 09:52:3656.6 mph8SW (220°)9989910205425.2°C85.2%22.5°C1683ft (513m)13.46v13
475815 Apr 09:52:2555.6 mph6SW (215°)9989710205225.2°C85.2%22.5°C1683ft (513m)13.47v13
475715 Apr 09:52:1444.6 mph6SW (222°)9989510205025.2°C85.2%22.5°C1683ft (513m)13.45v14
475615 Apr 09:52:0344.8 mph6SW (216°)9989910205425.2°C85.1%22.5°C1691ft (515m)13.45v14
475515 Apr 09:51:5144.4 mph5SW (222°)9989510205025.2°C85.1%22.5°C1691ft (515m)13.45v14
475415 Apr 09:51:4055.9 mph7SSW (212°)9989810205325.2°C85.1%22.5°C1691ft (515m)13.46v13
475315 Apr 09:51:2955.1 mph6SSW (205°)9989410204925.2°C85.1%22.5°C1691ft (515m)13.47v13
475215 Apr 09:51:1877.6 mph8SW (215°)9989610205125.2°C85.1%22.5°C1691ft (515m)13.46v13
475115 Apr 09:51:0656.4 mph8SSW (211°)9989410204925.2°C85.1%22.5°C1691ft (515m)13.46v14
475015 Apr 09:50:5555.7 mph6SSW (209°)9989510205025.2°C85.1%22.5°C1691ft (515m)13.44v14
474915 Apr 09:50:4466.2 mph7SSW (212°)9989810205325.2°C85.1%22.5°C1691ft (515m)13.47v15
474815 Apr 09:50:3377.1 mph8SSW (199°)9989910205425.2°C85.2%22.5°C1683ft (513m)13.46v14
474715 Apr 09:50:2166.2 mph7SSW (211°)9989810205325.2°C85.3%22.6°C1675ft (511m)13.47v13
474615 Apr 09:50:1066.5 mph8SW (215°)9990010205525.2°C85.3%22.6°C1675ft (511m)13.44v15
474515 Apr 09:49:5944.2 mph5SSW (213°)9989810205325.2°C85.3%22.6°C1675ft (511m)13.43v13
474415 Apr 09:49:4855.8 mph7SSW (213°)9989610205125.2°C85.2%22.5°C1683ft (513m)13.44v14
474315 Apr 09:49:3656.3 mph8SSW (209°)9989910205425.2°C85.2%22.5°C1683ft (513m)13.41v14
474215 Apr 09:49:2577.5 mph8SSW (206°)9989910205425.2°C85.2%22.5°C1683ft (513m)13.42v13
474115 Apr 09:49:1456.4 mph8SSW (200°)9989710205225.2°C85.3%22.6°C1675ft (511m)13.41v14
474015 Apr 09:49:0356.1 mph8SSW (212°)9989710205225.1°C85.4%22.5°C1666ft (508m)13.41v14
473915 Apr 09:48:5177.7 mph9SSW (211°)9990010205525.1°C85.4%22.5°C1666ft (508m)13.43v15
473815 Apr 09:48:4055.7 mph6SSW (211°)9990310205825.1°C85.3%22.5°C1674ft (510m)13.44v14
473715 Apr 09:48:2956.7 mph9SSW (199°)9990110205625.1°C85.4%22.5°C1666ft (508m)13.43v13
473615 Apr 09:48:1877.6 mph9SSW (192°)9990210205725.1°C85.4%22.5°C1666ft (508m)13.42v14
473515 Apr 09:48:0677.9 mph9SSW (207°)9990310205825.1°C85.6%22.5°C1651ft (503m)13.43v14
473415 Apr 09:47:5577 mph8SSW (200°)9989910205425.1°C85.6%22.5°C1651ft (503m)13.41v13
473315 Apr 09:47:4455.7 mph6SSW (207°)9990010205525.1°C85.6%22.5°C1651ft (503m)13.4v15
473215 Apr 09:47:3355.7 mph6SSW (211°)9989910205425.1°C85.6%22.5°C1651ft (503m)13.4v13
473115 Apr 09:47:2156.7 mph8SSW (204°)9990010205525.1°C85.6%22.5°C1651ft (503m)13.41v15
473015 Apr 09:47:1055.9 mph8SSW (206°)9989910205425.1°C85.7%22.5°C1643ft (501m)13.41v13
472915 Apr 09:46:5934.4 mph6SSW (207°)9990210205725.1°C85.7%22.5°C1643ft (501m)13.42v14
472815 Apr 09:46:4855.3 mph6SSW (202°)9989810205325.1°C85.7%22.5°C1643ft (501m)13.42v15
472715 Apr 09:46:3655.5 mph6SSW (213°)9989910205425.1°C85.6%22.5°C1651ft (503m)13.42v13
472615 Apr 09:46:2555.9 mph7SSW (207°)9989910205425.1°C85.7%22.5°C1643ft (501m)13.4v13
472515 Apr 09:46:1456.7 mph8SSW (199°)9989710205225°C85.7%22.4°C1642ft (500m)13.39v16
472415 Apr 09:46:0345.2 mph6SSW (209°)9989610205125°C85.8%22.5°C1634ft (498m)13.4v15
472315 Apr 09:45:5144.2 mph5SSW (211°)9989810205325°C85.7%22.4°C1642ft (500m)13.41v13
472215 Apr 09:45:4045.2 mph7SSW (211°)9989710205225°C85.7%22.4°C1642ft (500m)13.41v13
472115 Apr 09:45:2966.5 mph7SSW (208°)9989910205425°C85.8%22.5°C1634ft (498m)13.42v13
472015 Apr 09:45:1855.7 mph7SSW (204°)9989910205425°C85.8%22.5°C1634ft (498m)13.4v13
471915 Apr 09:45:0677.7 mph9SSW (194°)9989810205325°C85.8%22.5°C1634ft (498m)13.43v13
471815 Apr 09:44:5556.3 mph8SSW (208°)9989710205225°C85.9%22.5°C1626ft (496m)13.41v16
471715 Apr 09:44:4456.3 mph8SSW (195°)9989710205225°C85.9%22.5°C1626ft (496m)13.4v13
471615 Apr 09:44:3377.2 mph8SSW (211°)9989610205125°C85.9%22.5°C1626ft (496m)13.42v13
471515 Apr 09:44:2155.5 mph7SSW (213°)9989610205125°C86%22.5°C1618ft (493m)13.41v13
471415 Apr 09:44:1044.8 mph6SW (220°)9989610205124.9°C86%22.4°C1617ft (493m)13.42v14
471315 Apr 09:43:5955.5 mph6SW (233°)9989610205125°C85.9%22.5°C1626ft (496m)13.43v13
471215 Apr 09:43:4866.5 mph7SW (217°)9989710205225°C85.8%22.5°C1634ft (498m)13.42v13
471115 Apr 09:43:3657.2 mph8SW (217°)9989510205024.9°C85.8%22.4°C1633ft (498m)13.42v16
471015 Apr 09:43:2545.5 mph8SSW (209°)9989710205225°C85.8%22.5°C1634ft (498m)13.4v15
470915 Apr 09:43:1456.5 mph9SW (222°)9989510205025°C85.8%22.5°C1634ft (498m)13.42v13
470815 Apr 09:43:0355.4 mph7SW (215°)9989710205225°C85.8%22.5°C1634ft (498m)13.43v13
470715 Apr 09:42:5167.1 mph8SSW (207°)9989510205024.9°C85.8%22.4°C1633ft (498m)13.42v14
470615 Apr 09:42:4067.6 mph9SSW (204°)9989810205324.9°C85.9%22.4°C1625ft (495m)13.41v13
470515 Apr 09:42:2988.2 mph9SSW (206°)9989210204724.9°C86%22.4°C1617ft (493m)13.41v13
470415 Apr 09:42:1899.9 mph11SSW (202°)9989610205124.9°C86.2%22.4°C1602ft (488m)13.42v13
470315 Apr 09:42:0666.6 mph7SW (214°)9989710205224.9°C86.3%22.5°C1594ft (486m)13.41v13
470215 Apr 09:41:5544.8 mph5SW (214°)9989410204924.9°C86.2%22.4°C1602ft (488m)13.41v14
470115 Apr 09:41:4455.7 mph6SW (215°)9989710205224.9°C86.1%22.4°C1610ft (491m)13.42v14
470015 Apr 09:41:3356.7 mph8SW (224°)9989410204924.9°C86.1%22.4°C1610ft (491m)13.4v14
469915 Apr 09:41:2156.2 mph8SW (221°)9989610205124.9°C86.1%22.4°C1610ft (491m)13.41v16
469815 Apr 09:41:1066.1 mph7SW (219°)9989710205224.9°C86.1%22.4°C1610ft (491m)13.4v14
469715 Apr 09:40:5955.4 mph6SW (223°)9989510205024.9°C86%22.4°C1617ft (493m)13.41v13
469615 Apr 09:40:4855.6 mph7SW (217°)9989510205024.9°C86%22.4°C1617ft (493m)13.39v13
469515 Apr 09:40:3665.9 mph6SW (220°)9989710205224.9°C85.9%22.4°C1625ft (495m)13.38v13
469415 Apr 09:40:2567.4 mph8SW (218°)9989610205124.9°C85.9%22.4°C1625ft (495m)13.4v14
469315 Apr 09:40:1467 mph8SSW (208°)9989510205024.9°C86%22.4°C1617ft (493m)13.4v13
469215 Apr 09:40:0356.8 mph9SSW (212°)9989610205124.9°C86.1%22.4°C1610ft (491m)13.38v13
469115 Apr 09:39:5156.6 mph8SSW (210°)9989410204924.9°C86.2%22.4°C1602ft (488m)13.38v13
469015 Apr 09:39:4055.1 mph6SW (221°)9989510205024.9°C86.1%22.4°C1610ft (491m)13.39v16
468915 Apr 09:39:2967.2 mph8SSW (210°)9989410204924.9°C86%22.4°C1617ft (493m)13.37v14
468815 Apr 09:39:1855.1 mph6SSW (213°)9989410204924.9°C86.1%22.4°C1610ft (491m)13.38v14
468715 Apr 09:39:0656.6 mph8SW (214°)9989410204924.8°C86%22.3°C1617ft (493m)13.38v14
468615 Apr 09:38:5566.5 mph7SSW (213°)9989010204524.8°C86.1%22.3°C1609ft (490m)13.37v14
468515 Apr 09:38:4477.3 mph8SSW (203°)9989410204924.8°C86%22.3°C1617ft (493m)13.35v16
468415 Apr 09:38:3356.1 mph7SSW (202°)9989010204524.8°C86%22.3°C1617ft (493m)13.35v13
468315 Apr 09:38:2178 mph9SSW (204°)9989310204824.8°C86%22.3°C1617ft (493m)13.35v13
468215 Apr 09:38:1077.3 mph8SSW (208°)9989310204824.8°C86%22.3°C1617ft (493m)13.36v14
468115 Apr 09:37:5978.5 mph10SSW (208°)9989310204824.8°C86%22.3°C1617ft (493m)13.35v14
468015 Apr 09:37:4888.8 mph10SSW (202°)9988910204424.8°C86.1%22.3°C1609ft (490m)13.35v14
467915 Apr 09:37:3656.3 mph8SSW (205°)9989310204824.8°C86.1%22.3°C1609ft (490m)13.34v15
467815 Apr 09:37:2556 mph7SSW (211°)9989110204624.8°C86.1%22.3°C1609ft (490m)13.33v15
467715 Apr 09:37:1466.7 mph7SSW (212°)9989010204524.8°C86.1%22.3°C1609ft (490m)13.34v14
467615 Apr 09:37:0378.4 mph10SSW (204°)9989010204524.8°C86%22.3°C1617ft (493m)13.33v14
467515 Apr 09:36:5168.3 mph10SSW (201°)9988710204224.8°C85.9%22.3°C1625ft (495m)13.33v13
467415 Apr 09:36:4077.8 mph9SSW (204°)9988710204224.8°C86%22.3°C1617ft (493m)13.32v14
467315 Apr 09:36:2955.6 mph7SSW (205°)9988710204224.8°C85.8%22.3°C1632ft (497m)13.32v14
467215 Apr 09:36:1868.5 mph10SSW (195°)9988910204424.8°C85.5%22.2°C1656ft (505m)13.32v13
467115 Apr 09:36:0666.5 mph7SSW (207°)9988810204324.8°C85.8%22.3°C1632ft (497m)13.32v14
467015 Apr 09:35:5577.2 mph8SSW (212°)9989010204524.8°C85.8%22.3°C1632ft (497m)13.32v14
466915 Apr 09:35:4478.2 mph9SSW (206°)9988710204224.8°C85.8%22.3°C1632ft (497m)13.3v16
466815 Apr 09:35:3367.4 mph8SSW (212°)9988810204324.8°C85.7%22.2°C1640ft (500m)13.28v13
466715 Apr 09:35:2156.4 mph7SSW (211°)9988810204324.8°C85.7%22.2°C1640ft (500m)13.3v14
466615 Apr 09:35:1078.2 mph9SSW (210°)9988410203924.8°C85.6%22.2°C1648ft (502m)13.29v14
466515 Apr 09:34:5956.1 mph7SSW (206°)9988510204024.8°C85.7%22.2°C1640ft (500m)13.31v15
466415 Apr 09:34:4867.6 mph9SSW (208°)9988710204224.8°C85.5%22.2°C1656ft (505m)13.28v13
466315 Apr 09:34:3699.4 mph10SSW (207°)9988310203724.8°C85.5%22.2°C1656ft (505m)13.29v13
466215 Apr 09:34:2588.8 mph9SSW (202°)9988610204124.8°C85.6%22.2°C1648ft (502m)13.29v14
466115 Apr 09:34:1488.5 mph9SSW (201°)9988510204024.8°C85.7%22.2°C1640ft (500m)13.27v14
466015 Apr 09:34:0367.5 mph8SSW (200°)9988210203624.8°C85.7%22.2°C1640ft (500m)13.27v14
465915 Apr 09:33:5178.5 mph11SSW (206°)9988610204124.8°C85.6%22.2°C1648ft (502m)13.28v15
465815 Apr 09:33:4068.1 mph10SSW (193°)9988510204024.8°C85.7%22.2°C1640ft (500m)13.27v14
465715 Apr 09:33:2988.9 mph10SSW (203°)9988410203924.8°C85.8%22.3°C1632ft (497m)13.28v13
465615 Apr 09:33:1778.2 mph10SSW (205°)9988010203424.8°C85.8%22.3°C1632ft (497m)13.28v13
465515 Apr 09:33:0687.9 mph9SSW (200°)9988310203724.8°C85.8%22.3°C1632ft (497m)13.27v14
465415 Apr 09:32:5556.5 mph8SSW (204°)9988110203524.8°C85.9%22.3°C1625ft (495m)13.26v13
465315 Apr 09:32:4467 mph8SSW (201°)9988510204024.8°C85.9%22.3°C1625ft (495m)13.27v14
465215 Apr 09:32:3267.2 mph8SSW (209°)9988110203524.8°C86%22.3°C1617ft (493m)13.25v14
465115 Apr 09:32:2166.1 mph7SW (221°)9988110203524.8°C86%22.3°C1617ft (493m)13.26v13
465015 Apr 09:32:1056.8 mph9SSW (209°)9988110203524.8°C85.9%22.3°C1625ft (495m)13.24v14
464915 Apr 09:31:5977.9 mph9SSW (205°)9988010203424.8°C86%22.3°C1617ft (493m)13.28v14
464815 Apr 09:31:4766.4 mph8SSW (207°)9988110203524.8°C86%22.3°C1617ft (493m)13.27v16
464715 Apr 09:31:3655.8 mph7SSW (208°)9988310203724.8°C86%22.3°C1617ft (493m)13.25v13
464615 Apr 09:31:2567.9 mph9SSW (205°)9987810203224.7°C86%22.2°C1616ft (493m)13.25v14
464515 Apr 09:31:1467.4 mph8SSW (205°)9987910203324.8°C86%22.3°C1617ft (493m)13.25v13
464415 Apr 09:31:02910.8 mph12SSW (209°)9987810203224.8°C86%22.3°C1617ft (493m)13.26v14
464315 Apr 09:30:5168.4 mph10SW (214°)9987810203224.8°C86.2%22.3°C1601ft (488m)13.24v13
464215 Apr 09:30:4066.9 mph9SW (217°)9988010203424.7°C86.3%22.3°C1592ft (485m)13.24v13
464115 Apr 09:30:2967.7 mph9SSW (209°)9987510202924.7°C86.1%22.2°C1608ft (490m)13.26v13
464015 Apr 09:30:1856.1 mph7SSW (213°)9987710203124.7°C86.2%22.2°C1600ft (488m)13.26v13
463915 Apr 09:30:0655.5 mph6SSW (203°)9987710203124.7°C86.1%22.2°C1608ft (490m)13.27v15
463815 Apr 09:29:5567.2 mph8SW (225°)9987810203224.7°C86.1%22.2°C1608ft (490m)13.25v14
463715 Apr 09:29:4455.7 mph6SSW (213°)9987710203124.7°C86.1%22.2°C1608ft (490m)13.27v13
463615 Apr 09:29:3377.8 mph9SSW (198°)9987510202924.7°C86%22.2°C1616ft (493m)13.26v13
463515 Apr 09:29:2167.8 mph9SSW (208°)9987410202824.7°C85.9%22.2°C1624ft (495m)13.26v13
463415 Apr 09:29:10710 mph12SSW (205°)9987510202924.7°C85.8%22.2°C1632ft (497m)13.25v16
463315 Apr 09:28:5978.9 mph11SSW (211°)9987410202824.7°C85.9%22.2°C1624ft (495m)13.27v13
463215 Apr 09:28:4866.4 mph7SSW (207°)9986710202124.7°C86.1%22.2°C1608ft (490m)13.26v14
463115 Apr 09:28:3656.9 mph9SSW (210°)9987610203024.7°C85.9%22.2°C1624ft (495m)13.26v14
463015 Apr 09:28:2567.3 mph8SSW (213°)9987210202624.8°C85.8%22.3°C1632ft (497m)13.27v15
462915 Apr 09:28:1478.3 mph10SW (215°)9987210202624.8°C85.7%22.2°C1640ft (500m)13.25v15
462815 Apr 09:28:0389.8 mph11SSW (206°)9987210202624.7°C85.7%22.1°C1639ft (500m)13.27v15
462715 Apr 09:27:51910.7 mph13SSW (197°)9987410202824.8°C85.5%22.2°C1656ft (505m)13.24v14
462615 Apr 09:27:4089.8 mph11SSW (202°)9986610202024.8°C85.5%22.2°C1656ft (505m)13.27v14
462515 Apr 09:27:2989.8 mph11SSW (202°)9987110202524.8°C85.6%22.2°C1648ft (502m)13.25v14
462415 Apr 09:27:1867.7 mph9SSW (204°)9987210202624.8°C85.8%22.3°C1632ft (497m)13.26v13
462315 Apr 09:27:0688.3 mph10SSW (213°)9987210202624.8°C85.6%22.2°C1648ft (502m)13.26v13
462215 Apr 09:26:5567.1 mph8SSW (196°)9987010202424.8°C85.9%22.3°C1625ft (495m)13.27v14
462115 Apr 09:26:4467.9 mph11SSW (202°)9987310202724.8°C85.9%22.3°C1625ft (495m)13.26v14
462015 Apr 09:26:3355.9 mph7SW (216°)9987210202624.8°C85.9%22.3°C1625ft (495m)13.26v14
461915 Apr 09:26:2156.1 mph7SW (219°)9987110202524.8°C85.8%22.3°C1632ft (497m)13.28v14
461815 Apr 09:26:1055.2 mph6SW (217°)9987210202624.8°C85.8%22.3°C1632ft (497m)13.26v15
461715 Apr 09:25:5989.2 mph10SSW (211°)9987010202424.8°C85.5%22.2°C1656ft (505m)13.26v14
461615 Apr 09:25:4888.3 mph9SW (214°)9986910202324.8°C85.7%22.2°C1640ft (500m)13.28v16
461515 Apr 09:25:3666.6 mph8SSW (211°)9986810202224.8°C85.9%22.3°C1625ft (495m)13.28v14
461415 Apr 09:25:2578.1 mph9SW (214°)9986810202224.8°C85.9%22.3°C1625ft (495m)13.27v14
461315 Apr 09:25:1467 mph9SSW (206°)9986310201724.8°C85.9%22.3°C1625ft (495m)13.28v13
461215 Apr 09:25:0367 mph9SSW (209°)9986610202024.7°C86%22.2°C1616ft (493m)13.28v13
461115 Apr 09:24:5166.6 mph9SSW (209°)9986610202024.7°C86%22.2°C1616ft (493m)13.28v13
461015 Apr 09:24:4056.3 mph7SSW (208°)9986810202224.8°C86%22.3°C1617ft (493m)13.28v14
460915 Apr 09:24:2967 mph8SSW (205°)9986810202224.8°C85.9%22.3°C1625ft (495m)13.28v13
460815 Apr 09:24:1855.9 mph8SSW (206°)9987010202424.8°C85.9%22.3°C1625ft (495m)13.29v14
460715 Apr 09:24:0667 mph8SW (216°)9986810202224.8°C85.9%22.3°C1625ft (495m)13.28v14
460615 Apr 09:23:5557.1 mph9SSW (205°)9986410201824.8°C85.8%22.3°C1632ft (497m)13.27v17
460515 Apr 09:23:4478.3 mph10SSW (195°)9986610202024.8°C85.7%22.2°C1640ft (500m)13.29v14
460415 Apr 09:23:3367.1 mph8SSW (213°)9986310201724.8°C85.8%22.3°C1632ft (497m)13.28v15
460315 Apr 09:23:2188.9 mph11SSW (199°)9985910201324.7°C85.8%22.2°C1632ft (497m)13.29v13
460215 Apr 09:23:1088.7 mph9SSW (201°)9986510201924.7°C85.8%22.2°C1632ft (497m)13.29v14
460115 Apr 09:22:591010.3 mph11SSW (201°)9985710201124.7°C85.7%22.1°C1639ft (500m)13.29v14
460015 Apr 09:22:48710.4 mph12SSW (212°)9985510200924.7°C85.7%22.1°C1639ft (500m)13.31v15
459915 Apr 09:22:3655.3 mph6SSW (213°)9986310201724.7°C85.8%22.2°C1632ft (497m)13.32v16
459815 Apr 09:22:2577.1 mph8SSW (212°)9986110201524.8°C85.8%22.3°C1632ft (497m)13.3v13
459715 Apr 09:22:1466 mph6SSW (206°)9986210201624.8°C85.8%22.3°C1632ft (497m)13.31v13
459615 Apr 09:22:0367.2 mph9SSW (204°)9986210201624.7°C85.8%22.2°C1632ft (497m)13.31v14
459515 Apr 09:21:5199.3 mph10SSW (201°)9985910201324.7°C85.5%22.1°C1655ft (504m)13.31v14
459415 Apr 09:21:4067.7 mph10S (190°)9985710201124.8°C85.7%22.2°C1640ft (500m)13.3v17
459315 Apr 09:21:2977.7 mph9SW (217°)9985710201124.8°C85.6%22.2°C1648ft (502m)13.32v13
459215 Apr 09:21:1889.3 mph11SSW (205°)9985710201124.8°C85.6%22.2°C1648ft (502m)13.32v15
459115 Apr 09:21:0678.4 mph11SSW (196°)9985710201124.7°C85.6%22.1°C1647ft (502m)13.34v15
459015 Apr 09:20:55810.2 mph12SSW (213°)9985510200924.8°C85.4%22.2°C1664ft (507m)13.33v14
458915 Apr 09:20:44810.7 mph13SSW (204°)9984810200224.8°C85.5%22.2°C1656ft (505m)13.35v15
458815 Apr 09:20:33810.1 mph13SSW (201°)9985810201224.8°C85.4%22.2°C1664ft (507m)13.35v17
458715 Apr 09:20:2167.9 mph12SSW (212°)9985110200524.8°C85.7%22.2°C1640ft (500m)13.35v14
458615 Apr 09:20:1077.2 mph8SSW (211°)9985610201024.8°C85.6%22.2°C1648ft (502m)13.32v13
458515 Apr 09:19:5978.6 mph10SW (214°)9985710201124.8°C85.6%22.2°C1648ft (502m)13.35v14
458415 Apr 09:19:48910 mph12SSW (203°)9985110200524.8°C85.6%22.2°C1648ft (502m)13.33v17
458315 Apr 09:19:3668.1 mph11SSW (208°)9985410200824.8°C85.6%22.2°C1648ft (502m)13.36v14
458215 Apr 09:19:2577.9 mph9SW (218°)9985710201124.8°C85.7%22.2°C1640ft (500m)13.36v13
458115 Apr 09:19:1488.3 mph9SW (220°)9985410200824.8°C85.7%22.2°C1640ft (500m)13.35v14
458015 Apr 09:19:03910.1 mph12SSW (212°)9985110200524.7°C85.6%22.1°C1647ft (502m)13.34v14
457915 Apr 09:18:5189.4 mph11SSW (207°)9985410200824.8°C85.7%22.2°C1640ft (500m)13.36v15
457815 Apr 09:18:4077.7 mph9SW (217°)9985610201024.7°C85.9%22.2°C1624ft (495m)13.35v14
457715 Apr 09:18:2988.6 mph10SSW (212°)9985710201124.7°C85.9%22.2°C1624ft (495m)13.36v14
457615 Apr 09:18:1877.5 mph8SSW (212°)9985710201124.7°C85.9%22.2°C1624ft (495m)13.35v15
457515 Apr 09:18:0689.6 mph11SSW (206°)9985310200724.8°C85.8%22.3°C1632ft (497m)13.37v15
457415 Apr 09:17:5566.4 mph8SW (215°)9985210200624.8°C85.9%22.3°C1625ft (495m)13.37v16
457315 Apr 09:17:4466.7 mph9SSW (207°)9985210200624.7°C85.8%22.2°C1632ft (497m)13.36v15
457215 Apr 09:17:3388.9 mph10SSW (204°)9985010200424.7°C85.8%22.2°C1632ft (497m)13.36v15
457115 Apr 09:17:2167.4 mph10SW (216°)9985610201024.7°C85.9%22.2°C1624ft (495m)13.37v15
457015 Apr 09:17:1066.5 mph7SSW (208°)9985210200624.7°C85.8%22.2°C1632ft (497m)13.36v14
456915 Apr 09:16:5956.6 mph8SW (216°)9985510200924.7°C85.8%22.2°C1632ft (497m)13.38v14
456815 Apr 09:16:4856 mph7SSW (213°)9985310200724.7°C85.8%22.2°C1632ft (497m)13.37v16
456715 Apr 09:16:3677.9 mph9SSW (204°)9985710201124.7°C85.7%22.1°C1639ft (500m)13.39v16
456615 Apr 09:16:2578.7 mph10SSW (207°)9985110200524.7°C85.6%22.1°C1647ft (502m)13.38v15
456515 Apr 09:16:1499.9 mph11SSW (210°)9985210200624.7°C85.6%22.1°C1647ft (502m)13.39v16
456415 Apr 09:16:03910.3 mph13SSW (205°)9985210200624.7°C85.6%22.1°C1647ft (502m)13.38v14
456315 Apr 09:15:5188.6 mph10SSW (203°)9985010200424.7°C85.8%22.2°C1632ft (497m)13.38v16
456215 Apr 09:15:4078.3 mph11SSW (207°)9985210200624.7°C85.7%22.1°C1639ft (500m)13.39v14
456115 Apr 09:15:2988.9 mph10SSW (195°)9984810200224.7°C85.8%22.2°C1632ft (497m)13.38v14
456015 Apr 09:15:1899.7 mph11SSW (202°)9985510200924.7°C85.7%22.1°C1639ft (500m)13.39v15
455915 Apr 09:15:0677.4 mph9SSW (203°)9985310200724.7°C85.7%22.1°C1639ft (500m)13.39v15
455815 Apr 09:14:55910 mph11SSW (208°)9985610201024.7°C85.7%22.1°C1639ft (500m)13.39v16
455715 Apr 09:14:4489.2 mph11SSW (209°)9985510200924.7°C85.7%22.1°C1639ft (500m)13.39v15
455615 Apr 09:14:3366.8 mph8SW (214°)9985510200924.7°C86%22.2°C1616ft (493m)13.39v17
455515 Apr 09:14:2167 mph8SSW (208°)9985410200824.7°C86%22.2°C1616ft (493m)13.39v15
455415 Apr 09:14:1056.6 mph7SW (219°)9985710201124.7°C85.9%22.2°C1624ft (495m)13.38v15
455315 Apr 09:13:5955.9 mph7SW (217°)9985510200924.7°C85.8%22.2°C1632ft (497m)13.38v16
455215 Apr 09:13:4867 mph8SW (221°)9985610201024.7°C85.7%22.1°C1639ft (500m)13.37v15
455115 Apr 09:13:3667.9 mph9SSW (209°)9985310200724.7°C85.8%22.2°C1632ft (497m)13.39v13
455015 Apr 09:13:2578 mph11SSW (213°)9985210200624.7°C85.5%22.1°C1655ft (504m)13.39v15
454915 Apr 09:13:1499.7 mph11SSW (200°)9985010200424.7°C85.4%22.1°C1663ft (507m)13.39v16
454815 Apr 09:13:0399.5 mph11SSW (205°)9985710201124.7°C85.3%22.1°C1671ft (509m)13.4v13
454715 Apr 09:12:5189.1 mph11SW (214°)9985310200724.7°C85.3%22.1°C1671ft (509m)13.39v14
454615 Apr 09:12:4068.3 mph10SSW (206°)9985210200624.7°C85.3%22.1°C1671ft (509m)13.38v15
454515 Apr 09:12:2989 mph10SSW (210°)9985110200524.7°C85.4%22.1°C1663ft (507m)13.37v15
454415 Apr 09:12:1867.9 mph10SW (214°)9985210200624.7°C85.4%22.1°C1663ft (507m)13.39v17
454315 Apr 09:12:0689.3 mph11SW (216°)9985410200824.7°C85.4%22.1°C1663ft (507m)13.38v15
454215 Apr 09:11:5566.7 mph9SW (222°)9985510200924.7°C85.5%22.1°C1655ft (504m)13.38v16
454115 Apr 09:11:4477.4 mph8SSW (204°)9985610201024.7°C85.5%22.1°C1655ft (504m)13.38v15
454015 Apr 09:11:3367.2 mph9SSW (208°)9985610201024.7°C85.6%22.1°C1647ft (502m)13.37v14
453915 Apr 09:11:2199.7 mph11SSW (208°)9985810201224.7°C85.5%22.1°C1655ft (504m)13.38v15
453815 Apr 09:11:1088.7 mph11SW (214°)9985810201224.7°C85.6%22.1°C1647ft (502m)13.36v15
453715 Apr 09:10:5966.7 mph8SSW (213°)9985510200924.7°C85.6%22.1°C1647ft (502m)13.36v17
453615 Apr 09:10:4878.3 mph9SW (215°)9985610201024.7°C85.5%22.1°C1655ft (504m)13.35v16
453515 Apr 09:10:3667.7 mph9SW (215°)9985310200724.7°C85.5%22.1°C1655ft (504m)13.37v16
453415 Apr 09:10:2567.3 mph9SSW (212°)9985510200924.7°C85.5%22.1°C1655ft (504m)13.37v14
453315 Apr 09:10:1489.2 mph10SSW (205°)9985410200824.7°C85.4%22.1°C1663ft (507m)13.38v14
453215 Apr 09:10:0388.8 mph9SSW (210°)9985610201024.7°C85.3%22.1°C1671ft (509m)13.36v16
453115 Apr 09:09:5189.3 mph11S (191°)9985210200624.7°C85.4%22.1°C1663ft (507m)13.35v16
453015 Apr 09:09:4099.9 mph11SSW (197°)9985610201024.7°C85.3%22.1°C1671ft (509m)13.36v14
452915 Apr 09:09:2989.8 mph12SSW (202°)9985310200724.7°C85.4%22.1°C1663ft (507m)13.34v15
452815 Apr 09:09:1879.2 mph12SSW (209°)9984910200324.7°C85.4%22.1°C1663ft (507m)13.33v16
452715 Apr 09:09:0666.9 mph8SSW (200°)9985510200924.7°C85.6%22.1°C1647ft (502m)13.34v15
452615 Apr 09:08:5567.1 mph8SSW (203°)9985010200424.7°C85.5%22.1°C1655ft (504m)13.36v13
452515 Apr 09:08:4489.8 mph11SSW (210°)9985510200924.7°C85.4%22.1°C1663ft (507m)13.35v13
452415 Apr 09:08:33810.2 mph11SSW (209°)9985310200724.7°C85.3%22.1°C1671ft (509m)13.36v13
452315 Apr 09:08:2167.1 mph8SW (218°)9985210200624.7°C85.5%22.1°C1655ft (504m)13.34v13
452215 Apr 09:08:1068.5 mph10SSW (210°)9985210200624.7°C85.4%22.1°C1663ft (507m)13.33v13
452115 Apr 09:07:59910.1 mph11SSW (207°)9985210200624.7°C85.4%22.1°C1663ft (507m)13.33v17
452015 Apr 09:07:4899.7 mph11SSW (211°)9984810200224.7°C85.5%22.1°C1655ft (504m)13.33v13
451915 Apr 09:07:3677.9 mph9SSW (213°)9985310200724.7°C85.7%22.1°C1639ft (500m)13.33v14
451815 Apr 09:07:2577.8 mph9SW (216°)9985310200724.7°C85.7%22.1°C1639ft (500m)13.33v14
451715 Apr 09:07:1466.9 mph8SSW (206°)9985210200624.7°C85.7%22.1°C1639ft (500m)13.34v13
451615 Apr 09:07:0356.4 mph8SSW (208°)9984910200324.6°C85.7%22°C1639ft (500m)13.33v13
451515 Apr 09:06:5155.5 mph6SSW (210°)9985310200724.6°C85.7%22°C1639ft (500m)13.31v13
451415 Apr 09:06:4056.3 mph8SSW (202°)9985210200624.6°C85.6%22°C1647ft (502m)13.31v16
451315 Apr 09:06:2967.1 mph8SW (217°)9985210200624.7°C85.6%22.1°C1647ft (502m)13.31v13
451215 Apr 09:06:1845 mph6SW (217°)9985310200724.6°C85.4%22°C1662ft (507m)13.3v15
451115 Apr 09:06:0677.8 mph8SSW (206°)9985110200524.6°C85.3%22°C1670ft (509m)13.3v14
451015 Apr 09:05:5578.1 mph9SSW (209°)9985010200424.6°C85.4%22°C1662ft (507m)13.31v15
450915 Apr 09:05:4477.8 mph9SSW (213°)9985010200424.6°C85.3%22°C1670ft (509m)13.32v13
450815 Apr 09:05:3379.2 mph10SSW (211°)9985010200424.6°C85.2%21.9°C1678ft (511m)13.33v14
450715 Apr 09:05:2188.8 mph11SSW (212°)9985210200624.6°C85.4%22°C1662ft (507m)13.32v14
450615 Apr 09:05:1066.5 mph8SSW (208°)9984510199924.6°C85.4%22°C1662ft (507m)13.33v16
450515 Apr 09:04:5978.4 mph10SW (222°)9984910200324.6°C85.5%22°C1654ft (504m)13.31v13
450415 Apr 09:04:4877.9 mph10SSW (211°)9985110200524.6°C85.5%22°C1654ft (504m)13.32v14
450315 Apr 09:04:3657.5 mph10SSW (203°)9985110200524.6°C85.5%22°C1654ft (504m)13.31v12
450215 Apr 09:04:2557 mph9SW (215°)9984910200324.6°C85.5%22°C1654ft (504m)13.31v15
450115 Apr 09:04:1467.5 mph9SSW (208°)9984910200324.6°C85.5%22°C1654ft (504m)13.32v13
450015 Apr 09:04:0378.6 mph11SSW (203°)9984810200224.6°C85.5%22°C1654ft (504m)13.32v13
449915 Apr 09:03:5177.7 mph9SSW (211°)9984810200224.6°C85.6%22°C1647ft (502m)13.3v15
449815 Apr 09:03:4046.5 mph9SSW (192°)9984610200024.6°C85.5%22°C1654ft (504m)13.31v16
449715 Apr 09:03:2999.2 mph10SSW (192°)9984710200124.6°C85.4%22°C1662ft (507m)13.31v16
449615 Apr 09:03:1767.3 mph8SW (216°)9984410199824.6°C85.4%22°C1662ft (507m)13.31v14
449515 Apr 09:03:06910.3 mph12SSW (200°)9984410199824.6°C85.4%22°C1662ft (507m)13.29v14
449415 Apr 09:02:5566.3 mph7SW (215°)9984910200324.6°C85.4%22°C1662ft (507m)13.29v14
449315 Apr 09:02:4478.3 mph9SW (216°)9984610200024.6°C85.4%22°C1662ft (507m)13.3v15
449215 Apr 09:02:3267.1 mph9SSW (207°)9984410199824.6°C85.4%22°C1662ft (507m)13.3v14
449115 Apr 09:02:211010.5 mph12SW (216°)9984410199824.6°C85.1%21.9°C1686ft (514m)13.29v14
449015 Apr 09:02:1077.7 mph9SW (221°)9984610200024.6°C85.4%22°C1662ft (507m)13.28v13
448915 Apr 09:01:5956 mph7SW (224°)9984610200024.6°C85.4%22°C1662ft (507m)13.29v16
448815 Apr 09:01:4777.5 mph8SSW (206°)9984510199924.6°C85.4%22°C1662ft (507m)13.28v15
448715 Apr 09:01:3656.6 mph8SSW (209°)9984510199924.6°C85.3%22°C1670ft (509m)13.27v14
448615 Apr 09:01:2567.4 mph9SSW (202°)9984810200224.6°C85.2%21.9°C1678ft (511m)13.26v15
448515 Apr 09:01:14910.6 mph13SSW (204°)9984310199724.6°C85.1%21.9°C1686ft (514m)13.3v14
448415 Apr 09:01:0289.4 mph11SSW (206°)9984210199624.6°C84.9%21.9°C1702ft (519m)13.29v15
448315 Apr 09:00:511011.1 mph13SSW (210°)9984510199924.6°C85%21.9°C1694ft (516m)13.27v13
448215 Apr 09:00:401010.6 mph12SSW (209°)9984210199624.6°C85.2%21.9°C1678ft (511m)13.29v15
448115 Apr 09:00:2978.1 mph10SSW (202°)9984410199824.6°C85.3%22°C1670ft (509m)13.27v14
448015 Apr 09:00:1868.8 mph12SW (219°)9984410199824.6°C85.1%21.9°C1686ft (514m)13.28v14
447915 Apr 09:00:061213.5 mph14SW (216°)9984110199524.7°C85%22°C1695ft (517m)13.27v16
447815 Apr 08:59:55811 mph14SSW (197°)9984410199824.7°C85.2%22°C1679ft (512m)13.28v14
447715 Apr 08:59:4478.5 mph10SSW (213°)9984310199724.7°C85.2%22°C1679ft (512m)13.28v16
447615 Apr 08:59:3378.4 mph10SSW (208°)9984210199624.7°C85%22°C1695ft (517m)13.29v16
447515 Apr 08:59:2177.7 mph9SSW (211°)9984210199624.7°C85.2%22°C1679ft (512m)13.3v13
447415 Apr 08:59:1055.7 mph6SW (218°)9984510199924.7°C85.3%22.1°C1671ft (509m)13.28v16
447315 Apr 08:58:5966.6 mph7SW (226°)9984310199724.7°C85.2%22°C1679ft (512m)13.28v16
447215 Apr 08:58:4877.6 mph9SSW (209°)9984110199524.7°C85.1%22°C1687ft (514m)13.27v15
447115 Apr 08:58:3666.1 mph7SSW (211°)9984110199524.7°C85.2%22°C1679ft (512m)13.26v14
447015 Apr 08:58:2577.8 mph9SSW (198°)9984010199424.7°C85.1%22°C1687ft (514m)13.27v16
446915 Apr 08:58:14910.8 mph13SSW (198°)9984410199824.7°C84.8%22°C1710ft (521m)13.28v13
446815 Apr 08:58:03910.8 mph12SSW (200°)9983310198624.7°C85%22°C1695ft (517m)13.29v13
446715 Apr 08:57:5167 mph8SSW (211°)9984210199624.6°C85.1%21.9°C1686ft (514m)13.28v13
446615 Apr 08:57:4088.7 mph10SSW (213°)9983710199024.7°C85.2%22°C1679ft (512m)13.27v16
446515 Apr 08:57:291010.9 mph12SSW (206°)9983710199024.7°C85.2%22°C1679ft (512m)13.28v15
446415 Apr 08:57:1857.2 mph11SW (216°)9983410198724.7°C85.3%22.1°C1671ft (509m)13.28v13
446315 Apr 08:57:0645.1 mph7SW (221°)9984010199424.7°C85.3%22.1°C1671ft (509m)13.29v16
446215 Apr 08:56:5577.2 mph8SW (215°)9984110199524.7°C85.3%22.1°C1671ft (509m)13.29v14
446115 Apr 08:56:4467.2 mph9SW (217°)9983410198724.7°C85.4%22.1°C1663ft (507m)13.28v14
446015 Apr 08:56:3347 mph10SSW (209°)9983310198624.6°C85.5%22°C1654ft (504m)13.29v14
445915 Apr 08:56:2155.6 mph7SSW (210°)9983510198824.7°C85.4%22.1°C1663ft (507m)13.3v13
445815 Apr 08:56:1055.7 mph6SW (214°)9983810199224.7°C85.4%22.1°C1663ft (507m)13.27v13
445715 Apr 08:55:5967.1 mph9SSW (208°)9983610198924.7°C85.4%22.1°C1663ft (507m)13.28v13
445615 Apr 08:55:4867.1 mph8SSW (206°)9983410198724.7°C85.4%22.1°C1663ft (507m)13.29v14
445515 Apr 08:55:3667.2 mph9SSW (207°)9983710199024.7°C85.5%22.1°C1655ft (504m)13.27v16
445415 Apr 08:55:2555.6 mph7SSW (209°)9983610198924.7°C85.5%22.1°C1655ft (504m)13.28v14
445315 Apr 08:55:1455.5 mph6SSW (209°)9983710199024.6°C85.6%22°C1647ft (502m)13.28v13
445215 Apr 08:55:0366.6 mph8SW (215°)9983610198924.6°C85.5%22°C1654ft (504m)13.3v15
445115 Apr 08:54:5155.6 mph7SW (214°)9982810198124.6°C85.6%22°C1647ft (502m)13.29v15
445015 Apr 08:54:4066.7 mph8SSW (209°)9983410198724.6°C85.5%22°C1654ft (504m)13.3v13
444915 Apr 08:54:2966.5 mph7SW (222°)9983410198724.6°C85.5%22°C1654ft (504m)13.28v16
444815 Apr 08:54:1844.8 mph6SW (220°)9983510198824.6°C85.4%22°C1662ft (507m)13.28v16
444715 Apr 08:54:0655.5 mph6SSW (209°)9983310198624.6°C85.4%22°C1662ft (507m)13.26v15
444615 Apr 08:53:5577.9 mph9SW (218°)9983410198724.6°C85.3%22°C1670ft (509m)13.29v13
444515 Apr 08:53:4477.6 mph9SW (214°)9983310198624.6°C85.2%21.9°C1678ft (511m)13.28v16
444415 Apr 08:53:3399.7 mph10SSW (207°)9983410198724.6°C85.1%21.9°C1686ft (514m)13.29v16
444315 Apr 08:53:2166.5 mph7SSW (212°)9982710198024.6°C85.5%22°C1654ft (504m)13.3v15
444215 Apr 08:53:1066.6 mph7SSW (213°)9983210198524.6°C85.6%22°C1647ft (502m)13.3v13
444115 Apr 08:52:5977.7 mph9SSW (212°)9983010198324.6°C85.6%22°C1647ft (502m)13.28v14
444015 Apr 08:52:4855.9 mph8SW (219°)9983210198524.6°C85.6%22°C1647ft (502m)13.29v13
443915 Apr 08:52:3666.6 mph8SW (216°)9983010198324.6°C85.5%22°C1654ft (504m)13.28v13
443815 Apr 08:52:2555.9 mph7SSW (211°)9983010198324.6°C85.5%22°C1654ft (504m)13.28v13
443715 Apr 08:52:1466.9 mph8SSW (208°)9983010198324.6°C85.4%22°C1662ft (507m)13.29v15
443615 Apr 08:52:0356.3 mph7SSW (201°)9983210198524.6°C85.5%22°C1654ft (504m)13.29v13
443515 Apr 08:51:5157.1 mph10SW (217°)9982910198224.6°C85.4%22°C1662ft (507m)13.3v14
443415 Apr 08:51:4056.3 mph8SW (220°)9983210198524.6°C85.4%22°C1662ft (507m)13.3v13
443315 Apr 08:51:2966.3 mph7SW (215°)9983010198324.6°C85.4%22°C1662ft (507m)13.29v17
443215 Apr 08:51:1877.8 mph9SSW (203°)9982810198124.6°C85.4%22°C1662ft (507m)13.3v14
443115 Apr 08:51:0678.5 mph11SSW (206°)9982410197724.6°C85.4%22°C1662ft (507m)13.29v14
443015 Apr 08:50:5566.3 mph7SSW (213°)9982810198124.6°C85.4%22°C1662ft (507m)13.29v14
442915 Apr 08:50:4467.2 mph9SSW (213°)9982910198224.6°C85.2%21.9°C1678ft (511m)13.31v14
442815 Apr 08:50:3378 mph9SSW (210°)9982610197924.6°C85.4%22°C1662ft (507m)13.3v13
442715 Apr 08:50:2188.9 mph10SW (217°)9983010198324.6°C85.2%21.9°C1678ft (511m)13.32v13
442615 Apr 08:50:1088.4 mph9SSW (208°)9982810198124.6°C85.4%22°C1662ft (507m)13.32v13
442515 Apr 08:49:5977.9 mph9SSW (211°)9982610197924.6°C85.3%22°C1670ft (509m)13.31v13
442415 Apr 08:49:4867.2 mph10SSW (208°)9982610197924.6°C85.4%22°C1662ft (507m)13.32v14
442315 Apr 08:49:3689.5 mph11SSW (200°)9982610197924.6°C85.5%22°C1654ft (504m)13.32v13
442215 Apr 08:49:2578.1 mph10SSW (201°)9982910198224.6°C85.4%22°C1662ft (507m)13.31v14
442115 Apr 08:49:1489.3 mph11SSW (212°)9983110198424.6°C85.2%21.9°C1678ft (511m)13.3v14
442015 Apr 08:49:0377.5 mph9SSW (213°)9983110198424.6°C85.4%22°C1662ft (507m)13.31v14
441915 Apr 08:48:5166.5 mph8SW (214°)9982910198224.6°C85.4%22°C1662ft (507m)13.32v17
441815 Apr 08:48:4066.8 mph8SW (217°)9982910198224.6°C85.4%22°C1662ft (507m)13.32v13
441715 Apr 08:48:2977.7 mph9SW (219°)9982810198124.6°C85.2%21.9°C1678ft (511m)13.32v14
441615 Apr 08:48:1899.9 mph12SSW (209°)9983010198324.6°C85.1%21.9°C1686ft (514m)13.33v13
441515 Apr 08:48:06910.1 mph12SSW (212°)9983010198324.6°C85.2%21.9°C1678ft (511m)13.31v13
441415 Apr 08:47:5567.5 mph10SSW (206°)9982810198124.6°C85.3%22°C1670ft (509m)13.32v13
441315 Apr 08:47:4477.5 mph8SSW (210°)9983010198324.6°C85.4%22°C1662ft (507m)13.32v16
441215 Apr 08:47:3377.5 mph8SSW (202°)9983010198324.6°C85.2%21.9°C1678ft (511m)13.32v13
441115 Apr 08:47:2188.8 mph10SSW (203°)9983110198424.6°C85%21.9°C1694ft (516m)13.34v16
441015 Apr 08:47:1077.6 mph9SSW (205°)9982910198224.6°C84.9%21.9°C1702ft (519m)13.33v17
440915 Apr 08:46:59911.1 mph12SSW (206°)9982810198124.6°C84.8%21.9°C1710ft (521m)13.33v13
440815 Apr 08:46:48910.7 mph12SSW (210°)9983210198524.6°C84.9%21.9°C1702ft (519m)13.32v16
440715 Apr 08:46:3678.2 mph9SSW (205°)9982810198124.6°C85.1%21.9°C1686ft (514m)13.31v14
440615 Apr 08:46:2567.7 mph9SW (214°)9983010198324.6°C85.1%21.9°C1686ft (514m)13.32v13
440515 Apr 08:46:1478.5 mph10SSW (213°)9983010198324.6°C84.9%21.9°C1702ft (519m)13.33v13
440415 Apr 08:46:0377.9 mph10SSW (211°)9982610197924.6°C85%21.9°C1694ft (516m)13.3v15
440315 Apr 08:45:5168.1 mph10SSW (209°)9982710198024.6°C85%21.9°C1694ft (516m)13.32v14
440215 Apr 08:45:4076.7 mph7SSW (213°)9983010198324.6°C85%21.9°C1694ft (516m)13.32v13
440115 Apr 08:45:2988.3 mph9SSW (205°)9983010198324.6°C84.9%21.9°C1702ft (519m)13.33v16
440015 Apr 08:45:18910 mph11SW (214°)9983210198524.6°C85%21.9°C1694ft (516m)13.32v13
439915 Apr 08:45:0789.5 mph12SSW (203°)9982910198224.6°C85.1%21.9°C1686ft (514m)13.3v13
439815 Apr 08:44:5589.6 mph11SSW (205°)9983210198524.6°C85%21.9°C1694ft (516m)13.32v13
439715 Apr 08:44:4499.5 mph10SW (214°)9982810198124.6°C85%21.9°C1694ft (516m)13.29v16
439615 Apr 08:44:3388.9 mph10SSW (213°)9982810198124.6°C85.1%21.9°C1686ft (514m)13.31v13
439515 Apr 08:44:2267.1 mph9SW (214°)9983010198324.6°C85.2%21.9°C1678ft (511m)13.31v13
439415 Apr 08:44:1089.2 mph10SW (215°)9982510197824.6°C85.2%21.9°C1678ft (511m)13.32v13
439315 Apr 08:43:5957.3 mph9SW (222°)9982910198224.6°C85.3%22°C1670ft (509m)13.32v14
439215 Apr 08:43:4867.1 mph8SW (219°)9983010198324.6°C85.3%22°C1670ft (509m)13.31v14
439115 Apr 08:43:3766.8 mph8SW (216°)9982910198224.6°C85.2%21.9°C1678ft (511m)13.3v14
439015 Apr 08:43:2567.6 mph8SW (216°)9983010198324.6°C85.1%21.9°C1686ft (514m)13.3v14
438915 Apr 08:43:1457 mph10SW (214°)9982710198024.6°C85.1%21.9°C1686ft (514m)13.31v14
438815 Apr 08:43:0377.3 mph8SW (216°)9982810198124.6°C85.1%21.9°C1686ft (514m)13.3v15
438715 Apr 08:42:5177.4 mph9SW (216°)9983010198324.6°C84.9%21.9°C1702ft (519m)13.32v13
438615 Apr 08:42:4057.3 mph9SSW (213°)9982510197824.6°C85%21.9°C1694ft (516m)13.32v13
438515 Apr 08:42:2978.3 mph10SW (215°)9982710198024.6°C85%21.9°C1694ft (516m)13.33v13
438415 Apr 08:42:1878.1 mph10SSW (201°)9982210197524.6°C84.9%21.9°C1702ft (519m)13.31v13
438315 Apr 08:42:0678.1 mph10SSW (210°)9982410197724.6°C85%21.9°C1694ft (516m)13.31v14
438215 Apr 08:41:5588.8 mph10SSW (210°)9982410197724.6°C84.9%21.9°C1702ft (519m)13.3v13
438115 Apr 08:41:4467.4 mph10SSW (207°)9982310197624.6°C84.9%21.9°C1702ft (519m)13.29v13
438015 Apr 08:41:3388.6 mph10SSW (212°)9982710198024.6°C84.7%21.8°C1718ft (524m)13.3v13
437915 Apr 08:41:2168.5 mph10SSW (209°)9982810198124.6°C84.9%21.9°C1702ft (519m)13.3v13
437815 Apr 08:41:1089.7 mph11SW (215°)9982910198224.6°C84.8%21.9°C1710ft (521m)13.31v13
437715 Apr 08:40:5978.5 mph9SW (226°)9982410197724.6°C84.9%21.9°C1702ft (519m)13.3v16
437615 Apr 08:40:4899.9 mph12SW (224°)9982510197824.6°C84.9%21.9°C1702ft (519m)13.29v14
437515 Apr 08:40:3677.6 mph9SW (221°)9983110198424.6°C85%21.9°C1694ft (516m)13.3v14
437415 Apr 08:40:2578.5 mph10SW (217°)9982910198224.6°C85.1%21.9°C1686ft (514m)13.3v13
437315 Apr 08:40:1467.3 mph9SSW (205°)9982910198224.6°C85%21.9°C1694ft (516m)13.29v13
437215 Apr 08:40:0366.4 mph7SW (220°)9982810198124.6°C85%21.9°C1694ft (516m)13.28v14
437115 Apr 08:39:5167.5 mph8SW (216°)9982910198224.6°C85%21.9°C1694ft (516m)13.3v14
437015 Apr 08:39:4067.8 mph9SW (215°)9982910198224.6°C85.1%21.9°C1686ft (514m)13.3v14
436915 Apr 08:39:2955.6 mph7SW (220°)9982910198224.6°C85.1%21.9°C1686ft (514m)13.29v13
436815 Apr 08:39:1877.3 mph9SW (214°)9982810198124.6°C84.9%21.9°C1702ft (519m)13.28v14
436715 Apr 08:39:0689.1 mph10SW (218°)9982510197824.6°C84.8%21.9°C1710ft (521m)13.28v13
436615 Apr 08:38:5567.2 mph9SW (221°)9982710198024.6°C85%21.9°C1694ft (516m)13.28v14
436515 Apr 08:38:4489.5 mph11SSW (199°)9982710198024.6°C84.7%21.8°C1718ft (524m)13.26v13
436415 Apr 08:38:3378 mph9SW (214°)9982810198124.6°C84.9%21.9°C1702ft (519m)13.27v13
436315 Apr 08:38:2166.9 mph8SSW (212°)9982710198024.6°C85%21.9°C1694ft (516m)13.27v14
436215 Apr 08:38:1056.8 mph9SW (217°)9982810198124.6°C85%21.9°C1694ft (516m)13.28v14
436115 Apr 08:37:5957 mph8SW (224°)9982810198124.6°C85%21.9°C1694ft (516m)13.27v14
436015 Apr 08:37:4877.3 mph9SW (225°)9983010198324.6°C85%21.9°C1694ft (516m)13.28v13
435915 Apr 08:37:3677.1 mph8SW (216°)9982610197924.5°C85.1%21.8°C1685ft (514m)13.27v13
435815 Apr 08:37:2556.7 mph8SW (215°)9982810198124.5°C85.1%21.8°C1685ft (514m)13.27v13
435715 Apr 08:37:1466.3 mph7SSW (213°)9982410197724.5°C85%21.8°C1693ft (516m)13.25v13
435615 Apr 08:37:0388.4 mph10SW (219°)9982910198224.5°C85%21.8°C1693ft (516m)13.26v17
435515 Apr 08:36:5188.5 mph9SSW (207°)9982510197824.6°C85%21.9°C1694ft (516m)13.25v15
435415 Apr 08:36:4058.5 mph11SSW (201°)9981810197124.6°C85%21.9°C1694ft (516m)13.25v16
435315 Apr 08:36:2978.1 mph9SW (223°)9982510197824.5°C84.9%21.8°C1701ft (518m)13.26v13
435215 Apr 08:36:1877.9 mph10SW (217°)9982910198224.6°C84.8%21.9°C1710ft (521m)13.25v15
435115 Apr 08:36:0678.9 mph10SW (228°)9982510197824.5°C84.8%21.8°C1709ft (521m)13.25v13
435015 Apr 08:35:5568 mph9SW (226°)9982510197824.6°C84.7%21.8°C1718ft (524m)13.25v14
434915 Apr 08:35:4467.3 mph9SW (214°)9982810198124.6°C84.8%21.9°C1710ft (521m)13.25v13
434815 Apr 08:35:3377.4 mph8SSW (208°)9982310197624.5°C84.6%21.7°C1725ft (526m)13.23v13
434715 Apr 08:35:2189.2 mph12SSW (208°)9982610197924.6°C84.5%21.8°C1733ft (528m)13.24v15
434615 Apr 08:35:1066.9 mph8SW (225°)9982610197924.6°C84.8%21.9°C1710ft (521m)13.24v13
434515 Apr 08:34:5966.1 mph7SW (226°)9982310197624.6°C84.7%21.8°C1718ft (524m)13.25v15
434415 Apr 08:34:4867 mph9SW (217°)9982510197824.6°C84.7%21.8°C1718ft (524m)13.23v14
434315 Apr 08:34:3666.8 mph8SSW (212°)9982510197824.6°C84.6%21.8°C1726ft (526m)13.24v15
434215 Apr 08:34:2589.1 mph10SSW (210°)9982510197824.6°C84.6%21.8°C1726ft (526m)13.23v13
434115 Apr 08:34:1467.4 mph8SW (214°)9982710198024.6°C84.6%21.8°C1726ft (526m)13.22v13
434015 Apr 08:34:0378.1 mph10SW (219°)9982510197824.6°C84.5%21.8°C1733ft (528m)13.21v13
433915 Apr 08:33:5177.7 mph9SW (214°)9982710198024.6°C84.6%21.8°C1726ft (526m)13.22v13
433815 Apr 08:33:4067.4 mph8SW (225°)9982310197624.6°C84.6%21.8°C1726ft (526m)13.22v13
433715 Apr 08:33:2966.9 mph8SW (219°)9982510197824.6°C84.5%21.8°C1733ft (528m)13.23v16
433615 Apr 08:33:1877.5 mph8SW (220°)9982710198024.6°C84.5%21.8°C1733ft (528m)13.22v16
433515 Apr 08:33:0688.4 mph9SW (218°)9982610197924.6°C84.4%21.8°C1741ft (531m)13.24v13
433415 Apr 08:32:5588.7 mph11SW (226°)9982810198124.6°C84.4%21.8°C1741ft (531m)13.24v15
433315 Apr 08:32:4499.3 mph10SW (220°)9982710198024.6°C84.3%21.8°C1749ft (533m)13.21v13
433215 Apr 08:32:3377.8 mph9SW (223°)9983010198324.6°C84.3%21.8°C1749ft (533m)13.22v16
433115 Apr 08:32:2167.1 mph9SW (216°)9982710198024.6°C84.5%21.8°C1733ft (528m)13.2v14
433015 Apr 08:32:1077.3 mph8SSW (211°)9983010198324.6°C84.4%21.8°C1741ft (531m)13.21v16
432915 Apr 08:31:5978.1 mph9SW (221°)9982810198124.6°C84.4%21.8°C1741ft (531m)13.23v13
432815 Apr 08:31:4856.4 mph8SW (218°)9982810198124.6°C84.6%21.8°C1726ft (526m)13.23v13
432715 Apr 08:31:3677.9 mph9SW (216°)9982710198024.6°C84.5%21.8°C1733ft (528m)13.22v15
432615 Apr 08:31:2567.1 mph8SW (219°)9982610197924.6°C84.4%21.8°C1741ft (531m)13.22v13
432515 Apr 08:31:1466.8 mph9SW (225°)9983010198324.6°C84.5%21.8°C1733ft (528m)13.22v14
432415 Apr 08:31:0366.9 mph9SW (219°)9983110198424.6°C84.5%21.8°C1733ft (528m)13.22v15
432315 Apr 08:30:5155.8 mph6SW (217°)9983110198424.6°C84.4%21.8°C1741ft (531m)13.21v14
432215 Apr 08:30:4055.5 mph6SW (215°)9983010198324.6°C84.4%21.8°C1741ft (531m)13.21v16
432115 Apr 08:30:2967.4 mph9SW (215°)9982910198224.6°C84.3%21.8°C1749ft (533m)13.22v14
432015 Apr 08:30:1866.2 mph7SW (222°)9982710198024.6°C84.3%21.8°C1749ft (533m)13.22v13
431915 Apr 08:30:0666.6 mph8SW (214°)9982710198024.6°C84.2%21.8°C1757ft (536m)13.22v13
431815 Apr 08:29:5577.6 mph9SSW (205°)9982810198124.6°C84.2%21.8°C1757ft (536m)13.22v17
431715 Apr 08:29:4467.2 mph8SW (215°)9983110198424.6°C84.3%21.8°C1749ft (533m)13.22v16
431615 Apr 08:29:3345.1 mph7SSW (211°)9983010198324.6°C84.2%21.8°C1757ft (536m)13.2v14
431515 Apr 08:29:2145.1 mph6SW (229°)9982810198124.6°C84%21.7°C1773ft (540m)13.21v15
431415 Apr 08:29:1066.8 mph7SW (229°)9982710198024.6°C83.9%21.7°C1781ft (543m)13.21v14
431315 Apr 08:28:5978.2 mph10SW (218°)9982810198124.6°C83.9%21.7°C1781ft (543m)13.21v13
431215 Apr 08:28:4877.6 mph9SSW (210°)9982210197524.6°C83.9%21.7°C1781ft (543m)13.22v13
431115 Apr 08:28:3688.7 mph10SSW (213°)9982910198224.6°C83.8%21.7°C1789ft (545m)13.21v13
431015 Apr 08:28:2589.3 mph11SSW (210°)9982610197924.6°C83.6%21.6°C1805ft (550m)13.2v13
430915 Apr 08:28:1477.7 mph9SSW (208°)9982710198024.6°C83.9%21.7°C1781ft (543m)13.22v13
430815 Apr 08:28:0377.7 mph8SSW (211°)9982810198124.6°C84%21.7°C1773ft (540m)13.2v14
430715 Apr 08:27:5176.8 mph7SSW (209°)9982810198124.6°C83.9%21.7°C1781ft (543m)13.22v15
430615 Apr 08:27:4066.5 mph7SW (216°)9982710198024.6°C83.8%21.7°C1789ft (545m)13.2v16
430515 Apr 08:27:2988.4 mph9SW (229°)9982510197824.6°C83.8%21.7°C1789ft (545m)13.21v13
430415 Apr 08:27:1877.7 mph8SW (224°)9982510197824.7°C83.7%21.8°C1798ft (548m)13.21v14
430315 Apr 08:27:0767.1 mph9SW (222°)9982610197924.7°C83.7%21.8°C1798ft (548m)13.21v16
430215 Apr 08:26:5588.2 mph9SW (227°)9982510197824.7°C83.7%21.8°C1798ft (548m)13.22v16
430115 Apr 08:26:4478.4 mph10SW (217°)9982410197724.7°C83.8%21.8°C1790ft (546m)13.22v15
430015 Apr 08:26:3377.2 mph8SW (220°)9982610197924.7°C83.9%21.8°C1782ft (543m)13.2v15
429915 Apr 08:26:2268.2 mph10SW (215°)9982210197524.7°C83.9%21.8°C1782ft (543m)13.2v13
429815 Apr 08:26:1078.7 mph10SSW (212°)9982310197624.7°C83.9%21.8°C1782ft (543m)13.2v16
429715 Apr 08:25:5979 mph10SW (216°)9982210197524.7°C84%21.8°C1774ft (541m)13.22v13
429615 Apr 08:25:4866.4 mph8SW (223°)9982210197524.7°C84.1%21.8°C1766ft (538m)13.22v13
429515 Apr 08:25:3777.2 mph8SW (224°)9982410197724.7°C84.1%21.8°C1766ft (538m)13.22v15
429415 Apr 08:25:2588.5 mph9SW (220°)9982410197724.7°C84%21.8°C1774ft (541m)13.22v15
429315 Apr 08:25:1456.1 mph7SW (226°)9982410197724.6°C84.2%21.8°C1757ft (536m)13.21v17
429215 Apr 08:25:0356.8 mph8SW (219°)9982410197724.6°C84.2%21.8°C1757ft (536m)13.2v14
429115 Apr 08:24:5255.3 mph6SW (226°)9982410197724.7°C84.1%21.8°C1766ft (538m)13.19v14
429015 Apr 08:24:4066.9 mph8SSW (213°)9982110197424.7°C84.1%21.8°C1766ft (538m)13.22v18
428915 Apr 08:24:2967.6 mph9SW (216°)9982510197824.7°C84.2%21.9°C1758ft (536m)13.2v17
428815 Apr 08:24:1889.6 mph11SW (216°)9982010197324.6°C84.3%21.8°C1749ft (533m)13.22v15
428715 Apr 08:24:0656.6 mph8SW (228°)9982710198024.6°C84.3%21.8°C1749ft (533m)13.21v15
428615 Apr 08:23:5566.7 mph8SW (222°)9982110197424.6°C84.3%21.8°C1749ft (533m)13.22v16
428515 Apr 08:23:4467.3 mph8SW (215°)9981910197224.6°C84.3%21.8°C1749ft (533m)13.21v17
428415 Apr 08:23:3377 mph8SW (215°)9982110197424.6°C84.3%21.8°C1749ft (533m)13.2v15
428315 Apr 08:23:2156.9 mph9SSW (206°)9982010197324.6°C84.3%21.8°C1749ft (533m)13.21v14
428215 Apr 08:23:1078.4 mph9SSW (211°)9982010197324.6°C84.3%21.8°C1749ft (533m)13.21v16
428115 Apr 08:22:5978 mph9SW (214°)9982110197424.6°C84.3%21.8°C1749ft (533m)13.21v16
428015 Apr 08:22:4855.6 mph7SW (216°)9982110197424.6°C84.4%21.8°C1741ft (531m)13.22v14
427915 Apr 08:22:3655.8 mph6SW (217°)9981910197224.6°C84.3%21.8°C1749ft (533m)13.22v14
427815 Apr 08:22:2556.1 mph7SW (217°)9982110197424.6°C84.4%21.8°C1741ft (531m)13.22v14
427715 Apr 08:22:1466.3 mph7SW (218°)9982010197324.6°C84.3%21.8°C1749ft (533m)13.22v14
427615 Apr 08:22:0388.4 mph9SSW (207°)9981910197224.6°C84.3%21.8°C1749ft (533m)13.22v16
427515 Apr 08:21:5177.7 mph8SSW (213°)9981810197124.6°C84.5%21.8°C1733ft (528m)13.21v15
427415 Apr 08:21:4055.6 mph6SW (223°)9981710197024.6°C84.5%21.8°C1733ft (528m)13.23v15
427315 Apr 08:21:2955.8 mph7SW (218°)9981810197124.6°C84.4%21.8°C1741ft (531m)13.21v15
427215 Apr 08:21:1856.3 mph7SW (217°)9981810197124.6°C84.4%21.8°C1741ft (531m)13.22v16
427115 Apr 08:21:0656.2 mph7SW (219°)9981810197124.6°C84.4%21.8°C1741ft (531m)13.24v15
427015 Apr 08:20:5556.1 mph7SW (229°)9981310196624.6°C84.3%21.8°C1749ft (533m)13.23v15
426915 Apr 08:20:4476.9 mph7SW (219°)9981810197124.6°C84.3%21.8°C1749ft (533m)13.23v14
426815 Apr 08:20:3377.9 mph9SW (214°)9981810197124.6°C84.3%21.8°C1749ft (533m)13.24v13
426715 Apr 08:20:2167.1 mph8SSW (211°)9981510196824.6°C84.4%21.8°C1741ft (531m)13.23v16
426615 Apr 08:20:1066.5 mph8SSW (205°)9981310196624.6°C84.4%21.8°C1741ft (531m)13.23v14
426515 Apr 08:19:5955.9 mph7SSW (212°)9981610196924.6°C84.4%21.8°C1741ft (531m)13.21v13
426415 Apr 08:19:4866.5 mph8SW (215°)9981710197024.6°C84.4%21.8°C1741ft (531m)13.24v12
426315 Apr 08:19:3646.2 mph8SW (216°)9981510196824.6°C84.5%21.8°C1733ft (528m)13.25v13
426215 Apr 08:19:2544.9 mph7SW (218°)9981610196924.6°C84.4%21.8°C1741ft (531m)13.24v13
426115 Apr 08:19:1467.2 mph8SW (223°)9981610196924.6°C84.3%21.8°C1749ft (533m)13.23v15
426015 Apr 08:19:0367.4 mph9SW (218°)9981510196824.6°C84.2%21.8°C1757ft (536m)13.25v13
425915 Apr 08:18:5177.8 mph8SW (216°)9981510196824.5°C84.3%21.7°C1748ft (533m)13.24v14
425815 Apr 08:18:4067 mph9SW (221°)9981310196624.6°C84.4%21.8°C1741ft (531m)13.23v13
425715 Apr 08:18:2967.8 mph9SW (221°)9981310196624.5°C84.4%21.7°C1741ft (531m)13.24v12
425615 Apr 08:18:1867 mph9SSW (206°)9981410196724.5°C84.4%21.7°C1741ft (531m)13.24v13
425515 Apr 08:18:0666.6 mph7SSW (213°)9981310196624.5°C84.4%21.7°C1741ft (531m)13.24v13
425415 Apr 08:17:5555.8 mph8SW (224°)9981410196724.5°C84.4%21.7°C1741ft (531m)13.25v13
425315 Apr 08:17:4434 mph5SW (225°)9981810197124.5°C84.3%21.7°C1748ft (533m)13.24v13
425215 Apr 08:17:3345.3 mph7SW (219°)9981510196824.5°C84.2%21.7°C1756ft (535m)13.26v14
425115 Apr 08:17:2156.5 mph8SW (232°)9981210196524.5°C84.2%21.7°C1756ft (535m)13.24v12
425015 Apr 08:17:1057.1 mph9SW (220°)9981410196724.5°C84.1%21.6°C1764ft (538m)13.23v13
424915 Apr 08:16:5967.4 mph9SSW (205°)9981210196524.6°C84.1%21.7°C1765ft (538m)13.23v13
424815 Apr 08:16:4866.4 mph7SSW (209°)9981210196524.6°C84%21.7°C1773ft (540m)13.23v13
424715 Apr 08:16:3688.2 mph9SW (216°)9981210196524.6°C83.8%21.7°C1789ft (545m)13.24v13
424615 Apr 08:16:2556.5 mph8SSW (208°)9981410196724.6°C83.8%21.7°C1789ft (545m)13.24v14
424515 Apr 08:16:1477.8 mph9SSW (210°)9981010196324.6°C83.7%21.7°C1797ft (548m)13.24v15
424415 Apr 08:16:0377.9 mph9SW (219°)9981210196524.5°C83.7%21.6°C1796ft (547m)13.23v13
424315 Apr 08:15:5178.1 mph10SW (217°)9981110196424.5°C83.5%21.5°C1812ft (552m)13.25v13
424215 Apr 08:15:40810.6 mph12SW (214°)9981010196324.5°C83.4%21.5°C1820ft (555m)13.24v13
424115 Apr 08:15:291111.8 mph12SW (217°)9980810196124.6°C83.3%21.6°C1829ft (557m)13.24v13
424015 Apr 08:15:18910.4 mph12SW (214°)9980810196124.6°C83.4%21.6°C1821ft (555m)13.23v13
423915 Apr 08:15:0678.7 mph10SSW (206°)9981010196324.6°C83.6%21.6°C1805ft (550m)13.24v13
423815 Apr 08:14:55910.3 mph12SSW (213°)9980510195824.6°C83.7%21.7°C1797ft (548m)13.25v13
423715 Apr 08:14:44710 mph13SSW (207°)9980810196124.6°C83.6%21.6°C1805ft (550m)13.24v16
423615 Apr 08:14:3366.6 mph7SW (220°)9981310196624.6°C83.8%21.7°C1789ft (545m)13.25v14
423515 Apr 08:14:2156.9 mph8SW (221°)9981210196524.6°C83.9%21.7°C1781ft (543m)13.24v16
423415 Apr 08:14:1067.4 mph8SSW (213°)9980910196224.6°C83.9%21.7°C1781ft (543m)13.25v13
423315 Apr 08:13:5955.4 mph6SW (225°)9980710196024.6°C83.9%21.7°C1781ft (543m)13.23v13
423215 Apr 08:13:4866.5 mph9SW (222°)9981010196324.6°C83.7%21.7°C1797ft (548m)13.25v13
423115 Apr 08:13:3667.1 mph8SSW (213°)9980910196224.6°C83.8%21.7°C1789ft (545m)13.24v12
423015 Apr 08:13:2566 mph6SW (218°)9981110196424.6°C83.7%21.7°C1797ft (548m)13.25v14
422915 Apr 08:13:1466.6 mph7SW (228°)9980710196024.6°C83.6%21.6°C1805ft (550m)13.25v15
422815 Apr 08:13:0366.7 mph8SW (221°)9981010196324.6°C83.6%21.6°C1805ft (550m)13.25v13
422715 Apr 08:12:5177.1 mph8SSW (208°)9980910196224.6°C83.5%21.6°C1813ft (553m)13.25v15
422615 Apr 08:12:4067.6 mph9SSW (206°)9980710196024.6°C83.5%21.6°C1813ft (553m)13.24v14
422515 Apr 08:12:2988.5 mph10SW (215°)9980610195924.6°C83.6%21.6°C1805ft (550m)13.23v12
422415 Apr 08:12:1877.3 mph8SSW (200°)9981110196424.6°C83.6%21.6°C1805ft (550m)13.24v14
422315 Apr 08:12:0688.5 mph9SSW (210°)9980710196024.6°C83.7%21.7°C1797ft (548m)13.26v13
422215 Apr 08:11:5578.6 mph11S (190°)9980310195624.6°C83.6%21.6°C1805ft (550m)13.24v14
422115 Apr 08:11:4455.8 mph7SW (216°)9981010196324.6°C83.6%21.6°C1805ft (550m)13.24v13
422015 Apr 08:11:3344.4 mph5SW (226°)9980910196224.6°C83.4%21.6°C1821ft (555m)13.25v13
421915 Apr 08:11:2167.2 mph8SSW (206°)9980710196024.6°C83.3%21.6°C1829ft (557m)13.23v16
421815 Apr 08:11:1067.6 mph9SSW (212°)9980710196024.6°C83.4%21.6°C1821ft (555m)13.25v13
421715 Apr 08:10:5955.5 mph6SSW (210°)9980910196224.6°C83.3%21.6°C1829ft (557m)13.23v13
421615 Apr 08:10:4867.3 mph9SSW (206°)9980510195824.6°C83.2%21.6°C1838ft (560m)13.23v14
421515 Apr 08:10:3688.8 mph10SSW (203°)9980710196024.6°C83%21.5°C1854ft (565m)13.23v14
421415 Apr 08:10:2567.6 mph9SSW (208°)9980710196024.6°C83.2%21.6°C1838ft (560m)13.24v13
421315 Apr 08:10:1489.7 mph11SSW (203°)9981010196324.6°C83%21.5°C1854ft (565m)13.24v13
421215 Apr 08:10:03910.2 mph11SSW (207°)9980410195724.6°C83%21.5°C1854ft (565m)13.23v12
421115 Apr 08:09:5178.2 mph9SSW (209°)9980310195624.6°C83.2%21.6°C1838ft (560m)13.26v13
421015 Apr 08:09:4077.6 mph9SSW (209°)9980210195524.6°C83.2%21.6°C1838ft (560m)13.24v12
420915 Apr 08:09:2967.8 mph10SW (216°)9980510195824.6°C83.2%21.6°C1838ft (560m)13.23v13
420815 Apr 08:09:1877.6 mph8SW (217°)9980510195824.6°C83.2%21.6°C1838ft (560m)13.23v13
420715 Apr 08:09:0756.3 mph7SSW (201°)9980310195624.6°C83%21.5°C1854ft (565m)13.23v14
420615 Apr 08:08:5567.2 mph9SSW (208°)9980310195624.6°C83.3%21.6°C1829ft (557m)13.24v14
420515 Apr 08:08:4445.4 mph7SSW (197°)9980610195924.7°C83.2%21.7°C1838ft (560m)13.23v14
420415 Apr 08:08:3377.7 mph9SW (215°)9980310195624.6°C83.2%21.6°C1838ft (560m)13.22v13
420315 Apr 08:08:2267 mph8SSW (210°)9980310195624.6°C83.3%21.6°C1829ft (557m)13.23v16
420215 Apr 08:08:1067.4 mph9SSW (212°)9980110195424.6°C83.3%21.6°C1829ft (557m)13.23v13
420115 Apr 08:07:5955.8 mph7SW (227°)9980310195624.6°C83.3%21.6°C1829ft (557m)13.23v16
420015 Apr 08:07:4855.8 mph8SSW (213°)9980410195724.6°C83.3%21.6°C1829ft (557m)13.22v14
419915 Apr 08:07:3665.5 mph6SSW (212°)9980110195424.7°C83.3%21.7°C1830ft (558m)13.22v13
419815 Apr 08:07:2545.2 mph6SW (216°)9980210195524.6°C83.3%21.6°C1829ft (557m)13.25v13
419715 Apr 08:07:1444.4 mph5SW (219°)9980210195524.7°C83.1%21.6°C1847ft (563m)13.24v14
419615 Apr 08:07:0355.6 mph6SW (217°)9980110195424.7°C83%21.6°C1855ft (565m)13.25v13
419515 Apr 08:06:5166.6 mph8SSW (202°)9979910195224.7°C83%21.6°C1855ft (565m)13.24v15
419415 Apr 08:06:4066.8 mph8SSW (206°)9980010195324.7°C82.9%21.6°C1863ft (568m)13.23v14
419315 Apr 08:06:2978.1 mph9SW (215°)9980010195324.7°C82.8%21.6°C1871ft (570m)13.22v15
419215 Apr 08:06:1868.2 mph11SW (214°)9980210195524.7°C82.8%21.6°C1871ft (570m)13.22v14
419115 Apr 08:06:0777.8 mph9SSW (210°)9980010195324.7°C82.8%21.6°C1871ft (570m)13.24v13
419015 Apr 08:05:5588.3 mph9SW (214°)9980210195524.7°C82.8%21.6°C1871ft (570m)13.23v17
418915 Apr 08:05:4467.6 mph10SW (216°)9980010195324.7°C82.8%21.6°C1871ft (570m)13.22v17
418815 Apr 08:05:3367 mph8SW (218°)9980410195724.7°C82.8%21.6°C1871ft (570m)13.24v15
418715 Apr 08:05:2288.7 mph10SW (217°)9979710195024.7°C82.8%21.6°C1871ft (570m)13.24v14
418615 Apr 08:05:1067.8 mph11SSW (208°)9979410194724.7°C82.9%21.6°C1863ft (568m)13.23v13
418515 Apr 08:04:5977.7 mph10SSW (205°)9979410194724.7°C83%21.6°C1855ft (565m)13.23v13
418415 Apr 08:04:4856 mph7SSW (209°)9979610194924.7°C83%21.6°C1855ft (565m)13.21v14
418315 Apr 08:04:3755.7 mph7SW (217°)9979310194624.7°C83%21.6°C1855ft (565m)13.21v13
418215 Apr 08:04:2566.3 mph8SW (217°)9979510194824.7°C82.9%21.6°C1863ft (568m)13.24v13
418115 Apr 08:04:1456 mph7SW (223°)9979810195124.7°C82.8%21.6°C1871ft (570m)13.24v13
418015 Apr 08:04:0366.7 mph8SW (222°)9979810195124.7°C82.8%21.6°C1871ft (570m)13.22v13
417915 Apr 08:03:5178 mph9SSW (206°)9979210194524.7°C82.8%21.6°C1871ft (570m)13.22v13
417815 Apr 08:03:4066.6 mph7SW (218°)9979710195024.7°C82.9%21.6°C1863ft (568m)13.23v13
417715 Apr 08:03:2967.3 mph8SW (219°)9979410194724.7°C82.8%21.6°C1871ft (570m)13.21v14
417615 Apr 08:03:1866.6 mph7SW (217°)9979410194724.7°C82.8%21.6°C1871ft (570m)13.21v14
417515 Apr 08:03:0756.4 mph7SW (217°)9979110194424.7°C82.7%21.6°C1879ft (573m)13.22v14
417415 Apr 08:02:5566.8 mph7SW (216°)9979310194624.7°C82.7%21.6°C1879ft (573m)13.21v14
417315 Apr 08:02:4467.1 mph9SSW (209°)9979310194624.7°C82.8%21.6°C1871ft (570m)13.23v13
417215 Apr 08:02:3366.5 mph8SSW (210°)9979410194724.7°C82.8%21.6°C1871ft (570m)13.22v13
417115 Apr 08:02:2256.6 mph9SSW (210°)9979110194424.7°C83%21.6°C1855ft (565m)13.22v18
417015 Apr 08:02:1066.3 mph7SW (218°)9979110194424.7°C82.9%21.6°C1863ft (568m)13.22v17
416915 Apr 08:01:5955.6 mph6SW (217°)9979410194724.7°C83%21.6°C1855ft (565m)13.21v16
416815 Apr 08:01:4845.8 mph8SW (215°)9979310194624.7°C82.8%21.6°C1871ft (570m)13.2v16
416715 Apr 08:01:3744.6 mph5SW (219°)9979110194424.7°C82.8%21.6°C1871ft (570m)13.2v15
416615 Apr 08:01:2555.6 mph6SW (217°)9979510194824.7°C82.7%21.6°C1879ft (573m)13.2v17
416515 Apr 08:01:1455.7 mph6SSW (209°)9979210194524.7°C82.7%21.6°C1879ft (573m)13.22v16
416415 Apr 08:01:0355.3 mph6SSW (211°)9979410194724.7°C82.7%21.6°C1879ft (573m)13.21v17
416315 Apr 08:00:5255.1 mph6SSW (207°)9979210194524.7°C82.5%21.5°C1895ft (578m)13.21v17
416215 Apr 08:00:4056 mph7SSW (202°)9979210194524.7°C82.4%21.5°C1903ft (580m)13.2v17
416115 Apr 08:00:2978.6 mph10SSW (210°)9979110194424.7°C82.3%21.5°C1911ft (582m)13.2v18
416015 Apr 08:00:1888.9 mph10SSW (209°)9979210194524.7°C82.1%21.4°C1928ft (588m)13.19v16
415915 Apr 08:00:0778.4 mph10SSW (205°)9979110194424.7°C82.1%21.4°C1928ft (588m)13.19v18
415815 Apr 07:59:5577.9 mph9SSW (205°)9978810194024.7°C82.2%21.5°C1920ft (585m)13.18v17
415715 Apr 07:59:4467.9 mph9SSW (208°)9978810194024.7°C82.2%21.5°C1920ft (585m)13.2v16
415615 Apr 07:59:3367.5 mph10SSW (206°)9979010194224.7°C82.2%21.5°C1920ft (585m)13.2v16
415515 Apr 07:59:2267.1 mph8SSW (201°)9978810194024.7°C82.2%21.5°C1920ft (585m)13.19v17
415415 Apr 07:59:1077.4 mph8SSW (202°)9978810194024.7°C82.2%21.5°C1920ft (585m)13.19v17
415315 Apr 07:58:5988.7 mph9SSW (202°)9978410193624.7°C82%21.4°C1936ft (590m)13.19v16
415215 Apr 07:58:4867.6 mph10SSW (200°)9978710193924.7°C82.2%21.5°C1920ft (585m)13.18v17
415115 Apr 07:58:3766.6 mph7SSW (210°)9978910194124.7°C82.2%21.5°C1920ft (585m)13.18v16
415015 Apr 07:58:2577.1 mph8SSW (206°)9978410193624.7°C82.2%21.5°C1920ft (585m)13.18v16
414915 Apr 07:58:1477.7 mph8SSW (205°)9978710193924.7°C82.2%21.5°C1920ft (585m)13.2v16
414815 Apr 07:58:0366.9 mph8SSW (207°)9978610193824.7°C82.3%21.5°C1911ft (582m)13.17v16
414715 Apr 07:57:5267.3 mph9SSW (199°)9978810194024.7°C82.3%21.5°C1911ft (582m)13.17v16
414615 Apr 07:57:4055.5 mph7SSW (198°)9978910194124.7°C82.4%21.5°C1903ft (580m)13.17v16
414515 Apr 07:57:2967.1 mph8SSW (207°)9978910194124.7°C82.3%21.5°C1911ft (582m)13.17v17
414415 Apr 07:57:1856 mph7SSW (208°)9978610193824.7°C82.2%21.5°C1920ft (585m)13.16v18
414315 Apr 07:57:0766.7 mph8SSW (210°)9978610193824.7°C82.2%21.5°C1920ft (585m)13.15v16
414215 Apr 07:56:5568.1 mph10SSW (207°)9978410193624.7°C82.1%21.4°C1928ft (588m)13.15v17
414115 Apr 07:56:4467.1 mph9SSW (213°)9978710193924.7°C82.2%21.5°C1920ft (585m)13.17v16
414015 Apr 07:56:3378.2 mph9SSW (211°)9978910194124.7°C82.2%21.5°C1920ft (585m)13.18v16
413915 Apr 07:56:2277.3 mph8SW (221°)9978610193824.7°C82.2%21.5°C1920ft (585m)13.17v16
413815 Apr 07:56:1045.6 mph7SW (219°)9978810194024.6°C82.2%21.4°C1919ft (585m)13.17v18
413715 Apr 07:55:5944.9 mph6SSW (207°)9978810194024.7°C82.1%21.4°C1928ft (588m)13.18v17
413615 Apr 07:55:4845.7 mph7SW (216°)9978710193924.7°C82.1%21.4°C1928ft (588m)13.15v17
413515 Apr 07:55:3766.7 mph7SSW (208°)9978610193824.7°C82.2%21.5°C1920ft (585m)13.13v17
413415 Apr 07:55:2566.6 mph8SW (217°)9978510193724.7°C82.2%21.5°C1920ft (585m)13.15v18
413315 Apr 07:55:1467 mph8SW (225°)9978610193824.6°C82.2%21.4°C1919ft (585m)13.14v17
413215 Apr 07:55:0355.8 mph6SSW (211°)9978710193924.6°C82.2%21.4°C1919ft (585m)13.14v18
413115 Apr 07:54:5266.2 mph7SW (218°)9978610193824.6°C82.2%21.4°C1919ft (585m)13.16v16
413015 Apr 07:54:4055.8 mph7SSW (205°)9979010194224.7°C82.1%21.4°C1928ft (588m)13.15v18
412915 Apr 07:54:2945.4 mph6SSW (203°)9978510193724.6°C82.1%21.3°C1927ft (587m)13.13v18
412815 Apr 07:54:1845.6 mph7SSW (207°)9978810194024.7°C82%21.4°C1936ft (590m)13.13v16
412715 Apr 07:54:0756.4 mph8SSW (211°)9978610193824.7°C82%21.4°C1936ft (590m)13.12v16
412615 Apr 07:53:5589.1 mph10SW (222°)9978710193924.7°C82%21.4°C1936ft (590m)13.11v18
412515 Apr 07:53:4457.1 mph10SW (216°)9978310193524.7°C82.1%21.4°C1928ft (588m)13.12v16
412415 Apr 07:53:3357.5 mph9SW (215°)9978410193624.7°C82.1%21.4°C1928ft (588m)13.13v16
412315 Apr 07:53:2256 mph7SSW (211°)9978410193624.6°C82.1%21.3°C1927ft (587m)13.12v16
412215 Apr 07:53:1066.4 mph7SSW (206°)9978210193424.6°C82%21.3°C1935ft (590m)13.11v16
412115 Apr 07:52:5955.1 mph6SSW (206°)9978510193724.7°C82.1%21.4°C1928ft (588m)13.12v16
412015 Apr 07:52:4855.2 mph6SSW (201°)9978510193724.6°C82.1%21.3°C1927ft (587m)13.11v17
411915 Apr 07:52:3766.9 mph8SSW (212°)9978510193724.6°C82%21.3°C1935ft (590m)13.1v16
411815 Apr 07:52:2556.7 mph8SSW (202°)9978210193424.6°C82.2%21.4°C1919ft (585m)13.1v17
411715 Apr 07:52:1456.3 mph8SW (219°)9978710193924.6°C82.2%21.4°C1919ft (585m)13.1v17
411615 Apr 07:52:0355.8 mph7SSW (211°)9978310193524.6°C82.2%21.4°C1919ft (585m)13.11v16
411515 Apr 07:51:5255.4 mph6SW (215°)9978310193524.6°C82.2%21.4°C1919ft (585m)13.12v16
411415 Apr 07:51:4077.7 mph8SSW (199°)9978610193824.6°C82.1%21.3°C1927ft (587m)13.1v16
411315 Apr 07:51:2945.9 mph8SW (222°)9978110193324.6°C82.2%21.4°C1919ft (585m)13.1v17
411215 Apr 07:51:1844.6 mph6SSW (212°)9978510193724.6°C82.1%21.3°C1927ft (587m)13.1v17
411115 Apr 07:51:0755.6 mph7SW (225°)9978410193624.6°C82.1%21.3°C1927ft (587m)13.09v16
411015 Apr 07:50:5566.8 mph7SSW (213°)9978210193424.6°C82.1%21.3°C1927ft (587m)13.08v16
410915 Apr 07:50:4467.5 mph8SSW (213°)9978210193424.6°C82.2%21.4°C1919ft (585m)13.08v18
410815 Apr 07:50:3355.8 mph6SW (224°)9978410193624.6°C82.2%21.4°C1919ft (585m)13.1v17
410715 Apr 07:50:2244.4 mph5SW (229°)9978410193624.6°C82.2%21.4°C1919ft (585m)13.1v19
410615 Apr 07:50:1055.6 mph6SW (227°)9978510193724.6°C82.1%21.3°C1927ft (587m)13.09v18
410515 Apr 07:49:5966.6 mph7SW (220°)9978310193524.6°C82%21.3°C1935ft (590m)13.09v17
410415 Apr 07:49:4877.4 mph8SSW (206°)9978410193624.6°C81.9%21.3°C1943ft (592m)13.07v16
410315 Apr 07:49:3755.6 mph7SW (220°)9978310193524.6°C81.9%21.3°C1943ft (592m)13.07v16
410215 Apr 07:49:2556.5 mph8SSW (210°)9978510193724.6°C81.9%21.3°C1943ft (592m)13.06v16
410115 Apr 07:49:1457.3 mph9SSW (211°)9978210193424.6°C82%21.3°C1935ft (590m)13.07v16
410015 Apr 07:49:0366.7 mph7SSW (211°)9978410193624.6°C81.9%21.3°C1943ft (592m)13.07v16
409915 Apr 07:48:5266.5 mph8SW (222°)9978410193624.6°C81.8%21.3°C1951ft (595m)13.07v16
409815 Apr 07:48:4066.9 mph8SSW (213°)9978610193824.7°C81.8%21.4°C1952ft (595m)13.08v17
409715 Apr 07:48:2956.2 mph8SSW (212°)9978310193524.6°C81.8%21.3°C1951ft (595m)13.07v16
409615 Apr 07:48:1855.9 mph7SW (215°)9978310193524.7°C81.8%21.4°C1952ft (595m)13.06v17
409515 Apr 07:48:0767.1 mph8SSW (210°)9978210193424.7°C81.7%21.4°C1960ft (597m)13.07v16
409415 Apr 07:47:5567.4 mph9SW (216°)9978110193324.7°C81.8%21.4°C1952ft (595m)13.05v16
409315 Apr 07:47:4468.3 mph10SSW (207°)9977210192424.7°C81.6%21.3°C1969ft (600m)13.06v18
409215 Apr 07:47:3355.7 mph6SW (219°)9978210193424.7°C81.7%21.4°C1960ft (597m)13.06v16
409115 Apr 07:47:2266.8 mph9SW (227°)9978010193224.7°C81.6%21.3°C1969ft (600m)13.08v17
409015 Apr 07:47:1077.7 mph8SSW (207°)9977810193024.7°C81.7%21.4°C1960ft (597m)13.07v17
408915 Apr 07:46:5966.8 mph8SSW (212°)9978110193324.7°C81.8%21.4°C1952ft (595m)13.04v16
408815 Apr 07:46:4835.1 mph6SSW (212°)9978110193324.7°C81.9%21.4°C1944ft (593m)13.07v19
408715 Apr 07:46:3733.4 mph4SW (216°)9977910193124.7°C81.8%21.4°C1952ft (595m)13.06v17
408615 Apr 07:46:2534.2 mph5SW (214°)9977910193124.7°C81.7%21.4°C1960ft (597m)13.05v17
408515 Apr 07:46:1455.5 mph6SW (215°)9978010193224.7°C81.7%21.4°C1960ft (597m)13.04v16
408415 Apr 07:46:0355.4 mph6SSW (212°)9978110193324.7°C81.7%21.4°C1960ft (597m)13.05v16
408315 Apr 07:45:5256.1 mph8SW (214°)9977910193124.7°C81.5%21.3°C1977ft (603m)13.06v16
408215 Apr 07:45:4088.7 mph9SW (215°)9977710192924.7°C81.6%21.3°C1969ft (600m)13.05v16
408115 Apr 07:45:2967.1 mph8SW (216°)9977610192824.7°C81.6%21.3°C1969ft (600m)13.04v16
408015 Apr 07:45:1777.9 mph9SSW (205°)9977710192924.7°C81.5%21.3°C1977ft (603m)13.04v16
407915 Apr 07:45:0656.1 mph7SW (217°)9978010193224.7°C81.4%21.3°C1985ft (605m)13.03v16
407815 Apr 07:44:5567.2 mph9SW (216°)9977610192824.7°C81.3%21.3°C1993ft (607m)13.02v16
407715 Apr 07:44:4466.6 mph7SW (214°)9977810193024.7°C81.4%21.3°C1985ft (605m)13.03v17
407615 Apr 07:44:3288.4 mph9SSW (206°)9977710192924.7°C81.3%21.3°C1993ft (607m)13.02v16
407515 Apr 07:44:2178.3 mph10SSW (197°)9977810193024.7°C81.4%21.3°C1985ft (605m)13.03v18
407415 Apr 07:44:1066.9 mph8SSW (208°)9977810193024.7°C81.3%21.3°C1993ft (607m)13.04v16
407315 Apr 07:43:5956.3 mph8SSW (205°)9977710192924.7°C81.3%21.3°C1993ft (607m)13.04v16
407215 Apr 07:43:4755.9 mph7SW (214°)9977710192924.7°C81.3%21.3°C1993ft (607m)13.03v16
407115 Apr 07:43:3667.3 mph8SW (216°)9977710192924.7°C81.3%21.3°C1993ft (607m)13.02v17
407015 Apr 07:43:2577.9 mph9SSW (212°)9977810193024.7°C81.5%21.3°C1977ft (603m)13.01v16
406915 Apr 07:43:1455.9 mph7SSW (197°)9977610192824.7°C81.5%21.3°C1977ft (603m)13.01v17
406815 Apr 07:43:0266.6 mph7SSW (212°)9977710192924.7°C81.4%21.3°C1985ft (605m)13.02v17
406715 Apr 07:42:5177.6 mph9SSW (208°)9977510192724.7°C81.4%21.3°C1985ft (605m)13.01v17
406615 Apr 07:42:4088.3 mph9SW (217°)9977510192724.7°C81.3%21.3°C1993ft (607m)13.02v18
406515 Apr 07:42:2966.5 mph8SW (214°)9977910193124.7°C81.4%21.3°C1985ft (605m)13.01v18
406415 Apr 07:42:1867.5 mph9SSW (212°)9977510192724.7°C81.3%21.3°C1993ft (607m)13v18
406315 Apr 07:42:0777.1 mph8SW (214°)9977710192924.7°C81.3%21.3°C1993ft (607m)13.01v20
406215 Apr 07:41:5566.3 mph7SSW (207°)9977410192624.7°C81.3%21.3°C1993ft (607m)13v19
406115 Apr 07:41:4456 mph8SSW (208°)9977510192724.7°C81.3%21.3°C1993ft (607m)13v16
406015 Apr 07:41:3356.1 mph7SW (218°)9977510192724.7°C81.1%21.2°C2010ft (613m)13v16
405915 Apr 07:41:2255.6 mph7SW (218°)9977710192924.7°C81.1%21.2°C2010ft (613m)12.98v16
405815 Apr 07:41:1045 mph6SW (220°)9977110192324.7°C81%21.2°C2018ft (615m)13v16
405715 Apr 07:40:5955.9 mph7SSW (209°)9977310192524.7°C80.9%21.2°C2026ft (618m)13.01v17
405615 Apr 07:40:4878.4 mph10SW (217°)9977310192524.8°C80.9%21.3°C2027ft (618m)13v19
405515 Apr 07:40:3766.5 mph7SSW (205°)9977410192624.8°C81%21.3°C2019ft (615m)13.01v18
405415 Apr 07:40:2566.9 mph9SW (217°)9977210192424.7°C80.9%21.2°C2026ft (618m)12.99v16
405315 Apr 07:40:1477.9 mph9SW (216°)9977210192424.7°C80.9%21.2°C2026ft (618m)12.99v16
405215 Apr 07:40:0377.9 mph9SW (216°)9977210192424.7°C80.9%21.2°C2026ft (618m)12.99v16
405115 Apr 07:39:5266.1 mph7SW (218°)9977210192424.8°C81%21.3°C2019ft (615m)12.97v17
405015 Apr 07:39:4077.1 mph8SSW (207°)9977110192324.7°C81%21.2°C2018ft (615m)12.98v19
404915 Apr 07:39:2956.3 mph8SSW (204°)9977110192324.7°C81%21.2°C2018ft (615m)12.98v16
404815 Apr 07:39:1866.5 mph8SSW (212°)9977210192424.7°C80.9%21.2°C2026ft (618m)12.98v18
404715 Apr 07:39:0777.5 mph8SSW (213°)9977110192324.7°C80.8%21.2°C2034ft (620m)12.97v17
404615 Apr 07:38:5589.7 mph11SW (216°)9977010192224.8°C80.8%21.3°C2036ft (621m)12.98v19
404515 Apr 07:38:4489.1 mph10SSW (209°)9976810192024.7°C80.9%21.2°C2026ft (618m)12.96v19
404415 Apr 07:38:3367.1 mph8SW (215°)9977210192424.7°C81%21.2°C2018ft (615m)12.96v19
404315 Apr 07:38:2256.4 mph8SSW (212°)9977210192424.7°C80.9%21.2°C2026ft (618m)12.98v18
404215 Apr 07:38:1066 mph7SSW (206°)9977310192524.7°C80.9%21.2°C2026ft (618m)12.97v19
404115 Apr 07:37:5968.3 mph10SSW (210°)9977310192524.8°C80.7%21.3°C2044ft (623m)12.99v18
404015 Apr 07:37:4877.8 mph9SSW (204°)9976910192124.8°C80.9%21.3°C2027ft (618m)12.99v18
403915 Apr 07:37:3777.9 mph9SSW (204°)9977310192524.8°C80.9%21.3°C2027ft (618m)12.98v17
403815 Apr 07:37:2577.8 mph9SSW (208°)9977110192324.8°C80.9%21.3°C2027ft (618m)12.97v18
403715 Apr 07:37:1456.9 mph9SSW (211°)9977210192424.8°C80.9%21.3°C2027ft (618m)12.96v18
403615 Apr 07:37:0368.1 mph10SSW (209°)9977010192224.8°C80.8%21.3°C2036ft (621m)12.96v19
403515 Apr 07:36:5288.1 mph9SSW (203°)9976710191924.8°C80.8%21.3°C2036ft (621m)12.96v18
403415 Apr 07:36:4056.1 mph7SSW (209°)9976910192124.8°C80.8%21.3°C2036ft (621m)12.98v17
403315 Apr 07:36:2988.5 mph9SW (220°)9977110192324.8°C80.8%21.3°C2036ft (621m)12.99v18
403215 Apr 07:36:1878 mph9SSW (211°)9976710191924.8°C80.7%21.3°C2044ft (623m)12.98v17
403115 Apr 07:36:0688.4 mph9SSW (205°)9976710191924.8°C80.8%21.3°C2036ft (621m)12.97v16
403015 Apr 07:35:5555.8 mph7SSW (206°)9977010192224.8°C81.1%21.3°C2011ft (613m)12.98v18
402915 Apr 07:35:4444.6 mph5SSW (209°)9977110192324.8°C81.1%21.3°C2011ft (613m)12.96v16
402815 Apr 07:35:3345.3 mph6SW (214°)9976610191824.8°C81%21.3°C2019ft (615m)12.95v16
402715 Apr 07:35:2155.8 mph7SSW (208°)9976710191924.8°C80.9%21.3°C2027ft (618m)12.97v16
402615 Apr 07:35:1077.8 mph9SW (216°)9976510191724.8°C80.9%21.3°C2027ft (618m)12.97v16
402515 Apr 07:34:5978 mph9SSW (201°)9976810192024.8°C80.7%21.3°C2044ft (623m)12.98v16
402415 Apr 07:34:4856.4 mph8SSW (211°)9976410191624.8°C80.7%21.3°C2044ft (623m)12.97v16
402315 Apr 07:34:3677.3 mph8SSW (200°)9976710191924.8°C80.7%21.3°C2044ft (623m)12.98v16
402215 Apr 07:34:2568.1 mph10SSW (198°)9976510191724.8°C80.6%21.2°C2052ft (625m)12.98v16
402115 Apr 07:34:1478.2 mph9SSW (206°)9976610191824.8°C80.8%21.3°C2036ft (621m)12.97v17
402015 Apr 07:34:0266.7 mph8SSW (207°)9976610191824.8°C80.8%21.3°C2036ft (621m)12.98v16
401915 Apr 07:33:5178 mph9SSW (204°)9976710191924.8°C80.8%21.3°C2036ft (621m)12.97v18
401815 Apr 07:33:4077 mph7SSW (208°)9976310191524.8°C80.8%21.3°C2036ft (621m)12.97v19
401715 Apr 07:33:2967.2 mph8SSW (210°)9976310191524.8°C80.8%21.3°C2036ft (621m)12.99v17
401615 Apr 07:33:1756.1 mph8SSW (210°)9976410191624.8°C80.9%21.3°C2027ft (618m)12.99v17
401515 Apr 07:33:0654.9 mph5SSW (210°)9976410191624.8°C80.8%21.3°C2036ft (621m)12.98v18
401415 Apr 07:32:5567.6 mph9SSW (204°)9976310191524.8°C80.7%21.3°C2044ft (623m)12.98v19
401315 Apr 07:32:4498.9 mph9SSW (198°)9976510191724.8°C80.7%21.3°C2044ft (623m)12.98v19
401215 Apr 07:32:3267 mph9SSW (208°)9976410191624.8°C80.7%21.3°C2044ft (623m)12.98v19
401115 Apr 07:32:2178.2 mph10SSW (210°)9976210191424.8°C80.7%21.3°C2044ft (623m)13v19
401015 Apr 07:32:1056.1 mph9SSW (211°)9976210191424.8°C80.8%21.3°C2036ft (621m)12.97v19
400915 Apr 07:31:5967.3 mph8SSW (211°)9976110191324.8°C80.9%21.3°C2027ft (618m)12.99v16
400815 Apr 07:31:4755.7 mph7SW (225°)9976010191224.8°C80.9%21.3°C2027ft (618m)12.99v16
400715 Apr 07:31:3677.6 mph9SW (214°)9976410191624.7°C80.8%21.2°C2034ft (620m)12.99v16
400615 Apr 07:31:2578.4 mph10SSW (206°)9976310191524.7°C80.8%21.2°C2034ft (620m)12.97v19
400515 Apr 07:31:1445 mph6SSW (211°)9976310191524.8°C80.9%21.3°C2027ft (618m)12.98v17
400415 Apr 07:31:0255.6 mph6SW (218°)9976210191424.8°C80.9%21.3°C2027ft (618m)12.97v16
400315 Apr 07:30:5167 mph8SW (218°)9976210191424.8°C80.9%21.3°C2027ft (618m)12.97v18
400215 Apr 07:30:4056.1 mph8SSW (210°)9976110191324.8°C81.1%21.3°C2011ft (613m)12.98v19
400115 Apr 07:30:2944.5 mph6SW (220°)9976010191224.7°C81.1%21.2°C2010ft (613m)12.98v17
400015 Apr 07:30:1744.5 mph5SW (217°)9976310191524.7°C80.9%21.2°C2026ft (618m)12.99v17
399915 Apr 07:30:0655.5 mph6SSW (205°)9976110191324.8°C80.9%21.3°C2027ft (618m)12.97v19
399815 Apr 07:29:5556.7 mph8SSW (205°)9975810191024.8°C80.8%21.3°C2036ft (621m)12.97v16
399715 Apr 07:29:4477.4 mph8SSW (206°)9975510190724.7°C80.9%21.2°C2026ft (618m)12.97v16
399615 Apr 07:29:3278.1 mph9SSW (207°)9975910191124.8°C80.8%21.3°C2036ft (621m)12.97v18
399515 Apr 07:29:2155.8 mph7SSW (207°)9975710190924.8°C80.9%21.3°C2027ft (618m)12.97v16
399415 Apr 07:29:1077.8 mph9SSW (209°)9976210191424.8°C80.8%21.3°C2036ft (621m)12.98v16
399315 Apr 07:28:5988.9 mph11SSW (199°)9975510190724.7°C80.8%21.2°C2034ft (620m)12.97v17
399215 Apr 07:28:4747.6 mph10SSW (202°)9975710190924.8°C80.8%21.3°C2036ft (621m)12.97v17
399115 Apr 07:28:3655.3 mph6SSW (212°)9975910191124.7°C80.9%21.2°C2026ft (618m)12.97v18
399015 Apr 07:28:2545.1 mph6SW (217°)9976010191224.7°C81%21.2°C2018ft (615m)12.97v17
398915 Apr 07:28:1455.4 mph6SW (221°)9975810191024.7°C80.9%21.2°C2026ft (618m)12.98v16
398815 Apr 07:28:0255.5 mph7SSW (212°)9975710190924.7°C80.9%21.2°C2026ft (618m)12.96v16
398715 Apr 07:27:5155.7 mph7SSW (210°)9975710190924.7°C80.9%21.2°C2026ft (618m)12.96v16
398615 Apr 07:27:4044.8 mph5SSW (212°)9975710190924.7°C80.9%21.2°C2026ft (618m)12.95v16
398515 Apr 07:27:2955.9 mph7SSW (200°)9975610190824.7°C80.8%21.2°C2034ft (620m)12.97v16
398415 Apr 07:27:1856.9 mph9SSW (208°)9975610190824.7°C80.8%21.2°C2034ft (620m)12.97v18
398315 Apr 07:27:0777 mph7SSW (208°)9975310190524.7°C80.8%21.2°C2034ft (620m)12.97v16
398215 Apr 07:26:5555.5 mph6SSW (204°)9975510190724.7°C80.9%21.2°C2026ft (618m)12.98v17
398115 Apr 07:26:4434.8 mph7SSW (208°)9975610190824.7°C80.8%21.2°C2034ft (620m)12.95v16
398015 Apr 07:26:3377.4 mph8SSW (209°)9975110190324.7°C80.8%21.2°C2034ft (620m)12.96v16
397915 Apr 07:26:2256.3 mph8SSW (212°)9975210190424.7°C80.8%21.2°C2034ft (620m)12.95v16
397815 Apr 07:26:1066.6 mph7SSW (210°)9975210190424.7°C80.9%21.2°C2026ft (618m)12.95v16
397715 Apr 07:25:5988.1 mph9SSW (207°)9975210190424.7°C80.9%21.2°C2026ft (618m)12.97v16
397615 Apr 07:25:4877.8 mph9SSW (198°)9975010190224.7°C81%21.2°C2018ft (615m)12.95v16
397515 Apr 07:25:3755.7 mph6SSW (202°)9975210190424.7°C80.9%21.2°C2026ft (618m)12.95v17
397415 Apr 07:25:2556.6 mph8SSW (204°)9974710189924.7°C80.9%21.2°C2026ft (618m)12.95v17
397315 Apr 07:25:1467.5 mph9SSW (212°)9974810190024.7°C80.8%21.2°C2034ft (620m)12.96v16
397215 Apr 07:25:0377.3 mph9SSW (204°)9974810190024.7°C80.7%21.2°C2043ft (623m)12.93v16
397115 Apr 07:24:5289.7 mph11SSW (206°)9974710189924.7°C80.6%21.1°C2051ft (625m)12.94v16
397015 Apr 07:24:4066.7 mph8SSW (205°)9974510189724.7°C80.8%21.2°C2034ft (620m)12.94v16
396915 Apr 07:24:2956.4 mph8SW (217°)9974910190124.7°C80.8%21.2°C2034ft (620m)12.93v19
396815 Apr 07:24:1855.9 mph7SW (214°)9974610189824.7°C80.9%21.2°C2026ft (618m)12.94v18
396715 Apr 07:24:0766.2 mph7SW (219°)9974910190124.7°C80.9%21.2°C2026ft (618m)12.93v18
396615 Apr 07:23:5577.5 mph9SW (217°)9974910190124.7°C80.9%21.2°C2026ft (618m)12.93v17
396515 Apr 07:23:4445.5 mph7SSW (211°)9974610189824.7°C80.9%21.2°C2026ft (618m)12.94v17
396415 Apr 07:23:3344.5 mph5SW (214°)9974710189924.7°C80.8%21.2°C2034ft (620m)12.91v17
396315 Apr 07:23:2255.7 mph7SSW (208°)9974710189924.7°C80.8%21.2°C2034ft (620m)12.9v17
396215 Apr 07:23:1066.7 mph8SSW (210°)9974710189924.7°C80.8%21.2°C2034ft (620m)12.9v17
396115 Apr 07:22:5955.4 mph6SW (214°)9974910190124.7°C80.7%21.2°C2043ft (623m)12.91v19
396015 Apr 07:22:4856 mph7SSW (206°)9974510189724.7°C80.7%21.2°C2043ft (623m)12.92v17
395915 Apr 07:22:3744.2 mph5SSW (213°)9974810190024.7°C80.6%21.1°C2051ft (625m)12.92v17
395815 Apr 07:22:2557.5 mph10SSW (209°)9974810190024.7°C80.4%21.1°C2068ft (630m)12.9v17
395715 Apr 07:22:1488.5 mph9SSW (204°)9974210189324.7°C80.4%21.1°C2068ft (630m)12.9v17
395615 Apr 07:22:0399.2 mph10SSW (200°)9974510189724.7°C80.5%21.1°C2059ft (628m)12.9v17
395515 Apr 07:21:5188.9 mph10SSW (207°)9974210189324.7°C80.5%21.1°C2059ft (628m)12.89v19
395415 Apr 07:21:4078.5 mph10SSW (205°)9974010189124.7°C80.5%21.1°C2059ft (628m)12.89v18
395315 Apr 07:21:2966.7 mph8SSW (201°)9974810190024.7°C80.6%21.1°C2051ft (625m)12.89v17
395215 Apr 07:21:1867.9 mph10SSW (199°)9974410189524.7°C80.4%21.1°C2068ft (630m)12.9v18
395115 Apr 07:21:0757.9 mph10SSW (199°)9974310189424.7°C80.6%21.1°C2051ft (625m)12.91v17
395015 Apr 07:20:5556.4 mph8SW (225°)9974610189824.7°C80.6%21.1°C2051ft (625m)12.9v17
394915 Apr 07:20:4466.7 mph8SSW (202°)9974710189924.7°C80.6%21.1°C2051ft (625m)12.89v19
394815 Apr 07:20:3356.6 mph8SSW (210°)9974810190024.7°C80.5%21.1°C2059ft (628m)12.88v18
394715 Apr 07:20:2278.1 mph10SW (214°)9974610189824.7°C80.6%21.1°C2051ft (625m)12.89v17
394615 Apr 07:20:1066.8 mph9SSW (208°)9974410189524.7°C80.6%21.1°C2051ft (625m)12.88v17
394515 Apr 07:19:5978.1 mph10SSW (204°)9974210189324.7°C80.6%21.1°C2051ft (625m)12.88v19
394415 Apr 07:19:4877 mph8SSW (205°)9974410189524.7°C80.6%21.1°C2051ft (625m)12.87v17
394315 Apr 07:19:3789.3 mph11SW (215°)9974310189424.7°C80.6%21.1°C2051ft (625m)12.87v16
394215 Apr 07:19:2557.9 mph11SSW (194°)9974110189224.7°C80.7%21.2°C2043ft (623m)12.88v16
394115 Apr 07:19:1456.2 mph7SSW (210°)9974510189724.7°C80.8%21.2°C2034ft (620m)12.86v17
394015 Apr 07:19:0355.7 mph7SSW (213°)9974210189324.7°C80.8%21.2°C2034ft (620m)12.87v16
393915 Apr 07:18:5256.4 mph8SW (214°)9974310189424.7°C80.8%21.2°C2034ft (620m)12.85v16
393815 Apr 07:18:4077.5 mph8SSW (210°)9974110189224.7°C80.8%21.2°C2034ft (620m)12.85v17
393715 Apr 07:18:2945.3 mph7SSW (203°)9974210189324.7°C80.9%21.2°C2026ft (618m)12.85v16
393615 Apr 07:18:1845.2 mph7SSW (208°)9974410189524.7°C80.9%21.2°C2026ft (618m)12.86v16
393515 Apr 07:18:0766.3 mph7SSW (207°)9974410189524.7°C80.9%21.2°C2026ft (618m)12.86v16
393415 Apr 07:17:5644.9 mph7SW (217°)9974210189324.7°C81.1%21.2°C2010ft (613m)12.85v18
393315 Apr 07:17:4433.4 mph4SSW (210°)9974010189124.7°C81.2%21.3°C2001ft (610m)12.85v16
393215 Apr 07:17:3343.9 mph4SW (217°)9974210189324.6°C81.2%21.2°C2000ft (610m)12.84v17
393115 Apr 07:17:2234.2 mph5SSW (207°)9974210189324.6°C81%21.1°C2017ft (615m)12.84v17
393015 Apr 07:17:1145 mph6SSW (213°)9974310189424.6°C81.1%21.1°C2009ft (612m)12.82v18
392915 Apr 07:16:5944.5 mph6SW (216°)9974110189224.7°C80.9%21.2°C2026ft (618m)12.83v19
392815 Apr 07:16:4855.7 mph7SSW (210°)9974010189124.6°C80.9%21.1°C2025ft (617m)12.83v17
392715 Apr 07:16:3767.2 mph8SW (214°)9973810188924.6°C80.9%21.1°C2025ft (617m)12.84v16
392615 Apr 07:16:2655.7 mph6SSW (211°)9974110189224.7°C80.9%21.2°C2026ft (618m)12.84v16
392515 Apr 07:16:1444.8 mph6SSW (210°)9973610188724.7°C80.9%21.2°C2026ft (618m)12.84v17
392415 Apr 07:16:0366.9 mph8S (191°)9974110189224.7°C80.9%21.2°C2026ft (618m)12.83v17
392315 Apr 07:15:5266.1 mph7SW (217°)9973910189024.6°C81.1%21.1°C2009ft (612m)12.83v16
392215 Apr 07:15:4156.1 mph8SSW (205°)9973810188924.6°C81.1%21.1°C2009ft (612m)12.82v16
392115 Apr 07:15:2955.5 mph7SW (215°)9973810188924.7°C80.9%21.2°C2026ft (618m)12.81v16
392015 Apr 07:15:1856.1 mph8SSW (206°)9973610188724.7°C80.9%21.2°C2026ft (618m)12.81v18
391915 Apr 07:15:0766.9 mph8SW (218°)9973610188724.7°C80.9%21.2°C2026ft (618m)12.83v19
391815 Apr 07:14:5656 mph9SSW (209°)9973810188924.7°C80.9%21.2°C2026ft (618m)12.82v16
391715 Apr 07:14:4578.1 mph9SSW (212°)9973610188724.7°C80.8%21.2°C2034ft (620m)12.81v16
391615 Apr 07:14:3356 mph7SSW (203°)9973510188624.7°C81%21.2°C2018ft (615m)12.8v17
391515 Apr 07:14:2245.3 mph6SW (216°)9973610188724.6°C81%21.1°C2017ft (615m)12.79v17
391415 Apr 07:14:1156.2 mph7SW (218°)9973310188424.6°C81.1%21.1°C2009ft (612m)12.8v16
391315 Apr 07:14:0056.3 mph7SW (215°)9973310188424.6°C81.1%21.1°C2009ft (612m)12.81v17
391215 Apr 07:13:4855.9 mph7SSW (212°)9973110188224.6°C81.2%21.2°C2000ft (610m)12.8v16
391115 Apr 07:13:3755.8 mph7SSW (212°)9973010188124.6°C81.2%21.2°C2000ft (610m)12.8v16
391015 Apr 07:13:2645.5 mph7SW (214°)9973110188224.6°C81.2%21.2°C2000ft (610m)12.8v16
390915 Apr 07:13:1556 mph7SW (220°)9973210188324.6°C81.1%21.1°C2009ft (612m)12.79v16
390815 Apr 07:13:0377.2 mph9SSW (213°)9973310188424.6°C81%21.1°C2017ft (615m)12.8v18
390715 Apr 07:12:5256.2 mph7SW (216°)9973210188324.6°C81.1%21.1°C2009ft (612m)12.79v17
390615 Apr 07:12:4167.4 mph9SW (214°)9973110188224.6°C81%21.1°C2017ft (615m)12.78v16
390515 Apr 07:12:2966.7 mph8SSW (208°)9972910188024.6°C81.1%21.1°C2009ft (612m)12.78v17
390415 Apr 07:12:1855.7 mph6SW (218°)9972810187924.6°C81.1%21.1°C2009ft (612m)12.79v17
390315 Apr 07:12:0767.1 mph8SSW (211°)9973010188124.6°C81.1%21.1°C2009ft (612m)12.78v17
390215 Apr 07:11:5556.1 mph8SSW (209°)9972610187724.6°C81.1%21.1°C2009ft (612m)12.78v16
390115 Apr 07:11:4477.6 mph9SW (229°)9972710187824.6°C81.1%21.1°C2009ft (612m)12.77v17
390015 Apr 07:11:3355.3 mph6SW (226°)9972810187924.6°C81%21.1°C2017ft (615m)12.78v16
389915 Apr 07:11:2267.6 mph9SSW (204°)9973110188224.6°C81.1%21.1°C2009ft (612m)12.77v17
389815 Apr 07:11:1066.9 mph8SW (216°)9972910188024.6°C80.9%21.1°C2025ft (617m)12.75v16
389715 Apr 07:10:5977.8 mph9SW (225°)9973010188124.6°C80.8%21.1°C2033ft (620m)12.76v17
389615 Apr 07:10:4877 mph7SW (223°)9972710187824.6°C80.9%21.1°C2025ft (617m)12.75v17
389515 Apr 07:10:3777.3 mph8SW (215°)9973210188324.6°C80.9%21.1°C2025ft (617m)12.77v16
389415 Apr 07:10:2556.1 mph8SW (220°)9972810187924.6°C81%21.1°C2017ft (615m)12.76v16
389315 Apr 07:10:1455.6 mph7SSW (207°)9972710187824.6°C81%21.1°C2017ft (615m)12.75v16
389215 Apr 07:10:0345.1 mph7SSW (213°)9973210188324.6°C80.9%21.1°C2025ft (617m)12.75v16
389115 Apr 07:09:5245.4 mph6SSW (212°)9972810187924.6°C81%21.1°C2017ft (615m)12.76v17
389015 Apr 07:09:4066.1 mph7SW (219°)9973010188124.6°C81%21.1°C2017ft (615m)12.75v17
388915 Apr 07:09:2966.7 mph8SW (226°)9972910188024.6°C81%21.1°C2017ft (615m)12.73v17
388815 Apr 07:09:1855.8 mph7SW (217°)9972910188024.6°C80.9%21.1°C2025ft (617m)12.73v15
388715 Apr 07:09:0645 mph6SSW (209°)9973010188124.6°C80.9%21.1°C2025ft (617m)12.73v16
388615 Apr 07:08:5556.7 mph9SW (223°)9972910188024.6°C80.8%21.1°C2033ft (620m)12.75v16
388515 Apr 07:08:4455.7 mph7SSW (212°)9973110188224.6°C80.8%21.1°C2033ft (620m)12.74v16
388415 Apr 07:08:3355.9 mph7SW (221°)9972810187924.6°C80.7%21.1°C2042ft (622m)12.73v18
388315 Apr 07:08:2146.5 mph8SW (215°)9972710187824.6°C80.6%21°C2050ft (625m)12.73v16
388215 Apr 07:08:1067.4 mph9SSW (212°)9972810187924.6°C80.6%21°C2050ft (625m)12.71v18
388115 Apr 07:07:5978.8 mph11SSW (211°)9972710187824.6°C80.6%21°C2050ft (625m)12.72v16
388015 Apr 07:07:4879.3 mph11SSW (211°)9972610187724.6°C80.5%21°C2058ft (627m)12.71v16
387915 Apr 07:07:3667.7 mph9SW (215°)9972810187924.6°C80.5%21°C2058ft (627m)12.71v16
387815 Apr 07:07:2566.1 mph7SW (219°)9972610187724.6°C80.6%21°C2050ft (625m)12.73v16
387715 Apr 07:07:1488.1 mph9SSW (208°)9972610187724.6°C80.6%21°C2050ft (625m)12.72v16
387615 Apr 07:07:0377.9 mph9SW (214°)9972510187624.6°C80.5%21°C2058ft (627m)12.71v16
387515 Apr 07:06:5177.8 mph9SSW (209°)9972710187824.6°C80.6%21°C2050ft (625m)12.7v17
387415 Apr 07:06:4099.4 mph11SW (216°)9972410187524.6°C80.6%21°C2050ft (625m)12.7v16
387315 Apr 07:06:2977.5 mph10SSW (210°)9972210187324.6°C80.7%21.1°C2042ft (622m)12.69v19
387215 Apr 07:06:1856.7 mph9SW (223°)9972210187324.6°C80.7%21.1°C2042ft (622m)12.69v16
387115 Apr 07:06:0766.5 mph8SW (217°)9972010187124.6°C80.7%21.1°C2042ft (622m)12.7v16
387015 Apr 07:05:5577.3 mph8SSW (212°)9972110187224.6°C80.8%21.1°C2033ft (620m)12.71v17
386915 Apr 07:05:4466.5 mph8SW (220°)9972210187324.6°C80.8%21.1°C2033ft (620m)12.7v17
386815 Apr 07:05:3355.6 mph7SW (230°)9972410187524.6°C80.7%21.1°C2042ft (622m)12.69v17
386715 Apr 07:05:2256.5 mph8SW (214°)9971910187024.6°C80.7%21.1°C2042ft (622m)12.68v17
386615 Apr 07:05:1055.8 mph7SW (217°)9972510187624.6°C80.6%21°C2050ft (625m)12.67v17
386515 Apr 07:04:5956.5 mph9SSW (209°)9972210187324.6°C80.7%21.1°C2042ft (622m)12.66v17
386415 Apr 07:04:4878.3 mph10SSW (207°)9972210187324.6°C80.7%21.1°C2042ft (622m)12.67v16
386315 Apr 07:04:3778.5 mph10SSW (200°)9972110187224.5°C80.4%20.9°C2065ft (629m)12.67v17
386215 Apr 07:04:2578.9 mph11SSW (209°)9972110187224.6°C80.5%21°C2058ft (627m)12.67v16
386115 Apr 07:04:1467.4 mph9SSW (202°)9972110187224.6°C80.6%21°C2050ft (625m)12.68v17
386015 Apr 07:04:0399.6 mph11SSW (209°)9971510186624.6°C80.6%21°C2050ft (625m)12.67v16
385915 Apr 07:03:5267.4 mph9SSW (207°)9971510186624.6°C80.7%21.1°C2042ft (622m)12.66v16
385815 Apr 07:03:4067.3 mph9SSW (201°)9971810186924.6°C80.7%21.1°C2042ft (622m)12.66v16
385715 Apr 07:03:2956.7 mph8SSW (208°)9972310187424.6°C80.7%21.1°C2042ft (622m)12.67v17
385615 Apr 07:03:1877.5 mph9SSW (202°)9971510186624.6°C80.6%21°C2050ft (625m)12.64v16
385515 Apr 07:03:0744.9 mph6SW (223°)9972010187124.6°C80.7%21.1°C2042ft (622m)12.66v17
385415 Apr 07:02:5666.5 mph7SW (216°)9971710186824.6°C80.7%21.1°C2042ft (622m)12.65v17
385315 Apr 07:02:4456.4 mph8SW (222°)9972010187124.6°C80.7%21.1°C2042ft (622m)12.67v16
385215 Apr 07:02:3345.5 mph7SW (221°)9972110187224.6°C80.6%21°C2050ft (625m)12.66v16
385115 Apr 07:02:2255.5 mph6SW (220°)9971910187024.6°C80.5%21°C2058ft (627m)12.65v17
385015 Apr 07:02:1166.3 mph7SW (222°)9971710186824.6°C80.4%21°C2067ft (630m)12.67v17
384915 Apr 07:01:5956.8 mph9SSW (212°)9971610186724.6°C80.4%21°C2067ft (630m)12.66v18
384815 Apr 07:01:4855.3 mph6SW (221°)9971710186824.6°C80.5%21°C2058ft (627m)12.64v15
384715 Apr 07:01:3756.1 mph7SSW (211°)9971610186724.6°C80.4%21°C2067ft (630m)12.65v18
384615 Apr 07:01:2556.1 mph8SW (214°)9971910187024.6°C80.3%21°C2075ft (632m)12.65v18
384515 Apr 07:01:1477.7 mph9SSW (211°)9971610186724.6°C80.3%21°C2075ft (632m)12.65v19
384415 Apr 07:01:0367.3 mph9SSW (210°)9971810186924.6°C80.3%21°C2075ft (632m)12.65v16
384315 Apr 07:00:5266.6 mph7SW (216°)9971510186624.6°C80.2%21°C2083ft (635m)12.65v18
384215 Apr 07:00:4067.5 mph9SW (216°)9971810186924.7°C80.1%21°C2093ft (638m)12.64v16
384115 Apr 07:00:2978.3 mph10SW (223°)9971710186824.7°C80%21°C2101ft (640m)12.65v17
384015 Apr 07:00:18910.3 mph11SSW (213°)9971610186724.7°C79.9%21°C2109ft (643m)12.64v18
383915 Apr 07:00:0789.9 mph11SSW (199°)9971510186624.7°C79.9%21°C2109ft (643m)12.62v16
383815 Apr 06:59:5577.7 mph8SSW (207°)9971610186724.7°C80%21°C2101ft (640m)12.64v16
383715 Apr 06:59:4477.6 mph8SW (218°)9971710186824.7°C80%21°C2101ft (640m)12.64v16
383615 Apr 06:59:3367.4 mph9SW (219°)9971410186524.7°C79.9%21°C2109ft (643m)12.64v18
383515 Apr 06:59:2299.8 mph11SSW (200°)9971210186324.7°C79.9%21°C2109ft (643m)12.63v17
383415 Apr 06:59:1077.5 mph8SW (221°)9971910187024.6°C80.1%20.9°C2091ft (637m)12.63v17
383315 Apr 06:58:5956.1 mph7SW (217°)9971710186824.7°C80.1%21°C2093ft (638m)12.64v16
383215 Apr 06:58:4866.2 mph7SW (218°)9971410186524.6°C80%20.9°C2100ft (640m)12.62v16
383115 Apr 06:58:3766.5 mph8SW (222°)9971610186724.7°C79.8%21°C2118ft (646m)12.63v16
383015 Apr 06:58:2567.6 mph9SW (233°)9971710186824.7°C79.7%21°C2126ft (648m)12.62v16
382915 Apr 06:58:1467.1 mph9SW (214°)9971610186724.7°C79.8%21°C2118ft (646m)12.62v15
382815 Apr 06:58:0366.6 mph8SW (221°)9971710186824.7°C79.6%20.9°C2134ft (650m)12.63v19
382715 Apr 06:57:5277.7 mph9SW (221°)9971510186624.7°C79.6%20.9°C2134ft (650m)12.62v16
382615 Apr 06:57:4077.2 mph8SW (228°)9971610186724.7°C79.6%20.9°C2134ft (650m)12.61v15
382515 Apr 06:57:2967.8 mph9SSW (210°)9971410186524.7°C79.6%20.9°C2134ft (650m)12.61v15
382415 Apr 06:57:1876.9 mph7SW (223°)9971610186724.7°C79.6%20.9°C2134ft (650m)12.61v17
382315 Apr 06:57:0668.3 mph10SSW (205°)9971510186624.7°C79.5%20.9°C2143ft (653m)12.6v16
382215 Apr 06:56:5546.2 mph8SW (217°)9971510186624.8°C79.4%21°C2152ft (656m)12.6v15
382115 Apr 06:56:4455.8 mph7SW (217°)9971910187024.7°C79.4%20.9°C2151ft (656m)12.62v16
382015 Apr 06:56:3366.5 mph7SSW (208°)9971410186524.7°C79.5%20.9°C2143ft (653m)12.62v16
381915 Apr 06:56:2156.5 mph8SSW (208°)9971310186424.7°C79.4%20.9°C2151ft (656m)12.61v16
381815 Apr 06:56:1078.5 mph10SSW (212°)9971610186724.7°C79.2%20.9°C2168ft (661m)12.6v16
381715 Apr 06:55:5978.3 mph10SW (225°)9971510186624.8°C79.3%21°C2161ft (659m)12.61v16
381615 Apr 06:55:4855.3 mph6SSW (209°)9971610186724.8°C79.3%21°C2161ft (659m)12.61v16
381515 Apr 06:55:3666.5 mph7SW (224°)9971410186524.8°C79.2%20.9°C2169ft (661m)12.6v18
381415 Apr 06:55:2578.7 mph10SSW (199°)9971310186424.8°C79.2%20.9°C2169ft (661m)12.59v18
381315 Apr 06:55:1477.6 mph9SSW (201°)9971110186224.8°C79.2%20.9°C2169ft (661m)12.61v16
381215 Apr 06:55:03910.2 mph11SW (216°)9971510186624.8°C79%20.9°C2186ft (666m)12.62v16
381115 Apr 06:54:51910.5 mph12SSW (213°)9971310186424.8°C79%20.9°C2186ft (666m)12.62v17
381015 Apr 06:54:4099.8 mph11SSW (212°)9971510186624.8°C79.1%20.9°C2178ft (664m)12.61v15
380915 Apr 06:54:2978.2 mph9SSW (209°)9971410186524.8°C79.1%20.9°C2178ft (664m)12.6v15
380815 Apr 06:54:1877.2 mph8SW (219°)9971210186324.8°C79.2%20.9°C2169ft (661m)12.6v16
380715 Apr 06:54:0777.5 mph10SW (220°)9971410186524.8°C79.1%20.9°C2178ft (664m)12.59v16
380615 Apr 06:53:5599.2 mph10SSW (206°)9971010186124.8°C79%20.9°C2186ft (666m)12.59v16
380515 Apr 06:53:4488.2 mph9SSW (210°)9971310186424.8°C79.1%20.9°C2178ft (664m)12.6v17
380415 Apr 06:53:3377 mph7SW (214°)9971310186424.8°C79.1%20.9°C2178ft (664m)12.61v15
380315 Apr 06:53:2277.7 mph9SW (220°)9971410186524.8°C79.1%20.9°C2178ft (664m)12.61v16
380215 Apr 06:53:1066.5 mph7SW (223°)9971210186324.8°C79.1%20.9°C2178ft (664m)12.6v16
380115 Apr 06:52:5955.8 mph6SW (217°)9971510186624.8°C79%20.9°C2186ft (666m)12.6v17
380015 Apr 06:52:4855.7 mph6SSW (207°)9971310186424.8°C78.9%20.9°C2194ft (669m)12.59v16
379915 Apr 06:52:3765.9 mph6SSW (208°)9971110186224.8°C78.8%20.9°C2203ft (671m)12.59v16
379815 Apr 06:52:2577.5 mph8SSW (205°)9971210186324.8°C78.8%20.9°C2203ft (671m)12.59v18
379715 Apr 06:52:1499.4 mph10SSW (206°)9971010186124.8°C78.7%20.8°C2211ft (674m)12.57v16
379615 Apr 06:52:0388.2 mph9SSW (208°)9970710185824.8°C78.8%20.9°C2203ft (671m)12.61v18
379515 Apr 06:51:5289.1 mph10SSW (207°)9971010186124.8°C78.7%20.8°C2211ft (674m)12.59v16
379415 Apr 06:51:4066.3 mph8SSW (203°)9971010186124.8°C78.8%20.9°C2203ft (671m)12.58v16
379315 Apr 06:51:2966.7 mph8SSW (204°)9970910186024.8°C78.8%20.9°C2203ft (671m)12.59v17
379215 Apr 06:51:1855.6 mph7SW (217°)9970710185824.8°C78.9%20.9°C2194ft (669m)12.6v16
379115 Apr 06:51:0655.6 mph6SW (215°)9970810185924.8°C78.8%20.9°C2203ft (671m)12.58v16
379015 Apr 06:50:5577.4 mph8SSW (211°)9970810185924.9°C78.7%20.9°C2213ft (675m)12.6v16
378915 Apr 06:50:4455.9 mph8SW (222°)9970710185824.9°C78.8%21°C2204ft (672m)12.58v16
378815 Apr 06:50:3355.4 mph6SW (219°)9970510185624.9°C78.7%20.9°C2213ft (675m)12.59v16
378715 Apr 06:50:2155.8 mph7SSW (211°)9970610185724.9°C78.7%20.9°C2213ft (675m)12.59v15
378615 Apr 06:50:1056.1 mph7SW (214°)9970710185824.9°C78.8%21°C2204ft (672m)12.58v17
378515 Apr 06:49:5956.4 mph7SW (216°)9970510185624.9°C78.8%21°C2204ft (672m)12.58v17
378415 Apr 06:49:4855.5 mph6SW (217°)9970510185624.9°C78.8%21°C2204ft (672m)12.58v16
378315 Apr 06:49:3677.7 mph8SW (224°)9970410185524.8°C78.6%20.8°C2220ft (677m)12.58v18
378215 Apr 06:49:2555.1 mph6SW (219°)9970410185524.9°C78.6%20.9°C2221ft (677m)12.57v16
378115 Apr 06:49:1466.5 mph7SSW (213°)9970310185424.9°C78.4%20.9°C2238ft (682m)12.57v16
378015 Apr 06:49:0357.4 mph9SW (216°)9970410185524.9°C78.5%20.9°C2230ft (680m)12.58v16
377915 Apr 06:48:5166.9 mph8SSW (206°)9970210185324.9°C78.5%20.9°C2230ft (680m)12.58v17
377815 Apr 06:48:4078.8 mph10SW (224°)9970310185424.9°C78.4%20.9°C2238ft (682m)12.58v16
377715 Apr 06:48:2967.3 mph8SW (221°)9969710184724.9°C78.5%20.9°C2230ft (680m)12.59v19
377615 Apr 06:48:1866.3 mph7SW (220°)9970010185124.9°C78.5%20.9°C2230ft (680m)12.6v19
377515 Apr 06:48:0644.7 mph5SSW (211°)9970210185324.9°C78.6%20.9°C2221ft (677m)12.57v18
377415 Apr 06:47:5555.9 mph7SW (221°)9970010185124.9°C78.4%20.9°C2238ft (682m)12.58v16
377315 Apr 06:47:4466.4 mph7SW (216°)9969710184724.9°C78.5%20.9°C2230ft (680m)12.57v15
377215 Apr 06:47:3256.8 mph8SW (225°)9969910185024.9°C78.3%20.9°C2247ft (685m)12.59v16
377115 Apr 06:47:2155.7 mph7SW (217°)9969810184924.9°C78.3%20.9°C2247ft (685m)12.58v16
377015 Apr 06:47:1077.7 mph9SSW (204°)9969910185024.9°C78.2%20.8°C2255ft (687m)12.6v16
376915 Apr 06:46:5966.3 mph9SW (215°)9969610184624.9°C78.3%20.9°C2247ft (685m)12.6v16
376815 Apr 06:46:4777.6 mph9SW (236°)9969510184524.9°C78.1%20.8°C2264ft (690m)12.59v17
376715 Apr 06:46:3688.7 mph9SSW (213°)9969310184324.9°C78.1%20.8°C2264ft (690m)12.59v16
376615 Apr 06:46:251011.2 mph13SSW (205°)9969110184124.9°C77.8%20.8°C2289ft (698m)12.57v16
376515 Apr 06:46:14910.5 mph12SW (217°)9969110184124.9°C78.1%20.8°C2264ft (690m)12.58v16
376415 Apr 06:46:0277.8 mph9SSW (206°)9969510184524.9°C78.2%20.8°C2255ft (687m)12.59v16
376315 Apr 06:45:5177.3 mph8SSW (210°)9969410184424.9°C78.2%20.8°C2255ft (687m)12.6v17
376215 Apr 06:45:4078.3 mph9SSW (211°)9969310184324.9°C78.1%20.8°C2264ft (690m)12.6v16
376115 Apr 06:45:2966.5 mph8SSW (211°)9969410184424.9°C78.2%20.8°C2255ft (687m)12.58v16
376015 Apr 06:45:1866.8 mph8SW (214°)9969110184124.9°C78.1%20.8°C2264ft (690m)12.58v17
375915 Apr 06:45:0756.5 mph8SW (224°)9969110184124.9°C78.1%20.8°C2264ft (690m)12.58v16
375815 Apr 06:44:5655.9 mph7SW (215°)9969210184224.9°C78%20.8°C2272ft (693m)12.58v16
375715 Apr 06:44:4544.4 mph6SW (219°)9969310184324.9°C78%20.8°C2272ft (693m)12.58v15
375615 Apr 06:44:3345.9 mph8SW (220°)9969210184224.9°C77.9%20.8°C2281ft (695m)12.59v16
375515 Apr 06:44:2277.4 mph9SW (218°)9969010184025°C78%20.9°C2273ft (693m)12.58v15
375415 Apr 06:44:1188.1 mph9SW (214°)9969210184224.9°C77.9%20.8°C2281ft (695m)12.59v18
375315 Apr 06:44:0066.7 mph8SW (221°)9969010184024.9°C77.9%20.8°C2281ft (695m)12.6v18
375215 Apr 06:43:4866.7 mph7SW (224°)9969110184124.9°C77.8%20.8°C2289ft (698m)12.58v16
375115 Apr 06:43:3777.6 mph8SW (214°)9969110184124.9°C77.9%20.8°C2281ft (695m)12.58v17
375015 Apr 06:43:2666.1 mph7SSW (202°)9969210184224.9°C78%20.8°C2272ft (693m)12.57v16
374915 Apr 06:43:1555.9 mph7SSW (211°)9968810183824.9°C78%20.8°C2272ft (693m)12.57v16
374815 Apr 06:43:0356 mph7SW (228°)9968910183924.9°C77.9%20.8°C2281ft (695m)12.55v18
374715 Apr 06:42:5255.4 mph6SW (215°)9968810183824.9°C77.8%20.8°C2289ft (698m)12.58v18
374615 Apr 06:42:4145.1 mph7SW (217°)9968910183924.9°C77.8%20.8°C2289ft (698m)12.58v16
374515 Apr 06:42:3056.4 mph7SW (216°)9969010184024.9°C77.8%20.8°C2289ft (698m)12.59v19
374415 Apr 06:42:1866.1 mph7SW (221°)9968710183725°C77.8%20.9°C2291ft (698m)12.57v15
374315 Apr 06:42:0745.5 mph7SSW (208°)9968610183624.9°C77.9%20.8°C2281ft (695m)12.59v16
374215 Apr 06:41:5645.5 mph7SSW (204°)9968610183625°C77.7%20.8°C2299ft (701m)12.58v16
374115 Apr 06:41:4555.8 mph7SW (214°)9968710183725°C77.7%20.8°C2299ft (701m)12.57v17
374015 Apr 06:41:3377.5 mph8SW (215°)9968610183625°C77.6%20.8°C2308ft (703m)12.58v17
373915 Apr 06:41:2256 mph7SW (220°)9968510183525°C77.6%20.8°C2308ft (703m)12.59v17
373815 Apr 06:41:1166.4 mph7SSW (204°)9968810183825°C77.6%20.8°C2308ft (703m)12.58v20
373715 Apr 06:41:0056.4 mph8SW (217°)9968610183625°C77.6%20.8°C2308ft (703m)12.58v19
373615 Apr 06:40:4856.5 mph7SSW (208°)9968210183225°C77.6%20.8°C2308ft (703m)12.57v17
373515 Apr 06:40:3755.9 mph7SSW (212°)9968410183425°C77.5%20.8°C2316ft (706m)12.58v16
373415 Apr 06:40:2666.5 mph8SSW (199°)9968310183325°C77.5%20.8°C2316ft (706m)12.57v18
373315 Apr 06:40:1566.7 mph8SSW (209°)9968310183325°C77.4%20.8°C2325ft (709m)12.57v19
373215 Apr 06:40:0377.9 mph9SSW (199°)9968010183025°C77.5%20.8°C2316ft (706m)12.58v16
373115 Apr 06:39:5288.4 mph9SSW (205°)9968310183325°C77.5%20.8°C2316ft (706m)12.56v17
373015 Apr 06:39:4178.3 mph9SW (221°)9968510183525°C77.4%20.8°C2325ft (709m)12.58v19
372915 Apr 06:39:3078.3 mph11SSW (207°)9968210183225°C77.4%20.8°C2325ft (709m)12.58v16
372815 Apr 06:39:1889 mph11SSW (210°)9967710182725°C77.5%20.8°C2316ft (706m)12.58v15
372715 Apr 06:39:0667.5 mph9SW (214°)9967910182925°C77.5%20.8°C2316ft (706m)12.58v16
372615 Apr 06:38:5556 mph7SW (219°)9967810182825°C77.5%20.8°C2316ft (706m)12.57v18
372515 Apr 06:38:4467.2 mph9SSW (210°)9968010183025°C77.4%20.8°C2325ft (709m)12.57v18
372415 Apr 06:38:3378.2 mph9SSW (208°)9967710182725°C77.3%20.7°C2334ft (711m)12.56v18
372315 Apr 06:38:2167 mph8SW (223°)9967910182925°C77.3%20.7°C2334ft (711m)12.57v16
372215 Apr 06:38:1055.4 mph6SW (216°)9967910182925°C77.3%20.7°C2334ft (711m)12.59v16
372115 Apr 06:37:5956.3 mph7SW (221°)9967910182925°C77.3%20.7°C2334ft (711m)12.58v16
372015 Apr 06:37:4866.5 mph7SSW (211°)9967710182725°C77.3%20.7°C2334ft (711m)12.57v16
371915 Apr 06:37:3678.2 mph9SW (214°)9967710182725°C77.3%20.7°C2334ft (711m)12.57v16
371815 Apr 06:37:2556.3 mph7SSW (204°)9967110182125°C77.3%20.7°C2334ft (711m)12.57v16
371715 Apr 06:37:1466.1 mph7SSW (212°)9967710182725°C77.3%20.7°C2334ft (711m)12.56v17
371615 Apr 06:37:0378 mph9SSW (213°)9967510182525°C77.2%20.7°C2342ft (714m)12.57v16
371515 Apr 06:36:5167.4 mph9SSW (209°)9967210182225°C77.3%20.7°C2334ft (711m)12.57v16
371415 Apr 06:36:4067.2 mph8SW (215°)9967610182625°C77.2%20.7°C2342ft (714m)12.57v16
371315 Apr 06:36:2956.4 mph8SW (214°)9967410182425°C77.3%20.7°C2334ft (711m)12.58v16
371215 Apr 06:36:1877.5 mph8SSW (208°)9967510182525°C77.2%20.7°C2342ft (714m)12.56v16
371115 Apr 06:36:0778.3 mph11SSW (211°)9966810181825°C77.4%20.8°C2325ft (709m)12.58v16
371015 Apr 06:35:5677.1 mph8SSW (211°)9967510182525°C77.3%20.7°C2334ft (711m)12.56v15
370915 Apr 06:35:4567.7 mph9SW (217°)9967710182725°C77.3%20.7°C2334ft (711m)12.56v16
370815 Apr 06:35:3356.4 mph7SSW (211°)9967610182625°C77.3%20.7°C2334ft (711m)12.56v16
370715 Apr 06:35:2266.7 mph8SW (216°)9967110182125°C77.3%20.7°C2334ft (711m)12.57v16
370615 Apr 06:35:1166.9 mph8SW (216°)9967510182525°C77.3%20.7°C2334ft (711m)12.57v16
370515 Apr 06:35:0077.5 mph9SW (220°)9967210182225°C77.2%20.7°C2342ft (714m)12.57v17
370415 Apr 06:34:4888.7 mph9SSW (197°)9967310182325°C77.3%20.7°C2334ft (711m)12.57v16
370315 Apr 06:34:3788.9 mph10SSW (203°)9967210182225°C77.2%20.7°C2342ft (714m)12.59v16
370215 Apr 06:34:2688.1 mph9SSW (206°)9967310182325°C77.2%20.7°C2342ft (714m)12.56v20
370115 Apr 06:34:1556.8 mph8SW (219°)9967510182525°C77.3%20.7°C2334ft (711m)12.56v16
370015 Apr 06:34:0366.9 mph8SSW (198°)9967310182325°C77.4%20.8°C2325ft (709m)12.56v16
369915 Apr 06:33:5255.8 mph7SW (215°)9967110182125°C77.3%20.7°C2334ft (711m)12.56v16
369815 Apr 06:33:4156.1 mph8SW (215°)9967210182225°C77.4%20.8°C2325ft (709m)12.57v16
369715 Apr 06:33:3067 mph8SSW (208°)9966710181725°C77.2%20.7°C2342ft (714m)12.58v17
369615 Apr 06:33:1877.6 mph8SSW (200°)9967010182025°C77.2%20.7°C2342ft (714m)12.57v16
369515 Apr 06:33:0756.3 mph7SSW (209°)9967210182225°C77.2%20.7°C2342ft (714m)12.56v18
369415 Apr 06:32:5689.1 mph10SW (215°)9967010182025°C77.1%20.7°C2351ft (717m)12.56v16
369315 Apr 06:32:4488.8 mph10SSW (207°)9966810181825°C77.1%20.7°C2351ft (717m)12.55v16
369215 Apr 06:32:33710 mph12SSW (209°)9966710181725°C77%20.7°C2359ft (719m)12.56v17
369115 Apr 06:32:221010 mph10SSW (205°)9966810181825°C77%20.7°C2359ft (719m)12.55v17
369015 Apr 06:32:1177.8 mph9SSW (212°)9966210181225°C77.1%20.7°C2351ft (717m)12.57v17
368915 Apr 06:31:5989.5 mph12SSW (213°)9966610181625°C77.1%20.7°C2351ft (717m)12.56v17
368815 Apr 06:31:4888.1 mph9SW (215°)9966610181625°C77.1%20.7°C2351ft (717m)12.56v17
368715 Apr 06:31:3768.3 mph10SSW (211°)9966610181625°C77.1%20.7°C2351ft (717m)12.56v16
368615 Apr 06:31:2667.3 mph9SSW (208°)9966410181425°C77.2%20.7°C2342ft (714m)12.57v18
368515 Apr 06:31:1466.9 mph8SW (217°)9966510181525°C77.1%20.7°C2351ft (717m)12.55v19
368415 Apr 06:31:0368 mph10SSW (213°)9966310181325°C77.2%20.7°C2342ft (714m)12.55v17
368315 Apr 06:30:5289.2 mph11SSW (207°)9966210181225°C77%20.7°C2359ft (719m)12.57v19
368215 Apr 06:30:4188.6 mph10SW (215°)9966210181225°C76.9%20.7°C2368ft (722m)12.56v18
368115 Apr 06:30:2999.4 mph11SSW (212°)9965910180925°C77.1%20.7°C2351ft (717m)12.57v16
368015 Apr 06:30:1888.4 mph10SW (220°)9966310181325°C77.1%20.7°C2351ft (717m)12.57v17
367915 Apr 06:30:0678.5 mph10SSW (212°)9966210181225°C77.2%20.7°C2342ft (714m)12.56v16
367815 Apr 06:29:5577.4 mph8SSW (204°)9966310181325°C77.2%20.7°C2342ft (714m)12.56v19
367715 Apr 06:29:4477.4 mph8SW (216°)9966310181325°C77.2%20.7°C2342ft (714m)12.56v16
367615 Apr 06:29:33710.3 mph12SSW (206°)9966010181025°C77.2%20.7°C2342ft (714m)12.55v16
367515 Apr 06:29:2177.2 mph8SSW (213°)9966310181325°C77.2%20.7°C2342ft (714m)12.56v16
367415 Apr 06:29:1088.5 mph10SSW (209°)9966310181325°C77%20.7°C2359ft (719m)12.56v18
367315 Apr 06:28:5978.1 mph10SSW (209°)9966110181125°C77.1%20.7°C2351ft (717m)12.57v16
367215 Apr 06:28:4888.8 mph11SSW (211°)9966010181025°C77%20.7°C2359ft (719m)12.57v17
367115 Apr 06:28:3688.6 mph10SW (215°)9965910180925°C77%20.7°C2359ft (719m)12.59v18
367015 Apr 06:28:2588.8 mph10SSW (209°)9965910180925°C77%20.7°C2359ft (719m)12.56v17
366915 Apr 06:28:14810.7 mph13SSW (198°)9965910180925°C77%20.7°C2359ft (719m)12.56v16
366815 Apr 06:28:03810.4 mph14SW (218°)9965710180725°C77%20.7°C2359ft (719m)12.57v16
366715 Apr 06:27:51910.5 mph13SSW (203°)9965710180725°C77.1%20.7°C2351ft (717m)12.56v15
366615 Apr 06:27:4077.7 mph9SW (218°)9965610180625°C77.2%20.7°C2342ft (714m)12.56v19
366515 Apr 06:27:2967.9 mph10SSW (209°)9965510180525°C77.2%20.7°C2342ft (714m)12.57v16
366415 Apr 06:27:1899.6 mph11SSW (211°)9965910180925°C77.1%20.7°C2351ft (717m)12.55v18
366315 Apr 06:27:0688.7 mph10SW (218°)9965310180325°C77.1%20.7°C2351ft (717m)12.55v16
366215 Apr 06:26:551010.6 mph12SSW (193°)9965510180525°C77%20.7°C2359ft (719m)12.56v16
366115 Apr 06:26:4468.1 mph10SSW (196°)9965210180225°C77%20.7°C2359ft (719m)12.55v17
366015 Apr 06:26:3389.9 mph12SSW (197°)9965410180425°C77%20.7°C2359ft (719m)12.56v17
365915 Apr 06:26:2188.7 mph10SSW (199°)9965410180425°C77%20.7°C2359ft (719m)12.54v16
365815 Apr 06:26:10109.8 mph12SSW (206°)9965810180825°C76.9%20.7°C2368ft (722m)12.56v18
365715 Apr 06:25:5977.4 mph10SW (219°)9965310180325°C77%20.7°C2359ft (719m)12.56v16
365615 Apr 06:25:481010.9 mph12SSW (212°)9965310180325°C77%20.7°C2359ft (719m)12.56v16
365515 Apr 06:25:3656.3 mph9SW (214°)9965610180625°C77.2%20.7°C2342ft (714m)12.56v17
365415 Apr 06:25:2566.8 mph9SW (224°)9965210180225°C77.1%20.7°C2351ft (717m)12.57v18
365315 Apr 06:25:1468 mph9SSW (213°)9965410180425°C77.1%20.7°C2351ft (717m)12.56v16
365215 Apr 06:25:0389.9 mph12SW (216°)9964910179825°C77.2%20.7°C2342ft (714m)12.56v17
365115 Apr 06:24:51810.3 mph13SSW (201°)9964910179825°C77%20.7°C2359ft (719m)12.57v16
365015 Apr 06:24:4078.3 mph9SSW (202°)9965210180225°C77.1%20.7°C2351ft (717m)12.56v16
364915 Apr 06:24:2977.5 mph9SSW (203°)9965110180025°C77.1%20.7°C2351ft (717m)12.56v16
364815 Apr 06:24:1889.5 mph11SSW (204°)9965110180025°C77%20.7°C2359ft (719m)12.58v15
364715 Apr 06:24:06710.9 mph14SSW (198°)9964710179625°C77%20.7°C2359ft (719m)12.56v16
364615 Apr 06:23:5579.4 mph12SSW (204°)9965110180025°C77%20.7°C2359ft (719m)12.59v16
364515 Apr 06:23:4489.1 mph10SSW (206°)9965410180425°C77%20.7°C2359ft (719m)12.58v15
364415 Apr 06:23:3389.8 mph12SSW (205°)9965510180525°C77.1%20.7°C2351ft (717m)12.57v16
364315 Apr 06:23:2168.5 mph12SSW (193°)9965010179925°C77.1%20.7°C2351ft (717m)12.57v16
364215 Apr 06:23:1088.2 mph9SSW (203°)9964710179625°C77.1%20.7°C2351ft (717m)12.57v18
364115 Apr 06:22:5967.4 mph10SSW (202°)9964610179525°C77.1%20.7°C2351ft (717m)12.57v18
364015 Apr 06:22:4878.1 mph10SW (214°)9964610179525°C77%20.7°C2359ft (719m)12.59v16
363915 Apr 06:22:3678.8 mph11SSW (208°)9964910179825°C77%20.7°C2359ft (719m)12.57v16
363815 Apr 06:22:2599.4 mph11SSW (206°)9964710179625°C76.9%20.7°C2368ft (722m)12.58v16
363715 Apr 06:22:1477.3 mph8SSW (212°)9964810179725°C77%20.7°C2359ft (719m)12.57v16
363615 Apr 06:22:0388.8 mph10SSW (207°)9965010179925°C77%20.7°C2359ft (719m)12.59v16
363515 Apr 06:21:5188.9 mph11SSW (205°)9964710179625°C76.9%20.7°C2368ft (722m)12.56v16
363415 Apr 06:21:40910.8 mph13SSW (203°)9964810179725°C76.7%20.6°C2385ft (727m)12.56v15
363315 Apr 06:21:2988.4 mph10SSW (207°)9964710179625°C76.9%20.7°C2368ft (722m)12.58v16
363215 Apr 06:21:1888.5 mph10SSW (204°)9965010179925°C76.8%20.6°C2377ft (725m)12.59v16
363115 Apr 06:21:0768.5 mph10SSW (198°)9965310180325°C76.9%20.7°C2368ft (722m)12.57v17
363015 Apr 06:20:5657.3 mph10SSW (209°)9964910179825°C76.9%20.7°C2368ft (722m)12.57v17
362915 Apr 06:20:4578.1 mph10SSW (207°)9964310179225°C76.9%20.7°C2368ft (722m)12.57v15
362815 Apr 06:20:3356.9 mph9SSW (206°)9965010179925°C77%20.7°C2359ft (719m)12.58v16
362715 Apr 06:20:2289.9 mph13S (191°)9964810179725°C76.9%20.7°C2368ft (722m)12.58v18
362615 Apr 06:20:1168.6 mph12SSW (203°)9964810179725°C77%20.7°C2359ft (719m)12.57v15
362515 Apr 06:20:0088.6 mph10S (190°)9964810179725°C77%20.7°C2359ft (719m)12.58v17
362415 Apr 06:19:4877.5 mph9SSW (205°)9964410179325°C77%20.7°C2359ft (719m)12.59v16
362315 Apr 06:19:3789.1 mph11SSW (212°)9964410179325°C76.9%20.7°C2368ft (722m)12.57v17
362215 Apr 06:19:2688 mph9SSW (207°)9964610179525°C77%20.7°C2359ft (719m)12.59v17
362115 Apr 06:19:1578.1 mph9SSW (211°)9964410179325°C77.1%20.7°C2351ft (717m)12.57v18
362015 Apr 06:19:0389.2 mph11SSW (201°)9964210179125°C77%20.7°C2359ft (719m)12.57v16
361915 Apr 06:18:5266.6 mph10SSW (196°)9964110179025°C77%20.7°C2359ft (719m)12.57v16
361815 Apr 06:18:4177.5 mph9S (186°)9964410179325°C77%20.7°C2359ft (719m)12.56v18
361715 Apr 06:18:3067.5 mph9SSW (211°)9964310179225°C76.9%20.7°C2368ft (722m)12.58v16
361615 Apr 06:18:1867.3 mph9SSW (205°)9964210179125°C76.9%20.7°C2368ft (722m)12.57v16
361515 Apr 06:18:0789.5 mph12SSW (203°)9964210179125°C76.9%20.7°C2368ft (722m)12.58v16
361415 Apr 06:17:5599.5 mph10SSW (198°)9964010178925°C76.9%20.7°C2368ft (722m)12.58v15
361315 Apr 06:17:44910 mph12SSW (205°)9963910178825°C76.9%20.7°C2368ft (722m)12.59v16
361215 Apr 06:17:3377.7 mph9SSW (198°)9963710178625°C76.9%20.7°C2368ft (722m)12.58v16
361115 Apr 06:17:2277.4 mph8SSW (205°)9964110179025°C76.9%20.7°C2368ft (722m)12.57v18
361015 Apr 06:17:1088.5 mph10SW (219°)9963810178725°C76.8%20.6°C2377ft (725m)12.57v15
360915 Apr 06:16:5967.2 mph10SW (215°)9963610178525°C76.8%20.6°C2377ft (725m)12.57v16
360815 Apr 06:16:4888.7 mph10SSW (207°)9963710178625°C76.9%20.7°C2368ft (722m)12.58v16
360715 Apr 06:16:3768.3 mph9SSW (201°)9963510178425°C76.9%20.7°C2368ft (722m)12.57v16
360615 Apr 06:16:2589.7 mph11SSW (197°)9963810178725°C76.8%20.6°C2377ft (725m)12.57v18
360515 Apr 06:16:1478.3 mph9SW (214°)9964010178925°C76.7%20.6°C2385ft (727m)12.58v16
360415 Apr 06:16:0378.4 mph9SSW (211°)9963510178425°C76.7%20.6°C2385ft (727m)12.59v18
360315 Apr 06:15:5268.2 mph9SSW (198°)9963710178625°C76.8%20.6°C2377ft (725m)12.57v15
360215 Apr 06:15:40910 mph11SW (216°)9963510178425°C76.8%20.6°C2377ft (725m)12.58v16
360115 Apr 06:15:2978.2 mph10SSW (212°)9963910178825°C76.9%20.7°C2368ft (722m)12.57v18
360015 Apr 06:15:1855.5 mph6SSW (211°)9963610178525°C76.8%20.6°C2377ft (725m)12.56v17
359915 Apr 06:15:0766.4 mph7SW (217°)9964010178925°C76.8%20.6°C2377ft (725m)12.58v16
359815 Apr 06:14:5578.2 mph10SSW (205°)9963810178725°C76.7%20.6°C2385ft (727m)12.57v16
359715 Apr 06:14:4488.9 mph10SSW (206°)9963810178725°C76.6%20.6°C2394ft (730m)12.58v16
359615 Apr 06:14:3389.8 mph12SSW (198°)9963710178625°C76.6%20.6°C2394ft (730m)12.58v15
359515 Apr 06:14:2289.9 mph12SSW (206°)9963610178525°C76.5%20.6°C2403ft (732m)12.58v15
359415 Apr 06:14:1077.4 mph9SSW (200°)9963810178725°C76.6%20.6°C2394ft (730m)12.57v18
359315 Apr 06:13:5989 mph10SW (214°)9963310178225°C76.7%20.6°C2385ft (727m)12.56v15
359215 Apr 06:13:4888.7 mph10SSW (194°)9963510178425°C76.5%20.6°C2403ft (732m)12.56v17
359115 Apr 06:13:3788.7 mph9SW (216°)9963610178525°C76.7%20.6°C2385ft (727m)12.59v16
359015 Apr 06:13:2556.4 mph9SSW (198°)9963710178625.1°C76.7%20.7°C2387ft (728m)12.58v16
358915 Apr 06:13:1478.6 mph10SSW (202°)9963310178225.1°C76.5%20.7°C2404ft (733m)12.58v17
358815 Apr 06:13:0399.9 mph12SSW (194°)9963510178425.1°C76.5%20.7°C2404ft (733m)12.58v17
358715 Apr 06:12:5299.7 mph11SSW (212°)9963510178425.1°C76.4%20.7°C2413ft (735m)12.58v16
358615 Apr 06:12:4088.3 mph9S (188°)9963210178125.1°C76.4%20.7°C2413ft (735m)12.57v16
358515 Apr 06:12:2967.5 mph9SSW (203°)9963810178725.1°C76.5%20.7°C2404ft (733m)12.57v16
358415 Apr 06:12:1855.3 mph6SW (214°)9963310178225.1°C76.6%20.7°C2396ft (730m)12.56v15
358315 Apr 06:12:0766.8 mph9SSW (208°)9963310178225.1°C76.6%20.7°C2396ft (730m)12.58v15
358215 Apr 06:11:5578.7 mph11SSW (201°)9963410178325.1°C76.4%20.7°C2413ft (735m)12.57v16
358115 Apr 06:11:4489.6 mph11SSW (198°)9963410178325.1°C76.3%20.6°C2422ft (738m)12.57v15
358015 Apr 06:11:3355.3 mph6SSW (207°)9963410178325.1°C76.5%20.7°C2404ft (733m)12.58v17
357915 Apr 06:11:2256 mph7SSW (213°)9963410178325.1°C76.4%20.7°C2413ft (735m)12.57v17
357815 Apr 06:11:1066.2 mph7SW (217°)9963310178225.1°C76.4%20.7°C2413ft (735m)12.58v17
357715 Apr 06:10:5977.9 mph9SW (216°)9963210178125.1°C76.3%20.6°C2422ft (738m)12.56v16
357615 Apr 06:10:4857 mph8SSW (207°)9962810177725.1°C76.3%20.6°C2422ft (738m)12.57v16
357515 Apr 06:10:3756.1 mph9SSW (212°)9963210178125.1°C76.2%20.6°C2430ft (741m)12.57v16
357415 Apr 06:10:2577.3 mph9SSW (207°)9963010177925.1°C76.2%20.6°C2430ft (741m)12.57v16
357315 Apr 06:10:1467.8 mph10SSW (192°)9963010177925.1°C76.1%20.6°C2439ft (743m)12.57v16
357215 Apr 06:10:0367.5 mph9SSW (205°)9963210178125.1°C76.1%20.6°C2439ft (743m)12.57v18
357115 Apr 06:09:5277.7 mph9SSW (203°)9963210178125.1°C76.1%20.6°C2439ft (743m)12.58v16
357015 Apr 06:09:4056.6 mph9SW (215°)9963310178225.1°C76.1%20.6°C2439ft (743m)12.57v17
356915 Apr 06:09:2988.9 mph10SSW (201°)9962910177825.1°C76%20.6°C2448ft (746m)12.58v15
356815 Apr 06:09:1867.1 mph10SSW (211°)9962510177425.1°C76.2%20.6°C2430ft (741m)12.57v16
356715 Apr 06:09:0688.3 mph9SSW (209°)9962810177725.1°C76.1%20.6°C2439ft (743m)12.58v15
356615 Apr 06:08:5577.6 mph9SSW (200°)9962810177725.1°C76.1%20.6°C2439ft (743m)12.59v18
356515 Apr 06:08:4478.6 mph10SSW (200°)9962810177725.1°C76%20.6°C2448ft (746m)12.58v15
356415 Apr 06:08:3356.4 mph8SSW (205°)9962910177825.1°C76.1%20.6°C2439ft (743m)12.57v15
356315 Apr 06:08:2155.8 mph6SW (216°)9962810177725.1°C76.1%20.6°C2439ft (743m)12.57v15
356215 Apr 06:08:1066.6 mph8SSW (210°)9962710177625.1°C76.1%20.6°C2439ft (743m)12.59v18
356115 Apr 06:07:5988.9 mph10SSW (200°)9962910177825.1°C76.1%20.6°C2439ft (743m)12.56v16
356015 Apr 06:07:48810.2 mph12SSW (199°)9962710177625.1°C76%20.6°C2448ft (746m)12.56v15
355915 Apr 06:07:3677.4 mph9SSW (203°)9962710177625.1°C76.2%20.6°C2430ft (741m)12.58v18
355815 Apr 06:07:2588.8 mph11SSW (206°)9962710177625.1°C76.1%20.6°C2439ft (743m)12.59v17
355715 Apr 06:07:1489.9 mph12SSW (203°)9962310177225.1°C76.2%20.6°C2430ft (741m)12.59v15
355615 Apr 06:07:0388.8 mph10SSW (197°)9962610177525.1°C76.1%20.6°C2439ft (743m)12.55v15
355515 Apr 06:06:5178.7 mph11SW (216°)9962510177425.1°C76.2%20.6°C2430ft (741m)12.58v15
355415 Apr 06:06:4078.5 mph10SW (216°)9962210177125.1°C76.1%20.6°C2439ft (743m)12.57v15
355315 Apr 06:06:2966.9 mph9SW (216°)9962010176925.1°C76.3%20.6°C2422ft (738m)12.57v15
355215 Apr 06:06:1878.3 mph11SW (214°)9962410177325.1°C76.3%20.6°C2422ft (738m)12.58v15
355115 Apr 06:06:07810.4 mph12SSW (194°)9962310177225.1°C76.2%20.6°C2430ft (741m)12.58v15
355015 Apr 06:05:5567 mph8SSW (211°)9962410177325.1°C76.2%20.6°C2430ft (741m)12.59v16
354915 Apr 06:05:4488.4 mph10SSW (205°)9962110177025.1°C76.3%20.6°C2422ft (738m)12.59v15
354815 Apr 06:05:3367.7 mph9SSW (197°)9962110177025.1°C76.3%20.6°C2422ft (738m)12.57v17
354715 Apr 06:05:2278 mph11SSW (199°)9962310177225.1°C76.3%20.6°C2422ft (738m)12.58v16
354615 Apr 06:05:1089 mph11SSW (199°)9962110177025.1°C76.2%20.6°C2430ft (741m)12.59v16
354515 Apr 06:04:5968.1 mph10SSW (202°)9961810176725.1°C76.2%20.6°C2430ft (741m)12.57v15
354415 Apr 06:04:4889.5 mph11SSW (199°)9961510176425.1°C76.2%20.6°C2430ft (741m)12.58v16
354315 Apr 06:04:37710.2 mph14SSW (211°)9961810176725.1°C76.3%20.6°C2422ft (738m)12.58v16
354215 Apr 06:04:25810.5 mph14SSW (213°)9961410176325.1°C76.3%20.6°C2422ft (738m)12.58v16
354115 Apr 06:04:1466.3 mph7SW (215°)9961610176525.1°C76.5%20.7°C2404ft (733m)12.58v15
354015 Apr 06:04:0377.5 mph9SSW (212°)9961510176425.1°C76.3%20.6°C2422ft (738m)12.59v16
353915 Apr 06:03:5288.8 mph10SSW (206°)9961610176525°C76.3%20.5°C2420ft (738m)12.58v16
353815 Apr 06:03:4088.1 mph9SSW (207°)9961610176525°C76.4%20.6°C2412ft (735m)12.58v15
353715 Apr 06:03:2999.1 mph10SSW (192°)9961410176325°C76.5%20.6°C2403ft (732m)12.57v15
353615 Apr 06:03:18910.1 mph12SSW (212°)9961610176525°C76.4%20.6°C2412ft (735m)12.57v17
353515 Apr 06:03:07910.1 mph11SSW (204°)9961310176225°C76.4%20.6°C2412ft (735m)12.57v15
353415 Apr 06:02:561112.4 mph14SSW (200°)9961110176025°C76.4%20.6°C2412ft (735m)12.59v18
353315 Apr 06:02:4599.4 mph10SSW (198°)9960910175825°C76.3%20.5°C2420ft (738m)12.58v15
353215 Apr 06:02:3389.7 mph11SSW (209°)9960910175825°C76.4%20.6°C2412ft (735m)12.59v16
353115 Apr 06:02:2267.3 mph8SSW (212°)9961010175925°C76.5%20.6°C2403ft (732m)12.58v15
353015 Apr 06:02:1178.5 mph10SSW (192°)9960810175725°C76.4%20.6°C2412ft (735m)12.58v15
352915 Apr 06:02:0089.5 mph12SSW (206°)9960810175725°C76.3%20.5°C2420ft (738m)12.58v15
352815 Apr 06:01:4878.5 mph10SSW (194°)9960510175325.1°C76.4%20.7°C2413ft (735m)12.58v16
352715 Apr 06:01:3756.9 mph9SSW (209°)9961010175925°C76.5%20.6°C2403ft (732m)12.58v17
352615 Apr 06:01:2655.8 mph6SSW (209°)9960910175825°C76.5%20.6°C2403ft (732m)12.58v16
352515 Apr 06:01:1578.1 mph9SW (219°)9960810175725°C76.4%20.6°C2412ft (735m)12.58v16
352415 Apr 06:01:0388.3 mph9SSW (212°)9960510175325°C76.4%20.6°C2412ft (735m)12.58v16
352315 Apr 06:00:5278.1 mph10SSW (208°)9960510175325°C76.5%20.6°C2403ft (732m)12.59v18
352215 Apr 06:00:4199.6 mph11SSW (211°)9960510175325°C76.5%20.6°C2403ft (732m)12.58v17
352115 Apr 06:00:3079.1 mph11SSW (207°)9960810175725°C76.4%20.6°C2412ft (735m)12.57v16
352015 Apr 06:00:1888.9 mph11SSW (202°)9960310175125°C76.6%20.6°C2394ft (730m)12.57v16
351915 Apr 06:00:0677.6 mph9SSW (213°)9960110174925°C76.6%20.6°C2394ft (730m)12.58v16
351815 Apr 05:59:5567.7 mph9SSW (211°)9960310175125°C76.6%20.6°C2394ft (730m)12.59v16
351715 Apr 05:59:4477.5 mph8SSW (212°)9960510175325°C76.6%20.6°C2394ft (730m)12.58v15
351615 Apr 05:59:3377.9 mph10SSW (212°)9960410175224.9°C76.7%20.5°C2384ft (727m)12.59v15
351515 Apr 05:59:2167.5 mph9SSW (201°)9960410175225°C76.8%20.6°C2377ft (725m)12.58v16
351415 Apr 05:59:1067.7 mph9SSW (205°)9960310175124.9°C76.7%20.5°C2384ft (727m)12.58v15
351315 Apr 05:58:5979.5 mph12SW (216°)9960210175024.9°C76.7%20.5°C2384ft (727m)12.58v15
351215 Apr 05:58:4879.5 mph12SSW (202°)9960210175024.9°C76.6%20.5°C2393ft (729m)12.57v18
351115 Apr 05:58:3678.2 mph11SW (216°)9960310175125°C76.7%20.6°C2385ft (727m)12.57v16
351015 Apr 05:58:2566.8 mph8SSW (209°)9960310175124.9°C76.7%20.5°C2384ft (727m)12.59v15
350915 Apr 05:58:1478.9 mph11SSW (209°)9960310175124.9°C76.8%20.5°C2375ft (724m)12.58v17
350815 Apr 05:58:0378.5 mph9SSW (201°)9960010174824.9°C76.9%20.6°C2367ft (721m)12.59v16
350715 Apr 05:57:5178.5 mph11SSW (204°)9960310175124.9°C76.8%20.5°C2375ft (724m)12.59v15
350615 Apr 05:57:4067.8 mph9SW (214°)9960510175324.9°C77%20.6°C2358ft (719m)12.58v19
350515 Apr 05:57:2968.3 mph11SSW (201°)9960210175024.8°C77.1%20.5°C2348ft (716m)12.58v15
350415 Apr 05:57:1878 mph10SSW (203°)9960210175024.8°C77%20.5°C2357ft (718m)12.57v17
350315 Apr 05:57:071111 mph12SSW (203°)9960010174824.8°C77.1%20.5°C2348ft (716m)12.58v15
350215 Apr 05:56:561010.7 mph12SSW (198°)9959710174524.8°C77.1%20.5°C2348ft (716m)12.56v15
350115 Apr 05:56:45910.7 mph12SSW (203°)9959910174724.8°C77.1%20.5°C2348ft (716m)12.59v15
350015 Apr 05:56:331111 mph12SSW (201°)9960010174824.8°C77.1%20.5°C2348ft (716m)12.59v16
349915 Apr 05:56:2289.2 mph12SSW (206°)9960010174824.8°C77.1%20.5°C2348ft (716m)12.58v16
349815 Apr 05:56:11910.6 mph13SSW (212°)9959910174724.8°C77.1%20.5°C2348ft (716m)12.59v16
349715 Apr 05:56:0089.2 mph11SSW (205°)9959410174224.8°C77.1%20.5°C2348ft (716m)12.59v16
349615 Apr 05:55:4868.9 mph11SSW (203°)9960010174824.8°C77.2%20.5°C2340ft (713m)12.58v16
349515 Apr 05:55:3789.2 mph11SSW (201°)9959710174524.8°C77.1%20.5°C2348ft (716m)12.58v16
349415 Apr 05:55:261213.3 mph15SSW (207°)9959710174524.8°C77.1%20.5°C2348ft (716m)12.58v17
349315 Apr 05:55:151011.5 mph13S (190°)9958810173624.8°C77%20.5°C2357ft (718m)12.58v15
349215 Apr 05:55:0389 mph10SSW (198°)9959910174724.8°C77.1%20.5°C2348ft (716m)12.59v16
349115 Apr 05:54:5278.5 mph10SSW (204°)9960010174824.8°C77.1%20.5°C2348ft (716m)12.59v16
349015 Apr 05:54:4188.4 mph10SSW (203°)9959710174524.8°C77.1%20.5°C2348ft (716m)12.59v16
348915 Apr 05:54:3089.4 mph12SSW (213°)9959810174624.8°C77.1%20.5°C2348ft (716m)12.58v16
348815 Apr 05:54:1888.9 mph10SSW (205°)9959410174224.8°C77.3%20.6°C2331ft (710m)12.59v31
348715 Apr 05:54:0778.3 mph10SSW (202°)9959810174624.8°C77.2%20.5°C2340ft (713m)12.59v31
348615 Apr 05:53:5589.5 mph11SSW (193°)9959710174524.8°C77.3%20.6°C2331ft (710m)12.58v31
348515 Apr 05:53:4477.8 mph9SW (215°)9960010174824.8°C77.4%20.6°C2322ft (708m)12.6v31
348415 Apr 05:53:3399.6 mph11SSW (201°)9959710174524.8°C77.4%20.6°C2322ft (708m)12.59v31
348315 Apr 05:53:221012.2 mph14S (188°)9960110174924.8°C77.3%20.6°C2331ft (710m)12.6v31
348215 Apr 05:53:101111.1 mph12S (189°)9959110173924.8°C77.3%20.6°C2331ft (710m)12.59v31
348115 Apr 05:52:59910.8 mph14SSW (195°)9959710174524.8°C77.2%20.5°C2340ft (713m)12.58v31
348015 Apr 05:52:4878.7 mph10SSW (211°)9959610174424.8°C77.3%20.6°C2331ft (710m)12.58v31
347915 Apr 05:52:37810.8 mph15SSW (198°)9959210174024.7°C77.3%20.5°C2330ft (710m)12.58v31
347815 Apr 05:52:2588.4 mph9SSW (213°)9959410174224.7°C77.4%20.5°C2321ft (707m)12.58v31
347715 Apr 05:52:14910.7 mph12SSW (200°)9959310174124.7°C77.4%20.5°C2321ft (707m)12.58v31
347615 Apr 05:52:0378.6 mph12SSW (208°)9959810174624.7°C77.5%20.5°C2312ft (705m)12.6v31
347515 Apr 05:51:521111.7 mph13SSW (203°)9959110173924.7°C77.5%20.5°C2312ft (705m)12.59v31
347415 Apr 05:51:4089.5 mph11SSW (192°)9959210174024.7°C77.4%20.5°C2321ft (707m)12.59v31
347315 Apr 05:51:291112.8 mph17SSW (207°)9959710174524.7°C77.4%20.5°C2321ft (707m)12.59v31
347215 Apr 05:51:181112.5 mph14S (191°)9959510174324.7°C77.4%20.5°C2321ft (707m)12.59v31
347115 Apr 05:51:071011.2 mph13SSW (209°)9959510174324.7°C77.5%20.5°C2312ft (705m)12.59v31
347015 Apr 05:50:551012.1 mph14SSW (202°)9959210174024.7°C77.5%20.5°C2312ft (705m)12.58v31
346915 Apr 05:50:44911.6 mph13SSW (195°)9959310174124.7°C77.4%20.5°C2321ft (707m)12.58v31
346815 Apr 05:50:3378.1 mph10S (190°)9959210174024.7°C77.6%20.5°C2304ft (702m)12.61v31
346715 Apr 05:50:221013.2 mph16SSW (205°)9959610174424.7°C77.4%20.5°C2321ft (707m)12.6v31
346615 Apr 05:50:101111.8 mph13SSW (211°)9958810173624.7°C77.4%20.5°C2321ft (707m)12.6v31
346515 Apr 05:49:591112.7 mph15SSW (208°)9959510174324.7°C77.4%20.5°C2321ft (707m)12.6v31
346415 Apr 05:49:481011.4 mph14SSW (204°)9959610174424.7°C77.3%20.5°C2330ft (710m)12.59v31
346315 Apr 05:49:371314 mph16S (184°)9959310174124.7°C77.3%20.5°C2330ft (710m)12.59v31
346215 Apr 05:49:251011.2 mph13SSW (197°)9958710173524.8°C77.2%20.5°C2340ft (713m)12.58v31
346115 Apr 05:49:14810.4 mph12SSW (205°)9959310174124.8°C77.2%20.5°C2340ft (713m)12.58v31
346015 Apr 05:49:0388.7 mph10SSW (211°)9959410174224.8°C77.3%20.6°C2331ft (710m)12.61v31
345915 Apr 05:48:5277.8 mph9SSW (204°)9959610174424.7°C77.4%20.5°C2321ft (707m)12.6v31
345815 Apr 05:48:40710.2 mph14SSW (212°)9959310174124.7°C77.4%20.5°C2321ft (707m)12.59v31
345715 Apr 05:48:2989.4 mph12SSW (207°)9958910173724.7°C77.5%20.5°C2312ft (705m)12.59v31
345615 Apr 05:48:1879.9 mph14SSW (204°)9959610174424.7°C77.3%20.5°C2330ft (710m)12.58v31
345515 Apr 05:48:0779.4 mph13SW (216°)9958710173524.8°C77.2%20.5°C2340ft (713m)12.57v31
345415 Apr 05:47:5589.1 mph10SSW (202°)9959310174124.8°C77.1%20.5°C2348ft (716m)12.58v31
345315 Apr 05:47:4489.9 mph12SSW (212°)9959410174224.8°C77.1%20.5°C2348ft (716m)12.58v31
345215 Apr 05:47:331010 mph12SSW (205°)9959110173924.8°C77.1%20.5°C2348ft (716m)12.61v31
345115 Apr 05:47:22910.2 mph12SSW (208°)9959010173824.8°C77.1%20.5°C2348ft (716m)12.61v31
345015 Apr 05:47:101011.6 mph14SSW (194°)9958710173524.8°C77.1%20.5°C2348ft (716m)12.59v31
344915 Apr 05:46:5989.3 mph11SSW (204°)9959510174324.8°C77.1%20.5°C2348ft (716m)12.59v31
344815 Apr 05:46:4889.2 mph12SSW (210°)9959310174124.8°C77.2%20.5°C2340ft (713m)12.59v31
344715 Apr 05:46:37810.1 mph12SSW (207°)9958810173624.8°C77.1%20.5°C2348ft (716m)12.59v31
344615 Apr 05:46:2589.7 mph12SSW (203°)9958710173524.8°C77%20.5°C2357ft (718m)12.57v31
344515 Apr 05:46:1478.3 mph9SSW (213°)9959410174224.8°C77.2%20.5°C2340ft (713m)12.57v31
344415 Apr 05:46:0367.5 mph10SSW (198°)9959110173924.8°C77.2%20.5°C2340ft (713m)12.59v31
344315 Apr 05:45:5289.7 mph11SSW (206°)9959310174124.8°C77.1%20.5°C2348ft (716m)12.6v31
344215 Apr 05:45:4066.8 mph8SSW (209°)9959610174424.8°C77.2%20.5°C2340ft (713m)12.59v31
344115 Apr 05:45:2977.8 mph9SSW (210°)9959110173924.8°C77.2%20.5°C2340ft (713m)12.59v31
344015 Apr 05:45:1888.6 mph10SSW (196°)9959110173924.8°C77%20.5°C2357ft (718m)12.59v31
343915 Apr 05:45:0788.9 mph10SSW (196°)9959010173824.8°C77.1%20.5°C2348ft (716m)12.58v31
343815 Apr 05:44:5589.2 mph10SSW (205°)9958810173624.8°C77.1%20.5°C2348ft (716m)12.59v31
343715 Apr 05:44:44910.2 mph11SSW (196°)9958910173724.8°C77.1%20.5°C2348ft (716m)12.59v31
343615 Apr 05:44:3368.8 mph11SSW (204°)9958610173424.8°C77.1%20.5°C2348ft (716m)12.58v31
343515 Apr 05:44:2266.3 mph8SSW (198°)9958810173624.8°C77.2%20.5°C2340ft (713m)12.59v31
343415 Apr 05:44:1067 mph9SSW (206°)9958610173424.8°C77.2%20.5°C2340ft (713m)12.6v31
343315 Apr 05:43:5988.2 mph9SSW (210°)9958610173424.8°C77.2%20.5°C2340ft (713m)12.6v31
343215 Apr 05:43:4899.6 mph11SW (215°)9958610173424.8°C77.2%20.5°C2340ft (713m)12.6v31
343115 Apr 05:43:3777.6 mph8SSW (211°)9958810173624.8°C77.2%20.5°C2340ft (713m)12.59v31
343015 Apr 05:43:2588.7 mph9SSW (204°)9958610173424.8°C77%20.5°C2357ft (718m)12.59v31
342915 Apr 05:43:1488.7 mph10SSW (199°)9958610173424.8°C77.1%20.5°C2348ft (716m)12.58v31
342815 Apr 05:43:03910.2 mph12SSW (206°)9958510173324.8°C77%20.5°C2357ft (718m)12.59v31
342715 Apr 05:42:52910 mph12SSW (202°)9958610173424.8°C77%20.5°C2357ft (718m)12.59v31
342615 Apr 05:42:4089.3 mph11SSW (210°)9958610173424.8°C77%20.5°C2357ft (718m)12.6v31
342515 Apr 05:42:291010.4 mph12SSW (205°)9958310173124.8°C77%20.5°C2357ft (718m)12.6v31
342415 Apr 05:42:1899 mph10SSW (200°)9958410173224.8°C77%20.5°C2357ft (718m)12.59v31
342315 Apr 05:42:0778.2 mph10SSW (206°)9958410173224.8°C77.1%20.5°C2348ft (716m)12.59v31
342215 Apr 05:41:5578.3 mph9SSW (207°)9958210173024.8°C77.1%20.5°C2348ft (716m)12.59v31
342115 Apr 05:41:4489.1 mph11SW (215°)9958110172924.8°C77%20.5°C2357ft (718m)12.59v31
342015 Apr 05:41:331010.4 mph12SSW (203°)9957810172624.8°C77%20.5°C2357ft (718m)12.59v31
341915 Apr 05:41:22910 mph11SW (214°)9957910172724.8°C77%20.5°C2357ft (718m)12.59v31
341815 Apr 05:41:10910.1 mph11SW (218°)9958110172924.8°C77.1%20.5°C2348ft (716m)12.61v31
341715 Apr 05:40:5999.8 mph11SSW (208°)9957910172724.8°C77%20.5°C2357ft (718m)12.59v31
341615 Apr 05:40:4899.8 mph11SSW (207°)9958110172924.8°C76.9%20.5°C2365ft (721m)12.59v31
341515 Apr 05:40:3767.5 mph9SW (217°)9958110172924.8°C77%20.5°C2357ft (718m)12.6v31
341415 Apr 05:40:2555.1 mph6SW (224°)9958010172824.8°C77.1%20.5°C2348ft (716m)12.59v31
341315 Apr 05:40:1466.8 mph8SW (219°)9958310173124.8°C76.9%20.5°C2365ft (721m)12.57v31
341215 Apr 05:40:0367.2 mph9SW (219°)9958210173024.8°C77%20.5°C2357ft (718m)12.59v31
341115 Apr 05:39:5276.9 mph8SSW (211°)9957910172724.8°C77%20.5°C2357ft (718m)12.6v31
341015 Apr 05:39:4077.9 mph9SW (215°)9958010172824.8°C77%20.5°C2357ft (718m)12.59v31
340915 Apr 05:39:2989.4 mph12SW (216°)9958110172924.8°C77%20.5°C2357ft (718m)12.59v31
340815 Apr 05:39:1889.8 mph13SSW (206°)9957610172424.8°C76.9%20.5°C2365ft (721m)12.58v31
340715 Apr 05:39:0789.4 mph11SSW (207°)9958110172924.8°C76.8%20.4°C2374ft (724m)12.6v31
340615 Apr 05:38:5568.3 mph11SSW (208°)9957410172224.8°C77%20.5°C2357ft (718m)12.59v31
340515 Apr 05:38:4456.6 mph8SSW (211°)9957910172724.8°C77%20.5°C2357ft (718m)12.59v31
340415 Apr 05:38:3399.5 mph10SSW (208°)9957910172724.8°C77%20.5°C2357ft (718m)12.58v31
340315 Apr 05:38:22610.3 mph14SSW (207°)9957710172524.8°C77%20.5°C2357ft (718m)12.6v31
340215 Apr 05:38:1067.8 mph10SW (222°)9957710172524.8°C77%20.5°C2357ft (718m)12.6v31
340115 Apr 05:37:5978.1 mph9SW (216°)9957710172524.8°C77%20.5°C2357ft (718m)12.6v31
340015 Apr 05:37:4889 mph10SW (216°)9957710172524.8°C77.1%20.5°C2348ft (716m)12.59v31
339915 Apr 05:37:3788.6 mph9SSW (204°)9957710172524.8°C77.1%20.5°C2348ft (716m)12.6v31
339815 Apr 05:37:2588.5 mph10SSW (209°)9957710172524.8°C77.1%20.5°C2348ft (716m)12.59v31
339715 Apr 05:37:1489 mph10SSW (212°)9957610172424.8°C77.1%20.5°C2348ft (716m)12.58v31
339615 Apr 05:37:0389.2 mph11SSW (207°)9957410172224.7°C77.1%20.4°C2347ft (715m)12.59v31
339515 Apr 05:36:5289.6 mph12SSW (208°)9957210172024.7°C77.2%20.4°C2338ft (713m)12.58v31
339415 Apr 05:36:4078.2 mph10SSW (210°)9957610172424.7°C77.3%20.5°C2330ft (710m)12.59v31
339315 Apr 05:36:2978 mph9SSW (212°)9957010171824.7°C77.4%20.5°C2321ft (707m)12.59v31
339215 Apr 05:36:1866.9 mph8SSW (211°)9957310172124.7°C77.6%20.5°C2304ft (702m)12.59v31
339115 Apr 05:36:0789.1 mph10SSW (213°)9956910171724.7°C77.4%20.5°C2321ft (707m)12.59v31
339015 Apr 05:35:5689.1 mph11SSW (204°)9957010171824.7°C77.3%20.5°C2330ft (710m)12.58v31
338915 Apr 05:35:4589.2 mph11SSW (202°)9957210172024.7°C77.5%20.5°C2312ft (705m)12.57v31
338815 Apr 05:35:3378.1 mph10SSW (201°)9956910171724.7°C77.4%20.5°C2321ft (707m)12.59v61
338715 Apr 05:35:221010.6 mph12SSW (206°)9957110171924.7°C77.2%20.4°C2338ft (713m)12.6v46
338615 Apr 05:35:1067.1 mph9SSW (212°)9957210172024.7°C77.3%20.5°C2330ft (710m)12.61v46
338515 Apr 05:34:5956.5 mph8SSW (207°)9957010171824.7°C77.3%20.5°C2330ft (710m)12.61v46
338415 Apr 05:34:4856.4 mph7SSW (199°)9956510171324.7°C77.3%20.5°C2330ft (710m)12.62v52
338315 Apr 05:34:3768.3 mph12SW (217°)9956410171224.8°C77.1%20.5°C2348ft (716m)12.61v50
338215 Apr 05:34:25910.2 mph12SSW (204°)9956810171624.8°C77.1%20.5°C2348ft (716m)12.59v61
338115 Apr 05:34:141010.6 mph12SW (216°)9956210171024.8°C77%20.5°C2357ft (718m)12.59v52
338015 Apr 05:34:0378.3 mph11SSW (205°)9955510170224.8°C77.2%20.5°C2340ft (713m)12.6v46
337915 Apr 05:33:5277.8 mph9SSW (206°)9956310171124.8°C77.1%20.5°C2348ft (716m)12.59v52
337815 Apr 05:33:4078.3 mph11SSW (207°)9956310171124.8°C77.2%20.5°C2340ft (713m)12.6v46
337715 Apr 05:33:2977.8 mph9SW (215°)9956610171424.8°C77.2%20.5°C2340ft (713m)12.61v52
337615 Apr 05:33:1878.1 mph10SSW (199°)9956610171424.8°C77.1%20.5°C2348ft (716m)12.59v50
337515 Apr 05:33:07910.2 mph12SW (215°)9956410171224.8°C77.1%20.5°C2348ft (716m)12.6v112
337415 Apr 05:32:5566.9 mph8SW (218°)9956710171524.8°C77%20.5°C2357ft (718m)12.59v31
337315 Apr 05:32:4488.2 mph10SSW (210°)9956510171324.8°C77%20.5°C2357ft (718m)12.58v31
337215 Apr 05:32:33910.5 mph12SSW (203°)9956410171224.8°C76.9%20.5°C2365ft (721m)12.58v31
337115 Apr 05:32:2289 mph10SSW (206°)9956510171324.8°C77%20.5°C2357ft (718m)12.58v31
337015 Apr 05:32:10911.1 mph13SSW (210°)9956710171524.8°C76.9%20.5°C2365ft (721m)12.61v31
336915 Apr 05:31:5988 mph9SSW (208°)9956710171524.8°C77%20.5°C2357ft (718m)12.6v31
336815 Apr 05:31:4866.8 mph8SW (215°)9956110170924.8°C77.1%20.5°C2348ft (716m)12.59v31
336715 Apr 05:31:3789.4 mph10SSW (210°)9955910170724.8°C76.9%20.5°C2365ft (721m)12.59v31
336615 Apr 05:31:2577.4 mph8SSW (205°)9956210171024.8°C77%20.5°C2357ft (718m)12.6v31
336515 Apr 05:31:1489.7 mph11SSW (200°)9956310171124.8°C77%20.5°C2357ft (718m)12.59v31
336415 Apr 05:31:031111.5 mph13SSW (203°)9955610170324.8°C76.9%20.5°C2365ft (721m)12.59v31
336315 Apr 05:30:5299.6 mph11SSW (200°)9956210171024.8°C77%20.5°C2357ft (718m)12.6v31
336215 Apr 05:30:401010.6 mph13SSW (209°)9956210171024.8°C76.9%20.5°C2365ft (721m)12.59v31
336115 Apr 05:30:2999.6 mph12SSW (203°)9955910170724.8°C77%20.5°C2357ft (718m)12.6v31
336015 Apr 05:30:1888.8 mph10SSW (198°)9956210171024.8°C77%20.5°C2357ft (718m)12.6v31
335915 Apr 05:30:071011.2 mph13SSW (204°)9956310171124.8°C76.9%20.5°C2365ft (721m)12.6v31
335815 Apr 05:29:551111 mph12SSW (197°)9956010170824.8°C77%20.5°C2357ft (718m)12.6v31
335715 Apr 05:29:441010.1 mph12SSW (205°)9956310171124.8°C77%20.5°C2357ft (718m)12.59v31
335615 Apr 05:29:33911.1 mph13SSW (204°)9955810170524.8°C77%20.5°C2357ft (718m)12.57v31
335515 Apr 05:29:22109.8 mph11SSW (198°)9955910170724.8°C76.9%20.5°C2365ft (721m)12.59v31
335415 Apr 05:29:101012.3 mph14SSW (202°)9955810170524.8°C76.9%20.5°C2365ft (721m)12.6v31
335315 Apr 05:28:5978.4 mph11SSW (204°)9956010170824.8°C77%20.5°C2357ft (718m)12.6v31
335215 Apr 05:28:4878.7 mph12SSW (206°)9956110170924.8°C77%20.5°C2357ft (718m)12.6v31
335115 Apr 05:28:3789.2 mph11SSW (203°)9955910170724.8°C77%20.5°C2357ft (718m)12.59v31
335015 Apr 05:28:2589.4 mph11SW (217°)9956010170824.8°C76.9%20.5°C2365ft (721m)12.59v31
334915 Apr 05:28:14810.9 mph13SSW (204°)9955810170524.8°C77%20.5°C2357ft (718m)12.6v31
334815 Apr 05:28:0367.4 mph9SSW (210°)9955310170024.8°C77.1%20.5°C2348ft (716m)12.6v31
334715 Apr 05:27:5279 mph12SSW (200°)9955810170524.8°C77%20.5°C2357ft (718m)12.6v31
334615 Apr 05:27:401012.6 mph15SSW (202°)9955710170424.8°C76.9%20.5°C2365ft (721m)12.59v31
334515 Apr 05:27:29910.5 mph13SSW (202°)9955410170124.8°C76.8%20.4°C2374ft (724m)12.61v31
334415 Apr 05:27:181011.5 mph14SSW (198°)9956010170824.8°C76.9%20.5°C2365ft (721m)12.6v31
334315 Apr 05:27:07710.5 mph13SSW (200°)9955810170524.8°C76.9%20.5°C2365ft (721m)12.59v31
334215 Apr 05:26:5599.3 mph11SSW (210°)9955810170524.8°C76.9%20.5°C2365ft (721m)12.59v31
334115 Apr 05:26:441010.8 mph12SSW (200°)9956010170824.8°C76.8%20.4°C2374ft (724m)12.6v31
334015 Apr 05:26:331010.7 mph12S (191°)9955610170324.8°C76.8%20.4°C2374ft (724m)12.6v31
333915 Apr 05:26:221011.3 mph13SSW (201°)9955210169924.8°C76.8%20.4°C2374ft (724m)12.59v31
333815 Apr 05:26:10810.1 mph13SSW (195°)9955310170024.8°C76.8%20.4°C2374ft (724m)12.58v31
333715 Apr 05:25:5989.2 mph12SSW (207°)9955810170524.8°C76.9%20.5°C2365ft (721m)12.6v31
333615 Apr 05:25:481010.6 mph12SSW (208°)9955610170324.8°C76.7%20.4°C2383ft (726m)12.6v31
333515 Apr 05:25:3799.7 mph11SSW (206°)9955210169924.8°C76.8%20.4°C2374ft (724m)12.59v31
333415 Apr 05:25:2589.7 mph11SW (216°)9955910170724.8°C76.9%20.5°C2365ft (721m)12.6v31
333315 Apr 05:25:1488.9 mph10SSW (206°)9955610170324.8°C76.8%20.4°C2374ft (724m)12.6v31
333215 Apr 05:25:0389.8 mph12SSW (206°)9955610170324.8°C76.9%20.5°C2365ft (721m)12.59v31
333115 Apr 05:24:5267.4 mph9SSW (207°)9955410170124.8°C76.9%20.5°C2365ft (721m)12.6v31
333015 Apr 05:24:4067.8 mph9SSW (211°)9955710170424.8°C76.8%20.4°C2374ft (724m)12.59v31
332915 Apr 05:24:2989 mph11SSW (200°)9955410170124.8°C76.9%20.5°C2365ft (721m)12.6v31
332815 Apr 05:24:1888.6 mph10SSW (207°)9955510170224.8°C76.9%20.5°C2365ft (721m)12.59v31
332715 Apr 05:24:0778.2 mph9SSW (207°)9955510170224.8°C76.8%20.4°C2374ft (724m)12.61v31
332615 Apr 05:23:5588.2 mph9SSW (208°)9955510170224.8°C76.9%20.5°C2365ft (721m)12.6v31
332515 Apr 05:23:4499.2 mph10SSW (201°)9955810170524.8°C77%20.5°C2357ft (718m)12.6v31
332415 Apr 05:23:3378.3 mph10SSW (200°)9955710170424.8°C76.9%20.5°C2365ft (721m)12.59v31
332315 Apr 05:23:2299.5 mph11SSW (198°)9955710170424.8°C76.9%20.5°C2365ft (721m)12.58v31
332215 Apr 05:23:1056.8 mph8SSW (204°)9955610170324.8°C77%20.5°C2357ft (718m)12.59v31
332115 Apr 05:22:5946.3 mph9SW (227°)9955810170524.8°C77%20.5°C2357ft (718m)12.6v31
332015 Apr 05:22:4856.1 mph7SW (221°)9955410170124.8°C77.2%20.5°C2340ft (713m)12.61v31
331915 Apr 05:22:3767.7 mph9SSW (211°)9955610170324.8°C77.1%20.5°C2348ft (716m)12.61v31
331815 Apr 05:22:2599.3 mph10SSW (209°)9955610170324.8°C76.9%20.5°C2365ft (721m)12.6v31
331715 Apr 05:22:141112.1 mph13SSW (192°)9955510170224.8°C76.9%20.5°C2365ft (721m)12.61v31
331615 Apr 05:22:0399.7 mph11SSW (193°)9955210169924.8°C76.9%20.5°C2365ft (721m)12.6v31
331515 Apr 05:21:52910.5 mph12SSW (196°)9955510170224.8°C76.9%20.5°C2365ft (721m)12.59v31
331415 Apr 05:21:40910.1 mph12SSW (199°)9955210169924.8°C76.9%20.5°C2365ft (721m)12.59v31
331315 Apr 05:21:29910.4 mph13SSW (193°)9955710170424.8°C76.9%20.5°C2365ft (721m)12.6v31
331215 Apr 05:21:181011.4 mph13SSW (197°)9955010169724.8°C76.8%20.4°C2374ft (724m)12.6v31
331115 Apr 05:21:0789.8 mph12SSW (194°)9955410170124.8°C76.8%20.4°C2374ft (724m)12.6v31
331015 Apr 05:20:55910.3 mph12S (191°)9955710170424.8°C76.8%20.4°C2374ft (724m)12.6v31
330915 Apr 05:20:4489.3 mph10SSW (204°)9955610170324.8°C76.8%20.4°C2374ft (724m)12.6v31
330815 Apr 05:20:33910.2 mph11SSW (199°)9955410170124.8°C76.8%20.4°C2374ft (724m)12.6v31
330715 Apr 05:20:221111.5 mph14SSW (210°)9955410170124.8°C76.7%20.4°C2383ft (726m)12.59v31
330615 Apr 05:20:10910.2 mph12SSW (198°)9955110169824.8°C76.9%20.5°C2365ft (721m)12.59v31
330515 Apr 05:19:5977.8 mph9SSW (205°)9955410170124.8°C76.9%20.5°C2365ft (721m)12.59v31
330415 Apr 05:19:4877.6 mph9SSW (209°)9955410170124.8°C76.9%20.5°C2365ft (721m)12.61v31
330315 Apr 05:19:3766.6 mph7SSW (209°)9955510170224.8°C77%20.5°C2357ft (718m)12.6v31
330215 Apr 05:19:2578 mph10SSW (203°)9955610170324.8°C77%20.5°C2357ft (718m)12.6v31
330115 Apr 05:19:1489.1 mph10SSW (203°)9954810169524.8°C76.9%20.5°C2365ft (721m)12.59v31
330015 Apr 05:19:0389.1 mph12SSW (200°)9955110169824.8°C77%20.5°C2357ft (718m)12.6v31
329915 Apr 05:18:5288.9 mph10SW (217°)9955110169824.7°C76.9%20.4°C2364ft (721m)12.58v31
329815 Apr 05:18:401111.9 mph13SSW (195°)9955310170024.7°C76.9%20.4°C2364ft (721m)12.6v31
329715 Apr 05:18:291112.4 mph15SSW (200°)9955110169824.7°C76.9%20.4°C2364ft (721m)12.59v31
329615 Apr 05:18:18910.5 mph11SSW (193°)9955510170224.8°C76.9%20.5°C2365ft (721m)12.6v31
329515 Apr 05:18:0789.3 mph11SSW (212°)9955710170424.8°C77%20.5°C2357ft (718m)12.6v31
329415 Apr 05:17:551112.7 mph14SSW (209°)9954910169624.8°C76.7%20.4°C2383ft (726m)12.6v31
329315 Apr 05:17:44710.3 mph15SSW (213°)9954910169624.8°C76.8%20.4°C2374ft (724m)12.6v31
329215 Apr 05:17:3378.3 mph10SSW (196°)9955110169824.8°C76.8%20.4°C2374ft (724m)12.59v31
329115 Apr 05:17:2257 mph10SW (220°)9955110169824.8°C77%20.5°C2357ft (718m)12.59v31
329015 Apr 05:17:1077.9 mph9SW (219°)9955210169924.8°C76.9%20.5°C2365ft (721m)12.59v31
328915 Apr 05:16:59910.3 mph14SSW (205°)9954810169524.8°C76.9%20.5°C2365ft (721m)12.59v31
328815 Apr 05:16:4889.3 mph13SSW (205°)9955310170024.8°C76.9%20.5°C2365ft (721m)12.59v31
328715 Apr 05:16:3789.4 mph11SSW (198°)9954910169624.8°C76.8%20.4°C2374ft (724m)12.61v31
328615 Apr 05:16:2588.7 mph9SSW (211°)9955110169824.8°C77%20.5°C2357ft (718m)12.61v31
328515 Apr 05:16:1489.4 mph11SSW (202°)9955110169824.8°C76.8%20.4°C2374ft (724m)12.6v31
328415 Apr 05:16:031010.3 mph12SSW (205°)9954810169524.8°C76.9%20.5°C2365ft (721m)12.6v31
328315 Apr 05:15:52910 mph11SSW (206°)9955410170124.8°C76.8%20.4°C2374ft (724m)12.59v31
328215 Apr 05:15:4088.9 mph10SSW (202°)9955210169924.8°C76.9%20.5°C2365ft (721m)12.59v31
328115 Apr 05:15:2989.8 mph13SSW (209°)9955510170224.8°C76.9%20.5°C2365ft (721m)12.59v31
328015 Apr 05:15:1888.9 mph11SSW (201°)9955210169924.8°C77%20.5°C2357ft (718m)12.6v31
327915 Apr 05:15:0779.3 mph10SSW (201°)9955210169924.8°C77%20.5°C2357ft (718m)12.62v31
327815 Apr 05:14:5578.2 mph9SSW (200°)9955010169724.7°C77%20.4°C2355ft (718m)12.61v31
327715 Apr 05:14:441011.2 mph12SSW (202°)9954810169524.8°C76.9%20.5°C2365ft (721m)12.61v31
327615 Apr 05:14:33910 mph12SSW (198°)9955110169824.7°C76.9%20.4°C2364ft (721m)12.61v31
327515 Apr 05:14:221111.5 mph13S (191°)9954710169424.8°C77%20.5°C2357ft (718m)12.61v31
327415 Apr 05:14:1058.4 mph13SSW (202°)9955210169924.8°C76.9%20.5°C2365ft (721m)12.59v31
327315 Apr 05:13:5989.3 mph11SSW (211°)9955010169724.8°C76.9%20.5°C2365ft (721m)12.6v31
327215 Apr 05:13:4878.8 mph12SSW (211°)9955110169824.8°C76.9%20.5°C2365ft (721m)12.61v31
327115 Apr 05:13:37911.1 mph13SSW (193°)9954510169224.8°C76.8%20.4°C2374ft (724m)12.6v31
327015 Apr 05:13:25910.7 mph13SSW (197°)9955310170024.8°C77%20.5°C2357ft (718m)12.61v31
326915 Apr 05:13:1467.2 mph9SSW (203°)9955110169824.8°C77%20.5°C2357ft (718m)12.61v31
326815 Apr 05:13:0367.5 mph8SW (216°)9955310170024.8°C76.9%20.5°C2365ft (721m)12.6v31
326715 Apr 05:12:5266.3 mph8SSW (204°)9955310170024.8°C76.8%20.4°C2374ft (724m)12.6v31
326615 Apr 05:12:4088.4 mph9SSW (205°)9955410170124.8°C76.7%20.4°C2383ft (726m)12.6v31
326515 Apr 05:12:2987.9 mph9SSW (200°)9954910169624.8°C76.8%20.4°C2374ft (724m)12.59v31
326415 Apr 05:12:1889.1 mph11SSW (202°)9955010169724.8°C76.8%20.4°C2374ft (724m)12.6v31
326315 Apr 05:12:0757.1 mph8SSW (206°)9954910169624.8°C76.9%20.5°C2365ft (721m)12.61v31
326215 Apr 05:11:5557.3 mph10SSW (205°)9955210169924.8°C76.8%20.4°C2374ft (724m)12.6v31
326115 Apr 05:11:4489.3 mph12SSW (210°)9955110169824.8°C76.8%20.4°C2374ft (724m)12.6v31
326015 Apr 05:11:3388.7 mph10SSW (197°)9954910169624.8°C76.8%20.4°C2374ft (724m)12.59v31
325915 Apr 05:11:2277.8 mph11SSW (207°)9955010169724.8°C76.9%20.5°C2365ft (721m)12.6v31
325815 Apr 05:11:1089 mph11SSW (199°)9955010169724.8°C76.8%20.4°C2374ft (724m)12.59v31
325715 Apr 05:10:5999.4 mph10SSW (200°)9954710169424.8°C76.8%20.4°C2374ft (724m)12.6v31
325615 Apr 05:10:4889.2 mph11SSW (195°)9955010169724.8°C76.8%20.4°C2374ft (724m)12.6v31
325515 Apr 05:10:371011.9 mph13SSW (193°)9954510169224.8°C76.7%20.4°C2383ft (726m)12.6v31
325415 Apr 05:10:25811.3 mph15SSW (198°)9955110169824.8°C76.8%20.4°C2374ft (724m)12.6v31
325315 Apr 05:10:1488.8 mph10SSW (208°)9955110169824.8°C76.9%20.5°C2365ft (721m)12.6v31
325215 Apr 05:10:0388 mph10SSW (204°)9954910169624.8°C77%20.5°C2357ft (718m)12.6v31
325115 Apr 05:09:5277.1 mph8SSW (206°)9955110169824.8°C76.9%20.5°C2365ft (721m)12.6v31
325015 Apr 05:09:40810.3 mph13SSW (200°)9954910169624.8°C76.8%20.4°C2374ft (724m)12.6v31
324915 Apr 05:09:2967.5 mph10SW (214°)9954910169624.8°C76.9%20.5°C2365ft (721m)12.6v31
324815 Apr 05:09:181011 mph13SSW (205°)9955310170024.8°C76.8%20.4°C2374ft (724m)12.6v31
324715 Apr 05:09:0777.5 mph10SSW (205°)9954810169524.8°C76.9%20.5°C2365ft (721m)12.61v31
324615 Apr 05:08:5579.4 mph11SSW (197°)9955210169924.8°C76.9%20.5°C2365ft (721m)12.61v31
324515 Apr 05:08:4489.3 mph11SSW (206°)9954810169524.8°C76.8%20.4°C2374ft (724m)12.61v31
324415 Apr 05:08:3388.9 mph10SSW (198°)9955010169724.8°C76.7%20.4°C2383ft (726m)12.61v31
324315 Apr 05:08:22810 mph13SSW (207°)9955110169824.8°C76.6%20.4°C2391ft (729m)12.62v31
324215 Apr 05:08:1089.9 mph12SSW (200°)9954810169524.8°C76.7%20.4°C2383ft (726m)12.59v31
324115 Apr 05:07:5988.3 mph9SSW (213°)9955010169724.8°C76.7%20.4°C2383ft (726m)12.58v31
324015 Apr 05:07:4877.7 mph9SSW (211°)9955010169724.8°C76.7%20.4°C2383ft (726m)12.6v31
323915 Apr 05:07:3778 mph9SW (214°)9955010169724.8°C76.6%20.4°C2391ft (729m)12.59v31
323815 Apr 05:07:2589.1 mph10SSW (207°)9954910169624.8°C76.6%20.4°C2391ft (729m)12.62v31
323715 Apr 05:07:1476.8 mph7SSW (213°)9955010169724.8°C76.7%20.4°C2383ft (726m)12.61v31
323615 Apr 05:07:0377.4 mph8SSW (200°)9955110169824.8°C76.8%20.4°C2374ft (724m)12.6v31
323515 Apr 05:06:5278.8 mph10SSW (203°)9955010169724.8°C76.7%20.4°C2383ft (726m)12.59v31
323415 Apr 05:06:4067 mph8SSW (212°)9955210169924.8°C76.8%20.4°C2374ft (724m)12.59v31
323315 Apr 05:06:2978.6 mph11SSW (209°)9955110169824.8°C76.8%20.4°C2374ft (724m)12.59v31
323215 Apr 05:06:1889.3 mph11SSW (210°)9955010169724.8°C76.8%20.4°C2374ft (724m)12.61v31
323115 Apr 05:06:0788.6 mph9SSW (201°)9954810169524.8°C76.8%20.4°C2374ft (724m)12.61v31
323015 Apr 05:05:551010.5 mph11SSW (200°)9954910169624.8°C76.7%20.4°C2383ft (726m)12.6v31
322915 Apr 05:05:4489.3 mph12SSW (202°)9954910169624.8°C76.7%20.4°C2383ft (726m)12.61v31
322815 Apr 05:05:331011 mph13SSW (202°)9954710169424.8°C76.8%20.4°C2374ft (724m)12.6v31
322715 Apr 05:05:221212.4 mph14SSW (203°)9954810169524.8°C76.7%20.4°C2383ft (726m)12.61v31
322615 Apr 05:05:10810.4 mph13SSW (198°)9954710169424.8°C76.6%20.4°C2391ft (729m)12.6v31
322515 Apr 05:04:591010.8 mph12SSW (198°)9954510169224.8°C76.6%20.4°C2391ft (729m)12.6v31
322415 Apr 05:04:4899.6 mph12SSW (204°)9954710169424.8°C76.7%20.4°C2383ft (726m)12.59v31
322315 Apr 05:04:3788.1 mph9SSW (205°)9954610169324.8°C76.7%20.4°C2383ft (726m)12.62v31
322215 Apr 05:04:2557.4 mph10SSW (208°)9954910169624.8°C76.8%20.4°C2374ft (724m)12.61v31
322115 Apr 05:04:1457.3 mph10SSW (203°)9955010169724.8°C76.7%20.4°C2383ft (726m)12.61v31
322015 Apr 05:04:03910 mph12SSW (199°)9955010169724.8°C76.7%20.4°C2383ft (726m)12.62v31
321915 Apr 05:03:5279.8 mph12SSW (199°)9954910169624.8°C76.6%20.4°C2391ft (729m)12.6v31
321815 Apr 05:03:4067.4 mph9SSW (210°)9954810169524.8°C76.7%20.4°C2383ft (726m)12.6v31
321715 Apr 05:03:2967.5 mph9SSW (213°)9955110169824.8°C76.6%20.4°C2391ft (729m)12.59v31
321615 Apr 05:03:18910.4 mph12SSW (205°)9954610169324.8°C76.7%20.4°C2383ft (726m)12.6v31
321515 Apr 05:03:07910 mph12SSW (202°)9954410169124.8°C76.6%20.4°C2391ft (729m)12.61v31
321415 Apr 05:02:55911.1 mph12SSW (202°)9954710169424.8°C76.5%20.4°C2400ft (732m)12.6v31
321315 Apr 05:02:4499 mph9SSW (207°)9954910169624.8°C76.5%20.4°C2400ft (732m)12.61v31
321215 Apr 05:02:3388.8 mph10SSW (208°)9954610169324.8°C76.6%20.4°C2391ft (729m)12.61v31
321115 Apr 05:02:22910.2 mph12SSW (205°)9954710169424.8°C76.5%20.4°C2400ft (732m)12.61v31
321015 Apr 05:02:1076.9 mph8SSW (210°)9954810169524.8°C76.7%20.4°C2383ft (726m)12.61v31
320915 Apr 05:01:5978.6 mph11SSW (207°)9954810169524.8°C76.7%20.4°C2383ft (726m)12.6v31
320815 Apr 05:01:4889.6 mph11SSW (211°)9954310169024.8°C76.7%20.4°C2383ft (726m)12.59v31
320715 Apr 05:01:371010.7 mph12SSW (200°)9954610169324.8°C76.7%20.4°C2383ft (726m)12.6v31
320615 Apr 05:01:251212.9 mph14SSW (194°)9954810169524.8°C76.6%20.4°C2391ft (729m)12.59v31
320515 Apr 05:01:1489.4 mph11SSW (195°)9954810169524.8°C76.7%20.4°C2383ft (726m)12.61v31
320415 Apr 05:01:0378.3 mph9SSW (199°)9954610169324.8°C76.7%20.4°C2383ft (726m)12.6v31
320315 Apr 05:00:5267.7 mph11SSW (195°)9954410169124.8°C76.6%20.4°C2391ft (729m)12.61v31
320215 Apr 05:00:4078.1 mph9SSW (197°)9954410169124.8°C76.7%20.4°C2383ft (726m)12.61v31
320115 Apr 05:00:2967.2 mph9SSW (200°)9954610169324.8°C76.7%20.4°C2383ft (726m)12.6v31
320015 Apr 05:00:1899.8 mph11SSW (192°)9954610169324.8°C76.8%20.4°C2374ft (724m)12.59v31
319915 Apr 05:00:0757.1 mph10SSW (200°)9954510169224.8°C76.9%20.5°C2365ft (721m)12.6v31
319815 Apr 04:59:5567.7 mph10SSW (199°)9954710169424.8°C76.9%20.5°C2365ft (721m)12.62v31
319715 Apr 04:59:4467 mph8SSW (196°)9954110168824.8°C76.9%20.5°C2365ft (721m)12.61v31
319615 Apr 04:59:3388.7 mph10SSW (213°)9954310169024.8°C76.8%20.4°C2374ft (724m)12.61v31
319515 Apr 04:59:2289.2 mph11SSW (208°)9954210168924.8°C76.8%20.4°C2374ft (724m)12.6v31
319415 Apr 04:59:1089.6 mph12SSW (194°)9954110168824.8°C76.7%20.4°C2383ft (726m)12.6v31
319315 Apr 04:58:591111.9 mph13SSW (201°)9954110168824.8°C76.8%20.4°C2374ft (724m)12.61v31
319215 Apr 04:58:4879 mph11SSW (204°)9953710168424.8°C76.7%20.4°C2383ft (726m)12.58v31
319115 Apr 04:58:3766.6 mph8SW (214°)9954510169224.8°C76.9%20.5°C2365ft (721m)12.61v31
319015 Apr 04:58:2546.7 mph9SW (220°)9954210168924.8°C76.9%20.5°C2365ft (721m)12.6v31
318915 Apr 04:58:1455.1 mph7SW (235°)9954310169024.8°C76.9%20.5°C2365ft (721m)12.62v31
318815 Apr 04:58:0378.2 mph9SSW (208°)9954110168824.8°C76.8%20.4°C2374ft (724m)12.6v31
318715 Apr 04:57:5279.2 mph12SSW (201°)9954610169324.8°C76.7%20.4°C2383ft (726m)12.62v31
318615 Apr 04:57:401111 mph12SSW (205°)9954910169624.8°C76.6%20.4°C2391ft (729m)12.62v31
318515 Apr 04:57:2978.7 mph11SSW (201°)9955010169724.8°C76.7%20.4°C2383ft (726m)12.61v31
318415 Apr 04:57:1878.4 mph10SSW (206°)9954810169524.8°C76.8%20.4°C2374ft (724m)12.59v31
318315 Apr 04:57:0778.2 mph10SSW (211°)9954810169524.8°C76.8%20.4°C2374ft (724m)12.6v31
318215 Apr 04:56:5578.2 mph10SSW (204°)9954410169124.8°C76.8%20.4°C2374ft (724m)12.59v31
318115 Apr 04:56:4488.2 mph9SSW (204°)9954710169424.8°C76.8%20.4°C2374ft (724m)12.63v31
318015 Apr 04:56:3378.2 mph9SSW (206°)9954510169224.8°C77%20.5°C2357ft (718m)12.61v31
317915 Apr 04:56:2266.8 mph8S (191°)9954410169124.8°C77%20.5°C2357ft (718m)12.61v31
317815 Apr 04:56:1089.5 mph11SSW (204°)9954510169224.8°C76.8%20.4°C2374ft (724m)12.61v31
317715 Apr 04:55:5966.4 mph9SSW (192°)9954910169624.8°C76.9%20.5°C2365ft (721m)12.61v31
317615 Apr 04:55:4878.4 mph11SSW (209°)9954710169424.8°C76.8%20.4°C2374ft (724m)12.58v31
317515 Apr 04:55:3778.5 mph11SSW (199°)9954610169324.8°C76.9%20.5°C2365ft (721m)12.61v31
317415 Apr 04:55:2589.8 mph11SSW (200°)9954610169324.8°C76.8%20.4°C2374ft (724m)12.6v31
317315 Apr 04:55:14910 mph11SSW (201°)9954910169624.8°C76.8%20.4°C2374ft (724m)12.61v31
317215 Apr 04:55:03910.1 mph12SSW (196°)9955110169824.7°C76.9%20.4°C2364ft (721m)12.61v31
317115 Apr 04:54:5289.9 mph13SSW (199°)9955010169724.7°C76.8%20.4°C2373ft (723m)12.61v31
317015 Apr 04:54:4089.8 mph12SSW (201°)9954610169324.7°C76.9%20.4°C2364ft (721m)12.6v31
316915 Apr 04:54:291010.1 mph12S (190°)9954710169424.8°C76.9%20.5°C2365ft (721m)12.62v31
316815 Apr 04:54:1877.8 mph9SSW (202°)9954810169524.8°C76.9%20.5°C2365ft (721m)12.6v31
316715 Apr 04:54:0789 mph10SSW (204°)9954810169524.8°C77%20.5°C2357ft (718m)12.6v31
316615 Apr 04:53:5577.8 mph9SSW (204°)9954810169524.7°C77.1%20.4°C2347ft (715m)12.6v31
316515 Apr 04:53:4477.3 mph8SSW (205°)9955010169724.7°C77.1%20.4°C2347ft (715m)12.62v31
316415 Apr 04:53:3345.7 mph8SSW (209°)9955210169924.7°C77.2%20.4°C2338ft (713m)12.61v31
316315 Apr 04:53:2254.9 mph5SSW (213°)9955210169924.7°C77.2%20.4°C2338ft (713m)12.61v31
316215 Apr 04:53:1057.3 mph10SSW (206°)9955110169824.7°C77%20.4°C2355ft (718m)12.62v31
316115 Apr 04:52:5979.3 mph12SSW (206°)9954810169524.7°C77%20.4°C2355ft (718m)12.61v31
316015 Apr 04:52:4899.3 mph10S (189°)9954910169624.7°C76.9%20.4°C2364ft (721m)12.6v31
315915 Apr 04:52:3779.2 mph11SSW (196°)9954810169524.7°C76.8%20.4°C2373ft (723m)12.59v31
315815 Apr 04:52:2579.1 mph11SSW (199°)9955010169724.7°C76.9%20.4°C2364ft (721m)12.6v31
315715 Apr 04:52:1499.9 mph11SSW (208°)9954710169424.7°C77%20.4°C2355ft (718m)12.61v31
315615 Apr 04:52:0389 mph11SSW (205°)9955010169724.7°C77%20.4°C2355ft (718m)12.62v31
315515 Apr 04:51:521012.2 mph13S (190°)9955310170024.7°C76.9%20.4°C2364ft (721m)12.6v31
315415 Apr 04:51:4088.8 mph12SSW (195°)9955410170124.7°C77%20.4°C2355ft (718m)12.61v31
315315 Apr 04:51:2967.7 mph9SSW (197°)9955110169824.7°C77.1%20.4°C2347ft (715m)12.61v31
315215 Apr 04:51:1988.3 mph10SSW (206°)9954910169624.7°C77.1%20.4°C2347ft (715m)12.6v31
315115 Apr 04:51:0789.1 mph11S (191°)9954810169524.7°C77.2%20.4°C2338ft (713m)12.59v31
315015 Apr 04:50:56911.3 mph13SSW (194°)9955210169924.7°C77.1%20.4°C2347ft (715m)12.61v31
314915 Apr 04:50:45810.1 mph11SSW (207°)9954710169424.7°C77.1%20.4°C2347ft (715m)12.61v31
314815 Apr 04:50:3488.5 mph10SSW (201°)9955010169724.7°C77%20.4°C2355ft (718m)12.61v31
314715 Apr 04:50:2278.4 mph10SSW (199°)9955110169824.7°C77.1%20.4°C2347ft (715m)12.61v31
314615 Apr 04:50:1189.7 mph12SSW (207°)9955010169724.7°C77.1%20.4°C2347ft (715m)12.61v31
314515 Apr 04:50:0088.5 mph10SSW (210°)9954710169424.7°C77.1%20.4°C2347ft (715m)12.62v31
314415 Apr 04:49:49810.9 mph13SSW (207°)9954710169424.7°C77%20.4°C2355ft (718m)12.61v31
314315 Apr 04:49:3789.7 mph11SSW (209°)9955010169724.7°C77%20.4°C2355ft (718m)12.61v31
314215 Apr 04:49:2656.8 mph9SSW (208°)9955310170024.7°C77%20.4°C2355ft (718m)12.6v31
314115 Apr 04:49:1579.1 mph11SSW (213°)9955010169724.7°C77%20.4°C2355ft (718m)12.61v31
314015 Apr 04:49:04910.9 mph14SW (217°)9955110169824.7°C77.1%20.4°C2347ft (715m)12.62v31
313915 Apr 04:48:5279.4 mph12SW (216°)9955310170024.7°C77.1%20.4°C2347ft (715m)12.62v31
313815 Apr 04:48:41911.6 mph14SSW (200°)9954810169524.7°C77%20.4°C2355ft (718m)12.61v31
313715 Apr 04:48:3089 mph11SSW (194°)9955010169724.7°C77%20.4°C2355ft (718m)12.61v31
313615 Apr 04:48:1899.5 mph10SSW (193°)9955010169724.7°C77%20.4°C2355ft (718m)12.62v31
313515 Apr 04:48:071212.7 mph14SSW (192°)9955110169824.7°C76.8%20.4°C2373ft (723m)12.6v31
313415 Apr 04:47:551010.9 mph12S (186°)9954510169224.7°C77%20.4°C2355ft (718m)12.61v31
313315 Apr 04:47:4499.8 mph11SSW (200°)9955310170024.7°C76.9%20.4°C2364ft (721m)12.6v31
313215 Apr 04:47:3379.6 mph12SSW (204°)9955010169724.7°C76.9%20.4°C2364ft (721m)12.61v31
313115 Apr 04:47:2266.3 mph7SSW (204°)9955410170124.7°C77.2%20.4°C2338ft (713m)12.61v31
313015 Apr 04:47:1078.3 mph10SSW (201°)9955310170024.7°C77.1%20.4°C2347ft (715m)12.61v31
312915 Apr 04:46:5977.7 mph9SSW (197°)9955010169724.7°C77.1%20.4°C2347ft (715m)12.61v31
312815 Apr 04:46:4856.9 mph10SW (218°)9955010169724.7°C77.1%20.4°C2347ft (715m)12.6v31
312715 Apr 04:46:3755.3 mph6SW (215°)9955210169924.7°C77.1%20.4°C2347ft (715m)12.6v31
312615 Apr 04:46:2545.2 mph6SW (218°)9955410170124.8°C77%20.5°C2357ft (718m)12.6v31
312515 Apr 04:46:1466.9 mph8SW (216°)9954910169624.7°C77.1%20.4°C2347ft (715m)12.6v31
312415 Apr 04:46:0356.1 mph7SSW (208°)9954910169624.7°C77.1%20.4°C2347ft (715m)12.61v31
312315 Apr 04:45:5265.9 mph6SSW (199°)9955010169724.7°C77.2%20.4°C2338ft (713m)12.62v31
312215 Apr 04:45:4077.7 mph10SW (219°)9955010169724.7°C77.1%20.4°C2347ft (715m)12.61v31
312115 Apr 04:45:29810 mph13SW (218°)9955010169724.7°C77.1%20.4°C2347ft (715m)12.62v31
312015 Apr 04:45:1866.8 mph8SSW (212°)9954910169624.7°C77.2%20.4°C2338ft (713m)12.61v31
311915 Apr 04:45:0787.8 mph8SSW (210°)9954810169524.7°C77.2%20.4°C2338ft (713m)12.61v31
311815 Apr 04:44:5589 mph11SSW (208°)9955010169724.7°C77.2%20.4°C2338ft (713m)12.61v31
311715 Apr 04:44:441010.9 mph12SSW (213°)9954810169524.7°C77%20.4°C2355ft (718m)12.6v31
311615 Apr 04:44:3357.1 mph10SSW (206°)9954110168824.7°C77.1%20.4°C2347ft (715m)12.61v31
311515 Apr 04:44:2299.6 mph11SSW (207°)9954810169524.7°C77.1%20.4°C2347ft (715m)12.62v31
311415 Apr 04:44:1099.9 mph12SSW (203°)9954510169224.7°C77%20.4°C2355ft (718m)12.62v31
311315 Apr 04:43:5978.1 mph9SSW (202°)9954910169624.7°C76.9%20.4°C2364ft (721m)12.61v31
311215 Apr 04:43:4888.3 mph9SSW (205°)9954610169324.7°C77.2%20.4°C2338ft (713m)12.61v31
311115 Apr 04:43:3745.6 mph7SSW (211°)9954810169524.7°C77.3%20.5°C2330ft (710m)12.62v31
311015 Apr 04:43:2567.1 mph9SSW (210°)9954910169624.7°C77.3%20.5°C2330ft (710m)12.62v31
310915 Apr 04:43:1469.1 mph11SSW (202°)9954510169224.7°C77.1%20.4°C2347ft (715m)12.62v31
310815 Apr 04:43:0367.5 mph9SW (214°)9954510169224.7°C77.2%20.4°C2338ft (713m)12.61v31
310715 Apr 04:42:5277.8 mph9SSW (206°)9954210168924.7°C77.2%20.4°C2338ft (713m)12.62v31
310615 Apr 04:42:4066.5 mph9SW (214°)9954510169224.7°C77.2%20.4°C2338ft (713m)12.62v31
310515 Apr 04:42:2955.7 mph7SW (218°)9954810169524.7°C77.3%20.5°C2330ft (710m)12.61v31
310415 Apr 04:42:1877.2 mph8SW (215°)9954410169124.7°C77.4%20.5°C2321ft (707m)12.62v31
310315 Apr 04:42:0755.9 mph8SSW (210°)9954510169224.7°C77.4%20.5°C2321ft (707m)12.6v31
310215 Apr 04:41:5555.5 mph6SSW (210°)9954310169024.7°C77.3%20.5°C2330ft (710m)12.61v31
310115 Apr 04:41:4477.7 mph9SSW (201°)9954610169324.7°C77.3%20.5°C2330ft (710m)12.6v31
310015 Apr 04:41:3388.9 mph11SSW (207°)9954410169124.7°C77.2%20.4°C2338ft (713m)12.61v31
309915 Apr 04:41:22910.5 mph12SSW (207°)9954210168924.7°C77.2%20.4°C2338ft (713m)12.62v31
309815 Apr 04:41:10910.6 mph12SSW (202°)9953810168524.7°C77.1%20.4°C2347ft (715m)12.62v31
309715 Apr 04:40:591212.2 mph13S (189°)9953710168424.7°C77.1%20.4°C2347ft (715m)12.61v31
309615 Apr 04:40:4889.3 mph11SSW (200°)9954310169024.7°C77.2%20.4°C2338ft (713m)12.61v31
309515 Apr 04:40:3777.8 mph10SSW (204°)9954310169024.7°C77.1%20.4°C2347ft (715m)12.61v31
309415 Apr 04:40:2588.5 mph9S (191°)9953710168424.7°C77.2%20.4°C2338ft (713m)12.61v31
309315 Apr 04:40:1477.9 mph10SSW (202°)9954110168824.7°C77.2%20.4°C2338ft (713m)12.6v31
309215 Apr 04:40:03810.4 mph12SSW (205°)9954010168724.7°C77.1%20.4°C2347ft (715m)12.6v31
309115 Apr 04:39:5267.6 mph10SSW (207°)9954310169024.7°C77.3%20.5°C2330ft (710m)12.62v31
309015 Apr 04:39:4068.5 mph10SSW (208°)9954110168824.7°C77.2%20.4°C2338ft (713m)12.6v31
308915 Apr 04:39:2978.1 mph10SSW (201°)9953810168524.7°C77.2%20.4°C2338ft (713m)12.63v31
308815 Apr 04:39:1878.5 mph11SSW (202°)9954210168924.7°C77.2%20.4°C2338ft (713m)12.61v31
308715 Apr 04:39:0789.3 mph11SSW (205°)9954010168724.7°C77.2%20.4°C2338ft (713m)12.6v31
308615 Apr 04:38:5566.4 mph7SSW (209°)9954010168724.7°C77.4%20.5°C2321ft (707m)12.61v31
308515 Apr 04:38:4477.5 mph9SSW (205°)9954310169024.7°C77.3%20.5°C2330ft (710m)12.6v31
308415 Apr 04:38:3378.1 mph9SSW (207°)9954310169024.7°C77.3%20.5°C2330ft (710m)12.6v31
308315 Apr 04:38:2278.4 mph10SSW (199°)9953810168524.7°C77.3%20.5°C2330ft (710m)12.62v31
308215 Apr 04:38:1078.6 mph10SSW (200°)9954210168924.7°C77.3%20.5°C2330ft (710m)12.61v31
308115 Apr 04:37:5978.8 mph10SW (214°)9953910168624.7°C77.4%20.5°C2321ft (707m)12.61v31
308015 Apr 04:37:4888.6 mph9SSW (210°)9954110168824.7°C77.3%20.5°C2330ft (710m)12.62v31
307915 Apr 04:37:3778.6 mph10SSW (212°)9954010168724.7°C77.4%20.5°C2321ft (707m)12.61v31
307815 Apr 04:37:2598.8 mph10SSW (205°)9953610168324.7°C77.3%20.5°C2330ft (710m)12.6v31
307715 Apr 04:37:1499.2 mph10SSW (211°)9954010168724.7°C77.5%20.5°C2312ft (705m)12.61v31
307615 Apr 04:37:0389.1 mph10SSW (194°)9953710168424.7°C77.4%20.5°C2321ft (707m)12.6v31
307515 Apr 04:36:5279.1 mph10SSW (207°)9954010168724.6°C77.4%20.4°C2320ft (707m)12.61v31
307415 Apr 04:36:4099.7 mph11SSW (204°)9953810168524.6°C77.4%20.4°C2320ft (707m)12.62v31
307315 Apr 04:36:2999.5 mph11SSW (203°)9953410168124.6°C77.4%20.4°C2320ft (707m)12.61v31
307215 Apr 04:36:1889.6 mph10SSW (199°)9954010168724.7°C77.3%20.5°C2330ft (710m)12.61v31
307115 Apr 04:36:07810.4 mph12SSW (200°)9953510168224.7°C77.2%20.4°C2338ft (713m)12.6v31
307015 Apr 04:35:5556.3 mph8SW (214°)9953910168624.7°C77.4%20.5°C2321ft (707m)12.6v31
306915 Apr 04:35:4467.7 mph11SSW (206°)9953510168224.7°C77.4%20.5°C2321ft (707m)12.61v31
306815 Apr 04:35:3366.1 mph8SW (214°)9953710168424.7°C77.4%20.5°C2321ft (707m)12.61v31
306715 Apr 04:35:2289.7 mph12SSW (209°)9953710168424.7°C77.4%20.5°C2321ft (707m)12.61v31
306615 Apr 04:35:1057.2 mph11SSW (208°)9953510168224.7°C77.4%20.5°C2321ft (707m)12.62v31
306515 Apr 04:34:5989.5 mph11SSW (197°)9953710168424.7°C77.3%20.5°C2330ft (710m)12.63v31
306415 Apr 04:34:4889.7 mph11SSW (196°)9953510168224.7°C77.3%20.5°C2330ft (710m)12.62v31
306315 Apr 04:34:3779.6 mph11SSW (196°)9953110167824.7°C77.2%20.4°C2338ft (713m)12.62v31
306215 Apr 04:34:2578.4 mph10SSW (203°)9953710168424.7°C77.3%20.5°C2330ft (710m)12.62v31
306115 Apr 04:34:1479 mph10SSW (206°)9953410168124.7°C77.3%20.5°C2330ft (710m)12.61v31
306015 Apr 04:34:0378.9 mph10SSW (209°)9953110167824.7°C77.3%20.5°C2330ft (710m)12.59v31
305915 Apr 04:33:5279.5 mph13SSW (209°)9953510168224.7°C77.2%20.4°C2338ft (713m)12.61v31
305815 Apr 04:33:4056.5 mph9SSW (201°)9952410167124.7°C77.4%20.5°C2321ft (707m)12.62v31
305715 Apr 04:33:2966.4 mph7SW (216°)9953110167824.7°C77.4%20.5°C2321ft (707m)12.63v31
305615 Apr 04:33:1888.5 mph10SSW (208°)9952910167624.7°C77.3%20.5°C2330ft (710m)12.62v31
305515 Apr 04:33:07910.2 mph12SSW (207°)9952910167624.7°C77.3%20.5°C2330ft (710m)12.62v31
305415 Apr 04:32:551011.5 mph13SSW (206°)9952810167524.6°C77.3%20.4°C2328ft (710m)12.62v31
305315 Apr 04:32:44910.6 mph12SSW (203°)9952910167624.7°C77.2%20.4°C2338ft (713m)12.61v31
305215 Apr 04:32:33910.2 mph12SSW (198°)9953310168024.7°C77.2%20.4°C2338ft (713m)12.62v31
305115 Apr 04:32:2288.8 mph10SSW (209°)9953110167824.7°C77.2%20.4°C2338ft (713m)12.6v31
305015 Apr 04:32:101010.5 mph12SSW (197°)9952610167324.7°C77.2%20.4°C2338ft (713m)12.63v31
304915 Apr 04:31:59910.7 mph12SSW (197°)9952710167424.7°C77.2%20.4°C2338ft (713m)12.61v31
304815 Apr 04:31:4888.1 mph10SSW (199°)9952710167424.7°C77.2%20.4°C2338ft (713m)12.62v31
304715 Apr 04:31:3799.7 mph11SSW (203°)9952810167524.7°C77.2%20.4°C2338ft (713m)12.61v31
304615 Apr 04:31:2567.8 mph10SSW (203°)9952710167424.7°C77.3%20.5°C2330ft (710m)12.61v31
304515 Apr 04:31:1488.9 mph10SSW (192°)9952710167424.7°C77.2%20.4°C2338ft (713m)12.61v31
304415 Apr 04:31:0357.9 mph10SSW (193°)9952710167424.7°C77.2%20.4°C2338ft (713m)12.6v31
304315 Apr 04:30:5289.5 mph12S (188°)9952710167424.7°C77%20.4°C2355ft (718m)12.61v31
304215 Apr 04:30:4088.3 mph9SSW (198°)9952410167124.7°C77.1%20.4°C2347ft (715m)12.62v31
304115 Apr 04:30:2977.5 mph9SSW (195°)9952810167524.7°C77.2%20.4°C2338ft (713m)12.63v31
304015 Apr 04:30:1877.7 mph9SSW (202°)9952610167324.7°C77.1%20.4°C2347ft (715m)12.61v31
303915 Apr 04:30:0778.3 mph9SSW (201°)9952610167324.7°C77.2%20.4°C2338ft (713m)12.61v31
303815 Apr 04:29:5556.4 mph8SSW (206°)9952510167224.7°C77.2%20.4°C2338ft (713m)12.62v31
303715 Apr 04:29:4456.9 mph8SSW (212°)9952510167224.7°C77.2%20.4°C2338ft (713m)12.6v31
303615 Apr 04:29:3357.5 mph9SSW (193°)9952310167024.7°C77.2%20.4°C2338ft (713m)12.62v31
303515 Apr 04:29:2278.5 mph10SSW (199°)9952310167024.7°C77.1%20.4°C2347ft (715m)12.61v31
303415 Apr 04:29:1088.5 mph10SSW (208°)9952410167124.8°C77.1%20.5°C2348ft (716m)12.6v31
303315 Apr 04:28:5977.5 mph8SSW (201°)9952110166824.7°C77.1%20.4°C2347ft (715m)12.62v31
303215 Apr 04:28:4878.2 mph10SSW (202°)9952410167124.8°C77.1%20.5°C2348ft (716m)12.63v31
303115 Apr 04:28:3767.4 mph9SSW (206°)9952410167124.7°C77%20.4°C2355ft (718m)12.62v31
303015 Apr 04:28:2577.2 mph8SSW (208°)9952110166824.7°C77.2%20.4°C2338ft (713m)12.62v31
302915 Apr 04:28:1467.3 mph10SSW (213°)9952110166824.8°C77.1%20.5°C2348ft (716m)12.61v31
302815 Apr 04:28:0377.5 mph8SSW (212°)9951610166324.7°C77.2%20.4°C2338ft (713m)12.59v31
302715 Apr 04:27:5255.9 mph7SSW (207°)9951810166524.7°C77.3%20.5°C2330ft (710m)12.61v31
302615 Apr 04:27:4044.8 mph6SW (218°)9951910166624.7°C77.2%20.4°C2338ft (713m)12.61v31
302515 Apr 04:27:2967.4 mph9SSW (202°)9951910166624.7°C77.2%20.4°C2338ft (713m)12.62v31
302415 Apr 04:27:1868 mph9SW (217°)9951910166624.7°C77.1%20.4°C2347ft (715m)12.61v31
302315 Apr 04:27:0767.6 mph9SSW (204°)9951710166424.7°C77.1%20.4°C2347ft (715m)12.63v31
302215 Apr 04:26:5567.3 mph10SSW (201°)9951510166224.7°C77.2%20.4°C2338ft (713m)12.63v31
302115 Apr 04:26:4489.3 mph11SSW (201°)9951610166324.7°C77%20.4°C2355ft (718m)12.61v31
302015 Apr 04:26:3366.9 mph8SSW (203°)9951910166624.7°C77.2%20.4°C2338ft (713m)12.61v31
301915 Apr 04:26:2288.3 mph9SSW (204°)9951710166424.7°C77.1%20.4°C2347ft (715m)12.61v31
301815 Apr 04:26:1068.2 mph9SW (214°)9951410166124.7°C77.1%20.4°C2347ft (715m)12.6v31
301715 Apr 04:25:5987.8 mph9SSW (199°)9951410166124.7°C77%20.4°C2355ft (718m)12.63v31
301615 Apr 04:25:4878.5 mph10SSW (206°)9951610166324.8°C77.2%20.5°C2340ft (713m)12.61v31
301515 Apr 04:25:3788.7 mph10SSW (203°)9951310166024.8°C77.1%20.5°C2348ft (716m)12.62v31
301415 Apr 04:25:2588.4 mph10SSW (204°)9950510165124.8°C77.1%20.5°C2348ft (716m)12.61v31
301315 Apr 04:25:1456 mph8SSW (201°)9951310166024.8°C77.2%20.5°C2340ft (713m)12.61v31
301215 Apr 04:25:0367.2 mph9SW (214°)9951410166124.7°C77.2%20.4°C2338ft (713m)12.6v31
301115 Apr 04:24:5256.5 mph8SSW (212°)9951110165724.7°C77.2%20.4°C2338ft (713m)12.62v31
301015 Apr 04:24:4057.2 mph9SSW (211°)9951210165824.7°C77.2%20.4°C2338ft (713m)12.61v31
300915 Apr 04:24:2967.9 mph11SSW (203°)9951210165824.7°C77.3%20.5°C2330ft (710m)12.62v31
300815 Apr 04:24:1877.7 mph9SSW (213°)9951310166024.7°C77.2%20.4°C2338ft (713m)12.62v31
300715 Apr 04:24:0777.9 mph9SSW (212°)9951110165724.7°C77.1%20.4°C2347ft (715m)12.63v31
300615 Apr 04:23:5566.6 mph7SSW (210°)9951110165724.7°C77.2%20.4°C2338ft (713m)12.61v31
300515 Apr 04:23:4488.2 mph9SW (216°)9951110165724.7°C77.3%20.5°C2330ft (710m)12.61v31
300415 Apr 04:23:3378.6 mph10SSW (205°)9951110165724.7°C77.3%20.5°C2330ft (710m)12.61v31
300315 Apr 04:23:2277.8 mph10SSW (207°)9951210165824.7°C77.3%20.5°C2330ft (710m)12.61v31
300215 Apr 04:23:1078.5 mph9SSW (204°)9951310166024.7°C77.3%20.5°C2330ft (710m)12.62v31
300115 Apr 04:22:5999.3 mph11SSW (207°)9951310166024.7°C77.2%20.4°C2338ft (713m)12.61v31
300015 Apr 04:22:4878.9 mph10SSW (209°)9951010165624.7°C77.3%20.5°C2330ft (710m)12.63v31
299915 Apr 04:22:3755.4 mph7SSW (211°)9951310166024.7°C77.4%20.5°C2321ft (707m)12.62v31
299815 Apr 04:22:2557.3 mph9SSW (208°)9951110165724.7°C77.4%20.5°C2321ft (707m)12.62v31
299715 Apr 04:22:1477.9 mph9SW (215°)9950910165524.7°C77.4%20.5°C2321ft (707m)12.63v31
299615 Apr 04:22:0377.8 mph10SW (214°)9950910165524.7°C77.3%20.5°C2330ft (710m)12.61v31
299515 Apr 04:21:521011.2 mph12SSW (200°)9951110165724.7°C77.2%20.4°C2338ft (713m)12.62v31
299415 Apr 04:21:401111.5 mph12SSW (201°)9950610165224.7°C77.1%20.4°C2347ft (715m)12.61v31
299315 Apr 04:21:2988.7 mph11SSW (210°)9950810165424.7°C77.2%20.4°C2338ft (713m)12.61v31
299215 Apr 04:21:18810.3 mph12SSW (212°)9950810165424.7°C77%20.4°C2355ft (718m)12.62v31
299115 Apr 04:21:0789.9 mph12SSW (208°)9950010164624.8°C77.2%20.5°C2340ft (713m)12.61v31
299015 Apr 04:20:5588.7 mph9SSW (202°)9951010165624.7°C77.3%20.5°C2330ft (710m)12.62v31
298915 Apr 04:20:4478.2 mph10SSW (202°)9951110165724.7°C77.1%20.4°C2347ft (715m)12.62v31
298815 Apr 04:20:33910.1 mph12SSW (205°)9951310166024.7°C77.1%20.4°C2347ft (715m)12.62v31
298715 Apr 04:20:22810.1 mph12SSW (193°)9950710165324.8°C77.2%20.5°C2340ft (713m)12.61v31
298615 Apr 04:20:1098.9 mph10SW (218°)9950810165424.7°C77.2%20.4°C2338ft (713m)12.62v31
298515 Apr 04:19:5999.8 mph11SSW (194°)9950910165524.8°C77.2%20.5°C2340ft (713m)12.63v31
298415 Apr 04:19:4867.8 mph10SW (216°)9950910165524.7°C77.3%20.5°C2330ft (710m)12.63v31
298315 Apr 04:19:3789 mph10SSW (208°)9951110165724.7°C77.3%20.5°C2330ft (710m)12.61v31
298215 Apr 04:19:2589 mph11SSW (209°)9951310166024.7°C77.1%20.4°C2347ft (715m)12.62v31
298115 Apr 04:19:1479.5 mph12SW (221°)9951110165724.7°C77.2%20.4°C2338ft (713m)12.62v31
298015 Apr 04:19:031010.9 mph13SSW (210°)9950710165324.8°C77.2%20.5°C2340ft (713m)12.62v31
297915 Apr 04:18:5267.3 mph9SSW (211°)9951310166024.8°C77.2%20.5°C2340ft (713m)12.61v31
297815 Apr 04:18:4066.9 mph8SSW (211°)9951210165824.7°C77.2%20.4°C2338ft (713m)12.61v31
297715 Apr 04:18:2999.5 mph11SSW (210°)9951110165724.7°C77.2%20.4°C2338ft (713m)12.62v31
297615 Apr 04:18:1867.5 mph9SSW (202°)9951410166124.7°C77.1%20.4°C2347ft (715m)12.62v31
297515 Apr 04:18:0768.2 mph10SSW (199°)9951210165824.7°C77.2%20.4°C2338ft (713m)12.62v31
297415 Apr 04:17:551112.9 mph15SSW (192°)9950610165224.7°C77.1%20.4°C2347ft (715m)12.62v31
297315 Apr 04:17:4479.2 mph12SSW (198°)9950110164724.7°C77.1%20.4°C2347ft (715m)12.62v31
297215 Apr 04:17:3399.8 mph13SSW (193°)9950810165424.7°C77.1%20.4°C2347ft (715m)12.62v31
297115 Apr 04:17:22109.8 mph12S (191°)9951110165724.8°C77%20.5°C2357ft (718m)12.61v31
297015 Apr 04:17:1077.9 mph10SSW (199°)9951210165824.7°C77.1%20.4°C2347ft (715m)12.62v31
296915 Apr 04:16:5967.6 mph10SSW (206°)9951010165624.7°C77.1%20.4°C2347ft (715m)12.61v31
296815 Apr 04:16:4879.1 mph12SSW (209°)9951110165724.7°C77.2%20.4°C2338ft (713m)12.61v31
296715 Apr 04:16:37810.6 mph14SSW (211°)9951510166224.8°C77.1%20.5°C2348ft (716m)12.61v31
296615 Apr 04:16:25810.1 mph11SSW (204°)9951610166324.7°C77.2%20.4°C2338ft (713m)12.62v31
296515 Apr 04:16:14911.1 mph14SSW (204°)9951110165724.7°C77.1%20.4°C2347ft (715m)12.62v31
296415 Apr 04:16:0389.3 mph10SSW (203°)9951710166424.7°C77.1%20.4°C2347ft (715m)12.6v31
296315 Apr 04:15:521110.9 mph11SSW (197°)9951110165724.7°C77.1%20.4°C2347ft (715m)12.62v31
296215 Apr 04:15:40910.2 mph13SSW (208°)9951510166224.7°C77.1%20.4°C2347ft (715m)12.61v31
296115 Apr 04:15:2967.7 mph10SSW (211°)9951610166324.8°C77.2%20.5°C2340ft (713m)12.61v31
296015 Apr 04:15:181112.8 mph14SW (221°)9951310166024.7°C77.1%20.4°C2347ft (715m)12.61v31
295915 Apr 04:15:071112.3 mph14SSW (198°)9950610165224.8°C77%20.5°C2357ft (718m)12.62v31
295815 Apr 04:14:5579 mph11SSW (203°)9951510166224.7°C77.1%20.4°C2347ft (715m)12.63v31
295715 Apr 04:14:4477.6 mph9SSW (204°)9951510166224.7°C77.1%20.4°C2347ft (715m)12.61v31
295615 Apr 04:14:33910.7 mph12SSW (210°)9951610166324.7°C77.2%20.4°C2338ft (713m)12.63v31
295515 Apr 04:14:2278.4 mph10SSW (200°)9951410166124.7°C77.3%20.5°C2330ft (710m)12.61v31
295415 Apr 04:14:1078.1 mph10SSW (209°)9951910166624.7°C77.2%20.4°C2338ft (713m)12.62v31
295315 Apr 04:13:5978.4 mph11SSW (195°)9951510166224.7°C77.2%20.4°C2338ft (713m)12.61v31
295215 Apr 04:13:4889.6 mph12SW (214°)9951610166324.7°C77.1%20.4°C2347ft (715m)12.62v31
295115 Apr 04:13:371011.7 mph13SSW (208°)9951710166424.7°C77.1%20.4°C2347ft (715m)12.62v31
295015 Apr 04:13:25910 mph12SSW (194°)9951810166524.7°C77.1%20.4°C2347ft (715m)12.63v31
294915 Apr 04:13:1499.8 mph11SSW (197°)9951510166224.7°C77.1%20.4°C2347ft (715m)12.61v31
294815 Apr 04:13:0399.2 mph11SSW (211°)9952210166924.7°C77.2%20.4°C2338ft (713m)12.63v31
294715 Apr 04:12:5279.5 mph11SSW (200°)9951710166424.7°C77.1%20.4°C2347ft (715m)12.62v31
294615 Apr 04:12:4068.6 mph11SSW (204°)9951410166124.7°C77.3%20.5°C2330ft (710m)12.61v31
294515 Apr 04:12:2988.9 mph11SSW (203°)9951510166224.7°C77.2%20.4°C2338ft (713m)12.61v31
294415 Apr 04:12:18710 mph13SSW (200°)9951810166524.7°C77.2%20.4°C2338ft (713m)12.62v31
294315 Apr 04:12:071011.2 mph13S (189°)9951310166024.7°C77.1%20.4°C2347ft (715m)12.63v31
294215 Apr 04:11:551213.2 mph15SSW (201°)9951610166324.8°C77%20.5°C2357ft (718m)12.62v31
294115 Apr 04:11:4467.3 mph11SSW (213°)9951610166324.8°C77.1%20.5°C2348ft (716m)12.61v31
294015 Apr 04:11:3388.4 mph9SSW (197°)9951810166524.8°C77%20.5°C2357ft (718m)12.62v31
293915 Apr 04:11:2288.1 mph9SSW (209°)9951910166624.8°C77%20.5°C2357ft (718m)12.63v31
293815 Apr 04:11:1078.5 mph10SSW (209°)9951810166524.8°C77.1%20.5°C2348ft (716m)12.62v31
293715 Apr 04:10:5967 mph8SSW (208°)9952010166724.8°C77.3%20.6°C2331ft (710m)12.61v31
293615 Apr 04:10:4879.7 mph14SW (214°)9952110166824.8°C77.1%20.5°C2348ft (716m)12.62v31
293515 Apr 04:10:37812.2 mph17SSW (197°)9951010165624.8°C77%20.5°C2357ft (718m)12.64v31
293415 Apr 04:10:2578.7 mph10SSW (212°)9951810166524.8°C77%20.5°C2357ft (718m)12.62v31
293315 Apr 04:10:1499.6 mph11SW (216°)9952010166724.8°C76.9%20.5°C2365ft (721m)12.62v31
293215 Apr 04:10:0389.2 mph11SSW (208°)9951510166224.8°C77%20.5°C2357ft (718m)12.62v31
293115 Apr 04:09:5267.1 mph10SSW (203°)9951510166224.8°C77.2%20.5°C2340ft (713m)12.62v31
293015 Apr 04:09:4089.8 mph12SSW (207°)9951410166124.8°C76.9%20.5°C2365ft (721m)12.6v31
292915 Apr 04:09:2999.5 mph11SSW (199°)9951710166424.8°C77%20.5°C2357ft (718m)12.63v31
292815 Apr 04:09:181010.7 mph12SSW (198°)9951510166224.8°C76.9%20.5°C2365ft (721m)12.62v31
292715 Apr 04:09:0799.4 mph11SSW (196°)9951710166424.8°C77.1%20.5°C2348ft (716m)12.62v31
292615 Apr 04:08:5567.1 mph9SW (214°)9952010166724.8°C77.1%20.5°C2348ft (716m)12.63v31
292515 Apr 04:08:4477.5 mph9SSW (205°)9951810166524.8°C77.1%20.5°C2348ft (716m)12.61v31
292415 Apr 04:08:3367.2 mph9SSW (198°)9951410166124.8°C77.1%20.5°C2348ft (716m)12.62v31
292315 Apr 04:08:2277.6 mph9SSW (200°)9952110166824.8°C77%20.5°C2357ft (718m)12.62v31
292215 Apr 04:08:1077.6 mph9SSW (204°)9951610166324.8°C77.1%20.5°C2348ft (716m)12.61v31
292115 Apr 04:07:5999.7 mph10SSW (200°)9951910166624.8°C77%20.5°C2357ft (718m)12.61v31
292015 Apr 04:07:4877.8 mph9SSW (198°)9951810166524.8°C77.1%20.5°C2348ft (716m)12.61v31
291915 Apr 04:07:371010.4 mph11SW (225°)9952110166824.8°C77.1%20.5°C2348ft (716m)12.62v31
291815 Apr 04:07:2588.9 mph10SSW (201°)9951810166524.8°C77.2%20.5°C2340ft (713m)12.63v31
291715 Apr 04:07:1468.2 mph11S (189°)9951810166524.8°C77.1%20.5°C2348ft (716m)12.62v31
291615 Apr 04:07:0399.9 mph13S (190°)9950010164624.8°C77%20.5°C2357ft (718m)12.62v31
291515 Apr 04:06:5299.8 mph11SSW (206°)9951510166224.8°C76.9%20.5°C2365ft (721m)12.63v31
291415 Apr 04:06:4088.5 mph9SSW (207°)9951610166324.8°C77.1%20.5°C2348ft (716m)12.62v31
291315 Apr 04:06:2966.9 mph8SSW (204°)9951610166324.8°C77.2%20.5°C2340ft (713m)12.6v31
291215 Apr 04:06:1855.7 mph6SSW (209°)9951810166524.8°C77.2%20.5°C2340ft (713m)12.62v31
291115 Apr 04:06:0768.5 mph11SSW (210°)9951710166424.8°C77%20.5°C2357ft (718m)12.63v31
291015 Apr 04:05:5567.6 mph11SSW (204°)9951610166324.8°C77.1%20.5°C2348ft (716m)12.64v31
290915 Apr 04:05:4478.2 mph9SSW (211°)9951710166424.8°C77%20.5°C2357ft (718m)12.63v31
290815 Apr 04:05:3389 mph10SSW (202°)9951510166224.8°C77.1%20.5°C2348ft (716m)12.62v31
290715 Apr 04:05:2277.9 mph9SSW (212°)9951910166624.8°C77%20.5°C2357ft (718m)12.62v31
290615 Apr 04:05:1067.9 mph10SSW (199°)9951510166224.8°C77%20.5°C2357ft (718m)12.62v31
290515 Apr 04:04:5979 mph10SSW (206°)9951610166324.8°C76.9%20.5°C2365ft (721m)12.63v31
290415 Apr 04:04:4877.7 mph8SSW (205°)9951710166424.8°C77.1%20.5°C2348ft (716m)12.62v31
290315 Apr 04:04:3779.3 mph11SSW (203°)9951410166124.8°C76.9%20.5°C2365ft (721m)12.62v31
290215 Apr 04:04:2588.7 mph10SSW (202°)9951210165824.8°C77.1%20.5°C2348ft (716m)12.63v31
290115 Apr 04:04:1467.5 mph9SW (217°)9951410166124.8°C77.1%20.5°C2348ft (716m)12.62v31
290015 Apr 04:04:0377.5 mph8SSW (210°)9951510166224.8°C77.1%20.5°C2348ft (716m)12.62v31
289915 Apr 04:03:5278.2 mph10SSW (204°)9951410166124.8°C77.1%20.5°C2348ft (716m)12.62v31
289815 Apr 04:03:4056.2 mph7SSW (211°)9951310166024.8°C77.2%20.5°C2340ft (713m)12.6v31
289715 Apr 04:03:2955.4 mph6SSW (205°)9951410166124.8°C77.3%20.6°C2331ft (710m)12.62v31
289615 Apr 04:03:1867.6 mph10SSW (198°)9951510166224.8°C77.2%20.5°C2340ft (713m)12.62v31
289515 Apr 04:03:07911.1 mph13SSW (197°)9951510166224.8°C77%20.5°C2357ft (718m)12.63v31
289415 Apr 04:02:5589 mph11SSW (207°)9951010165624.8°C77%20.5°C2357ft (718m)12.63v31
289315 Apr 04:02:4477.2 mph8SSW (201°)9950710165324.8°C77.2%20.5°C2340ft (713m)12.62v31
289215 Apr 04:02:3356.5 mph8SSW (199°)9950810165424.8°C77.2%20.5°C2340ft (713m)12.64v31
289115 Apr 04:02:2299.1 mph10SSW (209°)9951210165824.8°C77.2%20.5°C2340ft (713m)12.61v31
289015 Apr 04:02:1067.1 mph9SSW (211°)9950610165224.8°C77.2%20.5°C2340ft (713m)12.63v31
288915 Apr 04:01:5966.4 mph8SSW (206°)9950810165424.7°C77.4%20.5°C2321ft (707m)12.61v31
288815 Apr 04:01:4865.9 mph6SW (228°)9950710165324.8°C77.3%20.6°C2331ft (710m)12.64v31
288715 Apr 04:01:3766.2 mph7SW (216°)9950610165224.8°C77.4%20.6°C2322ft (708m)12.62v31
288615 Apr 04:01:2566.6 mph7SSW (208°)9951010165624.8°C77.2%20.5°C2340ft (713m)12.63v31
288515 Apr 04:01:1466.5 mph8SSW (208°)9950710165324.8°C77.3%20.6°C2331ft (710m)12.63v31
288415 Apr 04:01:03810 mph13SSW (192°)9950810165424.8°C77.1%20.5°C2348ft (716m)12.61v31
288315 Apr 04:00:5299.8 mph12S (189°)9950710165324.7°C77.1%20.4°C2347ft (715m)12.64v31
288215 Apr 04:00:401010.3 mph11SSW (205°)9950810165424.8°C77.1%20.5°C2348ft (716m)12.62v31
288115 Apr 04:00:2999.7 mph11SSW (198°)9950510165124.8°C77.2%20.5°C2340ft (713m)12.62v31
288015 Apr 04:00:191010.1 mph11SW (215°)9950610165224.7°C77.1%20.4°C2347ft (715m)12.61v31
287915 Apr 04:00:081010.9 mph12SSW (201°)9950610165224.8°C77%20.5°C2357ft (718m)12.62v31
287815 Apr 03:59:5699.4 mph11SSW (199°)9951110165724.8°C77.1%20.5°C2348ft (716m)12.63v31
287715 Apr 03:59:4599.8 mph12SSW (206°)9950910165524.7°C77.2%20.4°C2338ft (713m)12.63v31
287615 Apr 03:59:3488.7 mph12SSW (212°)9951010165624.7°C77.3%20.5°C2330ft (710m)12.61v31
287515 Apr 03:59:23911.6 mph14SSW (205°)9950910165524.7°C77.2%20.4°C2338ft (713m)12.63v31
287415 Apr 03:59:1199.4 mph12SSW (206°)9951010165624.7°C77.2%20.4°C2338ft (713m)12.62v31
287315 Apr 03:59:001211.9 mph12SSW (208°)9950910165524.7°C77.1%20.4°C2347ft (715m)12.62v31
287215 Apr 03:58:4979.5 mph14SSW (192°)9950310164924.7°C77.3%20.5°C2330ft (710m)12.63v31
287115 Apr 03:58:381010.6 mph11SSW (202°)9950810165424.7°C77.2%20.4°C2338ft (713m)12.62v31
287015 Apr 03:58:2668.8 mph11SSW (212°)9951310166024.7°C77.2%20.4°C2338ft (713m)12.62v31
286915 Apr 03:58:1579.4 mph12SSW (196°)9950910165524.7°C77.2%20.4°C2338ft (713m)12.64v31
286815 Apr 03:58:041011.1 mph13SSW (205°)9950910165524.8°C77.1%20.5°C2348ft (716m)12.63v31
286715 Apr 03:57:53910.9 mph12SSW (205°)9950510165124.8°C77.1%20.5°C2348ft (716m)12.62v31
286615 Apr 03:57:4189.3 mph11SSW (200°)9950810165424.8°C77.2%20.5°C2340ft (713m)12.64v31
286515 Apr 03:57:3089.3 mph11SSW (209°)9950910165524.8°C77.3%20.6°C2331ft (710m)12.62v31
286415 Apr 03:57:18910 mph12S (187°)9950710165324.7°C77.2%20.4°C2338ft (713m)12.62v31
286315 Apr 03:57:0789.1 mph10SSW (208°)9950610165224.7°C77.2%20.4°C2338ft (713m)12.62v31
286215 Apr 03:56:55911.1 mph12S (190°)9950910165524.8°C77.1%20.5°C2348ft (716m)12.63v31
286115 Apr 03:56:4479.8 mph12SSW (194°)9950310164924.8°C77.1%20.5°C2348ft (716m)12.64v31
286015 Apr 03:56:3357 mph10SSW (203°)9950710165324.8°C77.2%20.5°C2340ft (713m)12.63v31
285915 Apr 03:56:2289 mph10SSW (211°)9950910165524.8°C77%20.5°C2357ft (718m)12.63v31
285815 Apr 03:56:1089.9 mph12SSW (195°)9951010165624.8°C77.2%20.5°C2340ft (713m)12.63v31
285715 Apr 03:55:5988.5 mph10SSW (212°)9950710165324.8°C77.2%20.5°C2340ft (713m)12.62v31
285615 Apr 03:55:4867 mph8SSW (213°)9951210165824.8°C77.3%20.6°C2331ft (710m)12.62v31
285515 Apr 03:55:3799.6 mph11SSW (203°)9951010165624.8°C77%20.5°C2357ft (718m)12.63v31
285415 Apr 03:55:2579.4 mph11SSW (201°)9950910165524.8°C77.1%20.5°C2348ft (716m)12.62v31
285315 Apr 03:55:1488.8 mph10SSW (195°)9951110165724.8°C77.1%20.5°C2348ft (716m)12.63v31
285215 Apr 03:55:0399.7 mph11SSW (199°)9951110165724.8°C77.1%20.5°C2348ft (716m)12.63v31
285115 Apr 03:54:5266.5 mph8SSW (209°)9951210165824.8°C77.3%20.6°C2331ft (710m)12.62v31
285015 Apr 03:54:4067.5 mph9SW (214°)9950610165224.8°C77.1%20.5°C2348ft (716m)12.62v31
284915 Apr 03:54:2966.4 mph8SSW (209°)9951110165724.8°C77.2%20.5°C2340ft (713m)12.62v31
284815 Apr 03:54:19910.2 mph11SSW (197°)9950810165424.8°C77%20.5°C2357ft (718m)12.6v31
284715 Apr 03:54:0889.8 mph12SSW (200°)9950910165524.8°C77.1%20.5°C2348ft (716m)12.62v31
284615 Apr 03:53:5678.3 mph10SW (215°)9950310164924.8°C77.1%20.5°C2348ft (716m)12.62v31
284515 Apr 03:53:4567.5 mph9SSW (205°)9951010165624.8°C77.2%20.5°C2340ft (713m)12.63v31
284415 Apr 03:53:3477.6 mph9SSW (197°)9950810165424.8°C77.1%20.5°C2348ft (716m)12.64v31
284315 Apr 03:53:2366.9 mph9SW (215°)9950110164724.8°C77.2%20.5°C2340ft (713m)12.63v31
284215 Apr 03:53:1177.2 mph8SSW (211°)9950810165424.8°C77.1%20.5°C2348ft (716m)12.62v31
284115 Apr 03:53:0067.5 mph10SSW (207°)9951010165624.8°C77.1%20.5°C2348ft (716m)12.62v31
284015 Apr 03:52:4978.3 mph9SSW (201°)9950510165124.8°C77.1%20.5°C2348ft (716m)12.62v31
283915 Apr 03:52:3845.8 mph8SW (215°)9950710165324.8°C77.1%20.5°C2348ft (716m)12.62v31
283815 Apr 03:52:2667.3 mph9SSW (212°)9950610165224.8°C77.1%20.5°C2348ft (716m)12.62v31
283715 Apr 03:52:1589.2 mph10SSW (210°)9951010165624.8°C77%20.5°C2357ft (718m)12.64v31
283615 Apr 03:52:0455.7 mph6SW (214°)9950510165124.8°C77.2%20.5°C2340ft (713m)12.64v31
283515 Apr 03:51:5366.5 mph7SW (218°)9950810165424.8°C77.2%20.5°C2340ft (713m)12.63v31
283415 Apr 03:51:4167.2 mph9SSW (211°)9950610165224.8°C77.2%20.5°C2340ft (713m)12.62v31
283315 Apr 03:51:3055.9 mph7SW (218°)9950710165324.8°C77.3%20.6°C2331ft (710m)12.63v31
283215 Apr 03:51:1978.2 mph9SSW (203°)9950610165224.8°C77.1%20.5°C2348ft (716m)12.63v31
283115 Apr 03:51:0899.3 mph11SSW (210°)9950610165224.8°C77.3%20.6°C2331ft (710m)12.62v31
283015 Apr 03:50:5678.5 mph10SSW (206°)9950510165124.8°C77.3%20.6°C2331ft (710m)12.62v31
282915 Apr 03:50:4566.9 mph8SSW (213°)9950410165024.8°C77.3%20.6°C2331ft (710m)12.62v31
282815 Apr 03:50:3477.3 mph8SSW (209°)9950410165024.8°C77.3%20.6°C2331ft (710m)12.64v31
282715 Apr 03:50:2356.5 mph10SSW (211°)9950510165124.8°C77.4%20.6°C2322ft (708m)12.63v31
282615 Apr 03:50:1166.6 mph7SSW (213°)9950610165224.8°C77.3%20.6°C2331ft (710m)12.64v31
282515 Apr 03:50:0056.1 mph8SSW (207°)9950410165024.8°C77.2%20.5°C2340ft (713m)12.63v31
282415 Apr 03:49:4979 mph10SW (219°)9950410165024.8°C77.2%20.5°C2340ft (713m)12.62v31
282315 Apr 03:49:3855.7 mph7SW (215°)9950510165124.8°C77.3%20.6°C2331ft (710m)12.62v31
282215 Apr 03:49:2656.7 mph9SW (216°)9950510165124.8°C77.3%20.6°C2331ft (710m)12.62v31
282115 Apr 03:49:1576.8 mph7SSW (205°)9950510165124.8°C77.3%20.6°C2331ft (710m)12.62v31
282015 Apr 03:49:0444.7 mph7SSW (209°)9950410165024.8°C77.4%20.6°C2322ft (708m)12.64v31
281915 Apr 03:48:5356.2 mph9SSW (204°)9950510165124.8°C77.3%20.6°C2331ft (710m)12.63v31
281815 Apr 03:48:4167.8 mph9SSW (201°)9950410165024.7°C77.3%20.5°C2330ft (710m)12.63v31
281715 Apr 03:48:3099.8 mph11SSW (199°)9949810164424.7°C77.2%20.4°C2338ft (713m)12.63v31
281615 Apr 03:48:191111.8 mph13SSW (197°)9950210164824.7°C77.1%20.4°C2347ft (715m)12.62v31
281515 Apr 03:48:0879.1 mph11SSW (197°)9950610165224.7°C77.3%20.5°C2330ft (710m)12.63v31
281415 Apr 03:47:5699.9 mph12SSW (203°)9950710165324.8°C77.1%20.5°C2348ft (716m)12.62v31
281315 Apr 03:47:4579.7 mph12SSW (209°)9950610165224.8°C77.3%20.6°C2331ft (710m)12.62v31
281215 Apr 03:47:3455.9 mph7SSW (213°)9950110164724.8°C77.4%20.6°C2322ft (708m)12.65v31
281115 Apr 03:47:2366.7 mph8SW (225°)9950510165124.8°C77.4%20.6°C2322ft (708m)12.62v31
281015 Apr 03:47:1179 mph11SSW (192°)9950210164824.7°C77.3%20.5°C2330ft (710m)12.62v31
280915 Apr 03:47:00710.5 mph15SW (218°)9950010164624.7°C77.2%20.4°C2338ft (713m)12.63v31
280815 Apr 03:46:4978 mph11SW (222°)9950210164824.7°C77.2%20.4°C2338ft (713m)12.63v31
280715 Apr 03:46:3878.6 mph10SSW (204°)9949810164424.7°C77.3%20.5°C2330ft (710m)12.62v31
280615 Apr 03:46:2678 mph10SSW (206°)9950410165024.7°C77.4%20.5°C2321ft (707m)12.61v31
280515 Apr 03:46:1589.7 mph11SSW (203°)9950210164824.7°C77.3%20.5°C2330ft (710m)12.62v31
280415 Apr 03:46:0479.3 mph14SSW (207°)9949910164524.7°C77.4%20.5°C2321ft (707m)12.63v31
280315 Apr 03:45:5377.8 mph11SSW (202°)9949710164324.7°C77.4%20.5°C2321ft (707m)12.63v31
280215 Apr 03:45:4179.6 mph11SSW (202°)9950410165024.7°C77.3%20.5°C2330ft (710m)12.62v31
280115 Apr 03:45:3078.9 mph13SSW (211°)9950210164824.8°C77.3%20.6°C2331ft (710m)12.63v31
280015 Apr 03:45:191010.7 mph12SSW (198°)9950310164924.7°C77.2%20.4°C2338ft (713m)12.63v31
279915 Apr 03:45:0866.9 mph8SW (214°)9950510165124.7°C77.4%20.5°C2321ft (707m)12.62v31
279815 Apr 03:44:5678.9 mph11SSW (207°)9950110164724.7°C77.2%20.4°C2338ft (713m)12.63v31
279715 Apr 03:44:4578.1 mph10SSW (192°)9949910164524.7°C77.3%20.5°C2330ft (710m)12.63v31
279615 Apr 03:44:3488.4 mph9SSW (210°)9949810164424.7°C77.4%20.5°C2321ft (707m)12.63v31
279515 Apr 03:44:23910.2 mph12SSW (201°)9949910164524.7°C77.3%20.5°C2330ft (710m)12.63v31
279415 Apr 03:44:1158.9 mph12SSW (203°)9949910164524.7°C77.3%20.5°C2330ft (710m)12.64v31
279315 Apr 03:44:001113.2 mph16S (190°)9949710164324.8°C77.2%20.5°C2340ft (713m)12.63v31
279215 Apr 03:43:49910.6 mph13SSW (198°)9949210163824.8°C77.2%20.5°C2340ft (713m)12.63v31
279115 Apr 03:43:3878.7 mph11SSW (207°)9950110164724.8°C77.2%20.5°C2340ft (713m)12.62v31
279015 Apr 03:43:2678.2 mph11SSW (201°)9950410165024.8°C77%20.5°C2357ft (718m)12.63v31
278915 Apr 03:43:15910.4 mph12SSW (206°)9950410165024.8°C77.1%20.5°C2348ft (716m)12.61v31
278815 Apr 03:43:0477.3 mph8SSW (203°)9950210164824.8°C77.2%20.5°C2340ft (713m)12.64v31
278715 Apr 03:42:5377.9 mph9SSW (213°)9950210164824.8°C77.2%20.5°C2340ft (713m)12.64v31
278615 Apr 03:42:4189.1 mph11SSW (198°)9950110164724.8°C77.1%20.5°C2348ft (716m)12.63v31
278515 Apr 03:42:3089.7 mph11SSW (203°)9950110164724.8°C77.2%20.5°C2340ft (713m)12.63v31
278415 Apr 03:42:1978.2 mph10SSW (212°)9950010164624.8°C77.2%20.5°C2340ft (713m)12.64v31
278315 Apr 03:42:0766.9 mph8SW (217°)9949810164424.8°C77.3%20.6°C2331ft (710m)12.62v31
278215 Apr 03:41:5677.1 mph9SW (218°)9950210164824.8°C77.3%20.6°C2331ft (710m)12.62v31
278115 Apr 03:41:4578.3 mph9SSW (199°)9949910164524.8°C77.1%20.5°C2348ft (716m)12.63v31
278015 Apr 03:41:3489.1 mph10SSW (194°)9950010164624.7°C77.1%20.4°C2347ft (715m)12.64v31
277915 Apr 03:41:221111 mph12SSW (213°)9950210164824.8°C77.1%20.5°C2348ft (716m)12.63v31
277815 Apr 03:41:1167.3 mph9SSW (208°)9949710164324.8°C77.3%20.6°C2331ft (710m)12.64v31
277715 Apr 03:41:0077.9 mph9SSW (199°)9950310164924.8°C77.2%20.5°C2340ft (713m)12.63v31
277615 Apr 03:40:4977.9 mph10SSW (206°)9949910164524.7°C77.3%20.5°C2330ft (710m)12.64v31
277515 Apr 03:40:3777.3 mph10SSW (209°)9950010164624.7°C77.3%20.5°C2330ft (710m)12.62v31
277415 Apr 03:40:2667.3 mph9SSW (202°)9950010164624.7°C77.4%20.5°C2321ft (707m)12.63v31
277315 Apr 03:40:15910.7 mph12SSW (203°)9950110164724.7°C77.3%20.5°C2330ft (710m)12.62v31
277215 Apr 03:40:0489.5 mph11SSW (201°)9949910164524.7°C77.3%20.5°C2330ft (710m)12.64v31
277115 Apr 03:39:5278.3 mph9SSW (206°)9949610164224.7°C77.4%20.5°C2321ft (707m)12.62v31
277015 Apr 03:39:4177.9 mph10SW (228°)9949910164524.7°C77.4%20.5°C2321ft (707m)12.63v31
276915 Apr 03:39:3068.2 mph11SW (219°)9949810164424.7°C77.4%20.5°C2321ft (707m)12.63v31
276815 Apr 03:39:1999.4 mph10SSW (205°)9949610164224.7°C77.4%20.5°C2321ft (707m)12.64v31
276715 Apr 03:39:08911.4 mph14SSW (207°)9950610165224.7°C77.3%20.5°C2330ft (710m)12.64v31
276615 Apr 03:38:56911.7 mph13SSW (201°)9949910164524.7°C77.3%20.5°C2330ft (710m)12.63v31
276515 Apr 03:38:451011.5 mph14SSW (200°)9949010163624.7°C77.4%20.5°C2321ft (707m)12.63v31
276415 Apr 03:38:3466.2 mph7SSW (208°)9950010164624.7°C77.5%20.5°C2312ft (705m)12.64v31
276315 Apr 03:38:2335.4 mph7SSW (203°)9950110164724.7°C77.5%20.5°C2312ft (705m)12.64v31
276215 Apr 03:38:1177.9 mph10SSW (203°)9949810164424.7°C77.4%20.5°C2321ft (707m)12.63v31
276115 Apr 03:38:0067.3 mph9SSW (209°)9949710164324.7°C77.4%20.5°C2321ft (707m)12.64v31
276015 Apr 03:37:4988.5 mph10S (190°)9949210163824.7°C77.2%20.4°C2338ft (713m)12.63v31
275915 Apr 03:37:3866.6 mph8SSW (205°)9949710164324.7°C77.5%20.5°C2312ft (705m)12.63v31
275815 Apr 03:37:2668.3 mph10SSW (205°)9949610164224.7°C77.5%20.5°C2312ft (705m)12.62v31
275715 Apr 03:37:1588.8 mph11SSW (197°)9949210163824.7°C77.3%20.5°C2330ft (710m)12.62v31
275615 Apr 03:37:0477.8 mph10SSW (200°)9949710164324.7°C77.5%20.5°C2312ft (705m)12.63v31
275515 Apr 03:36:5399.7 mph11SSW (196°)9950010164624.7°C77.3%20.5°C2330ft (710m)12.63v31
275415 Apr 03:36:411212.5 mph13SSW (195°)9949510164124.7°C77.3%20.5°C2330ft (710m)12.65v31
275315 Apr 03:36:30910.7 mph14SSW (194°)9949310163924.7°C77.4%20.5°C2321ft (707m)12.64v31
275215 Apr 03:36:1979.2 mph11SSW (202°)9949110163724.7°C77.4%20.5°C2321ft (707m)12.62v31
275115 Apr 03:36:0888.6 mph10SSW (199°)9949810164424.7°C77.4%20.5°C2321ft (707m)12.64v31
275015 Apr 03:35:56911.5 mph14SSW (199°)9949510164124.7°C77.2%20.4°C2338ft (713m)12.64v31
274915 Apr 03:35:45910.7 mph14SSW (206°)9949610164224.7°C77.4%20.5°C2321ft (707m)12.63v31
274815 Apr 03:35:341213.3 mph15SSW (199°)9948910163524.7°C77.3%20.5°C2330ft (710m)12.63v31
274715 Apr 03:35:23911 mph13SSW (201°)9950110164724.7°C77.3%20.5°C2330ft (710m)12.63v31
274615 Apr 03:35:11810.8 mph13SSW (192°)9949410164024.7°C77.4%20.5°C2321ft (707m)12.64v31
274515 Apr 03:35:001011.4 mph13SSW (196°)9949910164524.7°C77.3%20.5°C2330ft (710m)12.64v31
274415 Apr 03:34:49910.4 mph11SSW (196°)9949610164224.7°C77.3%20.5°C2330ft (710m)12.64v31
274315 Apr 03:34:38911.3 mph14SSW (202°)9949910164524.7°C77.4%20.5°C2321ft (707m)12.64v31
274215 Apr 03:34:26610.2 mph14SSW (194°)9949410164024.7°C77.3%20.5°C2330ft (710m)12.62v31
274115 Apr 03:34:1577.7 mph8SW (214°)9949710164324.7°C77.4%20.5°C2321ft (707m)12.62v31
274015 Apr 03:34:0467.4 mph9SSW (202°)9949810164424.7°C77.4%20.5°C2321ft (707m)12.63v31
273915 Apr 03:33:5367.6 mph11SW (217°)9949910164524.7°C77.4%20.5°C2321ft (707m)12.63v31
273815 Apr 03:33:4166.1 mph7SSW (209°)9949710164324.7°C77.6%20.5°C2304ft (702m)12.63v31
273715 Apr 03:33:3077.6 mph8SSW (212°)9949910164524.7°C77.5%20.5°C2312ft (705m)12.64v31
273615 Apr 03:33:191010.5 mph12SSW (203°)9949410164024.7°C77.5%20.5°C2312ft (705m)12.64v31
273515 Apr 03:33:0888.1 mph9SSW (211°)9950010164624.7°C77.5%20.5°C2312ft (705m)12.62v31
273415 Apr 03:32:5688.6 mph10SSW (206°)9949810164424.7°C77.4%20.5°C2321ft (707m)12.63v31
273315 Apr 03:32:4578 mph10SSW (205°)9949410164024.7°C77.4%20.5°C2321ft (707m)12.62v31
273215 Apr 03:32:3458.3 mph11SSW (206°)9949310163924.7°C77.6%20.5°C2304ft (702m)12.64v31
273115 Apr 03:32:2378.9 mph14SSW (204°)9949410164024.6°C77.7%20.4°C2294ft (699m)12.64v31
273015 Apr 03:32:111111.6 mph14SSW (198°)9949010163624.6°C77.5%20.4°C2311ft (704m)12.65v31
272915 Apr 03:32:00910.2 mph13S (189°)9949410164024.6°C77.6%20.4°C2303ft (702m)12.64v31
272815 Apr 03:31:49810.2 mph13S (191°)9949210163824.7°C77.4%20.5°C2321ft (707m)12.64v31
272715 Apr 03:31:38910.4 mph12SSW (200°)9949710164324.7°C77.5%20.5°C2312ft (705m)12.63v31
272615 Apr 03:31:2699.3 mph10SSW (208°)9949910164524.7°C77.4%20.5°C2321ft (707m)12.63v31
272515 Apr 03:31:15910.3 mph12SW (215°)9949510164124.7°C77.3%20.5°C2330ft (710m)12.63v31
272415 Apr 03:31:0488.6 mph10SSW (209°)9949710164324.7°C77.4%20.5°C2321ft (707m)12.64v31
272315 Apr 03:30:5378 mph9SSW (211°)9949910164524.7°C77.5%20.5°C2312ft (705m)12.63v31
272215 Apr 03:30:4189.1 mph10SSW (212°)9949910164524.7°C77.5%20.5°C2312ft (705m)12.64v31
272115 Apr 03:30:30910.7 mph13SSW (209°)9949610164224.7°C77.3%20.5°C2330ft (710m)12.65v31
272015 Apr 03:30:191010.7 mph12SSW (203°)9949610164224.7°C77.3%20.5°C2330ft (710m)12.63v31
271915 Apr 03:30:0867.4 mph10SSW (212°)9949310163924.7°C77.4%20.5°C2321ft (707m)12.63v31
271815 Apr 03:29:56810 mph13SSW (196°)9949810164424.7°C77.3%20.5°C2330ft (710m)12.64v31
271715 Apr 03:29:451111.9 mph13S (191°)9950010164624.7°C77.3%20.5°C2330ft (710m)12.63v31
271615 Apr 03:29:34910.9 mph13SSW (202°)9949310163924.7°C77.3%20.5°C2330ft (710m)12.62v31
271515 Apr 03:29:2367.3 mph9SSW (199°)9949510164124.7°C77.4%20.5°C2321ft (707m)12.64v31
271415 Apr 03:29:1176.9 mph9S (183°)9949810164424.7°C77.4%20.5°C2321ft (707m)12.64v31
271315 Apr 03:29:0078.6 mph10SSW (197°)9949710164324.7°C77.5%20.5°C2312ft (705m)12.64v31
271215 Apr 03:28:4977.9 mph9SSW (203°)9949710164324.7°C77.6%20.5°C2304ft (702m)12.62v31
271115 Apr 03:28:38910.5 mph12SSW (198°)9949410164024.7°C77.3%20.5°C2330ft (710m)12.62v31
271015 Apr 03:28:26910.1 mph11SSW (200°)9950010164624.7°C77.4%20.5°C2321ft (707m)12.64v31
270915 Apr 03:28:151011.1 mph13SSW (207°)9949510164124.7°C77.3%20.5°C2330ft (710m)12.63v31
270815 Apr 03:28:0478.2 mph11SSW (204°)9949710164324.7°C77.4%20.5°C2321ft (707m)12.63v31
270715 Apr 03:27:5399.4 mph10SSW (195°)9949910164524.7°C77.3%20.5°C2330ft (710m)12.64v31
270615 Apr 03:27:4177.5 mph9SSW (204°)9949510164124.7°C77.4%20.5°C2321ft (707m)12.63v31
270515 Apr 03:27:3077.8 mph11SSW (199°)9950410165024.7°C77.4%20.5°C2321ft (707m)12.64v31
270415 Apr 03:27:19710.2 mph12SSW (194°)9950010164624.7°C77.3%20.5°C2330ft (710m)12.64v31
270315 Apr 03:27:0767.9 mph10SSW (194°)9950010164624.7°C77.4%20.5°C2321ft (707m)12.63v31
270215 Apr 03:26:5678.3 mph10SSW (200°)9950010164624.7°C77.4%20.5°C2321ft (707m)12.64v31
270115 Apr 03:26:4589.8 mph11S (191°)9949710164324.7°C77.3%20.5°C2330ft (710m)12.62v31
270015 Apr 03:26:3478.3 mph10SSW (192°)9950010164624.7°C77.4%20.5°C2321ft (707m)12.62v31
269915 Apr 03:26:2267.2 mph9SSW (199°)9949910164524.7°C77.4%20.5°C2321ft (707m)12.63v31
269815 Apr 03:26:1178.4 mph10SW (214°)9950010164624.7°C77.2%20.4°C2338ft (713m)12.63v31
269715 Apr 03:26:0056.2 mph9SSW (202°)9949610164224.7°C77.5%20.5°C2312ft (705m)12.65v31
269615 Apr 03:25:4968.3 mph11SSW (193°)9950010164624.7°C77.2%20.4°C2338ft (713m)12.64v31
269515 Apr 03:25:3779.3 mph12SSW (202°)9949710164324.7°C77.3%20.5°C2330ft (710m)12.63v31
269415 Apr 03:25:2666.5 mph8SSW (211°)9950110164724.7°C77.4%20.5°C2321ft (707m)12.64v31
269315 Apr 03:25:1568.4 mph10SSW (205°)9950010164624.7°C77.4%20.5°C2321ft (707m)12.63v31
269215 Apr 03:25:0466.8 mph8SSW (201°)9950010164624.7°C77.4%20.5°C2321ft (707m)12.62v31
269115 Apr 03:24:5267.2 mph9SSW (206°)9950010164624.7°C77.5%20.5°C2312ft (705m)12.63v31
269015 Apr 03:24:4166.7 mph9SSW (205°)9950010164624.7°C77.5%20.5°C2312ft (705m)12.63v31
268915 Apr 03:24:3088.8 mph10SSW (198°)9949910164524.7°C77.5%20.5°C2312ft (705m)12.64v31
268815 Apr 03:24:1989.7 mph12SSW (197°)9949810164424.7°C77.3%20.5°C2330ft (710m)12.65v31
268715 Apr 03:24:0899.5 mph10SSW (194°)9950010164624.7°C77.5%20.5°C2312ft (705m)12.64v31
268615 Apr 03:23:5689.2 mph10SSW (199°)9949810164424.7°C77.5%20.5°C2312ft (705m)12.64v31
268515 Apr 03:23:451011.8 mph13SSW (199°)9949810164424.7°C77.5%20.5°C2312ft (705m)12.64v31
268415 Apr 03:23:3499.9 mph11S (186°)9950010164624.7°C77.4%20.5°C2321ft (707m)12.63v31
268315 Apr 03:23:2368 mph9SSW (198°)9949510164124.7°C77.4%20.5°C2321ft (707m)12.64v31
268215 Apr 03:23:1189.3 mph11SSW (201°)9949810164424.7°C77.5%20.5°C2312ft (705m)12.62v31
268115 Apr 03:23:00912.1 mph14SSW (197°)9949910164524.7°C77.4%20.5°C2321ft (707m)12.65v31
268015 Apr 03:22:491011.8 mph15SSW (207°)9948710163324.7°C77.4%20.5°C2321ft (707m)12.65v31
267915 Apr 03:22:3889.3 mph13SW (214°)9949210163824.7°C77.3%20.5°C2330ft (710m)12.63v31
267815 Apr 03:22:2689 mph10SSW (210°)9949210163824.7°C77.1%20.4°C2347ft (715m)12.65v31
267715 Apr 03:22:15910.2 mph12SSW (206°)9949510164124.7°C77.1%20.4°C2347ft (715m)12.63v31
267615 Apr 03:22:0489.2 mph10SSW (198°)9949410164024.8°C77.2%20.5°C2340ft (713m)12.62v31
267515 Apr 03:21:5389.1 mph11SSW (201°)9949910164524.7°C77.1%20.4°C2347ft (715m)12.63v31
267415 Apr 03:21:411010.6 mph11SSW (195°)9949010163624.7°C77.1%20.4°C2347ft (715m)12.63v31
267315 Apr 03:21:301112.3 mph14S (189°)9949810164424.8°C77.1%20.5°C2348ft (716m)12.63v31
267215 Apr 03:21:1989.8 mph11SSW (194°)9949410164024.8°C77.1%20.5°C2348ft (716m)12.63v31
267115 Apr 03:21:0878.4 mph10S (188°)9950010164624.8°C77%20.5°C2357ft (718m)12.64v31
267015 Apr 03:20:5678 mph9S (191°)9950110164724.8°C77.2%20.5°C2340ft (713m)12.64v31
266915 Apr 03:20:4579.7 mph14SSW (200°)9949810164424.8°C77%20.5°C2357ft (718m)12.64v31
266815 Apr 03:20:34710.1 mph14SSW (203°)9949310163924.8°C77.1%20.5°C2348ft (716m)12.62v31
266715 Apr 03:20:2378 mph10SSW (210°)9949810164424.8°C77.2%20.5°C2340ft (713m)12.64v31
266615 Apr 03:20:1178.4 mph10SSW (201°)9950210164824.8°C77%20.5°C2357ft (718m)12.63v31
266515 Apr 03:20:0067.8 mph10SW (217°)9950110164724.8°C77.2%20.5°C2340ft (713m)12.64v31
266415 Apr 03:19:4977.2 mph8SSW (212°)9950210164824.8°C77.1%20.5°C2348ft (716m)12.64v31
266315 Apr 03:19:3888.5 mph10SSW (203°)9949910164524.8°C77.3%20.6°C2331ft (710m)12.64v31
266215 Apr 03:19:2677.5 mph9SSW (207°)9950410165024.8°C77.3%20.6°C2331ft (710m)12.65v31
266115 Apr 03:19:1578.2 mph10SSW (208°)9950310164924.8°C77.3%20.6°C2331ft (710m)12.64v31
266015 Apr 03:19:0478 mph10SSW (195°)9950010164624.8°C77.1%20.5°C2348ft (716m)12.64v31
265915 Apr 03:18:5366.5 mph7SSW (206°)9950210164824.8°C77.3%20.6°C2331ft (710m)12.62v31
265815 Apr 03:18:4156.9 mph9S (189°)9950310164924.8°C77.3%20.6°C2331ft (710m)12.64v31
265715 Apr 03:18:3078 mph10SSW (198°)9950310164924.8°C77.2%20.5°C2340ft (713m)12.62v31
265615 Apr 03:18:1979 mph12SSW (196°)9950210164824.8°C77%20.5°C2357ft (718m)12.65v31
265515 Apr 03:18:0866.9 mph9SSW (202°)9950510165124.8°C77.2%20.5°C2340ft (713m)12.64v31
265415 Apr 03:17:5678 mph9SSW (204°)9950510165124.8°C77.3%20.6°C2331ft (710m)12.63v31
265315 Apr 03:17:4567.3 mph9SSW (203°)9950310164924.8°C77.3%20.6°C2331ft (710m)12.65v31
265215 Apr 03:17:3488.4 mph10SSW (211°)9950210164824.8°C77.1%20.5°C2348ft (716m)12.64v31
265115 Apr 03:17:2367.8 mph10SSW (204°)9950410165024.8°C77.3%20.6°C2331ft (710m)12.63v31
265015 Apr 03:17:1167.5 mph9SSW (204°)9950610165224.8°C77.3%20.6°C2331ft (710m)12.63v31
264915 Apr 03:17:0099.6 mph11SSW (202°)9950110164724.8°C77.1%20.5°C2348ft (716m)12.64v31
264815 Apr 03:16:491012.5 mph15S (179°)9950410165024.8°C77.2%20.5°C2340ft (713m)12.64v31
264715 Apr 03:16:38911 mph15SSW (200°)9949810164424.8°C77%20.5°C2357ft (718m)12.65v31
264615 Apr 03:16:2678.8 mph11SSW (196°)9950210164824.8°C77%20.5°C2357ft (718m)12.64v31
264515 Apr 03:16:1566.8 mph8SSW (197°)9950710165324.8°C77.2%20.5°C2340ft (713m)12.64v31
264415 Apr 03:16:0479.1 mph11SSW (211°)9950210164824.8°C77%20.5°C2357ft (718m)12.64v31
264315 Apr 03:15:5389.1 mph10SSW (194°)9950510165124.8°C76.9%20.5°C2365ft (721m)12.63v31
264215 Apr 03:15:4199.8 mph12SSW (200°)9950610165224.8°C76.9%20.5°C2365ft (721m)12.64v31
264115 Apr 03:15:3078 mph9SW (214°)9950510165124.8°C76.9%20.5°C2365ft (721m)12.63v31
264015 Apr 03:15:1967.6 mph9SSW (203°)9950710165324.8°C77%20.5°C2357ft (718m)12.65v31
263915 Apr 03:15:0877.2 mph9SSW (205°)9950910165524.8°C77%20.5°C2357ft (718m)12.66v31
263815 Apr 03:14:5667.3 mph8SSW (209°)9950210164824.8°C77%20.5°C2357ft (718m)12.64v31
263715 Apr 03:14:4555.5 mph7SW (220°)9950710165324.8°C77%20.5°C2357ft (718m)12.64v31
263615 Apr 03:14:3455.7 mph6SSW (207°)9950710165324.8°C77%20.5°C2357ft (718m)12.63v31
263515 Apr 03:14:2344.5 mph6SW (216°)9950810165424.8°C77%20.5°C2357ft (718m)12.63v31
263415 Apr 03:14:1156 mph7SSW (203°)9950510165124.8°C77%20.5°C2357ft (718m)12.63v31
263315 Apr 03:14:0077.9 mph9SSW (205°)9950810165424.8°C77%20.5°C2357ft (718m)12.64v31
263215 Apr 03:13:4967.5 mph9SSW (205°)9950410165024.8°C76.8%20.4°C2374ft (724m)12.65v31
263115 Apr 03:13:3879.1 mph11SSW (208°)9950410165024.8°C76.9%20.5°C2365ft (721m)12.64v31
263015 Apr 03:13:2677 mph8SSW (205°)9950510165124.8°C76.9%20.5°C2365ft (721m)12.63v31
262915 Apr 03:13:1588.7 mph11SSW (194°)9950010164624.9°C76.6%20.5°C2393ft (729m)12.65v31
262815 Apr 03:13:0489.8 mph12SSW (197°)9950210164824.9°C76.8%20.5°C2375ft (724m)12.64v31
262715 Apr 03:12:5356.3 mph7SSW (205°)9950610165224.9°C76.9%20.6°C2367ft (721m)12.63v31
262615 Apr 03:12:4178.3 mph10SW (215°)9950610165224.9°C76.8%20.5°C2375ft (724m)12.64v31
262515 Apr 03:12:3089 mph11SSW (212°)9950610165224.9°C76.7%20.5°C2384ft (727m)12.63v31
262415 Apr 03:12:1979 mph11SSW (207°)9950310164924.9°C76.8%20.5°C2375ft (724m)12.64v31
262315 Apr 03:12:0867.3 mph9SSW (206°)9950810165424.9°C76.7%20.5°C2384ft (727m)12.65v31
262215 Apr 03:11:5666.7 mph9SSW (199°)9950410165024.9°C76.8%20.5°C2375ft (724m)12.63v31
262115 Apr 03:11:4566.2 mph7SSW (208°)9950610165224.9°C76.9%20.6°C2367ft (721m)12.64v31
262015 Apr 03:11:3456.1 mph7SSW (208°)9950210164824.9°C76.9%20.6°C2367ft (721m)12.63v31
261915 Apr 03:11:2377.7 mph10SW (215°)9950110164724.9°C76.9%20.6°C2367ft (721m)12.64v31
261815 Apr 03:11:1134.9 mph8SSW (201°)9950410165024.9°C76.9%20.6°C2367ft (721m)12.62v31
261715 Apr 03:11:0044.6 mph6SSW (205°)9950510165124.8°C76.9%20.5°C2365ft (721m)12.64v31
261615 Apr 03:10:4945.3 mph7SW (225°)9950710165324.9°C76.8%20.5°C2375ft (724m)12.63v31
261515 Apr 03:10:3833.9 mph5SW (218°)9950610165224.9°C76.9%20.6°C2367ft (721m)12.65v31
261415 Apr 03:10:2666.5 mph7SW (227°)9950110164724.9°C76.8%20.5°C2375ft (724m)12.64v31
261315 Apr 03:10:1566.9 mph8SSW (209°)9950610165224.9°C76.8%20.5°C2375ft (724m)12.64v31
261215 Apr 03:10:0478.7 mph10SSW (213°)9950510165124.9°C76.8%20.5°C2375ft (724m)12.63v31
261115 Apr 03:09:5377.9 mph10SSW (209°)9950110164724.9°C76.7%20.5°C2384ft (727m)12.64v31
261015 Apr 03:09:4188.7 mph10SSW (204°)9950310164924.9°C76.6%20.5°C2393ft (729m)12.63v31
260915 Apr 03:09:3057.3 mph9SSW (211°)9950410165024.9°C76.8%20.5°C2375ft (724m)12.62v31
260815 Apr 03:09:1999 mph10SSW (209°)9950510165124.9°C76.5%20.5°C2401ft (732m)12.64v31
260715 Apr 03:09:0877.3 mph9SSW (210°)9950610165224.9°C76.6%20.5°C2393ft (729m)12.64v31
260615 Apr 03:08:5666.6 mph7SSW (201°)9950310164924.9°C76.7%20.5°C2384ft (727m)12.64v31
260515 Apr 03:08:4555.4 mph6SSW (210°)9950410165024.9°C76.7%20.5°C2384ft (727m)12.64v31
260415 Apr 03:08:3457.5 mph10SSW (205°)9950710165324.9°C76.7%20.5°C2384ft (727m)12.63v31
260315 Apr 03:08:2367.5 mph9SSW (201°)9950610165224.9°C76.8%20.5°C2375ft (724m)12.63v31
260215 Apr 03:08:1155.6 mph6SSW (206°)9950710165324.9°C76.8%20.5°C2375ft (724m)12.64v31
260115 Apr 03:08:0066.6 mph7SSW (201°)9950710165324.9°C76.8%20.5°C2375ft (724m)12.64v31
260015 Apr 03:07:4988.5 mph10S (179°)9950610165224.9°C76.7%20.5°C2384ft (727m)12.65v31
259915 Apr 03:07:3877.2 mph9SSW (203°)9950710165324.9°C76.8%20.5°C2375ft (724m)12.63v31
259815 Apr 03:07:2666.5 mph7SSW (203°)9951110165724.9°C76.8%20.5°C2375ft (724m)12.65v31
259715 Apr 03:07:1556.2 mph8SSW (203°)9950910165524.9°C76.8%20.5°C2375ft (724m)12.64v31
259615 Apr 03:07:0444.6 mph5SW (220°)9951110165724.9°C76.8%20.5°C2375ft (724m)12.63v31
259515 Apr 03:06:5345.3 mph6SSW (207°)9950910165524.9°C76.7%20.5°C2384ft (727m)12.64v31
259415 Apr 03:06:4166.4 mph7SSW (212°)9951010165625°C76.6%20.6°C2394ft (730m)12.64v31
259315 Apr 03:06:3057.2 mph8SSW (205°)9951110165725°C76.7%20.6°C2385ft (727m)12.62v31
259215 Apr 03:06:1956.5 mph7SSW (209°)9950910165525°C76.7%20.6°C2385ft (727m)12.65v31
259115 Apr 03:06:0867.4 mph9SW (216°)9951410166125°C76.7%20.6°C2385ft (727m)12.64v31
259015 Apr 03:05:5635.1 mph8SSW (210°)9950910165525°C76.8%20.6°C2377ft (725m)12.64v31
258915 Apr 03:05:4545.5 mph7SSW (202°)9951210165825°C76.7%20.6°C2385ft (727m)12.64v31
258815 Apr 03:05:3445.1 mph7SSW (209°)9951110165725°C76.8%20.6°C2377ft (725m)12.65v31
258715 Apr 03:05:2355.9 mph7SW (217°)9950910165525°C76.7%20.6°C2385ft (727m)12.64v31
258615 Apr 03:05:1166.5 mph8SSW (207°)9951010165625°C76.7%20.6°C2385ft (727m)12.63v31
258515 Apr 03:05:0077.9 mph9SSW (205°)9951110165725°C76.6%20.6°C2394ft (730m)12.63v31
258415 Apr 03:04:4987.9 mph9SSW (211°)9950910165525°C76.5%20.6°C2403ft (732m)12.62v31
258315 Apr 03:04:3878.1 mph9SSW (209°)9951010165625°C76.6%20.6°C2394ft (730m)12.64v31
258215 Apr 03:04:2666.6 mph9SSW (212°)9951510166225°C76.6%20.6°C2394ft (730m)12.64v31
258115 Apr 03:04:1588.2 mph10SSW (211°)9951110165725°C76.4%20.6°C2412ft (735m)12.64v31
258015 Apr 03:04:0499.9 mph11SSW (197°)9951310166025°C76.3%20.5°C2420ft (738m)12.66v31
257915 Apr 03:03:5378.2 mph10SSW (208°)9950510165125°C76.5%20.6°C2403ft (732m)12.63v31
257815 Apr 03:03:4188.5 mph9SSW (203°)9951210165825°C76.4%20.6°C2412ft (735m)12.63v31
257715 Apr 03:03:3078.2 mph9SSW (206°)9951310166025°C76.4%20.6°C2412ft (735m)12.63v31
257615 Apr 03:03:1845.1 mph7SSW (210°)9951110165725°C76.6%20.6°C2394ft (730m)12.63v31
257515 Apr 03:03:0755.8 mph7SW (214°)9951210165825°C76.5%20.6°C2403ft (732m)12.63v31
257415 Apr 03:02:5656.2 mph7SSW (212°)9951510166225°C76.5%20.6°C2403ft (732m)12.64v31
257315 Apr 03:02:4567.2 mph9SSW (212°)9951410166125°C76.4%20.6°C2412ft (735m)12.65v31
257215 Apr 03:02:3389.1 mph10SSW (209°)9951110165725°C76.3%20.5°C2420ft (738m)12.65v31
257115 Apr 03:02:2256.4 mph9SSW (204°)9951110165725°C76.5%20.6°C2403ft (732m)12.65v31
257015 Apr 03:02:1155.7 mph6SW (214°)9951610166325°C76.5%20.6°C2403ft (732m)12.62v31
256915 Apr 03:02:0088.2 mph9SSW (195°)9951210165825°C76.3%20.5°C2420ft (738m)12.63v31
256815 Apr 03:01:4867.5 mph10SSW (202°)9951310166025°C76.4%20.6°C2412ft (735m)12.63v31
256715 Apr 03:01:3767.5 mph9SSW (208°)9951510166225°C76.5%20.6°C2403ft (732m)12.65v31
256615 Apr 03:01:2668 mph10SW (225°)9951310166025°C76.5%20.6°C2403ft (732m)12.66v31
256515 Apr 03:01:1556.8 mph9SSW (212°)9951410166125°C76.5%20.6°C2403ft (732m)12.64v31
256415 Apr 03:01:0387.8 mph9SSW (208°)9951610166325°C76.5%20.6°C2403ft (732m)12.63v31
256315 Apr 03:00:5277.3 mph8SSW (205°)9951410166125°C76.5%20.6°C2403ft (732m)12.65v31
256215 Apr 03:00:4166.9 mph9SSW (210°)9951410166125°C76.6%20.6°C2394ft (730m)12.63v31
256115 Apr 03:00:3078.6 mph10SSW (199°)9951310166025°C76.5%20.6°C2403ft (732m)12.64v31
256015 Apr 03:00:1978.1 mph9SSW (206°)9951410166125°C76.4%20.6°C2412ft (735m)12.65v31
255915 Apr 03:00:0888.3 mph9SSW (209°)9951310166025°C76.4%20.6°C2412ft (735m)12.63v31
255815 Apr 02:59:5656.5 mph8SSW (207°)9951410166125°C76.6%20.6°C2394ft (730m)12.65v31
255715 Apr 02:59:4544.8 mph6SSW (197°)9951410166125°C76.6%20.6°C2394ft (730m)12.65v31
255615 Apr 02:59:3466.7 mph8SSW (211°)9951310166025°C76.7%20.6°C2385ft (727m)12.64v31
255515 Apr 02:59:2356 mph7SW (214°)9951210165825°C76.7%20.6°C2385ft (727m)12.64v31
255415 Apr 02:59:1155.6 mph6SW (215°)9951210165825°C76.7%20.6°C2385ft (727m)12.64v31
255315 Apr 02:59:0088.1 mph9SSW (209°)9951010165625°C76.5%20.6°C2403ft (732m)12.63v31
255215 Apr 02:58:4956.7 mph9SSW (207°)9951310166025°C76.7%20.6°C2385ft (727m)12.64v31
255115 Apr 02:58:3865.8 mph6SSW (209°)9951410166125°C76.7%20.6°C2385ft (727m)12.65v31
255015 Apr 02:58:2655.7 mph7SW (227°)9950910165525°C76.5%20.6°C2403ft (732m)12.65v31
254915 Apr 02:58:1588.2 mph9SSW (206°)9951010165625°C76.5%20.6°C2403ft (732m)12.63v31
254815 Apr 02:58:0467.4 mph9SSW (202°)9951510166225°C76.6%20.6°C2394ft (730m)12.64v31
254715 Apr 02:57:5377.8 mph10SSW (207°)9951110165725°C76.6%20.6°C2394ft (730m)12.64v31
254615 Apr 02:57:4177.2 mph8SSW (195°)9951010165625°C76.6%20.6°C2394ft (730m)12.66v31
254515 Apr 02:57:3045.4 mph7SW (217°)9951310166025°C76.6%20.6°C2394ft (730m)12.64v31
254415 Apr 02:57:1945.1 mph6SSW (202°)9951410166125°C76.6%20.6°C2394ft (730m)12.64v31
254315 Apr 02:57:0878.7 mph10SSW (205°)9951310166025°C76.5%20.6°C2403ft (732m)12.63v31
254215 Apr 02:56:5656.5 mph7SSW (198°)9950810165425°C76.7%20.6°C2385ft (727m)12.65v31
254115 Apr 02:56:4578 mph9SSW (202°)9951110165725°C76.5%20.6°C2403ft (732m)12.65v31
254015 Apr 02:56:3456.6 mph8SW (214°)9951410166125°C76.7%20.6°C2385ft (727m)12.65v31
253915 Apr 02:56:2344.2 mph5SSW (211°)9951010165625°C76.6%20.6°C2394ft (730m)12.65v31
253815 Apr 02:56:1155.8 mph8SW (226°)9951010165625°C76.6%20.6°C2394ft (730m)12.64v31
253715 Apr 02:56:0088.8 mph10SW (221°)9951310166025°C76.5%20.6°C2403ft (732m)12.64v31
253615 Apr 02:55:4956.3 mph7SSW (211°)9950910165524.9°C76.6%20.5°C2393ft (729m)12.63v31
253515 Apr 02:55:3845.7 mph8SSW (211°)9951210165825°C76.7%20.6°C2385ft (727m)12.64v31
253415 Apr 02:55:2645.1 mph6SW (222°)9951210165824.9°C76.6%20.5°C2393ft (729m)12.65v31
253315 Apr 02:55:1545.3 mph6SW (219°)9951110165725°C76.6%20.6°C2394ft (730m)12.64v31
253215 Apr 02:55:0477.2 mph8WSW (238°)9951210165825°C76.6%20.6°C2394ft (730m)12.64v31
253115 Apr 02:54:5377.2 mph9SW (218°)9951010165625°C76.6%20.6°C2394ft (730m)12.64v31
253015 Apr 02:54:4178.2 mph11SSW (213°)9950510165124.9°C76.6%20.5°C2393ft (729m)12.65v31
252915 Apr 02:54:3066.4 mph8SW (220°)9951210165825°C76.8%20.6°C2377ft (725m)12.63v31
252815 Apr 02:54:1945.2 mph7SW (217°)9950910165525°C76.7%20.6°C2385ft (727m)12.63v31
252715 Apr 02:54:0855.4 mph7SW (215°)9950810165425°C76.7%20.6°C2385ft (727m)12.64v31
252615 Apr 02:53:5656.9 mph9SSW (198°)9950610165225°C76.6%20.6°C2394ft (730m)12.64v31
252515 Apr 02:53:4567.1 mph8SSW (201°)9950510165125°C76.7%20.6°C2385ft (727m)12.65v31
252415 Apr 02:53:3467 mph9SSW (204°)9950910165525°C76.6%20.6°C2394ft (730m)12.65v31
252315 Apr 02:53:2366.5 mph8SSW (206°)9950310164925°C76.7%20.6°C2385ft (727m)12.65v31
252215 Apr 02:53:1167.6 mph9SSW (196°)9950510165124.9°C76.7%20.5°C2384ft (727m)12.64v31
252115 Apr 02:53:0044.9 mph6SSW (207°)9950310164925°C76.6%20.6°C2394ft (730m)12.64v31
252015 Apr 02:52:4955.5 mph7SSW (198°)9950410165025°C76.6%20.6°C2394ft (730m)12.64v31
251915 Apr 02:52:3867.4 mph8SSW (202°)9950810165425°C76.6%20.6°C2394ft (730m)12.65v31
251815 Apr 02:52:2667.7 mph9SSW (209°)9950410165024.9°C76.5%20.5°C2401ft (732m)12.64v31
251715 Apr 02:52:1577.9 mph9SSW (199°)9950810165425°C76.6%20.6°C2394ft (730m)12.65v31
251615 Apr 02:52:0499.5 mph11SSW (202°)9950510165124.9°C76.4%20.5°C2410ft (735m)12.65v31
251515 Apr 02:51:5377.7 mph9SW (215°)9950610165224.9°C76.7%20.5°C2384ft (727m)12.65v31
251415 Apr 02:51:4156.3 mph8SSW (207°)9950610165224.9°C76.7%20.5°C2384ft (727m)12.65v31
251315 Apr 02:51:3055.3 mph7SW (216°)9950410165024.9°C76.7%20.5°C2384ft (727m)12.65v31
251215 Apr 02:51:1945.8 mph8SSW (200°)9950410165024.9°C76.8%20.5°C2375ft (724m)12.63v31
251115 Apr 02:51:0866.4 mph9SSW (209°)9950510165124.9°C76.9%20.6°C2367ft (721m)12.63v31
251015 Apr 02:50:5655.5 mph7SW (223°)9950310164924.9°C76.7%20.5°C2384ft (727m)12.65v31
250915 Apr 02:50:4556.2 mph7SW (217°)9950310164924.9°C76.7%20.5°C2384ft (727m)12.65v31
250815 Apr 02:50:3455.5 mph7SSW (203°)9950110164724.9°C76.7%20.5°C2384ft (727m)12.64v31
250715 Apr 02:50:2367 mph8SW (214°)9950310164924.9°C76.7%20.5°C2384ft (727m)12.63v31
250615 Apr 02:50:1146.5 mph8SSW (203°)9950310164925°C76.6%20.6°C2394ft (730m)12.65v31
250515 Apr 02:50:0055.8 mph7SSW (212°)9950110164725°C76.6%20.6°C2394ft (730m)12.65v31
250415 Apr 02:49:4978.1 mph9SSW (204°)9949810164425°C76.6%20.6°C2394ft (730m)12.64v31
250315 Apr 02:49:3889.3 mph11SSW (208°)9950210164825°C76.7%20.6°C2385ft (727m)12.65v31
250215 Apr 02:49:2667.1 mph8SW (214°)9950010164624.9°C76.7%20.5°C2384ft (727m)12.64v31
250115 Apr 02:49:1566.5 mph7SW (217°)9950010164624.9°C76.6%20.5°C2393ft (729m)12.65v31
250015 Apr 02:49:0478.1 mph9SSW (210°)9950010164624.9°C76.7%20.5°C2384ft (727m)12.66v31
249915 Apr 02:48:5356.3 mph7SW (222°)9950210164824.9°C76.7%20.5°C2384ft (727m)12.65v31
249815 Apr 02:48:4166.6 mph7SW (216°)9949810164424.9°C76.7%20.5°C2384ft (727m)12.65v31
249715 Apr 02:48:3077.8 mph9SW (223°)9950010164624.9°C76.7%20.5°C2384ft (727m)12.66v31
249615 Apr 02:48:1955.6 mph7SW (218°)9950010164625°C76.7%20.6°C2385ft (727m)12.65v31
249515 Apr 02:48:0878.2 mph10SSW (211°)9949910164525°C76.6%20.6°C2394ft (730m)12.64v31
249415 Apr 02:47:5666.7 mph8SSW (206°)9950110164725°C76.7%20.6°C2385ft (727m)12.64v31
249315 Apr 02:47:4566.7 mph8SW (219°)9950110164724.9°C76.7%20.5°C2384ft (727m)12.64v31
249215 Apr 02:47:3467 mph8SSW (206°)9950010164624.9°C76.8%20.5°C2375ft (724m)12.64v31
249115 Apr 02:47:2356.5 mph8SSW (208°)9949710164324.9°C76.7%20.5°C2384ft (727m)12.64v31
249015 Apr 02:47:1156 mph7SW (215°)9950110164725°C76.7%20.6°C2385ft (727m)12.64v31
248915 Apr 02:47:0066.7 mph7SW (214°)9950110164724.9°C76.7%20.5°C2384ft (727m)12.66v31
248815 Apr 02:46:4988.5 mph10SSW (206°)9949810164424.9°C76.7%20.5°C2384ft (727m)12.64v31
248715 Apr 02:46:3878.4 mph10SSW (204°)9949910164524.9°C76.7%20.5°C2384ft (727m)12.63v31
248615 Apr 02:46:2678.2 mph11SSW (208°)9950010164624.9°C76.7%20.5°C2384ft (727m)12.64v31
248515 Apr 02:46:1588.7 mph10SSW (210°)9949310163924.9°C76.6%20.5°C2393ft (729m)12.63v31
248415 Apr 02:46:0478.5 mph10SSW (202°)9950310164924.9°C76.6%20.5°C2393ft (729m)12.65v31
248315 Apr 02:45:5367.4 mph9SSW (211°)9950610165224.9°C76.7%20.5°C2384ft (727m)12.64v31
248215 Apr 02:45:4166.4 mph7SSW (200°)9949810164424.9°C76.7%20.5°C2384ft (727m)12.65v31
248115 Apr 02:45:3068.2 mph10SSW (202°)9950110164724.9°C76.6%20.5°C2393ft (729m)12.64v31
248015 Apr 02:45:1957.3 mph9SSW (198°)9950510165124.9°C76.8%20.5°C2375ft (724m)12.65v31
247915 Apr 02:45:0866.9 mph8SW (221°)9950510165124.9°C76.7%20.5°C2384ft (727m)12.63v31
247815 Apr 02:44:5666.9 mph8SSW (211°)9950610165224.9°C76.8%20.5°C2375ft (724m)12.64v31
247715 Apr 02:44:4555.5 mph6SSW (208°)9950410165024.9°C76.8%20.5°C2375ft (724m)12.64v31
247615 Apr 02:44:3466.3 mph9SSW (209°)9950710165324.9°C76.8%20.5°C2375ft (724m)12.65v31
247515 Apr 02:44:2357 mph9SSW (210°)9950310164924.9°C76.8%20.5°C2375ft (724m)12.65v31
247415 Apr 02:44:1177.8 mph9SSW (210°)9950710165324.9°C76.7%20.5°C2384ft (727m)12.64v31
247315 Apr 02:44:0066.4 mph8SSW (206°)9950210164824.9°C76.8%20.5°C2375ft (724m)12.66v31
247215 Apr 02:43:4977.1 mph8SSW (205°)9950810165424.9°C76.9%20.6°C2367ft (721m)12.64v31
247115 Apr 02:43:3867.5 mph9SSW (209°)9950910165524.9°C76.9%20.6°C2367ft (721m)12.64v31
247015 Apr 02:43:2667.7 mph10SW (223°)9950810165424.8°C76.9%20.5°C2365ft (721m)12.64v31
246915 Apr 02:43:1567.3 mph9S (187°)9950810165424.9°C76.9%20.6°C2367ft (721m)12.65v31
246815 Apr 02:43:04910 mph12SSW (213°)9950910165524.9°C76.7%20.5°C2384ft (727m)12.65v31
246715 Apr 02:42:5399.6 mph11SW (215°)9950510165124.9°C76.9%20.6°C2367ft (721m)12.66v31
246615 Apr 02:42:4179.3 mph13SSW (201°)9950210164824.9°C76.7%20.5°C2384ft (727m)12.65v31
246515 Apr 02:42:30810 mph12SW (215°)9950610165224.9°C76.8%20.5°C2375ft (724m)12.64v31
246415 Apr 02:42:1977.7 mph9SSW (202°)9950510165124.9°C76.9%20.6°C2367ft (721m)12.65v31
246315 Apr 02:42:0878.5 mph10SSW (210°)9950510165124.8°C76.8%20.4°C2374ft (724m)12.64v31
246215 Apr 02:41:5646.4 mph10SW (223°)9950810165424.8°C77%20.5°C2357ft (718m)12.65v31
246115 Apr 02:41:4555.5 mph7SW (221°)9950710165324.8°C77%20.5°C2357ft (718m)12.65v31
246015 Apr 02:41:3467.1 mph8SSW (205°)9950810165424.8°C77%20.5°C2357ft (718m)12.66v31
245915 Apr 02:41:2377.7 mph10SSW (204°)9950810165424.8°C77%20.5°C2357ft (718m)12.65v31
245815 Apr 02:41:1134.7 mph7SW (220°)9950910165524.8°C77.1%20.5°C2348ft (716m)12.65v31
245715 Apr 02:41:0057.6 mph10SW (222°)9951010165624.8°C77%20.5°C2357ft (718m)12.64v31
245615 Apr 02:40:4957.2 mph10SSW (213°)9950510165124.8°C77%20.5°C2357ft (718m)12.66v31
245515 Apr 02:40:3877.5 mph9SSW (196°)9951010165624.8°C77%20.5°C2357ft (718m)12.64v31
245415 Apr 02:40:2677.5 mph9SSW (207°)9950510165124.8°C77.1%20.5°C2348ft (716m)12.63v31
245315 Apr 02:40:1578 mph9SSW (210°)9950110164724.8°C77.1%20.5°C2348ft (716m)12.64v31
245215 Apr 02:40:0457.4 mph11SSW (193°)9950510165124.8°C77.1%20.5°C2348ft (716m)12.65v31
245115 Apr 02:39:531011.1 mph12SSW (207°)9950310164924.8°C77.2%20.5°C2340ft (713m)12.65v31
245015 Apr 02:39:4156.8 mph8SSW (212°)9950510165124.8°C77.1%20.5°C2348ft (716m)12.65v31
244915 Apr 02:39:3089 mph10SSW (199°)9950310164924.8°C77%20.5°C2357ft (718m)12.64v31
244815 Apr 02:39:1989.8 mph12SSW (209°)9950210164824.8°C77%20.5°C2357ft (718m)12.65v31
244715 Apr 02:39:0878.8 mph11SSW (198°)9950110164724.8°C77.1%20.5°C2348ft (716m)12.65v31
244615 Apr 02:38:5688.5 mph10SSW (205°)9950310164924.8°C77%20.5°C2357ft (718m)12.64v31
244515 Apr 02:38:45911.8 mph14SSW (205°)9950310164924.8°C76.9%20.5°C2365ft (721m)12.63v31
244415 Apr 02:38:34810.4 mph13S (190°)9950110164724.8°C77%20.5°C2357ft (718m)12.65v31
244315 Apr 02:38:231011 mph14SSW (199°)9949610164224.8°C76.9%20.5°C2365ft (721m)12.66v31
244215 Apr 02:38:1178.1 mph10SSW (209°)9950110164724.8°C77%20.5°C2357ft (718m)12.65v31
244115 Apr 02:38:00910.5 mph13S (188°)9949810164424.8°C76.7%20.4°C2383ft (726m)12.65v31
244015 Apr 02:37:4978.5 mph11SSW (198°)9950510165124.8°C77%20.5°C2357ft (718m)12.64v31
243915 Apr 02:37:3878.7 mph12SW (223°)9950610165224.8°C77%20.5°C2357ft (718m)12.65v31
243815 Apr 02:37:2666.7 mph8SSW (210°)9950510165124.8°C77%20.5°C2357ft (718m)12.64v31
243715 Apr 02:37:1568.8 mph12SSW (206°)9950010164624.8°C76.9%20.5°C2365ft (721m)12.65v31
243615 Apr 02:37:0467.4 mph10SSW (202°)9950410165024.8°C77%20.5°C2357ft (718m)12.65v31
243515 Apr 02:36:5356.6 mph8SSW (202°)9950310164924.8°C77.2%20.5°C2340ft (713m)12.64v31
243415 Apr 02:36:4188.6 mph10SSW (193°)9950410165024.8°C77.1%20.5°C2348ft (716m)12.66v31
243315 Apr 02:36:3078 mph10SSW (203°)9950010164624.8°C77.3%20.6°C2331ft (710m)12.64v31
243215 Apr 02:36:1989.3 mph12SSW (199°)9950510165124.7°C77.1%20.4°C2347ft (715m)12.66v31
243115 Apr 02:36:081112.7 mph16SSW (198°)9950110164724.7°C77.1%20.4°C2347ft (715m)12.64v31
243015 Apr 02:35:561114.2 mph17SSW (198°)9949910164524.8°C76.9%20.5°C2365ft (721m)12.65v31
242915 Apr 02:35:4599.6 mph11SSW (204°)9949610164224.8°C76.8%20.4°C2374ft (724m)12.64v31
242815 Apr 02:35:34911.6 mph16SSW (207°)9950310164924.8°C76.8%20.4°C2374ft (724m)12.64v31
242715 Apr 02:35:231111.1 mph13SSW (197°)9949810164424.8°C76.7%20.4°C2383ft (726m)12.67v31
242615 Apr 02:35:111315.1 mph16SSW (203°)9949710164324.8°C76.7%20.4°C2383ft (726m)12.66v31
242515 Apr 02:35:00610.8 mph14SSW (208°)9950210164824.8°C76.5%20.4°C2400ft (732m)12.64v31
242415 Apr 02:34:4955.7 mph6SSW (208°)9950410165024.8°C76.8%20.4°C2374ft (724m)12.64v31
242315 Apr 02:34:3855.8 mph7SSW (211°)9950510165124.8°C76.8%20.4°C2374ft (724m)12.66v31
242215 Apr 02:34:2657.3 mph9SW (229°)9950310164924.8°C76.8%20.4°C2374ft (724m)12.64v31
242115 Apr 02:34:1555.8 mph8SW (219°)9950210164824.8°C76.9%20.5°C2365ft (721m)12.64v31
242015 Apr 02:34:0466.7 mph8SW (216°)9950510165124.8°C76.8%20.4°C2374ft (724m)12.63v31
241915 Apr 02:33:5377.3 mph8SW (219°)9950610165224.8°C76.9%20.5°C2365ft (721m)12.65v31
241815 Apr 02:33:4166.4 mph7SSW (212°)9950510165124.8°C77%20.5°C2357ft (718m)12.65v31
241715 Apr 02:33:3066.9 mph8SW (214°)9950310164924.7°C77.1%20.4°C2347ft (715m)12.64v31
241615 Apr 02:33:1976.7 mph8SW (215°)9950510165124.7°C77%20.4°C2355ft (718m)12.65v31
241515 Apr 02:33:0888.7 mph10SSW (199°)9950610165224.7°C77%20.4°C2355ft (718m)12.65v31
241415 Apr 02:32:56910 mph12SSW (209°)9950710165324.7°C77%20.4°C2355ft (718m)12.65v31
241315 Apr 02:32:451011.1 mph13SSW (204°)9950410165024.7°C76.9%20.4°C2364ft (721m)12.64v31
241215 Apr 02:32:3489 mph10SSW (195°)9950110164724.7°C77.1%20.4°C2347ft (715m)12.65v31
241115 Apr 02:32:2399.5 mph11SSW (205°)9950410165024.7°C76.9%20.4°C2364ft (721m)12.65v31
241015 Apr 02:32:1177.7 mph9SSW (201°)9950510165124.7°C76.9%20.4°C2364ft (721m)12.67v31
240915 Apr 02:32:0078 mph9SSW (207°)9950510165124.7°C77%20.4°C2355ft (718m)12.65v31
240815 Apr 02:31:49910 mph12SSW (204°)9950510165124.8°C76.8%20.4°C2374ft (724m)12.64v31
240715 Apr 02:31:381010.1 mph11SSW (199°)9950410165024.8°C76.7%20.4°C2383ft (726m)12.66v31
240615 Apr 02:31:261113 mph15SSW (201°)9950610165224.8°C76.8%20.4°C2374ft (724m)12.64v31
240515 Apr 02:31:151313.8 mph15SSW (213°)9950710165324.8°C76.8%20.4°C2374ft (724m)12.65v31
240415 Apr 02:31:0467.8 mph9SSW (202°)9950910165524.8°C77%20.5°C2357ft (718m)12.63v31
240315 Apr 02:30:5366.9 mph8SSW (212°)9950810165424.8°C76.9%20.5°C2365ft (721m)12.65v31
240215 Apr 02:30:4167.3 mph9SW (220°)9950610165224.8°C76.9%20.5°C2365ft (721m)12.67v31
240115 Apr 02:30:3088.3 mph9SSW (204°)9950510165124.7°C76.8%20.4°C2373ft (723m)12.65v31
240015 Apr 02:30:1989.6 mph11SSW (204°)9950710165324.7°C76.8%20.4°C2373ft (723m)12.66v31
239915 Apr 02:30:081012 mph14SSW (196°)9950810165424.7°C76.8%20.4°C2373ft (723m)12.66v31
239815 Apr 02:29:56813.1 mph15SSW (197°)9950010164624.7°C76.7%20.3°C2381ft (726m)12.65v31
239715 Apr 02:29:451010.9 mph12SSW (204°)9950610165224.7°C76.6%20.3°C2390ft (728m)12.64v31
239615 Apr 02:29:3469.7 mph13SSW (207°)9951010165624.8°C76.7%20.4°C2383ft (726m)12.65v31
239515 Apr 02:29:23910.9 mph12SW (218°)9950710165324.8°C76.6%20.4°C2391ft (729m)12.64v31
239415 Apr 02:29:1178.1 mph9SSW (204°)9950710165324.8°C76.6%20.4°C2391ft (729m)12.66v31
239315 Apr 02:29:0089.3 mph12SSW (210°)9950610165224.8°C76.6%20.4°C2391ft (729m)12.66v31
239215 Apr 02:28:4967.9 mph10SSW (210°)9951010165624.8°C76.6%20.4°C2391ft (729m)12.66v31
239115 Apr 02:28:3889.5 mph11SSW (202°)9950510165124.8°C76.6%20.4°C2391ft (729m)12.65v31
239015 Apr 02:28:261011.5 mph13SSW (205°)9950310164924.8°C76.5%20.4°C2400ft (732m)12.65v31
238915 Apr 02:28:151213.3 mph15SSW (199°)9950810165424.8°C76.4%20.4°C2409ft (734m)12.65v31
238815 Apr 02:28:0479.3 mph13SW (214°)9949710164324.8°C76.5%20.4°C2400ft (732m)12.65v31
238715 Apr 02:27:5367.8 mph9SSW (194°)9950910165524.8°C76.5%20.4°C2400ft (732m)12.66v31
238615 Apr 02:27:4178.4 mph11SSW (213°)9951110165724.8°C76.5%20.4°C2400ft (732m)12.65v31
238515 Apr 02:27:3077.3 mph8SSW (211°)9950810165424.8°C76.6%20.4°C2391ft (729m)12.67v31
238415 Apr 02:27:1988.4 mph10SW (215°)9950810165424.8°C76.5%20.4°C2400ft (732m)12.64v31
238315 Apr 02:27:0857.3 mph11SSW (204°)9950710165324.8°C76.6%20.4°C2391ft (729m)12.66v31
238215 Apr 02:26:5656.7 mph8SSW (213°)9950810165424.8°C76.6%20.4°C2391ft (729m)12.67v31
238115 Apr 02:26:4567.2 mph9SW (217°)9950910165524.8°C76.6%20.4°C2391ft (729m)12.66v31
238015 Apr 02:26:3466.8 mph8SW (222°)9950810165424.8°C76.5%20.4°C2400ft (732m)12.65v31
237915 Apr 02:26:2377.2 mph8SSW (212°)9950710165324.8°C76.5%20.4°C2400ft (732m)12.63v31
237815 Apr 02:26:1167.5 mph9SW (217°)9950710165324.8°C76.4%20.4°C2409ft (734m)12.66v31
237715 Apr 02:26:0089.3 mph10SSW (206°)9950810165424.8°C76.3%20.3°C2417ft (737m)12.66v31
237615 Apr 02:25:4967.3 mph9SW (217°)9950910165524.8°C76.5%20.4°C2400ft (732m)12.66v31
237515 Apr 02:25:3878.7 mph10SSW (205°)9950910165524.8°C76.4%20.4°C2409ft (734m)12.66v31
237415 Apr 02:25:2699.7 mph10SSW (206°)9950910165524.8°C76.3%20.3°C2417ft (737m)12.65v31
237315 Apr 02:25:1587.9 mph8SW (216°)9951110165724.8°C76.4%20.4°C2409ft (734m)12.64v31
237215 Apr 02:25:0456.9 mph8SW (214°)9950910165524.8°C76.5%20.4°C2400ft (732m)12.65v31
237115 Apr 02:24:5356.5 mph8SW (214°)9951110165724.8°C76.3%20.3°C2417ft (737m)12.65v31
237015 Apr 02:24:4157 mph9SSW (213°)9951310166024.8°C76.3%20.3°C2417ft (737m)12.65v31
236915 Apr 02:24:3056.6 mph8SSW (205°)9951010165624.8°C76.3%20.3°C2417ft (737m)12.66v31
236815 Apr 02:24:1956.1 mph7SW (217°)9951410166124.8°C76.4%20.4°C2409ft (734m)12.66v31
236715 Apr 02:24:08811 mph13SSW (207°)9951010165624.8°C76.2%20.3°C2426ft (739m)12.64v31
236615 Apr 02:23:5679.1 mph13SW (221°)9951210165824.8°C76.2%20.3°C2426ft (739m)12.67v31
236515 Apr 02:23:4545.2 mph8SSW (213°)9950910165524.8°C76.3%20.3°C2417ft (737m)12.64v31
236415 Apr 02:23:3445.4 mph7SW (217°)9951210165824.8°C76.4%20.4°C2409ft (734m)12.65v31
236315 Apr 02:23:2344.8 mph7SSW (209°)9951510166224.8°C76.4%20.4°C2409ft (734m)12.64v31
236215 Apr 02:23:1146.1 mph8SW (218°)9951410166124.8°C76.4%20.4°C2409ft (734m)12.65v31
236115 Apr 02:23:0056.5 mph8SSW (208°)9951110165724.8°C76.3%20.3°C2417ft (737m)12.67v31
236015 Apr 02:22:4955.8 mph7SSW (202°)9951410166124.9°C76.3%20.4°C2419ft (737m)12.65v31
235915 Apr 02:22:3866.9 mph8SSW (199°)9951310166024.9°C76.3%20.4°C2419ft (737m)12.65v31
235815 Apr 02:22:2678.5 mph11SSW (204°)9951410166124.8°C76.3%20.3°C2417ft (737m)12.65v31
235715 Apr 02:22:1568.7 mph14SW (214°)9951410166124.8°C76.3%20.3°C2417ft (737m)12.65v31
235615 Apr 02:22:0467.6 mph11SW (215°)9951510166224.8°C76.3%20.3°C2417ft (737m)12.63v31
235515 Apr 02:21:53810.5 mph12SSW (205°)9950810165424.8°C76%20.3°C2444ft (745m)12.65v31
235415 Apr 02:21:4189.7 mph12SSW (202°)9951610166324.8°C76.2%20.3°C2426ft (739m)12.64v31
235315 Apr 02:21:3089.5 mph12SW (216°)9951110165724.9°C76.1%20.4°C2436ft (742m)12.66v31
235215 Apr 02:21:1967.1 mph9SSW (197°)9951810166524.9°C76.2%20.4°C2428ft (740m)12.66v31
235115 Apr 02:21:0877.9 mph11SW (225°)9951710166424.9°C76.1%20.4°C2436ft (742m)12.67v31
235015 Apr 02:20:5678 mph11SSW (212°)9951810166524.9°C76.1%20.4°C2436ft (742m)12.66v31
234915 Apr 02:20:4578.8 mph11SSW (208°)9951910166624.9°C76.2%20.4°C2428ft (740m)12.65v31
234815 Apr 02:20:3488.6 mph10SSW (207°)9952110166824.9°C76.1%20.4°C2436ft (742m)12.64v31
234715 Apr 02:20:23910.8 mph12SSW (196°)9951710166424.9°C75.9%20.4°C2454ft (748m)12.64v31
234615 Apr 02:20:1177.2 mph8SSW (207°)9951910166624.9°C76.1%20.4°C2436ft (742m)12.66v31
234515 Apr 02:20:0077.5 mph9SSW (205°)9951910166624.9°C76.1%20.4°C2436ft (742m)12.66v31
234415 Apr 02:19:4999.7 mph11SW (214°)9952210166924.9°C76%20.4°C2445ft (745m)12.67v31
234315 Apr 02:19:3845.9 mph9SSW (198°)9951910166624.9°C76.2%20.4°C2428ft (740m)12.66v31
234215 Apr 02:19:2655.5 mph7SSW (212°)9952110166824.9°C76.1%20.4°C2436ft (742m)12.65v31
234115 Apr 02:19:1577.7 mph10SW (219°)9952110166824.9°C76.1%20.4°C2436ft (742m)12.66v31
234015 Apr 02:19:0467.5 mph9SSW (209°)9952110166824.9°C76.1%20.4°C2436ft (742m)12.64v31
233915 Apr 02:18:5367.1 mph9SW (214°)9951910166624.9°C76.1%20.4°C2436ft (742m)12.65v31
233815 Apr 02:18:4178 mph10SSW (208°)9952010166724.9°C76%20.4°C2445ft (745m)12.64v31
233715 Apr 02:18:3078.2 mph10SSW (212°)9951910166624.9°C75.9%20.4°C2454ft (748m)12.65v31
233615 Apr 02:18:1978.1 mph9SW (217°)9952310167024.9°C75.9%20.4°C2454ft (748m)12.66v31
233515 Apr 02:18:0868.6 mph12SSW (204°)9952210166924.9°C75.7%20.3°C2471ft (753m)12.66v31
233415 Apr 02:17:5688.9 mph11SSW (206°)9952010166724.9°C75.8%20.3°C2463ft (751m)12.66v31
233315 Apr 02:17:4556.7 mph9SSW (206°)9952410167124.9°C75.9%20.4°C2454ft (748m)12.67v31
233215 Apr 02:17:3456.8 mph8SW (217°)9952410167124.9°C76%20.4°C2445ft (745m)12.65v31
233115 Apr 02:17:2356.2 mph8SSW (208°)9952610167324.9°C75.9%20.4°C2454ft (748m)12.64v31
233015 Apr 02:17:1178.6 mph10SW (214°)9952510167224.9°C75.8%20.3°C2463ft (751m)12.65v31
232915 Apr 02:17:0088.4 mph10SSW (211°)9952710167424.9°C75.8%20.3°C2463ft (751m)12.66v31
232815 Apr 02:16:4988.1 mph10SSW (206°)9952510167224.9°C75.7%20.3°C2471ft (753m)12.67v31
232715 Apr 02:16:3877.9 mph9SSW (212°)9952510167224.9°C75.9%20.4°C2454ft (748m)12.65v31
232615 Apr 02:16:2688.3 mph9SW (221°)9952510167224.9°C75.8%20.3°C2463ft (751m)12.65v31
232515 Apr 02:16:1588.7 mph10SSW (208°)9952510167224.9°C75.8%20.3°C2463ft (751m)12.65v31
232415 Apr 02:16:0456.1 mph8SSW (203°)9952810167524.9°C75.8%20.3°C2463ft (751m)12.65v31
232315 Apr 02:15:5355.7 mph7SW (221°)9952710167424.9°C75.8%20.3°C2463ft (751m)12.66v31
232215 Apr 02:15:4166.7 mph7SW (221°)9952710167425°C75.8%20.4°C2464ft (751m)12.65v31
232115 Apr 02:15:3066 mph7SSW (213°)9952410167125°C75.7%20.4°C2473ft (754m)12.66v31
232015 Apr 02:15:1978.9 mph11SSW (207°)9952810167524.9°C75.7%20.3°C2471ft (753m)12.66v31
231915 Apr 02:15:081010.5 mph12SSW (206°)9952810167524.9°C75.4%20.2°C2498ft (761m)12.65v31
231815 Apr 02:14:5699.9 mph12SSW (209°)9952910167625°C75.6%20.4°C2482ft (757m)12.65v31
231715 Apr 02:14:4567.5 mph10SSW (204°)9953010167725°C75.8%20.4°C2464ft (751m)12.65v31
231615 Apr 02:14:3446.1 mph9SW (215°)9953010167725°C75.7%20.4°C2473ft (754m)12.65v31
231515 Apr 02:14:2388.5 mph10SW (221°)9952710167425°C75.7%20.4°C2473ft (754m)12.64v31
231415 Apr 02:14:1199 mph10SW (222°)9952910167624.9°C75.6%20.3°C2480ft (756m)12.66v31
231315 Apr 02:14:0056.2 mph8SW (214°)9953010167724.9°C75.7%20.3°C2471ft (753m)12.64v31
231215 Apr 02:13:4978.5 mph10SSW (207°)9953210167925°C75.7%20.4°C2473ft (754m)12.66v31
231115 Apr 02:13:3878 mph9SSW (209°)9953310168025°C75.7%20.4°C2473ft (754m)12.65v31
231015 Apr 02:13:2678.6 mph10SW (214°)9953410168125°C75.6%20.4°C2482ft (757m)12.67v31
230915 Apr 02:13:1556.6 mph10SSW (206°)9953410168124.9°C75.7%20.3°C2471ft (753m)12.66v31
230815 Apr 02:13:04910.1 mph12SSW (204°)9953210167924.9°C75.7%20.3°C2471ft (753m)12.66v31
230715 Apr 02:12:53910.3 mph12SSW (204°)9953110167825°C75.5%20.4°C2490ft (759m)12.65v31
230615 Apr 02:12:4147.5 mph11SSW (204°)9953110167825°C75.6%20.4°C2482ft (757m)12.64v31
230515 Apr 02:12:3066.9 mph8SW (225°)9953810168524.9°C75.6%20.3°C2480ft (756m)12.65v31
230415 Apr 02:12:1955.7 mph7SSW (211°)9953610168324.9°C75.6%20.3°C2480ft (756m)12.66v31
230315 Apr 02:12:0855.9 mph7SW (217°)9953910168624.9°C75.7%20.3°C2471ft (753m)12.66v31
230215 Apr 02:11:5656.3 mph8SSW (209°)9953710168424.9°C75.6%20.3°C2480ft (756m)12.65v31
230115 Apr 02:11:4555.8 mph7SW (219°)9953810168524.9°C75.7%20.3°C2471ft (753m)12.66v31
230015 Apr 02:11:3468.4 mph11SW (214°)9953810168525°C75.6%20.4°C2482ft (757m)12.67v31
229915 Apr 02:11:2399.7 mph12SSW (199°)9953510168225°C75.6%20.4°C2482ft (757m)12.65v31
229815 Apr 02:11:111111.6 mph14SSW (202°)9953210167924.9°C75.4%20.2°C2498ft (761m)12.65v31
229715 Apr 02:11:0089.3 mph13SW (214°)9954010168725°C75.3%20.3°C2508ft (764m)12.65v31
229615 Apr 02:10:4978 mph10SSW (213°)9954310169025°C75.4%20.3°C2499ft (762m)12.65v31
229515 Apr 02:10:3877 mph9SSW (212°)9953810168525°C75.4%20.3°C2499ft (762m)12.66v31
229415 Apr 02:10:2657.8 mph10SSW (208°)9953710168425°C75.4%20.3°C2499ft (762m)12.66v31
229315 Apr 02:10:1555.4 mph6SW (216°)9954010168725°C75.5%20.4°C2490ft (759m)12.65v31
229215 Apr 02:10:0468 mph11SSW (212°)9954210168925°C75.4%20.3°C2499ft (762m)12.66v31
229115 Apr 02:09:5389 mph10SW (233°)9953910168625°C75.2%20.3°C2517ft (767m)12.67v31
229015 Apr 02:09:4188.5 mph10SW (216°)9954410169125°C75.3%20.3°C2508ft (764m)12.65v31
228915 Apr 02:09:3068.8 mph11SW (223°)9954310169025°C75.3%20.3°C2508ft (764m)12.66v31
228815 Apr 02:09:1977.5 mph9SSW (210°)9954210168925°C75.3%20.3°C2508ft (764m)12.66v31
228715 Apr 02:09:0867.7 mph9SW (214°)9954510169225°C75.3%20.3°C2508ft (764m)12.66v31
228615 Apr 02:08:5677.7 mph8SW (220°)9954010168725°C75.4%20.3°C2499ft (762m)12.67v31
228515 Apr 02:08:4566.9 mph8SSW (207°)9954210168925°C75.5%20.4°C2490ft (759m)12.66v31
228415 Apr 02:08:3466.6 mph8SSW (208°)9954610169325°C75.5%20.4°C2490ft (759m)12.66v31
228315 Apr 02:08:2367.1 mph8SSW (213°)9954810169525°C75.5%20.4°C2490ft (759m)12.65v31
228215 Apr 02:08:1145.7 mph7SW (217°)9954710169425°C75.5%20.4°C2490ft (759m)12.64v31
228115 Apr 02:08:0045.8 mph7SW (226°)9954610169325°C75.4%20.3°C2499ft (762m)12.65v31
228015 Apr 02:07:4977.5 mph9SSW (210°)9954810169525°C75.4%20.3°C2499ft (762m)12.65v31
227915 Apr 02:07:3856.1 mph9SW (220°)9954410169125°C75.5%20.4°C2490ft (759m)12.67v31
227815 Apr 02:07:2645.1 mph6SW (216°)9954910169625°C75.5%20.4°C2490ft (759m)12.66v31
227715 Apr 02:07:1555.4 mph6SW (227°)9955010169725°C75.4%20.3°C2499ft (762m)12.66v31
227615 Apr 02:07:0467.2 mph9SW (216°)9955010169725°C75.4%20.3°C2499ft (762m)12.66v31
227515 Apr 02:06:5366.9 mph8SSW (203°)9955010169725°C75.4%20.3°C2499ft (762m)12.65v31
227415 Apr 02:06:4177.6 mph9SSW (208°)9955010169725°C75.3%20.3°C2508ft (764m)12.65v31
227315 Apr 02:06:3057.2 mph9SSW (211°)9955010169725°C75.3%20.3°C2508ft (764m)12.65v31
227215 Apr 02:06:1955.3 mph7SW (215°)9955010169725°C75.4%20.3°C2499ft (762m)12.65v31
227115 Apr 02:06:0867.6 mph9SSW (211°)9955310170025°C75.3%20.3°C2508ft (764m)12.66v31
227015 Apr 02:05:5667.3 mph8SW (216°)9955510170225°C75.3%20.3°C2508ft (764m)12.67v31
226915 Apr 02:05:4566.9 mph8SSW (212°)9955710170425°C75.3%20.3°C2508ft (764m)12.66v31
226815 Apr 02:05:3478.2 mph10SSW (210°)9955410170125°C75.2%20.3°C2517ft (767m)12.66v31
226715 Apr 02:05:2356.5 mph7SSW (204°)9955810170525°C75.2%20.3°C2517ft (767m)12.65v31
226615 Apr 02:05:1156 mph7WSW (238°)9955410170125°C75.4%20.3°C2499ft (762m)12.66v31
226515 Apr 02:05:0057 mph8SW (216°)9955510170225°C75.3%20.3°C2508ft (764m)12.66v31
226415 Apr 02:04:4956 mph7SW (215°)9955710170425°C75.4%20.3°C2499ft (762m)12.66v31
226315 Apr 02:04:3845.3 mph7SW (216°)9955710170425°C75.4%20.3°C2499ft (762m)12.65v31
226215 Apr 02:04:2645.5 mph7SW (215°)9955810170525°C75.2%20.3°C2517ft (767m)12.67v31
226115 Apr 02:04:1566.3 mph7SSW (204°)9955710170425°C75.2%20.3°C2517ft (767m)12.66v31
226015 Apr 02:04:0444.9 mph6SW (216°)9955910170725°C75.2%20.3°C2517ft (767m)12.66v31
225915 Apr 02:03:5367.3 mph10SW (219°)9956010170825°C75.2%20.3°C2517ft (767m)12.67v31
225815 Apr 02:03:4168.1 mph10SSW (209°)9955710170425°C75.1%20.3°C2526ft (770m)12.65v31
225715 Apr 02:03:3057.7 mph11SW (215°)9955910170725°C75.1%20.3°C2526ft (770m)12.65v31
225615 Apr 02:03:1978.1 mph10SSW (201°)9955310170025°C75.2%20.3°C2517ft (767m)12.65v31
225515 Apr 02:03:0845.3 mph7SSW (209°)9955910170725.1°C75.2%20.4°C2518ft (767m)12.65v31
225415 Apr 02:02:5677.5 mph9SSW (204°)9955810170525°C75.2%20.3°C2517ft (767m)12.65v31
225315 Apr 02:02:4567.7 mph10SSW (200°)9955910170725°C75.2%20.3°C2517ft (767m)12.67v31
225215 Apr 02:02:3465.9 mph7SSW (200°)9955910170725°C75.2%20.3°C2517ft (767m)12.65v31
225115 Apr 02:02:2355.7 mph7SSW (200°)9955910170725°C75.3%20.3°C2508ft (764m)12.66v31
225015 Apr 02:02:1178.3 mph12SW (214°)9955710170425°C75.1%20.3°C2526ft (770m)12.65v31
224915 Apr 02:02:0077.8 mph11SSW (207°)9955910170725°C75.2%20.3°C2517ft (767m)12.66v31
224815 Apr 02:01:4989.3 mph11SSW (192°)9955310170025°C75.2%20.3°C2517ft (767m)12.65v31
224715 Apr 02:01:3867.8 mph10SSW (205°)9955710170425°C75.1%20.3°C2526ft (770m)12.66v31
224615 Apr 02:01:2689.2 mph12SSW (196°)9955610170325°C74.9%20.2°C2543ft (775m)12.66v31
224515 Apr 02:01:1588.7 mph10SW (215°)9956110170925.1°C75%20.4°C2536ft (773m)12.66v31
224415 Apr 02:01:0478.9 mph11SSW (207°)9956010170825.1°C75%20.4°C2536ft (773m)12.65v31
224315 Apr 02:00:5379.7 mph12SSW (207°)9956110170925.1°C74.9%20.3°C2545ft (776m)12.66v31
224215 Apr 02:00:411111 mph11SSW (199°)9955810170525.1°C74.8%20.3°C2554ft (778m)12.65v31
224115 Apr 02:00:3089.5 mph12SSW (198°)9955810170525.1°C74.9%20.3°C2545ft (776m)12.66v31
224015 Apr 02:00:19910.5 mph13SSW (212°)9955910170725.1°C74.8%20.3°C2554ft (778m)12.66v31
223915 Apr 02:00:0856.6 mph8SSW (207°)9956010170825.1°C75%20.4°C2536ft (773m)12.66v31
223815 Apr 01:59:5677.7 mph9SSW (210°)9956210171025.1°C74.8%20.3°C2554ft (778m)12.66v31
223715 Apr 01:59:45810.3 mph12SSW (203°)9956110170925.1°C74.9%20.3°C2545ft (776m)12.66v31
223615 Apr 01:59:3469 mph11SW (215°)9956310171125.1°C74.8%20.3°C2554ft (778m)12.66v31
223515 Apr 01:59:23710 mph12SSW (201°)9956210171025.1°C74.8%20.3°C2554ft (778m)12.65v31
223415 Apr 01:59:1177.1 mph8SSW (207°)9956410171225.1°C75%20.4°C2536ft (773m)12.65v31
223315 Apr 01:59:0078.2 mph9SW (214°)9956410171225.1°C75%20.4°C2536ft (773m)12.66v31
223215 Apr 01:58:4956 mph8SSW (212°)9956210171025.1°C75.1%20.4°C2527ft (770m)12.65v31
223115 Apr 01:58:3876.9 mph7SSW (206°)9956110170925.1°C75%20.4°C2536ft (773m)12.64v31
223015 Apr 01:58:2666.7 mph8SSW (212°)9956310171125.1°C75%20.4°C2536ft (773m)12.65v31
222915 Apr 01:58:1556.2 mph7SW (214°)9956610171425.1°C75%20.4°C2536ft (773m)12.65v31
222815 Apr 01:58:0478.7 mph11SW (214°)9956510171325.1°C75.1%20.4°C2527ft (770m)12.66v31
222715 Apr 01:57:5366.9 mph10SW (218°)9956710171525.1°C75.1%20.4°C2527ft (770m)12.66v31
222615 Apr 01:57:4178.1 mph10SSW (210°)9956510171325.1°C75.1%20.4°C2527ft (770m)12.65v31
222515 Apr 01:57:3066.9 mph8SSW (211°)9956610171425.1°C74.9%20.3°C2545ft (776m)12.65v31
222415 Apr 01:57:1967.5 mph9SSW (202°)9956910171725.1°C74.7%20.3°C2563ft (781m)12.65v31
222315 Apr 01:57:0867.2 mph10S (184°)9956510171325.1°C74.9%20.3°C2545ft (776m)12.64v31
222215 Apr 01:56:5689.5 mph11SSW (207°)9957010171825.1°C74.8%20.3°C2554ft (778m)12.67v31
222115 Apr 01:56:4556.1 mph8SW (220°)9957010171825.1°C75%20.4°C2536ft (773m)12.67v31
222015 Apr 01:56:3456.7 mph8SW (233°)9956710171525.1°C75%20.4°C2536ft (773m)12.67v31
221915 Apr 01:56:2356.4 mph9SW (215°)9956910171725°C75%20.3°C2534ft (772m)12.65v31
221815 Apr 01:56:1167.3 mph8SW (214°)9957010171825.1°C75.1%20.4°C2527ft (770m)12.66v31
221715 Apr 01:56:0045.6 mph7SW (216°)9957010171825°C75.1%20.3°C2526ft (770m)12.65v31
221615 Apr 01:55:4945.5 mph6SSW (206°)9957310172125°C75.1%20.3°C2526ft (770m)12.66v31
221515 Apr 01:55:3887.8 mph9SSW (195°)9957010171825°C75%20.3°C2534ft (772m)12.66v31
221415 Apr 01:55:2668 mph11S (187°)9956910171725°C75.1%20.3°C2526ft (770m)12.66v31
221315 Apr 01:55:151111.4 mph13SSW (195°)9956910171725°C74.8%20.2°C2552ft (778m)12.67v31
221215 Apr 01:55:04810.1 mph12SSW (199°)9957210172025°C74.8%20.2°C2552ft (778m)12.67v31
221115 Apr 01:54:53109.3 mph11SW (220°)9957010171825.1°C74.7%20.3°C2563ft (781m)12.66v31
221015 Apr 01:54:4189.5 mph11SSW (198°)9957010171825.1°C74.8%20.3°C2554ft (778m)12.66v31
220915 Apr 01:54:3078.2 mph10SSW (198°)9956910171725.1°C74.9%20.3°C2545ft (776m)12.66v31
220815 Apr 01:54:1989.6 mph11SSW (200°)9956910171725.1°C74.9%20.3°C2545ft (776m)12.65v31
220715 Apr 01:54:0879.2 mph10SSW (200°)9957210172025.1°C74.8%20.3°C2554ft (778m)12.65v31
220615 Apr 01:53:5679.1 mph11SSW (193°)9956910171725.1°C74.9%20.3°C2545ft (776m)12.65v31
220515 Apr 01:53:4599.9 mph11SSW (200°)9956810171625°C74.8%20.2°C2552ft (778m)12.67v31
220415 Apr 01:53:34910 mph13SSW (204°)9957110171925.1°C74.7%20.3°C2563ft (781m)12.66v31
220315 Apr 01:53:2357.6 mph10SSW (207°)9957110171925.1°C74.8%20.3°C2554ft (778m)12.65v31
220215 Apr 01:53:1156.1 mph8SW (215°)9957010171825.1°C74.9%20.3°C2545ft (776m)12.66v31
220115 Apr 01:53:0078.5 mph10SSW (205°)9957110171925.1°C74.7%20.3°C2563ft (781m)12.66v31
220015 Apr 01:52:49610 mph13SSW (200°)9956810171625°C74.6%20.2°C2570ft (783m)12.65v31
219915 Apr 01:52:3866.5 mph7SW (217°)9957210172025.1°C74.9%20.3°C2545ft (776m)12.65v31
219815 Apr 01:52:2656.1 mph8SW (217°)9957110171925°C74.9%20.2°C2543ft (775m)12.66v31
219715 Apr 01:52:1557.2 mph9SW (218°)9957010171825.1°C74.9%20.3°C2545ft (776m)12.67v31
219615 Apr 01:52:0488.8 mph10SSW (210°)9957510172325.1°C74.9%20.3°C2545ft (776m)12.67v31
219515 Apr 01:51:5355.8 mph7SSW (210°)9957310172125.1°C74.8%20.3°C2554ft (778m)12.65v31
219415 Apr 01:51:4168.1 mph10SW (223°)9957410172225.1°C74.8%20.3°C2554ft (778m)12.65v31
219315 Apr 01:51:3066.7 mph8SSW (209°)9957510172325.1°C74.8%20.3°C2554ft (778m)12.67v31
219215 Apr 01:51:1977.2 mph8SSW (204°)9957110171925.1°C74.7%20.3°C2563ft (781m)12.66v31
219115 Apr 01:51:0898.9 mph10SSW (195°)9956810171625.1°C74.6%20.3°C2571ft (784m)12.67v31
219015 Apr 01:50:5689.1 mph10SSW (206°)9957210172025.1°C74.7%20.3°C2563ft (781m)12.65v31
218915 Apr 01:50:4555.9 mph7SW (214°)9957310172125.1°C74.7%20.3°C2563ft (781m)12.67v31
218815 Apr 01:50:3466.9 mph8SSW (209°)9957510172325.1°C74.7%20.3°C2563ft (781m)12.66v31
218715 Apr 01:50:2366.7 mph7SSW (208°)9957510172325.1°C74.7%20.3°C2563ft (781m)12.67v31
218615 Apr 01:50:1167.3 mph8SSW (209°)9957410172225.1°C74.8%20.3°C2554ft (778m)12.66v31
218515 Apr 01:50:0066.8 mph8SSW (213°)9957510172325.1°C74.6%20.3°C2571ft (784m)12.67v31
218415 Apr 01:49:4977.6 mph8SSW (210°)9957610172425.1°C74.7%20.3°C2563ft (781m)12.65v31
218315 Apr 01:49:3887.9 mph8SSW (211°)9957410172225.1°C74.7%20.3°C2563ft (781m)12.65v31
218215 Apr 01:49:2677.6 mph8SW (217°)9957910172725.1°C74.6%20.3°C2571ft (784m)12.67v31
218115 Apr 01:49:1577.1 mph8SW (219°)9957610172425.1°C74.7%20.3°C2563ft (781m)12.67v31
218015 Apr 01:49:0467.5 mph10SW (216°)9957710172525°C74.7%20.2°C2561ft (781m)12.67v31
217915 Apr 01:48:5389.4 mph11SSW (198°)9956910171725°C74.6%20.2°C2570ft (783m)12.67v31
217815 Apr 01:48:41810 mph12SSW (211°)9958010172825.1°C74.5%20.2°C2580ft (786m)12.67v31
217715 Apr 01:48:30910.9 mph13SSW (210°)9957310172125.1°C74.5%20.2°C2580ft (786m)12.66v31
217615 Apr 01:48:19810.8 mph14SSW (202°)9957510172325.1°C74.4%20.2°C2589ft (789m)12.66v31
217515 Apr 01:48:0868 mph10SSW (205°)9958110172925.1°C74.5%20.2°C2580ft (786m)12.67v31
217415 Apr 01:47:5656.1 mph7SSW (203°)9957510172325.1°C74.6%20.3°C2571ft (784m)12.65v31
217315 Apr 01:47:4578.2 mph9SW (217°)9957710172525.1°C74.6%20.3°C2571ft (784m)12.67v31
217215 Apr 01:47:3466.9 mph9SW (214°)9957910172725.1°C74.6%20.3°C2571ft (784m)12.67v31
217115 Apr 01:47:2367 mph9SSW (204°)9958110172925.1°C74.6%20.3°C2571ft (784m)12.67v31
217015 Apr 01:47:1166.9 mph9SSW (209°)9957810172625.1°C74.7%20.3°C2563ft (781m)12.66v31
216915 Apr 01:47:0078.5 mph11SSW (202°)9957910172725°C74.6%20.2°C2570ft (783m)12.66v31
216815 Apr 01:46:4966.7 mph8SSW (213°)9957810172625°C74.7%20.2°C2561ft (781m)12.65v31
216715 Apr 01:46:3878.7 mph10SSW (204°)9957610172425°C74.7%20.2°C2561ft (781m)12.65v31
216615 Apr 01:46:2668.7 mph12SSW (197°)9957510172325°C74.6%20.2°C2570ft (783m)12.66v31
216515 Apr 01:46:1547.1 mph12SSW (212°)9958110172925.1°C74.7%20.3°C2563ft (781m)12.65v31
216415 Apr 01:46:0468.5 mph12SSW (208°)9957310172125°C74.6%20.2°C2570ft (783m)12.67v31
216315 Apr 01:45:5345.5 mph7SW (223°)9957910172725°C74.7%20.2°C2561ft (781m)12.67v31
216215 Apr 01:45:4168.6 mph11SW (215°)9957910172725.1°C74.6%20.3°C2571ft (784m)12.66v31
216115 Apr 01:45:3067.5 mph9SW (222°)9958310173125°C74.6%20.2°C2570ft (783m)12.67v31
216015 Apr 01:45:1978.1 mph9SSW (211°)9958110172925°C74.7%20.2°C2561ft (781m)12.67v31
215915 Apr 01:45:0889 mph11SW (214°)9958410173225°C74.6%20.2°C2570ft (783m)12.67v31
215815 Apr 01:44:56810.2 mph13SSW (204°)9958110172925°C74.7%20.2°C2561ft (781m)12.65v31
215715 Apr 01:44:4588.3 mph9SSW (208°)9958310173125°C74.6%20.2°C2570ft (783m)12.66v31
215615 Apr 01:44:3477.8 mph9SSW (208°)9958310173125°C74.7%20.2°C2561ft (781m)12.67v31
215515 Apr 01:44:2356.2 mph8SSW (212°)9958310173125°C74.8%20.2°C2552ft (778m)12.68v31
215415 Apr 01:44:1167.3 mph10SW (214°)9958210173025°C74.9%20.2°C2543ft (775m)12.67v31
215315 Apr 01:44:0066.5 mph7SSW (212°)9958410173225°C74.9%20.2°C2543ft (775m)12.65v31
215215 Apr 01:43:4977.4 mph8SW (217°)9958310173125°C74.8%20.2°C2552ft (778m)12.66v31
215115 Apr 01:43:3856.7 mph8SW (222°)9958410173225°C74.9%20.2°C2543ft (775m)12.66v31
215015 Apr 01:43:2677.4 mph10SSW (202°)9958710173525°C74.9%20.2°C2543ft (775m)12.66v31
214915 Apr 01:43:15910.5 mph13SSW (204°)9958510173325°C74.8%20.2°C2552ft (778m)12.65v31
214815 Apr 01:43:0489.6 mph12SW (219°)9958410173225°C74.8%20.2°C2552ft (778m)12.67v31
214715 Apr 01:42:5378.5 mph10SSW (208°)9958910173725°C74.8%20.2°C2552ft (778m)12.68v31
214615 Apr 01:42:4188.4 mph10SW (214°)9958710173524.9°C75%20.2°C2533ft (772m)12.67v31
214515 Apr 01:42:3067.3 mph10SSW (212°)9958910173724.9°C75%20.2°C2533ft (772m)12.67v31
214415 Apr 01:42:1956.1 mph8SW (215°)9958810173624.9°C75%20.2°C2533ft (772m)12.67v31
214315 Apr 01:42:0878.5 mph10SSW (207°)9959010173824.9°C75%20.2°C2533ft (772m)12.66v31
214215 Apr 01:41:5688.7 mph10SSW (201°)9959110173924.9°C75%20.2°C2533ft (772m)12.65v31
214115 Apr 01:41:451010.9 mph12SSW (196°)9958410173224.9°C74.9%20.1°C2542ft (775m)12.67v31
214015 Apr 01:41:341011.5 mph13SSW (195°)9958810173624.9°C75%20.2°C2533ft (772m)12.67v31
213915 Apr 01:41:23910 mph12SSW (207°)9959010173824.9°C74.7%20.1°C2560ft (780m)12.67v31
213815 Apr 01:41:111011.9 mph14S (190°)9958910173725°C74.7%20.2°C2561ft (781m)12.67v31
213715 Apr 01:41:0079.5 mph12S (191°)9959310174125°C74.5%20.1°C2579ft (786m)12.66v31
213615 Apr 01:40:4989.9 mph12SSW (211°)9959410174225°C74.7%20.2°C2561ft (781m)12.68v31
213515 Apr 01:40:381010.9 mph12SSW (203°)9959710174525°C74.5%20.1°C2579ft (786m)12.65v31
213415 Apr 01:40:2667.7 mph11SSW (193°)9959110173925°C74.7%20.2°C2561ft (781m)12.66v31
213315 Apr 01:40:1567.5 mph9SSW (212°)9959510174325°C74.8%20.2°C2552ft (778m)12.65v31
213215 Apr 01:40:0466.9 mph8SSW (196°)9959610174425°C74.9%20.2°C2543ft (775m)12.66v31
213115 Apr 01:39:5379 mph12S (190°)9959310174125°C74.8%20.2°C2552ft (778m)12.68v31
213015 Apr 01:39:41910 mph11SSW (194°)9959810174625°C74.7%20.2°C2561ft (781m)12.68v31
212915 Apr 01:39:30810.7 mph12SSW (197°)9959710174525°C74.6%20.2°C2570ft (783m)12.65v31
212815 Apr 01:39:191112.1 mph13SSW (199°)9958710173525°C74.5%20.1°C2579ft (786m)12.67v31
212715 Apr 01:39:0888.7 mph10SSW (202°)9959410174225°C74.8%20.2°C2552ft (778m)12.66v31
212615 Apr 01:38:5688.9 mph11SSW (200°)9960210175024.9°C74.7%20.1°C2560ft (780m)12.66v31
212515 Apr 01:38:451213.4 mph14SSW (195°)9959510174324.9°C74.6%20.1°C2568ft (783m)12.67v31
212415 Apr 01:38:34911.9 mph15SSW (196°)9959610174425°C74.7%20.2°C2561ft (781m)12.66v31
212315 Apr 01:38:2388.6 mph10S (189°)9960110174925°C74.6%20.2°C2570ft (783m)12.67v31
212215 Apr 01:38:11910.3 mph12S (190°)9960210175025°C74.5%20.1°C2579ft (786m)12.67v31
212115 Apr 01:38:001111.4 mph13SSW (194°)9960510175325°C74.5%20.1°C2579ft (786m)12.67v31
212015 Apr 01:37:4989 mph10S (191°)9960210175025°C74.2%20.1°C2606ft (794m)12.67v31
211915 Apr 01:37:3878.1 mph11S (189°)9960410175225°C74.4%20.1°C2588ft (789m)12.65v31
211815 Apr 01:37:26910 mph11SSW (198°)9960310175125°C74.4%20.1°C2588ft (789m)12.66v31
211715 Apr 01:37:1556.5 mph8SSW (203°)9960310175125°C74.6%20.2°C2570ft (783m)12.65v31
211615 Apr 01:37:0488.1 mph10SSW (195°)9960310175125°C74.6%20.2°C2570ft (783m)12.65v31
211515 Apr 01:36:5389.9 mph12SSW (197°)9960610175525°C74.4%20.1°C2588ft (789m)12.68v31
211415 Apr 01:36:4177.8 mph10SSW (200°)9960610175525°C74.5%20.1°C2579ft (786m)12.68v31
211315 Apr 01:36:3089.2 mph11SSW (213°)9960710175625°C74.4%20.1°C2588ft (789m)12.66v31
211215 Apr 01:36:191111.4 mph12S (184°)9960410175225°C74.3%20.1°C2597ft (792m)12.66v31
211115 Apr 01:36:0879.7 mph13SSW (200°)9960510175325°C74.3%20.1°C2597ft (792m)12.67v31
211015 Apr 01:35:5677.9 mph10SSW (205°)9961010175925°C74.4%20.1°C2588ft (789m)12.65v31
210915 Apr 01:35:4568.1 mph9SSW (199°)9960710175625°C74.5%20.1°C2579ft (786m)12.68v31
210815 Apr 01:35:3478.9 mph12SSW (202°)9960610175525°C74.5%20.1°C2579ft (786m)12.67v31
210715 Apr 01:35:23910 mph12SSW (195°)9960910175825°C74.3%20.1°C2597ft (792m)12.67v31
210615 Apr 01:35:1189.8 mph13SSW (199°)9960710175625°C74.3%20.1°C2597ft (792m)12.67v31
210515 Apr 01:35:0067.5 mph9SSW (209°)9960610175525°C74.5%20.1°C2579ft (786m)12.67v31
210415 Apr 01:34:4978 mph10SSW (201°)9960910175825°C74.5%20.1°C2579ft (786m)12.67v31
210315 Apr 01:34:3878.2 mph9SSW (212°)9960910175825°C74.4%20.1°C2588ft (789m)12.66v31
210215 Apr 01:34:2678.1 mph11SSW (206°)9961010175925°C74.6%20.2°C2570ft (783m)12.67v31
210115 Apr 01:34:15810.1 mph12SSW (204°)9960510175325°C74.5%20.1°C2579ft (786m)12.66v31
210015 Apr 01:34:0489.7 mph11SSW (197°)9960910175825°C74.4%20.1°C2588ft (789m)12.65v31
209915 Apr 01:33:531011.2 mph12SSW (202°)9960510175325°C74.3%20.1°C2597ft (792m)12.66v31
209815 Apr 01:33:41910.3 mph11SSW (201°)9961210176125°C74.3%20.1°C2597ft (792m)12.67v31
209715 Apr 01:33:3077.4 mph8SSW (206°)9961210176125°C74.4%20.1°C2588ft (789m)12.67v31
209615 Apr 01:33:191010.2 mph11SSW (198°)9961310176225°C74.3%20.1°C2597ft (792m)12.66v31
209515 Apr 01:33:0888.5 mph11SSW (211°)9961510176425°C74.4%20.1°C2588ft (789m)12.67v31
209415 Apr 01:32:5689.1 mph10S (189°)9961010175925°C74.4%20.1°C2588ft (789m)12.66v31
209315 Apr 01:32:451111.8 mph14SSW (194°)9960910175824.9°C74.5%20.1°C2577ft (785m)12.66v31
209215 Apr 01:32:341111.4 mph12SSW (193°)9960910175824.9°C74.3%20°C2595ft (791m)12.66v31
209115 Apr 01:32:2399.9 mph13SSW (195°)9960910175825°C74.4%20.1°C2588ft (789m)12.68v31
209015 Apr 01:32:1189.2 mph10SSW (201°)9961010175925°C74.4%20.1°C2588ft (789m)12.68v31
208915 Apr 01:32:001011.2 mph12S (191°)9961010175925°C74.3%20.1°C2597ft (792m)12.67v31
208815 Apr 01:31:49911 mph13SSW (204°)9961310176225°C74.1%20.1°C2615ft (797m)12.67v31
208715 Apr 01:31:3899.2 mph10SSW (196°)9961010175925°C74.1%20.1°C2615ft (797m)12.67v31
208615 Apr 01:31:2689.8 mph11SSW (201°)9961210176125°C74.1%20.1°C2615ft (797m)12.66v31
208515 Apr 01:31:1589.5 mph13SSW (195°)9961110176025°C74.1%20.1°C2615ft (797m)12.66v31
208415 Apr 01:31:04810.2 mph12SSW (205°)9960810175725°C74.1%20.1°C2615ft (797m)12.67v31
208315 Apr 01:30:531011.5 mph13SSW (201°)9960210175025°C74%20°C2623ft (799m)12.67v31
208215 Apr 01:30:4189.3 mph11SSW (197°)9960810175725°C74.1%20.1°C2615ft (797m)12.67v31
208115 Apr 01:30:3088.6 mph10SSW (206°)9961310176225°C74%20°C2623ft (799m)12.67v31
208015 Apr 01:30:1956.5 mph8SSW (207°)9961210176125°C74.2%20.1°C2606ft (794m)12.67v31
207915 Apr 01:30:0889.2 mph11SSW (203°)9961410176325°C73.9%20°C2632ft (802m)12.67v31
207815 Apr 01:29:5666.5 mph7SSW (205°)9961610176525°C74.1%20.1°C2615ft (797m)12.67v31
207715 Apr 01:29:4578.4 mph10SW (215°)9961410176325°C74.2%20.1°C2606ft (794m)12.67v31
207615 Apr 01:29:3477.7 mph9SSW (207°)9961310176225°C74.1%20.1°C2615ft (797m)12.65v31
207515 Apr 01:29:2366.4 mph8SSW (199°)9961310176225°C74.2%20.1°C2606ft (794m)12.67v31
207415 Apr 01:29:1155.9 mph7SSW (211°)9961410176325°C74.2%20.1°C2606ft (794m)12.69v31
207315 Apr 01:29:0044.5 mph6SSW (210°)9961410176325°C74.3%20.1°C2597ft (792m)12.68v31
207215 Apr 01:28:4956.2 mph7SSW (208°)9961710176625°C74.3%20.1°C2597ft (792m)12.68v31
207115 Apr 01:28:3878.1 mph9SSW (203°)9961310176225°C74.3%20.1°C2597ft (792m)12.67v31
207015 Apr 01:28:2699.6 mph10SSW (210°)9961210176125°C74.2%20.1°C2606ft (794m)12.67v31
206915 Apr 01:28:1589.6 mph12SSW (201°)9961110176025°C74.2%20.1°C2606ft (794m)12.67v31
206815 Apr 01:28:0468.3 mph11SSW (210°)9961210176125°C74.3%20.1°C2597ft (792m)12.67v31
206715 Apr 01:27:5355.5 mph7SW (216°)9961710176625°C74.3%20.1°C2597ft (792m)12.65v31
206615 Apr 01:27:4188.4 mph10SSW (213°)9961310176224.9°C74.3%20°C2595ft (791m)12.67v31
206515 Apr 01:27:3078.7 mph11SSW (207°)9961210176124.9°C74.3%20°C2595ft (791m)12.67v31
206415 Apr 01:27:1977.9 mph9SSW (202°)9961510176424.9°C74.3%20°C2595ft (791m)12.68v31
206315 Apr 01:27:08910 mph12SSW (212°)9961310176224.9°C74.4%20°C2586ft (788m)12.67v31
206215 Apr 01:26:5688.8 mph12SSW (203°)9960510175324.9°C74.4%20°C2586ft (788m)12.66v31
206115 Apr 01:26:451011.7 mph13SSW (208°)9961910176824.9°C74.2%20°C2604ft (794m)12.66v31
206015 Apr 01:26:341011.1 mph13SSW (201°)9961410176324.9°C74.4%20°C2586ft (788m)12.67v31
205915 Apr 01:26:2378.3 mph10SSW (211°)9961210176124.9°C74.4%20°C2586ft (788m)12.66v31
205815 Apr 01:26:1189.4 mph11SSW (195°)9961710176624.9°C74.2%20°C2604ft (794m)12.67v31
205715 Apr 01:26:0077.7 mph9SSW (205°)9961810176724.9°C74.4%20°C2586ft (788m)12.67v31
205615 Apr 01:25:4979.5 mph11SW (223°)9961810176724.9°C74.3%20°C2595ft (791m)12.67v31
205515 Apr 01:25:3867.8 mph10SSW (210°)9961710176624.9°C74.4%20°C2586ft (788m)12.68v31
205415 Apr 01:25:2665.8 mph7SW (228°)9961810176724.9°C74.5%20.1°C2577ft (785m)12.67v31
205315 Apr 01:25:1555.6 mph8SSW (199°)9961610176524.9°C74.5%20.1°C2577ft (785m)12.66v31
205215 Apr 01:25:0457.5 mph9SSW (204°)9961610176524.9°C74.6%20.1°C2568ft (783m)12.66v31
205115 Apr 01:24:5356.7 mph10WSW (247°)9961710176624.9°C74.5%20.1°C2577ft (785m)12.66v31
205015 Apr 01:24:411011.4 mph13SSW (210°)9961710176624.9°C74.4%20°C2586ft (788m)12.66v31
204915 Apr 01:24:301213.8 mph16SSW (202°)9961710176624.9°C74.4%20°C2586ft (788m)12.68v31
204815 Apr 01:24:191010.2 mph12SSW (209°)9961710176624.9°C74.5%20.1°C2577ft (785m)12.67v31
204715 Apr 01:24:081112.2 mph14SSW (204°)9960510175324.9°C74.3%20°C2595ft (791m)12.68v31
204615 Apr 01:23:56610.9 mph15SSW (197°)9960610175524.9°C74.3%20°C2595ft (791m)12.67v31
204515 Apr 01:23:4589.2 mph11SSW (201°)9961510176424.9°C74.2%20°C2604ft (794m)12.66v31
204415 Apr 01:23:3489.6 mph11SSW (194°)9960810175724.9°C74.1%20°C2613ft (796m)12.66v31
204315 Apr 01:23:2378.7 mph10SSW (205°)9961610176524.9°C74.1%20°C2613ft (796m)12.67v31
204215 Apr 01:23:1188.8 mph10SSW (206°)9961410176324.9°C74.1%20°C2613ft (796m)12.67v31
204115 Apr 01:23:0099.9 mph11SSW (207°)9961710176624.9°C74%19.9°C2622ft (799m)12.68v31
204015 Apr 01:22:4978.2 mph9SSW (212°)9961210176124.9°C74%19.9°C2622ft (799m)12.67v31
203915 Apr 01:22:3878 mph11SSW (196°)9961710176624.9°C74.1%20°C2613ft (796m)12.68v31
203815 Apr 01:22:2667.6 mph9SSW (209°)9961510176424.9°C74.2%20°C2604ft (794m)12.68v31
203715 Apr 01:22:1588.6 mph10SSW (203°)9961510176424.9°C74.2%20°C2604ft (794m)12.67v31
203615 Apr 01:22:0489.1 mph11SSW (194°)9961410176324.9°C74.2%20°C2604ft (794m)12.67v31
203515 Apr 01:21:5356.1 mph7SSW (211°)9961310176224.9°C74.3%20°C2595ft (791m)12.66v31
203415 Apr 01:21:4167.9 mph9SSW (211°)9961410176324.9°C74.2%20°C2604ft (794m)12.66v31
203315 Apr 01:21:3067.4 mph8SSW (205°)9961410176324.9°C74.3%20°C2595ft (791m)12.68v31
203215 Apr 01:21:1977.6 mph8SSW (209°)9961710176624.9°C74.2%20°C2604ft (794m)12.67v31
203115 Apr 01:21:081111.6 mph12SSW (203°)9961410176324.9°C74.2%20°C2604ft (794m)12.68v31
203015 Apr 01:20:5678.9 mph11SSW (207°)9961810176724.9°C74%19.9°C2622ft (799m)12.67v31
202915 Apr 01:20:45910.1 mph11SSW (204°)9961610176524.9°C74.1%20°C2613ft (796m)12.67v31
202815 Apr 01:20:34910 mph11SSW (201°)9961610176524.9°C74%19.9°C2622ft (799m)12.66v31
202715 Apr 01:20:2368.2 mph10SSW (209°)9961310176224.9°C74.1%20°C2613ft (796m)12.68v31
202615 Apr 01:20:1177.7 mph10SSW (206°)9961610176524.9°C74.2%20°C2604ft (794m)12.65v31
202515 Apr 01:20:001111.3 mph13SSW (205°)9961310176224.9°C74.1%20°C2613ft (796m)12.67v31
202415 Apr 01:19:4989.1 mph13SSW (204°)9960710175624.9°C74.1%20°C2613ft (796m)12.66v31
202315 Apr 01:19:38910.5 mph12SSW (205°)9961710176624.9°C74.2%20°C2604ft (794m)12.67v31
202215 Apr 01:19:261012.2 mph15SSW (205°)9961510176424.9°C74.1%20°C2613ft (796m)12.67v31
202115 Apr 01:19:15911.7 mph14S (190°)9960910175824.9°C74%19.9°C2622ft (799m)12.68v31
202015 Apr 01:19:0498.9 mph10SSW (196°)9961710176624.9°C74.1%20°C2613ft (796m)12.67v31
201915 Apr 01:18:5377.9 mph10SSW (202°)9961810176724.9°C74.1%20°C2613ft (796m)12.67v31
201815 Apr 01:18:4167.1 mph9SSW (207°)9961510176424.9°C74.2%20°C2604ft (794m)12.66v31
201715 Apr 01:18:3077.5 mph10SSW (207°)9961910176824.9°C74.2%20°C2604ft (794m)12.68v31
201615 Apr 01:18:1966.7 mph8SSW (212°)9961910176824.9°C74.2%20°C2604ft (794m)12.68v31
201515 Apr 01:18:0866.7 mph7SSW (211°)9961910176824.9°C74.2%20°C2604ft (794m)12.67v31
201415 Apr 01:17:5656.4 mph8SW (215°)9962210177124.9°C74.1%20°C2613ft (796m)12.67v31
201315 Apr 01:17:4577.3 mph9SSW (207°)9962110177024.9°C74.1%20°C2613ft (796m)12.68v31
201215 Apr 01:17:3466.7 mph7SSW (204°)9961910176824.9°C74.1%20°C2613ft (796m)12.67v31
201115 Apr 01:17:2377.8 mph9SSW (208°)9961910176824.9°C74.1%20°C2613ft (796m)12.67v31
201015 Apr 01:17:1188.8 mph10SSW (200°)9962110177024.9°C74.1%20°C2613ft (796m)12.66v31
200915 Apr 01:17:0099.3 mph10SW (215°)9961810176724.9°C74.1%20°C2613ft (796m)12.68v31
200815 Apr 01:16:4977.8 mph9SW (221°)9962210177124.9°C74.2%20°C2604ft (794m)12.69v31
200715 Apr 01:16:3878.8 mph11SSW (206°)9962010176924.9°C74%19.9°C2622ft (799m)12.68v31
200615 Apr 01:16:261010.9 mph12SSW (204°)9961710176624.9°C74.1%20°C2613ft (796m)12.67v31
200515 Apr 01:16:1567.8 mph11SSW (203°)9962010176924.9°C74.2%20°C2604ft (794m)12.66v31
200415 Apr 01:16:0477.9 mph10SW (219°)9962210177124.9°C74.2%20°C2604ft (794m)12.67v31
200315 Apr 01:15:5378.7 mph10SW (216°)9962210177124.9°C74.1%20°C2613ft (796m)12.67v31
200215 Apr 01:15:411011.5 mph13SSW (203°)9961710176624.9°C73.9%19.9°C2631ft (802m)12.67v31
200115 Apr 01:15:301011 mph13SSW (199°)9961910176824.9°C73.9%19.9°C2631ft (802m)12.67v31
200015 Apr 01:15:1989.2 mph13SW (214°)9962210177124.9°C74.1%20°C2613ft (796m)12.69v31
199915 Apr 01:15:081010.6 mph12SSW (206°)9962210177124.9°C73.9%19.9°C2631ft (802m)12.68v31
199815 Apr 01:14:5699.5 mph10SSW (211°)9962110177024.9°C74%19.9°C2622ft (799m)12.68v31
199715 Apr 01:14:4578.8 mph11SSW (201°)9961710176624.9°C74%19.9°C2622ft (799m)12.67v31
199615 Apr 01:14:3489.8 mph14SSW (209°)9962110177024.9°C74%19.9°C2622ft (799m)12.67v31
199515 Apr 01:14:231112.1 mph14SSW (200°)9961410176324.9°C73.8%19.9°C2640ft (805m)12.67v31
199415 Apr 01:14:1188.9 mph10SSW (205°)9962410177324.9°C74%19.9°C2622ft (799m)12.67v31
199315 Apr 01:14:0078.5 mph10SSW (202°)9961810176724.9°C73.9%19.9°C2631ft (802m)12.66v31
199215 Apr 01:13:4989.8 mph12SSW (205°)9962210177124.9°C73.8%19.9°C2640ft (805m)12.7v31
199115 Apr 01:13:3877.7 mph9SW (214°)9962110177024.9°C74%19.9°C2622ft (799m)12.67v31
199015 Apr 01:13:2677.9 mph9SSW (198°)9961910176824.9°C74%19.9°C2622ft (799m)12.68v31
198915 Apr 01:13:1578.1 mph10SSW (201°)9961710176624.9°C73.9%19.9°C2631ft (802m)12.68v31
198815 Apr 01:13:0478.3 mph10SSW (204°)9962010176924.9°C74%19.9°C2622ft (799m)12.67v31
198715 Apr 01:12:5378.8 mph10SSW (213°)9962210177124.9°C74%19.9°C2622ft (799m)12.67v31
198615 Apr 01:12:4177.4 mph8SSW (205°)9962110177024.9°C74.1%20°C2613ft (796m)12.66v31
198515 Apr 01:12:3077.9 mph9SSW (210°)9961710176624.9°C74%19.9°C2622ft (799m)12.66v31
198415 Apr 01:12:1989.7 mph12SSW (209°)9961810176724.9°C73.9%19.9°C2631ft (802m)12.68v31
198315 Apr 01:12:081111.8 mph12SSW (206°)9961310176224.9°C73.7%19.9°C2649ft (807m)12.67v31
198215 Apr 01:11:5689.1 mph11SSW (202°)9962310177224.9°C73.8%19.9°C2640ft (805m)12.67v31
198115 Apr 01:11:4578.3 mph10SW (217°)9961810176724.9°C73.7%19.9°C2649ft (807m)12.66v31
198015 Apr 01:11:3467.9 mph10SSW (209°)9961910176824.9°C73.8%19.9°C2640ft (805m)12.68v31
197915 Apr 01:11:2366.9 mph9SSW (210°)9962310177224.9°C73.9%19.9°C2631ft (802m)12.67v31
197815 Apr 01:11:1199.6 mph11SW (214°)9961910176824.9°C73.7%19.9°C2649ft (807m)12.67v31
197715 Apr 01:11:00710.3 mph14SSW (198°)9962210177124.9°C73.7%19.9°C2649ft (807m)12.67v31
197615 Apr 01:10:491111.8 mph13SSW (202°)9961110176024.9°C73.6%19.9°C2658ft (810m)12.68v31
197515 Apr 01:10:3878.9 mph10SSW (204°)9962210177124.9°C73.7%19.9°C2649ft (807m)12.69v31
197415 Apr 01:10:2667 mph9SSW (211°)9961810176724.9°C73.8%19.9°C2640ft (805m)12.67v31
197315 Apr 01:10:1599.6 mph11S (191°)9961710176624.9°C73.7%19.9°C2649ft (807m)12.67v31
197215 Apr 01:10:0467.2 mph8SSW (201°)9962110177024.9°C73.7%19.9°C2649ft (807m)12.66v31
197115 Apr 01:09:5355.8 mph7SSW (204°)9962010176924.9°C73.9%19.9°C2631ft (802m)12.67v31
197015 Apr 01:09:4188.6 mph11SSW (204°)9962310177224.9°C73.8%19.9°C2640ft (805m)12.67v31
196915 Apr 01:09:3099.4 mph10SSW (203°)9962010176925°C73.8%20°C2641ft (805m)12.66v31
196815 Apr 01:09:1989.8 mph11SSW (204°)9962310177225°C73.6%20°C2659ft (810m)12.66v31
196715 Apr 01:09:0867.9 mph10SSW (196°)9962610177525°C73.7%20°C2650ft (808m)12.68v31
196615 Apr 01:08:5688.8 mph10SSW (210°)9962210177125°C73.7%20°C2650ft (808m)12.67v31
196515 Apr 01:08:4589 mph12SSW (204°)9962410177325°C73.7%20°C2650ft (808m)12.68v31
196415 Apr 01:08:3489 mph11SSW (201°)9961810176725°C73.5%19.9°C2668ft (813m)12.68v31
196315 Apr 01:08:2378.7 mph10SSW (201°)9962110177025°C73.5%19.9°C2668ft (813m)12.68v31
196215 Apr 01:08:1167.6 mph8SSW (213°)9962510177425°C73.6%20°C2659ft (810m)12.66v31
196115 Apr 01:08:0088.5 mph9SSW (202°)9961910176825°C73.7%20°C2650ft (808m)12.67v31
196015 Apr 01:07:4966.8 mph7SW (214°)9962310177225°C73.7%20°C2650ft (808m)12.67v31
195915 Apr 01:07:3878.5 mph10SSW (200°)9962510177425°C73.8%20°C2641ft (805m)12.69v31
195815 Apr 01:07:2677.3 mph10SSW (211°)9962410177324.9°C73.8%19.9°C2640ft (805m)12.67v31
195715 Apr 01:07:1589 mph11SSW (212°)9962410177324.9°C73.6%19.9°C2658ft (810m)12.67v31
195615 Apr 01:07:0479.7 mph12SSW (211°)9962310177225°C73.6%20°C2659ft (810m)12.67v31
195515 Apr 01:06:5389.3 mph10SSW (209°)9962310177225°C73.7%20°C2650ft (808m)12.67v31
195415 Apr 01:06:4189 mph11SSW (211°)9962310177224.9°C73.7%19.9°C2649ft (807m)12.67v31
195315 Apr 01:06:3034.3 mph6SW (222°)9962810177724.9°C73.9%19.9°C2631ft (802m)12.67v31
195215 Apr 01:06:1966.5 mph7SW (214°)9962310177225°C73.8%20°C2641ft (805m)12.66v31
195115 Apr 01:06:0866.8 mph7SW (222°)9962410177325°C73.8%20°C2641ft (805m)12.68v31
195015 Apr 01:05:5666.6 mph7SW (216°)9962610177525°C73.7%20°C2650ft (808m)12.68v31
194915 Apr 01:05:4567.3 mph9SW (216°)9962610177525°C73.7%20°C2650ft (808m)12.67v31
194815 Apr 01:05:3488.1 mph9SW (220°)9962610177525°C73.7%20°C2650ft (808m)12.68v31
194715 Apr 01:05:2367.6 mph9SW (216°)9962910177825°C73.9%20°C2632ft (802m)12.67v31
194615 Apr 01:05:1167.2 mph8SSW (209°)9962810177724.9°C73.8%19.9°C2640ft (805m)12.67v31
194515 Apr 01:05:0078.4 mph9SSW (203°)9963010177924.9°C73.8%19.9°C2640ft (805m)12.67v31
194415 Apr 01:04:4978.4 mph10SW (215°)9962910177824.9°C73.8%19.9°C2640ft (805m)12.68v31
194315 Apr 01:04:3867.3 mph10SW (231°)9962610177524.9°C73.6%19.9°C2658ft (810m)12.68v31
194215 Apr 01:04:261112.1 mph13SW (219°)9963110178024.9°C73.6%19.9°C2658ft (810m)12.67v31
194115 Apr 01:04:151010.4 mph11SSW (212°)9963310178225°C73.6%20°C2659ft (810m)12.67v31
194015 Apr 01:04:041011.9 mph14SW (217°)9963110178025°C73.6%20°C2659ft (810m)12.68v31
193915 Apr 01:03:5399.7 mph11SSW (202°)9963210178125°C73.7%20°C2650ft (808m)12.67v31
193815 Apr 01:03:4188.9 mph10SW (222°)9963310178225°C73.6%20°C2659ft (810m)12.66v31
193715 Apr 01:03:3078.4 mph10SSW (205°)9963210178124.9°C73.7%19.9°C2649ft (807m)12.67v31
193615 Apr 01:03:19811.2 mph14SSW (202°)9963510178425°C73.6%20°C2659ft (810m)12.68v31
193515 Apr 01:03:081314.8 mph17SW (215°)9963210178125°C73.3%19.9°C2686ft (819m)12.68v31
193415 Apr 01:02:5677.9 mph10SSW (211°)9963510178425°C73.5%19.9°C2668ft (813m)12.68v31
193315 Apr 01:02:45910.1 mph12SW (219°)9962810177725°C73.4%19.9°C2677ft (816m)12.67v31
193215 Apr 01:02:3488.9 mph11SSW (211°)9963310178225°C73.5%19.9°C2668ft (813m)12.68v31
193115 Apr 01:02:2398.9 mph9SSW (208°)9963310178225°C73.5%19.9°C2668ft (813m)12.68v31
193015 Apr 01:02:1177.5 mph8SSW (211°)9963410178325°C73.6%20°C2659ft (810m)12.67v31
192915 Apr 01:02:0055.8 mph7SW (214°)9963610178525°C73.6%20°C2659ft (810m)12.68v31
192815 Apr 01:01:4978.3 mph10SSW (210°)9963410178325°C73.6%20°C2659ft (810m)12.66v31
192715 Apr 01:01:3877.6 mph9SSW (211°)9963610178525°C73.4%19.9°C2677ft (816m)12.67v31
192615 Apr 01:01:2655.9 mph7SW (214°)9963510178425°C73.5%19.9°C2668ft (813m)12.69v31
192515 Apr 01:01:1577.1 mph8SSW (211°)9963610178525°C73.6%20°C2659ft (810m)12.68v31
192415 Apr 01:01:0477.3 mph9SSW (208°)9963010177925°C73.6%20°C2659ft (810m)12.69v31
192315 Apr 01:00:5367.5 mph9SSW (213°)9963710178625°C73.7%20°C2650ft (808m)12.68v31
192215 Apr 01:00:4166.3 mph8SW (222°)9963610178525°C73.6%20°C2659ft (810m)12.67v31
192115 Apr 01:00:3077.7 mph9SSW (211°)9963810178725°C73.6%20°C2659ft (810m)12.67v31
192015 Apr 01:00:1966.8 mph9SSW (213°)9963810178725°C73.6%20°C2659ft (810m)12.67v31
191915 Apr 01:00:0856.3 mph7SW (218°)9963910178825°C73.6%20°C2659ft (810m)12.67v31
191815 Apr 00:59:5678.2 mph10SW (214°)9963610178525°C73.5%19.9°C2668ft (813m)12.68v31
191715 Apr 00:59:4556.4 mph9SSW (210°)9964010178925°C73.5%19.9°C2668ft (813m)12.68v31
191615 Apr 00:59:3466.8 mph8SSW (206°)9964110179025°C73.6%20°C2659ft (810m)12.67v31
191515 Apr 00:59:2378.1 mph10SW (221°)9964010178925°C73.5%19.9°C2668ft (813m)12.69v31
191415 Apr 00:59:1199.5 mph10SSW (208°)9964010178925°C73.6%20°C2659ft (810m)12.67v31
191315 Apr 00:59:0099.8 mph12SSW (209°)9964110179025°C73.5%19.9°C2668ft (813m)12.67v31
191215 Apr 00:58:4999 mph10SSW (213°)9964210179125°C73.6%20°C2659ft (810m)12.68v31
191115 Apr 00:58:3899.6 mph11SSW (207°)9964110179025°C73.4%19.9°C2677ft (816m)12.68v31
191015 Apr 00:58:2699.3 mph10SSW (204°)9963910178825°C73.3%19.9°C2686ft (819m)12.69v31
190915 Apr 00:58:1577.4 mph8SSW (208°)9964010178925°C73.5%19.9°C2668ft (813m)12.68v31
190815 Apr 00:58:04910.1 mph12SW (222°)9964010178925°C73.4%19.9°C2677ft (816m)12.68v31
190715 Apr 00:57:5399.5 mph11SSW (212°)9964210179125°C73.4%19.9°C2677ft (816m)12.67v31
190615 Apr 00:57:4167.2 mph10SSW (207°)9964310179225°C73.5%19.9°C2668ft (813m)12.67v31
190515 Apr 00:57:3099.1 mph10SSW (206°)9964110179025°C73.5%19.9°C2668ft (813m)12.66v31
190415 Apr 00:57:1989.8 mph11SSW (195°)9964310179225°C73.3%19.9°C2686ft (819m)12.68v31
190315 Apr 00:57:0888 mph9SSW (200°)9964710179625°C73.5%19.9°C2668ft (813m)12.67v31
190215 Apr 00:56:5668.2 mph10SSW (207°)9964410179325°C73.4%19.9°C2677ft (816m)12.7v31
190115 Apr 00:56:4577.4 mph8SSW (210°)9964210179125°C73.5%19.9°C2668ft (813m)12.69v31
190015 Apr 00:56:3489.1 mph11SSW (207°)9964310179225°C73.6%20°C2659ft (810m)12.67v31
189915 Apr 00:56:2356 mph7SSW (204°)9964910179825°C73.6%20°C2659ft (810m)12.68v31
189815 Apr 00:56:1188.9 mph11SSW (209°)9964410179325°C73.4%19.9°C2677ft (816m)12.67v31
189715 Apr 00:56:001010.6 mph12SSW (204°)9964210179125°C73.3%19.9°C2686ft (819m)12.68v31
189615 Apr 00:55:4999.7 mph11SSW (202°)9964210179125°C73.4%19.9°C2677ft (816m)12.67v31
189515 Apr 00:55:3866.8 mph8SSW (208°)9963810178725°C73.4%19.9°C2677ft (816m)12.67v31
189415 Apr 00:55:2656.4 mph9SW (218°)9964510179425°C73.4%19.9°C2677ft (816m)12.67v31
189315 Apr 00:55:1578.1 mph9SSW (196°)9964510179425°C73.4%19.9°C2677ft (816m)12.68v31
189215 Apr 00:55:0456.3 mph7SSW (204°)9964510179425°C73.5%19.9°C2668ft (813m)12.68v31
189115 Apr 00:54:5355.7 mph7SSW (207°)9964510179425°C73.4%19.9°C2677ft (816m)12.68v31
189015 Apr 00:54:4166.6 mph7SSW (209°)9964510179425°C73.5%19.9°C2668ft (813m)12.67v31
188915 Apr 00:54:3077.6 mph9SSW (206°)9964610179525°C73.3%19.9°C2686ft (819m)12.67v31
188815 Apr 00:54:1978.3 mph10SSW (207°)9964310179225°C73.4%19.9°C2677ft (816m)12.67v31
188715 Apr 00:54:0889.7 mph11SSW (194°)9964610179525°C73.3%19.9°C2686ft (819m)12.68v31
188615 Apr 00:53:5668.2 mph12SSW (203°)9964410179325°C73.3%19.9°C2686ft (819m)12.68v31
188515 Apr 00:53:4588.5 mph10SSW (204°)9964410179325°C73.4%19.9°C2677ft (816m)12.68v31
188415 Apr 00:53:3489.6 mph11SSW (195°)9964310179225°C73.3%19.9°C2686ft (819m)12.68v31
188315 Apr 00:53:2378.6 mph10SSW (204°)9964510179425°C73.3%19.9°C2686ft (819m)12.68v31
188215 Apr 00:53:1178.4 mph11SSW (205°)9964510179425°C73.4%19.9°C2677ft (816m)12.69v31
188115 Apr 00:53:0067.1 mph8SSW (207°)9964310179225°C73.6%20°C2659ft (810m)12.68v31
188015 Apr 00:52:4945.5 mph9SSW (203°)9964110179025°C73.7%20°C2650ft (808m)12.68v31
187915 Apr 00:52:3845.3 mph8SSW (211°)9964410179325°C73.6%20°C2659ft (810m)12.69v31
187815 Apr 00:52:2677.5 mph8SW (219°)9964310179225°C73.4%19.9°C2677ft (816m)12.67v31
187715 Apr 00:52:1577.6 mph9SW (217°)9964210179125°C73.6%20°C2659ft (810m)12.69v31
187615 Apr 00:52:0467.2 mph9SW (218°)9964110179025°C73.5%19.9°C2668ft (813m)12.68v31
187515 Apr 00:51:5399.4 mph11SSW (200°)9963910178825°C73.5%19.9°C2668ft (813m)12.68v31
187415 Apr 00:51:4178.2 mph10SSW (206°)9964210179125°C73.3%19.9°C2686ft (819m)12.68v31
187315 Apr 00:51:3079.3 mph12SSW (213°)9964310179225°C73.4%19.9°C2677ft (816m)12.67v31
187215 Apr 00:51:1957.4 mph12SW (214°)9964510179425°C73.3%19.9°C2686ft (819m)12.67v31
187115 Apr 00:51:0878 mph11SSW (202°)9964410179325°C73.3%19.9°C2686ft (819m)12.68v31
187015 Apr 00:50:5666.8 mph8SSW (207°)9964310179225°C73.4%19.9°C2677ft (816m)12.69v31
186915 Apr 00:50:4588.3 mph9SSW (200°)9964510179425°C73.3%19.9°C2686ft (819m)12.69v31
186815 Apr 00:50:3456.1 mph7SSW (201°)9964510179425.1°C73.4%20°C2679ft (817m)12.69v31
186715 Apr 00:50:2356.4 mph9SSW (206°)9964710179625.1°C73.4%20°C2679ft (817m)12.7v31
186615 Apr 00:50:1156.9 mph9SSW (199°)9964510179425.1°C73.3%20°C2688ft (819m)12.68v31
186515 Apr 00:50:0078.1 mph11SSW (209°)9964710179625.1°C73.3%20°C2688ft (819m)12.67v31
186415 Apr 00:49:4956.5 mph8SSW (212°)9964810179725°C73.3%19.9°C2686ft (819m)12.67v31
186315 Apr 00:49:3879.3 mph11SSW (202°)9964410179325.1°C73.2%20°C2697ft (822m)12.68v31
186215 Apr 00:49:2668.5 mph10SSW (209°)9964710179625.1°C73.2%20°C2697ft (822m)12.66v31
186115 Apr 00:49:1578.7 mph11SSW (203°)9964810179725°C73.3%19.9°C2686ft (819m)12.68v31
186015 Apr 00:49:0456.3 mph7SSW (205°)9964710179625°C73.3%19.9°C2686ft (819m)12.68v31
185915 Apr 00:48:5378.3 mph10SSW (205°)9964610179525°C73.2%19.9°C2695ft (821m)12.68v31
185815 Apr 00:48:4157.9 mph10SW (217°)9964410179325°C73.4%19.9°C2677ft (816m)12.68v31
185715 Apr 00:48:3066.3 mph7SSW (207°)9964710179625°C73.4%19.9°C2677ft (816m)12.68v31
185615 Apr 00:48:1967.7 mph10SSW (201°)9964810179725°C73.3%19.9°C2686ft (819m)12.68v31
185515 Apr 00:48:0876.8 mph7SSW (209°)9964610179525°C73.3%19.9°C2686ft (819m)12.67v31
185415 Apr 00:47:5657 mph8SW (216°)9964810179725°C73.4%19.9°C2677ft (816m)12.69v31
185315 Apr 00:47:4555.6 mph6SW (219°)9964910179825°C73.5%19.9°C2668ft (813m)12.69v31
185215 Apr 00:47:3466.4 mph8SSW (201°)9964810179725°C73.5%19.9°C2668ft (813m)12.69v31
185115 Apr 00:47:2355.7 mph6SW (225°)9964910179825°C73.5%19.9°C2668ft (813m)12.68v31
185015 Apr 00:47:1155.6 mph7SW (214°)9965110180025°C73.4%19.9°C2677ft (816m)12.68v31
184915 Apr 00:47:0066.5 mph7SW (216°)9965210180225°C73.4%19.9°C2677ft (816m)12.68v31
184815 Apr 00:46:4978.3 mph10SSW (205°)9964810179725°C73.2%19.9°C2695ft (821m)12.67v31
184715 Apr 00:46:3888.9 mph10SSW (213°)9965210180225°C73.1%19.8°C2704ft (824m)12.68v31
184615 Apr 00:46:2698.5 mph9SSW (207°)9964910179825°C73.4%19.9°C2677ft (816m)12.66v31
184515 Apr 00:46:1556 mph7SW (214°)9965110180025°C73.4%19.9°C2677ft (816m)12.69v31
184415 Apr 00:46:0468.3 mph10SSW (212°)9965510180525°C73.3%19.9°C2686ft (819m)12.68v31
184315 Apr 00:45:5366 mph7SW (220°)9965310180325°C73.4%19.9°C2677ft (816m)12.69v31
184215 Apr 00:45:4155.7 mph7SW (219°)9965110180025°C73.4%19.9°C2677ft (816m)12.68v31
184115 Apr 00:45:3066.9 mph9SSW (208°)9965410180425°C73.4%19.9°C2677ft (816m)12.69v31
184015 Apr 00:45:1978.4 mph10SSW (206°)9965210180225°C73.3%19.9°C2686ft (819m)12.68v31
183915 Apr 00:45:0878.1 mph10SW (214°)9965810180825°C73.5%19.9°C2668ft (813m)12.67v31
183815 Apr 00:44:5657.1 mph9SSW (212°)9965710180725°C73.5%19.9°C2668ft (813m)12.69v31
183715 Apr 00:44:4598.9 mph11SSW (212°)9965510180525°C73.4%19.9°C2677ft (816m)12.68v31
183615 Apr 00:44:3477.3 mph9SW (216°)9965410180425°C73.6%20°C2659ft (810m)12.68v31
183515 Apr 00:44:2377.3 mph8SW (219°)9965410180425°C73.6%20°C2659ft (810m)12.68v31
183415 Apr 00:44:1167 mph8SW (214°)9965610180625°C73.5%19.9°C2668ft (813m)12.68v31
183315 Apr 00:44:0055.7 mph6SSW (209°)9965610180625°C73.5%19.9°C2668ft (813m)12.68v31
183215 Apr 00:43:4956.1 mph8SW (219°)9965910180925°C73.4%19.9°C2677ft (816m)12.68v31
183115 Apr 00:43:3867.3 mph9SSW (194°)9965410180425°C73.4%19.9°C2677ft (816m)12.67v31
183015 Apr 00:43:2666 mph7SSW (210°)9965810180825°C73.4%19.9°C2677ft (816m)12.66v31
182915 Apr 00:43:1577.3 mph8SSW (209°)9965610180625°C73.4%19.9°C2677ft (816m)12.68v31
182815 Apr 00:43:0477.9 mph9SSW (204°)9965910180925°C73.4%19.9°C2677ft (816m)12.69v31
182715 Apr 00:42:5378.3 mph10SSW (202°)9965810180825°C73.4%19.9°C2677ft (816m)12.68v31
182615 Apr 00:42:4167.7 mph9SSW (197°)9965310180325°C73.2%19.9°C2695ft (821m)12.69v31
182515 Apr 00:42:3078 mph10SSW (197°)9965810180825°C73.3%19.9°C2686ft (819m)12.67v31
182415 Apr 00:42:1977.5 mph9SW (214°)9965910180925°C73.3%19.9°C2686ft (819m)12.68v31
182315 Apr 00:42:0889.9 mph12SSW (198°)9965610180625°C73.2%19.9°C2695ft (821m)12.68v31
182215 Apr 00:41:5689.4 mph12SSW (207°)9965610180625.1°C73.3%20°C2688ft (819m)12.68v31
182115 Apr 00:41:4579.5 mph12SSW (203°)9966110181125°C73.3%19.9°C2686ft (819m)12.67v31
182015 Apr 00:41:3499.1 mph10S (189°)9965710180725°C73.4%19.9°C2677ft (816m)12.68v31
181915 Apr 00:41:2378.9 mph13SSW (196°)9965910180925°C73.3%19.9°C2686ft (819m)12.67v31
181815 Apr 00:41:1167 mph9SSW (210°)9965710180725°C73.4%19.9°C2677ft (816m)12.69v31
181715 Apr 00:41:0088.7 mph10SSW (207°)9965810180825°C73.3%19.9°C2686ft (819m)12.67v31
181615 Apr 00:40:4978.7 mph10SSW (208°)9965610180625°C73.2%19.9°C2695ft (821m)12.69v31
181515 Apr 00:40:3877.9 mph9SSW (204°)9965510180525°C73.3%19.9°C2686ft (819m)12.67v31
181415 Apr 00:40:2666.6 mph7SSW (197°)9966010181025°C73.2%19.9°C2695ft (821m)12.67v31
181315 Apr 00:40:1566.9 mph8SW (220°)9965510180525°C73.3%19.9°C2686ft (819m)12.69v31
181215 Apr 00:40:0446.1 mph8SW (220°)9965710180725°C73.4%19.9°C2677ft (816m)12.68v31
181115 Apr 00:39:5357 mph10SSW (208°)9966010181025°C73.5%19.9°C2668ft (813m)12.69v31
181015 Apr 00:39:4156 mph7SSW (200°)9965710180725°C73.5%19.9°C2668ft (813m)12.69v31
180915 Apr 00:39:3056.1 mph7SW (215°)9965610180625°C73.6%20°C2659ft (810m)12.68v31
180815 Apr 00:39:1967 mph8SW (223°)9965510180525°C73.4%19.9°C2677ft (816m)12.68v31
180715 Apr 00:39:0877.8 mph9SSW (204°)9965410180425°C73.3%19.9°C2686ft (819m)12.66v31
180615 Apr 00:38:5678.7 mph10SSW (202°)9965610180625°C73.3%19.9°C2686ft (819m)12.67v31
180515 Apr 00:38:4556.9 mph9SW (216°)9965710180725°C73.4%19.9°C2677ft (816m)12.67v31
180415 Apr 00:38:3478.4 mph10SSW (213°)9965710180725°C73.5%19.9°C2668ft (813m)12.68v31
180315 Apr 00:38:2378.1 mph9SSW (208°)9965310180325°C73.5%19.9°C2668ft (813m)12.68v31
180215 Apr 00:38:1177.7 mph9SSW (203°)9965510180525°C73.5%19.9°C2668ft (813m)12.69v31
180115 Apr 00:38:0068 mph10SSW (210°)9965910180925°C73.5%19.9°C2668ft (813m)12.68v31
180015 Apr 00:37:4966.6 mph8SSW (209°)9965610180625°C73.6%20°C2659ft (810m)12.68v31
179915 Apr 00:37:3899.2 mph10SW (218°)9965210180225°C73.4%19.9°C2677ft (816m)12.68v31
179815 Apr 00:37:2688.9 mph10SW (218°)9965810180825°C73.4%19.9°C2677ft (816m)12.67v31
179715 Apr 00:37:1566.8 mph9SSW (207°)9965510180525°C73.5%19.9°C2668ft (813m)12.68v31
179615 Apr 00:37:0477.3 mph8SW (219°)9965510180525°C73.4%19.9°C2677ft (816m)12.68v31
179515 Apr 00:36:5366.5 mph7SW (214°)9965610180625°C73.5%19.9°C2668ft (813m)12.69v31
179415 Apr 00:36:4167 mph9SW (217°)9965710180725°C73.5%19.9°C2668ft (813m)12.68v31
179315 Apr 00:36:30910.2 mph13SW (226°)9965710180725°C73.4%19.9°C2677ft (816m)12.68v31
179215 Apr 00:36:1967.7 mph9SW (223°)9965910180925°C73.3%19.9°C2686ft (819m)12.7v31
179115 Apr 00:36:0877.6 mph8SSW (205°)9966010181025°C73.4%19.9°C2677ft (816m)12.68v31
179015 Apr 00:35:5677.1 mph8SSW (213°)9966110181125°C73.5%19.9°C2668ft (813m)12.68v31
178915 Apr 00:35:4555.9 mph7SW (215°)9965810180825°C73.5%19.9°C2668ft (813m)12.66v31
178815 Apr 00:35:3467.1 mph8SW (215°)9965810180825°C73.4%19.9°C2677ft (816m)12.69v31
178715 Apr 00:35:2367.9 mph10SSW (200°)9965710180725°C73.5%19.9°C2668ft (813m)12.69v31
178615 Apr 00:35:1189.3 mph11SSW (203°)9965610180625°C73.3%19.9°C2686ft (819m)12.69v31
178515 Apr 00:35:0088.5 mph10SSW (209°)9965410180425°C73.5%19.9°C2668ft (813m)12.69v31
178415 Apr 00:34:4999.5 mph11SSW (202°)9966010181025°C73.3%19.9°C2686ft (819m)12.68v31
178315 Apr 00:34:3889.7 mph12SSW (211°)9966010181025°C73.4%19.9°C2677ft (816m)12.68v31
178215 Apr 00:34:2678.2 mph9SSW (203°)9966110181125°C73.4%19.9°C2677ft (816m)12.68v31
178115 Apr 00:34:1566.7 mph8SW (215°)9966010181025°C73.5%19.9°C2668ft (813m)12.67v31
178015 Apr 00:34:0477.4 mph8SW (223°)9966010181025°C73.6%20°C2659ft (810m)12.69v31
177915 Apr 00:33:5388.6 mph9SW (214°)9965910180925°C73.6%20°C2659ft (810m)12.68v31
177815 Apr 00:33:4167.3 mph10SSW (197°)9966210181225°C73.7%20°C2650ft (808m)12.68v31
177715 Apr 00:33:301011.4 mph14SSW (208°)9966110181125°C73.4%19.9°C2677ft (816m)12.69v31
177615 Apr 00:33:1978.7 mph11SSW (208°)9966110181125°C73.5%19.9°C2668ft (813m)12.69v31
177515 Apr 00:33:08711.2 mph14SW (214°)9966010181025°C73.4%19.9°C2677ft (816m)12.68v31
177415 Apr 00:32:5678.4 mph11SSW (210°)9965910180925°C73.4%19.9°C2677ft (816m)12.66v31
177315 Apr 00:32:4579.1 mph11SSW (207°)9965910180925°C73.4%19.9°C2677ft (816m)12.68v31
177215 Apr 00:32:3499.5 mph11SSW (203°)9965410180425°C73.6%20°C2659ft (810m)12.68v31
177115 Apr 00:32:2379.9 mph14SSW (210°)9966210181225°C73.4%19.9°C2677ft (816m)12.68v31
177015 Apr 00:32:1155.7 mph7SSW (203°)9966310181325°C73.5%19.9°C2668ft (813m)12.69v31
176915 Apr 00:32:0079.1 mph12SSW (209°)9966410181425°C73.5%19.9°C2668ft (813m)12.68v31
176815 Apr 00:31:49810 mph12SSW (204°)9966310181325°C73.4%19.9°C2677ft (816m)12.69v31
176715 Apr 00:31:3867.5 mph10SSW (203°)9966410181425°C73.5%19.9°C2668ft (813m)12.68v31
176615 Apr 00:31:2678 mph10SSW (208°)9966310181325°C73.5%19.9°C2668ft (813m)12.68v31
176515 Apr 00:31:1578.4 mph10SSW (210°)9966510181525°C73.5%19.9°C2668ft (813m)12.67v31
176415 Apr 00:31:0466.8 mph9SW (214°)9966510181525°C73.5%19.9°C2668ft (813m)12.68v31
176315 Apr 00:30:5366.8 mph9SSW (203°)9966310181325°C73.4%19.9°C2677ft (816m)12.68v31
176215 Apr 00:30:4156.2 mph8SW (215°)9966410181425°C73.5%19.9°C2668ft (813m)12.68v31
176115 Apr 00:30:3077.3 mph8SSW (211°)9966410181425°C73.5%19.9°C2668ft (813m)12.69v31
176015 Apr 00:30:1977.8 mph9SW (214°)9966810181825°C73.5%19.9°C2668ft (813m)12.68v31
175915 Apr 00:30:0878.7 mph12SSW (207°)9966710181725°C73.4%19.9°C2677ft (816m)12.68v31
175815 Apr 00:29:5699.5 mph13SSW (212°)9966510181525°C73.4%19.9°C2677ft (816m)12.68v31
175715 Apr 00:29:4577.8 mph10SSW (205°)9966810181825°C73.3%19.9°C2686ft (819m)12.66v31
175615 Apr 00:29:3488.9 mph11SSW (207°)9966710181725°C73.1%19.8°C2704ft (824m)12.68v31
175515 Apr 00:29:2378.7 mph10SSW (202°)9966510181525°C73.3%19.9°C2686ft (819m)12.69v31
175415 Apr 00:29:1188.9 mph10SSW (212°)9966510181525°C73.3%19.9°C2686ft (819m)12.68v31
175315 Apr 00:29:001011 mph13SSW (209°)9966810181825°C73.3%19.9°C2686ft (819m)12.69v31
175215 Apr 00:28:4969.5 mph12SSW (205°)9966910181925°C73.2%19.9°C2695ft (821m)12.68v31
175115 Apr 00:28:3856.3 mph8SSW (210°)9966910181925°C73.4%19.9°C2677ft (816m)12.68v31
175015 Apr 00:28:2645.8 mph10SSW (194°)9967010182025°C73.5%19.9°C2668ft (813m)12.67v31
174915 Apr 00:28:1556.4 mph9SW (230°)9967010182025°C73.4%19.9°C2677ft (816m)12.68v31
174815 Apr 00:28:0488.6 mph11SW (216°)9966810181825°C73.1%19.8°C2704ft (824m)12.68v31
174715 Apr 00:27:5377.4 mph9SSW (211°)9967010182025°C73.4%19.9°C2677ft (816m)12.67v31
174615 Apr 00:27:4157.3 mph9SSW (209°)9966510181525°C73.4%19.9°C2677ft (816m)12.69v31
174515 Apr 00:27:3057.1 mph10SSW (193°)9966810181825°C73.4%19.9°C2677ft (816m)12.69v31
174415 Apr 00:27:1967.9 mph10SSW (201°)9966510181525°C73.4%19.9°C2677ft (816m)12.68v31
174315 Apr 00:27:0898.9 mph10SSW (213°)9967010182025°C73.3%19.9°C2686ft (819m)12.68v31
174215 Apr 00:26:5698.9 mph10SSW (198°)9967010182025°C73.3%19.9°C2686ft (819m)12.67v31
174115 Apr 00:26:4578.6 mph10SSW (207°)9966910181925°C73.3%19.9°C2686ft (819m)12.68v31
174015 Apr 00:26:3489.2 mph11SSW (204°)9967110182125°C73.2%19.9°C2695ft (821m)12.67v31
173915 Apr 00:26:2399.8 mph11SW (216°)9966810181825°C73.3%19.9°C2686ft (819m)12.68v31
173815 Apr 00:26:1189.9 mph11SSW (198°)9966710181725°C73.3%19.9°C2686ft (819m)12.69v31
173715 Apr 00:26:0088.8 mph12SW (216°)9967310182325°C73.4%19.9°C2677ft (816m)12.68v31
173615 Apr 00:25:4999.3 mph10SW (214°)9966810181825°C73.4%19.9°C2677ft (816m)12.67v31
173515 Apr 00:25:3879.2 mph12SW (219°)9966610181625°C73.3%19.9°C2686ft (819m)12.69v31
173415 Apr 00:25:2678.4 mph10SSW (206°)9966710181725°C73.4%19.9°C2677ft (816m)12.69v31
173315 Apr 00:25:15911.6 mph14SSW (210°)9966610181625°C73.4%19.9°C2677ft (816m)12.68v31
173215 Apr 00:25:0479.1 mph13SSW (199°)9966610181625°C73.5%19.9°C2668ft (813m)12.66v31
173115 Apr 00:24:5389.5 mph12SSW (197°)9966710181725°C73.3%19.9°C2686ft (819m)12.68v31
173015 Apr 00:24:4166.4 mph7SSW (213°)9966710181725°C73.4%19.9°C2677ft (816m)12.7v31
172915 Apr 00:24:3068.1 mph10SSW (209°)9966910181925°C73.2%19.9°C2695ft (821m)12.69v31
172815 Apr 00:24:1978.2 mph10SW (215°)9967110182125°C73.3%19.9°C2686ft (819m)12.68v31
172715 Apr 00:24:08911 mph14SW (217°)9966910181925°C73.2%19.9°C2695ft (821m)12.7v31
172615 Apr 00:23:561214.4 mph18SSW (202°)9966210181225°C73.1%19.8°C2704ft (824m)12.69v31
172515 Apr 00:23:45710 mph14SSW (208°)9967210182225°C73.1%19.8°C2704ft (824m)12.68v31
172415 Apr 00:23:3479.7 mph14SSW (212°)9967310182325°C73.1%19.8°C2704ft (824m)12.68v31
172315 Apr 00:23:23811 mph13SSW (212°)9966510181525.1°C72.9%19.9°C2724ft (830m)12.68v31
172215 Apr 00:23:1177.7 mph9SW (215°)9967110182125.1°C73.1%19.9°C2706ft (825m)12.7v31
172115 Apr 00:23:0068.6 mph12SSW (211°)9967310182325.1°C72.9%19.9°C2724ft (830m)12.69v31
172015 Apr 00:22:4988.5 mph10SW (214°)9967510182525°C72.9%19.8°C2723ft (830m)12.69v31
171915 Apr 00:22:3888.7 mph10SSW (203°)9967410182425°C73%19.8°C2714ft (827m)12.69v31
171815 Apr 00:22:2667.3 mph9SSW (212°)9967710182725.1°C73%19.9°C2715ft (828m)12.69v31
171715 Apr 00:22:1567.5 mph9SW (217°)9967710182725.1°C72.9%19.9°C2724ft (830m)12.68v31
171615 Apr 00:22:0488.8 mph10SSW (204°)9967610182625°C73%19.8°C2714ft (827m)12.68v31
171515 Apr 00:21:5389.3 mph12SW (224°)9967610182625°C72.8%19.8°C2732ft (833m)12.68v31
171415 Apr 00:21:411112.7 mph14SSW (211°)9967310182325.1°C72.8%19.9°C2733ft (833m)12.67v31
171315 Apr 00:21:301212.8 mph15SSW (200°)9968010183025.1°C72.7%19.9°C2742ft (836m)12.69v31
171215 Apr 00:21:1979.9 mph15SSW (207°)9967410182425.1°C72.7%19.9°C2742ft (836m)12.68v31
171115 Apr 00:21:0867.6 mph10SSW (203°)9968110183125.1°C72.8%19.9°C2733ft (833m)12.68v31
171015 Apr 00:20:561010.7 mph12SW (220°)9968010183025.1°C72.7%19.9°C2742ft (836m)12.7v31
170915 Apr 00:20:4577.9 mph9SSW (209°)9968410183425.1°C72.6%19.8°C2751ft (839m)12.68v31
170815 Apr 00:20:3456.5 mph9SSW (212°)9968410183425.1°C72.7%19.9°C2742ft (836m)12.69v31
170715 Apr 00:20:2356.8 mph8SW (226°)9968210183225.1°C72.7%19.9°C2742ft (836m)12.67v31
170615 Apr 00:20:1156.2 mph8SSW (210°)9968810183825.1°C72.7%19.9°C2742ft (836m)12.68v31
170515 Apr 00:20:00810.2 mph12SW (220°)9968610183625.1°C72.7%19.9°C2742ft (836m)12.68v31
170415 Apr 00:19:4956.6 mph9SW (220°)9968510183525.1°C72.7%19.9°C2742ft (836m)12.7v31
170315 Apr 00:19:3856.7 mph9S (190°)9968610183625.1°C72.6%19.8°C2751ft (839m)12.69v31
170215 Apr 00:19:2689.3 mph11S (188°)9968610183625.1°C72.8%19.9°C2733ft (833m)12.68v31
170115 Apr 00:19:1589.1 mph10SSW (209°)9968710183725.1°C72.8%19.9°C2733ft (833m)12.69v31
170015 Apr 00:19:041010.3 mph11SSW (205°)9968610183625.1°C72.6%19.8°C2751ft (839m)12.68v31
169915 Apr 00:18:5389.1 mph11SSW (199°)9968610183625.1°C72.5%19.8°C2761ft (842m)12.69v31
169815 Apr 00:18:4188.6 mph9SSW (211°)9968410183425.1°C72.8%19.9°C2733ft (833m)12.69v31
169715 Apr 00:18:3079.3 mph13SSW (196°)9968710183725.1°C72.7%19.9°C2742ft (836m)12.7v31
169615 Apr 00:18:1977.7 mph9SSW (206°)9968910183925.1°C72.9%19.9°C2724ft (830m)12.69v31
169515 Apr 00:18:0867.5 mph9SSW (213°)9969010184025.1°C72.9%19.9°C2724ft (830m)12.69v31
169415 Apr 00:17:5666.2 mph8SSW (204°)9969010184025.1°C72.8%19.9°C2733ft (833m)12.7v31
169315 Apr 00:17:4567 mph9S (188°)9969210184225.1°C72.8%19.9°C2733ft (833m)12.69v31
169215 Apr 00:17:34910.4 mph13SSW (203°)9969110184125.1°C72.7%19.9°C2742ft (836m)12.68v31
169115 Apr 00:17:2368.2 mph12SSW (211°)9969210184225.1°C72.7%19.9°C2742ft (836m)12.68v31
169015 Apr 00:17:1167.8 mph12SSW (207°)9969310184325.1°C72.6%19.8°C2751ft (839m)12.69v31
168915 Apr 00:17:0079.2 mph12SSW (207°)9969010184025.1°C72.5%19.8°C2761ft (842m)12.7v31
168815 Apr 00:16:4988.5 mph10SSW (210°)9969210184225.1°C72.6%19.8°C2751ft (839m)12.7v31
168715 Apr 00:16:38810.4 mph12SSW (209°)9969010184025.1°C72.6%19.8°C2751ft (839m)12.69v31
168615 Apr 00:16:261012 mph14SSW (198°)9969210184225.1°C72.4%19.8°C2770ft (844m)12.68v31
168515 Apr 00:16:15910.8 mph13SSW (202°)9969310184325.1°C72.3%19.8°C2779ft (847m)12.71v31
168415 Apr 00:16:0479 mph12SSW (204°)9969610184625.1°C72.4%19.8°C2770ft (844m)12.69v31
168315 Apr 00:15:5388.5 mph10SSW (210°)9969310184325.1°C72.5%19.8°C2761ft (842m)12.68v31
168215 Apr 00:15:4188.5 mph11SSW (198°)9969410184425.1°C72.4%19.8°C2770ft (844m)12.69v31
168115 Apr 00:15:30610 mph12SSW (194°)9969910185025.1°C72.1%19.7°C2797ft (853m)12.68v31
168015 Apr 00:15:1956.7 mph10SSW (208°)9969510184525.1°C72.4%19.8°C2770ft (844m)12.69v31
167915 Apr 00:15:0868.1 mph10SSW (206°)9969910185025.1°C72.4%19.8°C2770ft (844m)12.69v31
167815 Apr 00:14:5699.7 mph11SSW (210°)9969810184925.1°C72.4%19.8°C2770ft (844m)12.68v31
167715 Apr 00:14:4588.8 mph10SW (215°)9969910185025.1°C72.3%19.8°C2779ft (847m)12.69v31
167615 Apr 00:14:3478.3 mph9SSW (211°)9969510184525.1°C72.4%19.8°C2770ft (844m)12.69v31
167515 Apr 00:14:2368.3 mph10SW (222°)9969710184725.1°C72.3%19.8°C2779ft (847m)12.68v31
167415 Apr 00:14:1179.7 mph11SSW (203°)9969910185025.1°C72.5%19.8°C2761ft (842m)12.69v31
167315 Apr 00:14:0056.2 mph9SSW (209°)9970010185125.1°C72.6%19.8°C2751ft (839m)12.69v31
167215 Apr 00:13:4956.3 mph8SSW (205°)9970210185325.1°C72.5%19.8°C2761ft (842m)12.7v31
167115 Apr 00:13:3868.5 mph10SSW (211°)9970210185325.1°C72.4%19.8°C2770ft (844m)12.69v31
167015 Apr 00:13:2699.5 mph11SSW (205°)9969310184325.1°C72.2%19.7°C2788ft (850m)12.69v31
166915 Apr 00:13:1599.7 mph11SW (217°)9970010185125.1°C72.2%19.7°C2788ft (850m)12.69v31
166815 Apr 00:13:0435.9 mph10SSW (209°)9969910185025.1°C72.4%19.8°C2770ft (844m)12.68v31
166715 Apr 00:12:5343.3 mph5SW (222°)9970310185425.1°C72.4%19.8°C2770ft (844m)12.68v31
166615 Apr 00:12:4166.1 mph8SW (226°)9970210185325.1°C72.3%19.8°C2779ft (847m)12.68v31
166515 Apr 00:12:3066.5 mph8SW (216°)9970210185325.1°C72.3%19.8°C2779ft (847m)12.69v31
166415 Apr 00:12:1977.9 mph10SW (217°)9970410185525.1°C72.4%19.8°C2770ft (844m)12.72v31
166315 Apr 00:12:0867.7 mph11SSW (213°)9970210185325.1°C72.4%19.8°C2770ft (844m)12.7v31
166215 Apr 00:11:5667.9 mph10SSW (196°)9969910185025.1°C72.3%19.8°C2779ft (847m)12.69v31
166115 Apr 00:11:45910.5 mph13SSW (212°)9970610185725.1°C72.3%19.8°C2779ft (847m)12.69v31
166015 Apr 00:11:3477 mph8SW (217°)9969910185025.1°C72.4%19.8°C2770ft (844m)12.7v31
165915 Apr 00:11:2389.4 mph11SSW (212°)9970110185225.1°C72.2%19.7°C2788ft (850m)12.68v31
165815 Apr 00:11:111012.1 mph13SSW (193°)9969910185025.1°C72.2%19.7°C2788ft (850m)12.68v31
165715 Apr 00:11:001111.8 mph13SSW (198°)9970110185225.1°C72.2%19.7°C2788ft (850m)12.68v31
165615 Apr 00:10:4989.3 mph12SSW (199°)9970010185125.1°C72.3%19.8°C2779ft (847m)12.69v31
165515 Apr 00:10:381112.4 mph14SW (215°)9970410185525.2°C71.9%19.8°C2817ft (859m)12.71v31
165415 Apr 00:10:26911.4 mph14SSW (206°)9969410184425.2°C71.9%19.8°C2817ft (859m)12.69v31
165315 Apr 00:10:1589.8 mph13SSW (206°)9970510185625.2°C71.9%19.8°C2817ft (859m)12.68v31
165215 Apr 00:10:0466.8 mph8SSW (209°)9970310185425.2°C72%19.8°C2808ft (856m)12.68v31
165115 Apr 00:09:5389.9 mph12SW (214°)9970510185625.2°C71.6%19.7°C2845ft (867m)12.69v31
165015 Apr 00:09:411010.5 mph11SSW (203°)9970610185725.2°C71.6%19.7°C2845ft (867m)12.68v31
164915 Apr 00:09:3076.8 mph8SSW (210°)9970410185525.3°C71.8%19.8°C2828ft (862m)12.68v31
164815 Apr 00:09:1989 mph11SW (218°)9970110185225.2°C71.8%19.7°C2826ft (861m)12.7v31
164715 Apr 00:09:0889.6 mph10SSW (205°)9970610185725.2°C71.7%19.7°C2836ft (864m)12.68v31
164615 Apr 00:08:5645.4 mph7SW (215°)9970810185925.3°C72%19.9°C2810ft (856m)12.7v31
164515 Apr 00:08:4556.4 mph8SW (214°)9970610185725.3°C71.7%19.8°C2837ft (865m)12.69v31
164415 Apr 00:08:3465.9 mph7SW (216°)9971010186125.3°C71.7%19.8°C2837ft (865m)12.69v31
164315 Apr 00:08:2366.2 mph7SW (214°)9970710185825.3°C71.6%19.8°C2847ft (868m)12.69v31
164215 Apr 00:08:1157.1 mph10SW (217°)9970910186025.3°C71.6%19.8°C2847ft (868m)12.68v31
164115 Apr 00:08:0077.9 mph9SW (215°)9970910186025.3°C71.6%19.8°C2847ft (868m)12.68v31
164015 Apr 00:07:4977.5 mph8SW (217°)9970910186025.3°C71.5%19.8°C2856ft (871m)12.7v31
163915 Apr 00:07:3888 mph9SSW (208°)9971210186325.3°C71.5%19.8°C2856ft (871m)12.7v31
163815 Apr 00:07:2678 mph10SSW (209°)9971210186325.3°C71.5%19.8°C2856ft (871m)12.69v31
163715 Apr 00:07:15910 mph11SSW (212°)9971110186225.3°C71.5%19.8°C2856ft (871m)12.69v31
163615 Apr 00:07:0488.5 mph10SW (214°)9971410186525.3°C71.5%19.8°C2856ft (871m)12.69v31
163515 Apr 00:06:5357.3 mph10SSW (201°)9971310186425.3°C71.5%19.8°C2856ft (871m)12.69v31
163415 Apr 00:06:4167.9 mph10SSW (209°)9971310186425.3°C71.6%19.8°C2847ft (868m)12.68v31
163315 Apr 00:06:3067.2 mph8SW (217°)9971210186325.4°C71.5%19.9°C2857ft (871m)12.69v31
163215 Apr 00:06:1989.6 mph11SSW (201°)9971110186225.3°C71.4%19.8°C2865ft (873m)12.7v31
163115 Apr 00:06:0889.1 mph11SSW (198°)9971110186225.4°C71.3%19.8°C2876ft (877m)12.7v31
163015 Apr 00:05:5689.1 mph10SSW (201°)9971310186425.4°C71.4%19.8°C2867ft (874m)12.7v31
162915 Apr 00:05:45910 mph12SSW (200°)9971310186425.4°C71.2%19.8°C2885ft (879m)12.69v31
162815 Apr 00:05:3478.6 mph11SSW (199°)9971610186725.4°C71.2%19.8°C2885ft (879m)12.68v31
162715 Apr 00:05:2388.6 mph10SSW (205°)9971210186325.4°C71.3%19.8°C2876ft (877m)12.69v31
162615 Apr 00:05:1199.9 mph11SSW (198°)9971410186525.4°C71.2%19.8°C2885ft (879m)12.68v31
162515 Apr 00:05:0056.3 mph7SSW (198°)9971310186425.4°C71.4%19.8°C2867ft (874m)12.67v31
162415 Apr 00:04:4956.1 mph8SSW (206°)9971610186725.4°C71.3%19.8°C2876ft (877m)12.69v31
162315 Apr 00:04:3868 mph11SSW (207°)9971610186725.4°C71.3%19.8°C2876ft (877m)12.69v31
162215 Apr 00:04:2689.2 mph11SSW (208°)9971510186625.4°C71.4%19.8°C2867ft (874m)12.7v31
162115 Apr 00:04:1577.2 mph8SW (220°)9971410186525.3°C71.5%19.8°C2856ft (871m)12.7v31
162015 Apr 00:04:0466.7 mph8SW (223°)9971710186825.4°C71.4%19.8°C2867ft (874m)12.69v31
161915 Apr 00:03:5345.4 mph7SSW (213°)9971410186525.3°C71.4%19.8°C2865ft (873m)12.69v31
161815 Apr 00:03:4177.5 mph8SW (223°)9971810186925.3°C71.4%19.8°C2865ft (873m)12.67v31
161715 Apr 00:03:3067 mph9SW (232°)9971710186825.4°C71.3%19.8°C2876ft (877m)12.7v31
161615 Apr 00:03:1967.3 mph10SW (225°)9971610186725.4°C71.3%19.8°C2876ft (877m)12.67v31
161515 Apr 00:03:0877.9 mph11SSW (198°)9971710186825.4°C71.4%19.8°C2867ft (874m)12.68v31
161415 Apr 00:02:5699.1 mph10SSW (207°)9971510186625.4°C71.3%19.8°C2876ft (877m)12.7v31
161315 Apr 00:02:4579.2 mph12SSW (209°)9972310187425.4°C71.2%19.8°C2885ft (879m)12.69v31
161215 Apr 00:02:3479.7 mph11SSW (204°)9971310186425.4°C71.3%19.8°C2876ft (877m)12.69v31
161115 Apr 00:02:2366.8 mph7SSW (213°)9972410187525.3°C71.4%19.8°C2865ft (873m)12.67v31
161015 Apr 00:02:1188.6 mph10SSW (201°)9972110187225.3°C71.2%19.7°C2884ft (879m)12.69v31
160915 Apr 00:02:0079.6 mph12SSW (205°)9971610186725.3°C71.2%19.7°C2884ft (879m)12.67v31
160815 Apr 00:01:4955.4 mph7SSW (204°)9971710186825.4°C71.4%19.8°C2867ft (874m)12.66v31
160715 Apr 00:01:3856.5 mph8SSW (197°)9971910187025.4°C71.4%19.8°C2867ft (874m)12.69v31
160615 Apr 00:01:2666.7 mph8SSW (203°)9972110187225.4°C71.3%19.8°C2876ft (877m)12.68v31
160515 Apr 00:01:1578.9 mph11SSW (209°)9971910187025.4°C71.3%19.8°C2876ft (877m)12.7v31
160415 Apr 00:01:0479 mph11SSW (202°)9972010187125.4°C71.2%19.8°C2885ft (879m)12.68v31
160315 Apr 00:00:5368 mph9SSW (204°)9971810186925.4°C71.2%19.8°C2885ft (879m)12.68v31
160215 Apr 00:00:4155.9 mph7SW (220°)9972010187125.4°C71.3%19.8°C2876ft (877m)12.69v31
160115 Apr 00:00:3066.5 mph7SSW (201°)9972110187225.4°C71.3%19.8°C2876ft (877m)12.69v31
160015 Apr 00:00:1977.6 mph10SSW (206°)9971910187025.4°C71.2%19.8°C2885ft (879m)12.68v31
159915 Apr 00:00:0889 mph10SSW (204°)9971910187025.4°C71.2%19.8°C2885ft (879m)12.69v31
159814 Apr 23:59:5677.5 mph9SSW (197°)9972010187125.4°C71.2%19.8°C2885ft (879m)12.69v31
159714 Apr 23:59:4589.1 mph11SSW (196°)9972110187225.4°C71.1%19.8°C2895ft (882m)12.69v31
159614 Apr 23:59:3456.3 mph8SSW (205°)9972110187225.4°C71.2%19.8°C2885ft (879m)12.69v31
159514 Apr 23:59:2379.4 mph12SSW (211°)9972110187225.4°C71.2%19.8°C2885ft (879m)12.7v31
159414 Apr 23:59:111010.5 mph12SSW (208°)9971810186925.4°C71%19.8°C2904ft (885m)12.68v31
159314 Apr 23:59:0089.6 mph11SSW (202°)9972410187525.4°C71.1%19.8°C2895ft (882m)12.67v31
159214 Apr 23:58:49910.1 mph12SSW (210°)9972210187325.4°C70.9%19.7°C2913ft (888m)12.69v31
159114 Apr 23:58:3889.8 mph12SSW (205°)9972010187125.4°C71%19.8°C2904ft (885m)12.68v31
159014 Apr 23:58:2677.6 mph9SSW (204°)9971810186925.4°C71%19.8°C2904ft (885m)12.69v31
158914 Apr 23:58:1589 mph11SW (218°)9971810186925.4°C71.1%19.8°C2895ft (882m)12.7v31
158814 Apr 23:58:0456.1 mph8SSW (207°)9972310187425.4°C71.1%19.8°C2895ft (882m)12.69v31
158714 Apr 23:57:5356.3 mph9SSW (206°)9972110187225.4°C71.1%19.8°C2895ft (882m)12.68v31
158614 Apr 23:57:4199.5 mph11SSW (210°)9971910187025.4°C70.9%19.7°C2913ft (888m)12.68v31
158514 Apr 23:57:3079.1 mph11SSW (206°)9972210187325.4°C70.8%19.7°C2923ft (891m)12.69v31
158414 Apr 23:57:1977.9 mph10SSW (211°)9972010187125.4°C70.9%19.7°C2913ft (888m)12.67v31
158314 Apr 23:57:0767.5 mph9SSW (208°)9971910187025.4°C71%19.8°C2904ft (885m)12.68v31
158214 Apr 23:56:5656.5 mph8SSW (200°)9972110187225.4°C71%19.8°C2904ft (885m)12.68v31
158114 Apr 23:56:4566 mph7SW (215°)9971710186825.4°C71.1%19.8°C2895ft (882m)12.71v31
158014 Apr 23:56:3467.2 mph10SSW (205°)9972210187325.4°C71%19.8°C2904ft (885m)12.69v31
157914 Apr 23:56:2267.3 mph10S (187°)9972110187225.4°C71%19.8°C2904ft (885m)12.68v31
157814 Apr 23:56:1166.1 mph7SSW (208°)9972310187425.4°C71.1%19.8°C2895ft (882m)12.69v31
157714 Apr 23:56:0044.7 mph6SW (218°)9972210187325.4°C71%19.8°C2904ft (885m)12.69v31
157614 Apr 23:55:4935.3 mph7SW (222°)9971910187025.4°C71%19.8°C2904ft (885m)12.69v31
157514 Apr 23:55:3755.9 mph8SW (217°)9972210187325.4°C71%19.8°C2904ft (885m)12.68v31
157414 Apr 23:55:2655.6 mph8SSW (213°)9971910187025.4°C70.9%19.7°C2913ft (888m)12.68v31
157314 Apr 23:55:1567.9 mph11SW (217°)9972010187125.4°C70.9%19.7°C2913ft (888m)12.7v31
157214 Apr 23:55:0489 mph11SW (217°)9971910187025.4°C70.9%19.7°C2913ft (888m)12.69v31
157114 Apr 23:54:5288.7 mph10SSW (205°)9972210187325.4°C70.8%19.7°C2923ft (891m)12.68v31
157014 Apr 23:54:4189.3 mph11SSW (205°)9971610186725.4°C70.8%19.7°C2923ft (891m)12.69v31
156914 Apr 23:54:3088.3 mph9SSW (202°)9972110187225.4°C70.9%19.7°C2913ft (888m)12.67v31
156814 Apr 23:54:19710.4 mph14S (190°)9971910187025.4°C70.9%19.7°C2913ft (888m)12.68v19
156714 Apr 23:54:0867.7 mph12SSW (204°)9971410186525.4°C71%19.8°C2904ft (885m)12.7v18
156614 Apr 23:53:5677.3 mph9SSW (212°)9971710186825.4°C71%19.8°C2904ft (885m)12.68v18
156514 Apr 23:53:4566.7 mph7SSW (208°)9972010187125.4°C71.1%19.8°C2895ft (882m)12.68v17
156414 Apr 23:53:3478.1 mph10SSW (213°)9972010187125.4°C71%19.8°C2904ft (885m)12.67v18
156314 Apr 23:53:2367.4 mph9SW (216°)9972010187125.4°C71%19.8°C2904ft (885m)12.69v18
156214 Apr 23:53:1177.7 mph9SSW (201°)9972010187125.4°C71%19.8°C2904ft (885m)12.67v18
156114 Apr 23:53:0067.4 mph9SSW (213°)9972210187325.4°C71%19.8°C2904ft (885m)12.68v17
156014 Apr 23:52:4966.9 mph8SSW (208°)9972010187125.4°C71%19.8°C2904ft (885m)12.69v18
155914 Apr 23:52:3878.1 mph9SSW (204°)9971810186925.4°C71%19.8°C2904ft (885m)12.69v19
155814 Apr 23:52:2688.9 mph10SSW (212°)9971910187025.4°C71%19.8°C2904ft (885m)12.69v18
155714 Apr 23:52:1578.9 mph12SSW (213°)9971610186725.4°C70.9%19.7°C2913ft (888m)12.69v18
155614 Apr 23:52:0477.4 mph8SSW (198°)9972010187125.4°C71.1%19.8°C2895ft (882m)12.69v18
155514 Apr 23:51:5377.6 mph8SSW (207°)9972110187225.4°C71.1%19.8°C2895ft (882m)12.69v18
155414 Apr 23:51:4188.4 mph10SSW (213°)9972410187525.4°C71%19.8°C2904ft (885m)12.68v17
155314 Apr 23:51:3056.7 mph8SSW (208°)9972110187225.4°C71%19.8°C2904ft (885m)12.68v19
155214 Apr 23:51:1966.5 mph8SSW (212°)9972410187525.3°C71.1%19.7°C2893ft (882m)12.67v18
155114 Apr 23:51:0877.9 mph10SSW (201°)9972210187325.3°C71%19.7°C2902ft (885m)12.68v18
155014 Apr 23:50:5657.2 mph9SSW (202°)9972010187125.3°C71.2%19.7°C2884ft (879m)12.68v17
154914 Apr 23:50:4567 mph9SSW (209°)9972010187125.3°C71.2%19.7°C2884ft (879m)12.7v17
154814 Apr 23:50:3467.3 mph10SSW (209°)9971910187025.3°C71.1%19.7°C2893ft (882m)12.68v18
154714 Apr 23:50:2367.7 mph10SW (217°)9972010187125.3°C71.2%19.7°C2884ft (879m)12.69v19
154614 Apr 23:50:1168.8 mph12SSW (199°)9972510187625.3°C71.2%19.7°C2884ft (879m)12.7v17
154514 Apr 23:50:001010.6 mph11SSW (206°)9971710186825.3°C71.1%19.7°C2893ft (882m)12.69v19
154414 Apr 23:49:4978.5 mph12SSW (202°)9972310187425.3°C71.2%19.7°C2884ft (879m)12.68v18
154314 Apr 23:49:38911.1 mph14SSW (198°)9972110187225.3°C71%19.7°C2902ft (885m)12.69v18
154214 Apr 23:49:2688.8 mph10SSW (207°)9972610187725.3°C71%19.7°C2902ft (885m)12.7v18
154114 Apr 23:49:151012.1 mph14SSW (207°)9972210187325.3°C70.9%19.6°C2911ft (887m)12.7v19
154014 Apr 23:49:0479.2 mph12SSW (194°)9972110187225.3°C71.1%19.7°C2893ft (882m)12.7v19
153914 Apr 23:48:5379.3 mph11SSW (210°)9972110187225.3°C71%19.7°C2902ft (885m)12.69v18
153814 Apr 23:48:41910.6 mph12SSW (200°)9972010187125.3°C70.9%19.6°C2911ft (887m)12.7v17
153714 Apr 23:48:3078.2 mph12SSW (193°)9972210187325.3°C71.1%19.7°C2893ft (882m)12.69v17
153614 Apr 23:48:191011.4 mph12SSW (192°)9971910187025.3°C71%19.7°C2902ft (885m)12.69v18
153514 Apr 23:48:08911 mph13SSW (202°)9971810186925.3°C71%19.7°C2902ft (885m)12.69v19
153414 Apr 23:47:571011.3 mph13SSW (203°)9971710186825.3°C71%19.7°C2902ft (885m)12.68v19
153314 Apr 23:47:45810.3 mph12SSW (203°)9971610186725.3°C71%19.7°C2902ft (885m)12.7v20
153214 Apr 23:47:3499.2 mph11SSW (205°)9972010187125.3°C71.1%19.7°C2893ft (882m)12.68v18
153114 Apr 23:47:23710.3 mph13SSW (197°)9972010187125.3°C70.9%19.6°C2911ft (887m)12.69v17
153014 Apr 23:47:1289 mph10SSW (207°)9971910187025.3°C70.9%19.6°C2911ft (887m)12.68v18
152914 Apr 23:47:0089.3 mph11SSW (212°)9972110187225.3°C71%19.7°C2902ft (885m)12.68v17
152814 Apr 23:46:4969.1 mph12SSW (204°)9972010187125.3°C71.1%19.7°C2893ft (882m)12.69v18
152714 Apr 23:46:3899.9 mph11SSW (203°)9972310187425.3°C70.9%19.6°C2911ft (887m)12.69v19
152614 Apr 23:46:2768.3 mph9SSW (194°)9971810186925.3°C71%19.7°C2902ft (885m)12.7v17
152514 Apr 23:46:151111.6 mph13SSW (213°)9972210187325.3°C70.9%19.6°C2911ft (887m)12.69v19
152414 Apr 23:46:0478.4 mph10SW (215°)9971810186925.3°C71.1%19.7°C2893ft (882m)12.7v19
152314 Apr 23:45:5399.9 mph11SSW (205°)9972210187325.3°C71%19.7°C2902ft (885m)12.7v17
152214 Apr 23:45:42910.8 mph13SSW (213°)9972010187125.3°C70.9%19.6°C2911ft (887m)12.69v18
152114 Apr 23:45:3089.1 mph10SSW (211°)9972110187225.3°C71%19.7°C2902ft (885m)12.7v17
152014 Apr 23:45:1966.7 mph8SW (219°)9972310187425.3°C71.1%19.7°C2893ft (882m)12.68v18
151914 Apr 23:45:0867.2 mph8SSW (198°)9972110187225.2°C71.2%19.6°C2882ft (878m)12.68v18
151814 Apr 23:44:561011.3 mph13SSW (197°)9971910187025.2°C71%19.6°C2900ft (884m)12.68v19
151714 Apr 23:44:4589.7 mph12SSW (192°)9971810186925.2°C71.1%19.6°C2891ft (881m)12.69v17
151614 Apr 23:44:341111.8 mph14SSW (199°)9972710187825.2°C71%19.6°C2900ft (884m)12.69v17
151514 Apr 23:44:2379.5 mph12SSW (200°)9972110187225.2°C71%19.6°C2900ft (884m)12.71v18
151414 Apr 23:44:1189.6 mph11S (190°)9972310187425.2°C71.1%19.6°C2891ft (881m)12.69v18
151314 Apr 23:44:00910.5 mph13S (191°)9972310187425.2°C70.9%19.5°C2910ft (887m)12.69v18
151214 Apr 23:43:4979.9 mph15SSW (211°)9972210187325.2°C71.1%19.6°C2891ft (881m)12.7v19
151114 Apr 23:43:381011.7 mph13SSW (201°)9971810186925.2°C70.9%19.5°C2910ft (887m)12.67v17
151014 Apr 23:43:26911.2 mph13SSW (203°)9972010187125.2°C70.9%19.5°C2910ft (887m)12.69v18
150914 Apr 23:43:1578.8 mph11SSW (199°)9972510187625.2°C71%19.6°C2900ft (884m)12.69v18
150814 Apr 23:43:0489.6 mph11SSW (199°)9972310187425.2°C71.2%19.6°C2882ft (878m)12.71v19
150714 Apr 23:42:531011.7 mph14SSW (202°)9971910187025.2°C71.1%19.6°C2891ft (881m)12.71v19
150614 Apr 23:42:41910.5 mph12SSW (202°)9972310187425.2°C71%19.6°C2900ft (884m)12.68v19
150514 Apr 23:42:3079 mph12SSW (194°)9971110186225.2°C71.1%19.6°C2891ft (881m)12.69v17
150414 Apr 23:42:19910.2 mph11SSW (201°)9972210187325.2°C71%19.6°C2900ft (884m)12.69v17
150314 Apr 23:42:0878.8 mph11SSW (195°)9972410187525.2°C71%19.6°C2900ft (884m)12.69v18
150214 Apr 23:41:56911.5 mph13SSW (204°)9972310187425.2°C71%19.6°C2900ft (884m)12.68v18
150114 Apr 23:41:45810.8 mph14S (178°)9972010187125.1°C70.9%19.4°C2908ft (886m)12.7v17
150014 Apr 23:41:34810.5 mph14SSW (196°)9972510187625.2°C70.9%19.5°C2910ft (887m)12.71v18
149914 Apr 23:41:2367.8 mph10SW (215°)9972610187725.2°C71%19.6°C2900ft (884m)12.7v17
149814 Apr 23:41:1167.4 mph8SSW (208°)9972910188025.1°C71.1%19.5°C2889ft (881m)12.68v17
149714 Apr 23:41:0078.1 mph9SSW (201°)9972210187325.1°C71%19.5°C2899ft (884m)12.69v19
149614 Apr 23:40:4989 mph12SSW (197°)9972510187625.1°C71%19.5°C2899ft (884m)12.69v17
149514 Apr 23:40:3867 mph8SSW (194°)9972110187225.1°C71.3%19.5°C2871ft (875m)12.68v19
149414 Apr 23:40:2669.6 mph13SSW (202°)9972710187825.1°C71.1%19.5°C2889ft (881m)12.69v19
149314 Apr 23:40:1557.7 mph12SW (221°)9972810187925.1°C71.1%19.5°C2889ft (881m)12.67v19
149214 Apr 23:40:0467.1 mph9SSW (210°)9972910188025.1°C71.3%19.5°C2871ft (875m)12.7v19
149114 Apr 23:39:5366.9 mph8SSW (207°)9972410187525.1°C71.3%19.5°C2871ft (875m)12.7v20
149014 Apr 23:39:41810 mph12SSW (200°)9972810187925.1°C71.2%19.5°C2880ft (878m)12.69v18
148914 Apr 23:39:3078 mph9SSW (203°)9973010188125.1°C71.4%19.6°C2862ft (872m)12.69v19
148814 Apr 23:39:1988.5 mph10SSW (195°)9972610187725°C71.3%19.4°C2869ft (874m)12.7v18
148714 Apr 23:39:0868.4 mph11S (190°)9972610187725.1°C71.1%19.5°C2889ft (881m)12.69v18
148614 Apr 23:38:56810.1 mph12SSW (198°)9972610187725.1°C71.1%19.5°C2889ft (881m)12.68v17
148514 Apr 23:38:4577.2 mph8SSW (205°)9972710187825°C71.3%19.4°C2869ft (874m)12.69v18
148414 Apr 23:38:3499.9 mph12SSW (199°)9972410187525.1°C71.2%19.5°C2880ft (878m)12.7v31
148314 Apr 23:38:2378.3 mph9SSW (203°)9972910188025.1°C71%19.5°C2899ft (884m)12.69v31
148214 Apr 23:38:1188.8 mph11SSW (209°)9972710187825.1°C71.2%19.5°C2880ft (878m)12.7v31
148114 Apr 23:38:0078.2 mph10SSW (197°)9973210188325.1°C71.1%19.5°C2889ft (881m)12.71v31
148014 Apr 23:37:4956 mph7SSW (203°)9973210188325°C71.3%19.4°C2869ft (874m)12.71v31
147914 Apr 23:37:3877.8 mph10SSW (194°)9973110188225°C71.4%19.5°C2860ft (872m)12.7v31
147814 Apr 23:37:2689.3 mph11SSW (210°)9973110188225°C71.4%19.5°C2860ft (872m)12.69v31
147714 Apr 23:37:1578.8 mph10SSW (212°)9973210188325°C71.3%19.4°C2869ft (874m)12.7v31
147614 Apr 23:37:0489.3 mph11SSW (213°)9973210188325°C71.3%19.4°C2869ft (874m)12.69v31
147514 Apr 23:36:53910.9 mph12SW (214°)9972910188025°C71.4%19.5°C2860ft (872m)12.7v31
147414 Apr 23:36:4189.7 mph11SSW (205°)9973410188525°C71.2%19.4°C2878ft (877m)12.69v31
147314 Apr 23:36:3089.5 mph11SSW (197°)9973310188425°C71.3%19.4°C2869ft (874m)12.7v31
147214 Apr 23:36:19810.5 mph13SSW (197°)9973510188625°C71.2%19.4°C2878ft (877m)12.71v31
147114 Apr 23:36:0889 mph10SSW (202°)9973310188425°C71.3%19.4°C2869ft (874m)12.7v31
147014 Apr 23:35:56910.4 mph12SSW (195°)9973010188125°C71.2%19.4°C2878ft (877m)12.68v31
146914 Apr 23:35:451011.5 mph13SSW (204°)9973510188625°C71.2%19.4°C2878ft (877m)12.7v31
146814 Apr 23:35:341012 mph14SSW (201°)9973810188925°C71.1%19.4°C2888ft (880m)12.7v31
146714 Apr 23:35:2399.9 mph11SSW (209°)9973810188925°C71.3%19.4°C2869ft (874m)12.71v31
146614 Apr 23:35:111212.4 mph14SSW (194°)9973610188725°C71.2%19.4°C2878ft (877m)12.71v31
146514 Apr 23:35:001011.7 mph14SSW (196°)9973410188525°C71.1%19.4°C2888ft (880m)12.7v31
146414 Apr 23:34:491011.4 mph13SSW (199°)9973010188125°C71.1%19.4°C2888ft (880m)12.7v31
146314 Apr 23:34:3888.5 mph10S (190°)9973110188225°C71.1%19.4°C2888ft (880m)12.7v31
146214 Apr 23:34:26910.1 mph11SSW (201°)9973310188425°C71.1%19.4°C2888ft (880m)12.7v31
146114 Apr 23:34:151011.9 mph14SSW (203°)9973910189025°C71%19.4°C2897ft (883m)12.69v31
146014 Apr 23:34:0478.2 mph10SSW (197°)9974110189225°C71.1%19.4°C2888ft (880m)12.69v31
145914 Apr 23:33:5389 mph11SSW (196°)9973310188425°C71.2%19.4°C2878ft (877m)12.7v31
145814 Apr 23:33:411112.8 mph14SSW (197°)9973410188525°C71.2%19.4°C2878ft (877m)12.7v31
145714 Apr 23:33:301012.6 mph15SSW (205°)9973010188125°C71%19.4°C2897ft (883m)12.71v31
145614 Apr 23:33:1968.4 mph11SSW (197°)9973610188725°C71.2%19.4°C2878ft (877m)12.7v31
145514 Apr 23:33:0878.8 mph12SSW (200°)9973710188825°C71.1%19.4°C2888ft (880m)12.7v31
145414 Apr 23:32:561111.5 mph12SSW (201°)9973210188325°C71.2%19.4°C2878ft (877m)12.7v31
145314 Apr 23:32:451011.4 mph13SSW (208°)9973610188725°C71%19.4°C2897ft (883m)12.7v31
145214 Apr 23:32:341111.6 mph13SSW (200°)9973010188125.1°C70.9%19.4°C2908ft (886m)12.7v31
145114 Apr 23:32:231313.1 mph14SSW (203°)9973810188925.1°C70.8%19.4°C2917ft (889m)12.7v31
145014 Apr 23:32:11710.5 mph13SSW (212°)9973510188625.1°C70.7%19.4°C2927ft (892m)12.7v31
144914 Apr 23:32:0068.9 mph11SSW (209°)9974210189325.1°C70.9%19.4°C2908ft (886m)12.7v31
144814 Apr 23:31:4978.1 mph9SSW (205°)9974010189125.1°C70.9%19.4°C2908ft (886m)12.71v31
144714 Apr 23:31:3889.3 mph10SSW (210°)9973510188625.1°C70.8%19.4°C2917ft (889m)12.7v31
144614 Apr 23:31:26810.1 mph11SSW (211°)9973610188725.1°C70.8%19.4°C2917ft (889m)12.69v31
144514 Apr 23:31:1577.7 mph9SW (215°)9973610188725.1°C71%19.5°C2899ft (884m)12.69v31
144414 Apr 23:31:04810.7 mph13SSW (206°)9973710188825.1°C70.8%19.4°C2917ft (889m)12.7v31
144314 Apr 23:30:53910.2 mph11SSW (205°)9973410188525.1°C70.7%19.4°C2927ft (892m)12.71v31
144214 Apr 23:30:4189.7 mph11S (190°)9973510188625.1°C70.8%19.4°C2917ft (889m)12.71v31
144114 Apr 23:30:30910.5 mph12SSW (205°)9973610188725.1°C70.8%19.4°C2917ft (889m)12.7v31
144014 Apr 23:30:1977.5 mph10SSW (198°)9973510188625°C70.9%19.4°C2906ft (886m)12.71v31
143914 Apr 23:30:0867.5 mph10SSW (208°)9973510188625°C70.9%19.4°C2906ft (886m)12.71v31
143814 Apr 23:29:5678 mph9SSW (205°)9973810188925°C70.9%19.4°C2906ft (886m)12.7v31
143714 Apr 23:29:4599.3 mph11SSW (207°)9973710188825°C70.9%19.4°C2906ft (886m)12.69v31
143614 Apr 23:29:341111 mph12SSW (205°)9973410188525°C70.8%19.3°C2916ft (889m)12.69v31
143514 Apr 23:29:2367.5 mph11SSW (196°)9973510188625°C71%19.4°C2897ft (883m)12.7v31
143414 Apr 23:29:111213.5 mph15S (190°)9973310188425°C70.9%19.4°C2906ft (886m)12.71v31
143314 Apr 23:29:0069.7 mph14SSW (208°)9973310188425°C70.8%19.3°C2916ft (889m)12.7v31
143214 Apr 23:28:4978.7 mph11SSW (198°)9973510188625°C70.8%19.3°C2916ft (889m)12.7v31
143114 Apr 23:28:3888.6 mph10SSW (208°)9973610188725°C70.9%19.4°C2906ft (886m)12.7v31
143014 Apr 23:28:261013.1 mph15S (188°)9974010189125°C71%19.4°C2897ft (883m)12.69v31
142914 Apr 23:28:15912.2 mph15SSW (193°)9973110188225°C71%19.4°C2897ft (883m)12.7v31
142814 Apr 23:28:04910.8 mph13SW (225°)9973910189025°C70.8%19.3°C2916ft (889m)12.7v31
142714 Apr 23:27:53910.6 mph12SSW (200°)9974010189125°C70.7%19.3°C2925ft (892m)12.7v31
142614 Apr 23:27:41911.3 mph13S (187°)9973910189025°C70.9%19.4°C2906ft (886m)12.71v31
142514 Apr 23:27:30810.8 mph13SSW (196°)9974110189225°C70.7%19.3°C2925ft (892m)12.71v31
142414 Apr 23:27:1989.1 mph11SSW (205°)9973710188825°C70.7%19.3°C2925ft (892m)12.7v31
142314 Apr 23:27:0888.7 mph11SSW (204°)9974210189325°C71%19.4°C2897ft (883m)12.7v31
142214 Apr 23:26:561112.7 mph14SSW (195°)9973510188625°C70.9%19.4°C2906ft (886m)12.7v31
142114 Apr 23:26:451010.7 mph13SSW (196°)9973210188325°C70.9%19.4°C2906ft (886m)12.7v31
142014 Apr 23:26:341112.4 mph14SSW (197°)9974010189125°C70.9%19.4°C2906ft (886m)12.69v31
141914 Apr 23:26:23810.9 mph14SSW (196°)9974010189125°C70.9%19.4°C2906ft (886m)12.7v31
141814 Apr 23:26:111010.6 mph12SSW (205°)9973910189025°C70.7%19.3°C2925ft (892m)12.71v31
141714 Apr 23:26:0089 mph13SSW (202°)9974310189425°C70.9%19.4°C2906ft (886m)12.7v31
141614 Apr 23:25:4967.5 mph12SSW (194°)9973910189025°C70.8%19.3°C2916ft (889m)12.7v31
141514 Apr 23:25:38810.5 mph12S (185°)9974210189325°C70.7%19.3°C2925ft (892m)12.7v31
141414 Apr 23:25:261012.4 mph15SSW (198°)9974210189325°C70.8%19.3°C2916ft (889m)12.7v31
141314 Apr 23:25:15911.1 mph13SSW (197°)9973910189025°C70.7%19.3°C2925ft (892m)12.7v31
141214 Apr 23:25:041213.5 mph14S (190°)9974110189225°C70.6%19.3°C2934ft (894m)12.7v31
141114 Apr 23:24:5379.7 mph13SSW (210°)9974110189225°C70.8%19.3°C2916ft (889m)12.7v31
141014 Apr 23:24:4188.7 mph11SSW (199°)9974310189425.1°C70.6%19.4°C2936ft (895m)12.72v31
140914 Apr 23:24:3099.4 mph11SSW (201°)9974510189725°C70.7%19.3°C2925ft (892m)12.7v31
140814 Apr 23:24:19810.3 mph13S (191°)9974310189425°C70.7%19.3°C2925ft (892m)12.71v31
140714 Apr 23:24:08810.5 mph13SSW (199°)9974810190025°C70.7%19.3°C2925ft (892m)12.7v31
140614 Apr 23:23:5689.4 mph12SSW (195°)9974110189225.1°C70.6%19.4°C2936ft (895m)12.7v31
140514 Apr 23:23:4589.1 mph12SSW (196°)9974710189925.1°C70.5%19.4°C2945ft (898m)12.7v31
140414 Apr 23:23:34911.7 mph14SSW (204°)9974510189725.1°C70.4%19.3°C2955ft (901m)12.7v31
140314 Apr 23:23:2366.9 mph9SSW (209°)9974810190025.1°C70.6%19.4°C2936ft (895m)12.7v31
140214 Apr 23:23:1179.1 mph12SSW (206°)9974710189925.1°C70.5%19.4°C2945ft (898m)12.7v31
140114 Apr 23:23:0088.9 mph12SSW (198°)9974110189225.1°C70.7%19.4°C2927ft (892m)12.7v31
140014 Apr 23:22:49910.1 mph13SSW (202°)9975010190225.1°C70.5%19.4°C2945ft (898m)12.7v31
139914 Apr 23:22:3888.6 mph11SSW (205°)9974610189825.1°C70.5%19.4°C2945ft (898m)12.7v31
139814 Apr 23:22:261111.9 mph13SSW (204°)9974310189425.1°C70.5%19.4°C2945ft (898m)12.7v31
139714 Apr 23:22:1589.9 mph11S (191°)9974810190025.1°C70.4%19.3°C2955ft (901m)12.69v31
139614 Apr 23:22:041011 mph12SSW (198°)9974710189925.1°C70.2%19.3°C2973ft (906m)12.7v31
139514 Apr 23:21:5378.5 mph11SSW (193°)9974510189725.1°C70.4%19.3°C2955ft (901m)12.7v31
139414 Apr 23:21:4189.2 mph12SW (227°)9974610189825.1°C70.5%19.4°C2945ft (898m)12.71v31
139314 Apr 23:21:3099 mph10SSW (208°)9975010190225.1°C70.5%19.4°C2945ft (898m)12.71v31
139214 Apr 23:21:1988.1 mph11SSW (206°)9974510189725.1°C70.5%19.4°C2945ft (898m)12.7v31
139114 Apr 23:21:08810.2 mph13SSW (206°)9974610189825.1°C70.4%19.3°C2955ft (901m)12.71v31
139014 Apr 23:20:561011.2 mph14SSW (205°)9974910190125.1°C70.4%19.3°C2955ft (901m)12.7v31
138914 Apr 23:20:45910.2 mph12SSW (208°)9974910190125.1°C70.2%19.3°C2973ft (906m)12.7v31
138814 Apr 23:20:3467.4 mph11SSW (201°)9974310189425.1°C70.5%19.4°C2945ft (898m)12.7v31
138714 Apr 23:20:2388.9 mph11SSW (201°)9974410189525.1°C70.1%19.3°C2983ft (909m)12.7v31
138614 Apr 23:20:1167.1 mph10SSW (209°)9974910190125.1°C70.3%19.3°C2964ft (903m)12.71v31
138514 Apr 23:20:0068.7 mph11SSW (205°)9974910190125.1°C70.2%19.3°C2973ft (906m)12.71v31
138414 Apr 23:19:4988.7 mph11SSW (198°)9974710189925.1°C70.3%19.3°C2964ft (903m)12.71v31
138314 Apr 23:19:381011.3 mph13SSW (205°)9974510189725.1°C70.2%19.3°C2973ft (906m)12.7v31
138214 Apr 23:19:26810 mph12SSW (202°)9974710189925.1°C70.3%19.3°C2964ft (903m)12.71v31
138114 Apr 23:19:151111.8 mph14SSW (199°)9974710189925.1°C70.2%19.3°C2973ft (906m)12.7v31
138014 Apr 23:19:0467.5 mph10SSW (196°)9974910190125.1°C70.3%19.3°C2964ft (903m)12.7v31
137914 Apr 23:18:53910.3 mph12SSW (202°)9975210190425.1°C70.2%19.3°C2973ft (906m)12.7v31
137814 Apr 23:18:4188.7 mph11SSW (205°)9974810190025.1°C70.2%19.3°C2973ft (906m)12.7v31
137714 Apr 23:18:3067.7 mph10SSW (204°)9974710189925.1°C70.3%19.3°C2964ft (903m)12.71v31
137614 Apr 23:18:1988.8 mph10SSW (206°)9975010190225.1°C70.2%19.3°C2973ft (906m)12.72v31
137514 Apr 23:18:0878.2 mph10SSW (203°)9974810190025.1°C70.2%19.3°C2973ft (906m)12.71v31
137414 Apr 23:17:5666.8 mph8SSW (206°)9974910190125.1°C70.3%19.3°C2964ft (903m)12.7v31
137314 Apr 23:17:4577.7 mph9SSW (207°)9975010190225.1°C70.3%19.3°C2964ft (903m)12.7v31
137214 Apr 23:17:341010.4 mph12SSW (200°)9974810190025.1°C70.1%19.3°C2983ft (909m)12.7v31
137114 Apr 23:17:2388.9 mph10SSW (203°)9974710189925.1°C70.2%19.3°C2973ft (906m)12.7v31
137014 Apr 23:17:1189 mph10SSW (202°)9974710189925.1°C70.1%19.3°C2983ft (909m)12.7v31
136914 Apr 23:17:0078.9 mph10SSW (210°)9974910190125.1°C70.1%19.3°C2983ft (909m)12.71v31
136814 Apr 23:16:4968.2 mph10SSW (211°)9974910190125.1°C70.2%19.3°C2973ft (906m)12.72v31
136714 Apr 23:16:3867 mph8SSW (212°)9974510189725.1°C70.3%19.3°C2964ft (903m)12.7v31
136614 Apr 23:16:2668.5 mph11SSW (208°)9974810190025.1°C70.2%19.3°C2973ft (906m)12.7v31
136514 Apr 23:16:151011 mph12SSW (202°)9974910190125.1°C70.2%19.3°C2973ft (906m)12.7v31
136414 Apr 23:16:0479.1 mph11SSW (198°)9974910190125.1°C70.2%19.3°C2973ft (906m)12.7v31
136314 Apr 23:15:5389.3 mph12SSW (201°)9974610189825.1°C70.2%19.3°C2973ft (906m)12.7v31
136214 Apr 23:15:4178.4 mph11SSW (192°)9975110190325.1°C70.2%19.3°C2973ft (906m)12.69v31
136114 Apr 23:15:30710.7 mph14SSW (193°)9975110190325.1°C70.2%19.3°C2973ft (906m)12.69v31
136014 Apr 23:15:19810.4 mph13SSW (196°)9974710189925.1°C70.1%19.3°C2983ft (909m)12.71v31
135914 Apr 23:15:0878.5 mph10SSW (212°)9975110190325.1°C70.2%19.3°C2973ft (906m)12.71v31
135814 Apr 23:14:5677.5 mph8SSW (199°)9975110190325.1°C70.3%19.3°C2964ft (903m)12.71v31
135714 Apr 23:14:4567.6 mph11SSW (206°)9974810190025.1°C70.2%19.3°C2973ft (906m)12.71v31
135614 Apr 23:14:3499.4 mph10SSW (200°)9975110190325.1°C70.1%19.3°C2983ft (909m)12.7v31
135514 Apr 23:14:2389.5 mph13SSW (209°)9975410190625.1°C70.1%19.3°C2983ft (909m)12.7v31
135414 Apr 23:14:1189.8 mph11SSW (201°)9975310190525.1°C70.1%19.3°C2983ft (909m)12.7v31
135314 Apr 23:14:00910.8 mph13SSW (196°)9975110190325.1°C70.2%19.3°C2973ft (906m)12.71v31
135214 Apr 23:13:4979.2 mph12SSW (199°)9975110190325.1°C70.1%19.3°C2983ft (909m)12.7v31
135114 Apr 23:13:3879.1 mph12SSW (198°)9975010190225.1°C70.2%19.3°C2973ft (906m)12.71v31
135014 Apr 23:13:2677.9 mph10SSW (211°)9975310190525.1°C70.1%19.3°C2983ft (909m)12.7v31
134914 Apr 23:13:1588.9 mph10SSW (209°)9975210190425.1°C70.1%19.3°C2983ft (909m)12.71v31
134814 Apr 23:13:0489.9 mph12SSW (201°)9975110190325.1°C70.2%19.3°C2973ft (906m)12.69v31
134714 Apr 23:12:5368.1 mph9SSW (207°)9975010190225.1°C70.3%19.3°C2964ft (903m)12.69v31
134614 Apr 23:12:4178.9 mph11SSW (208°)9975410190625.1°C70.2%19.3°C2973ft (906m)12.72v31
134514 Apr 23:12:3068.1 mph11SSW (209°)9975110190325.1°C70.1%19.3°C2983ft (909m)12.7v31
134414 Apr 23:12:1977.6 mph8SSW (213°)9975110190325.1°C70.2%19.3°C2973ft (906m)12.71v31
134314 Apr 23:12:0856.9 mph9SSW (204°)9975410190625.1°C70.2%19.3°C2973ft (906m)12.72v31
134214 Apr 23:11:5678.5 mph12SSW (201°)9975410190625.1°C70.2%19.3°C2973ft (906m)12.7v31
134114 Apr 23:11:451012.4 mph14SSW (195°)9974410189525°C70.2%19.2°C2972ft (906m)12.71v31
134014 Apr 23:11:341012.3 mph14SSW (201°)9975310190525.1°C70.1%19.3°C2983ft (909m)12.71v31
133914 Apr 23:11:2367.6 mph9SSW (200°)9975210190425.1°C70.2%19.3°C2973ft (906m)12.7v31
133814 Apr 23:11:1178.7 mph11SSW (205°)9975010190225.1°C70.2%19.3°C2973ft (906m)12.69v31
133714 Apr 23:11:0078.3 mph10SSW (207°)9975610190825.1°C70.1%19.3°C2983ft (909m)12.7v31
133614 Apr 23:10:4999.5 mph12SSW (203°)9975210190425.1°C69.9%19.2°C3002ft (915m)12.71v31
133514 Apr 23:10:3899.7 mph11SSW (202°)9975410190625.1°C70.1%19.3°C2983ft (909m)12.71v31
133414 Apr 23:10:26911.8 mph14SSW (195°)9975310190525.1°C70%19.2°C2992ft (912m)12.71v31
133314 Apr 23:10:1567.8 mph10SSW (195°)9975410190625.1°C70.2%19.3°C2973ft (906m)12.71v31
133214 Apr 23:10:0468 mph9SSW (196°)9975410190625.1°C70.2%19.3°C2973ft (906m)12.7v31
133114 Apr 23:09:5388.7 mph11SW (215°)9975310190525.1°C70.1%19.3°C2983ft (909m)12.7v31
133014 Apr 23:09:4189.4 mph12SSW (196°)9975510190725.1°C70.2%19.3°C2973ft (906m)12.71v31
132914 Apr 23:09:30910.7 mph12SSW (208°)9975610190825.1°C70%19.2°C2992ft (912m)12.72v31
132814 Apr 23:09:191111.6 mph13SSW (203°)9975610190825.1°C70%19.2°C2992ft (912m)12.72v31
132714 Apr 23:09:08911 mph13SSW (204°)9974910190125.1°C70.1%19.3°C2983ft (909m)12.71v31
132614 Apr 23:08:5678.5 mph10SW (218°)9975710190925.1°C70.1%19.3°C2983ft (909m)12.72v31
132514 Apr 23:08:4577.5 mph8SSW (211°)9975210190425.1°C70.1%19.3°C2983ft (909m)12.71v31
132414 Apr 23:08:3489.2 mph10SSW (205°)9975310190525.1°C70.1%19.3°C2983ft (909m)12.7v31
132314 Apr 23:08:2388.5 mph9SSW (211°)9975510190725.1°C70%19.2°C2992ft (912m)12.69v31
132214 Apr 23:08:1177.8 mph9SW (214°)9975110190325.1°C70.1%19.3°C2983ft (909m)12.71v31
132114 Apr 23:08:0077.7 mph9SSW (213°)9975210190425.1°C70.2%19.3°C2973ft (906m)12.7v31
132014 Apr 23:07:49911.3 mph14SSW (209°)9975510190725.1°C70%19.2°C2992ft (912m)12.69v31
131914 Apr 23:07:38811.3 mph14SSW (203°)9975010190225.1°C70.1%19.3°C2983ft (909m)12.71v31
131814 Apr 23:07:2689.5 mph11SW (214°)9975310190525.1°C70.1%19.3°C2983ft (909m)12.71v31
131714 Apr 23:07:1578.3 mph10SSW (206°)9974910190125.1°C69.9%19.2°C3002ft (915m)12.7v31
131614 Apr 23:07:0488.2 mph9SSW (210°)9975310190525.1°C70%19.2°C2992ft (912m)12.72v31
131514 Apr 23:06:5378.7 mph10SSW (200°)9975510190725.1°C69.9%19.2°C3002ft (915m)12.69v31
131414 Apr 23:06:4166.3 mph8SSW (212°)9975610190825.1°C70%19.2°C2992ft (912m)12.71v31
131314 Apr 23:06:3078.1 mph10SSW (210°)9975010190225.1°C70%19.2°C2992ft (912m)12.71v31
131214 Apr 23:06:191010.5 mph11SSW (206°)9974810190025°C70%19.1°C2990ft (911m)12.7v31
131114 Apr 23:06:0879.1 mph11SSW (208°)9975510190725°C70.2%19.2°C2972ft (906m)12.71v31
131014 Apr 23:05:561112.8 mph15SSW (206°)9974610189825°C70.1%19.2°C2981ft (909m)12.71v31
130914 Apr 23:05:451112.4 mph14SSW (197°)9975010190225°C70.3%19.2°C2962ft (903m)12.71v31
130814 Apr 23:05:34911 mph13SSW (203°)9974810190025°C70.2%19.2°C2972ft (906m)12.71v31
130714 Apr 23:05:231112.9 mph15S (190°)9975010190225°C70.1%19.2°C2981ft (909m)12.7v31
130614 Apr 23:05:11912.2 mph17SSW (196°)9974910190125°C70.1%19.2°C2981ft (909m)12.69v31
130514 Apr 23:05:001112.4 mph15SSW (194°)9974810190025°C70.2%19.2°C2972ft (906m)12.71v31
130414 Apr 23:04:49810.7 mph14SSW (204°)9975210190425°C70.1%19.2°C2981ft (909m)12.69v31
130314 Apr 23:04:381011.7 mph14SSW (201°)9975210190425°C70%19.1°C2990ft (911m)12.71v31
130214 Apr 23:04:261111.5 mph13SSW (207°)9975010190225°C70%19.1°C2990ft (911m)12.71v31
130114 Apr 23:04:15810 mph13SSW (209°)9975410190625.1°C69.9%19.2°C3002ft (915m)12.69v31
130014 Apr 23:04:041111.2 mph12SSW (205°)9974810190025.1°C70%19.2°C2992ft (912m)12.71v31
129914 Apr 23:03:53910.2 mph12SSW (209°)9975110190325°C70.1%19.2°C2981ft (909m)12.7v31
129814 Apr 23:03:411011.5 mph13SSW (213°)9975410190625.1°C70%19.2°C2992ft (912m)12.7v31
129714 Apr 23:03:301010.8 mph14SSW (204°)9975410190625.1°C70.1%19.3°C2983ft (909m)12.7v31
129614 Apr 23:03:1969.6 mph13SSW (211°)9975810191025.1°C69.9%19.2°C3002ft (915m)12.71v31
129514 Apr 23:03:0866.6 mph8SW (220°)9975310190525.1°C69.9%19.2°C3002ft (915m)12.71v31
129414 Apr 23:02:5678.8 mph11SSW (205°)9975510190725.1°C70%19.2°C2992ft (912m)12.72v31
129314 Apr 23:02:4599.7 mph14SW (216°)9975110190325°C69.9%19.1°C3000ft (914m)12.72v31
129214 Apr 23:02:34911.6 mph16SSW (202°)9975310190525°C69.9%19.1°C3000ft (914m)12.72v31
129114 Apr 23:02:231010.9 mph13SSW (205°)9975610190825.1°C69.8%19.2°C3011ft (918m)12.69v31
129014 Apr 23:02:111011.7 mph16SSW (203°)9975610190825°C69.9%19.1°C3000ft (914m)12.7v31
128914 Apr 23:02:001010.8 mph12SSW (200°)9975310190525°C70%19.1°C2990ft (911m)12.71v31
128814 Apr 23:01:491112.5 mph15SSW (202°)9975710190925.1°C69.9%19.2°C3002ft (915m)12.7v31
128714 Apr 23:01:38810.3 mph13SSW (206°)9975410190625.1°C69.9%19.2°C3002ft (915m)12.71v31
128614 Apr 23:01:26910.5 mph12SSW (204°)9975510190725°C69.9%19.1°C3000ft (914m)12.72v31
128514 Apr 23:01:1568.5 mph12SSW (203°)9975410190625.1°C70.1%19.3°C2983ft (909m)12.72v31
128414 Apr 23:01:04910 mph13SW (220°)9975610190825.1°C69.8%19.2°C3011ft (918m)12.71v31
128314 Apr 23:00:5378 mph9SSW (209°)9975510190725.1°C69.9%19.2°C3002ft (915m)12.69v31
128214 Apr 23:00:41910.3 mph12SSW (206°)9975710190925°C69.9%19.1°C3000ft (914m)12.7v31
128114 Apr 23:00:3077.9 mph9SSW (212°)9975510190725°C70.1%19.2°C2981ft (909m)12.7v31
128014 Apr 23:00:191011.1 mph13SSW (206°)9975610190825°C70%19.1°C2990ft (911m)12.71v31
127914 Apr 23:00:08910.7 mph13SSW (199°)9975910191125°C70.1%19.2°C2981ft (909m)12.72v31
127814 Apr 22:59:56911.4 mph15S (190°)9975610190825°C69.9%19.1°C3000ft (914m)12.72v31
127714 Apr 22:59:4578.9 mph12S (190°)9975510190725°C70.1%19.2°C2981ft (909m)12.7v31
127614 Apr 22:59:34911.2 mph14S (190°)9975710190925°C70.1%19.2°C2981ft (909m)12.71v31
127514 Apr 22:59:231214 mph16SSW (193°)9975110190325°C70.2%19.2°C2972ft (906m)12.71v31
127414 Apr 22:59:111214.4 mph17SSW (202°)9975310190525°C70.1%19.2°C2981ft (909m)12.7v31
127314 Apr 22:59:00811.6 mph15S (191°)9974810190025°C70%19.1°C2990ft (911m)12.7v31
127214 Apr 22:58:491011.3 mph14SSW (199°)9975210190425.1°C69.8%19.2°C3011ft (918m)12.72v31
127114 Apr 22:58:381011.2 mph13S (190°)9975410190625.1°C69.8%19.2°C3011ft (918m)12.7v31
127014 Apr 22:58:261111.6 mph13SSW (196°)9975510190725.1°C69.7%19.2°C3020ft (920m)12.72v31
126914 Apr 22:58:1579 mph12SSW (206°)9975910191125.1°C69.6%19.1°C3030ft (924m)12.72v31
126814 Apr 22:58:04810.6 mph12SSW (209°)9975710190925.1°C69.6%19.1°C3030ft (924m)12.7v31
126714 Apr 22:57:5368 mph9SSW (197°)9975810191025.1°C69.7%19.2°C3020ft (920m)12.71v31
126614 Apr 22:57:4177.2 mph8SSW (202°)9975910191125.1°C69.8%19.2°C3011ft (918m)12.71v31
126514 Apr 22:57:3099.9 mph12SSW (203°)9976010191225.1°C69.8%19.2°C3011ft (918m)12.7v31
126414 Apr 22:57:191112.7 mph17S (189°)9975510190725.1°C69.6%19.1°C3030ft (924m)12.71v31
126314 Apr 22:57:0889.3 mph11SSW (208°)9975710190925.1°C69.7%19.2°C3020ft (920m)12.7v31
126214 Apr 22:56:561012.1 mph14SSW (210°)9975910191125.1°C69.5%19.1°C3039ft (926m)12.71v31
126114 Apr 22:56:45910.4 mph12SSW (209°)9975910191125.1°C69.6%19.1°C3030ft (924m)12.72v31
126014 Apr 22:56:34811.4 mph14SSW (200°)9975510190725.1°C69.5%19.1°C3039ft (926m)12.71v31
125914 Apr 22:56:2389.8 mph12SSW (211°)9976010191225.1°C69.5%19.1°C3039ft (926m)12.72v31
125814 Apr 22:56:1156.8 mph9SSW (210°)9976010191225.1°C69.7%19.2°C3020ft (920m)12.7v31
125714 Apr 22:56:0088.6 mph10SSW (202°)9976310191525.1°C69.7%19.2°C3020ft (920m)12.7v31
125614 Apr 22:55:49910.1 mph12SSW (199°)9976310191525.1°C69.6%19.1°C3030ft (924m)12.69v31
125514 Apr 22:55:3889.3 mph11SSW (206°)9975910191125.1°C69.7%19.2°C3020ft (920m)12.71v31
125414 Apr 22:55:2678.9 mph10SSW (205°)9976210191425°C69.7%19.1°C3019ft (920m)12.71v31
125314 Apr 22:55:15710.1 mph12SSW (197°)9975810191025.1°C69.8%19.2°C3011ft (918m)12.71v31
125214 Apr 22:55:0477.7 mph11SSW (192°)9976110191325°C69.7%19.1°C3019ft (920m)12.72v31
125114 Apr 22:54:53910.3 mph13SSW (202°)9975610190825°C69.7%19.1°C3019ft (920m)12.71v31
125014 Apr 22:54:41812.2 mph14SSW (196°)9975710190925.1°C69.8%19.2°C3011ft (918m)12.71v31
124914 Apr 22:54:3089.2 mph10SSW (204°)9975710190925.1°C69.8%19.2°C3011ft (918m)12.7v31
124814 Apr 22:54:191011.7 mph14SSW (212°)9975910191125.1°C69.8%19.2°C3011ft (918m)12.71v31
124714 Apr 22:54:08911.9 mph14SSW (200°)9975710190925°C69.8%19.1°C3009ft (917m)12.7v31
124614 Apr 22:53:561011.7 mph13SSW (196°)9975710190925°C69.8%19.1°C3009ft (917m)12.72v31
124514 Apr 22:53:451111.4 mph14SSW (195°)9976010191225°C69.8%19.1°C3009ft (917m)12.72v31
124414 Apr 22:53:34711.3 mph15SSW (205°)9976010191225°C69.9%19.1°C3000ft (914m)12.72v31
124314 Apr 22:53:231215.1 mph17SSW (202°)9975410190625°C69.8%19.1°C3009ft (917m)12.72v31
124214 Apr 22:53:1189.3 mph11SSW (201°)9975810191025°C69.8%19.1°C3009ft (917m)12.7v31
124114 Apr 22:53:001212.5 mph16SSW (207°)9976010191225°C69.8%19.1°C3009ft (917m)12.71v31
124014 Apr 22:52:49810.8 mph14SSW (206°)9975910191125°C69.7%19.1°C3019ft (920m)12.7v31
123914 Apr 22:52:3856.3 mph7SSW (213°)9976310191525°C70%19.1°C2990ft (911m)12.72v31
123814 Apr 22:52:2678.7 mph11SSW (203°)9976010191225°C69.9%19.1°C3000ft (914m)12.7v31
123714 Apr 22:52:151012.4 mph13SSW (200°)9975810191025°C69.8%19.1°C3009ft (917m)12.71v31
123614 Apr 22:52:0499.5 mph11SSW (194°)9975910191125°C69.7%19.1°C3019ft (920m)12.71v31
123514 Apr 22:51:53910 mph14S (185°)9975710190925°C69.8%19.1°C3009ft (917m)12.71v31
123414 Apr 22:51:411112 mph15SSW (197°)9976210191425°C69.8%19.1°C3009ft (917m)12.71v31
123314 Apr 22:51:301213.9 mph18SSW (202°)9975610190825°C69.8%19.1°C3009ft (917m)12.72v31
123214 Apr 22:51:191113.1 mph16S (191°)9975710190925°C69.8%19.1°C3009ft (917m)12.69v31
123114 Apr 22:51:081111.4 mph13SSW (197°)9975310190525°C69.7%19.1°C3019ft (920m)12.72v31
123014 Apr 22:50:561011.5 mph15SSW (197°)9975310190525°C69.9%19.1°C3000ft (914m)12.72v31
122914 Apr 22:50:451214.6 mph18SSW (206°)9975910191125°C69.8%19.1°C3009ft (917m)12.7v31
122814 Apr 22:50:341316.1 mph18SSW (211°)9975010190225°C69.7%19.1°C3019ft (920m)12.72v31
122714 Apr 22:50:231012.1 mph14SSW (210°)9976210191425.1°C69.5%19.1°C3039ft (926m)12.71v31
122614 Apr 22:50:11810.9 mph16SSW (198°)9975510190725.1°C69.4%19.1°C3049ft (929m)12.71v31
122514 Apr 22:50:0077.7 mph9SSW (210°)9975910191125.1°C69.6%19.1°C3030ft (924m)12.72v31
122414 Apr 22:49:49810.7 mph14SSW (202°)9976010191225.1°C69.6%19.1°C3030ft (924m)12.71v31
122314 Apr 22:49:381213 mph15SSW (193°)9975710190925.1°C69.5%19.1°C3039ft (926m)12.73v31
122214 Apr 22:49:261112.6 mph14S (190°)9975810191025°C69.5%19°C3037ft (926m)12.72v31
122114 Apr 22:49:1579 mph12SSW (193°)9975910191125°C69.6%19.1°C3028ft (923m)12.72v31
122014 Apr 22:49:04810.7 mph12SSW (199°)9976110191325°C69.5%19°C3037ft (926m)12.7v31
121914 Apr 22:48:531212.8 mph16SSW (205°)9975910191125°C69.4%19°C3047ft (929m)12.71v31
121814 Apr 22:48:411415.3 mph18S (188°)9974810190025°C69.4%19°C3047ft (929m)12.71v31
121714 Apr 22:48:301012.7 mph17S (183°)9976010191225°C69.6%19.1°C3028ft (923m)12.71v31
121614 Apr 22:48:191314 mph15SSW (193°)9975710190925°C69.6%19.1°C3028ft (923m)12.71v31
121514 Apr 22:48:081012.3 mph15SSW (197°)9975610190825°C69.5%19°C3037ft (926m)12.7v31
121414 Apr 22:47:561113 mph15SSW (198°)9975310190525.1°C69.5%19.1°C3039ft (926m)12.7v31
121314 Apr 22:47:451011.1 mph12SSW (202°)9975310190525.1°C69.4%19.1°C3049ft (929m)12.72v31
121214 Apr 22:47:34911.1 mph14SSW (198°)9975510190725.1°C69.4%19.1°C3049ft (929m)12.72v31
121114 Apr 22:47:231213.9 mph16SSW (196°)9976210191425.1°C69.4%19.1°C3049ft (929m)12.7v31
121014 Apr 22:47:111011.6 mph15SSW (204°)9976110191325.1°C69.2%19.1°C3068ft (935m)12.71v31
120914 Apr 22:47:001314.3 mph16SSW (196°)9976110191325.1°C69.2%19.1°C3068ft (935m)12.73v31
120814 Apr 22:46:4999.9 mph12SSW (203°)9975610190825.1°C69.2%19.1°C3068ft (935m)12.7v31
120714 Apr 22:46:381012.1 mph15SSW (204°)9975810191025.1°C69.2%19.1°C3068ft (935m)12.71v31
120614 Apr 22:46:2688.1 mph9SSW (204°)9974810190025.1°C69.2%19.1°C3068ft (935m)12.7v31
120514 Apr 22:46:1588.2 mph9SSW (203°)9975910191125.1°C69.2%19.1°C3068ft (935m)12.71v31
120414 Apr 22:46:04109.9 mph12SSW (200°)9975910191125.1°C69.2%19.1°C3068ft (935m)12.72v31
120314 Apr 22:45:5378.9 mph11SW (218°)9976210191425.1°C69.4%19.1°C3049ft (929m)12.72v31
120214 Apr 22:45:411111.9 mph13SSW (201°)9975810191025.1°C69.2%19.1°C3068ft (935m)12.71v31
120114 Apr 22:45:3089.5 mph11SSW (202°)9975410190625.1°C69.2%19.1°C3068ft (935m)12.72v31
120014 Apr 22:45:191010.3 mph11SSW (199°)9976010191225.1°C69.3%19.1°C3058ft (932m)12.71v31
119914 Apr 22:45:081213.1 mph14SSW (199°)9976110191325.1°C69.4%19.1°C3049ft (929m)12.7v31
119814 Apr 22:44:561011 mph13SSW (210°)9975410190625.1°C69.2%19.1°C3068ft (935m)12.72v31
119714 Apr 22:44:4578.6 mph10SSW (202°)9976210191425.1°C69.3%19.1°C3058ft (932m)12.71v31
119614 Apr 22:44:341012.5 mph15SSW (208°)9976310191525.1°C69.4%19.1°C3049ft (929m)12.72v31
119514 Apr 22:44:231113.7 mph18SSW (199°)9976810192025°C69.2%19°C3066ft (935m)12.71v31
119414 Apr 22:44:111112.8 mph16SSW (203°)9976010191225.1°C69.2%19.1°C3068ft (935m)12.71v31
119314 Apr 22:44:001213 mph15SSW (201°)9974310189425.1°C69.1%19°C3077ft (938m)12.72v31
119214 Apr 22:43:491112.8 mph16SSW (206°)9976110191325.1°C69.2%19.1°C3068ft (935m)12.7v31
119114 Apr 22:43:3878.2 mph10SSW (203°)9976010191225.1°C69.1%19°C3077ft (938m)12.71v31
119014 Apr 22:43:2689.9 mph13SSW (195°)9976310191525.1°C69.2%19.1°C3068ft (935m)12.7v31
118914 Apr 22:43:151010.1 mph11SSW (201°)9975410190625.1°C69.1%19°C3077ft (938m)12.71v31
118814 Apr 22:43:0479.9 mph13SSW (201°)9976010191225.1°C69.2%19.1°C3068ft (935m)12.72v31
118714 Apr 22:42:531111.7 mph13SSW (199°)9975610190825.1°C69.2%19.1°C3068ft (935m)12.73v31
118614 Apr 22:42:411112.1 mph14SSW (196°)9976010191225°C69.2%19°C3066ft (935m)12.72v31
118514 Apr 22:42:30810.1 mph12SSW (207°)9976410191625.1°C69.1%19°C3077ft (938m)12.72v31
118414 Apr 22:42:19911 mph15SSW (194°)9976110191325.1°C69.1%19°C3077ft (938m)12.7v31
118314 Apr 22:42:081113.3 mph15SSW (201°)9975610190825.1°C69.1%19°C3077ft (938m)12.71v31
118214 Apr 22:41:561315 mph18SSW (200°)9975610190825.1°C69.1%19°C3077ft (938m)12.71v31
118114 Apr 22:41:4589.4 mph13SW (218°)9976310191525.1°C69%19°C3087ft (941m)12.7v31
118014 Apr 22:41:3479.4 mph11SSW (213°)9976210191425.1°C69.1%19°C3077ft (938m)12.73v31
117914 Apr 22:41:2356.7 mph8SSW (209°)9976210191425.1°C69.2%19.1°C3068ft (935m)12.71v31
117814 Apr 22:41:1176.9 mph10SW (223°)9976210191425.1°C69.1%19°C3077ft (938m)12.72v31
117714 Apr 22:41:0067.2 mph10SSW (210°)9976010191225.1°C69%19°C3087ft (941m)12.71v31
117614 Apr 22:40:4988.9 mph10SSW (202°)9976210191425.1°C69.1%19°C3077ft (938m)12.7v31
117514 Apr 22:40:3877.3 mph8SSW (207°)9976410191625.1°C69.2%19.1°C3068ft (935m)12.71v31
117414 Apr 22:40:2699.9 mph11SSW (203°)9975910191125.1°C69%19°C3087ft (941m)12.71v31
117314 Apr 22:40:151111.7 mph13SSW (208°)9976010191225.1°C69%19°C3087ft (941m)12.71v31
117214 Apr 22:40:041011.4 mph14SSW (204°)9975510190725.1°C69%19°C3087ft (941m)12.74v31
117114 Apr 22:39:5378.7 mph11SSW (208°)9976210191425.1°C69%19°C3087ft (941m)12.71v31
117014 Apr 22:39:411111.5 mph13SSW (204°)9976410191625.1°C69%19°C3087ft (941m)12.71v31
116914 Apr 22:39:301111.1 mph12S (191°)9976110191325.1°C68.9%19°C3096ft (944m)12.71v31
116814 Apr 22:39:1978.1 mph11SSW (204°)9976410191625.1°C69.1%19°C3077ft (938m)12.71v31
116714 Apr 22:39:0877.8 mph10SSW (204°)9976210191425.1°C69.1%19°C3077ft (938m)12.72v31
116614 Apr 22:38:5678.1 mph9SSW (197°)9976210191425.1°C69.2%19.1°C3068ft (935m)12.71v31
116514 Apr 22:38:451111.8 mph13SSW (206°)9975810191025.1°C69.1%19°C3077ft (938m)12.72v31
116414 Apr 22:38:34810.4 mph15SSW (202°)9976710191925.1°C69.1%19°C3077ft (938m)12.73v31
116314 Apr 22:38:2367.8 mph10SW (220°)9976210191425.1°C69.1%19°C3077ft (938m)12.73v31
116214 Apr 22:38:111011.8 mph14SSW (208°)9975710190925°C69.2%19°C3066ft (935m)12.71v31
116114 Apr 22:38:001314.1 mph17SSW (208°)9975910191125.1°C69.1%19°C3077ft (938m)12.72v31
116014 Apr 22:37:49911.4 mph13SSW (203°)9975410190625.1°C68.9%19°C3096ft (944m)12.71v31
115914 Apr 22:37:3867.6 mph10SSW (204°)9976210191425.1°C69.1%19°C3077ft (938m)12.71v31
115814 Apr 22:37:2689.1 mph10SW (217°)9976210191425.1°C69.1%19°C3077ft (938m)12.7v31
115714 Apr 22:37:1598.9 mph11SSW (212°)9976110191325.1°C69.1%19°C3077ft (938m)12.71v31
115614 Apr 22:37:041011.1 mph13SSW (200°)9976210191425.1°C69.2%19.1°C3068ft (935m)12.71v31
115514 Apr 22:36:531112.9 mph15S (186°)9975510190725°C69%18.9°C3085ft (940m)12.71v31
115414 Apr 22:36:411213.1 mph18SSW (207°)9975610190825.1°C69%19°C3087ft (941m)12.72v31
115314 Apr 22:36:3089.5 mph14SSW (206°)9976110191325.1°C68.9%19°C3096ft (944m)12.73v31
115214 Apr 22:36:1999.8 mph12SSW (202°)9976410191625.1°C68.9%19°C3096ft (944m)12.71v31
115114 Apr 22:36:081010.5 mph11SSW (207°)9976110191325.1°C69%19°C3087ft (941m)12.71v31
115014 Apr 22:35:561111.4 mph12SSW (206°)9976510191725.1°C68.9%19°C3096ft (944m)12.7v31
114914 Apr 22:35:451112.8 mph15SSW (196°)9976210191425.1°C68.8%19°C3106ft (947m)12.7v31
114814 Apr 22:35:34810.4 mph13SSW (201°)9975910191125.1°C68.8%19°C3106ft (947m)12.71v31
114714 Apr 22:35:23810.3 mph15SSW (199°)9976510191725.1°C68.8%19°C3106ft (947m)12.72v31
114614 Apr 22:35:1178.8 mph10SW (214°)9976210191425.1°C68.8%19°C3106ft (947m)12.72v31
114514 Apr 22:35:0088.3 mph10SSW (206°)9976510191725.1°C68.9%19°C3096ft (944m)12.72v31
114414 Apr 22:34:491010.9 mph12SSW (195°)9976010191225.1°C69%19°C3087ft (941m)12.7v31
114314 Apr 22:34:381112.6 mph15SSW (198°)9975810191025.1°C68.8%19°C3106ft (947m)12.71v31
114214 Apr 22:34:261413.7 mph16SSW (192°)9975610190825.1°C68.9%19°C3096ft (944m)12.71v31
114114 Apr 22:34:151111.4 mph13SSW (207°)9975010190225.1°C68.8%19°C3106ft (947m)12.72v31
114014 Apr 22:34:04911.8 mph15SSW (200°)9975710190925.1°C68.9%19°C3096ft (944m)12.71v31
113914 Apr 22:33:531012.2 mph15SSW (208°)9975510190725.1°C68.7%18.9°C3115ft (949m)12.72v31
113814 Apr 22:33:411113 mph14SSW (201°)9975910191125.1°C68.7%18.9°C3115ft (949m)12.71v31
113714 Apr 22:33:3089.4 mph15SSW (204°)9975210190425.1°C68.6%18.9°C3125ft (953m)12.72v31
113614 Apr 22:33:1989.3 mph12SSW (207°)9976210191425.1°C68.7%18.9°C3115ft (949m)12.72v31
113514 Apr 22:33:0888.4 mph10SSW (209°)9975910191125.1°C68.8%19°C3106ft (947m)12.73v31
113414 Apr 22:32:5688.8 mph10SSW (203°)9976310191525.1°C68.8%19°C3106ft (947m)12.71v31
113314 Apr 22:32:45910.1 mph12SSW (209°)9976110191325.1°C68.7%18.9°C3115ft (949m)12.72v31
113214 Apr 22:32:3488.5 mph9SSW (213°)9976010191225.1°C68.7%18.9°C3115ft (949m)12.7v31
113114 Apr 22:32:2398.9 mph9SSW (209°)9976410191625.1°C68.8%19°C3106ft (947m)12.73v31
113014 Apr 22:32:1177.6 mph10SW (215°)9975510190725.1°C68.7%18.9°C3115ft (949m)12.72v31
112914 Apr 22:32:0078.4 mph10SW (219°)9976010191225.1°C68.9%19°C3096ft (944m)12.73v31
112814 Apr 22:31:491010.9 mph12SSW (205°)9976510191725.1°C68.8%19°C3106ft (947m)12.72v31
112714 Apr 22:31:38910.9 mph13SW (214°)9975810191025.1°C68.8%19°C3106ft (947m)12.71v31
112614 Apr 22:31:261013 mph16SSW (203°)9975610190825.1°C68.7%18.9°C3115ft (949m)12.7v31
112514 Apr 22:31:151113.9 mph16SSW (198°)9976110191325.1°C68.7%18.9°C3115ft (949m)12.72v31
112414 Apr 22:31:04910.3 mph12SW (215°)9976110191325.1°C68.7%18.9°C3115ft (949m)12.7v31
112314 Apr 22:30:531011.3 mph13SSW (204°)9975710190925.1°C68.6%18.9°C3125ft (953m)12.71v31
112214 Apr 22:30:4199.7 mph11SSW (201°)9975810191025.1°C68.6%18.9°C3125ft (953m)12.72v31
112114 Apr 22:30:3089.3 mph12SSW (210°)9975610190825.1°C68.7%18.9°C3115ft (949m)12.73v31
112014 Apr 22:30:1978.2 mph10SW (215°)9976410191625.1°C68.7%18.9°C3115ft (949m)12.71v31
111914 Apr 22:30:081010.7 mph12SSW (207°)9975810191025.1°C68.7%18.9°C3115ft (949m)12.71v31
111814 Apr 22:29:561011.3 mph13SSW (209°)9976110191325.1°C68.7%18.9°C3115ft (949m)12.71v31
111714 Apr 22:29:45910.2 mph12SSW (206°)9976010191225.1°C68.7%18.9°C3115ft (949m)12.71v31
111614 Apr 22:29:3489.4 mph11SSW (208°)9975810191025.1°C68.6%18.9°C3125ft (953m)12.72v31
111514 Apr 22:29:2389.4 mph12SSW (204°)9976210191425.1°C68.8%19°C3106ft (947m)12.72v31
111414 Apr 22:29:1166 mph7SSW (208°)9976310191525.1°C68.9%19°C3096ft (944m)12.73v31
111314 Apr 22:29:0088.6 mph11SW (223°)9976210191425.1°C68.8%19°C3106ft (947m)12.73v31
111214 Apr 22:28:49910.2 mph13SSW (203°)9976410191625.1°C68.8%19°C3106ft (947m)12.72v31
111114 Apr 22:28:3889 mph11SSW (207°)9976010191225.1°C68.6%18.9°C3125ft (953m)12.73v31
111014 Apr 22:28:2667.5 mph9SSW (208°)9976410191625.1°C68.7%18.9°C3115ft (949m)12.72v31
110914 Apr 22:28:1588.5 mph10SSW (202°)9976310191525.1°C68.4%18.9°C3144ft (958m)12.72v31
110814 Apr 22:28:0468 mph11SSW (203°)9976210191425.1°C68.5%18.9°C3135ft (956m)12.72v31
110714 Apr 22:27:5378.4 mph10SSW (208°)9976410191625.1°C68.5%18.9°C3135ft (956m)12.72v31
110614 Apr 22:27:4177.8 mph9SSW (204°)9976310191525.1°C68.6%18.9°C3125ft (953m)12.72v31
110514 Apr 22:27:3088.8 mph10SSW (210°)9976510191725.1°C68.7%18.9°C3115ft (949m)12.73v31
110414 Apr 22:27:19910.6 mph13SSW (208°)9976310191525.1°C68.6%18.9°C3125ft (953m)12.73v31
110314 Apr 22:27:081010.8 mph12SSW (199°)9976410191625.1°C68.5%18.9°C3135ft (956m)12.73v31
110214 Apr 22:26:561111.7 mph13SSW (207°)9976310191525.1°C68.6%18.9°C3125ft (953m)12.73v31
110114 Apr 22:26:451012.9 mph16SSW (196°)9976110191325.1°C68.5%18.9°C3135ft (956m)12.71v31
110014 Apr 22:26:341112 mph14SSW (202°)9976210191425.1°C68.6%18.9°C3125ft (953m)12.71v31
109914 Apr 22:26:231414.8 mph16SSW (207°)9976210191425.1°C68.5%18.9°C3135ft (956m)12.72v31
109814 Apr 22:26:11810.2 mph15SSW (205°)9976110191325.1°C68.5%18.9°C3135ft (956m)12.72v31
109714 Apr 22:26:0077.6 mph9SSW (213°)9976410191625.1°C68.7%18.9°C3115ft (949m)12.72v31
109614 Apr 22:25:4988.9 mph11SW (214°)9976610191825.1°C68.7%18.9°C3115ft (949m)12.71v31
109514 Apr 22:25:3889.7 mph11SSW (205°)9976410191625.1°C68.5%18.9°C3135ft (956m)12.71v31
109414 Apr 22:25:2678.9 mph10SSW (201°)9976510191725.1°C68.6%18.9°C3125ft (953m)12.71v31
109314 Apr 22:25:1578.5 mph11SSW (201°)9976710191925.1°C68.7%18.9°C3115ft (949m)12.71v31
109214 Apr 22:25:04710.4 mph14SSW (210°)9976010191225.1°C68.6%18.9°C3125ft (953m)12.71v31
109114 Apr 22:24:5377.9 mph10SSW (208°)9976310191525.1°C68.7%18.9°C3115ft (949m)12.71v31
109014 Apr 22:24:411011.1 mph12SSW (204°)9976410191625.1°C68.7%18.9°C3115ft (949m)12.73v31
108914 Apr 22:24:301012.2 mph15SSW (203°)9976510191725.1°C68.5%18.9°C3135ft (956m)12.73v31
108814 Apr 22:24:19910.9 mph14SSW (210°)9976110191325.1°C68.6%18.9°C3125ft (953m)12.72v31
108714 Apr 22:24:08910.3 mph11SSW (200°)9976410191625.1°C68.7%18.9°C3115ft (949m)12.72v31
108614 Apr 22:23:56913.1 mph15SSW (195°)9976010191225.1°C68.6%18.9°C3125ft (953m)12.72v31
108514 Apr 22:23:45913 mph17SSW (196°)9976710191925°C68.8%18.9°C3104ft (946m)12.72v31
108414 Apr 22:23:341213.3 mph16SSW (209°)9976610191825°C68.6%18.8°C3123ft (952m)12.72v31
108314 Apr 22:23:23811.1 mph15SSW (200°)9975410190625°C68.7%18.8°C3114ft (949m)12.72v31
108214 Apr 22:23:11911.2 mph13SSW (200°)9976410191625°C68.8%18.9°C3104ft (946m)12.73v31
108114 Apr 22:23:0089 mph11SSW (202°)9976610191825°C68.8%18.9°C3104ft (946m)12.73v31
108014 Apr 22:22:4989.2 mph11SW (214°)9976610191825°C68.7%18.8°C3114ft (949m)12.72v31
107914 Apr 22:22:38910 mph11SSW (203°)9976610191825°C68.8%18.9°C3104ft (946m)12.73v31
107814 Apr 22:22:261313.1 mph14SSW (194°)9975910191125°C68.8%18.9°C3104ft (946m)12.72v31
107714 Apr 22:22:151012.4 mph14SSW (196°)9976610191825°C68.7%18.8°C3114ft (949m)12.71v31
107614 Apr 22:22:041112.5 mph15SSW (200°)9976610191825°C68.9%18.9°C3094ft (943m)12.72v31
107514 Apr 22:21:5389.3 mph12S (183°)9977010192225°C68.9%18.9°C3094ft (943m)12.72v31
107414 Apr 22:21:41910 mph12SSW (207°)9977010192225°C68.7%18.8°C3114ft (949m)12.72v31
107314 Apr 22:21:30910.5 mph12SSW (205°)9976910192125°C68.8%18.9°C3104ft (946m)12.72v31
107214 Apr 22:21:20811.3 mph14SSW (211°)9976610191825°C68.6%18.8°C3123ft (952m)12.72v31
107114 Apr 22:21:0889.3 mph11SSW (210°)9977110192325°C68.7%18.8°C3114ft (949m)12.73v31
107014 Apr 22:20:571010.9 mph12SSW (208°)9976410191625°C68.7%18.8°C3114ft (949m)12.71v31
106914 Apr 22:20:461314.1 mph16SSW (202°)9976310191525.1°C68.6%18.9°C3125ft (953m)12.72v31
106814 Apr 22:20:35810.9 mph16S (186°)9976910192125.1°C68.6%18.9°C3125ft (953m)12.73v31
106714 Apr 22:20:23911.9 mph16SSW (203°)9976310191525.1°C68.4%18.9°C3144ft (958m)12.72v31
106614 Apr 22:20:12910.7 mph13SSW (205°)9976910192125.1°C68.4%18.9°C3144ft (958m)12.73v31
106514 Apr 22:20:0177.9 mph9SSW (196°)9977110192325.1°C68.4%18.9°C3144ft (958m)12.73v31
106414 Apr 22:19:491111.5 mph13SSW (199°)9977010192225.1°C68.5%18.9°C3135ft (956m)12.73v31
106314 Apr 22:19:3857.4 mph13SSW (201°)9976810192025.1°C68.7%18.9°C3115ft (949m)12.73v31
106214 Apr 22:19:2758.6 mph12SSW (208°)9976910192125.1°C68.6%18.9°C3125ft (953m)12.72v31
106114 Apr 22:19:1679.6 mph13SSW (212°)9976410191625.1°C68.7%18.9°C3115ft (949m)12.72v31
106014 Apr 22:19:041010.3 mph11SSW (204°)9977110192325°C68.6%18.8°C3123ft (952m)12.72v31
105914 Apr 22:18:5399.3 mph11SSW (210°)9977110192325.1°C68.7%18.9°C3115ft (949m)12.72v31
105814 Apr 22:18:4278.7 mph11SSW (206°)9977010192225.1°C68.6%18.9°C3125ft (953m)12.72v31
105714 Apr 22:18:31710.2 mph14S (187°)9976910192125.1°C68.6%18.9°C3125ft (953m)12.73v31
105614 Apr 22:18:19912.5 mph15SSW (208°)9977210192425°C68.6%18.8°C3123ft (952m)12.74v31
105514 Apr 22:18:081012.5 mph14SSW (199°)9976810192025.1°C68.6%18.9°C3125ft (953m)12.73v31
105414 Apr 22:17:561212.5 mph14S (189°)9977010192225.1°C68.5%18.9°C3135ft (956m)12.73v31
105314 Apr 22:17:45911 mph14SSW (196°)9976910192125.1°C68.6%18.9°C3125ft (953m)12.73v31
105214 Apr 22:17:341111.9 mph13SSW (207°)9976510191725°C68.6%18.8°C3123ft (952m)12.71v31
105114 Apr 22:17:23910.7 mph14SSW (204°)9977010192225.1°C68.6%18.9°C3125ft (953m)12.72v31
105014 Apr 22:17:11910.9 mph12SSW (198°)9976910192125.1°C68.5%18.9°C3135ft (956m)12.72v31
104914 Apr 22:17:0068.5 mph11SSW (205°)9976710191925.1°C68.6%18.9°C3125ft (953m)12.73v31
104814 Apr 22:16:49109.4 mph14SSW (195°)9977010192225.1°C68.6%18.9°C3125ft (953m)12.74v31
104714 Apr 22:16:38911.4 mph16SSW (209°)9976910192125.1°C68.5%18.9°C3135ft (956m)12.71v31
104614 Apr 22:16:261112.5 mph16S (190°)9976610191825.1°C68.4%18.9°C3144ft (958m)12.73v31
104514 Apr 22:16:151010.9 mph12SSW (203°)9976710191925.1°C68.3%18.8°C3154ft (961m)12.73v31
104414 Apr 22:16:04910.9 mph13SSW (205°)9977010192225.1°C68.3%18.8°C3154ft (961m)12.7v31
104314 Apr 22:15:531010.9 mph13SSW (201°)9976910192125.1°C68.4%18.9°C3144ft (958m)12.73v31
104214 Apr 22:15:411010.1 mph11SSW (208°)9976510191725.1°C68.3%18.8°C3154ft (961m)12.71v31
104114 Apr 22:15:3067.9 mph9SSW (208°)9977010192225.1°C68.4%18.9°C3144ft (958m)12.73v31
104014 Apr 22:15:1989.2 mph10SSW (211°)9976610191825.1°C68.4%18.9°C3144ft (958m)12.73v31
103914 Apr 22:15:081010.2 mph11SSW (195°)9977210192425.1°C68.4%18.9°C3144ft (958m)12.72v31
103814 Apr 22:14:5699.7 mph12SSW (206°)9977210192425.1°C68.5%18.9°C3135ft (956m)12.72v31
103714 Apr 22:14:4577.7 mph10SSW (199°)9976910192125.1°C68.5%18.9°C3135ft (956m)12.71v31
103614 Apr 22:14:3477.8 mph11SW (217°)9977410192625.1°C68.5%18.9°C3135ft (956m)12.7v31
103514 Apr 22:14:231212.1 mph13SSW (201°)9976910192125.1°C68.5%18.9°C3135ft (956m)12.71v31
103414 Apr 22:14:111112.8 mph14SSW (204°)9977010192225.1°C68.4%18.9°C3144ft (958m)12.73v31
103314 Apr 22:14:0089.2 mph12SSW (207°)9977210192425°C68.5%18.8°C3133ft (955m)12.71v31
103214 Apr 22:13:4978.3 mph10SSW (209°)9977210192425°C68.6%18.8°C3123ft (952m)12.72v31
103114 Apr 22:13:381213.6 mph15SSW (203°)9977210192425°C68.5%18.8°C3133ft (955m)12.72v31
103014 Apr 22:13:2699.9 mph12SSW (207°)9976910192125°C68.5%18.8°C3133ft (955m)12.72v31
102914 Apr 22:13:15911.3 mph14SSW (198°)9977310192525°C68.6%18.8°C3123ft (952m)12.73v31
102814 Apr 22:13:041012.4 mph16SSW (205°)9977310192525.1°C68.5%18.9°C3135ft (956m)12.72v31
102714 Apr 22:12:531012.2 mph14SSW (202°)9977210192425.1°C68.3%18.8°C3154ft (961m)12.71v31
102614 Apr 22:12:4189.8 mph11SSW (199°)9977310192525.1°C68.5%18.9°C3135ft (956m)12.73v31
102514 Apr 22:12:301111.7 mph13S (184°)9976810192025.1°C68.4%18.9°C3144ft (958m)12.73v31
102414 Apr 22:12:19810.2 mph12SSW (199°)9977010192225.1°C68.4%18.9°C3144ft (958m)12.74v31
102314 Apr 22:12:08911.1 mph13SSW (199°)9976710191925°C68.3%18.8°C3152ft (961m)12.72v31
102214 Apr 22:11:56911.1 mph14SSW (201°)9976810192025.1°C68.3%18.8°C3154ft (961m)12.72v31
102114 Apr 22:11:451111.5 mph13SSW (205°)9977210192425.1°C68.4%18.9°C3144ft (958m)12.74v31
102014 Apr 22:11:34810.2 mph12SSW (200°)9977310192525.1°C68.5%18.9°C3135ft (956m)12.7v31
101914 Apr 22:11:231010.5 mph12SSW (209°)9977010192225°C68.5%18.8°C3133ft (955m)12.71v31
101814 Apr 22:11:111011.7 mph15SSW (200°)9977210192425.1°C68.4%18.9°C3144ft (958m)12.72v31
101714 Apr 22:11:001011 mph12SSW (207°)9976510191725.1°C68.4%18.9°C3144ft (958m)12.72v31
101614 Apr 22:10:491213.1 mph14SSW (198°)9976810192025°C68.4%18.8°C3142ft (958m)12.73v31
101514 Apr 22:10:381012.5 mph15SSW (200°)9977210192425°C68.5%18.8°C3133ft (955m)12.72v31
101414 Apr 22:10:261012 mph17SSW (207°)9976910192125°C68.5%18.8°C3133ft (955m)12.71v31
101314 Apr 22:10:15912.2 mph16SSW (202°)9976910192125.1°C68.3%18.8°C3154ft (961m)12.73v31
101214 Apr 22:10:041011.1 mph14SSW (202°)9977110192325.1°C68.2%18.8°C3163ft (964m)12.71v31
101114 Apr 22:09:531011.9 mph13SSW (202°)9976910192125.1°C68.3%18.8°C3154ft (961m)12.71v31
101014 Apr 22:09:41810.1 mph12SSW (203°)9976810192025.1°C68.3%18.8°C3154ft (961m)12.71v31
100914 Apr 22:09:301011.2 mph14SSW (208°)9977310192525.1°C68.3%18.8°C3154ft (961m)12.71v31
100814 Apr 22:09:201111.2 mph13SSW (208°)9977110192325.1°C68.2%18.8°C3163ft (964m)12.74v31
100714 Apr 22:09:091011 mph12SSW (209°)9977010192225.1°C68.2%18.8°C3163ft (964m)12.73v31
100614 Apr 22:08:5759 mph14SSW (198°)9977410192625.1°C68.3%18.8°C3154ft (961m)12.73v31
100514 Apr 22:08:4668.1 mph9SSW (210°)9977210192425.1°C68.2%18.8°C3163ft (964m)12.71v31
100414 Apr 22:08:3568.9 mph11SSW (203°)9977110192325.1°C68.1%18.8°C3173ft (967m)12.71v31
100314 Apr 22:08:24911.1 mph13SSW (206°)9976810192025.1°C68.1%18.8°C3173ft (967m)12.73v31
100214 Apr 22:08:12912.4 mph14SSW (200°)9977310192525.1°C68.1%18.8°C3173ft (967m)12.72v31
100114 Apr 22:08:011010.5 mph12S (189°)9977110192325.1°C68.2%18.8°C3163ft (964m)12.72v31
100014 Apr 22:07:501212.8 mph13SSW (198°)9976710191925.1°C68.2%18.8°C3163ft (964m)12.73v31
99914 Apr 22:07:3978.7 mph11SSW (203°)9976710191925.1°C68.2%18.8°C3163ft (964m)12.72v31
99814 Apr 22:07:271012.1 mph14SSW (200°)9976810192025.1°C68.2%18.8°C3163ft (964m)12.73v31
99714 Apr 22:07:16910.1 mph11SSW (201°)9976910192125.1°C68.2%18.8°C3163ft (964m)12.72v31
99614 Apr 22:07:0599.9 mph11SSW (203°)9976910192125.1°C68.3%18.8°C3154ft (961m)12.73v31
99514 Apr 22:06:541113.5 mph16SSW (209°)9977210192425.1°C68.3%18.8°C3154ft (961m)12.73v31
99414 Apr 22:06:421212.7 mph13SSW (201°)9976610191825.1°C68.3%18.8°C3154ft (961m)12.72v31
99314 Apr 22:06:311112.4 mph14SSW (199°)9976810192025.1°C68.2%18.8°C3163ft (964m)12.71v31
99214 Apr 22:06:1979.6 mph15SSW (198°)9976310191525.1°C68.1%18.8°C3173ft (967m)12.74v31
99114 Apr 22:06:0889.2 mph13SSW (198°)9977410192625.1°C68.3%18.8°C3154ft (961m)12.73v31
99014 Apr 22:05:56710.5 mph14SSW (205°)9977310192525.1°C68.2%18.8°C3163ft (964m)12.73v31
98914 Apr 22:05:451011.3 mph13SW (215°)9977210192425.1°C68.3%18.8°C3154ft (961m)12.72v31
98814 Apr 22:05:341012.2 mph14SSW (199°)9977110192325.1°C68.1%18.8°C3173ft (967m)12.73v31
98714 Apr 22:05:231112 mph15SSW (192°)9977110192325.1°C68.1%18.8°C3173ft (967m)12.73v31
98614 Apr 22:05:111111.8 mph13SSW (195°)9977410192625.1°C68.1%18.8°C3173ft (967m)12.73v31
98514 Apr 22:05:001112.4 mph14SSW (199°)9977510192725.1°C68.2%18.8°C3163ft (964m)12.71v31
98414 Apr 22:04:4988.8 mph11SSW (199°)9977010192225.1°C68.1%18.8°C3173ft (967m)12.74v31
98314 Apr 22:04:38910.4 mph12SSW (203°)9977410192625.1°C68.1%18.8°C3173ft (967m)12.74v31
98214 Apr 22:04:261111.9 mph14SW (214°)9977210192425.1°C68.1%18.8°C3173ft (967m)12.73v31
98114 Apr 22:04:1578.6 mph10SSW (199°)9977610192825.1°C68.2%18.8°C3163ft (964m)12.73v31
98014 Apr 22:04:0489 mph10SSW (204°)9977310192525.1°C68.3%18.8°C3154ft (961m)12.74v31
97914 Apr 22:03:5388.9 mph10SSW (202°)9977210192425.1°C68.3%18.8°C3154ft (961m)12.73v31
97814 Apr 22:03:411011.7 mph14SSW (204°)9977410192625.1°C68.3%18.8°C3154ft (961m)12.7v31
97714 Apr 22:03:30910.6 mph13SSW (211°)9977710192925.1°C68.2%18.8°C3163ft (964m)12.73v31
97614 Apr 22:03:191212.2 mph14SSW (207°)9977210192425.1°C68.2%18.8°C3163ft (964m)12.73v31
97514 Apr 22:03:081111.5 mph13SSW (198°)9977410192625.1°C68.2%18.8°C3163ft (964m)12.73v31
97414 Apr 22:02:5688.6 mph10SW (215°)9977510192725.1°C68.2%18.8°C3163ft (964m)12.73v31
97314 Apr 22:02:451111.7 mph13SSW (196°)9976510191725.1°C68.3%18.8°C3154ft (961m)12.74v31
97214 Apr 22:02:341013.3 mph17SSW (202°)9977110192325.1°C68.2%18.8°C3163ft (964m)12.74v31
97114 Apr 22:02:23912.7 mph16SSW (201°)9977010192225.1°C68.2%18.8°C3163ft (964m)12.73v31
97014 Apr 22:02:1189.5 mph11SSW (209°)9976710191925.1°C68.2%18.8°C3163ft (964m)12.72v31
96914 Apr 22:02:0078.1 mph10SW (214°)9977210192425.1°C68.2%18.8°C3163ft (964m)12.71v31
96814 Apr 22:01:491212 mph13SSW (210°)9977310192525.1°C68.1%18.8°C3173ft (967m)12.74v31
96714 Apr 22:01:38610.7 mph15SSW (213°)9977310192525.1°C68%18.8°C3183ft (970m)12.74v31
96614 Apr 22:01:2667.7 mph10SW (221°)9977510192725.1°C68.1%18.8°C3173ft (967m)12.73v31
96514 Apr 22:01:15911 mph13SSW (211°)9977110192325.1°C68.1%18.8°C3173ft (967m)12.73v31
96414 Apr 22:01:04910.5 mph13SSW (195°)9977010192225.1°C68.1%18.8°C3173ft (967m)12.73v31
96314 Apr 22:00:5389.3 mph13SSW (201°)9976710191925.1°C68.3%18.8°C3154ft (961m)12.73v31
96214 Apr 22:00:4167.5 mph11SW (225°)9977210192425.1°C68.3%18.8°C3154ft (961m)12.72v31
96114 Apr 22:00:3088.7 mph9SW (216°)9977310192525.1°C68.2%18.8°C3163ft (964m)12.73v31
96014 Apr 22:00:1977.6 mph11SSW (206°)9977310192525.1°C68.4%18.9°C3144ft (958m)12.72v31
95914 Apr 22:00:0899.7 mph11SW (217°)9977310192525.1°C68.4%18.9°C3144ft (958m)12.73v31
95814 Apr 21:59:561011.5 mph12SSW (211°)9977110192325°C68.4%18.8°C3142ft (958m)12.74v31
95714 Apr 21:59:451011.3 mph13SSW (204°)9977210192425.1°C68.3%18.8°C3154ft (961m)12.73v31
95614 Apr 21:59:341011.7 mph13SSW (203°)9976910192125.1°C68.2%18.8°C3163ft (964m)12.73v31
95514 Apr 21:59:2378 mph10SSW (202°)9977210192425.1°C68.3%18.8°C3154ft (961m)12.72v31
95414 Apr 21:59:1176.9 mph8SSW (209°)9977010192225.1°C68.3%18.8°C3154ft (961m)12.73v31
95314 Apr 21:59:00910.6 mph13S (189°)9976710191925.1°C68.2%18.8°C3163ft (964m)12.72v31
95214 Apr 21:58:491011.8 mph13SSW (198°)9976810192025.1°C68.1%18.8°C3173ft (967m)12.74v31
95114 Apr 21:58:38910.9 mph15SSW (212°)9976810192025.1°C68.1%18.8°C3173ft (967m)12.74v31
95014 Apr 21:58:2679.5 mph13SSW (194°)9975810191025.1°C68.2%18.8°C3163ft (964m)12.73v31
94914 Apr 21:58:1579.9 mph13SW (215°)9976910192125.1°C68.3%18.8°C3154ft (961m)12.73v31
94814 Apr 21:58:04910.9 mph14SSW (192°)9976510191725.1°C68.2%18.8°C3163ft (964m)12.72v31
94714 Apr 21:57:531012.3 mph15SSW (206°)9976610191825.1°C68.2%18.8°C3163ft (964m)12.72v31
94614 Apr 21:57:41910.8 mph15SSW (212°)9977110192325°C68.3%18.8°C3152ft (961m)12.72v31
94514 Apr 21:57:301112.4 mph15SSW (196°)9976910192125.1°C68.2%18.8°C3163ft (964m)12.73v31
94414 Apr 21:57:201010.8 mph13SSW (208°)9975510190725.1°C68.2%18.8°C3163ft (964m)12.73v31
94314 Apr 21:57:091212.1 mph14S (191°)9976310191525.1°C68.3%18.8°C3154ft (961m)12.73v31
94214 Apr 21:56:571010.8 mph12SSW (202°)9976310191525.1°C68.2%18.8°C3163ft (964m)12.73v31
94114 Apr 21:56:461013.3 mph15SSW (196°)9976810192025.1°C68.2%18.8°C3163ft (964m)12.73v31
94014 Apr 21:56:3599.2 mph10SSW (210°)9976910192125.1°C68.2%18.8°C3163ft (964m)12.73v31
93914 Apr 21:56:2489.3 mph11SSW (203°)9976410191625.1°C68.2%18.8°C3163ft (964m)12.73v31
93814 Apr 21:56:1299.8 mph11SSW (204°)9976710191925.1°C68.2%18.8°C3163ft (964m)12.73v31
93714 Apr 21:56:0189 mph10SSW (202°)9976510191725.1°C68.2%18.8°C3163ft (964m)12.72v31
93614 Apr 21:55:5078.4 mph10SSW (207°)9976910192125.1°C68.3%18.8°C3154ft (961m)12.73v31
93514 Apr 21:55:391011.1 mph12SSW (210°)9976610191825°C68.3%18.8°C3152ft (961m)12.72v31
93414 Apr 21:55:2778.5 mph10SSW (213°)9976810192025°C68.5%18.8°C3133ft (955m)12.74v31
93314 Apr 21:55:1689.8 mph12SSW (207°)9976510191725°C68.4%18.8°C3142ft (958m)12.74v31
93214 Apr 21:55:051012 mph15SSW (206°)9976710191925°C68.4%18.8°C3142ft (958m)12.73v31
93114 Apr 21:54:541112.9 mph14SSW (194°)9976910192125°C68.2%18.7°C3161ft (963m)12.73v31
93014 Apr 21:54:421213.3 mph15SSW (196°)9976810192025°C68.3%18.8°C3152ft (961m)12.72v31
92914 Apr 21:54:311012.1 mph14SSW (196°)9976310191525.1°C68.2%18.8°C3163ft (964m)12.72v31
92814 Apr 21:54:201112.6 mph16SSW (201°)9976710191925.1°C68.2%18.8°C3163ft (964m)12.72v31
92714 Apr 21:54:091011.6 mph14SSW (201°)9976810192025.1°C68.2%18.8°C3163ft (964m)12.73v31
92614 Apr 21:53:5779.8 mph13SW (228°)9976210191425.1°C68.1%18.8°C3173ft (967m)12.73v31
92514 Apr 21:53:46910.6 mph12SSW (203°)9976410191625.1°C68.1%18.8°C3173ft (967m)12.74v31
92414 Apr 21:53:35910.5 mph12SSW (208°)9977210192425.1°C68.2%18.8°C3163ft (964m)12.72v31
92314 Apr 21:53:24910.2 mph12SSW (203°)9977110192325.1°C68.2%18.8°C3163ft (964m)12.73v31
92214 Apr 21:53:121010.2 mph11SSW (207°)9977010192225°C68.3%18.8°C3152ft (961m)12.72v31
92114 Apr 21:53:011111.9 mph14SSW (210°)9976710191925°C68.3%18.8°C3152ft (961m)12.72v31
92014 Apr 21:52:50910.1 mph12SSW (211°)9977010192225°C68.2%18.7°C3161ft (963m)12.73v31
91914 Apr 21:52:3999.3 mph10SSW (211°)9977110192325°C68.2%18.7°C3161ft (963m)12.71v31
91814 Apr 21:52:2789.4 mph11SSW (208°)9976810192025°C68.2%18.7°C3161ft (963m)12.73v31
91714 Apr 21:52:161114.1 mph16SSW (198°)9976610191825°C68.2%18.7°C3161ft (963m)12.73v31
91614 Apr 21:52:051212.9 mph15SSW (199°)9976610191825°C68.2%18.7°C3161ft (963m)12.74v31
91514 Apr 21:51:541214 mph18SSW (197°)9976710191925°C68.3%18.8°C3152ft (961m)12.73v31
91414 Apr 21:51:42910.8 mph13SSW (194°)9977410192625°C68.4%18.8°C3142ft (958m)12.73v31
91314 Apr 21:51:31910.8 mph16SSW (203°)9976710191925°C68.4%18.8°C3142ft (958m)12.74v31
91214 Apr 21:51:2099.7 mph11SW (222°)9976810192025°C68.4%18.8°C3142ft (958m)12.72v31
91114 Apr 21:51:09811.3 mph13SW (214°)9976910192125°C68.2%18.7°C3161ft (963m)12.74v31
91014 Apr 21:50:571213 mph14SSW (211°)9976910192125°C68.2%18.7°C3161ft (963m)12.74v31
90914 Apr 21:50:4669.8 mph15SSW (202°)9976510191725.1°C68.1%18.8°C3173ft (967m)12.75v31
90814 Apr 21:50:3577.7 mph9SW (214°)9976410191625.1°C68.3%18.8°C3154ft (961m)12.73v31
90714 Apr 21:50:2488.1 mph9SSW (213°)9976610191825°C68.3%18.8°C3152ft (961m)12.73v31
90614 Apr 21:50:1278.7 mph10SSW (211°)9977010192225°C68.3%18.8°C3152ft (961m)12.74v31
90514 Apr 21:50:0189.9 mph15SSW (205°)9976910192125°C68.4%18.8°C3142ft (958m)12.72v31
90414 Apr 21:49:501415.4 mph17SSW (213°)9976410191625°C68.3%18.8°C3152ft (961m)12.73v31
90314 Apr 21:49:391111.7 mph13SW (215°)9976710191925.1°C68.2%18.8°C3163ft (964m)12.72v31
90214 Apr 21:49:2799.1 mph10SSW (210°)9976910192125°C68.2%18.7°C3161ft (963m)12.73v31
90114 Apr 21:49:161011.4 mph13SSW (192°)9977010192225°C68.4%18.8°C3142ft (958m)12.74v31
90014 Apr 21:49:051012.7 mph15SW (216°)9976510191725°C68.2%18.7°C3161ft (963m)12.75v31
89914 Apr 21:48:541213.9 mph16SSW (203°)9976510191725°C68.3%18.8°C3152ft (961m)12.74v31
89814 Apr 21:48:42910.7 mph12SSW (197°)9976710191925°C68.3%18.8°C3152ft (961m)12.73v31
89714 Apr 21:48:3179.4 mph12SW (214°)9976710191925°C68.3%18.8°C3152ft (961m)12.72v31
89614 Apr 21:48:201111.9 mph14S (183°)9976610191825°C68.3%18.8°C3152ft (961m)12.72v31
89514 Apr 21:48:091212.7 mph15SSW (199°)9975910191125.1°C68.2%18.8°C3163ft (964m)12.74v31
89414 Apr 21:47:571011.4 mph13SSW (205°)9975610190825.1°C68.1%18.8°C3173ft (967m)12.74v31
89314 Apr 21:47:4699.1 mph10SW (214°)9976710191925.1°C68.2%18.8°C3163ft (964m)12.74v31
89214 Apr 21:47:3557.3 mph10SW (214°)9976610191825.1°C68.3%18.8°C3154ft (961m)12.74v31
89114 Apr 21:47:2478.6 mph11SSW (205°)9976910192125.1°C68.4%18.9°C3144ft (958m)12.73v31
89014 Apr 21:47:12810.7 mph13SSW (207°)9976810192025.1°C68.2%18.8°C3163ft (964m)12.73v31
88914 Apr 21:47:0188.5 mph9SSW (207°)9976710191925.1°C68.1%18.8°C3173ft (967m)12.72v31
88814 Apr 21:46:50910.9 mph14SSW (194°)9976710191925.1°C68.1%18.8°C3173ft (967m)12.74v31
88714 Apr 21:46:391113.7 mph15SSW (196°)9976710191925.1°C68.1%18.8°C3173ft (967m)12.72v31
88614 Apr 21:46:27810.1 mph12SSW (212°)9976710191925.1°C68.2%18.8°C3163ft (964m)12.73v31
88514 Apr 21:46:1666.1 mph7SSW (196°)9977010192225.1°C68.4%18.9°C3144ft (958m)12.74v31
88414 Apr 21:46:0567.8 mph10SW (215°)9976910192125.1°C68.3%18.8°C3154ft (961m)12.74v31
88314 Apr 21:45:5488.7 mph9SW (216°)9976910192125.1°C68.3%18.8°C3154ft (961m)12.73v31
88214 Apr 21:45:4288.8 mph11SW (222°)9976410191625°C68.4%18.8°C3142ft (958m)12.74v31
88114 Apr 21:45:3188.7 mph10SSW (202°)9976610191825°C68.3%18.8°C3152ft (961m)12.73v31
88014 Apr 21:45:201112.9 mph15S (189°)9976810192025°C68.4%18.8°C3142ft (958m)12.74v31
87914 Apr 21:45:0989.1 mph11SSW (206°)9975810191025°C68.4%18.8°C3142ft (958m)12.72v31
87814 Apr 21:44:571011 mph12SSW (210°)9976310191525°C68.4%18.8°C3142ft (958m)12.72v31
87714 Apr 21:44:461314 mph15SSW (208°)9976310191525°C68.4%18.8°C3142ft (958m)12.73v31
87614 Apr 21:44:351111.6 mph14S (191°)9976210191425°C68.3%18.8°C3152ft (961m)12.73v31
87514 Apr 21:44:241011.7 mph13SSW (202°)9976410191625°C68.3%18.8°C3152ft (961m)12.74v31
87414 Apr 21:44:121011.5 mph13S (187°)9975910191125°C68.4%18.8°C3142ft (958m)12.75v31
87314 Apr 21:44:0189.3 mph12SSW (207°)9976310191525°C68.4%18.8°C3142ft (958m)12.73v31
87214 Apr 21:43:50910.4 mph13SSW (200°)9976410191625°C68.4%18.8°C3142ft (958m)12.74v31
87114 Apr 21:43:39911.2 mph14SSW (204°)9976810192025°C68.5%18.8°C3133ft (955m)12.72v31
87014 Apr 21:43:271315.8 mph19SSW (211°)9976310191525°C68.4%18.8°C3142ft (958m)12.73v31
86914 Apr 21:43:161011.5 mph15SSW (207°)9976610191825°C68.4%18.8°C3142ft (958m)12.74v31
86814 Apr 21:43:0579.3 mph15SSW (205°)9976210191425.1°C68.4%18.9°C3144ft (958m)12.74v31
86714 Apr 21:42:54910.6 mph14SSW (202°)9976310191525°C68.3%18.8°C3152ft (961m)12.73v31
86614 Apr 21:42:421012.5 mph15SSW (200°)9976110191325°C68.4%18.8°C3142ft (958m)12.73v31
86514 Apr 21:42:3177.7 mph10SSW (198°)9976510191725°C68.3%18.8°C3152ft (961m)12.74v31
86414 Apr 21:42:201010.9 mph12SSW (201°)9976410191625°C68.4%18.8°C3142ft (958m)12.73v31
86314 Apr 21:42:091111.9 mph13SSW (199°)9976310191525°C68.3%18.8°C3152ft (961m)12.72v31
86214 Apr 21:41:5789.3 mph10S (191°)9976410191625°C68.4%18.8°C3142ft (958m)12.73v31
86114 Apr 21:41:4689.6 mph13SSW (208°)9976510191725°C68.4%18.8°C3142ft (958m)12.73v31
86014 Apr 21:41:35910.8 mph13SSW (201°)9976210191425°C68.5%18.8°C3133ft (955m)12.75v31
85914 Apr 21:41:241112.9 mph15SSW (207°)9976410191625°C68.5%18.8°C3133ft (955m)12.73v31
85814 Apr 21:41:121011 mph13SW (214°)9975710190925°C68.5%18.8°C3133ft (955m)12.72v31
85714 Apr 21:41:011111.7 mph14SSW (202°)9976310191525°C68.5%18.8°C3133ft (955m)12.74v31
85614 Apr 21:40:501113.1 mph14SSW (199°)9976110191325°C68.5%18.8°C3133ft (955m)12.72v31
85514 Apr 21:40:391111.4 mph13SSW (206°)9975410190625°C68.6%18.8°C3123ft (952m)12.73v31
85414 Apr 21:40:27910.4 mph14SSW (203°)9976110191325°C68.5%18.8°C3133ft (955m)12.74v31
85314 Apr 21:40:161112.5 mph15SSW (201°)9975810191025°C68.5%18.8°C3133ft (955m)12.73v31
85214 Apr 21:40:05810.5 mph13SSW (202°)9975710190925°C68.6%18.8°C3123ft (952m)12.74v31
85114 Apr 21:39:54910.6 mph13SSW (211°)9976610191825°C68.6%18.8°C3123ft (952m)12.74v31
85014 Apr 21:39:421012.5 mph16SSW (205°)9976110191325°C68.5%18.8°C3133ft (955m)12.72v31
84914 Apr 21:39:311313.9 mph15SSW (200°)9975710190925°C68.5%18.8°C3133ft (955m)12.74v31
84814 Apr 21:39:201113.7 mph16SSW (204°)9976310191525°C68.5%18.8°C3133ft (955m)12.74v31
84714 Apr 21:39:09109.8 mph11SSW (210°)9975810191025°C68.7%18.8°C3114ft (949m)12.74v31
84614 Apr 21:38:571011.7 mph13SSW (202°)9976210191425°C68.5%18.8°C3133ft (955m)12.73v31
84514 Apr 21:38:461112.3 mph15SSW (196°)9975910191125°C68.5%18.8°C3133ft (955m)12.74v31
84414 Apr 21:38:35912.2 mph16SSW (196°)9975210190425°C68.4%18.8°C3142ft (958m)12.74v31
84314 Apr 21:38:2499 mph12SSW (197°)9975910191125°C68.4%18.8°C3142ft (958m)12.73v31
84214 Apr 21:38:121113 mph15SSW (196°)9975410190625°C68.4%18.8°C3142ft (958m)12.74v31
84114 Apr 21:38:011112.9 mph15SSW (206°)9975010190225°C68.3%18.8°C3152ft (961m)12.75v31
84014 Apr 21:37:501516 mph17SSW (198°)9975610190825°C68.2%18.7°C3161ft (963m)12.74v31
83914 Apr 21:37:391112.6 mph15SSW (204°)9975710190925°C68.3%18.8°C3152ft (961m)12.73v31
83814 Apr 21:37:271314.5 mph16SSW (202°)9975210190425°C68.2%18.7°C3161ft (963m)12.73v31
83714 Apr 21:37:16712.1 mph19SSW (196°)9975310190525°C68.3%18.8°C3152ft (961m)12.73v31
83614 Apr 21:37:05910.8 mph12SSW (207°)9976010191225°C68.4%18.8°C3142ft (958m)12.75v31
83514 Apr 21:36:54910.7 mph13SSW (212°)9976110191325°C68.4%18.8°C3142ft (958m)12.74v31
83414 Apr 21:36:4279.1 mph11SSW (205°)9976310191525°C68.3%18.8°C3152ft (961m)12.74v31
83314 Apr 21:36:3189.3 mph12SSW (199°)9976010191225°C68.4%18.8°C3142ft (958m)12.74v31
83214 Apr 21:36:2089.9 mph12SSW (200°)9975810191025°C68.3%18.8°C3152ft (961m)12.73v31
83114 Apr 21:36:091313.5 mph16S (188°)9975210190425°C68.4%18.8°C3142ft (958m)12.74v31
83014 Apr 21:35:571013.4 mph15SSW (205°)9975910191125°C68.3%18.8°C3152ft (961m)12.73v31
82914 Apr 21:35:4679 mph11SSW (204°)9975910191125°C68.4%18.8°C3142ft (958m)12.74v31
82814 Apr 21:35:35912.1 mph16SSW (203°)9975410190625°C68.4%18.8°C3142ft (958m)12.74v31
82714 Apr 21:35:241112.1 mph14SSW (204°)9975910191125°C68.5%18.8°C3133ft (955m)12.74v31
82614 Apr 21:35:121010.1 mph12SSW (198°)9975210190425°C68.5%18.8°C3133ft (955m)12.74v31
82514 Apr 21:35:011011.2 mph12SSW (211°)9975610190825°C68.5%18.8°C3133ft (955m)12.74v31
82414 Apr 21:34:50912 mph15SW (215°)9975810191025°C68.3%18.8°C3152ft (961m)12.75v31
82314 Apr 21:34:391112.3 mph13SSW (205°)9975910191125°C68.3%18.8°C3152ft (961m)12.73v31
82214 Apr 21:34:27910.8 mph12SSW (207°)9975910191125°C68.3%18.8°C3152ft (961m)12.73v31
82114 Apr 21:34:1689.8 mph12SSW (206°)9975710190925°C68.3%18.8°C3152ft (961m)12.74v31
82014 Apr 21:34:0566.8 mph8SSW (200°)9976010191225°C68.5%18.8°C3133ft (955m)12.73v31
81914 Apr 21:33:5479.7 mph12SSW (213°)9975910191125°C68.5%18.8°C3133ft (955m)12.73v31
81814 Apr 21:33:4288.6 mph11SSW (198°)9975710190925°C68.5%18.8°C3133ft (955m)12.73v31
81714 Apr 21:33:311313.4 mph15SSW (202°)9975810191025°C68.4%18.8°C3142ft (958m)12.74v31
81614 Apr 21:33:201012.5 mph16SSW (208°)9975910191125°C68.5%18.8°C3133ft (955m)12.73v31
81514 Apr 21:33:091111.8 mph15SSW (202°)9975610190825°C68.5%18.8°C3133ft (955m)12.73v31
81414 Apr 21:32:5789 mph11SSW (195°)9975910191125°C68.6%18.8°C3123ft (952m)12.73v31
81314 Apr 21:32:461011.6 mph15SSW (192°)9976110191325°C68.5%18.8°C3133ft (955m)12.74v31
81214 Apr 21:32:351010.7 mph13SSW (204°)9975710190925°C68.5%18.8°C3133ft (955m)12.74v31
81114 Apr 21:32:24910.7 mph12SSW (213°)9976010191225°C68.5%18.8°C3133ft (955m)12.75v31
81014 Apr 21:32:121212.8 mph15SSW (201°)9975310190525°C68.6%18.8°C3123ft (952m)12.74v31
80914 Apr 21:32:011011.3 mph15SSW (201°)9975010190225°C68.5%18.8°C3133ft (955m)12.73v31
80814 Apr 21:31:501113.3 mph15SSW (200°)9975710190925°C68.5%18.8°C3133ft (955m)12.72v31
80714 Apr 21:31:39911.3 mph15SSW (207°)9975510190725°C68.4%18.8°C3142ft (958m)12.74v31
80614 Apr 21:31:271012.8 mph16SSW (195°)9975410190625°C68.6%18.8°C3123ft (952m)12.73v31
80514 Apr 21:31:161212.8 mph14S (185°)9975510190725°C68.5%18.8°C3133ft (955m)12.72v31
80414 Apr 21:31:051415.2 mph17SSW (193°)9975910191125°C68.4%18.8°C3142ft (958m)12.74v31
80314 Apr 21:30:541012.7 mph16SSW (202°)9974610189825°C68.3%18.8°C3152ft (961m)12.74v31
80214 Apr 21:30:4279.6 mph13SSW (203°)9975210190425°C68.4%18.8°C3142ft (958m)12.74v31
80114 Apr 21:30:3199.7 mph11SSW (203°)9975910191125°C68.4%18.8°C3142ft (958m)12.74v31
80014 Apr 21:30:20911.3 mph17SSW (196°)9976210191425°C68.4%18.8°C3142ft (958m)12.74v31
79914 Apr 21:30:0979.4 mph11SSW (203°)9976010191225°C68.4%18.8°C3142ft (958m)12.74v31
79814 Apr 21:29:57911.1 mph13SSW (201°)9976110191325°C68.5%18.8°C3133ft (955m)12.73v31
79714 Apr 21:29:461313.6 mph15SSW (197°)9975410190625°C68.6%18.8°C3123ft (952m)12.74v31
79614 Apr 21:29:351213.7 mph15SSW (202°)9976010191225°C68.6%18.8°C3123ft (952m)12.75v31
79514 Apr 21:29:241112.2 mph14SW (214°)9976110191325°C68.5%18.8°C3133ft (955m)12.75v31
79414 Apr 21:29:121315.1 mph18SSW (197°)9976110191325°C68.5%18.8°C3133ft (955m)12.74v31
79314 Apr 21:29:011013.2 mph16SSW (202°)9974910190125°C68.5%18.8°C3133ft (955m)12.74v31
79214 Apr 21:28:501011.5 mph15SSW (212°)9975910191124.9°C68.6%18.7°C3121ft (951m)12.74v31
79114 Apr 21:28:391213.3 mph15SSW (204°)9975810191024.9°C68.7%18.7°C3112ft (949m)12.75v31
79014 Apr 21:28:271314.5 mph17SSW (208°)9975310190525°C68.7%18.8°C3114ft (949m)12.74v31
78914 Apr 21:28:161011.4 mph13SSW (204°)9975910191125°C68.4%18.8°C3142ft (958m)12.73v31
78814 Apr 21:28:051010.5 mph13SSW (210°)9975610190825°C68.4%18.8°C3142ft (958m)12.74v31
78714 Apr 21:27:541012.1 mph15SSW (205°)9974610189825°C68.4%18.8°C3142ft (958m)12.76v31
78614 Apr 21:27:42912.4 mph16SSW (206°)9975710190925°C68.5%18.8°C3133ft (955m)12.73v31
78514 Apr 21:27:311011.9 mph14SSW (208°)9975610190825°C68.3%18.8°C3152ft (961m)12.75v31
78414 Apr 21:27:20811.1 mph14SSW (205°)9976110191325°C68.4%18.8°C3142ft (958m)12.74v31
78314 Apr 21:27:091111.8 mph13SSW (199°)9975610190825°C68.4%18.8°C3142ft (958m)12.74v31
78214 Apr 21:26:5777.7 mph8SSW (205°)9975710190925°C68.4%18.8°C3142ft (958m)12.73v31
78114 Apr 21:26:46910.2 mph14SSW (206°)9975810191025°C68.4%18.8°C3142ft (958m)12.74v31
78014 Apr 21:26:351313.4 mph15SSW (202°)9975610190825°C68.4%18.8°C3142ft (958m)12.73v31
77914 Apr 21:26:241112.7 mph14SSW (204°)9975010190225°C68.4%18.8°C3142ft (958m)12.73v31
77814 Apr 21:26:121313.9 mph16SSW (195°)9974110189225°C68.5%18.8°C3133ft (955m)12.74v31
77714 Apr 21:26:01810.4 mph16S (185°)9974010189125°C68.5%18.8°C3133ft (955m)12.74v31
77614 Apr 21:25:501112 mph13SSW (204°)9975810191025°C68.4%18.8°C3142ft (958m)12.74v31
77514 Apr 21:25:391010.5 mph12SSW (199°)9975910191125°C68.6%18.8°C3123ft (952m)12.75v31
77414 Apr 21:25:271011.2 mph12SSW (202°)9975710190925°C68.5%18.8°C3133ft (955m)12.75v31
77314 Apr 21:25:16910.7 mph13SSW (202°)9975810191025°C68.6%18.8°C3123ft (952m)12.73v31
77214 Apr 21:25:05910.2 mph13SSW (195°)9975310190524.9°C68.6%18.7°C3121ft (951m)12.74v31
77114 Apr 21:24:541212.9 mph14SSW (209°)9975710190925°C68.6%18.8°C3123ft (952m)12.73v31
77014 Apr 21:24:4279.4 mph13SSW (210°)9975810191025°C68.5%18.8°C3133ft (955m)12.75v31
76914 Apr 21:24:311012 mph14SSW (209°)9975310190525°C68.5%18.8°C3133ft (955m)12.75v31
76814 Apr 21:24:20911.5 mph14S (190°)9975410190625°C68.6%18.8°C3123ft (952m)12.75v31
76714 Apr 21:24:091515.3 mph16SSW (205°)9975710190924.9°C68.5%18.7°C3131ft (954m)12.75v31
76614 Apr 21:23:571415.7 mph17SSW (200°)9974910190125°C68.4%18.8°C3142ft (958m)12.74v31
76514 Apr 21:23:461011.6 mph15SSW (197°)9974310189425°C68.4%18.8°C3142ft (958m)12.73v31
76414 Apr 21:23:351012.9 mph18SSW (199°)9975210190425°C68.5%18.8°C3133ft (955m)12.74v31
76314 Apr 21:23:241214.1 mph19SSW (198°)9975610190825°C68.3%18.8°C3152ft (961m)12.73v31
76214 Apr 21:23:121313.8 mph17SSW (198°)9974410189525°C68.4%18.8°C3142ft (958m)12.75v31
76114 Apr 21:23:01910.9 mph13SSW (199°)9974610189825°C68.3%18.8°C3152ft (961m)12.73v31
76014 Apr 21:22:5089.8 mph12SSW (195°)9975610190825°C68.3%18.8°C3152ft (961m)12.74v31
75914 Apr 21:22:391111.2 mph12SSW (200°)9975210190425°C68.3%18.8°C3152ft (961m)12.75v31
75814 Apr 21:22:2789.9 mph12SSW (199°)9975210190425°C68.2%18.7°C3161ft (963m)12.74v31
75714 Apr 21:22:16910.9 mph15SSW (200°)9974910190125°C68.3%18.8°C3152ft (961m)12.72v31
75614 Apr 21:22:051213.9 mph16SSW (204°)9975010190225°C68.3%18.8°C3152ft (961m)12.74v31
75514 Apr 21:21:541012.2 mph16SSW (200°)9974510189725°C68.3%18.8°C3152ft (961m)12.72v31
75414 Apr 21:21:42910 mph11SSW (205°)9975010190225°C68.3%18.8°C3152ft (961m)12.74v31
75314 Apr 21:21:311112.9 mph15SSW (204°)9975110190325°C68.2%18.7°C3161ft (963m)12.74v31
75214 Apr 21:21:2079.1 mph11SW (218°)9975010190225°C68.4%18.8°C3142ft (958m)12.75v31
75114 Apr 21:21:0978.8 mph11SSW (208°)9974710189925°C68.5%18.8°C3133ft (955m)12.73v31
75014 Apr 21:20:57910 mph12SSW (207°)9975010190225°C68.4%18.8°C3142ft (958m)12.74v31
74914 Apr 21:20:46810.9 mph14SSW (210°)9974910190125°C68.4%18.8°C3142ft (958m)12.75v31
74814 Apr 21:20:351213.3 mph15SSW (193°)9974710189925°C68.3%18.8°C3152ft (961m)12.73v31
74714 Apr 21:20:241013 mph16SSW (195°)9975110190325°C68.5%18.8°C3133ft (955m)12.74v31
74614 Apr 21:20:121516.2 mph17SSW (200°)9974510189725°C68.4%18.8°C3142ft (958m)12.75v31
74514 Apr 21:20:011111.9 mph14SSW (200°)9974310189425°C68.2%18.7°C3161ft (963m)12.74v31
74414 Apr 21:19:50810.2 mph13SSW (196°)9973710188825°C68.3%18.8°C3152ft (961m)12.74v31
74314 Apr 21:19:391112 mph15SSW (205°)9973710188825°C68.4%18.8°C3142ft (958m)12.74v31
74214 Apr 21:19:2799.5 mph12SSW (212°)9974310189425°C68.4%18.8°C3142ft (958m)12.74v31
74114 Apr 21:19:1699.4 mph12SW (218°)9975510190725°C68.3%18.8°C3152ft (961m)12.74v31
74014 Apr 21:19:05910.6 mph13SSW (207°)9974110189225°C68.3%18.8°C3152ft (961m)12.73v31
73914 Apr 21:18:541011 mph12SSW (194°)9974310189425°C68.3%18.8°C3152ft (961m)12.72v31
73814 Apr 21:18:42910.1 mph12SW (216°)9973710188825°C68.4%18.8°C3142ft (958m)12.74v31
73714 Apr 21:18:31910.7 mph14SSW (205°)9974110189225°C68.3%18.8°C3152ft (961m)12.75v31
73614 Apr 21:18:201212.1 mph14SSW (194°)9974310189425°C68.3%18.8°C3152ft (961m)12.74v31
73514 Apr 21:18:09911.1 mph13SSW (212°)9974210189325°C68.3%18.8°C3152ft (961m)12.74v31
73414 Apr 21:17:5799.6 mph10SSW (202°)9974410189525°C68.4%18.8°C3142ft (958m)12.75v31
73314 Apr 21:17:461112.7 mph16SSW (205°)9974010189125°C68.4%18.8°C3142ft (958m)12.73v31
73214 Apr 21:17:351115.1 mph19S (187°)9973810188925°C68.3%18.8°C3152ft (961m)12.74v31
73114 Apr 21:17:241112.5 mph15SSW (192°)9974010189125°C68.4%18.8°C3142ft (958m)12.73v31
73014 Apr 21:17:121012.5 mph14SSW (200°)9974310189425°C68.4%18.8°C3142ft (958m)12.75v31
72914 Apr 21:17:011313.8 mph15SSW (209°)9973210188325°C68.3%18.8°C3152ft (961m)12.74v31
72814 Apr 21:16:501214.1 mph16SSW (195°)9973710188825°C68.3%18.8°C3152ft (961m)12.75v31
72714 Apr 21:16:391011.1 mph12SSW (207°)9973710188825.1°C68.2%18.8°C3163ft (964m)12.72v31
72614 Apr 21:16:2779.4 mph12SSW (207°)9973910189025.1°C68.4%18.9°C3144ft (958m)12.74v31
72514 Apr 21:16:16910.7 mph13SSW (201°)9973910189025°C68.2%18.7°C3161ft (963m)12.73v31
72414 Apr 21:16:0599.7 mph11SSW (208°)9974010189125°C68.2%18.7°C3161ft (963m)12.74v31
72314 Apr 21:15:541111.8 mph13SW (215°)9973510188625°C68.3%18.8°C3152ft (961m)12.73v31
72214 Apr 21:15:4289.8 mph13SSW (203°)9973710188825°C68.1%18.7°C3171ft (967m)12.73v31
72114 Apr 21:15:3189.4 mph13SSW (193°)9973310188425°C68.2%18.7°C3161ft (963m)12.74v31
72014 Apr 21:15:2089.3 mph11SSW (205°)9973910189025°C68.2%18.7°C3161ft (963m)12.75v31
71914 Apr 21:15:09810.1 mph14SSW (200°)9973910189025°C68.3%18.8°C3152ft (961m)12.74v31
71814 Apr 21:14:57811.4 mph14SSW (208°)9973910189025°C68.1%18.7°C3171ft (967m)12.74v31
71714 Apr 21:14:461011 mph12SSW (199°)9973710188825°C68.3%18.8°C3152ft (961m)12.74v31
71614 Apr 21:14:351012.9 mph16SSW (199°)9973410188525°C68.3%18.8°C3152ft (961m)12.73v31
71514 Apr 21:14:241011.5 mph13SSW (197°)9973610188725°C68.2%18.7°C3161ft (963m)12.73v31
71414 Apr 21:14:121012.7 mph17SSW (212°)9973310188425°C68.3%18.8°C3152ft (961m)12.72v31
71314 Apr 21:14:011213.2 mph15SSW (196°)9973010188125°C68.3%18.8°C3152ft (961m)12.75v31
71214 Apr 21:13:501010.1 mph12SSW (197°)9973510188625°C68.3%18.8°C3152ft (961m)12.74v31
71114 Apr 21:13:391314.8 mph16SSW (212°)9973810188925°C68.2%18.7°C3161ft (963m)12.74v31
71014 Apr 21:13:2799.3 mph10SW (214°)9974010189125°C68.2%18.7°C3161ft (963m)12.75v31
70914 Apr 21:13:161312.9 mph13SSW (213°)9974110189225°C68.2%18.7°C3161ft (963m)12.75v31
70814 Apr 21:13:0589.6 mph12SSW (208°)9973610188725°C68.2%18.7°C3161ft (963m)12.75v31
70714 Apr 21:12:54811.4 mph16S (189°)9973710188825°C68.2%18.7°C3161ft (963m)12.73v31
70614 Apr 21:12:421212.3 mph16SSW (196°)9973110188225°C68.4%18.8°C3142ft (958m)12.74v31
70514 Apr 21:12:311012.9 mph18SSW (196°)9973910189025°C68.5%18.8°C3133ft (955m)12.74v31
70414 Apr 21:12:201214.3 mph17SSW (193°)9972310187425°C68.5%18.8°C3133ft (955m)12.74v31
70314 Apr 21:12:091214.6 mph16SSW (202°)9973410188525°C68.5%18.8°C3133ft (955m)12.75v31
70214 Apr 21:11:571012.5 mph15SSW (203°)9973410188525°C68.3%18.8°C3152ft (961m)12.74v31
70114 Apr 21:11:461012.5 mph14SSW (207°)9973510188625°C68.4%18.8°C3142ft (958m)12.74v31
70014 Apr 21:11:351114.5 mph17SSW (197°)9973110188225°C68.5%18.8°C3133ft (955m)12.74v31
69914 Apr 21:11:241415.3 mph18SSW (196°)9973310188425°C68.4%18.8°C3142ft (958m)12.75v31
69814 Apr 21:11:121214.2 mph16SSW (199°)9972710187825°C68.4%18.8°C3142ft (958m)12.74v31
69714 Apr 21:11:011111.7 mph15SSW (205°)9973810188925°C68.3%18.8°C3152ft (961m)12.75v31
69614 Apr 21:10:501012.9 mph15SSW (194°)9972910188025°C68.4%18.8°C3142ft (958m)12.75v31
69514 Apr 21:10:391215.2 mph18SSW (207°)9974110189225°C68.3%18.8°C3152ft (961m)12.75v31
69414 Apr 21:10:271011.8 mph15SSW (207°)9973510188625°C68.3%18.8°C3152ft (961m)12.73v31
69314 Apr 21:10:161213.7 mph16SSW (199°)9973210188325°C68.3%18.8°C3152ft (961m)12.74v31
69214 Apr 21:10:051214.9 mph17SSW (192°)9973310188425°C68.3%18.8°C3152ft (961m)12.74v31
69114 Apr 21:09:541213.9 mph15S (189°)9974310189425°C68.3%18.8°C3152ft (961m)12.74v31
69014 Apr 21:09:421011.4 mph16SSW (198°)9973910189025°C68.3%18.8°C3152ft (961m)12.74v31
68914 Apr 21:09:3189 mph12SSW (202°)9974010189125°C68.3%18.8°C3152ft (961m)12.75v31
68814 Apr 21:09:20910.7 mph12SSW (197°)9973910189025°C68.2%18.7°C3161ft (963m)12.75v31
68714 Apr 21:09:09910.5 mph13SSW (195°)9974310189425.1°C68.2%18.8°C3163ft (964m)12.75v31
68614 Apr 21:08:571112.3 mph14SSW (195°)9973210188325°C68.3%18.8°C3152ft (961m)12.74v31
68514 Apr 21:08:461112.4 mph15SSW (211°)9973510188625°C68.2%18.7°C3161ft (963m)12.74v31
68414 Apr 21:08:351214.5 mph17SSW (206°)9974110189225°C68.1%18.7°C3171ft (967m)12.73v31
68314 Apr 21:08:241213.4 mph16SSW (193°)9973510188625°C68.3%18.8°C3152ft (961m)12.75v31
68214 Apr 21:08:121012.4 mph17SSW (206°)9974510189725°C68.2%18.7°C3161ft (963m)12.75v31
68114 Apr 21:08:011112.1 mph13SSW (196°)9974310189425°C68.3%18.8°C3152ft (961m)12.74v31
68014 Apr 21:07:501314.3 mph18SSW (204°)9973710188825.1°C68.2%18.8°C3163ft (964m)12.76v31
67914 Apr 21:07:391417.7 mph21SSW (196°)9974610189825.1°C68.1%18.8°C3173ft (967m)12.75v31
67814 Apr 21:07:271313.7 mph15SSW (199°)9973610188725.1°C68.3%18.8°C3154ft (961m)12.74v31
67714 Apr 21:07:161011.4 mph13SSW (197°)9973810188925.1°C68.3%18.8°C3154ft (961m)12.75v31
67614 Apr 21:07:0579.1 mph12SSW (199°)9974410189525.1°C68.2%18.8°C3163ft (964m)12.76v31
67514 Apr 21:06:5478 mph9SSW (207°)9974310189425.1°C68.2%18.8°C3163ft (964m)12.73v31
67414 Apr 21:06:421112.5 mph15SSW (212°)9974410189525.1°C68.1%18.8°C3173ft (967m)12.74v31
67314 Apr 21:06:311010.9 mph12SW (219°)9974710189925.1°C68.2%18.8°C3163ft (964m)12.74v31
67214 Apr 21:06:201011.2 mph13SSW (206°)9974710189925.1°C68.1%18.8°C3173ft (967m)12.76v31
67114 Apr 21:06:091011.3 mph12SSW (209°)9974210189325.1°C68.1%18.8°C3173ft (967m)12.75v31
67014 Apr 21:05:571212.3 mph14SSW (212°)9975210190425.1°C68.2%18.8°C3163ft (964m)12.73v31
66914 Apr 21:05:461212.4 mph14SSW (212°)9974910190125.1°C68.2%18.8°C3163ft (964m)12.76v31
66814 Apr 21:05:351214.8 mph17SSW (203°)9974810190025°C68.2%18.7°C3161ft (963m)12.74v31
66714 Apr 21:05:241414.4 mph17SSW (199°)9974610189825°C68.3%18.8°C3152ft (961m)12.75v31
66614 Apr 21:05:121214 mph17SSW (203°)9974010189125°C68.2%18.7°C3161ft (963m)12.74v31
66514 Apr 21:05:011213.2 mph17SSW (203°)9974210189325.1°C68.1%18.8°C3173ft (967m)12.74v31
66414 Apr 21:04:501012.5 mph14SW (214°)9974410189525.1°C68.1%18.8°C3173ft (967m)12.75v31
66314 Apr 21:04:391214 mph17SSW (207°)9975210190425.1°C68%18.8°C3183ft (970m)12.74v31
66214 Apr 21:04:27910.9 mph13SW (214°)9974810190025.1°C67.9%18.8°C3192ft (973m)12.74v31
66114 Apr 21:04:16911.1 mph13SSW (207°)9974610189825.1°C68.1%18.8°C3173ft (967m)12.76v31
66014 Apr 21:04:051012.3 mph15SSW (208°)9974910190125.1°C68%18.8°C3183ft (970m)12.74v31
65914 Apr 21:03:5478.6 mph12SSW (202°)9975010190225.1°C68%18.8°C3183ft (970m)12.73v31
65814 Apr 21:03:4289.1 mph10SSW (211°)9975210190425.1°C68%18.8°C3183ft (970m)12.74v31
65714 Apr 21:03:311214.9 mph20SSW (193°)9975210190425.1°C68.1%18.8°C3173ft (967m)12.74v31
65614 Apr 21:03:201013.9 mph18SSW (206°)9975110190325.1°C67.9%18.8°C3192ft (973m)12.75v31
65514 Apr 21:03:09910.3 mph13SSW (206°)9975110190325.1°C68%18.8°C3183ft (970m)12.76v31
65414 Apr 21:02:571011.3 mph14SSW (201°)9975410190625.1°C67.9%18.8°C3192ft (973m)12.74v31
65314 Apr 21:02:46912.6 mph16SSW (200°)9974010189125.1°C67.9%18.8°C3192ft (973m)12.75v31
65214 Apr 21:02:351213.7 mph15SSW (205°)9975110190325.1°C67.8%18.7°C3202ft (976m)12.76v31
65114 Apr 21:02:241011.1 mph12SSW (200°)9975110190325.1°C67.8%18.7°C3202ft (976m)12.73v31
65014 Apr 21:02:121012.9 mph16SSW (203°)9975010190225.1°C67.7%18.7°C3212ft (979m)12.75v31
64914 Apr 21:02:0178.8 mph12SSW (193°)9975210190425.1°C67.7%18.7°C3212ft (979m)12.75v31
64814 Apr 21:01:5089 mph11SSW (212°)9975310190525.1°C67.9%18.8°C3192ft (973m)12.75v31
64714 Apr 21:01:391112.3 mph14SSW (206°)9975810191025.1°C67.8%18.7°C3202ft (976m)12.75v31
64614 Apr 21:01:271312.8 mph14SSW (210°)9975710190925.1°C67.8%18.7°C3202ft (976m)12.76v31
64514 Apr 21:01:161012.8 mph15SSW (205°)9975210190425.1°C67.9%18.8°C3192ft (973m)12.74v31
64414 Apr 21:01:0589.9 mph13SSW (207°)9976110191325.1°C68%18.8°C3183ft (970m)12.75v31
64314 Apr 21:00:541012.8 mph15SSW (198°)9975810191025.1°C67.8%18.7°C3202ft (976m)12.76v31
64214 Apr 21:00:42910.2 mph13SSW (200°)9975410190625.1°C67.7%18.7°C3212ft (979m)12.74v31
64114 Apr 21:00:31810.1 mph12SSW (205°)9975810191025.2°C67.8%18.8°C3204ft (977m)12.75v31
64014 Apr 21:00:201213.7 mph16SSW (201°)9975410190625.1°C67.8%18.7°C3202ft (976m)12.75v31
63914 Apr 21:00:09911.3 mph13SSW (205°)9975310190525.2°C67.7%18.8°C3214ft (980m)12.76v31
63814 Apr 20:59:571113.1 mph15SSW (202°)9975810191025.2°C67.6%18.8°C3223ft (982m)12.74v31
63714 Apr 20:59:4679.4 mph13SSW (204°)9975410190625.2°C67.6%18.8°C3223ft (982m)12.75v31
63614 Apr 20:59:3578.3 mph9SSW (206°)9975910191125.2°C67.8%18.8°C3204ft (977m)12.74v31
63514 Apr 20:59:241011 mph13SSW (206°)9975710190925.2°C67.7%18.8°C3214ft (980m)12.75v31
63414 Apr 20:59:1289.9 mph12SSW (208°)9975710190925.2°C67.7%18.8°C3214ft (980m)12.74v31
63314 Apr 20:59:0169.2 mph11SSW (207°)9975310190525.1°C67.8%18.7°C3202ft (976m)12.74v31
63214 Apr 20:58:5089.3 mph11SW (221°)9975110190325.2°C67.6%18.8°C3223ft (982m)12.75v31
63114 Apr 20:58:39810.5 mph12SSW (208°)9975910191125.2°C67.5%18.8°C3233ft (985m)12.75v31
63014 Apr 20:58:27711.1 mph14SW (223°)9975910191125.2°C67.4%18.7°C3243ft (988m)12.75v31
62914 Apr 20:58:16810.3 mph14SW (219°)9975710190925.2°C67.5%18.8°C3233ft (985m)12.74v31
62814 Apr 20:58:051011.5 mph13SSW (205°)9976110191325.2°C67.5%18.8°C3233ft (985m)12.75v31
62714 Apr 20:57:541010.8 mph12SSW (203°)9975710190925.2°C67.4%18.7°C3243ft (988m)12.74v31
62614 Apr 20:57:4267.1 mph9SSW (205°)9975810191025.2°C67.7%18.8°C3214ft (980m)12.75v31
62514 Apr 20:57:3189.4 mph11SSW (203°)9975810191025.2°C67.6%18.8°C3223ft (982m)12.72v31
62414 Apr 20:57:20810.4 mph13SSW (193°)9975610190825.2°C67.6%18.8°C3223ft (982m)12.74v31
62314 Apr 20:57:0989.1 mph11SSW (201°)9975710190925.2°C67.6%18.8°C3223ft (982m)12.74v31
62214 Apr 20:56:571111.7 mph13SSW (212°)9975510190725.2°C67.5%18.8°C3233ft (985m)12.76v31
62114 Apr 20:56:4679.2 mph13SSW (210°)9975310190525.1°C67.6%18.7°C3221ft (982m)12.76v31
62014 Apr 20:56:351112.1 mph14SSW (213°)9975510190725.1°C67.8%18.7°C3202ft (976m)12.75v31
61914 Apr 20:56:24910.3 mph14SSW (199°)9976010191225.1°C67.7%18.7°C3212ft (979m)12.75v31
61814 Apr 20:56:121011.6 mph14SSW (212°)9975410190625.1°C67.7%18.7°C3212ft (979m)12.75v31
61714 Apr 20:56:011011.7 mph14SSW (200°)9974510189725.2°C67.7%18.8°C3214ft (980m)12.73v31
61614 Apr 20:55:501414.8 mph17SSW (208°)9975410190625.2°C67.7%18.8°C3214ft (980m)12.73v31
61514 Apr 20:55:391112.9 mph16SSW (201°)9975810191025.2°C67.4%18.7°C3243ft (988m)12.75v31
61414 Apr 20:55:27810.8 mph14S (187°)9976210191425.1°C67.6%18.7°C3221ft (982m)12.76v31
61314 Apr 20:55:161011 mph13SSW (201°)9975810191025.2°C67.5%18.8°C3233ft (985m)12.76v31
61214 Apr 20:55:051112.7 mph15SSW (209°)9975710190925.2°C67.6%18.8°C3223ft (982m)12.75v31
61114 Apr 20:54:54811 mph13S (189°)9975210190425.2°C67.3%18.7°C3253ft (992m)12.76v31
61014 Apr 20:54:4289.4 mph11SSW (202°)9975610190825.2°C67.4%18.7°C3243ft (988m)12.74v31
60914 Apr 20:54:311010.8 mph14S (187°)9975410190625.2°C67.4%18.7°C3243ft (988m)12.74v31
60814 Apr 20:54:2079.9 mph14SSW (211°)9975610190825.2°C67.5%18.8°C3233ft (985m)12.75v31
60714 Apr 20:54:09810.2 mph13SSW (199°)9975210190425.2°C67.6%18.8°C3223ft (982m)12.76v31
60614 Apr 20:53:57811.5 mph13SW (220°)9975010190225.2°C67.6%18.8°C3223ft (982m)12.75v31
60514 Apr 20:53:461315 mph18SSW (200°)9974610189825.2°C67.4%18.7°C3243ft (988m)12.75v31
60414 Apr 20:53:3578.4 mph12SSW (202°)9975110190325.2°C67.6%18.8°C3223ft (982m)12.75v31
60314 Apr 20:53:2457 mph8SSW (203°)9975510190725.2°C67.6%18.8°C3223ft (982m)12.76v31
60214 Apr 20:53:1278.5 mph10SSW (208°)9975410190625.2°C67.6%18.8°C3223ft (982m)12.75v31
60114 Apr 20:53:01910.3 mph13SSW (204°)9975310190525.2°C67.6%18.8°C3223ft (982m)12.76v31
60014 Apr 20:52:50910.2 mph12SSW (213°)9975010190225.2°C67.5%18.8°C3233ft (985m)12.73v31
59914 Apr 20:52:391212.8 mph14SSW (211°)9975310190525.2°C67.4%18.7°C3243ft (988m)12.74v31
59814 Apr 20:52:2779.5 mph12SW (219°)9975310190525.2°C67.5%18.8°C3233ft (985m)12.76v31
59714 Apr 20:52:1689.2 mph10SW (216°)9975710190925.2°C67.5%18.8°C3233ft (985m)12.76v31
59614 Apr 20:52:0589.2 mph11SSW (211°)9975410190625.2°C67.4%18.7°C3243ft (988m)12.75v31
59514 Apr 20:51:54810.6 mph13SSW (204°)9975510190725.2°C67.5%18.8°C3233ft (985m)12.74v31
59414 Apr 20:51:4279 mph13SW (222°)9975610190825.2°C67.5%18.8°C3233ft (985m)12.74v31
59314 Apr 20:51:3178.5 mph10SSW (205°)9975310190525.2°C67.6%18.8°C3223ft (982m)12.74v31
59214 Apr 20:51:20912.4 mph15S (186°)9975310190525.2°C67.6%18.8°C3223ft (982m)12.76v31
59114 Apr 20:51:09810.3 mph13SSW (203°)9975410190625.2°C67.5%18.8°C3233ft (985m)12.75v31
59014 Apr 20:50:57910.3 mph12SSW (202°)9975510190725.2°C67.5%18.8°C3233ft (985m)12.76v31
58914 Apr 20:50:46810 mph14SSW (201°)9974910190125.2°C67.7%18.8°C3214ft (980m)12.75v31
58814 Apr 20:50:351013.1 mph16SSW (197°)9975610190825.1°C67.8%18.7°C3202ft (976m)12.75v31
58714 Apr 20:50:241313.5 mph15SSW (196°)9975910191125.1°C67.7%18.7°C3212ft (979m)12.76v31
58614 Apr 20:50:121111.2 mph14SW (216°)9974710189925.1°C67.7%18.7°C3212ft (979m)12.74v31
58514 Apr 20:50:011415.7 mph18SSW (202°)9975110190325.2°C67.6%18.8°C3223ft (982m)12.75v31
58414 Apr 20:49:501213.4 mph15SSW (199°)9975310190525.2°C67.6%18.8°C3223ft (982m)12.74v31
58314 Apr 20:49:39912.8 mph16SSW (204°)9974510189725.1°C67.6%18.7°C3221ft (982m)12.76v31
58214 Apr 20:49:2789.5 mph12SSW (206°)9975210190425.2°C67.5%18.8°C3233ft (985m)12.75v31
58114 Apr 20:49:161012.4 mph16SSW (205°)9975010190225.2°C67.5%18.8°C3233ft (985m)12.76v31
58014 Apr 20:49:051211.4 mph14SW (218°)9974410189525.2°C67.4%18.7°C3243ft (988m)12.75v31
57914 Apr 20:48:541112.3 mph15SSW (207°)9975010190225.2°C67.5%18.8°C3233ft (985m)12.75v31
57814 Apr 20:48:421113 mph15SSW (202°)9975210190425.2°C67.5%18.8°C3233ft (985m)12.75v31
57714 Apr 20:48:311112.9 mph16SSW (197°)9975810191025.2°C67.5%18.8°C3233ft (985m)12.75v31
57614 Apr 20:48:201113.3 mph15SSW (207°)9975310190525.2°C67.3%18.7°C3253ft (992m)12.74v31
57514 Apr 20:48:091113.7 mph15SSW (206°)9975610190825.2°C67.3%18.7°C3253ft (992m)12.74v31
57414 Apr 20:47:57811.3 mph15SSW (202°)9974910190125.2°C67.3%18.7°C3253ft (992m)12.75v31
57314 Apr 20:47:461010.5 mph12SSW (201°)9975610190825.2°C67.2%18.7°C3262ft (994m)12.77v31
57214 Apr 20:47:3589.4 mph12SSW (212°)9975610190825.2°C67.4%18.7°C3243ft (988m)12.75v31
57114 Apr 20:47:24911.6 mph15SSW (200°)9975210190425.2°C67.4%18.7°C3243ft (988m)12.75v31
57014 Apr 20:47:1299.9 mph12SW (214°)9974510189725.2°C67.3%18.7°C3253ft (992m)12.76v31
56914 Apr 20:47:011011.7 mph13SSW (204°)9975310190525.2°C67.4%18.7°C3243ft (988m)12.76v31
56814 Apr 20:46:501011.5 mph13SSW (211°)9975210190425.2°C67.3%18.7°C3253ft (992m)12.74v31
56714 Apr 20:46:391011 mph13SW (215°)9974810190025.2°C67.4%18.7°C3243ft (988m)12.77v31
56614 Apr 20:46:271010.5 mph12SSW (213°)9975110190325.2°C67.2%18.7°C3262ft (994m)12.76v31
56514 Apr 20:46:16911.2 mph13SSW (208°)9975110190325.2°C67.2%18.7°C3262ft (994m)12.77v31
56414 Apr 20:46:05810.6 mph14SSW (198°)9975410190625.2°C67.3%18.7°C3253ft (992m)12.75v31
56314 Apr 20:45:54911.6 mph14S (190°)9974310189425.2°C67.5%18.8°C3233ft (985m)12.75v31
56214 Apr 20:45:42911.7 mph16SSW (207°)9975410190625.2°C67.4%18.7°C3243ft (988m)12.75v31
56114 Apr 20:45:311012.8 mph16SSW (202°)9975510190725.2°C67.6%18.8°C3223ft (982m)12.75v31
56014 Apr 20:45:201012.8 mph17SSW (207°)9974810190025.2°C67.4%18.7°C3243ft (988m)12.75v31
55914 Apr 20:45:091010.3 mph11SSW (210°)9975310190525.2°C67.3%18.7°C3253ft (992m)12.75v31
55814 Apr 20:44:5767.8 mph9SW (219°)9975010190225.2°C67.4%18.7°C3243ft (988m)12.75v31
55714 Apr 20:44:46810.9 mph14SSW (212°)9975010190225.2°C67.4%18.7°C3243ft (988m)12.76v31
55614 Apr 20:44:351011.7 mph14SSW (207°)9974910190125.2°C67.4%18.7°C3243ft (988m)12.75v31
55514 Apr 20:44:24812.6 mph16SSW (209°)9974910190125.2°C67.4%18.7°C3243ft (988m)12.76v31
55414 Apr 20:44:12812.6 mph14SW (216°)9974410189525.2°C67.3%18.7°C3253ft (992m)12.75v31
55314 Apr 20:44:01912.3 mph16SSW (213°)9975610190825.2°C67.3%18.7°C3253ft (992m)12.75v31
55214 Apr 20:43:50712.1 mph19SSW (202°)9974610189825.2°C67.1%18.7°C3272ft (997m)12.76v31
55114 Apr 20:43:3967.7 mph9SW (218°)9975210190425.2°C67.4%18.7°C3243ft (988m)12.75v31
55014 Apr 20:43:27810.5 mph13SSW (207°)9974910190125.2°C67.3%18.7°C3253ft (992m)12.74v31
54914 Apr 20:43:161112.6 mph15SSW (206°)9975410190625.2°C67.3%18.7°C3253ft (992m)12.74v31
54814 Apr 20:43:051112.4 mph15SSW (209°)9975610190825.2°C67.4%18.7°C3243ft (988m)12.76v31
54714 Apr 20:42:54810.7 mph15SSW (200°)9974210189325.2°C67.5%18.8°C3233ft (985m)12.76v31
54614 Apr 20:42:421010.7 mph13SSW (213°)9975510190725.2°C67.4%18.7°C3243ft (988m)12.76v31
54514 Apr 20:42:3189.7 mph12SSW (194°)9975010190225.2°C67.4%18.7°C3243ft (988m)12.76v31
54414 Apr 20:42:201213.7 mph16SSW (202°)9974610189825.1°C67.6%18.7°C3221ft (982m)12.75v31
54314 Apr 20:42:091316 mph18SSW (209°)9975510190725.1°C67.7%18.7°C3212ft (979m)12.74v31
54214 Apr 20:41:571112.3 mph15SSW (203°)9974110189225.2°C67.6%18.8°C3223ft (982m)12.75v31
54114 Apr 20:41:461112.8 mph15SSW (208°)9975310190525.2°C67.5%18.8°C3233ft (985m)12.75v31
54014 Apr 20:41:351010.7 mph12SSW (212°)9975610190825.2°C67.5%18.8°C3233ft (985m)12.76v31
53914 Apr 20:41:241011.1 mph13SSW (210°)9975410190625.2°C67.4%18.7°C3243ft (988m)12.77v31
53814 Apr 20:41:12810.2 mph14SSW (206°)9974910190125.2°C67.5%18.8°C3233ft (985m)12.76v31
53714 Apr 20:41:01911.9 mph17SSW (202°)9975510190725.2°C67.5%18.8°C3233ft (985m)12.76v31
53614 Apr 20:40:50910.9 mph13SSW (203°)9975410190625.2°C67.4%18.7°C3243ft (988m)12.76v31
53514 Apr 20:40:391212.2 mph13SSW (202°)9975510190725.2°C67.4%18.7°C3243ft (988m)12.75v31
53414 Apr 20:40:271012.1 mph14SSW (207°)9976010191225.2°C67.4%18.7°C3243ft (988m)12.75v31
53314 Apr 20:40:16911.5 mph14SSW (213°)9975710190925.2°C67.3%18.7°C3253ft (992m)12.76v31
53214 Apr 20:40:05910.4 mph12SSW (196°)9975310190525.2°C67.4%18.7°C3243ft (988m)12.75v31
53114 Apr 20:39:541013.7 mph17SSW (203°)9975610190825.2°C67.4%18.7°C3243ft (988m)12.76v31
53014 Apr 20:39:421112.4 mph14SSW (194°)9975710190925.2°C67.4%18.7°C3243ft (988m)12.76v31
52914 Apr 20:39:31810 mph12SSW (199°)9975410190625.2°C67.5%18.8°C3233ft (985m)12.75v31
52814 Apr 20:39:201314.5 mph17SSW (206°)9975410190625.2°C67.5%18.8°C3233ft (985m)12.76v31
52714 Apr 20:39:091011.9 mph15SSW (212°)9975610190825.2°C67.4%18.7°C3243ft (988m)12.75v31
52614 Apr 20:38:571213.1 mph15SSW (192°)9974710189925.1°C67.6%18.7°C3221ft (982m)12.76v31
52514 Apr 20:38:461314.3 mph16SSW (203°)9975510190725.1°C67.5%18.7°C3231ft (985m)12.76v31
52414 Apr 20:38:351212.2 mph13SSW (209°)9976110191325.1°C67.4%18.6°C3241ft (988m)12.75v31
52314 Apr 20:38:24910.9 mph13SSW (208°)9975710190925.2°C67.3%18.7°C3253ft (992m)12.76v31
52214 Apr 20:38:1278.8 mph13SSW (192°)9975410190625.1°C67.7%18.7°C3212ft (979m)12.74v31
52114 Apr 20:38:011212.8 mph15S (185°)9975610190825.1°C67.6%18.7°C3221ft (982m)12.76v31
52014 Apr 20:37:501112.7 mph15SSW (206°)9975310190525.1°C67.6%18.7°C3221ft (982m)12.76v31
51914 Apr 20:37:39911.8 mph15SSW (203°)9974310189425.1°C67.5%18.7°C3231ft (985m)12.75v31
51814 Apr 20:37:271113.1 mph15SSW (209°)9975710190925.1°C67.6%18.7°C3221ft (982m)12.75v31
51714 Apr 20:37:1699.3 mph10SSW (200°)9976110191325.1°C67.7%18.7°C3212ft (979m)12.76v31
51614 Apr 20:37:05811.5 mph14SSW (205°)9975810191025.1°C67.6%18.7°C3221ft (982m)12.77v31
51514 Apr 20:36:541214.5 mph16SSW (205°)9975810191025.1°C67.6%18.7°C3221ft (982m)12.78v31
51414 Apr 20:36:42810.8 mph16SSW (205°)9975810191025.2°C67.4%18.7°C3243ft (988m)12.75v31
51314 Apr 20:36:31810.8 mph14S (186°)9975710190925.1°C67.5%18.7°C3231ft (985m)12.77v31
51214 Apr 20:36:2089.7 mph13SSW (204°)9975910191125.2°C67.4%18.7°C3243ft (988m)12.75v31
51114 Apr 20:36:091011.6 mph14SSW (208°)9975610190825.2°C67.5%18.8°C3233ft (985m)12.74v31
51014 Apr 20:35:571011 mph14SSW (206°)9975310190525.1°C67.6%18.7°C3221ft (982m)12.75v31
50914 Apr 20:35:461212.8 mph15SSW (203°)9975610190825.2°C67.6%18.8°C3223ft (982m)12.77v31
50814 Apr 20:35:351215 mph18SSW (210°)9975610190825.1°C67.5%18.7°C3231ft (985m)12.76v31
50714 Apr 20:35:241717.4 mph18SSW (202°)9975110190325.2°C67.4%18.7°C3243ft (988m)12.76v31
50614 Apr 20:35:121113.1 mph17SSW (203°)9976010191225.2°C67.2%18.7°C3262ft (994m)12.75v31
50514 Apr 20:35:011214.7 mph16SSW (196°)9975410190625.2°C67.2%18.7°C3262ft (994m)12.77v31
50414 Apr 20:34:50813 mph19SSW (203°)9975310190525.2°C67.2%18.7°C3262ft (994m)12.75v31
50314 Apr 20:34:391014.4 mph18S (190°)9975710190925.2°C67.2%18.7°C3262ft (994m)12.75v31
50214 Apr 20:34:27910.7 mph13SSW (207°)9975710190925.2°C67%18.6°C3282ft (1000m)12.75v31
50114 Apr 20:34:161111.6 mph13SSW (197°)9975610190825.2°C67.1%18.7°C3272ft (997m)12.75v31
50014 Apr 20:34:051010.5 mph12S (189°)9975910191125.2°C67.1%18.7°C3272ft (997m)12.75v31
49914 Apr 20:33:541012.1 mph14SSW (204°)9975910191125.2°C67.1%18.7°C3272ft (997m)12.76v31
49814 Apr 20:33:421214.8 mph17SSW (198°)9975910191125.2°C67.2%18.7°C3262ft (994m)12.77v31
49714 Apr 20:33:31913 mph17S (191°)9976010191225.2°C67.1%18.7°C3272ft (997m)12.76v31
49614 Apr 20:33:201114.1 mph17SSW (193°)9975310190525.2°C67.1%18.7°C3272ft (997m)12.77v31
49514 Apr 20:33:091112.1 mph16SSW (194°)9974310189425.3°C67%18.7°C3284ft (1001m)12.74v31
49414 Apr 20:32:5777.9 mph10SSW (204°)9975910191125.3°C67%18.7°C3284ft (1001m)12.75v31
49314 Apr 20:32:46810.1 mph12SSW (198°)9975410190625.2°C67.2%18.7°C3262ft (994m)12.74v31
49214 Apr 20:32:351112 mph13SSW (196°)9975210190425.2°C67.1%18.7°C3272ft (997m)12.76v31
49114 Apr 20:32:241111.3 mph13SSW (196°)9975410190625.2°C67.1%18.7°C3272ft (997m)12.77v31
49014 Apr 20:32:121011.5 mph13SSW (206°)9975510190725.2°C67.1%18.7°C3272ft (997m)12.76v31
48914 Apr 20:32:011515.9 mph17SSW (197°)9975310190525.2°C67.3%18.7°C3253ft (992m)12.77v31
48814 Apr 20:31:501516.1 mph18SSW (192°)9974410189525.2°C67.3%18.7°C3253ft (992m)12.75v31
48714 Apr 20:31:391314.4 mph17SSW (202°)9974510189725.2°C67.1%18.7°C3272ft (997m)12.75v31
48614 Apr 20:31:27912.7 mph15SSW (203°)9975410190625.2°C67.1%18.7°C3272ft (997m)12.75v31
48514 Apr 20:31:16810.2 mph13SSW (210°)9975410190625.2°C67%18.6°C3282ft (1000m)12.76v31
48414 Apr 20:31:051213.1 mph15SSW (211°)9975010190225.2°C67.1%18.7°C3272ft (997m)12.76v31
48314 Apr 20:30:54911 mph14SSW (200°)9975010190225.3°C67%18.7°C3284ft (1001m)12.77v31
48214 Apr 20:30:421010.3 mph13SSW (210°)9975510190725.3°C66.8%18.7°C3303ft (1007m)12.77v31
48114 Apr 20:30:3177.6 mph11SSW (195°)9975210190425.3°C67%18.7°C3284ft (1001m)12.76v31
48014 Apr 20:30:2078.9 mph14SSW (198°)9975510190725.3°C67.1%18.8°C3274ft (998m)12.77v31
47914 Apr 20:30:091112.5 mph15SSW (198°)9973910189025.3°C66.9%18.7°C3294ft (1004m)12.76v31
47814 Apr 20:29:571212.7 mph14SSW (192°)9975010190225.3°C67%18.7°C3284ft (1001m)12.76v31
47714 Apr 20:29:461213.7 mph15SSW (200°)9975410190625.3°C66.8%18.7°C3303ft (1007m)12.75v31
47614 Apr 20:29:351212.5 mph14SSW (196°)9975110190325.3°C66.8%18.7°C3303ft (1007m)12.76v31
47514 Apr 20:29:24810 mph12SSW (204°)9974410189525.3°C66.9%18.7°C3294ft (1004m)12.76v31
47414 Apr 20:29:12910.1 mph12SSW (213°)9974910190125.3°C66.9%18.7°C3294ft (1004m)12.77v31
47314 Apr 20:29:011113.5 mph17SSW (208°)9975110190325.3°C67%18.7°C3284ft (1001m)12.77v31
47214 Apr 20:28:501011.7 mph14SSW (207°)9974810190025.3°C66.9%18.7°C3294ft (1004m)12.76v31
47114 Apr 20:28:39710.4 mph12SSW (207°)9975210190425.3°C66.8%18.7°C3303ft (1007m)12.75v31
47014 Apr 20:28:271013.6 mph16SSW (198°)9975210190425.3°C66.8%18.7°C3303ft (1007m)12.75v31
46914 Apr 20:28:16910.2 mph14SSW (193°)9974610189825.3°C66.8%18.7°C3303ft (1007m)12.75v31
46814 Apr 20:28:05910.2 mph13SW (217°)9975110190325.3°C66.7%18.7°C3313ft (1010m)12.74v31
46714 Apr 20:27:54912.2 mph18SW (216°)9974910190125.3°C66.7%18.7°C3313ft (1010m)12.76v31
46614 Apr 20:27:421013.2 mph15SSW (205°)9974910190125.3°C66.8%18.7°C3303ft (1007m)12.77v31
46514 Apr 20:27:3178.6 mph10SSW (199°)9974710189925.3°C66.8%18.7°C3303ft (1007m)12.75v31
46414 Apr 20:27:20912.9 mph17SSW (203°)9975110190325.3°C66.8%18.7°C3303ft (1007m)12.75v31
46314 Apr 20:27:09810.2 mph11SSW (195°)9974910190125.3°C66.9%18.7°C3294ft (1004m)12.75v31
46214 Apr 20:26:571113.3 mph16SSW (196°)9974710189925.3°C66.8%18.7°C3303ft (1007m)12.75v31
46114 Apr 20:26:461515.7 mph17SSW (195°)9973710188825.3°C66.9%18.7°C3294ft (1004m)12.75v31
46014 Apr 20:26:35911.9 mph15SSW (200°)9973810188925.3°C66.7%18.7°C3313ft (1010m)12.76v31
45914 Apr 20:26:241011.7 mph14SSW (204°)9974610189825.3°C66.9%18.7°C3294ft (1004m)12.76v31
45814 Apr 20:26:121212.4 mph15SSW (192°)9974510189725.3°C66.7%18.7°C3313ft (1010m)12.77v31
45714 Apr 20:26:01911.2 mph15S (189°)9974310189425.3°C66.7%18.7°C3313ft (1010m)12.77v31
45614 Apr 20:25:501011 mph13SSW (199°)9974910190125.3°C66.8%18.7°C3303ft (1007m)12.77v31
45514 Apr 20:25:391112.1 mph14SSW (197°)9975010190225.3°C66.8%18.7°C3303ft (1007m)12.77v31
45414 Apr 20:25:271113.6 mph15SSW (197°)9974210189325.3°C66.9%18.7°C3294ft (1004m)12.76v31
45314 Apr 20:25:161112.6 mph17SSW (203°)9974210189325.3°C66.9%18.7°C3294ft (1004m)12.76v31
45214 Apr 20:25:051113.6 mph17SSW (198°)9974810190025.3°C66.8%18.7°C3303ft (1007m)12.75v31
45114 Apr 20:24:541313.7 mph15SSW (196°)9974710189925.3°C66.7%18.7°C3313ft (1010m)12.75v31
45014 Apr 20:24:421213.7 mph19SSW (197°)9975210190425.3°C66.6%18.6°C3323ft (1013m)12.77v31
44914 Apr 20:24:3178.6 mph10SSW (204°)9974610189825.3°C66.6%18.6°C3323ft (1013m)12.76v31
44814 Apr 20:24:2078.6 mph12SSW (208°)9975010190225.3°C66.8%18.7°C3303ft (1007m)12.76v31
44714 Apr 20:24:091213.4 mph14SW (214°)9974810190025.3°C66.8%18.7°C3303ft (1007m)12.76v31
44614 Apr 20:23:571213.6 mph15SSW (205°)9974610189825.3°C66.7%18.7°C3313ft (1010m)12.76v31
44514 Apr 20:23:461112.8 mph14SSW (202°)9974810190025.3°C66.8%18.7°C3303ft (1007m)12.75v31
44414 Apr 20:23:351111.9 mph13SSW (210°)9974710189925.3°C66.7%18.7°C3313ft (1010m)12.76v31
44314 Apr 20:23:241112.3 mph14SSW (198°)9974710189925.3°C66.6%18.6°C3323ft (1013m)12.77v31
44214 Apr 20:23:121313.6 mph16SSW (203°)9974710189925.3°C66.6%18.6°C3323ft (1013m)12.77v31
44114 Apr 20:23:011112.9 mph15SSW (203°)9974210189325.3°C66.7%18.7°C3313ft (1010m)12.77v31
44014 Apr 20:22:501212.7 mph15SSW (201°)9974110189225.3°C66.5%18.6°C3333ft (1016m)12.76v31
43914 Apr 20:22:391314.3 mph17SSW (194°)9974210189325.3°C66.4%18.6°C3343ft (1019m)12.76v31
43814 Apr 20:22:271113.4 mph17SSW (194°)9973610188725.4°C66.4%18.7°C3345ft (1020m)12.75v31
43714 Apr 20:22:161214.5 mph18SSW (206°)9974810190025.4°C66.4%18.7°C3345ft (1020m)12.76v31
43614 Apr 20:22:051212.7 mph16SSW (195°)9974010189125.4°C66.3%18.7°C3355ft (1023m)12.74v31
43514 Apr 20:21:541214.9 mph18SSW (206°)9973910189025.4°C66.5%18.7°C3335ft (1017m)12.76v31
43414 Apr 20:21:421516.3 mph18SSW (200°)9972810187925.4°C66.1%18.6°C3375ft (1029m)12.76v31
43314 Apr 20:21:31912.4 mph15SSW (200°)9973010188125.4°C66%18.6°C3384ft (1031m)12.77v31
43214 Apr 20:21:20109.9 mph12S (190°)9974110189225.4°C66.2%18.6°C3365ft (1026m)12.77v31
43114 Apr 20:21:0999.5 mph11SSW (209°)9974010189125.4°C66%18.6°C3384ft (1031m)12.76v31
43014 Apr 20:20:571011.9 mph15SSW (207°)9974610189825.4°C66%18.6°C3384ft (1031m)12.76v31
42914 Apr 20:20:461112.6 mph14SSW (200°)9974110189225.4°C66%18.6°C3384ft (1031m)12.75v31
42814 Apr 20:20:351012.3 mph14SSW (195°)9974410189525.4°C65.9%18.6°C3394ft (1034m)12.77v31
42714 Apr 20:20:241212.8 mph14SSW (206°)9973910189025.4°C66.2%18.6°C3365ft (1026m)12.75v31
42614 Apr 20:20:121010.9 mph13SSW (208°)9973910189025.4°C66.1%18.6°C3375ft (1029m)12.77v31
42514 Apr 20:20:011112.5 mph16SSW (200°)9973910189025.4°C66%18.6°C3384ft (1031m)12.76v31
42414 Apr 20:19:501011.3 mph13SSW (205°)9974310189425.4°C66%18.6°C3384ft (1031m)12.76v31
42314 Apr 20:19:391011.7 mph14SSW (202°)9974310189425.4°C66%18.6°C3384ft (1031m)12.76v31
42214 Apr 20:19:271213.3 mph15SSW (203°)9973410188525.4°C66.2%18.6°C3365ft (1026m)12.76v31
42114 Apr 20:19:161113.3 mph17SSW (205°)9973110188225.4°C66.1%18.6°C3375ft (1029m)12.75v31
42014 Apr 20:19:05811.8 mph17S (187°)9974910190125.4°C66.1%18.6°C3375ft (1029m)12.75v31
41914 Apr 20:18:54810.2 mph13SSW (202°)9974410189525.4°C66.1%18.6°C3375ft (1029m)12.75v31
41814 Apr 20:18:421213 mph16SSW (198°)9974010189125.4°C65.9%18.6°C3394ft (1034m)12.78v31
41714 Apr 20:18:31910.4 mph12SSW (198°)9973010188125.4°C66%18.6°C3384ft (1031m)12.78v31
41614 Apr 20:18:20810.4 mph14SW (216°)9974010189125.4°C66%18.6°C3384ft (1031m)12.77v31
41514 Apr 20:18:091114.2 mph16SSW (203°)9973510188625.4°C65.9%18.6°C3394ft (1034m)12.76v31
41414 Apr 20:17:571111.3 mph13SSW (201°)9973410188525.4°C65.9%18.6°C3394ft (1034m)12.76v31
41314 Apr 20:17:461010.9 mph14S (188°)9974110189225.4°C66.1%18.6°C3375ft (1029m)12.76v31
41214 Apr 20:17:351113.1 mph16SSW (204°)9973910189025.4°C66.2%18.6°C3365ft (1026m)12.75v31
41114 Apr 20:17:241012.3 mph15SSW (200°)9973110188225.4°C66.2%18.6°C3365ft (1026m)12.75v31
41014 Apr 20:17:12811.1 mph15SW (219°)9973810188925.3°C66.2%18.5°C3363ft (1025m)12.77v31
40914 Apr 20:17:01810.7 mph15SSW (193°)9973910189025.3°C66.4%18.6°C3343ft (1019m)12.77v31
40814 Apr 20:16:501012.2 mph17SSW (201°)9973410188525.3°C66.3%18.6°C3353ft (1022m)12.77v31
40714 Apr 20:16:391214.9 mph17SSW (208°)9973310188425.3°C66.3%18.6°C3353ft (1022m)12.76v31
40614 Apr 20:16:271316 mph18SSW (196°)9974110189225.3°C66%18.5°C3382ft (1031m)12.78v31
40514 Apr 20:16:161114.1 mph16S (187°)9974110189225.4°C66.2%18.6°C3365ft (1026m)12.75v31
40414 Apr 20:16:051215.4 mph20SSW (208°)9973410188525.4°C66.1%18.6°C3375ft (1029m)12.77v31
40314 Apr 20:15:54911.3 mph15SSW (204°)9971710186825.4°C66.1%18.6°C3375ft (1029m)12.76v31
40214 Apr 20:15:421313.6 mph15S (190°)9973110188225.4°C65.9%18.6°C3394ft (1034m)12.76v31
40114 Apr 20:15:311113.4 mph16SSW (199°)9973810188925.4°C65.9%18.6°C3394ft (1034m)12.77v31
40014 Apr 20:15:2099.4 mph11SSW (198°)9973210188325.4°C66.1%18.6°C3375ft (1029m)12.76v31
39914 Apr 20:15:091315.1 mph17SSW (203°)9973210188325.4°C66.1%18.6°C3375ft (1029m)12.75v31
39814 Apr 20:14:571213.6 mph16SSW (210°)9972810187925.4°C66.1%18.6°C3375ft (1029m)12.76v31
39714 Apr 20:14:461516.1 mph18SSW (202°)9973510188625.4°C66.1%18.6°C3375ft (1029m)12.76v31
39614 Apr 20:14:351517.2 mph20SSW (199°)9972910188025.4°C66%18.6°C3384ft (1031m)12.76v31
39514 Apr 20:14:241313.5 mph16SSW (198°)9973410188525.4°C66%18.6°C3384ft (1031m)12.77v31
39414 Apr 20:14:121113.3 mph16SSW (204°)9973110188225.4°C66%18.6°C3384ft (1031m)12.76v31
39314 Apr 20:14:011415.6 mph18S (181°)9973410188525.4°C66%18.6°C3384ft (1031m)12.77v31
39214 Apr 20:13:501414.3 mph16S (189°)9973010188125.4°C66%18.6°C3384ft (1031m)12.78v31
39114 Apr 20:13:391013.3 mph17SSW (197°)9973110188225.4°C65.9%18.6°C3394ft (1034m)12.76v31
39014 Apr 20:13:271014.5 mph17SSW (198°)9972410187525.4°C65.9%18.6°C3394ft (1034m)12.76v31
38914 Apr 20:13:161213.3 mph16SSW (209°)9974010189125.4°C65.7%18.5°C3414ft (1041m)12.77v31
38814 Apr 20:13:051212.4 mph14SSW (194°)9974210189325.4°C65.8%18.5°C3404ft (1038m)12.75v31
38714 Apr 20:12:541012.5 mph17SSW (199°)9973310188425.4°C65.7%18.5°C3414ft (1041m)12.76v31
38614 Apr 20:12:421215.6 mph18SSW (199°)9972310187425.4°C65.8%18.5°C3404ft (1038m)12.75v31
38514 Apr 20:12:311214.1 mph17S (187°)9973210188325.4°C65.9%18.6°C3394ft (1034m)12.77v31
38414 Apr 20:12:201214.5 mph18SSW (197°)9973510188625.4°C65.9%18.6°C3394ft (1034m)12.77v31
38314 Apr 20:12:091214.4 mph18SSW (196°)9972410187525.4°C66%18.6°C3384ft (1031m)12.76v31
38214 Apr 20:11:571417.3 mph22SSW (203°)9974110189225.4°C66%18.6°C3384ft (1031m)12.77v31
38114 Apr 20:11:461015.4 mph22SSW (201°)9972510187625.4°C65.8%18.5°C3404ft (1038m)12.76v31
38014 Apr 20:11:351214.3 mph17SSW (195°)9974110189225.4°C65.9%18.6°C3394ft (1034m)12.77v31
37914 Apr 20:11:241315.2 mph18SSW (200°)9974110189225.4°C65.7%18.5°C3414ft (1041m)12.76v31
37814 Apr 20:11:121113.4 mph16SSW (199°)9971810186925.4°C65.7%18.5°C3414ft (1041m)12.77v31
37714 Apr 20:11:011517.7 mph21S (190°)9973910189025.4°C65.8%18.5°C3404ft (1038m)12.78v31
37614 Apr 20:10:501213.5 mph16S (188°)9973710188825.4°C65.5%18.5°C3434ft (1047m)12.78v31
37514 Apr 20:10:39911.9 mph15SSW (194°)9974010189125.4°C65.7%18.5°C3414ft (1041m)12.78v31
37414 Apr 20:10:271415.6 mph19SSW (194°)9973110188225.4°C65.7%18.5°C3414ft (1041m)12.76v31
37314 Apr 20:10:161415.1 mph18SSW (193°)9973210188325.4°C65.4%18.4°C3444ft (1050m)12.76v31
37214 Apr 20:10:051213.1 mph16SSW (206°)9973410188525.4°C65.4%18.4°C3444ft (1050m)12.76v31
37114 Apr 20:09:541112.8 mph14SSW (194°)9973710188825.4°C65.5%18.5°C3434ft (1047m)12.76v31
37014 Apr 20:09:421112.8 mph17SSW (200°)9973010188125.4°C65.4%18.4°C3444ft (1050m)12.76v31
36914 Apr 20:09:31810.8 mph14SSW (210°)9973410188525.4°C65.6%18.5°C3424ft (1044m)12.77v31
36814 Apr 20:09:201213.9 mph18S (187°)9972510187625.4°C65.6%18.5°C3424ft (1044m)12.77v31
36714 Apr 20:09:091112.2 mph14SSW (193°)9974110189225.4°C65.5%18.5°C3434ft (1047m)12.77v31
36614 Apr 20:08:571214.4 mph19S (190°)9974310189425.4°C65.5%18.5°C3434ft (1047m)12.76v31
36514 Apr 20:08:461114.2 mph16SSW (193°)9972510187625.4°C65.4%18.4°C3444ft (1050m)12.77v31
36414 Apr 20:08:351112.9 mph15SSW (208°)9973910189025.4°C65.3%18.4°C3454ft (1053m)12.77v31
36314 Apr 20:08:241212.8 mph14SSW (209°)9974010189125.5°C65.2%18.5°C3466ft (1056m)12.77v31
36214 Apr 20:08:121213 mph15SSW (198°)9973910189025.4°C65.3%18.4°C3454ft (1053m)12.77v31
36114 Apr 20:08:01910.2 mph12S (188°)9973810188925.4°C65.4%18.4°C3444ft (1050m)12.76v31
36014 Apr 20:07:501314.3 mph17SSW (202°)9973610188725.4°C65.4%18.4°C3444ft (1050m)12.77v31
35914 Apr 20:07:391314.5 mph17S (191°)9973410188525.4°C65.4%18.4°C3444ft (1050m)12.78v31
35814 Apr 20:07:271214.9 mph18SSW (202°)9973010188125.4°C65.4%18.4°C3444ft (1050m)12.76v31
35714 Apr 20:07:16913.1 mph17SSW (194°)9974210189325.4°C65.3%18.4°C3454ft (1053m)12.76v31
35614 Apr 20:07:051010.8 mph13SSW (209°)9973410188525.5°C65.3%18.5°C3456ft (1053m)12.77v31
35514 Apr 20:06:541314.5 mph19SSW (193°)9974010189125.4°C65.3%18.4°C3454ft (1053m)12.75v31
35414 Apr 20:06:421416.8 mph19SSW (196°)9973610188725.5°C65.2%18.5°C3466ft (1056m)12.76v31
35314 Apr 20:06:311217.4 mph22SSW (199°)9973210188325.5°C65.2%18.5°C3466ft (1056m)12.77v31
35214 Apr 20:06:201414 mph16SSW (203°)9973710188825.5°C65%18.4°C3487ft (1063m)12.76v31
35114 Apr 20:06:091415.3 mph16SSW (212°)9973510188625.5°C65%18.4°C3487ft (1063m)12.78v31
35014 Apr 20:05:571114.8 mph18SSW (194°)9972910188025.5°C64.9%18.4°C3497ft (1066m)12.77v31
34914 Apr 20:05:461213.9 mph16SSW (200°)9973610188725.5°C64.8%18.4°C3507ft (1069m)12.77v31
34814 Apr 20:05:351213.4 mph15SSW (198°)9973810188925.5°C64.9%18.4°C3497ft (1066m)12.76v31
34714 Apr 20:05:241415 mph16SSW (203°)9974010189125.5°C64.8%18.4°C3507ft (1069m)12.75v31
34614 Apr 20:05:121213.9 mph16SSW (197°)9974610189825.5°C64.7%18.4°C3517ft (1072m)12.76v31
34514 Apr 20:05:01811.4 mph14SSW (196°)9974310189425.5°C64.6%18.3°C3527ft (1075m)12.77v31
34414 Apr 20:04:5079.8 mph13SSW (204°)9974410189525.5°C64.6%18.3°C3527ft (1075m)12.77v31
34314 Apr 20:04:391214.2 mph16SSW (195°)9973410188525.5°C64.7%18.4°C3517ft (1072m)12.77v31
34214 Apr 20:04:27812.6 mph17SSW (194°)9973610188725.5°C64.6%18.3°C3527ft (1075m)12.76v31
34114 Apr 20:04:161111.6 mph14SSW (196°)9974110189225.5°C64.7%18.4°C3517ft (1072m)12.76v31
34014 Apr 20:04:051316 mph19SSW (193°)9973510188625.5°C64.5%18.3°C3537ft (1078m)12.76v31
33914 Apr 20:03:54911.6 mph17SSW (208°)9973810188925.5°C64.5%18.3°C3537ft (1078m)12.75v31
33814 Apr 20:03:421011.7 mph13SSW (205°)9973710188825.5°C64.5%18.3°C3537ft (1078m)12.76v31
33714 Apr 20:03:311414.2 mph15SSW (196°)9973910189025.5°C64.4%18.3°C3547ft (1081m)12.77v31
33614 Apr 20:03:201414.4 mph16SSW (207°)9973510188625.6°C64.3%18.4°C3560ft (1085m)12.78v31
33514 Apr 20:03:091214.8 mph19SSW (197°)9973910189025.6°C64.2%18.3°C3570ft (1088m)12.78v31
33414 Apr 20:02:571012 mph15SSW (212°)9972310187425.6°C64.2%18.3°C3570ft (1088m)12.77v31
33314 Apr 20:02:4699.2 mph10SSW (204°)9974010189125.6°C64%18.3°C3590ft (1094m)12.78v31
33214 Apr 20:02:3588.9 mph10SSW (199°)9973910189025.6°C64.3%18.4°C3560ft (1085m)12.77v31
33114 Apr 20:02:2479.5 mph12S (191°)9974210189325.6°C64.1%18.3°C3580ft (1091m)12.77v31
33014 Apr 20:02:1279 mph12SSW (207°)9974410189525.6°C64.3%18.4°C3560ft (1085m)12.76v31
32914 Apr 20:02:011213.2 mph14SSW (203°)9974010189125.6°C64.2%18.3°C3570ft (1088m)12.77v31
32814 Apr 20:01:501010.6 mph12SSW (201°)9974010189125.6°C64%18.3°C3590ft (1094m)12.76v31
32714 Apr 20:01:39911.6 mph15SSW (200°)9974110189225.6°C64.1%18.3°C3580ft (1091m)12.77v31
32614 Apr 20:01:271314.5 mph16SSW (200°)9973310188425.6°C64.1%18.3°C3580ft (1091m)12.77v31
32514 Apr 20:01:161014.5 mph20SSW (201°)9973010188125.6°C64.1%18.3°C3580ft (1091m)12.77v31
32414 Apr 20:01:051112.9 mph14S (190°)9973810188925.6°C63.9%18.3°C3600ft (1097m)12.77v31
32314 Apr 20:00:541112.4 mph14SSW (208°)9973610188725.6°C63.8%18.2°C3611ft (1101m)12.76v31
32214 Apr 20:00:4278.8 mph11SSW (196°)9973910189025.6°C64%18.3°C3590ft (1094m)12.77v31
32114 Apr 20:00:3189.9 mph11SSW (197°)9973810188925.6°C63.9%18.3°C3600ft (1097m)12.77v31
32014 Apr 20:00:20910.5 mph13SSW (207°)9974510189725.6°C63.9%18.3°C3600ft (1097m)12.76v31
31914 Apr 20:00:09810.1 mph14SSW (202°)9974410189525.6°C63.9%18.3°C3600ft (1097m)12.77v31
31814 Apr 19:59:5789.7 mph12SSW (211°)9974310189425.6°C64.1%18.3°C3580ft (1091m)12.77v31
31714 Apr 19:59:46710.3 mph14SSW (211°)9973810188925.5°C64.1%18.2°C3578ft (1091m)12.77v31
31614 Apr 19:59:351516.5 mph18SSW (193°)9972710187825.5°C64.1%18.2°C3578ft (1091m)12.77v31
31514 Apr 19:59:24913.3 mph16S (185°)9973810188925.6°C64.1%18.3°C3580ft (1091m)12.76v31
31414 Apr 19:59:121013.1 mph15SSW (208°)9974510189725.6°C64.1%18.3°C3580ft (1091m)12.77v31
31314 Apr 19:59:011113.3 mph16SSW (206°)9973410188525.6°C64%18.3°C3590ft (1094m)12.75v31
31214 Apr 19:58:5088.6 mph9SSW (207°)9974410189525.5°C64%18.2°C3588ft (1094m)12.77v31
31114 Apr 19:58:391113.5 mph17SSW (199°)9973710188825.5°C64%18.2°C3588ft (1094m)12.77v31
31014 Apr 19:58:271213.6 mph16SSW (196°)9973310188425.5°C64.1%18.2°C3578ft (1091m)12.77v31
30914 Apr 19:58:161213.3 mph14SSW (207°)9974110189225.5°C64.1%18.2°C3578ft (1091m)12.76v31
30814 Apr 19:58:051012.7 mph16SSW (199°)9973910189025.5°C64%18.2°C3588ft (1094m)12.76v31
30714 Apr 19:57:541515.2 mph16SSW (197°)9974510189725.6°C64%18.3°C3590ft (1094m)12.78v31
30614 Apr 19:57:421315.8 mph18SSW (201°)9972910188025.6°C63.9%18.3°C3600ft (1097m)12.76v31
30514 Apr 19:57:31911 mph14SSW (194°)9973910189025.6°C63.8%18.2°C3611ft (1101m)12.77v31
30414 Apr 19:57:201011.2 mph13SSW (201°)9973910189025.6°C63.8%18.2°C3611ft (1101m)12.76v31
30314 Apr 19:57:091313.9 mph15SSW (197°)9973410188525.6°C63.7%18.2°C3621ft (1104m)12.78v31
30214 Apr 19:56:571012.6 mph15SSW (212°)9974110189225.6°C63.6%18.2°C3631ft (1107m)12.78v31
30114 Apr 19:56:461010.8 mph13SSW (204°)9973910189025.6°C63.6%18.2°C3631ft (1107m)12.77v31
30014 Apr 19:56:3599.8 mph12SSW (208°)9973910189025.5°C63.9%18.2°C3598ft (1097m)12.77v31
29914 Apr 19:56:241013.8 mph16SSW (192°)9973610188725.5°C63.8%18.1°C3608ft (1100m)12.77v31
29814 Apr 19:56:121012.4 mph16SSW (205°)9973410188525.6°C63.8%18.2°C3611ft (1101m)12.76v31
29714 Apr 19:56:011616.5 mph17SSW (199°)9973010188125.6°C63.8%18.2°C3611ft (1101m)12.77v31
29614 Apr 19:55:501113.9 mph17SSW (195°)9972110187225.6°C63.6%18.2°C3631ft (1107m)12.77v31
29514 Apr 19:55:391314.7 mph18SSW (209°)9973810188925.5°C63.6%18.1°C3629ft (1106m)12.76v31
29414 Apr 19:55:271317.2 mph22S (189°)9973210188325.6°C63.6%18.2°C3631ft (1107m)12.76v31
29314 Apr 19:55:161417.2 mph21S (187°)9973210188325.5°C63.7%18.1°C3619ft (1103m)12.77v31
29214 Apr 19:55:051616.7 mph19S (188°)9972910188025.5°C63.7%18.1°C3619ft (1103m)12.77v31
29114 Apr 19:54:541214.6 mph18SSW (205°)9973310188425.5°C63.7%18.1°C3619ft (1103m)12.77v31
29014 Apr 19:54:421414.8 mph16S (177°)9973010188125.5°C63.6%18.1°C3629ft (1106m)12.77v31
28914 Apr 19:54:311114.5 mph17SSW (197°)9973910189025.5°C63.6%18.1°C3629ft (1106m)12.77v31
28814 Apr 19:54:201214.5 mph17S (191°)9973810188925.5°C63.6%18.1°C3629ft (1106m)12.77v31
28714 Apr 19:54:091313.4 mph15SSW (196°)9973410188525.5°C63.6%18.1°C3629ft (1106m)12.77v31
28614 Apr 19:53:57910.4 mph12SSW (210°)9974110189225.5°C63.5%18.1°C3639ft (1109m)12.77v31
28514 Apr 19:53:46912.2 mph14SSW (205°)9974010189125.6°C63.5%18.2°C3641ft (1110m)12.77v31
28414 Apr 19:53:351515.5 mph17S (182°)9973710188825.5°C63.5%18.1°C3639ft (1109m)12.77v31
28314 Apr 19:53:241013 mph17SSW (193°)9973310188425.6°C63.4%18.1°C3652ft (1113m)12.77v31
28214 Apr 19:53:12911.4 mph15SSW (202°)9973110188225.6°C63.3%18.1°C3662ft (1116m)12.77v31
28114 Apr 19:53:011111.9 mph15SSW (208°)9973410188525.6°C63.3%18.1°C3662ft (1116m)12.77v31
28014 Apr 19:52:501011.9 mph15SSW (203°)9973210188325.6°C63.3%18.1°C3662ft (1116m)12.77v31
27914 Apr 19:52:391213.8 mph17SSW (199°)9973210188325.6°C63.2%18.1°C3672ft (1119m)12.77v31
27814 Apr 19:52:271516.3 mph17SSW (204°)9972410187525.6°C63.2%18.1°C3672ft (1119m)12.79v31
27714 Apr 19:52:16910.7 mph14SW (215°)9973010188125.6°C63%18°C3693ft (1126m)12.78v31
27614 Apr 19:52:0599.1 mph11SSW (208°)9973610188725.6°C63%18°C3693ft (1126m)12.78v31
27514 Apr 19:51:541416.9 mph19S (191°)9973010188125.6°C63%18°C3693ft (1126m)12.77v31
27414 Apr 19:51:421415.5 mph18S (190°)9972010187125.6°C62.9%18°C3703ft (1129m)12.77v31
27314 Apr 19:51:311012.5 mph14S (190°)9972210187325.6°C62.8%18°C3714ft (1132m)12.78v31
27214 Apr 19:51:201011.6 mph14SSW (209°)9973310188425.6°C62.7%18°C3724ft (1135m)12.76v31
27114 Apr 19:51:0999.6 mph12SSW (203°)9973510188625.6°C62.8%18°C3714ft (1132m)12.78v31
27014 Apr 19:50:571011.7 mph15SSW (209°)9973310188425.6°C62.8%18°C3714ft (1132m)12.78v31
26914 Apr 19:50:461011.7 mph13SSW (199°)9973610188725.6°C62.8%18°C3714ft (1132m)12.78v31
26814 Apr 19:50:35810.7 mph14SSW (203°)9973510188625.6°C62.8%18°C3714ft (1132m)12.78v31
26714 Apr 19:50:24911.2 mph14SW (217°)9973410188525.6°C62.9%18°C3703ft (1129m)12.77v31
26614 Apr 19:50:121111.6 mph13SSW (206°)9973010188125.6°C62.8%18°C3714ft (1132m)12.77v31
26514 Apr 19:50:011012 mph13SW (214°)9972810187925.6°C63%18°C3693ft (1126m)12.77v31
26414 Apr 19:49:501111.4 mph14SSW (200°)9973510188625.5°C63%17.9°C3691ft (1125m)12.77v31
26314 Apr 19:49:39811.1 mph16SSW (199°)9972810187925.5°C63%17.9°C3691ft (1125m)12.77v31
26214 Apr 19:49:271010.4 mph12SSW (203°)9973410188525.5°C63.1%18°C3680ft (1122m)12.78v31
26114 Apr 19:49:161213.6 mph16SSW (210°)9973310188425.6°C63%18°C3693ft (1126m)12.78v31
26014 Apr 19:49:051012.8 mph15SSW (205°)9972110187225.6°C62.9%18°C3703ft (1129m)12.77v31
25914 Apr 19:48:54911.6 mph15SSW (210°)9973110188225.6°C62.8%18°C3714ft (1132m)12.78v31
25814 Apr 19:48:421313.6 mph14SSW (196°)9972910188025.6°C62.9%18°C3703ft (1129m)12.76v31
25714 Apr 19:48:311112 mph14SSW (205°)9973210188325.5°C62.9%17.9°C3701ft (1128m)12.77v31
25614 Apr 19:48:201416.1 mph18SSW (197°)9973610188725.6°C62.8%18°C3714ft (1132m)12.76v31
25514 Apr 19:48:091415.1 mph19SSW (193°)9972610187725.6°C62.6%17.9°C3735ft (1138m)12.77v31
25414 Apr 19:47:571718.1 mph20SSW (194°)9972510187625.6°C62.6%17.9°C3735ft (1138m)12.78v31
25314 Apr 19:47:461112.6 mph16SSW (194°)9973910189025.6°C62.5%17.9°C3745ft (1141m)12.78v31
25214 Apr 19:47:351415.2 mph18SSW (205°)9972210187325.6°C62.5%17.9°C3745ft (1141m)12.78v31
25114 Apr 19:47:241114.4 mph18SSW (203°)9973110188225.6°C62.4%17.9°C3755ft (1145m)12.78v31
25014 Apr 19:47:12910.4 mph14SSW (192°)9973110188225.6°C62.4%17.9°C3755ft (1145m)12.78v31
24914 Apr 19:47:011214.9 mph19SSW (193°)9972610187725.6°C62.4%17.9°C3755ft (1145m)12.76v31
24814 Apr 19:46:501012.1 mph14SSW (192°)9973010188125.6°C62.4%17.9°C3755ft (1145m)12.77v31
24714 Apr 19:46:39911 mph13SSW (201°)9972510187625.6°C62.5%17.9°C3745ft (1141m)12.76v31
24614 Apr 19:46:271214.4 mph18SSW (199°)9972810187925.6°C62.4%17.9°C3755ft (1145m)12.77v31
24514 Apr 19:46:161314.3 mph17SSW (199°)9972810187925.6°C62.2%17.8°C3776ft (1151m)12.78v31
24414 Apr 19:46:051213.3 mph16SSW (196°)9972810187925.6°C62.2%17.8°C3776ft (1151m)12.78v31
24314 Apr 19:45:541113.2 mph16SSW (199°)9971810186925.6°C62.1%17.8°C3787ft (1154m)12.77v31
24214 Apr 19:45:421011.9 mph15SSW (208°)9973010188125.6°C62.1%17.8°C3787ft (1154m)12.76v31
24114 Apr 19:45:311112.7 mph15SSW (202°)9972810187925.6°C62%17.8°C3797ft (1157m)12.77v31
24014 Apr 19:45:20910.9 mph14SSW (193°)9972510187625.6°C62%17.8°C3797ft (1157m)12.75v31
23914 Apr 19:45:091213.8 mph16SSW (198°)9972510187625.6°C62%17.8°C3797ft (1157m)12.77v31
23814 Apr 19:44:571316.8 mph20S (189°)9972710187825.6°C62%17.8°C3797ft (1157m)12.78v31
23714 Apr 19:44:461314.3 mph17S (190°)9972210187325.6°C61.9%17.8°C3808ft (1161m)12.79v31
23614 Apr 19:44:35912.4 mph17SSW (194°)9971110186225.6°C61.8%17.7°C3818ft (1164m)12.78v31
23514 Apr 19:44:24812.5 mph15SSW (204°)9972210187325.6°C62%17.8°C3797ft (1157m)12.77v31
23414 Apr 19:44:12911.1 mph14SSW (199°)9972310187425.6°C61.8%17.7°C3818ft (1164m)12.77v31
23314 Apr 19:44:011213.3 mph16SSW (199°)9971010186125.6°C61.9%17.8°C3808ft (1161m)12.77v31
23214 Apr 19:43:501012.6 mph16SSW (193°)9972710187825.6°C61.9%17.8°C3808ft (1161m)12.77v31
23114 Apr 19:43:39912.4 mph17SSW (204°)9971310186425.7°C61.4%17.7°C3863ft (1177m)12.78v31
23014 Apr 19:43:2789.8 mph12SSW (204°)9972510187625.7°C61.6%17.8°C3842ft (1171m)12.78v31
22914 Apr 19:43:16911.3 mph14SSW (206°)9972410187525.6°C61.6%17.7°C3839ft (1170m)12.79v31
22814 Apr 19:43:05810.1 mph13SSW (213°)9972810187925.7°C61.5%17.7°C3852ft (1174m)12.78v31
22714 Apr 19:42:54911.7 mph15SSW (200°)9971810186925.6°C61.5%17.6°C3850ft (1173m)12.78v31
22614 Apr 19:42:42810.9 mph13SSW (201°)9972510187625.6°C61.6%17.7°C3839ft (1170m)12.78v31
22514 Apr 19:42:311012.5 mph14S (190°)9972710187825.6°C61.4%17.6°C3861ft (1177m)12.77v31
22414 Apr 19:42:201212.7 mph16SSW (197°)9972310187425.6°C61.4%17.6°C3861ft (1177m)12.77v31
22314 Apr 19:42:091113.2 mph15S (183°)9972510187625.6°C61.5%17.6°C3850ft (1173m)12.77v31
22214 Apr 19:41:57911.8 mph14SSW (193°)9972810187925.6°C61.5%17.6°C3850ft (1173m)12.76v31
22114 Apr 19:41:461314.8 mph17SSW (195°)9971410186525.6°C61.6%17.7°C3839ft (1170m)12.79v31
22014 Apr 19:41:351414.6 mph16SSW (198°)9971710186825.6°C61.4%17.6°C3861ft (1177m)12.78v31
21914 Apr 19:41:241315 mph21S (188°)9970710185825.6°C61.3%17.6°C3871ft (1180m)12.78v31
21814 Apr 19:41:121216 mph21SSW (196°)9970410185525.7°C61.2%17.7°C3884ft (1184m)12.78v31
21714 Apr 19:41:011114.3 mph18SSW (200°)9972010187125.7°C61.2%17.7°C3884ft (1184m)12.78v31
21614 Apr 19:40:501111.8 mph13S (188°)9972310187425.7°C61%17.6°C3905ft (1190m)12.78v31
21514 Apr 19:40:391212.9 mph14SSW (193°)9971810186925.6°C61.1%17.5°C3892ft (1186m)12.76v31
21414 Apr 19:40:271313.7 mph16SSW (192°)9972010187125.7°C61%17.6°C3905ft (1190m)12.77v31
21314 Apr 19:40:161516.6 mph18SSW (202°)9972210187325.6°C61%17.5°C3903ft (1190m)12.78v31
21214 Apr 19:40:05910.4 mph13SSW (198°)9972110187225.6°C60.9%17.5°C3914ft (1193m)12.77v31
21114 Apr 19:39:54812.5 mph19SSW (194°)9971810186925.6°C61%17.5°C3903ft (1190m)12.78v31
21014 Apr 19:39:42910.2 mph15SSW (204°)9972410187525.7°C60.7%17.5°C3938ft (1200m)12.78v31
20914 Apr 19:39:31911.3 mph16SSW (200°)9971910187025.7°C60.7%17.5°C3938ft (1200m)12.78v31
20814 Apr 19:39:201212.2 mph13SSW (203°)9972010187125.7°C60.7%17.5°C3938ft (1200m)12.78v31
20714 Apr 19:39:091012.1 mph15SSW (202°)9972010187125.7°C60.5%17.5°C3959ft (1207m)12.77v31
20614 Apr 19:38:5799.6 mph11SSW (211°)9972310187425.7°C60.6%17.5°C3948ft (1203m)12.77v31
20514 Apr 19:38:461010.9 mph12SSW (201°)9972210187325.7°C60.6%17.5°C3948ft (1203m)12.78v31
20414 Apr 19:38:351112.1 mph13SSW (209°)9972110187225.7°C60.5%17.5°C3959ft (1207m)12.78v31
20314 Apr 19:38:241112.4 mph15SSW (212°)9972110187225.7°C60.4%17.5°C3970ft (1210m)12.79v31
20214 Apr 19:38:121112.6 mph15SSW (202°)9972110187225.7°C60.3%17.4°C3980ft (1213m)12.78v31
20114 Apr 19:38:0199.4 mph13SSW (202°)9972110187225.7°C60.3%17.4°C3980ft (1213m)12.78v31
20014 Apr 19:37:501011.6 mph13S (188°)9971110186225.7°C60.2%17.4°C3991ft (1216m)12.77v31
19914 Apr 19:37:391314.7 mph17SSW (198°)9971610186725.7°C60.3%17.4°C3980ft (1213m)12.77v31
19814 Apr 19:37:27910.8 mph15SSW (207°)9971710186825.7°C60.2%17.4°C3991ft (1216m)12.78v31
19714 Apr 19:37:161213.2 mph15SSW (205°)9972310187425.7°C60.2%17.4°C3991ft (1216m)12.77v31
19614 Apr 19:37:051313.5 mph15SSW (197°)9971810186925.7°C60.2%17.4°C3991ft (1216m)12.78v31
19514 Apr 19:36:541012.5 mph17SSW (194°)9970610185725.7°C60.2%17.4°C3991ft (1216m)12.78v31
19414 Apr 19:36:4289.2 mph11SSW (209°)9971210186325.7°C60.2%17.4°C3991ft (1216m)12.78v31
19314 Apr 19:36:311112 mph14SSW (204°)9971210186325.7°C60.2%17.4°C3991ft (1216m)12.78v31
19214 Apr 19:36:201010.9 mph12SSW (208°)9971910187025.7°C60%17.4°C4013ft (1223m)12.77v31
19114 Apr 19:36:091113.2 mph15SSW (199°)9971010186125.7°C60%17.4°C4013ft (1223m)12.78v31
19014 Apr 19:35:571112 mph14SSW (207°)9971710186825.7°C60.1%17.4°C4002ft (1220m)12.79v31
18914 Apr 19:35:461414 mph16S (191°)9971810186925.7°C60.1%17.4°C4002ft (1220m)12.78v31
18814 Apr 19:35:351114.5 mph18SSW (196°)9971610186725.7°C60%17.4°C4013ft (1223m)12.79v31
18714 Apr 19:35:241212.2 mph16SSW (200°)9972110187225.7°C59.9%17.3°C4024ft (1227m)12.79v31
18614 Apr 19:35:121314.4 mph16SSW (203°)9971210186325.7°C60%17.4°C4013ft (1223m)12.78v31
18514 Apr 19:35:011516.9 mph20SSW (193°)9971410186525.7°C60.1%17.4°C4002ft (1220m)12.79v31
18414 Apr 19:34:501414.9 mph17S (190°)9971110186225.7°C59.9%17.3°C4024ft (1227m)12.79v31
18314 Apr 19:34:391011.6 mph15SSW (204°)9971310186425.7°C59.8%17.3°C4034ft (1230m)12.77v31
18214 Apr 19:34:271112.6 mph15SSW (197°)9971610186725.7°C59.9%17.3°C4024ft (1227m)12.77v31
18114 Apr 19:34:161111.3 mph13SW (217°)9971510186625.7°C59.8%17.3°C4034ft (1230m)12.77v31
18014 Apr 19:34:051112.4 mph15SSW (198°)9971210186325.7°C59.8%17.3°C4034ft (1230m)12.78v31
17914 Apr 19:33:541011.3 mph13SSW (200°)9971010186125.7°C59.8%17.3°C4034ft (1230m)12.77v31
17814 Apr 19:33:421011.3 mph13SSW (197°)9971410186525.7°C59.7%17.3°C4045ft (1233m)12.79v31
17714 Apr 19:33:311213.5 mph18SSW (207°)9971310186425.7°C59.7%17.3°C4045ft (1233m)12.78v31
17614 Apr 19:33:201415.3 mph17SSW (194°)9971210186325.7°C59.7%17.3°C4045ft (1233m)12.77v31
17514 Apr 19:33:091213.4 mph16SSW (195°)9970610185725.7°C59.6%17.2°C4056ft (1236m)12.77v31
17414 Apr 19:32:571313.7 mph16SSW (193°)9971810186925.7°C59.7%17.3°C4045ft (1233m)12.78v31
17314 Apr 19:32:461516.9 mph19SSW (195°)9970810185925.7°C59.7%17.3°C4045ft (1233m)12.77v31
17214 Apr 19:32:351010.8 mph15SW (218°)9971510186625.7°C59.6%17.2°C4056ft (1236m)12.78v31
17114 Apr 19:32:241111.7 mph13SSW (197°)9971110186225.7°C59.7%17.3°C4045ft (1233m)12.78v31
17014 Apr 19:32:121012.8 mph15SSW (203°)9971010186125.7°C59.7%17.3°C4045ft (1233m)12.79v31
16914 Apr 19:32:011314.3 mph16S (191°)9970410185525.7°C59.7%17.3°C4045ft (1233m)12.79v31
16814 Apr 19:31:501617 mph18SSW (195°)9970610185725.7°C59.7%17.3°C4045ft (1233m)12.79v31
16714 Apr 19:31:391415.4 mph17SSW (203°)9969910185025.7°C59.6%17.2°C4056ft (1236m)12.77v31
16614 Apr 19:31:271112.6 mph18SSW (204°)9970410185525.7°C59.5%17.2°C4067ft (1240m)12.77v31
16514 Apr 19:31:161314 mph15S (190°)9970810185925.7°C59.5%17.2°C4067ft (1240m)12.77v31
16414 Apr 19:31:05910.9 mph14SSW (207°)9970710185825.7°C59.5%17.2°C4067ft (1240m)12.78v31
16314 Apr 19:30:5469.2 mph13SSW (209°)9971110186225.7°C59.5%17.2°C4067ft (1240m)12.8v31
16214 Apr 19:30:421112.5 mph16SSW (204°)9971010186125.7°C59.5%17.2°C4067ft (1240m)12.79v31
16114 Apr 19:30:311012.9 mph17S (188°)9971010186125.7°C59.4%17.2°C4078ft (1243m)12.79v31
16014 Apr 19:30:2088.9 mph12SSW (199°)9970810185925.7°C59.5%17.2°C4067ft (1240m)12.78v31
15914 Apr 19:30:091214.8 mph19SSW (203°)9970310185425.7°C59.5%17.2°C4067ft (1240m)12.77v31
15814 Apr 19:29:571113.5 mph15SSW (192°)9969810184925.7°C59.4%17.2°C4078ft (1243m)12.78v31
15714 Apr 19:29:461011.5 mph13SSW (202°)9971010186125.7°C59.5%17.2°C4067ft (1240m)12.78v31
15614 Apr 19:29:351314.3 mph16SSW (205°)9970310185425.7°C59.4%17.2°C4078ft (1243m)12.79v31
15514 Apr 19:29:241112.8 mph17SSW (194°)9970110185225.7°C59.3%17.2°C4089ft (1246m)12.79v31
15414 Apr 19:29:121315.4 mph18S (188°)9970410185525.7°C59.4%17.2°C4078ft (1243m)12.78v31
15314 Apr 19:29:011113.6 mph17SSW (193°)9969610184625.7°C59.3%17.2°C4089ft (1246m)12.78v31
15214 Apr 19:28:501414.6 mph17S (179°)9968710183725.7°C59.3%17.2°C4089ft (1246m)12.78v31
15114 Apr 19:28:391213.8 mph20SSW (202°)9969710184725.7°C59.3%17.2°C4089ft (1246m)12.77v31
15014 Apr 19:28:271618.2 mph20S (188°)9969310184325.7°C59.3%17.2°C4089ft (1246m)12.77v31
14914 Apr 19:28:161213.6 mph15SSW (202°)9969210184225.7°C59.2%17.1°C4100ft (1250m)12.78v31
14814 Apr 19:28:051618.3 mph22SSW (197°)9969610184625.8°C59.2%17.2°C4102ft (1250m)12.78v31
14714 Apr 19:27:541415.4 mph18SSW (195°)9969510184525.7°C59.2%17.1°C4100ft (1250m)12.78v31
14614 Apr 19:27:421415.6 mph18SSW (192°)9969510184525.8°C59.2%17.2°C4102ft (1250m)12.78v31
14514 Apr 19:27:311014.8 mph20SSW (196°)9970210185325.8°C59.1%17.2°C4113ft (1254m)12.78v31
14414 Apr 19:27:201213.9 mph17SSW (193°)9970010185125.8°C59.1%17.2°C4113ft (1254m)12.78v31
14314 Apr 19:27:091111.9 mph17SSW (211°)9969710184725.8°C59%17.2°C4124ft (1257m)12.76v31
14214 Apr 19:26:57910.7 mph14SSW (196°)9970210185325.8°C58.9%17.2°C4135ft (1260m)12.78v31
14114 Apr 19:26:461012.7 mph16SSW (202°)9970010185125.8°C59.1%17.2°C4113ft (1254m)12.77v31
14014 Apr 19:26:351013.2 mph18S (186°)9969610184625.8°C59.1%17.2°C4113ft (1254m)12.78v31
13914 Apr 19:26:241313.9 mph15S (189°)9969810184925.8°C59%17.2°C4124ft (1257m)12.8v31
13814 Apr 19:26:121516.4 mph21S (191°)9969210184225.8°C59%17.2°C4124ft (1257m)12.79v31
13714 Apr 19:26:011617.2 mph20S (180°)9969710184725.7°C59.1%17.1°C4111ft (1253m)12.78v31
13614 Apr 19:25:501315.6 mph18S (191°)9969410184425.8°C59.1%17.2°C4113ft (1254m)12.79v31
13514 Apr 19:25:391416 mph18S (185°)9969010184025.8°C59.1%17.2°C4113ft (1254m)12.78v31
13414 Apr 19:25:271717.5 mph21S (190°)9969210184225.8°C59.1%17.2°C4113ft (1254m)12.78v31
13314 Apr 19:25:161716.4 mph19SSW (211°)9969610184625.8°C59.1%17.2°C4113ft (1254m)12.78v31
13214 Apr 19:25:051113.8 mph16S (187°)9968210183225.8°C59.1%17.2°C4113ft (1254m)12.77v31
13114 Apr 19:24:541414.6 mph19SSW (197°)9969510184525.8°C59.1%17.2°C4113ft (1254m)12.78v31
13014 Apr 19:24:421516 mph19SSW (196°)9969310184325.8°C59%17.2°C4124ft (1257m)12.79v31
12914 Apr 19:24:311116.1 mph20SSW (198°)9968710183725.8°C59%17.2°C4124ft (1257m)12.78v31
12814 Apr 19:24:20810.5 mph13SSW (202°)9969710184725.8°C59%17.2°C4124ft (1257m)12.78v31
12714 Apr 19:24:091013.1 mph16SSW (194°)9969910185025.8°C59%17.2°C4124ft (1257m)12.78v31
12614 Apr 19:23:571516.7 mph18S (183°)9968110183125.8°C59.1%17.2°C4113ft (1254m)12.78v31
12514 Apr 19:23:461013 mph18SSW (195°)9968310183325.8°C59%17.2°C4124ft (1257m)12.78v31
12414 Apr 19:23:351113 mph18SSW (195°)9969610184625.8°C59%17.2°C4124ft (1257m)12.77v31
12314 Apr 19:23:241415.8 mph17S (187°)9969810184925.9°C58.8%17.2°C4149ft (1265m)12.78v31
12214 Apr 19:23:121314.7 mph17SSW (196°)9969810184925.9°C58.8%17.2°C4149ft (1265m)12.79v31
12114 Apr 19:23:011010.9 mph12S (186°)9969410184425.9°C58.9%17.2°C4138ft (1261m)12.8v31
12014 Apr 19:22:501315.2 mph18SSW (192°)9969910185025.9°C58.8%17.2°C4149ft (1265m)12.8v31
11914 Apr 19:22:391013.3 mph17SSW (200°)9969410184425.9°C58.6%17.2°C4171ft (1271m)12.78v31
11814 Apr 19:22:271414.8 mph16SSW (193°)9969310184325.9°C58.7%17.2°C4160ft (1268m)12.78v31
11714 Apr 19:22:161513.8 mph18SSW (199°)9968910183925.9°C58.8%17.2°C4149ft (1265m)12.77v31
11614 Apr 19:22:051114.7 mph18SSW (192°)9969710184725.9°C58.7%17.2°C4160ft (1268m)12.79v31
11514 Apr 19:21:541012.7 mph17S (191°)9969610184625.9°C58.7%17.2°C4160ft (1268m)12.78v31
11414 Apr 19:21:42810.7 mph13SSW (205°)9969610184625.9°C58.7%17.2°C4160ft (1268m)12.79v31
11314 Apr 19:21:311314.5 mph18SSW (201°)9968710183725.9°C58.7%17.2°C4160ft (1268m)12.78v31
11214 Apr 19:21:201314.4 mph17SSW (195°)9969310184325.9°C58.6%17.2°C4171ft (1271m)12.78v31
11114 Apr 19:21:091012.1 mph17SSW (193°)9969310184325.9°C58.5%17.1°C4182ft (1275m)12.79v31
11014 Apr 19:20:571113.1 mph16S (191°)9969310184325.9°C58.7%17.2°C4160ft (1268m)12.78v31
10914 Apr 19:20:461015.4 mph19S (182°)9968910183925.9°C58.6%17.2°C4171ft (1271m)12.79v31
10814 Apr 19:20:351114.3 mph18SSW (198°)9969410184426°C58.5%17.2°C4185ft (1276m)12.77v31
10714 Apr 19:20:241313.5 mph15S (178°)9969110184126°C58.5%17.2°C4185ft (1276m)12.78v31
10614 Apr 19:20:121516.1 mph20SSW (195°)9969710184726°C58.3%17.2°C4207ft (1282m)12.79v31
10514 Apr 19:20:011011.8 mph17SSW (194°)9968710183726°C58.3%17.2°C4207ft (1282m)12.79v31
10414 Apr 19:19:50812.8 mph18SSW (194°)9969310184326°C58.4%17.2°C4196ft (1279m)12.78v31
10314 Apr 19:19:391314.3 mph17S (186°)9969610184626°C58.3%17.2°C4207ft (1282m)12.79v31
10214 Apr 19:19:271213.8 mph17SSW (194°)9969510184526°C58.3%17.2°C4207ft (1282m)12.77v31
10114 Apr 19:19:161414.1 mph17S (174°)9969110184126°C58.4%17.2°C4196ft (1279m)12.77v31
10014 Apr 19:19:051416.7 mph20SSW (203°)9967810182826°C58.3%17.2°C4207ft (1282m)12.78v31
9914 Apr 19:18:541214.2 mph17S (184°)9968210183226°C58.3%17.2°C4207ft (1282m)12.78v31
9814 Apr 19:18:421515 mph16SSW (194°)9968910183926°C58.2%17.2°C4218ft (1286m)12.79v31
9714 Apr 19:18:311112.9 mph17S (187°)9969710184726°C58.2%17.2°C4218ft (1286m)12.79v31
9614 Apr 19:18:2089.7 mph12S (186°)9969210184226°C58.2%17.2°C4218ft (1286m)12.79v31
9514 Apr 19:18:091314.7 mph16S (187°)9969010184026°C58.3%17.2°C4207ft (1282m)12.78v31
9414 Apr 19:17:571314.6 mph16SSW (193°)9969010184026°C58.1%17.1°C4229ft (1289m)12.78v31
9314 Apr 19:17:461215.2 mph18S (190°)9968810183826.1°C58.2%17.2°C4221ft (1287m)12.78v31
9214 Apr 19:17:35810.2 mph14SSW (202°)9969610184626.1°C58.1%17.2°C4232ft (1290m)12.78v31
9114 Apr 19:17:241014.7 mph18S (187°)9969210184226.1°C57.9%17.2°C4254ft (1297m)12.8v31
9014 Apr 19:17:121112.6 mph14S (189°)9969410184426.1°C58%17.2°C4243ft (1293m)12.79v31
8914 Apr 19:17:011313.9 mph16S (189°)9969310184326.1°C57.9%17.2°C4254ft (1297m)12.79v31
8814 Apr 19:16:501112.7 mph16SSW (204°)9969310184326.1°C57.9%17.2°C4254ft (1297m)12.79v31
8714 Apr 19:16:391014 mph18S (185°)9969410184426.1°C57.8%17.1°C4266ft (1300m)12.79v31
8614 Apr 19:16:271215.1 mph18S (186°)9969410184426.1°C58%17.2°C4243ft (1293m)12.78v31
8514 Apr 19:16:16911.3 mph16SSW (193°)9969210184226.1°C57.9%17.2°C4254ft (1297m)12.78v31
8414 Apr 19:16:051011.6 mph13SSW (197°)9969010184026.1°C57.9%17.2°C4254ft (1297m)12.78v31
8314 Apr 19:15:54811.2 mph13SSW (192°)9968510183526.1°C57.9%17.2°C4254ft (1297m)12.78v31
8214 Apr 19:15:421314.1 mph16S (190°)9969410184426.1°C57.9%17.2°C4254ft (1297m)12.79v31
8114 Apr 19:15:311012.2 mph13S (182°)9969110184126.1°C57.8%17.1°C4266ft (1300m)12.8v31
8014 Apr 19:15:20810.2 mph14SSW (199°)9969010184026.1°C58%17.2°C4243ft (1293m)12.78v31
7914 Apr 19:15:091111.8 mph15SSW (205°)9969510184526.1°C57.9%17.2°C4254ft (1297m)12.77v31
7814 Apr 19:14:571213.9 mph18S (185°)9968610183626.1°C57.9%17.2°C4254ft (1297m)12.79v31
7714 Apr 19:14:461214.4 mph16S (179°)9968710183726.1°C57.8%17.1°C4266ft (1300m)12.79v31
7614 Apr 19:14:351113.5 mph20SSW (193°)9969410184426.1°C57.9%17.2°C4254ft (1297m)12.77v31
7514 Apr 19:14:241012.6 mph15SSW (196°)9969510184526.1°C57.8%17.1°C4266ft (1300m)12.78v31
7414 Apr 19:14:121010.8 mph14S (181°)9969310184326.1°C57.8%17.1°C4266ft (1300m)12.78v31
7314 Apr 19:14:011313.7 mph16SSW (203°)9969410184426.1°C57.7%17.1°C4277ft (1304m)12.8v31
7214 Apr 19:13:50810.3 mph14SSW (198°)9969110184126.1°C57.6%17.1°C4288ft (1307m)12.8v31
7114 Apr 19:13:391315.4 mph18S (183°)9969210184226.1°C57.6%17.1°C4288ft (1307m)12.79v31
7014 Apr 19:13:271012 mph16S (186°)9968810183826.1°C57.7%17.1°C4277ft (1304m)12.78v31
6914 Apr 19:13:161214 mph18S (183°)9968910183926.2°C57.5%17.1°C4302ft (1311m)12.78v31
6814 Apr 19:13:051012.5 mph16SSW (194°)9968810183826.2°C57.6%17.2°C4291ft (1308m)12.77v31
6714 Apr 19:12:541415.4 mph17S (181°)9968410183426.2°C57.5%17.1°C4302ft (1311m)12.78v31
6614 Apr 19:12:421010.5 mph14SSW (192°)9968910183926.2°C57.5%17.1°C4302ft (1311m)12.79v31
6514 Apr 19:12:311214.3 mph17S (184°)9968910183926.2°C57.5%17.1°C4302ft (1311m)12.79v31
6414 Apr 19:12:191112.3 mph15S (175°)9967810182826.1°C57.5%17.1°C4299ft (1310m)12.79v31
6314 Apr 19:12:081114.7 mph17S (184°)9968110183126.2°C57.4%17.1°C4313ft (1315m)12.79v31
6214 Apr 19:11:571013.2 mph16S (181°)9969610184626.2°C57.5%17.1°C4302ft (1311m)12.79v31
6114 Apr 19:11:451012.1 mph15S (188°)9969210184226.2°C57.5%17.1°C4302ft (1311m)12.79v31
6014 Apr 19:11:341112 mph16S (189°)9969810184926.2°C57.6%17.2°C4291ft (1308m)12.78v31
5914 Apr 19:11:231112.6 mph14S (178°)9969210184226.2°C57.6%17.2°C4291ft (1308m)12.79v31
5814 Apr 19:11:121010.9 mph12S (190°)9969710184726.2°C57.5%17.1°C4302ft (1311m)12.79v31
5714 Apr 19:11:001011.2 mph13S (184°)9969310184326.2°C57.6%17.2°C4291ft (1308m)12.8v31
5614 Apr 19:10:491011.6 mph14SSW (197°)9968910183926.2°C57.5%17.1°C4302ft (1311m)12.79v31
5514 Apr 19:10:381113.6 mph17S (183°)9967710182726.2°C57.4%17.1°C4313ft (1315m)12.79v31
5414 Apr 19:10:271113.1 mph17S (191°)9969510184526.2°C57.5%17.1°C4302ft (1311m)12.79v31
5314 Apr 19:10:1569.2 mph12SSW (200°)9969310184326.2°C57.4%17.1°C4313ft (1315m)12.79v31
5214 Apr 19:10:041010.5 mph12SSW (194°)9969610184626.2°C57.4%17.1°C4313ft (1315m)12.79v31
5114 Apr 19:09:531011.1 mph13SSW (200°)9969210184226.2°C57.3%17.1°C4325ft (1318m)12.78v31
5014 Apr 19:09:421213.6 mph16SSW (201°)9969510184526.2°C57.2%17.1°C4336ft (1322m)12.79v31
4914 Apr 19:09:301114.7 mph18S (182°)9968510183526.2°C57.3%17.1°C4325ft (1318m)12.81v31
4814 Apr 19:09:201114 mph18S (183°)9967510182526.2°C57.2%17.1°C4336ft (1322m)12.79v31
4714 Apr 19:09:091314.4 mph17S (186°)9969310184326.2°C57.3%17.1°C4325ft (1318m)12.79v31
4614 Apr 19:08:571010.7 mph12S (183°)9969210184226.2°C57%17°C4359ft (1329m)12.78v31
4514 Apr 19:08:46912.3 mph15S (180°)9968810183826.2°C57.1%17°C4347ft (1325m)12.79v31
4414 Apr 19:08:351213 mph15S (186°)9968610183626.2°C57%17°C4359ft (1329m)12.78v31
4314 Apr 19:08:2489 mph11SSW (198°)9969510184526.2°C57.1%17°C4347ft (1325m)12.77v31
4214 Apr 19:08:1278.4 mph10S (172°)9969810184926.2°C57.2%17.1°C4336ft (1322m)12.78v31
4114 Apr 19:08:011013.3 mph18S (185°)9969510184526.2°C57.2%17.1°C4336ft (1322m)12.79v31
4014 Apr 19:07:50810.9 mph14S (182°)9968910183926.2°C57.1%17°C4347ft (1325m)12.8v31
3914 Apr 19:07:39911.4 mph15SSW (207°)9969210184226.2°C57.1%17°C4347ft (1325m)12.8v31
3814 Apr 19:07:2779.3 mph13SSW (193°)9969610184626.2°C57%17°C4359ft (1329m)12.78v31
3714 Apr 19:07:16910.9 mph13S (182°)9969010184026.2°C57%17°C4359ft (1329m)12.79v31
3614 Apr 19:07:0578.9 mph11SSW (197°)9969610184626.2°C57%17°C4359ft (1329m)12.79v31
3514 Apr 19:06:541011.7 mph15SSW (200°)9969310184326.2°C56.9%17°C4370ft (1332m)12.78v31
3414 Apr 19:06:4277.9 mph11S (187°)9968810183826.2°C57%17°C4359ft (1329m)12.8v31
3314 Apr 19:06:31910.5 mph13SSW (205°)9969510184526.2°C57%17°C4359ft (1329m)12.78v31
3214 Apr 19:06:201112.6 mph15S (190°)9968510183526.2°C56.9%17°C4370ft (1332m)12.8v31
3114 Apr 19:06:091011.7 mph14SSW (198°)9969210184226.3°C56.7%17°C4396ft (1340m)12.79v31
3014 Apr 19:05:57911 mph13SSW (197°)9968910183926.3°C56.8%17°C4384ft (1336m)12.8v31
2914 Apr 19:05:4679.2 mph11S (186°)9969010184026.3°C56.9%17.1°C4373ft (1333m)12.79v31
2814 Apr 19:05:351112 mph13S (187°)9968910183926.2°C56.8%17°C4381ft (1335m)12.79v31
2714 Apr 19:05:231012.2 mph15SSW (199°)9968810183826.2°C56.8%17°C4381ft (1335m)12.79v31
2614 Apr 19:05:121011.6 mph14S (174°)9968610183626.3°C56.8%17°C4384ft (1336m)12.78v31
2514 Apr 19:05:0167.9 mph11SSW (196°)9969110184126.3°C56.6%17°C4407ft (1343m)12.8v31
2414 Apr 19:04:501010.9 mph13SSW (193°)9968210183226.3°C56.6%17°C4407ft (1343m)12.8v31
2314 Apr 19:04:381010.7 mph13SSW (192°)9968010183026.3°C56.7%17°C4396ft (1340m)12.79v31
2214 Apr 19:04:271011.8 mph15SSW (202°)9967910182926.2°C56.7%16.9°C4393ft (1339m)12.79v31
2114 Apr 19:04:1699.4 mph11SSW (198°)9968710183726.2°C56.7%16.9°C4393ft (1339m)12.79v31
2014 Apr 19:04:051010.7 mph14S (191°)9967810182826.2°C56.7%16.9°C4393ft (1339m)12.79v31
1914 Apr 19:03:53910.5 mph16S (191°)9967910182926.2°C56.8%17°C4381ft (1335m)12.79v31
1814 Apr 19:03:4299.9 mph11SSW (193°)9968510183526.2°C56.8%17°C4381ft (1335m)12.8v31
1714 Apr 19:03:311112.5 mph16SSW (194°)9967410182426.3°C56.6%17°C4407ft (1343m)12.78v31
1614 Apr 19:03:2078.3 mph12S (191°)9968310183326.3°C56.6%17°C4407ft (1343m)12.8v31
1514 Apr 19:03:081111.9 mph14S (185°)9968010183026.3°C56.5%17°C4418ft (1347m)12.8v31
1414 Apr 19:02:571313.7 mph15SSW (196°)9968310183326.3°C56.4%16.9°C4430ft (1350m)12.79v31
1314 Apr 19:02:461010.5 mph12SSW (197°)9967410182426.3°C56.6%17°C4407ft (1343m)12.8v31
1214 Apr 19:02:3579.4 mph11SSW (194°)9967810182826.3°C56.6%17°C4407ft (1343m)12.79v31
1114 Apr 19:02:2389 mph12S (177°)9968710183726.3°C56.5%17°C4418ft (1347m)12.78v31
1014 Apr 19:02:121012.6 mph16S (186°)9968410183426.3°C56.6%17°C4407ft (1343m)12.76v31
914 Apr 19:02:011012.7 mph18S (185°)9968210183226.3°C56.5%17°C4418ft (1347m)12.78v31
814 Apr 19:01:5078.1 mph10S (184°)9968510183526.3°C56.6%17°C4407ft (1343m)12.79v31
714 Apr 19:01:381112.2 mph14S (183°)9967910182926.3°C56.5%17°C4418ft (1347m)12.79v31
614 Apr 19:01:271011.1 mph12SSW (195°)9967810182826.2°C56.6%16.9°C4404ft (1342m)12.78v31
514 Apr 19:01:161212.5 mph13S (187°)9967610182626.2°C56.6%16.9°C4404ft (1342m)12.78v31
414 Apr 19:01:05910.2 mph12SSW (193°)9967510182526.2°C56.7%16.9°C4393ft (1339m)12.8v31
314 Apr 19:00:5378.7 mph11SSW (200°)9967310182326.2°C56.5%16.9°C4416ft (1346m)12.78v31
214 Apr 19:00:421010.4 mph11SSW (202°)9967510182526.2°C56.6%16.9°C4404ft (1342m)12.78v31
114 Apr 19:00:3188.8 mph10SSW (199°)9967810182826.2°C56.7%16.9°C4393ft (1339m)12.77v31
767814 Apr 18:59:54810.5 mph17SSW (209°)9966910181926.2°C56.7%16.9°C4393ft (1339m)12.78v31
767714 Apr 18:59:431314.9 mph16SSW (194°)9967010182026.2°C56.6%16.9°C4404ft (1342m)12.79v31
767614 Apr 18:59:3289.6 mph13SSW (195°)9966910181926.2°C56.6%16.9°C4404ft (1342m)12.79v31
767514 Apr 18:59:2189 mph12SSW (212°)9967710182726.2°C56.5%16.9°C4416ft (1346m)12.78v31
767414 Apr 18:59:091213.1 mph16SSW (210°)9967710182726.2°C56.6%16.9°C4404ft (1342m)12.78v31
767314 Apr 18:58:581011.4 mph14SSW (207°)9966710181726.2°C56.5%16.9°C4416ft (1346m)12.79v31
767214 Apr 18:58:47911 mph13SSW (208°)9967710182726.2°C56.4%16.8°C4427ft (1349m)12.78v31
767114 Apr 18:58:3699.6 mph11SSW (211°)9967810182826.2°C56.4%16.8°C4427ft (1349m)12.79v31
767014 Apr 18:58:241212.1 mph15SSW (197°)9967710182726.2°C56.5%16.9°C4416ft (1346m)12.79v31
766914 Apr 18:58:131011.2 mph13SSW (196°)9967410182426.2°C56.5%16.9°C4416ft (1346m)12.79v31
766814 Apr 18:58:02711.2 mph13SSW (202°)9967610182626.2°C56.5%16.9°C4416ft (1346m)12.8v31
766714 Apr 18:57:51811.2 mph15SSW (199°)9967210182226.2°C56.5%16.9°C4416ft (1346m)12.79v31
766614 Apr 18:57:391213.1 mph15SSW (207°)9966310181326.2°C56.5%16.9°C4416ft (1346m)12.79v31
766514 Apr 18:57:2899.7 mph11SSW (203°)9967410182426.2°C56.6%16.9°C4404ft (1342m)12.78v31
766414 Apr 18:57:1799.8 mph11SSW (211°)9967310182326.2°C56.5%16.9°C4416ft (1346m)12.79v31
766314 Apr 18:57:05710.9 mph14S (184°)9967210182226.2°C56.5%16.9°C4416ft (1346m)12.8v31
766214 Apr 18:56:5478.8 mph10SSW (202°)9967210182226.2°C56.5%16.9°C4416ft (1346m)12.79v31
766114 Apr 18:56:43911.1 mph12SSW (194°)9966610181626.2°C56.5%16.9°C4416ft (1346m)12.8v31
766014 Apr 18:56:321213.1 mph14SSW (192°)9967110182126.1°C56.6%16.8°C4401ft (1341m)12.8v31
765914 Apr 18:56:201212.2 mph15SSW (192°)9967110182126.2°C56.6%16.9°C4404ft (1342m)12.79v31
765814 Apr 18:56:091315.6 mph19SSW (195°)9967310182326.2°C56.5%16.9°C4416ft (1346m)12.78v31
765714 Apr 18:55:581314.1 mph16S (190°)9966710181726.2°C56.5%16.9°C4416ft (1346m)12.78v31
765614 Apr 18:55:471014.9 mph19S (182°)9966010181026.2°C56.5%16.9°C4416ft (1346m)12.79v31
765514 Apr 18:55:351215.1 mph19SSW (199°)9966710181726.2°C56.4%16.8°C4427ft (1349m)12.8v31
765414 Apr 18:55:241113.1 mph15SSW (196°)9965910180926.2°C56.4%16.8°C4427ft (1349m)12.8v31
765314 Apr 18:55:131212.7 mph14SSW (195°)9966710181726.2°C56.4%16.8°C4427ft (1349m)12.79v31
765214 Apr 18:55:021012 mph14SSW (200°)9965910180926.2°C56.3%16.8°C4438ft (1353m)12.8v31
765114 Apr 18:54:50912.1 mph15SSW (200°)9966110181126.2°C56.4%16.8°C4427ft (1349m)12.8v31
765014 Apr 18:54:391314.5 mph17SSW (194°)9965910180926.2°C56.4%16.8°C4427ft (1349m)12.8v31
764914 Apr 18:54:281113.2 mph16SSW (204°)9966210181226.2°C56.3%16.8°C4438ft (1353m)12.79v31
764814 Apr 18:54:171112.9 mph17SSW (207°)9966310181326.2°C56.3%16.8°C4438ft (1353m)12.79v31
764714 Apr 18:54:061112.6 mph16SSW (192°)9965910180926.2°C56.3%16.8°C4438ft (1353m)12.79v31
764614 Apr 18:53:54910.4 mph13SSW (204°)9966510181526.2°C56.4%16.8°C4427ft (1349m)12.8v31
764514 Apr 18:53:4388.6 mph11SSW (208°)9965910180926.2°C56.4%16.8°C4427ft (1349m)12.79v31
764414 Apr 18:53:321113.4 mph17SSW (201°)9965510180526.2°C56.3%16.8°C4438ft (1353m)12.79v31
764314 Apr 18:53:211213.3 mph18S (188°)9966310181326.2°C56.3%16.8°C4438ft (1353m)12.79v31
764214 Apr 18:53:091414.7 mph17SSW (194°)9965610180626.2°C56.3%16.8°C4438ft (1353m)12.78v31
764114 Apr 18:52:581112.8 mph18SSW (196°)9966110181126.2°C56.3%16.8°C4438ft (1353m)12.79v31
764014 Apr 18:52:471416.1 mph18S (190°)9965210180226.2°C56.3%16.8°C4438ft (1353m)12.81v31
763914 Apr 18:52:361314.4 mph17SSW (193°)9965510180526.2°C56.3%16.8°C4438ft (1353m)12.79v31
763814 Apr 18:52:241416.6 mph19SSW (199°)9964710179626.2°C56.4%16.8°C4427ft (1349m)12.81v31
763714 Apr 18:52:131214.3 mph16S (183°)9964410179326.2°C56.4%16.8°C4427ft (1349m)12.79v31
763614 Apr 18:52:021315.9 mph20SSW (197°)9965910180926.2°C56.4%16.8°C4427ft (1349m)12.8v31
763514 Apr 18:51:511116.6 mph21SSW (195°)9965710180726.2°C56.4%16.8°C4427ft (1349m)12.79v31
763414 Apr 18:51:391314.7 mph18S (189°)9965310180326.2°C56.5%16.9°C4416ft (1346m)12.79v31
763314 Apr 18:51:281010.9 mph13SSW (197°)9965610180626.3°C56.6%17°C4407ft (1343m)12.78v31
763214 Apr 18:51:171213.5 mph16SSW (210°)9965910180926.3°C56.5%17°C4418ft (1347m)12.79v31
763114 Apr 18:51:061010.3 mph12SSW (196°)9965610180626.2°C56.6%16.9°C4404ft (1342m)12.79v31
763014 Apr 18:50:541212.9 mph17SSW (192°)9965410180426.2°C56.6%16.9°C4404ft (1342m)12.79v31
762914 Apr 18:50:43910.5 mph13SSW (205°)9965810180826.2°C56.6%16.9°C4404ft (1342m)12.8v31
762814 Apr 18:50:321010.6 mph13SSW (207°)9965510180526.2°C56.5%16.9°C4416ft (1346m)12.79v31
762714 Apr 18:50:211211.7 mph15SSW (207°)9964710179626.2°C56.4%16.8°C4427ft (1349m)12.79v31
762614 Apr 18:50:091312.7 mph15SSW (201°)9965210180226.2°C56.5%16.9°C4416ft (1346m)12.79v31
762514 Apr 18:49:581415.2 mph18S (191°)9965610180626.2°C56.4%16.8°C4427ft (1349m)12.79v31
762414 Apr 18:49:471113.7 mph16S (191°)9965910180926.2°C56.5%16.9°C4416ft (1346m)12.79v31
762314 Apr 18:49:361113 mph16S (188°)9965210180226.2°C56.3%16.8°C4438ft (1353m)12.81v31
762214 Apr 18:49:241315.3 mph18SSW (194°)9965410180426.2°C56.4%16.8°C4427ft (1349m)12.82v31
762114 Apr 18:49:131112.5 mph15S (189°)9965110180026.3°C56.4%16.9°C4430ft (1350m)12.8v31
762014 Apr 18:49:021111.7 mph13SSW (202°)9965410180426.3°C56.3%16.9°C4441ft (1354m)12.8v31
761914 Apr 18:48:511415.3 mph17S (189°)9965010179926.3°C56.4%16.9°C4430ft (1350m)12.79v31
761814 Apr 18:48:391213.5 mph20SSW (195°)9964610179526.3°C56.4%16.9°C4430ft (1350m)12.79v31
761714 Apr 18:48:281216.6 mph20SSW (199°)9965110180026.3°C56.4%16.9°C4430ft (1350m)12.79v31
761614 Apr 18:48:1789.9 mph13SSW (208°)9964910179826.3°C56.5%17°C4418ft (1347m)12.78v31
761514 Apr 18:48:061212.1 mph15SSW (200°)9965310180326.3°C56.5%17°C4418ft (1347m)12.78v31
761414 Apr 18:47:541011.3 mph14S (191°)9964210179126.3°C56.4%16.9°C4430ft (1350m)12.79v31
761314 Apr 18:47:431213.5 mph15SSW (204°)9965310180326.3°C56.5%17°C4418ft (1347m)12.79v31
761214 Apr 18:47:321011.6 mph14SSW (196°)9964610179526.3°C56.5%17°C4418ft (1347m)12.79v31
761114 Apr 18:47:211112.7 mph15S (191°)9964910179826.3°C56.5%17°C4418ft (1347m)12.79v31
761014 Apr 18:47:091315 mph18SSW (213°)9963510178426.3°C56.5%17°C4418ft (1347m)12.8v31
760914 Apr 18:46:581011.7 mph14SSW (203°)9964510179426.2°C56.4%16.8°C4427ft (1349m)12.79v31
760814 Apr 18:46:471517.3 mph20SSW (193°)9964610179526.2°C56.6%16.9°C4404ft (1342m)12.78v31
760714 Apr 18:46:361014 mph18SSW (197°)9963410178326.2°C56.5%16.9°C4416ft (1346m)12.79v31
760614 Apr 18:46:241516 mph18SSW (195°)9963610178526.2°C56.6%16.9°C4404ft (1342m)12.8v31
760514 Apr 18:46:131416.9 mph21S (191°)9964510179426.2°C56.5%16.9°C4416ft (1346m)12.81v31
760414 Apr 18:46:021719.4 mph23SSW (192°)9964010178926.2°C56.5%16.9°C4416ft (1346m)12.79v31
760314 Apr 18:45:511316.6 mph20S (185°)9962810177726.2°C56.6%16.9°C4404ft (1342m)12.79v31
760214 Apr 18:45:391114.6 mph19SSW (193°)9963110178026.3°C56.6%17°C4407ft (1343m)12.8v31
760114 Apr 18:45:281112.2 mph14SSW (202°)9964510179426.3°C56.5%17°C4418ft (1347m)12.8v31
760014 Apr 18:45:171111.8 mph13SSW (209°)9964010178926.3°C56.5%17°C4418ft (1347m)12.79v31
759914 Apr 18:45:061312.9 mph14SSW (199°)9963910178826.3°C56.5%17°C4418ft (1347m)12.81v31
759814 Apr 18:44:541415.2 mph16S (190°)9964010178926.3°C56.5%17°C4418ft (1347m)12.81v31
759714 Apr 18:44:431415.8 mph18SSW (195°)9963710178626.3°C56.5%17°C4418ft (1347m)12.8v31
759614 Apr 18:44:32911.4 mph13SSW (196°)9964310179226.3°C56.6%17°C4407ft (1343m)12.8v31
759514 Apr 18:44:211011.5 mph14SSW (193°)9964310179226.3°C56.6%17°C4407ft (1343m)12.79v31
759414 Apr 18:44:091212.7 mph16S (190°)9964610179526.3°C56.5%17°C4418ft (1347m)12.8v31
759314 Apr 18:43:581314.3 mph19SSW (200°)9963510178426.3°C56.5%17°C4418ft (1347m)12.79v31
759214 Apr 18:43:471415.1 mph18S (188°)9963810178726.3°C56.6%17°C4407ft (1343m)12.79v31
759114 Apr 18:43:361315.5 mph19S (189°)9964110179026.3°C56.5%17°C4418ft (1347m)12.8v31
759014 Apr 18:43:241315.9 mph22S (188°)9964610179526.3°C56.6%17°C4407ft (1343m)12.8v31
758914 Apr 18:43:131012.4 mph17SSW (202°)9964310179226.3°C56.6%17°C4407ft (1343m)12.8v31
758814 Apr 18:43:021314.5 mph16SSW (199°)9964510179426.3°C56.6%17°C4407ft (1343m)12.8v31
758714 Apr 18:42:511011.2 mph15SSW (208°)9964310179226.3°C56.7%17°C4396ft (1340m)12.79v31
758614 Apr 18:42:391213.3 mph17SSW (207°)9964510179426.3°C56.6%17°C4407ft (1343m)12.8v31
758514 Apr 18:42:281214.7 mph17SSW (196°)9963310178226.3°C56.7%17°C4396ft (1340m)12.78v31
758414 Apr 18:42:171415.4 mph18S (178°)9963710178626.3°C56.7%17°C4396ft (1340m)12.79v31
758314 Apr 18:42:061616.7 mph19S (190°)9963810178726.3°C56.7%17°C4396ft (1340m)12.8v31
758214 Apr 18:41:541014.1 mph20S (191°)9964010178926.4°C56.7%17.1°C4398ft (1341m)12.8v31
758114 Apr 18:41:431212.9 mph17SSW (194°)9963910178826.4°C56.6%17.1°C4410ft (1344m)12.81v31
758014 Apr 18:41:321112.9 mph16SSW (197°)9964210179126.4°C56.7%17.1°C4398ft (1341m)12.81v31
757914 Apr 18:41:211215.6 mph19SSW (200°)9964310179226.4°C56.6%17.1°C4410ft (1344m)12.79v31
757814 Apr 18:41:091213.3 mph15S (191°)9963810178726.4°C56.7%17.1°C4398ft (1341m)12.79v31
757714 Apr 18:40:581213.5 mph15SSW (202°)9963610178526.4°C56.6%17.1°C4410ft (1344m)12.79v31
757614 Apr 18:40:471011.7 mph14SW (217°)9964210179126.4°C56.7%17.1°C4398ft (1341m)12.78v31
757514 Apr 18:40:361112 mph15SSW (201°)9964110179026.4°C56.7%17.1°C4398ft (1341m)12.8v31
757414 Apr 18:40:241313.9 mph16SSW (196°)9964110179026.4°C56.6%17.1°C4410ft (1344m)12.79v31
757314 Apr 18:40:131214.7 mph17SSW (195°)9963610178526.4°C56.5%17.1°C4421ft (1348m)12.8v31
757214 Apr 18:40:0289 mph11SSW (194°)9964210179126.4°C56.5%17.1°C4421ft (1348m)12.81v31
757114 Apr 18:39:511011.5 mph14SSW (198°)9964510179426.4°C56.5%17.1°C4421ft (1348m)12.81v31
757014 Apr 18:39:391212.9 mph14S (186°)9963410178326.4°C56.5%17.1°C4421ft (1348m)12.8v31
756914 Apr 18:39:281314.7 mph16SSW (199°)9963610178526.4°C56.6%17.1°C4410ft (1344m)12.8v31
756814 Apr 18:39:171012.5 mph15SSW (200°)9964510179426.4°C56.5%17.1°C4421ft (1348m)12.79v31
756714 Apr 18:39:061011.8 mph14SSW (199°)9963610178526.4°C56.5%17.1°C4421ft (1348m)12.79v31
756614 Apr 18:38:541315.2 mph19SSW (195°)9963410178326.4°C56.6%17.1°C4410ft (1344m)12.79v31
756514 Apr 18:38:43914.7 mph18SSW (194°)9963110178026.4°C56.6%17.1°C4410ft (1344m)12.82v31
756414 Apr 18:38:32810.7 mph13SSW (201°)9964310179226.4°C56.7%17.1°C4398ft (1341m)12.8v31
756314 Apr 18:38:21811.9 mph16SSW (196°)9963510178426.3°C56.5%17°C4418ft (1347m)12.79v31
756214 Apr 18:38:09912.2 mph15S (186°)9963810178726.3°C56.5%17°C4418ft (1347m)12.79v31
756114 Apr 18:37:581315 mph19SSW (203°)9962610177526.3°C56.5%17°C4418ft (1347m)12.8v31
756014 Apr 18:37:471113 mph17SSW (202°)9962510177426.3°C56.6%17°C4407ft (1343m)12.8v31
755914 Apr 18:37:361415.7 mph18SSW (195°)9963710178626.3°C56.5%17°C4418ft (1347m)12.79v31
755814 Apr 18:37:241213.2 mph14SSW (193°)9963510178426.3°C56.5%17°C4418ft (1347m)12.8v31
755714 Apr 18:37:131314.2 mph15SSW (201°)9963010177926.3°C56.4%16.9°C4430ft (1350m)12.81v31
755614 Apr 18:37:021416.7 mph19SSW (197°)9963910178826.3°C56.5%17°C4418ft (1347m)12.81v31
755514 Apr 18:36:51812.7 mph18SSW (196°)9963810178726.3°C56.5%17°C4418ft (1347m)12.8v31
755414 Apr 18:36:39914 mph19SW (214°)9964210179126.4°C56.5%17.1°C4421ft (1348m)12.8v31
755314 Apr 18:36:28913.2 mph16SSW (206°)9962510177426.3°C56.5%17°C4418ft (1347m)12.79v31
755214 Apr 18:36:171415.9 mph18SSW (193°)9962410177326.3°C56.6%17°C4407ft (1343m)12.79v31
755114 Apr 18:36:061213.7 mph16SSW (207°)9963510178426.3°C56.7%17°C4396ft (1340m)12.79v31
755014 Apr 18:35:541013.4 mph18SSW (198°)9963110178026.3°C56.8%17°C4384ft (1336m)12.8v31
754914 Apr 18:35:431112.7 mph15SSW (197°)9963210178126.3°C56.7%17°C4396ft (1340m)12.81v31
754814 Apr 18:35:321113.6 mph18SSW (203°)9963910178826.4°C56.7%17.1°C4398ft (1341m)12.8v31
754714 Apr 18:35:211417.3 mph19SSW (203°)9962810177726.4°C56.7%17.1°C4398ft (1341m)12.8v31
754614 Apr 18:35:091011 mph14SSW (197°)9963010177926.3°C56.7%17°C4396ft (1340m)12.8v31
754514 Apr 18:34:581718.4 mph21S (189°)9963310178226.3°C56.8%17°C4384ft (1336m)12.81v31
754414 Apr 18:34:471012.4 mph14SSW (201°)9962510177426.3°C56.8%17°C4384ft (1336m)12.79v31
754314 Apr 18:34:361617.9 mph22SSW (200°)9962410177326.3°C56.7%17°C4396ft (1340m)12.79v31
754214 Apr 18:34:241415.6 mph18SSW (202°)9963110178026.4°C56.6%17.1°C4410ft (1344m)12.8v31
754114 Apr 18:34:131114.2 mph19SSW (193°)9963210178126.4°C56.7%17.1°C4398ft (1341m)12.8v31
754014 Apr 18:34:021516.3 mph20SSW (201°)9962910177826.4°C56.8%17.1°C4387ft (1337m)12.81v31
753914 Apr 18:33:511011.4 mph14SSW (197°)9963410178326.4°C56.8%17.1°C4387ft (1337m)12.79v31
753814 Apr 18:33:391011.7 mph14SSW (211°)9963410178326.4°C56.8%17.1°C4387ft (1337m)12.79v31
753714 Apr 18:33:281112.6 mph15S (190°)9962610177526.3°C56.9%17.1°C4373ft (1333m)12.8v31
753614 Apr 18:33:17911.2 mph16SSW (203°)9963110178026.3°C56.9%17.1°C4373ft (1333m)12.8v31
753514 Apr 18:33:06912 mph15S (190°)9963010177926.3°C57%17.1°C4361ft (1329m)12.8v31
753414 Apr 18:32:541415.9 mph21S (180°)9962510177426.3°C57%17.1°C4361ft (1329m)12.79v31
753314 Apr 18:32:431415.5 mph18SSW (197°)9961910176826.3°C57%17.1°C4361ft (1329m)12.8v31
753214 Apr 18:32:321617.5 mph20SSW (204°)9962210177126.3°C57%17.1°C4361ft (1329m)12.8v31
753114 Apr 18:32:211316.5 mph21SSW (203°)9961410176326.3°C57.3%17.2°C4327ft (1319m)12.8v31
753014 Apr 18:32:091416.5 mph21S (183°)9961210176126.3°C57.5%17.2°C4305ft (1312m)12.8v31
752914 Apr 18:31:581012.3 mph15SSW (195°)9962210177126.3°C57.5%17.2°C4305ft (1312m)12.8v31
752814 Apr 18:31:471113.7 mph18SSW (201°)9963110178026.3°C57.4%17.2°C4316ft (1316m)12.79v31
752714 Apr 18:31:361416.7 mph19SSW (200°)9963010177926.4°C57.6%17.4°C4296ft (1309m)12.79v31
752614 Apr 18:31:241212.1 mph14S (189°)9962610177526.4°C57.5%17.3°C4308ft (1313m)12.79v31
752514 Apr 18:31:131213.5 mph17SSW (202°)9962610177526.4°C57.7%17.4°C4285ft (1306m)12.79v31
752414 Apr 18:31:021113.5 mph15SSW (197°)9961910176826.4°C57.7%17.4°C4285ft (1306m)12.81v31
752314 Apr 18:30:511010.2 mph11SSW (209°)9961910176826.4°C57.8%17.4°C4274ft (1303m)12.8v31
752214 Apr 18:30:391314 mph15SSW (212°)9962410177326.4°C57.7%17.4°C4285ft (1306m)12.79v31
752114 Apr 18:30:281617.6 mph20SSW (198°)9962010176926.3°C57.7%17.3°C4282ft (1305m)12.8v31
752014 Apr 18:30:171416.2 mph19S (191°)9962310177226.4°C57.7%17.4°C4285ft (1306m)12.79v31
751914 Apr 18:30:061213.9 mph19SSW (192°)9962010176926.4°C57.7%17.4°C4285ft (1306m)12.8v31
751814 Apr 18:29:541013.4 mph16S (188°)9962010176926.4°C57.7%17.4°C4285ft (1306m)12.8v31
751714 Apr 18:29:431013 mph17SSW (192°)9962610177526.3°C57.8%17.3°C4271ft (1302m)12.79v31
751614 Apr 18:29:321112.5 mph15S (191°)9962210177126.4°C57.8%17.4°C4274ft (1303m)12.81v31
751514 Apr 18:29:211010.5 mph13SSW (211°)9961810176726.4°C57.8%17.4°C4274ft (1303m)12.8v31
751414 Apr 18:29:091315 mph18SSW (197°)9961610176526.3°C57.8%17.3°C4271ft (1302m)12.81v31
751314 Apr 18:28:581415.5 mph18S (175°)9961410176326.3°C57.9%17.3°C4260ft (1298m)12.81v31
751214 Apr 18:28:471010.9 mph14SSW (205°)9961910176826.3°C57.9%17.3°C4260ft (1298m)12.8v31
751114 Apr 18:28:361215 mph17SSW (192°)9961510176426.3°C58%17.4°C4249ft (1295m)12.8v31
751014 Apr 18:28:241314.6 mph16S (191°)9962310177226.3°C57.9%17.3°C4260ft (1298m)12.78v31
750914 Apr 18:28:131214 mph17SSW (196°)9961510176426.3°C57.8%17.3°C4271ft (1302m)12.81v31
750814 Apr 18:28:021213.8 mph17S (188°)9961510176426.4°C57.7%17.4°C4285ft (1306m)12.81v31
750714 Apr 18:27:511113.9 mph19SSW (197°)9961310176226.4°C57.8%17.4°C4274ft (1303m)12.8v31
750614 Apr 18:27:391314.5 mph16S (187°)9961010175926.3°C57.7%17.3°C4282ft (1305m)12.8v31
750514 Apr 18:27:281014.7 mph18SSW (198°)9960910175826.3°C57.9%17.3°C4260ft (1298m)12.81v31
750414 Apr 18:27:171215 mph18SSW (204°)9961710176626.3°C57.9%17.3°C4260ft (1298m)12.81v31
750314 Apr 18:27:061618.5 mph21S (185°)9960110174926.3°C58%17.4°C4249ft (1295m)12.79v31
750214 Apr 18:26:541214.6 mph17SSW (198°)9960510175326.3°C58%17.4°C4249ft (1295m)12.8v31
750114 Apr 18:26:431316.1 mph23SSW (198°)9960610175526.3°C58.1%17.4°C4237ft (1291m)12.81v31
750014 Apr 18:26:321315.2 mph18S (185°)9960910175826.4°C58.1%17.5°C4240ft (1292m)12.8v31
749914 Apr 18:26:211215.5 mph19SSW (195°)9961110176026.3°C58.2%17.4°C4226ft (1288m)12.81v31
749814 Apr 18:26:091113.8 mph16SSW (199°)9961710176626.4°C58.2%17.5°C4229ft (1289m)12.8v31
749714 Apr 18:25:581314 mph15SSW (204°)9960210175026.3°C58.3%17.5°C4215ft (1285m)12.8v31
749614 Apr 18:25:471214.5 mph17SSW (199°)9961310176226.3°C58.2%17.4°C4226ft (1288m)12.81v31
749514 Apr 18:25:361114.4 mph19SSW (197°)9961310176226.3°C58.2%17.4°C4226ft (1288m)12.8v31
749414 Apr 18:25:241113.2 mph17SSW (194°)9960910175826.3°C58.3%17.5°C4215ft (1285m)12.8v31
749314 Apr 18:25:131516.6 mph21SSW (204°)9960310175126.3°C58.3%17.5°C4215ft (1285m)12.8v31
749214 Apr 18:25:021318.3 mph21SSW (194°)9960310175126.3°C58.3%17.5°C4215ft (1285m)12.81v31
749114 Apr 18:24:511012.2 mph16SSW (202°)9960610175526.3°C58.3%17.5°C4215ft (1285m)12.81v31
749014 Apr 18:24:391314.2 mph15SSW (203°)9960710175626.3°C58.3%17.5°C4215ft (1285m)12.79v31
748914 Apr 18:24:281717.9 mph19SSW (197°)9960110174926.3°C58.2%17.4°C4226ft (1288m)12.8v31
748814 Apr 18:24:171517.4 mph19SSW (195°)9960710175626.3°C58.1%17.4°C4237ft (1291m)12.8v31
748714 Apr 18:24:061013 mph19SSW (194°)9961410176326.3°C58.1%17.4°C4237ft (1291m)12.8v31
748614 Apr 18:23:541413.2 mph18SSW (196°)9960710175626.3°C58.1%17.4°C4237ft (1291m)12.81v31
748514 Apr 18:23:431113.3 mph20S (188°)9961010175926.3°C58.2%17.4°C4226ft (1288m)12.79v31
748414 Apr 18:23:321216.4 mph23SSW (208°)9959910174726.3°C58.3%17.5°C4215ft (1285m)12.8v31
748314 Apr 18:23:211214.3 mph18S (190°)9960110174926.3°C58.5%17.5°C4193ft (1278m)12.81v31
748214 Apr 18:23:091315.7 mph19S (185°)9960310175126.3°C58.4%17.5°C4204ft (1281m)12.81v31
748114 Apr 18:22:581112.8 mph15S (190°)9959910174726.3°C58.5%17.5°C4193ft (1278m)12.8v31
748014 Apr 18:22:471213.9 mph16SSW (200°)9960110174926.3°C58.6%17.5°C4182ft (1275m)12.8v31
747914 Apr 18:22:36912.7 mph15S (187°)9960010174826.3°C58.6%17.5°C4182ft (1275m)12.8v31
747814 Apr 18:22:241517.2 mph20SSW (201°)9960610175526.3°C58.4%17.5°C4204ft (1281m)12.8v31
747714 Apr 18:22:131517.4 mph20S (189°)9959510174326.3°C58.4%17.5°C4204ft (1281m)12.81v31
747614 Apr 18:22:021114.9 mph20SSW (192°)9959610174426.3°C58.5%17.5°C4193ft (1278m)12.78v31
747514 Apr 18:21:511215.4 mph21SSW (197°)9958910173726.3°C58.6%17.5°C4182ft (1275m)12.81v31
747414 Apr 18:21:391217 mph23S (182°)9957910172726.3°C58.9%17.6°C4149ft (1265m)12.8v31
747314 Apr 18:21:281212.8 mph15SSW (208°)9960810175726.3°C59.2%17.7°C4116ft (1255m)12.8v31
747214 Apr 18:21:171013.6 mph18SSW (200°)9959710174526.3°C59.3%17.7°C4105ft (1251m)12.8v31
747114 Apr 18:21:061214.1 mph18SSW (200°)9960310175126.3°C59.3%17.7°C4105ft (1251m)12.8v31
747014 Apr 18:20:541618.3 mph20S (190°)9959410174226.3°C59.2%17.7°C4116ft (1255m)12.79v31
746914 Apr 18:20:431516.3 mph19SSW (200°)9960210175026.3°C59.2%17.7°C4116ft (1255m)12.79v31
746814 Apr 18:20:321414.7 mph18SSW (194°)9958910173726.3°C59.3%17.7°C4105ft (1251m)12.8v31
746714 Apr 18:20:211214.4 mph16SSW (193°)9960310175126.3°C59.4%17.8°C4094ft (1248m)12.81v31
746614 Apr 18:20:091012.7 mph16SSW (192°)9959310174126.3°C59.3%17.7°C4105ft (1251m)12.8v31
746514 Apr 18:19:581213 mph14SSW (206°)9960010174826.3°C59.4%17.8°C4094ft (1248m)12.79v31
746414 Apr 18:19:471214 mph18S (190°)9959910174726.3°C59.3%17.7°C4105ft (1251m)12.8v31
746314 Apr 18:19:361213.9 mph16S (187°)9959910174726.3°C59.2%17.7°C4116ft (1255m)12.8v31
746214 Apr 18:19:241114.7 mph20SSW (194°)9960010174826.4°C59.2%17.8°C4118ft (1255m)12.78v31
746114 Apr 18:19:131214.1 mph16SSW (196°)9959610174426.3°C59.1%17.7°C4127ft (1258m)12.79v31
746014 Apr 18:19:021012.4 mph16SSW (198°)9958510173326.3°C59.1%17.7°C4127ft (1258m)12.8v31
745914 Apr 18:18:511112.8 mph15SSW (202°)9959710174526.3°C59.2%17.7°C4116ft (1255m)12.81v31
745814 Apr 18:18:39812.6 mph17SSW (205°)9959910174726.3°C59.2%17.7°C4116ft (1255m)12.8v31
745714 Apr 18:18:281111.5 mph16SSW (209°)9959610174426.3°C59.2%17.7°C4116ft (1255m)12.81v31
745614 Apr 18:18:171113.4 mph16SSW (205°)9959910174726.3°C59.2%17.7°C4116ft (1255m)12.8v31
745514 Apr 18:18:061013.4 mph17SSW (199°)9959010173826.3°C59.1%17.7°C4127ft (1258m)12.81v31
745414 Apr 18:17:54911.6 mph16SSW (204°)9959210174026.3°C59.2%17.7°C4116ft (1255m)12.79v31
745314 Apr 18:17:431015.2 mph20SSW (197°)9959310174126.3°C59.2%17.7°C4116ft (1255m)12.79v31
745214 Apr 18:17:321012.2 mph15SSW (193°)9959410174226.3°C59.3%17.7°C4105ft (1251m)12.8v31
745114 Apr 18:17:211014.1 mph17SSW (205°)9959710174526.3°C59.2%17.7°C4116ft (1255m)12.8v31
745014 Apr 18:17:091719.4 mph23SSW (207°)9958310173126.3°C59.1%17.7°C4127ft (1258m)12.81v31
744914 Apr 18:16:581112.8 mph15SSW (202°)9959210174026.3°C59.1%17.7°C4127ft (1258m)12.8v31
744814 Apr 18:16:471012.3 mph15SW (218°)9959110173926.3°C59.1%17.7°C4127ft (1258m)12.82v31
744714 Apr 18:16:361114.9 mph20SSW (204°)9958910173726.3°C59.1%17.7°C4127ft (1258m)12.8v31
744614 Apr 18:16:241417.3 mph21SSW (197°)9958910173726.3°C59%17.6°C4138ft (1261m)12.8v31
744514 Apr 18:16:131415.8 mph18SSW (194°)9958110172926.3°C59%17.6°C4138ft (1261m)12.79v31
744414 Apr 18:16:021415.3 mph18SSW (198°)9958310173126.3°C59%17.6°C4138ft (1261m)12.78v31
744314 Apr 18:15:511315.4 mph17SSW (212°)9959210174026.3°C59%17.6°C4138ft (1261m)12.8v31
744214 Apr 18:15:391416.4 mph19SSW (201°)9958410173226.3°C58.9%17.6°C4149ft (1265m)12.82v31
744114 Apr 18:15:281114.6 mph18S (191°)9958210173026.3°C59.1%17.7°C4127ft (1258m)12.82v31
744014 Apr 18:15:171012.4 mph15SSW (199°)9959110173926.3°C59.4%17.8°C4094ft (1248m)12.79v31
743914 Apr 18:15:061214 mph18SSW (202°)9958510173326.2°C59.5%17.7°C4080ft (1244m)12.81v31
743814 Apr 18:14:541316.5 mph21SSW (199°)9958510173326.2°C59.5%17.7°C4080ft (1244m)12.8v31
743714 Apr 18:14:431212.2 mph14S (187°)9959410174226.3°C59.6%17.8°C4072ft (1241m)12.79v31
743614 Apr 18:14:321114.2 mph18SSW (194°)9958710173526.3°C59.5%17.8°C4083ft (1244m)12.81v31
743514 Apr 18:14:211214.6 mph19S (189°)9958910173726.3°C59.3%17.7°C4105ft (1251m)12.8v31
743414 Apr 18:14:091516.8 mph19SSW (200°)9959010173826.3°C59.4%17.8°C4094ft (1248m)12.8v31
743314 Apr 18:13:58812.5 mph20SSW (198°)9959310174126.3°C59.4%17.8°C4094ft (1248m)12.8v31
743214 Apr 18:13:471113.3 mph17SSW (208°)9958910173726.3°C59.6%17.8°C4072ft (1241m)12.81v31
743114 Apr 18:13:361313.5 mph15S (191°)9957810172626.3°C59.8%17.9°C4050ft (1234m)12.8v31
743014 Apr 18:13:241112.6 mph15SSW (199°)9958210173026.3°C59.8%17.9°C4050ft (1234m)12.82v31
742914 Apr 18:13:131314.2 mph18S (185°)9958410173226.3°C59.8%17.9°C4050ft (1234m)12.8v31
742814 Apr 18:13:021518.1 mph22S (186°)9957210172026.3°C59.9%17.9°C4039ft (1231m)12.79v31
742714 Apr 18:12:511212.4 mph14SW (215°)9958010172826.3°C60%17.9°C4028ft (1228m)12.8v31
742614 Apr 18:12:391011.3 mph13SSW (198°)9958310173126.3°C59.8%17.9°C4050ft (1234m)12.81v31
742514 Apr 18:12:281011.1 mph15SSW (203°)9958310173126.3°C59.8%17.9°C4050ft (1234m)12.81v31
742414 Apr 18:12:171214.4 mph17S (183°)9958010172826.3°C59.8%17.9°C4050ft (1234m)12.8v31
742314 Apr 18:12:06911.4 mph15SSW (193°)9958710173526.3°C59.8%17.9°C4050ft (1234m)12.8v31
742214 Apr 18:11:54913.1 mph16SSW (195°)9958410173226.3°C59.8%17.9°C4050ft (1234m)12.8v31
742114 Apr 18:11:4399.5 mph10S (190°)9958210173026.3°C59.9%17.9°C4039ft (1231m)12.79v31
742014 Apr 18:11:321011.4 mph13SSW (207°)9958710173526.3°C60%17.9°C4028ft (1228m)12.79v31
741914 Apr 18:11:211212.5 mph16SSW (205°)9958210173026.3°C60%17.9°C4028ft (1228m)12.8v31
741814 Apr 18:11:091010.3 mph11SSW (202°)9958210173026.3°C60.1%17.9°C4017ft (1224m)12.8v31
741714 Apr 18:10:581011.2 mph14SSW (210°)9958410173226.3°C59.9%17.9°C4039ft (1231m)12.81v31
741614 Apr 18:10:471415.8 mph18S (189°)9958710173526.3°C60%17.9°C4028ft (1228m)12.79v31
741514 Apr 18:10:361416.4 mph20S (191°)9958110172926.3°C59.8%17.9°C4050ft (1234m)12.81v31
741414 Apr 18:10:241116.5 mph21SSW (197°)9957910172726.3°C59.9%17.9°C4039ft (1231m)12.8v31
741314 Apr 18:10:131010.8 mph12S (190°)9958510173326.3°C59.8%17.9°C4050ft (1234m)12.79v31
741214 Apr 18:10:021114.9 mph18S (189°)9957810172626.3°C59.8%17.9°C4050ft (1234m)12.8v31
741114 Apr 18:09:511112.8 mph17SSW (194°)9958610173426.3°C59.8%17.9°C4050ft (1234m)12.81v31
741014 Apr 18:09:391315.8 mph19S (186°)9958210173026.3°C59.8%17.9°C4050ft (1234m)12.8v31
740914 Apr 18:09:281517.3 mph19S (190°)9958110172926.4°C59.7%17.9°C4063ft (1238m)12.81v31
740814 Apr 18:09:171113.2 mph17SSW (196°)9958210173026.4°C59.7%17.9°C4063ft (1238m)12.8v31
740714 Apr 18:09:06810.5 mph16S (188°)9958610173426.4°C59.8%18°C4053ft (1235m)12.8v31
740614 Apr 18:08:541111.9 mph15SSW (202°)9957810172626.4°C59.7%17.9°C4063ft (1238m)12.8v31
740514 Apr 18:08:431314.5 mph17S (186°)9958310173126.3°C59.7%17.8°C4061ft (1238m)12.79v31
740414 Apr 18:08:321314.1 mph16SSW (200°)9958610173426.4°C59.7%17.9°C4063ft (1238m)12.79v31
740314 Apr 18:08:211517.8 mph20SSW (196°)9957910172726.4°C59.7%17.9°C4063ft (1238m)12.79v31
740214 Apr 18:08:091414.9 mph16SSW (193°)9957410172226.4°C59.6%17.9°C4074ft (1242m)12.8v31
740114 Apr 18:07:581317.8 mph21S (191°)9958110172926.4°C59.4%17.8°C4096ft (1248m)12.8v31
740014 Apr 18:07:471515.2 mph17S (191°)9957910172726.4°C59.4%17.8°C4096ft (1248m)12.8v31
739914 Apr 18:07:361417.2 mph21SSW (192°)9958410173226.4°C59.4%17.8°C4096ft (1248m)12.78v31
739814 Apr 18:07:241316.4 mph22S (185°)9958010172826.4°C59.4%17.8°C4096ft (1248m)12.8v31
739714 Apr 18:07:131416.1 mph20SSW (205°)9958510173326.4°C59.3%17.8°C4107ft (1252m)12.8v31
739614 Apr 18:07:021415.6 mph19S (190°)9958410173226.4°C59.5%17.9°C4085ft (1245m)12.77v31
739514 Apr 18:06:511516.7 mph20S (190°)9956010170826.5°C59.4%17.9°C4099ft (1249m)12.79v31
739414 Apr 18:06:391314.7 mph21S (187°)9957610172426.5°C59.4%17.9°C4099ft (1249m)12.8v31
739314 Apr 18:06:281212.9 mph16SSW (196°)9958610173426.5°C59.3%17.9°C4110ft (1253m)12.81v31
739214 Apr 18:06:171515.7 mph17SSW (193°)9958010172826.5°C59.1%17.9°C4132ft (1259m)12.81v31
739114 Apr 18:06:061011.4 mph14SSW (204°)9958310173126.6°C59.2%18°C4124ft (1257m)12.8v31
739014 Apr 18:05:541515 mph18SSW (200°)9957310172126.6°C59.2%18°C4124ft (1257m)12.8v31
738914 Apr 18:05:43912 mph15S (188°)9958510173326.6°C58.9%17.9°C4157ft (1267m)12.79v31
738814 Apr 18:05:3278.3 mph10S (188°)9958610173426.6°C59%17.9°C4146ft (1264m)12.79v31
738714 Apr 18:05:211112.6 mph16SSW (197°)9958510173326.6°C58.9%17.9°C4157ft (1267m)12.79v31
738614 Apr 18:05:091616.5 mph18S (188°)9957410172226.6°C58.8%17.9°C4168ft (1270m)12.8v31
738514 Apr 18:04:581014.6 mph20S (191°)9958310173126.6°C58.8%17.9°C4168ft (1270m)12.8v31
738414 Apr 18:04:471213.3 mph15S (189°)9958910173726.6°C58.8%17.9°C4168ft (1270m)12.8v31
738314 Apr 18:04:361013.2 mph18S (191°)9958010172826.6°C58.8%17.9°C4168ft (1270m)12.79v31
738214 Apr 18:04:241513 mph17SSW (207°)9957410172226.6°C58.8%17.9°C4168ft (1270m)12.8v31
738114 Apr 18:04:131014.1 mph20S (185°)9957710172526.7°C58.5%17.9°C4204ft (1281m)12.8v31
738014 Apr 18:04:021313.7 mph18SSW (196°)9958010172826.7°C58.7%17.9°C4181ft (1274m)12.78v31
737914 Apr 18:03:51910.8 mph15SSW (210°)9958410173226.7°C58.6%17.9°C4193ft (1278m)12.8v31
737814 Apr 18:03:391011 mph13SSW (192°)9958410173226.7°C58.6%17.9°C4193ft (1278m)12.78v31
737714 Apr 18:03:281012.4 mph18S (184°)9958910173726.7°C58.6%17.9°C4193ft (1278m)12.8v31
737614 Apr 18:03:17812.6 mph17SSW (197°)9958110172926.7°C58.3%17.8°C4226ft (1288m)12.8v31
737514 Apr 18:03:061112.6 mph17S (184°)9958210173026.7°C58.4%17.9°C4215ft (1285m)12.79v31
737414 Apr 18:02:541112.4 mph14SSW (197°)9958610173426.8°C58.3%17.9°C4229ft (1289m)12.79v31
737314 Apr 18:02:431112 mph14S (184°)9957810172626.8°C58.3%17.9°C4229ft (1289m)12.8v31
737214 Apr 18:02:321214.4 mph19SSW (193°)9958310173126.8°C58.2%17.9°C4240ft (1292m)12.79v31
737114 Apr 18:02:21910.4 mph16SSW (197°)9958510173326.8°C58.3%17.9°C4229ft (1289m)12.78v31
737014 Apr 18:02:091212.8 mph14S (185°)9958010172826.8°C58.2%17.9°C4240ft (1292m)12.79v31
736914 Apr 18:01:581415.7 mph18S (189°)9958810173626.8°C58.1%17.9°C4251ft (1296m)12.79v31
736814 Apr 18:01:471011.4 mph14S (179°)9958910173726.8°C58.1%17.9°C4251ft (1296m)12.8v31
736714 Apr 18:01:361212.5 mph14SSW (194°)9958710173526.8°C57.9%17.8°C4274ft (1303m)12.79v31
736614 Apr 18:01:24810.8 mph13SSW (194°)9958610173426.8°C58%17.8°C4262ft (1299m)12.79v31
736514 Apr 18:01:13912.7 mph16SSW (212°)9958810173626.8°C58%17.8°C4262ft (1299m)12.79v31
736414 Apr 18:01:021416.6 mph19SSW (196°)9958210173026.8°C57.9%17.8°C4274ft (1303m)12.79v31
736314 Apr 18:00:511314.9 mph18S (186°)9958710173526.8°C58%17.8°C4262ft (1299m)12.79v31
736214 Apr 18:00:391113.3 mph16SSW (194°)9959110173926.8°C57.9%17.8°C4274ft (1303m)12.79v31
736114 Apr 18:00:281618.1 mph20SSW (195°)9959010173826.9°C57.8%17.9°C4288ft (1307m)12.8v31
736014 Apr 18:00:171416.4 mph21S (189°)9958310173126.9°C57.7%17.9°C4299ft (1310m)12.8v31
735914 Apr 18:00:061314.8 mph18S (188°)9958210173026.9°C57.6%17.8°C4310ft (1314m)12.81v31
735814 Apr 17:59:541617.4 mph20S (184°)9958610173426.9°C57.5%17.8°C4321ft (1317m)12.79v31
735714 Apr 17:59:431013.3 mph17S (186°)9957510172326.9°C57.6%17.8°C4310ft (1314m)12.8v31
735614 Apr 17:59:321214 mph19SSW (196°)9957910172726.9°C57.6%17.8°C4310ft (1314m)12.8v31
735514 Apr 17:59:211417.6 mph20SSW (199°)9958010172827°C57.5%17.9°C4324ft (1318m)12.79v31
735414 Apr 17:59:091618.1 mph21SSW (193°)9957810172627°C57.6%17.9°C4313ft (1315m)12.79v31
735314 Apr 17:58:581212.5 mph14S (189°)9957310172127°C57.6%17.9°C4313ft (1315m)12.79v31
735214 Apr 17:58:471214.1 mph18SSW (193°)9958210173027°C57.6%17.9°C4313ft (1315m)12.8v31
735114 Apr 17:58:361012.4 mph19S (189°)9958010172827°C57.7%17.9°C4302ft (1311m)12.8v31
735014 Apr 17:58:241011.6 mph15S (190°)9957910172727°C57.7%17.9°C4302ft (1311m)12.79v31
734914 Apr 17:58:131013 mph16S (188°)9958610173427°C57.7%17.9°C4302ft (1311m)12.8v31
734814 Apr 17:58:021111.8 mph14SSW (202°)9958210173027°C57.7%17.9°C4302ft (1311m)12.79v31
734714 Apr 17:57:51910.8 mph12S (190°)9958210173027°C57.9%18°C4279ft (1304m)12.8v31
734614 Apr 17:57:391112.5 mph14S (182°)9958610173427°C57.8%18°C4290ft (1308m)12.78v31
734514 Apr 17:57:28811 mph15SSW (195°)9958510173327°C57.8%18°C4290ft (1308m)12.8v31
734414 Apr 17:57:1777.5 mph10S (185°)9958610173427°C57.9%18°C4279ft (1304m)12.79v31
734314 Apr 17:57:0689.3 mph12SSW (196°)9958710173527°C57.8%18°C4290ft (1308m)12.81v31
734214 Apr 17:56:541011.5 mph13S (183°)9958310173127°C57.7%17.9°C4302ft (1311m)12.8v31
734114 Apr 17:56:4378.5 mph11S (188°)9958110172927°C57.8%18°C4290ft (1308m)12.8v31
734014 Apr 17:56:32910.6 mph13SSW (194°)9958910173727°C57.6%17.9°C4313ft (1315m)12.8v31
733914 Apr 17:56:211316 mph19S (189°)9958410173227°C57.6%17.9°C4313ft (1315m)12.78v31
733814 Apr 17:56:091213.9 mph16S (189°)9957410172227.1°C57.6%18°C4316ft (1316m)12.8v31
733714 Apr 17:55:581112.3 mph14SSW (197°)9958010172827.1°C57.6%18°C4316ft (1316m)12.79v31
733614 Apr 17:55:471111 mph14SSW (195°)9958810173627.1°C57.7%18°C4304ft (1312m)12.8v31
733514 Apr 17:55:361012 mph14SSW (197°)9958510173327.1°C57.4%18°C4338ft (1322m)12.81v31
733414 Apr 17:55:241012.5 mph14SSW (196°)9958010172827.1°C57.5%18°C4327ft (1319m)12.81v31
733314 Apr 17:55:131414.4 mph16S (188°)9957810172627°C57.5%17.9°C4324ft (1318m)12.8v31
733214 Apr 17:55:021115.5 mph18SSW (193°)9958210173027°C57.5%17.9°C4324ft (1318m)12.81v31
733114 Apr 17:54:511013.6 mph18SSW (203°)9958510173327.1°C57.5%18°C4327ft (1319m)12.8v31
733014 Apr 17:54:391213.6 mph15SSW (195°)9956910171727.1°C57.6%18°C4316ft (1316m)12.8v31
732914 Apr 17:54:281314.9 mph17S (190°)9958110172927.1°C57.5%18°C4327ft (1319m)12.81v31
732814 Apr 17:54:171616.8 mph19SSW (195°)9958210173027.1°C57.5%18°C4327ft (1319m)12.81v31
732714 Apr 17:54:06912.6 mph16S (191°)9958610173427.1°C57.5%18°C4327ft (1319m)12.81v31
732614 Apr 17:53:541111.6 mph15SSW (194°)9957510172327.1°C57.5%18°C4327ft (1319m)12.81v31
732514 Apr 17:53:431314.9 mph18S (191°)9957610172427.1°C57.4%18°C4338ft (1322m)12.8v31
732414 Apr 17:53:321113.6 mph17SSW (192°)9956410171227.1°C57.3%17.9°C4350ft (1326m)12.79v31
732314 Apr 17:53:211314.6 mph19S (181°)9958810173627.1°C57.4%18°C4338ft (1322m)12.8v31
732214 Apr 17:53:091012.8 mph18SSW (192°)9957110171927.1°C57.5%18°C4327ft (1319m)12.79v31
732114 Apr 17:52:581213.2 mph16S (189°)9957510172327.1°C57.5%18°C4327ft (1319m)12.8v31
732014 Apr 17:52:471112.5 mph15S (185°)9958810173627.1°C57.2%17.9°C4361ft (1329m)12.8v31
731914 Apr 17:52:361416.4 mph18S (182°)9957910172727.1°C57.3%17.9°C4350ft (1326m)12.81v31
731814 Apr 17:52:241012.7 mph15S (190°)9957010171827.2°C57.3%18°C4353ft (1327m)12.81v31
731714 Apr 17:52:13810.5 mph13S (189°)9958110172927.2°C57.3%18°C4353ft (1327m)12.82v31
731614 Apr 17:52:021314.6 mph18SSW (205°)9958010172827.1°C57.2%17.9°C4361ft (1329m)12.8v31
731514 Apr 17:51:511415.8 mph19S (191°)9957410172227.2°C57.1%18°C4375ft (1334m)12.8v31
731414 Apr 17:51:391514.1 mph18SSW (197°)9957510172327.2°C57.1%18°C4375ft (1334m)12.8v31
731314 Apr 17:51:281213.2 mph16S (182°)9957810172627.2°C57.1%18°C4375ft (1334m)12.81v31
731214 Apr 17:51:171010.4 mph13S (191°)9957910172727.2°C57.3%18°C4353ft (1327m)12.8v31
731114 Apr 17:51:0679 mph12S (188°)9958110172927.2°C57.3%18°C4353ft (1327m)12.82v31
731014 Apr 17:50:5499.3 mph11SSW (192°)9957710172527.2°C57.2%18°C4364ft (1330m)12.82v31
730914 Apr 17:50:431212.6 mph14SSW (194°)9957410172227.2°C57.1%18°C4375ft (1334m)12.81v31
730814 Apr 17:50:321010.9 mph13S (188°)9957210172027.2°C57.1%18°C4375ft (1334m)12.81v31
730714 Apr 17:50:21910 mph13S (190°)9957910172727.2°C57%17.9°C4387ft (1337m)12.81v31
730614 Apr 17:50:091010.7 mph12S (190°)9957510172327.2°C57.1%18°C4375ft (1334m)12.8v31
730514 Apr 17:49:5889.5 mph12SSW (198°)9957210172027.2°C57.1%18°C4375ft (1334m)12.8v31
730414 Apr 17:49:471111.9 mph13SSW (196°)9957710172527.2°C57.1%18°C4375ft (1334m)12.8v31
730314 Apr 17:49:361012.6 mph15SSW (203°)9958110172927.2°C57%17.9°C4387ft (1337m)12.82v31
730214 Apr 17:49:241112.4 mph14S (188°)9957410172227.2°C57%17.9°C4387ft (1337m)12.82v31
730114 Apr 17:49:1389.4 mph13S (190°)9957510172327.3°C56.7%17.9°C4424ft (1348m)12.82v31
730014 Apr 17:49:02810.3 mph13S (188°)9957610172427.3°C57%18°C4390ft (1338m)12.82v31
729914 Apr 17:48:511013.1 mph16S (181°)9957910172727.3°C56.9%18°C4401ft (1341m)12.82v31
729814 Apr 17:48:391012.8 mph15S (184°)9956910171727.3°C56.9%18°C4401ft (1341m)12.8v31
729714 Apr 17:48:28910 mph13SSW (194°)9957710172527.3°C56.9%18°C4401ft (1341m)12.79v31
729614 Apr 17:48:1789.5 mph12S (189°)9956510171327.3°C56.9%18°C4401ft (1341m)12.81v31
729514 Apr 17:48:0678.8 mph11SSW (207°)9957210172027.3°C57%18°C4390ft (1338m)12.82v31
729414 Apr 17:47:5479.9 mph13SSW (197°)9957210172027.3°C56.9%18°C4401ft (1341m)12.82v31
729314 Apr 17:47:431212.4 mph14SSW (200°)9957210172027.3°C56.9%18°C4401ft (1341m)12.82v31
729214 Apr 17:47:321213.1 mph15SSW (194°)9956910171727.3°C57%18°C4390ft (1338m)12.8v31
729114 Apr 17:47:211111.9 mph15SSW (200°)9956910171727.3°C56.9%18°C4401ft (1341m)12.84v31
729014 Apr 17:47:091011.3 mph14SSW (193°)9957710172527.3°C57%18°C4390ft (1338m)12.81v31
728914 Apr 17:46:581313.9 mph16S (184°)9957110171927.3°C56.8%18°C4412ft (1345m)12.81v31
728814 Apr 17:46:471012.8 mph16S (184°)9957010171827.3°C56.9%18°C4401ft (1341m)12.82v31
728714 Apr 17:46:361111.1 mph12S (188°)9956610171427.3°C56.9%18°C4401ft (1341m)12.82v31
728614 Apr 17:46:241111.2 mph12SSW (195°)9957110171927.3°C56.9%18°C4401ft (1341m)12.83v31
728514 Apr 17:46:131111.3 mph12S (191°)9956810171627.3°C57%18°C4390ft (1338m)12.83v31
728414 Apr 17:46:0289.5 mph13SSW (192°)9957510172327.3°C57%18°C4390ft (1338m)12.82v31
728314 Apr 17:45:51911.7 mph15SSW (196°)9956710171527.3°C56.9%18°C4401ft (1341m)12.82v31
728214 Apr 17:45:391212.4 mph13SSW (193°)9957010171827.3°C57.1%18.1°C4378ft (1334m)12.82v31
728114 Apr 17:45:281213.3 mph16SSW (206°)9956810171627.3°C56.9%18°C4401ft (1341m)12.82v31
728014 Apr 17:45:17810.6 mph13SSW (194°)9956710171527.3°C57%18°C4390ft (1338m)12.81v31
727914 Apr 17:45:061012 mph14S (184°)9956810171627.3°C57%18°C4390ft (1338m)12.84v31
727814 Apr 17:44:54810.3 mph16SSW (199°)9956910171727.3°C57.1%18.1°C4378ft (1334m)12.85v31
727714 Apr 17:44:431013 mph15S (188°)9956810171627.3°C57%18°C4390ft (1338m)12.84v31
727614 Apr 17:44:321212.7 mph15S (191°)9956410171227.3°C56.9%18°C4401ft (1341m)12.83v31
727514 Apr 17:44:211415.7 mph17S (183°)9956310171127.3°C56.8%18°C4412ft (1345m)12.82v31
727414 Apr 17:44:091112.8 mph15S (191°)9955910170727.3°C56.7%17.9°C4424ft (1348m)12.83v31
727314 Apr 17:43:58911.6 mph15S (190°)9956910171727.3°C56.8%18°C4412ft (1345m)12.81v31
727214 Apr 17:43:47911 mph13SSW (204°)9956210171027.3°C56.9%18°C4401ft (1341m)12.83v31
727114 Apr 17:43:361010.7 mph14S (187°)9957110171927.3°C56.9%18°C4401ft (1341m)12.82v31
727014 Apr 17:43:241111.9 mph14SSW (192°)9956610171427.3°C56.8%18°C4412ft (1345m)12.84v31
726914 Apr 17:43:1399.5 mph11S (181°)9956610171427.3°C56.8%18°C4412ft (1345m)12.84v31
726814 Apr 17:43:0269.2 mph14S (181°)9956710171527.3°C57%18°C4390ft (1338m)12.84v31
726714 Apr 17:42:511113.2 mph17SSW (196°)9955810170527.3°C57%18°C4390ft (1338m)12.83v31
726614 Apr 17:42:391114.4 mph16S (187°)9956110170927.3°C56.9%18°C4401ft (1341m)12.82v31
726514 Apr 17:42:281012.6 mph16S (191°)9955910170727.3°C57%18°C4390ft (1338m)12.83v31
726414 Apr 17:42:171112.4 mph15SSW (192°)9956410171227.3°C56.8%18°C4412ft (1345m)12.83v31
726314 Apr 17:42:061010.7 mph13S (189°)9956210171027.3°C56.8%18°C4412ft (1345m)12.83v31
726214 Apr 17:41:541314.4 mph16SSW (201°)9956610171427.4°C56.8%18.1°C4415ft (1346m)12.84v31
726114 Apr 17:41:43912.7 mph15SSW (210°)9956510171327.4°C56.8%18.1°C4415ft (1346m)12.84v31
726014 Apr 17:41:321616.4 mph17S (191°)9956610171427.4°C56.8%18.1°C4415ft (1346m)12.83v31
725914 Apr 17:41:21913 mph18SSW (196°)9956110170927.4°C56.7%18°C4427ft (1349m)12.84v31
725814 Apr 17:41:091214.1 mph16S (186°)9955710170427.4°C56.6%18°C4438ft (1353m)12.84v31
725714 Apr 17:40:581314.5 mph16S (177°)9955510170227.4°C56.6%18°C4438ft (1353m)12.83v31
725614 Apr 17:40:471010.5 mph16SSW (192°)9957010171827.4°C56.9%18.1°C4404ft (1342m)12.83v31
725514 Apr 17:40:361112.5 mph16S (173°)9954610169327.4°C57%18.1°C4392ft (1339m)12.83v31
725414 Apr 17:40:24912.6 mph16SSW (201°)9956210171027.4°C56.8%18.1°C4415ft (1346m)12.83v31
725314 Apr 17:40:13812.3 mph15SSW (199°)9956410171227.5°C56.8%18.2°C4418ft (1347m)12.85v31
725214 Apr 17:40:02611.2 mph17SSW (198°)9956410171227.5°C56.7%18.1°C4430ft (1350m)12.85v31
725114 Apr 17:39:5167 mph9SSW (205°)9956710171527.4°C56.8%18.1°C4415ft (1346m)12.83v31
725014 Apr 17:39:3988.8 mph11S (190°)9956310171127.4°C56.9%18.1°C4404ft (1342m)12.85v31
724914 Apr 17:39:281213.8 mph17S (186°)9955910170727.4°C56.7%18°C4427ft (1349m)12.83v31
724814 Apr 17:39:1789.2 mph11S (184°)9955810170527.4°C56.8%18.1°C4415ft (1346m)12.84v31
724714 Apr 17:39:061013.6 mph16S (184°)9956010170827.4°C56.7%18°C4427ft (1349m)12.86v31
724614 Apr 17:38:541414.8 mph18SSW (199°)9955610170327.4°C56.8%18.1°C4415ft (1346m)12.84v31
724514 Apr 17:38:431314.5 mph15SSW (200°)9955510170227.5°C56.6%18.1°C4441ft (1354m)12.86v31
724414 Apr 17:38:321113.4 mph17SSW (195°)9955810170527.5°C56.6%18.1°C4441ft (1354m)12.85v31
724314 Apr 17:38:211112.7 mph15SSW (198°)9956210171027.5°C56.6%18.1°C4441ft (1354m)12.85v31
724214 Apr 17:38:091313.1 mph15SSW (205°)9956010170827.5°C56.6%18.1°C4441ft (1354m)12.84v31
724114 Apr 17:37:58911.1 mph15SSW (200°)9956310171127.5°C56.5%18.1°C4453ft (1357m)12.86v31
724014 Apr 17:37:47911.2 mph14SSW (199°)9956110170927.5°C56.5%18.1°C4453ft (1357m)12.84v31
723914 Apr 17:37:36810.4 mph14SSW (194°)9955610170327.5°C56.6%18.1°C4441ft (1354m)12.84v31
723814 Apr 17:37:241111.7 mph13SSW (200°)9955910170727.5°C56.6%18.1°C4441ft (1354m)12.85v31
723714 Apr 17:37:131212.4 mph13SSW (196°)9956110170927.5°C56.5%18.1°C4453ft (1357m)12.87v31
723614 Apr 17:37:021212.3 mph15SSW (197°)9956010170827.5°C56.5%18.1°C4453ft (1357m)12.86v31
723514 Apr 17:36:511213.5 mph16SSW (203°)9955410170127.5°C56.5%18.1°C4453ft (1357m)12.85v31
723414 Apr 17:36:391315.2 mph17S (185°)9955910170727.6°C56.6%18.2°C4444ft (1355m)12.85v31
723314 Apr 17:36:28910.1 mph12SSW (192°)9955310170027.6°C56.3%18.1°C4479ft (1365m)12.86v31
723214 Apr 17:36:17910.3 mph12S (183°)9956110170927.5°C56.4%18.1°C4464ft (1361m)12.85v31
723114 Apr 17:36:061212.5 mph14S (191°)9955810170527.6°C56.3%18.1°C4479ft (1365m)12.86v31
723014 Apr 17:35:541012.7 mph17SSW (194°)9955910170727.6°C56.4%18.1°C4467ft (1362m)12.86v31
722914 Apr 17:35:431314.1 mph16S (182°)9955810170527.6°C56.5%18.2°C4456ft (1358m)12.87v31
722814 Apr 17:35:321213.3 mph16SSW (192°)9955410170127.6°C56.3%18.1°C4479ft (1365m)12.87v31
722714 Apr 17:35:21910.5 mph12SSW (194°)9955210169927.6°C56.3%18.1°C4479ft (1365m)12.87v31
722614 Apr 17:35:091010.8 mph12SSW (194°)9955910170727.6°C56.3%18.1°C4479ft (1365m)12.88v31
722514 Apr 17:34:581112.5 mph15SSW (201°)9955610170327.6°C56.3%18.1°C4479ft (1365m)12.86v31
722414 Apr 17:34:471011.9 mph13SSW (193°)9955410170127.6°C56.3%18.1°C4479ft (1365m)12.86v31
722314 Apr 17:34:3699.1 mph12SSW (200°)9955810170527.6°C56.3%18.1°C4479ft (1365m)12.85v31
722214 Apr 17:34:241013.5 mph16S (189°)9955510170227.6°C56.2%18.1°C4490ft (1369m)12.89v31
722114 Apr 17:34:131014.3 mph17SSW (194°)9954510169227.6°C56.2%18.1°C4490ft (1369m)12.87v31
722014 Apr 17:34:021011 mph12SSW (198°)9955810170527.6°C56.1%18.1°C4502ft (1372m)12.87v31
721914 Apr 17:33:5189.7 mph12S (178°)9955510170227.6°C56.1%18.1°C4502ft (1372m)12.86v31
721814 Apr 17:33:391012.5 mph18S (186°)9955310170027.6°C56%18°C4514ft (1376m)12.88v31
721714 Apr 17:33:281112.6 mph15SSW (192°)9954810169527.6°C56.1%18.1°C4502ft (1372m)12.88v31
721614 Apr 17:33:1789.5 mph11S (191°)9955110169827.6°C55.9%18°C4525ft (1379m)12.87v31
721514 Apr 17:33:0589.6 mph11SSW (197°)9955610170327.6°C56%18°C4514ft (1376m)12.86v31
721414 Apr 17:32:541011.8 mph14SSW (202°)9955810170527.6°C56%18°C4514ft (1376m)12.88v31
721314 Apr 17:32:431011.4 mph18SSW (208°)9955510170227.6°C55.9%18°C4525ft (1379m)12.89v31
721214 Apr 17:32:321012.2 mph14SSW (196°)9955410170127.6°C56.1%18.1°C4502ft (1372m)12.88v31
721114 Apr 17:32:201415.6 mph17SSW (195°)9955210169927.6°C56.1%18.1°C4502ft (1372m)12.88v31
721014 Apr 17:32:091719.1 mph22SSW (192°)9955710170427.6°C56%18°C4514ft (1376m)12.88v31
720914 Apr 17:31:5899.4 mph13S (189°)9955810170527.6°C55.9%18°C4525ft (1379m)12.9v31
720814 Apr 17:31:471113.2 mph16SSW (195°)9954810169527.6°C55.6%17.9°C4560ft (1390m)12.88v31
720714 Apr 17:31:351012 mph15S (185°)9955810170527.6°C56%18°C4514ft (1376m)12.87v31
720614 Apr 17:31:241315.7 mph19S (186°)9955410170127.6°C56%18°C4514ft (1376m)12.88v31
720514 Apr 17:31:131113.7 mph16S (172°)9955310170027.6°C55.9%18°C4525ft (1379m)12.9v31
720414 Apr 17:31:021010.7 mph13S (188°)9954910169627.6°C55.8%18°C4537ft (1383m)12.9v31
720314 Apr 17:30:501313.4 mph14S (190°)9955410170127.6°C55.9%18°C4525ft (1379m)12.9v31
720214 Apr 17:30:391212.5 mph15S (183°)9955210169927.6°C56%18°C4514ft (1376m)12.9v31
720114 Apr 17:30:281214 mph16S (190°)9954910169627.6°C56%18°C4514ft (1376m)12.9v31
720014 Apr 17:30:17912.9 mph17SSW (196°)9954010168727.7°C56%18.1°C4517ft (1377m)12.9v31
719914 Apr 17:30:061113.1 mph15SSW (197°)9954710169427.7°C55.8%18.1°C4540ft (1384m)12.9v31
719814 Apr 17:29:541515.3 mph17S (189°)9954310169027.7°C55.7%18°C4552ft (1387m)12.88v31
719714 Apr 17:29:431214.6 mph17S (182°)9954810169527.7°C55.8%18.1°C4540ft (1384m)12.91v31
719614 Apr 17:29:321213.1 mph15S (186°)9953210167927.7°C55.8%18.1°C4540ft (1384m)12.92v31
719514 Apr 17:29:211011.3 mph13S (180°)9954710169427.7°C55.9%18.1°C4528ft (1380m)12.91v31
719414 Apr 17:29:091012.3 mph16S (176°)9954310169027.7°C56.1%18.2°C4505ft (1373m)12.91v31
719314 Apr 17:28:58811.8 mph16S (186°)9955510170227.7°C55.8%18.1°C4540ft (1384m)12.91v31
719214 Apr 17:28:4767.9 mph12SSW (210°)9954710169427.7°C55.9%18.1°C4528ft (1380m)12.92v31
719114 Apr 17:28:3689.5 mph13SSW (192°)9955410170127.7°C56.1%18.2°C4505ft (1373m)12.91v31
719014 Apr 17:28:241415.3 mph17SSW (192°)9954510169227.7°C56.1%18.2°C4505ft (1373m)12.93v31
718914 Apr 17:28:131617 mph19SSW (195°)9954610169327.7°C56.1%18.2°C4505ft (1373m)12.92v31
718814 Apr 17:28:021014.1 mph18S (187°)9953310168027.8°C55.7%18.1°C4555ft (1388m)12.94v31
718714 Apr 17:27:51811.1 mph14S (180°)9954910169627.8°C55.8%18.2°C4543ft (1385m)12.93v31
718614 Apr 17:27:39910.7 mph13SSW (199°)9954710169427.8°C55.8%18.2°C4543ft (1385m)12.94v31
718514 Apr 17:27:281316.8 mph19S (186°)9955210169927.8°C55.9%18.2°C4531ft (1381m)12.95v31
718414 Apr 17:27:171213.4 mph15SSW (192°)9954410169127.8°C55.8%18.2°C4543ft (1385m)12.94v31
718314 Apr 17:27:06911.5 mph13S (189°)9954610169327.8°C55.8%18.2°C4543ft (1385m)12.95v31
718214 Apr 17:26:541415.7 mph18S (191°)9954410169127.8°C55.9%18.2°C4531ft (1381m)12.94v31
718114 Apr 17:26:431314.2 mph17SSW (193°)9954310169027.8°C55.6%18.1°C4566ft (1392m)12.96v31
718014 Apr 17:26:321213.9 mph17SSW (198°)9954210168927.8°C55.6%18.1°C4566ft (1392m)12.96v31
717914 Apr 17:26:2178.9 mph12SSW (194°)9955010169727.9°C55.4%18.1°C4593ft (1400m)12.99v31
717814 Apr 17:26:09911.3 mph13SSW (196°)9955010169727.8°C55.3%18°C4602ft (1403m)12.97v31
717714 Apr 17:25:581213 mph14SSW (193°)9954410169127.9°C55.2%18.1°C4616ft (1407m)12.98v31
717614 Apr 17:25:4789.5 mph12SSW (197°)9955510170227.9°C55.4%18.1°C4593ft (1400m)13v31
717514 Apr 17:25:36810.6 mph13S (182°)9955210169927.8°C55.5%18.1°C4578ft (1395m)13v31
717414 Apr 17:25:241011.5 mph13S (188°)9955310170027.8°C55.3%18°C4602ft (1403m)13.01v31
717314 Apr 17:25:131010.9 mph13S (189°)9954810169527.9°C55.3%18.1°C4604ft (1403m)13.03v31
717214 Apr 17:25:021113 mph16S (184°)9953810168527.9°C55.3%18.1°C4604ft (1403m)13.03v31
717114 Apr 17:24:511012.4 mph15S (185°)9954510169227.8°C55.2%18°C4613ft (1406m)13.07v31
717014 Apr 17:24:391115.3 mph19SSW (192°)9953210167927.9°C55.1%18.1°C4628ft (1411m)13.1v31
716914 Apr 17:24:28510.5 mph15S (191°)9954210168927.9°C55%18°C4640ft (1414m)13.1v31
716814 Apr 17:24:17611.2 mph14SSW (195°)9954510169227.9°C55%18°C4640ft (1414m)13.13v31
716714 Apr 17:24:0658.2 mph12S (184°)9953710168427.9°C55%18°C4640ft (1414m)13.16v31
716614 Apr 17:23:54911.4 mph15S (187°)9954510169227.9°C54.9%18°C4652ft (1418m)13.18v31
716514 Apr 17:23:43810.5 mph13SSW (194°)9954010168727.9°C54.8%18°C4664ft (1422m)13.21v31
716414 Apr 17:23:32910.6 mph13SSW (193°)9954810169527.9°C54.5%17.9°C4700ft (1433m)13.23v31
716314 Apr 17:23:21910.7 mph14S (183°)9953810168527.9°C54.5%17.9°C4700ft (1433m)13.25v31
716214 Apr 17:23:0999.1 mph10SSW (203°)9954510169227.9°C54.4%17.8°C4711ft (1436m)13.25v31
716114 Apr 17:22:581010.4 mph12S (189°)9954110168827.9°C54.4%17.8°C4711ft (1436m)13.28v31
716014 Apr 17:22:4789.7 mph12SSW (193°)9954610169328°C54.3%17.9°C4727ft (1441m)13.33v31
715914 Apr 17:22:361314.1 mph15S (190°)9953410168127.9°C54.3%17.8°C4723ft (1440m)13.31v31
715814 Apr 17:22:241112.7 mph14S (185°)9953810168527.9°C54.2%17.8°C4735ft (1443m)13.34v31
715714 Apr 17:22:1389.8 mph14S (187°)9954710169428°C54.1%17.9°C4751ft (1448m)13.36v31
715614 Apr 17:22:02910.6 mph12S (183°)9954110168828°C54.2%17.9°C4739ft (1444m)13.39v31
715514 Apr 17:21:5179.7 mph13S (181°)9953310168028°C54.1%17.9°C4751ft (1448m)13.42v31
715414 Apr 17:21:39810.3 mph13SSW (196°)9954510169228°C54.1%17.9°C4751ft (1448m)13.41v31
715314 Apr 17:21:2867.8 mph12S (191°)9954710169428°C54.2%17.9°C4739ft (1444m)13.42v31
715214 Apr 17:21:17811.3 mph16SSW (195°)9954210168927.9°C54.2%17.8°C4735ft (1443m)13.41v31
715114 Apr 17:21:061112.4 mph14SSW (200°)9954110168828°C54%17.8°C4763ft (1452m)13.45v31
715014 Apr 17:20:54911.2 mph15SSW (200°)9953710168428°C53.8%17.8°C4787ft (1459m)13.46v31
714914 Apr 17:20:431414.5 mph17SSW (203°)9954010168728°C53.7%17.7°C4799ft (1463m)13.46v31
714814 Apr 17:20:32910.3 mph11S (190°)9954010168728.1°C53.6%17.8°C4814ft (1467m)13.47v31
714714 Apr 17:20:2168.5 mph12SSW (196°)9954410169128.1°C53.7%17.8°C4802ft (1464m)13.48v31
714614 Apr 17:20:09811.9 mph14SSW (199°)9953610168328.1°C53.5%17.8°C4826ft (1471m)13.5v31
714514 Apr 17:19:5877.7 mph9S (190°)9954510169228.1°C53.6%17.8°C4814ft (1467m)13.5v31
714414 Apr 17:19:47810.2 mph12S (191°)9954410169128.1°C53.3%17.7°C4851ft (1479m)13.5v31
714314 Apr 17:19:3667.9 mph10SSW (201°)9953910168628.1°C53.5%17.8°C4826ft (1471m)13.5v31
714214 Apr 17:19:241112.3 mph14S (189°)9953510168228°C53.4%17.6°C4835ft (1474m)13.48v31
714114 Apr 17:19:13910.9 mph13S (189°)9953910168628.1°C53.3%17.7°C4851ft (1479m)13.49v31
714014 Apr 17:19:021111.5 mph13SSW (194°)9954310169028.1°C53.3%17.7°C4851ft (1479m)13.49v31
713914 Apr 17:18:51910.5 mph13SSW (196°)9953810168528.1°C53.2%17.7°C4863ft (1482m)13.49v31
713814 Apr 17:18:3989.5 mph10SSW (193°)9954010168728.1°C53.1%17.6°C4875ft (1486m)13.5v31
713714 Apr 17:18:281011.7 mph14SSW (198°)9954110168828.1°C53.1%17.6°C4875ft (1486m)13.47v31
713614 Apr 17:18:17710.3 mph12S (190°)9953810168528.1°C53.1%17.6°C4875ft (1486m)13.5v31
713514 Apr 17:18:061112.3 mph14S (180°)9953610168328.1°C53.2%17.7°C4863ft (1482m)13.5v31
713414 Apr 17:17:5478.7 mph10S (180°)9953810168528.1°C52.8%17.6°C4912ft (1497m)13.48v31
713314 Apr 17:17:43810.6 mph14SSW (198°)9954010168728.1°C52.8%17.6°C4912ft (1497m)13.5v31
713214 Apr 17:17:321212.5 mph14SSW (195°)9954010168728.1°C52.8%17.6°C4912ft (1497m)13.51v31
713114 Apr 17:17:21811.4 mph14S (190°)9954110168828.1°C52.5%17.5°C4949ft (1508m)13.53v31
713014 Apr 17:17:091112.8 mph17SSW (201°)9953410168128.1°C52.6%17.5°C4937ft (1505m)13.52v31
712914 Apr 17:16:5899.8 mph15S (173°)9953810168528.1°C52.5%17.5°C4949ft (1508m)13.5v31
712814 Apr 17:16:471012.7 mph15S (183°)9953710168428.1°C52.5%17.5°C4949ft (1508m)13.48v31
712714 Apr 17:16:36810.1 mph14SSW (192°)9953010167728.2°C52.5%17.6°C4952ft (1509m)13.48v31
712614 Apr 17:16:24910.8 mph14SSW (194°)9953810168528.1°C52.3%17.4°C4974ft (1516m)13.48v31
712514 Apr 17:16:1388.9 mph10S (188°)9953510168228.1°C52.4%17.4°C4961ft (1512m)13.5v31
712414 Apr 17:16:02910.3 mph13SSW (196°)9953910168628.2°C52.3%17.5°C4977ft (1517m)13.49v31
712314 Apr 17:15:5189.1 mph10S (191°)9953610168328.2°C52.3%17.5°C4977ft (1517m)13.49v31
712214 Apr 17:15:3978.3 mph9SSW (206°)9953710168428.2°C52.4%17.5°C4965ft (1513m)13.48v31
712114 Apr 17:15:2888.9 mph10SSW (197°)9954210168928.2°C52.2%17.5°C4989ft (1521m)13.51v31
712014 Apr 17:15:17911.1 mph13S (188°)9953510168228.2°C52.2%17.5°C4989ft (1521m)13.51v31
711914 Apr 17:15:061010.3 mph12SSW (205°)9953110167828.2°C52.1%17.4°C5002ft (1525m)13.5v31
711814 Apr 17:14:5489.9 mph11SSW (202°)9954010168728.2°C52.2%17.5°C4989ft (1521m)13.51v31
711714 Apr 17:14:4399.7 mph11S (182°)9953610168328.2°C52%17.4°C5014ft (1528m)13.51v31
711614 Apr 17:14:32911.5 mph15S (171°)9953810168528.2°C52.1%17.4°C5002ft (1525m)13.49v31
711514 Apr 17:14:211011.2 mph16S (174°)9952610167328.2°C52.1%17.4°C5002ft (1525m)13.49v31
711414 Apr 17:14:091314.7 mph17S (184°)9954110168828.2°C51.9%17.4°C5027ft (1532m)13.49v31
711314 Apr 17:13:581013.7 mph18S (182°)9951210165828.2°C52.1%17.4°C5002ft (1525m)13.5v31
711214 Apr 17:13:471011.6 mph16SSW (196°)9953810168528.2°C52.1%17.4°C5002ft (1525m)13.49v31
711114 Apr 17:13:36911.9 mph17S (191°)9953110167828.2°C51.9%17.4°C5027ft (1532m)13.48v31
711014 Apr 17:13:24810 mph13S (188°)9953510168228.2°C51.9%17.4°C5027ft (1532m)13.47v31
710914 Apr 17:13:1367 mph10SSW (199°)9953610168328.2°C52%17.4°C5014ft (1528m)13.51v31
710814 Apr 17:13:0299.9 mph12S (181°)9953810168528.2°C52%17.4°C5014ft (1528m)13.49v31
710714 Apr 17:12:511011 mph14SSW (193°)9953610168328.2°C51.7%17.3°C5052ft (1540m)13.48v31
710614 Apr 17:12:391010.9 mph14S (180°)9953510168228.2°C51.9%17.4°C5027ft (1532m)13.49v31
710514 Apr 17:12:28711 mph14S (190°)9953410168128.2°C51.7%17.3°C5052ft (1540m)13.5v31
710414 Apr 17:12:1799.6 mph12S (187°)9953110167828.2°C51.8%17.3°C5039ft (1536m)13.5v31
710314 Apr 17:12:0689.2 mph11S (186°)9953410168128.2°C51.8%17.3°C5039ft (1536m)13.53v31
710214 Apr 17:11:5499.8 mph12S (189°)9953610168328.2°C51.7%17.3°C5052ft (1540m)13.53v31
710114 Apr 17:11:43910 mph11S (189°)9953910168628.2°C51.6%17.3°C5064ft (1544m)13.54v31
710014 Apr 17:11:321111.8 mph13S (186°)9953410168128.2°C51.5%17.3°C5077ft (1547m)13.54v31
709914 Apr 17:11:2188.4 mph10SSW (196°)9953210167928.2°C51.5%17.3°C5077ft (1547m)13.51v31
709814 Apr 17:11:09912.3 mph15S (183°)9953310168028.2°C51.5%17.3°C5077ft (1547m)13.49v31
709714 Apr 17:10:58810.4 mph13S (190°)9953510168228.2°C51.5%17.3°C5077ft (1547m)13.48v31
709614 Apr 17:10:471112 mph14SSW (198°)9953310168028.2°C51.5%17.3°C5077ft (1547m)13.51v31
709514 Apr 17:10:361111.7 mph13S (188°)9952210166928.2°C51.6%17.3°C5064ft (1544m)13.56v31
709414 Apr 17:10:241313 mph15S (190°)9952810167528.3°C51.4%17.3°C5093ft (1552m)13.54v31
709314 Apr 17:10:131010.9 mph13SSW (192°)9953410168128.3°C51.4%17.3°C5093ft (1552m)13.45v31
709214 Apr 17:10:021011.2 mph13SSW (207°)9953210167928.3°C51.3%17.3°C5106ft (1556m)13.48v31
709114 Apr 17:09:5198.9 mph10SSW (198°)9953210167928.3°C51.3%17.3°C5106ft (1556m)13.56v31
709014 Apr 17:09:39910.3 mph13S (189°)9953110167828.3°C51.3%17.3°C5106ft (1556m)13.53v31
708914 Apr 17:09:2879 mph12S (178°)9952610167328.3°C51.3%17.3°C5106ft (1556m)13.49v31
708814 Apr 17:09:1778.6 mph12SSW (196°)9952910167628.3°C51.3%17.3°C5106ft (1556m)13.49v31
708714 Apr 17:09:0677.6 mph9SSW (194°)9953110167828.3°C51.3%17.3°C5106ft (1556m)13.54v31
708614 Apr 17:08:5488.9 mph12S (189°)9953110167828.3°C51.1%17.2°C5131ft (1564m)13.48v31
708514 Apr 17:08:43910.8 mph13S (190°)9953110167828.3°C50.9%17.2°C5156ft (1572m)13.49v31
708414 Apr 17:08:32910.6 mph12S (191°)9952910167628.3°C51.1%17.2°C5131ft (1564m)13.49v31
708314 Apr 17:08:2169 mph11S (190°)9953210167928.3°C51.1%17.2°C5131ft (1564m)13.51v31
708214 Apr 17:08:0967.1 mph10SSW (194°)9953210167928.3°C51.1%17.2°C5131ft (1564m)13.52v31
708114 Apr 17:07:581011.4 mph14S (184°)9952210166928.3°C51%17.2°C5144ft (1568m)13.53v31
708014 Apr 17:07:471012.2 mph16S (182°)9953010167728.3°C51.1%17.2°C5131ft (1564m)13.54v31
707914 Apr 17:07:3678 mph9S (186°)9953510168228.3°C51%17.2°C5144ft (1568m)13.53v31
707814 Apr 17:07:24910.1 mph12S (179°)9953110167828.4°C50.9%17.3°C5160ft (1573m)13.53v31
707714 Apr 17:07:13910.3 mph12S (173°)9953210167928.3°C51.2%17.3°C5118ft (1560m)13.51v31
707614 Apr 17:07:021110.7 mph12SSW (199°)9953110167828.3°C51.1%17.2°C5131ft (1564m)13.5v31
707514 Apr 17:06:501212.2 mph13S (173°)9952710167428.3°C51.1%17.2°C5131ft (1564m)13.5v31
707414 Apr 17:06:391114.2 mph16S (190°)9952210166928.3°C51.2%17.3°C5118ft (1560m)13.48v31
707314 Apr 17:06:281012.1 mph13S (182°)9952810167528.4°C50.9%17.3°C5160ft (1573m)13.48v31
707214 Apr 17:06:17911.7 mph15S (188°)9952710167428.4°C51.1%17.3°C5134ft (1565m)13.51v31
707114 Apr 17:06:061013 mph17S (188°)9952110166828.4°C50.8%17.2°C5172ft (1576m)13.48v31
707014 Apr 17:05:541315.2 mph17SSW (200°)9952510167228.4°C50.8%17.2°C5172ft (1576m)13.5v31
706914 Apr 17:05:431012.8 mph18S (185°)9953310168028.4°C51%17.3°C5147ft (1569m)13.51v31
706814 Apr 17:05:321112.5 mph15SSW (194°)9952710167428.4°C51%17.3°C5147ft (1569m)13.52v31
706714 Apr 17:05:21910.7 mph12SSW (196°)9952910167628.4°C51%17.3°C5147ft (1569m)13.5v31
706614 Apr 17:05:091213.2 mph14S (184°)9952910167628.4°C51%17.3°C5147ft (1569m)13.49v31
706514 Apr 17:04:5878 mph10SSW (199°)9953210167928.4°C51%17.3°C5147ft (1569m)13.5v31
706414 Apr 17:04:4779.6 mph12SSW (204°)9952710167428.4°C51.1%17.3°C5134ft (1565m)13.5v31
706314 Apr 17:04:361010.8 mph12S (189°)9952710167428.4°C50.9%17.3°C5160ft (1573m)13.51v31
706214 Apr 17:04:241011 mph12S (185°)9952710167428.4°C51%17.3°C5147ft (1569m)13.49v31
706114 Apr 17:04:13810.9 mph13S (174°)9952910167628.4°C51.2%17.3°C5122ft (1561m)13.48v31
706014 Apr 17:04:02910.4 mph13S (182°)9952810167528.4°C50.9%17.3°C5160ft (1573m)13.48v31
705914 Apr 17:03:5189.7 mph11SSW (196°)9952510167228.4°C51%17.3°C5147ft (1569m)13.48v31
705814 Apr 17:03:39810.4 mph13S (189°)9952810167528.4°C51.1%17.3°C5134ft (1565m)13.48v31
705714 Apr 17:03:281011.2 mph14SSW (193°)9952610167328.4°C51.1%17.3°C5134ft (1565m)13.5v31
705614 Apr 17:03:1688.9 mph10SSW (197°)9952910167628.5°C51.4%17.5°C5100ft (1554m)13.49v31
705514 Apr 17:03:0579.7 mph12S (178°)9952310167028.5°C51.1%17.4°C5138ft (1566m)13.49v31
705414 Apr 17:02:5467.3 mph9SSW (196°)9952510167228.5°C51.1%17.4°C5138ft (1566m)13.5v31
705314 Apr 17:02:4377.5 mph9SSW (193°)9952410167128.5°C51.4%17.5°C5100ft (1554m)13.51v31
705214 Apr 17:02:3189.3 mph11S (175°)9952210166928.5°C51.3%17.5°C5112ft (1558m)13.46v31
705114 Apr 17:02:201011 mph13S (191°)9952010166728.5°C51.3%17.5°C5112ft (1558m)13.49v31
705014 Apr 17:02:0967 mph11S (184°)9952110166828.5°C51.4%17.5°C5100ft (1554m)13.48v31
704914 Apr 17:01:5877.5 mph9S (182°)9952110166828.5°C51.4%17.5°C5100ft (1554m)13.5v31
704814 Apr 17:01:46910.3 mph13SSW (205°)9952510167228.5°C51.1%17.4°C5138ft (1566m)13.49v31
704714 Apr 17:01:351011.4 mph13SSW (194°)9951710166428.5°C51%17.4°C5150ft (1570m)13.49v31
704614 Apr 17:01:241113 mph16S (186°)9952210166928.5°C51%17.4°C5150ft (1570m)13.48v31
704514 Apr 17:01:13910.7 mph14S (189°)9951810166528.5°C51%17.4°C5150ft (1570m)13.48v31
704414 Apr 17:01:0189.2 mph11SSW (194°)9952210166928.5°C51%17.4°C5150ft (1570m)13.5v31
704314 Apr 17:00:5099.3 mph10SSW (193°)9952310167028.5°C51%17.4°C5150ft (1570m)13.49v31
704214 Apr 17:00:39910.4 mph13S (189°)9952010166728.5°C51%17.4°C5150ft (1570m)13.47v31
704114 Apr 17:00:28810.9 mph13S (178°)9951410166128.5°C50.9%17.3°C5163ft (1574m)13.47v31
704014 Apr 17:00:171011.7 mph14S (185°)9951410166128.5°C50.9%17.3°C5163ft (1574m)13.5v31
703914 Apr 17:00:0667.5 mph10S (183°)9952110166828.5°C51%17.4°C5150ft (1570m)13.48v31
703814 Apr 16:59:5488.7 mph10S (191°)9951710166428.5°C50.9%17.3°C5163ft (1574m)13.46v31
703714 Apr 16:59:4377.9 mph11S (189°)9951910166628.5°C51%17.4°C5150ft (1570m)13.45v31
703614 Apr 16:59:3299.4 mph10SSW (201°)9951910166628.5°C50.8%17.3°C5176ft (1578m)13.44v31
703514 Apr 16:59:21912.3 mph16S (187°)9951110165728.5°C50.8%17.3°C5176ft (1578m)13.43v31
703414 Apr 16:59:09910.2 mph13SSW (200°)9951810166528.5°C50.9%17.3°C5163ft (1574m)13.45v31
703314 Apr 16:58:581010.3 mph11SSW (204°)9951810166528.6°C50.7%17.4°C5192ft (1583m)13.44v31
703214 Apr 16:58:47910.5 mph12SSW (192°)9951310166028.5°C50.7%17.3°C5189ft (1582m)13.46v31
703114 Apr 16:58:361010.7 mph13S (186°)9951110165728.6°C50.8%17.4°C5179ft (1579m)13.46v31
703014 Apr 16:58:241011.3 mph13S (186°)9951710166428.6°C50.9%17.4°C5166ft (1575m)13.46v31
702914 Apr 16:58:131010.8 mph12S (183°)9951010165628.6°C50.8%17.4°C5179ft (1579m)13.44v31
702814 Apr 16:58:021212.3 mph13SSW (196°)9951010165628.6°C50.7%17.4°C5192ft (1583m)13.46v31
702714 Apr 16:57:511011.2 mph13SSW (194°)9951010165628.6°C50.7%17.4°C5192ft (1583m)13.5v31
702614 Apr 16:57:3966.9 mph8S (190°)9951510166228.6°C50.7%17.4°C5192ft (1583m)13.47v31
702514 Apr 16:57:2889.5 mph12S (185°)9951210165828.6°C50.7%17.4°C5192ft (1583m)13.43v31
702414 Apr 16:57:17911.8 mph16S (177°)9951410166128.6°C50.7%17.4°C5192ft (1583m)13.47v31
702314 Apr 16:57:0699.8 mph12S (185°)9951210165828.6°C50.7%17.4°C5192ft (1583m)13.5v31
702214 Apr 16:56:54810.1 mph12S (190°)9951210165828.6°C50.6%17.3°C5205ft (1586m)13.5v31
702114 Apr 16:56:43910.1 mph11SSW (194°)9951210165828.6°C50.5%17.3°C5218ft (1590m)13.46v31
702014 Apr 16:56:3289.6 mph11S (172°)9950610165228.6°C50.5%17.3°C5218ft (1590m)13.46v31
701914 Apr 16:56:2189 mph11S (188°)9950910165528.6°C50.4%17.3°C5230ft (1594m)13.5v31
701814 Apr 16:56:09911.3 mph13SSW (194°)9951110165728.6°C50.4%17.3°C5230ft (1594m)13.44v31
701714 Apr 16:55:5899.8 mph13S (185°)9950710165328.6°C50.2%17.2°C5256ft (1602m)13.44v31
701614 Apr 16:55:471112 mph14SSW (198°)9951110165728.6°C50.3%17.3°C5243ft (1598m)13.52v31
701514 Apr 16:55:361010.9 mph14S (188°)9950410165028.7°C50.1%17.3°C5273ft (1607m)13.48v31
701414 Apr 16:55:241011.9 mph14S (186°)9950710165328.7°C50.3%17.3°C5247ft (1599m)13.44v31
701314 Apr 16:55:13810 mph12S (184°)9951110165728.7°C50.2%17.3°C5260ft (1603m)13.51v31
701214 Apr 16:55:0268 mph13S (184°)9950610165228.7°C50.2%17.3°C5260ft (1603m)13.48v31
701114 Apr 16:54:5188.2 mph10S (191°)9950810165428.7°C50.2%17.3°C5260ft (1603m)13.43v31
701014 Apr 16:54:3999.7 mph11SSW (198°)9951110165728.7°C49.9%17.2°C5299ft (1615m)13.51v31
700914 Apr 16:54:2877.1 mph8S (187°)9950810165428.7°C50.2%17.3°C5260ft (1603m)13.45v31
700814 Apr 16:54:1778.8 mph10SSW (196°)9951010165628.7°C50.1%17.3°C5273ft (1607m)13.45v31
700714 Apr 16:54:0689.4 mph11SSW (196°)9950710165328.7°C49.9%17.2°C5299ft (1615m)13.47v31
700614 Apr 16:53:541010.7 mph12S (179°)9950010164628.7°C50%17.2°C5286ft (1611m)13.5v31
700514 Apr 16:53:4388.9 mph10SSW (193°)9950510165128.7°C49.8%17.2°C5312ft (1619m)13.49v31
700414 Apr 16:53:3289.3 mph10S (186°)9950610165228.7°C49.9%17.2°C5299ft (1615m)13.48v31
700314 Apr 16:53:2156 mph8S (178°)9950810165428.7°C49.9%17.2°C5299ft (1615m)13.45v31
700214 Apr 16:53:0978.8 mph10S (188°)9950510165128.7°C49.9%17.2°C5299ft (1615m)13.44v31
700114 Apr 16:52:5898.8 mph10SSW (203°)9949710164328.7°C49.9%17.2°C5299ft (1615m)13.45v31
700014 Apr 16:52:471111.1 mph13SSW (196°)9949910164528.7°C49.8%17.2°C5312ft (1619m)13.45v31
699914 Apr 16:52:36811.1 mph13S (188°)9950110164728.7°C49.8%17.2°C5312ft (1619m)13.48v31
699814 Apr 16:52:2479 mph12S (186°)9949410164028.7°C49.8%17.2°C5312ft (1619m)13.45v31
699714 Apr 16:52:1388.8 mph10S (185°)9950410165028.7°C50%17.2°C5286ft (1611m)13.47v31
699614 Apr 16:52:0277.7 mph10SSW (199°)9950710165328.7°C49.9%17.2°C5299ft (1615m)13.49v31
699514 Apr 16:51:5178.9 mph11SSW (198°)9950410165028.7°C49.7%17.2°C5325ft (1623m)13.49v31
699414 Apr 16:51:39911.6 mph15SSW (192°)9950410165028.7°C49.7%17.2°C5325ft (1623m)13.5v31
699314 Apr 16:51:2889.3 mph11S (191°)9950810165428.7°C49.8%17.2°C5312ft (1619m)13.46v31
699214 Apr 16:51:1788.4 mph9SSW (193°)9950210164828.7°C49.8%17.2°C5312ft (1619m)13.46v31
699114 Apr 16:51:0678.5 mph10S (185°)9950510165128.7°C49.7%17.2°C5325ft (1623m)13.45v31
699014 Apr 16:50:541111.6 mph14SSW (199°)9950110164728.7°C49.6%17.1°C5338ft (1627m)13.46v31
698914 Apr 16:50:431011.7 mph14SSW (194°)9950210164828.7°C49.5%17.1°C5351ft (1631m)13.46v31
698814 Apr 16:50:321213 mph15SSW (207°)9950610165228.8°C49.5%17.2°C5354ft (1632m)13.48v31
698714 Apr 16:50:21912.2 mph16S (180°)9949910164528.8°C49.6%17.2°C5341ft (1628m)13.5v31
698614 Apr 16:50:09810.3 mph14S (190°)9949910164528.8°C49.6%17.2°C5341ft (1628m)13.48v31
698514 Apr 16:49:58910.6 mph13S (182°)9950210164828.8°C49.6%17.2°C5341ft (1628m)13.5v31
698414 Apr 16:49:471212.5 mph13SSW (195°)9950210164828.8°C49.4%17.1°C5367ft (1636m)13.46v31
698314 Apr 16:49:361113.1 mph16SSE (168°)9950110164728.8°C49.5%17.2°C5354ft (1632m)13.46v31
698214 Apr 16:49:24910.3 mph12SSW (193°)9950810165428.8°C49.5%17.2°C5354ft (1632m)13.45v31
698114 Apr 16:49:1378 mph10SSW (195°)9949910164528.8°C49.6%17.2°C5341ft (1628m)13.46v31
698014 Apr 16:49:0288.7 mph10S (190°)9950210164828.8°C49.3%17.1°C5380ft (1640m)13.45v31
697914 Apr 16:48:51812.5 mph17S (187°)9949910164528.8°C49.3%17.1°C5380ft (1640m)13.46v31
697814 Apr 16:48:391012.1 mph15S (186°)9949310163928.8°C49.4%17.1°C5367ft (1636m)13.46v31
697714 Apr 16:48:281112.8 mph14S (187°)9950110164728.8°C49.4%17.1°C5367ft (1636m)13.44v31
697614 Apr 16:48:171111.6 mph12SSW (193°)9949410164028.8°C49.3%17.1°C5380ft (1640m)13.47v31
697514 Apr 16:48:06810.6 mph13S (177°)9950410165028.9°C49.2%17.2°C5397ft (1645m)13.47v31
697414 Apr 16:47:5488 mph9SSW (194°)9950510165128.9°C49.2%17.2°C5397ft (1645m)13.5v31
697314 Apr 16:47:43911.3 mph15S (181°)9950010164628.9°C49%17.1°C5423ft (1653m)13.49v31
697214 Apr 16:47:321011.1 mph13S (190°)9950710165328.9°C49.1%17.1°C5410ft (1649m)13.49v31
697114 Apr 16:47:2199.2 mph12S (191°)9950210164828.9°C49%17.1°C5423ft (1653m)13.49v31
697014 Apr 16:47:09710.2 mph14S (190°)9950410165028.9°C49%17.1°C5423ft (1653m)13.48v31
696914 Apr 16:46:58910 mph12SSW (192°)9950310164928.9°C49%17.1°C5423ft (1653m)13.45v31
696814 Apr 16:46:47910.2 mph13S (189°)9950310164928.9°C49%17.1°C5423ft (1653m)13.44v31
696714 Apr 16:46:3678.3 mph10SSW (198°)9950310164928.9°C48.8%17°C5450ft (1661m)13.45v31
696614 Apr 16:46:2479.9 mph12S (182°)9950310164928.9°C48.6%17°C5476ft (1669m)13.47v31
696514 Apr 16:46:1379.3 mph14S (182°)9950610165228.9°C48.7%17°C5463ft (1665m)13.45v31
696414 Apr 16:46:021011.1 mph15S (182°)9949910164528.9°C48.6%17°C5476ft (1669m)13.45v31
696314 Apr 16:45:51910.2 mph12SSW (199°)9950810165428.9°C48.4%16.9°C5503ft (1677m)13.46v31
696214 Apr 16:45:3978.1 mph10S (174°)9950410165028.9°C48.3%16.9°C5517ft (1682m)13.45v31
696114 Apr 16:45:2899.4 mph13S (171°)9950610165228.9°C48.4%16.9°C5503ft (1677m)13.46v31
696014 Apr 16:45:1789.9 mph13S (183°)9950310164928.9°C48.6%17°C5476ft (1669m)13.43v31
695914 Apr 16:45:05910.1 mph12S (189°)9950610165228.9°C48.4%16.9°C5503ft (1677m)13.45v31
695814 Apr 16:44:541112.2 mph14S (191°)9950310164928.9°C48.4%16.9°C5503ft (1677m)13.46v31
695714 Apr 16:44:431012.3 mph15S (185°)9950410165029°C48.6%17.1°C5480ft (1670m)13.46v31
695614 Apr 16:44:3279.6 mph12S (188°)9950710165328.9°C48.5%16.9°C5490ft (1673m)13.47v31
695514 Apr 16:44:201013.3 mph17S (176°)9949210163828.9°C48.4%16.9°C5503ft (1677m)13.48v31
695414 Apr 16:44:091011.9 mph13S (184°)9949810164429°C48.5%17°C5493ft (1674m)13.45v31
695314 Apr 16:43:5889.6 mph12S (184°)9950410165029°C48.6%17.1°C5480ft (1670m)13.46v31
695214 Apr 16:43:471010.6 mph13S (188°)9950610165229°C48.5%17°C5493ft (1674m)13.43v31
695114 Apr 16:43:3588.1 mph9S (183°)9950610165229°C48.7%17.1°C5467ft (1666m)13.45v31
695014 Apr 16:43:2478.6 mph10S (180°)9950810165429°C48.7%17.1°C5467ft (1666m)13.46v31
694914 Apr 16:43:1388.5 mph12S (190°)9950510165129°C48.7%17.1°C5467ft (1666m)13.47v31
694814 Apr 16:43:0289.2 mph10S (187°)9950410165029°C48.3%17°C5520ft (1682m)13.44v31
694714 Apr 16:42:5077.9 mph10SSW (192°)9950510165129°C48.5%17°C5493ft (1674m)13.47v31
694614 Apr 16:42:3989.3 mph11SSW (201°)9950310164929°C48.4%17°C5507ft (1679m)13.47v31
694514 Apr 16:42:2899.1 mph11SSW (197°)9950310164929°C48.5%17°C5493ft (1674m)13.46v31
694414 Apr 16:42:1778.1 mph10SSW (195°)9950010164629°C48.4%17°C5507ft (1679m)13.46v31
694314 Apr 16:42:0667.9 mph12S (190°)9950210164829°C48.3%17°C5520ft (1682m)13.45v31
694214 Apr 16:41:54911.4 mph14S (186°)9950310164929°C48.1%16.9°C5547ft (1691m)13.46v31
694114 Apr 16:41:4389.4 mph14S (183°)9950410165029.1°C48.3%17.1°C5524ft (1684m)13.45v31
694014 Apr 16:41:3289 mph11SSW (201°)9950610165229.1°C48.2%17°C5537ft (1688m)13.44v31
693914 Apr 16:41:211112.8 mph14S (179°)9950410165029°C48.2%16.9°C5534ft (1687m)13.44v31
693814 Apr 16:41:091212.4 mph15S (177°)9950310164929.1°C48.2%17°C5537ft (1688m)13.43v31
693714 Apr 16:40:581213.3 mph15S (174°)9949910164529°C48.2%16.9°C5534ft (1687m)13.45v31
693614 Apr 16:40:47811.1 mph13S (181°)9950210164829.1°C48.3%17.1°C5524ft (1684m)13.43v31
693514 Apr 16:40:3699.9 mph13S (181°)9950510165129.1°C48.3%17.1°C5524ft (1684m)13.45v31
693414 Apr 16:40:2489.2 mph12SSW (193°)9950410165029.1°C48.2%17°C5537ft (1688m)13.47v31
693314 Apr 16:40:131112.7 mph14S (184°)9950410165029.1°C48%17°C5564ft (1696m)13.49v31
693214 Apr 16:40:02911 mph12SSW (195°)9950610165229.1°C48.1%17°C5551ft (1692m)13.49v31
693114 Apr 16:39:51910.6 mph12S (191°)9950310164929.1°C48.1%17°C5551ft (1692m)13.49v31
693014 Apr 16:39:391213.7 mph15S (190°)9950010164629.1°C48%17°C5564ft (1696m)13.48v31
692914 Apr 16:39:281214.1 mph16S (187°)9950210164829.1°C48%17°C5564ft (1696m)13.45v31
692814 Apr 16:39:171315.3 mph18S (176°)9950110164729.1°C48.1%17°C5551ft (1692m)13.46v31
692714 Apr 16:39:06913.3 mph15SSW (195°)9949710164329.2°C48%17.1°C5568ft (1697m)13.44v31
692614 Apr 16:38:5467.4 mph9S (182°)9950610165229.2°C48.2%17.1°C5541ft (1689m)13.5v31
692514 Apr 16:38:43911.1 mph14SSW (195°)9950810165429.2°C47.9%17°C5581ft (1701m)13.46v31
692414 Apr 16:38:32910.5 mph12S (182°)9950710165329.2°C48.2%17.1°C5541ft (1689m)13.43v31
692314 Apr 16:38:2177.2 mph8SSW (200°)9950710165329.2°C48.3%17.2°C5527ft (1685m)13.49v31
692214 Apr 16:38:091012.9 mph17SSW (192°)9950610165229.2°C48%17.1°C5568ft (1697m)13.45v31
692114 Apr 16:37:58912.3 mph15S (184°)9949110163729.2°C48.1%17.1°C5554ft (1693m)13.43v31
692014 Apr 16:37:471011.4 mph14SSE (164°)9950410165029.2°C48.1%17.1°C5554ft (1693m)13.5v31
691914 Apr 16:37:361213.5 mph15SSE (167°)9950210164829.2°C48%17.1°C5568ft (1697m)13.47v31
691814 Apr 16:37:24910.9 mph15SSW (192°)9949910164529.3°C48%17.2°C5571ft (1698m)13.42v31
691714 Apr 16:37:13911.2 mph12SSW (192°)9950610165229.3°C47.9%17.1°C5585ft (1702m)13.51v31
691614 Apr 16:37:021112.5 mph14S (189°)9950410165029.3°C47.9%17.1°C5585ft (1702m)13.47v31
691514 Apr 16:36:51910.2 mph12S (178°)9950910165529.3°C47.9%17.1°C5585ft (1702m)13.44v31
691414 Apr 16:36:391112.2 mph14S (182°)9950310164929.3°C47.8%17.1°C5598ft (1706m)13.46v31
691314 Apr 16:36:281011.6 mph14S (189°)9950510165129.3°C47.8%17.1°C5598ft (1706m)13.44v31
691214 Apr 16:36:1799.9 mph13S (182°)9950310164929.3°C47.9%17.1°C5585ft (1702m)13.47v31
691114 Apr 16:36:0689.6 mph11S (188°)9950510165129.3°C47.9%17.1°C5585ft (1702m)13.45v31
691014 Apr 16:35:5479.5 mph12S (184°)9950910165529.4°C47.8%17.2°C5602ft (1707m)13.44v31
690914 Apr 16:35:4378.3 mph11S (188°)9950910165529.4°C47.8%17.2°C5602ft (1707m)13.44v31
690814 Apr 16:35:3266.9 mph8SSW (192°)9950810165429.3°C47.7%17.1°C5612ft (1711m)13.46v31
690714 Apr 16:35:2168.1 mph10S (182°)9950610165229.4°C47.6%17.1°C5629ft (1716m)13.46v31
690614 Apr 16:35:0999.3 mph11SSW (200°)9950610165229.4°C47.4%17°C5657ft (1724m)13.45v31
690514 Apr 16:34:581113.7 mph15S (182°)9950510165129.4°C47.4%17°C5657ft (1724m)13.45v31
690414 Apr 16:34:471010.8 mph12SSW (199°)9950010164629.4°C47.4%17°C5657ft (1724m)13.47v31
690314 Apr 16:34:36910.5 mph14S (177°)9950110164729.4°C47.3%17°C5670ft (1728m)13.47v31
690214 Apr 16:34:241011.8 mph13SSW (202°)9950410165029.4°C47.2%17°C5684ft (1732m)13.47v31
690114 Apr 16:34:13910.2 mph12S (184°)9949910164529.5°C47.3%17.1°C5674ft (1729m)13.5v31
690014 Apr 16:34:0299.2 mph11SSW (194°)9950110164729.5°C47.1%17°C5701ft (1738m)13.48v31
689914 Apr 16:33:511012 mph14S (189°)9949910164529.5°C47.1%17°C5701ft (1738m)13.45v31
689814 Apr 16:33:391011.6 mph14S (189°)9950010164629.5°C47%17°C5715ft (1742m)13.44v31
689714 Apr 16:33:2858.5 mph11S (190°)9949410164029.5°C47%17°C5715ft (1742m)13.44v31
689614 Apr 16:33:1758.6 mph13SSW (193°)9949610164229.5°C46.8%16.9°C5743ft (1750m)13.46v31
689514 Apr 16:33:0677.9 mph9S (180°)9950110164729.5°C46.9%17°C5729ft (1746m)13.49v31
689414 Apr 16:32:5499.9 mph12S (191°)9949710164329.5°C46.7%16.9°C5756ft (1754m)13.51v31
689314 Apr 16:32:43910.5 mph13S (185°)9949810164429.5°C46.8%16.9°C5743ft (1750m)13.5v31
689214 Apr 16:32:321010.3 mph13S (181°)9949910164529.5°C46.7%16.9°C5756ft (1754m)13.45v31
689114 Apr 16:32:211011.2 mph13S (182°)9950010164629.5°C46.7%16.9°C5756ft (1754m)13.46v31
689014 Apr 16:32:091013.4 mph16S (183°)9950010164629.5°C46.5%16.8°C5784ft (1763m)13.5v31
688914 Apr 16:31:581012.4 mph14S (171°)9949910164529.5°C46.5%16.8°C5784ft (1763m)13.47v31
688814 Apr 16:31:47710.1 mph13S (183°)9949510164129.5°C46.5%16.8°C5784ft (1763m)13.41v31
688714 Apr 16:31:36710.5 mph14S (183°)9949610164229.6°C46.5%16.9°C5788ft (1764m)13.47v31
688614 Apr 16:31:24910.5 mph13S (184°)9949610164229.6°C46.4%16.9°C5802ft (1768m)13.44v31
688514 Apr 16:31:1378.3 mph10SSW (198°)9950110164729.6°C46.5%16.9°C5788ft (1764m)13.44v31
688414 Apr 16:31:0268.6 mph12S (180°)9949710164329.6°C46.4%16.9°C5802ft (1768m)13.46v31
688314 Apr 16:30:511011.6 mph13S (183°)9949110163729.6°C46.2%16.8°C5830ft (1777m)13.42v31
688214 Apr 16:30:39911 mph14S (176°)9949610164229.6°C46.2%16.8°C5830ft (1777m)13.44v31
688114 Apr 16:30:281110.9 mph15S (182°)9949910164529.6°C46.4%16.9°C5802ft (1768m)13.44v31
688014 Apr 16:30:1778 mph11SSW (197°)9949610164229.6°C46.5%16.9°C5788ft (1764m)13.45v31
687914 Apr 16:30:06610 mph15S (185°)9949810164429.7°C46.4%17°C5806ft (1770m)13.41v31
687814 Apr 16:29:541112.9 mph16S (187°)9949610164229.7°C46.3%16.9°C5820ft (1774m)13.41v31
687714 Apr 16:29:4368.9 mph12S (184°)9949810164429.7°C46.3%16.9°C5820ft (1774m)13.4v31
687614 Apr 16:29:32911 mph13SSW (193°)9949010163629.7°C46.1%16.9°C5848ft (1782m)13.42v31
687514 Apr 16:29:211112.3 mph16S (184°)9949410164029.7°C46.1%16.9°C5848ft (1782m)13.42v31
687414 Apr 16:29:09811.5 mph14S (182°)9948610163229.7°C46.2%16.9°C5834ft (1778m)13.4v31
687314 Apr 16:28:581111.4 mph12SSW (193°)9949310163929.7°C46.2%16.9°C5834ft (1778m)13.42v31
687214 Apr 16:28:47910.2 mph13S (186°)9949810164429.8°C46.4%17.1°C5810ft (1771m)13.42v31
687114 Apr 16:28:3689 mph11SSW (194°)9948910163529.8°C46.2%17°C5838ft (1779m)13.42v31
687014 Apr 16:28:2488.6 mph11S (177°)9949610164229.7°C46.2%16.9°C5834ft (1778m)13.42v31
686914 Apr 16:28:131111.9 mph13S (181°)9949510164129.8°C46.1%17°C5852ft (1784m)13.39v31
686814 Apr 16:28:02810.5 mph13S (188°)9949710164329.8°C46.1%17°C5852ft (1784m)13.42v31
686714 Apr 16:27:5188.7 mph11SSW (198°)9949710164329.8°C45.9%16.9°C5880ft (1792m)13.43v31
686614 Apr 16:27:3978.9 mph11SSW (196°)9948910163529.8°C45.9%16.9°C5880ft (1792m)13.45v31
686514 Apr 16:27:281213.3 mph15S (176°)9949310163929.8°C45.9%16.9°C5880ft (1792m)13.4v31
686414 Apr 16:27:171112.8 mph16S (191°)9948910163529.8°C45.8%16.9°C5894ft (1796m)13.45v31
686314 Apr 16:27:061111.9 mph15S (186°)9949410164029.8°C45.7%16.8°C5908ft (1801m)13.39v31
686214 Apr 16:26:5479.7 mph13S (171°)9948910163529.8°C45.8%16.9°C5894ft (1796m)13.45v31
686114 Apr 16:26:4388.9 mph10S (178°)9949210163829.8°C45.8%16.9°C5894ft (1796m)13.4v31
686014 Apr 16:26:3277.9 mph10SSW (208°)9949510164129.8°C45.7%16.8°C5908ft (1801m)13.42v31
685914 Apr 16:26:2167.5 mph9S (178°)9948810163429.8°C45.6%16.8°C5922ft (1805m)13.43v31
685814 Apr 16:26:0978.6 mph10S (184°)9949510164129.8°C45.6%16.8°C5922ft (1805m)13.42v31
685714 Apr 16:25:581313.7 mph16S (178°)9948610163229.8°C45.5%16.8°C5936ft (1809m)13.4v31
685614 Apr 16:25:471011.2 mph14S (174°)9949610164229.8°C45.5%16.8°C5936ft (1809m)13.46v31
685514 Apr 16:25:36510 mph17S (176°)9948610163229.8°C45.5%16.8°C5936ft (1809m)13.41v31
685414 Apr 16:25:2467.3 mph9S (186°)9949310163929.8°C45.5%16.8°C5936ft (1809m)13.37v31
685314 Apr 16:25:1367.6 mph10S (169°)9949410164029.8°C45.3%16.7°C5965ft (1818m)13.39v31
685214 Apr 16:25:0279.6 mph13S (187°)9949410164029.8°C45%16.6°C6008ft (1831m)13.44v31
685114 Apr 16:24:5158.2 mph10S (177°)9949410164029.8°C45.1%16.6°C5993ft (1827m)13.44v31
685014 Apr 16:24:39810.3 mph13SSW (192°)9949310163929.9°C44.9%16.6°C6026ft (1837m)13.4v31
684914 Apr 16:24:281111.9 mph14SSW (195°)9948510163129.9°C44.7%16.6°C6055ft (1846m)13.38v31
684814 Apr 16:24:17910.6 mph14SSW (199°)9949310163929.9°C44.7%16.6°C6055ft (1846m)13.45v31
684714 Apr 16:24:06710.4 mph12SSW (192°)9948610163229.9°C44.8%16.6°C6040ft (1841m)13.37v31
684614 Apr 16:23:5467.6 mph9S (190°)9949010163629.9°C44.8%16.6°C6040ft (1841m)13.39v31
684514 Apr 16:23:4379.5 mph14S (183°)9949410164029.9°C44.6%16.5°C6069ft (1850m)13.4v31
684414 Apr 16:23:321011.2 mph15S (182°)9948110162729.9°C44.5%16.5°C6084ft (1854m)13.43v31
684314 Apr 16:23:21911 mph14SSW (195°)9949510164129.9°C44.4%16.5°C6098ft (1859m)13.45v31
684214 Apr 16:23:091112.7 mph16S (185°)9948310162929.9°C44.4%16.5°C6098ft (1859m)13.43v31
684114 Apr 16:22:58910.9 mph14S (179°)9947610162229.9°C44.3%16.4°C6113ft (1863m)13.42v31
684014 Apr 16:22:471214 mph16S (188°)9949110163730°C44.3%16.5°C6117ft (1864m)13.39v31
683914 Apr 16:22:361011.1 mph14S (177°)9948610163230°C44.4%16.6°C6102ft (1860m)13.45v31
683814 Apr 16:22:241214.7 mph16S (179°)9948110162730°C44.4%16.6°C6102ft (1860m)13.39v31
683714 Apr 16:22:13910.8 mph14S (185°)9948110162730°C44.4%16.6°C6102ft (1860m)13.43v31
683614 Apr 16:22:021012.3 mph17S (182°)9948910163530°C44.3%16.5°C6117ft (1864m)13.39v31
683514 Apr 16:21:511214 mph17S (190°)9948810163430°C44.2%16.5°C6131ft (1869m)13.45v31
683414 Apr 16:21:391415.3 mph17S (189°)9948610163230°C44.1%16.4°C6146ft (1873m)13.41v31
683314 Apr 16:21:28711.1 mph17SSW (196°)9948410163030°C44.1%16.4°C6146ft (1873m)13.41v31
683214 Apr 16:21:1789.7 mph12SSW (192°)9949110163730°C44.1%16.4°C6146ft (1873m)13.46v31
683114 Apr 16:21:061215.2 mph19S (183°)9948110162730°C44.2%16.5°C6131ft (1869m)13.41v31
683014 Apr 16:20:541114.3 mph17S (174°)9947110161730°C44.1%16.4°C6146ft (1873m)13.38v31
682914 Apr 16:20:43910.7 mph12S (182°)9949510164130°C44.2%16.5°C6131ft (1869m)13.4v31
682814 Apr 16:20:321011.7 mph13SSW (198°)9949110163730°C44.2%16.5°C6131ft (1869m)13.46v31
682714 Apr 16:20:2189.9 mph13S (183°)9949310163930.1°C44.3%16.6°C6121ft (1866m)13.44v31
682614 Apr 16:20:0978.8 mph12SSW (194°)9948410163030.1°C44.4%16.6°C6106ft (1861m)13.39v31
682514 Apr 16:19:5877.6 mph9SSW (200°)9949110163730.1°C44.1%16.5°C6150ft (1875m)13.43v31
682414 Apr 16:19:4768.2 mph10S (190°)9949210163830.1°C44.1%16.5°C6150ft (1875m)13.38v31
682314 Apr 16:19:36911.1 mph12S (190°)9949010163630.1°C44%16.5°C6164ft (1879m)13.42v31
682214 Apr 16:19:24812.5 mph15S (191°)9948010162630.1°C43.9%16.5°C6179ft (1883m)13.37v31
682114 Apr 16:19:131012 mph13S (174°)9948410163030.1°C44.1%16.5°C6150ft (1875m)13.4v31
682014 Apr 16:19:0278.1 mph10S (186°)9948910163530.1°C44%16.5°C6164ft (1879m)13.4v31
681914 Apr 16:18:51810.4 mph14SSW (201°)9948610163230.1°C43.9%16.5°C6179ft (1883m)13.38v31
681814 Apr 16:18:3957.3 mph9S (191°)9948910163530.1°C43.9%16.5°C6179ft (1883m)13.4v31
681714 Apr 16:18:28910.6 mph12SSW (201°)9948510163130.1°C43.8%16.4°C6194ft (1888m)13.42v31
681614 Apr 16:18:1778.4 mph11S (186°)9948610163230.1°C43.9%16.5°C6179ft (1883m)13.41v31
681514 Apr 16:18:061213.2 mph14SSW (193°)9949110163730.1°C43.7%16.4°C6209ft (1893m)13.36v31
681414 Apr 16:17:5469.4 mph17S (182°)9947410162030.2°C43.8%16.5°C6198ft (1889m)13.39v31
681314 Apr 16:17:4388.9 mph11S (189°)9948910163530.2°C43.8%16.5°C6198ft (1889m)13.39v31
681214 Apr 16:17:321010.5 mph12S (187°)9948510163130.2°C43.7%16.5°C6213ft (1894m)13.39v31
681114 Apr 16:17:2178.7 mph11S (186°)9948610163230.2°C43.7%16.5°C6213ft (1894m)13.4v31
681014 Apr 16:17:0978.6 mph13SSW (195°)9949010163630.2°C43.6%16.5°C6227ft (1898m)13.42v31
680914 Apr 16:16:5878.8 mph10S (182°)9948510163130.2°C43.5%16.4°C6242ft (1903m)13.4v31
680814 Apr 16:16:47910.5 mph12S (183°)9948610163230.2°C43.5%16.4°C6242ft (1903m)13.41v31
680714 Apr 16:16:361010.8 mph13S (179°)9949010163630.2°C43.7%16.5°C6213ft (1894m)13.41v31
680614 Apr 16:16:241012 mph17S (179°)9947710162330.2°C43.6%16.5°C6227ft (1898m)13.38v31
680514 Apr 16:16:13710.7 mph15SSW (195°)9948510163130.2°C43.6%16.5°C6227ft (1898m)13.39v31
680414 Apr 16:16:0258.1 mph11SSW (199°)9948410163030.2°C43.8%16.5°C6198ft (1889m)13.38v31
680314 Apr 16:15:5168.5 mph11S (178°)9948710163330.3°C43.5%16.5°C6246ft (1904m)13.4v31
680214 Apr 16:15:39810.9 mph14SSW (197°)9948810163430.3°C43.3%16.4°C6276ft (1913m)13.39v31
680114 Apr 16:15:28912.2 mph14SSW (193°)9948710163330.3°C43.1%16.4°C6306ft (1922m)13.38v31
680014 Apr 16:15:1769.7 mph16S (186°)9948710163330.3°C43.1%16.4°C6306ft (1922m)13.39v31
679914 Apr 16:15:061012.5 mph15S (182°)9947310161930.3°C43%16.3°C6321ft (1927m)13.38v31
679814 Apr 16:14:54811.5 mph14S (182°)9948410163030.3°C43%16.3°C6321ft (1927m)13.41v31
679714 Apr 16:14:431213.7 mph17S (179°)9947510162130.3°C43.1%16.4°C6306ft (1922m)13.36v31
679614 Apr 16:14:321414.9 mph16S (173°)9949010163630.3°C43.2%16.4°C6291ft (1917m)13.39v31
679514 Apr 16:14:2178.1 mph10S (188°)9948410163030.4°C43.3%16.5°C6280ft (1914m)13.33v31
679414 Apr 16:14:0988.7 mph11S (183°)9948610163230.3°C43.2%16.4°C6291ft (1917m)13.41v31
679314 Apr 16:13:5867.1 mph9S (185°)9948710163330.4°C43.3%16.5°C6280ft (1914m)13.34v31
679214 Apr 16:13:471010.7 mph12S (188°)9948410163030.4°C43.1%16.4°C6310ft (1923m)13.4v31
679114 Apr 16:13:361011.1 mph12S (180°)9948310162930.4°C43.2%16.5°C6295ft (1919m)13.36v31
679014 Apr 16:13:24914.3 mph17S (183°)9948510163130.4°C43.3%16.5°C6280ft (1914m)13.32v31
678914 Apr 16:13:1379.4 mph13S (188°)9947710162330.4°C43.5%16.6°C6250ft (1905m)13.39v31
678814 Apr 16:13:021012.4 mph18SSW (207°)9948610163230.4°C43.4%16.6°C6265ft (1910m)13.33v31
678714 Apr 16:12:51910.7 mph13SSW (198°)9948710163330.5°C43.4%16.6°C6269ft (1911m)13.42v31
678614 Apr 16:12:39910.1 mph13S (187°)9948110162730.4°C43.2%16.5°C6295ft (1919m)13.33v31
678514 Apr 16:12:2855.7 mph8SSW (207°)9948410163030.5°C43.1%16.5°C6314ft (1925m)13.39v31
678414 Apr 16:12:1789.6 mph12S (187°)9948210162830.5°C42.9%16.5°C6344ft (1934m)13.35v31
678314 Apr 16:12:061214.3 mph17S (189°)9948610163230.5°C43.3%16.6°C6284ft (1915m)13.4v31
678214 Apr 16:11:5468.6 mph13S (171°)9947110161730.5°C43.4%16.6°C6269ft (1911m)13.34v31
678114 Apr 16:11:43811.6 mph16S (187°)9948310162930.5°C43.3%16.6°C6284ft (1915m)13.34v31
678014 Apr 16:11:321011 mph13S (174°)9947810162430.5°C43.6%16.7°C6240ft (1902m)13.36v31
677914 Apr 16:11:211415.1 mph17S (188°)9947310161930.6°C43.8%16.9°C6214ft (1894m)13.37v31
677814 Apr 16:11:091216.1 mph19S (175°)9946610161130.6°C43.9%16.9°C6199ft (1889m)13.4v31
677714 Apr 16:10:581112.2 mph15SSW (198°)9947410162030.6°C44%17°C6185ft (1885m)13.39v31
677614 Apr 16:10:471313.9 mph15S (183°)9947010161630.6°C43.9%16.9°C6199ft (1889m)13.37v31
677514 Apr 16:10:361015 mph19S (182°)9946810161430.7°C44.1%17.1°C6174ft (1882m)13.34v31
677414 Apr 16:10:2489.2 mph11SSW (204°)9948110162730.7°C44.3%17.2°C6145ft (1873m)13.37v31
677314 Apr 16:10:1378.3 mph11SSW (192°)9948010162630.7°C44.2%17.1°C6159ft (1877m)13.36v31
677214 Apr 16:10:0268.5 mph11SSW (206°)9947810162430.7°C44.3%17.2°C6145ft (1873m)13.34v31
677114 Apr 16:09:5155.3 mph7SSW (195°)9947510162130.7°C44.1%17.1°C6174ft (1882m)13.38v31
677014 Apr 16:09:39810.7 mph14S (180°)9948310162930.7°C43.9%17°C6204ft (1891m)13.38v31
676914 Apr 16:09:28911 mph14S (183°)9947410162030.7°C44.1%17.1°C6174ft (1882m)13.42v31
676814 Apr 16:09:171011.7 mph14SSW (192°)9948410163030.8°C43.9%17.1°C6208ft (1892m)13.37v31
676714 Apr 16:09:06912.2 mph14S (179°)9947910162530.8°C43.9%17.1°C6208ft (1892m)13.34v31
676614 Apr 16:08:54910.8 mph16S (186°)9947610162230.8°C43.8%17.1°C6222ft (1896m)13.37v31
676514 Apr 16:08:43913.3 mph17S (190°)9946610161130.8°C43.8%17.1°C6222ft (1896m)13.33v31
676414 Apr 16:08:321011.6 mph15S (189°)9947910162530.8°C43.6%17°C6252ft (1906m)13.34v31
676314 Apr 16:08:2177.6 mph9S (183°)9947610162230.9°C43.8%17.2°C6227ft (1898m)13.3v31
676214 Apr 16:08:0988.6 mph10SSW (197°)9947810162430.9°C43.7%17.1°C6241ft (1902m)13.37v31
676114 Apr 16:07:58810.8 mph14SSW (193°)9947510162130.8°C43.6%17°C6252ft (1906m)13.3v31
676014 Apr 16:07:4778 mph10SSW (204°)9947910162530.9°C43.6%17.1°C6256ft (1907m)13.34v31
675914 Apr 16:07:3669 mph11SSW (195°)9947810162430.9°C43.3%17°C6301ft (1921m)13.3v31
675814 Apr 16:07:241110.8 mph12SSW (207°)9948110162730.9°C43.3%17°C6301ft (1921m)13.35v31
675714 Apr 16:07:131010.3 mph12SSW (194°)9947410162030.9°C43.2%16.9°C6316ft (1925m)13.32v31
675614 Apr 16:07:021213.5 mph15SSW (192°)9947610162230.9°C43%16.9°C6346ft (1934m)13.3v31
675514 Apr 16:06:511012.2 mph15S (178°)9947710162330.9°C42.9%16.8°C6361ft (1939m)13.32v31
675414 Apr 16:06:391316.5 mph20SSW (192°)9947410162031°C42.9%16.9°C6365ft (1940m)13.34v31
675314 Apr 16:06:28913.6 mph16S (184°)9948210162831°C43%17°C6350ft (1935m)13.34v31
675214 Apr 16:06:171616.2 mph19SSW (199°)9947310161931°C42.6%16.8°C6410ft (1954m)13.32v31
675114 Apr 16:06:061013.2 mph16SSW (199°)9946210160731.1°C42.7%16.9°C6399ft (1950m)13.3v31
675014 Apr 16:05:541214 mph16S (191°)9948310162931.1°C42.7%16.9°C6399ft (1950m)13.32v31
674914 Apr 16:05:431214.2 mph16S (188°)9948210162831.1°C42.7%16.9°C6399ft (1950m)13.31v31
674814 Apr 16:05:321013.1 mph16S (176°)9947510162131.1°C42.6%16.9°C6415ft (1955m)13.33v31
674714 Apr 16:05:211113.8 mph18S (182°)9947410162031.2°C42.6%17°C6419ft (1957m)13.3v31
674614 Apr 16:05:0958.3 mph12SSW (195°)9948410163031.2°C42.6%17°C6419ft (1957m)13.33v31
674514 Apr 16:04:58910.3 mph14S (190°)9948210162831.2°C42.3%16.9°C6465ft (1971m)13.35v31
674414 Apr 16:04:4789.9 mph14SSW (199°)9946810161431.2°C42.2%16.8°C6480ft (1975m)13.3v31
674314 Apr 16:04:36911.3 mph14S (180°)9948110162731.2°C42.1%16.8°C6495ft (1980m)13.35v31
674214 Apr 16:04:241314.9 mph17S (182°)9948010162631.3°C42%16.8°C6515ft (1986m)13.3v31
674114 Apr 16:04:1379.7 mph13S (171°)9948410163031.3°C42.3%17°C6469ft (1972m)13.31v31
674014 Apr 16:04:021111.9 mph13S (180°)9947910162531.3°C42.3%17°C6469ft (1972m)13.34v31
673914 Apr 16:03:511012.4 mph16S (178°)9948810163431.3°C42.2%16.9°C6484ft (1976m)13.33v31
673814 Apr 16:03:3989.5 mph12SSW (201°)9948410163031.3°C42.1%16.9°C6499ft (1981m)13.32v31
673714 Apr 16:03:281315.1 mph17S (182°)9948610163231.4°C41.9%16.9°C6535ft (1992m)13.29v31
673614 Apr 16:03:171616.8 mph20S (173°)9946910161531.4°C42%16.9°C6519ft (1987m)13.36v31
673514 Apr 16:03:061011.7 mph18S (169°)9947310161931.4°C42.1%17°C6504ft (1982m)13.29v31
673414 Apr 16:02:541112.2 mph14SSW (204°)9947810162431.4°C42.1%17°C6504ft (1982m)13.35v31
673314 Apr 16:02:43911.4 mph16S (186°)9947810162431.5°C42.1%17.1°C6508ft (1984m)13.33v31
673214 Apr 16:02:321111.7 mph14S (187°)9947710162331.5°C41.9%17°C6539ft (1993m)13.29v31
673114 Apr 16:02:211414.6 mph16S (182°)9946910161531.5°C41.9%17°C6539ft (1993m)13.29v31
673014 Apr 16:02:09912.6 mph15S (181°)9947910162531.6°C41.9%17.1°C6543ft (1994m)13.3v31
672914 Apr 16:01:5878.9 mph12SSW (192°)9948110162731.6°C41.6%17°C6590ft (2009m)13.3v31
672814 Apr 16:01:47813.1 mph17S (179°)9948310162931.6°C41.5%16.9°C6605ft (2013m)13.32v31
672714 Apr 16:01:36710.5 mph15S (186°)9949310163931.6°C41.6%17°C6590ft (2009m)13.29v31
672614 Apr 16:01:24811.8 mph15S (181°)9948710163331.6°C41.4%16.9°C6621ft (2018m)13.35v31
672514 Apr 16:01:131011.7 mph14S (182°)9948110162731.7°C41.5%17°C6610ft (2015m)13.3v31
672414 Apr 16:01:021114.2 mph18S (181°)9946810161431.7°C41.5%17°C6610ft (2015m)13.27v31
672314 Apr 16:00:5167 mph10SSW (192°)9948810163431.7°C41.6%17.1°C6594ft (2010m)13.3v31
672214 Apr 16:00:3978.1 mph9S (177°)9948910163531.7°C41.6%17.1°C6594ft (2010m)13.32v31
672114 Apr 16:00:2878.4 mph10S (191°)9948410163031.6°C41.3%16.9°C6636ft (2023m)13.36v31
672014 Apr 16:00:1766.5 mph7S (185°)9948210162831.7°C41.3%16.9°C6641ft (2024m)13.3v31
671914 Apr 16:00:06911 mph13S (174°)9948610163231.7°C41.1%16.9°C6672ft (2034m)13.36v31
671814 Apr 15:59:541013.4 mph17S (184°)9948310162931.7°C41%16.8°C6688ft (2039m)13.29v31
671714 Apr 15:59:431014.3 mph19S (189°)9948810163431.7°C41%16.8°C6688ft (2039m)13.33v31
671614 Apr 15:59:321011 mph13S (177°)9947210161831.7°C41%16.8°C6688ft (2039m)13.3v31
671514 Apr 15:59:211112.9 mph17S (177°)9947410162031.7°C41%16.8°C6688ft (2039m)13.32v31
671414 Apr 15:59:091111.6 mph14S (186°)9948010162631.7°C41.1%16.9°C6672ft (2034m)13.33v31
671314 Apr 15:58:58811.5 mph15SSE (168°)9948210162831.7°C41%16.8°C6688ft (2039m)13.33v31
671214 Apr 15:58:47710.3 mph13S (191°)9948410163031.7°C41.2%16.9°C6656ft (2029m)13.31v31
671114 Apr 15:58:3669.4 mph13S (182°)9949210163831.7°C41.1%16.9°C6672ft (2034m)13.32v31
671014 Apr 15:58:24810.3 mph13S (189°)9948510163131.7°C41.2%16.9°C6656ft (2029m)13.33v31
670914 Apr 15:58:131111.3 mph12SSW (192°)9948810163431.7°C41.2%16.9°C6656ft (2029m)13.33v31
670814 Apr 15:58:0289.3 mph12S (180°)9948410163031.7°C41.2%16.9°C6656ft (2029m)13.33v31
670714 Apr 15:57:51910.5 mph12SSW (199°)9948710163331.7°C41.2%16.9°C6656ft (2029m)13.31v31
670614 Apr 15:57:3967.6 mph9SSW (193°)9948810163431.7°C41.2%16.9°C6656ft (2029m)13.29v31
670514 Apr 15:57:2878.4 mph11S (176°)9948710163331.8°C41.1%17°C6677ft (2035m)13.32v31
670414 Apr 15:57:17911.7 mph17SSW (203°)9948810163431.8°C40.9%16.9°C6708ft (2045m)13.32v31
670314 Apr 15:57:061216.3 mph21S (183°)9947610162231.8°C41%16.9°C6692ft (2040m)13.31v31
670214 Apr 15:56:541112.8 mph16S (174°)9948410163031.8°C40.9%16.9°C6708ft (2045m)13.31v31
670114 Apr 15:56:431213.7 mph15S (176°)9947810162431.8°C40.9%16.9°C6708ft (2045m)13.31v31
670014 Apr 15:56:321114.2 mph18S (183°)9948210162831.8°C41.1%17°C6677ft (2035m)13.31v31
669914 Apr 15:56:211212.2 mph15SSW (195°)9948510163131.8°C41.1%17°C6677ft (2035m)13.28v31
669814 Apr 15:56:091213.6 mph16S (175°)9947410162031.9°C41%17°C6697ft (2041m)13.3v31
669714 Apr 15:55:581111.5 mph13S (186°)9948810163431.9°C41%17°C6697ft (2041m)13.32v31
669614 Apr 15:55:471113.1 mph16S (182°)9949110163731.9°C41%17°C6697ft (2041m)13.3v31
669514 Apr 15:55:3699.7 mph11SSW (192°)9949110163731.9°C41%17°C6697ft (2041m)13.33v31
669414 Apr 15:55:2489.1 mph10SSW (197°)9949110163731.9°C40.8%16.9°C6728ft (2051m)13.28v31
669314 Apr 15:55:131214.2 mph16S (170°)9948510163131.9°C40.7%16.9°C6744ft (2056m)13.34v31
669214 Apr 15:55:021111.5 mph13S (173°)9948110162731.9°C40.8%16.9°C6728ft (2051m)13.28v31
669114 Apr 15:54:51912.2 mph16S (177°)9948810163431.9°C40.8%16.9°C6728ft (2051m)13.34v31
669014 Apr 15:54:39910.1 mph11S (183°)9948310162931.9°C40.8%16.9°C6728ft (2051m)13.3v31
668914 Apr 15:54:281213.4 mph16S (175°)9948610163231.8°C40.9%16.9°C6708ft (2045m)13.29v31
668814 Apr 15:54:17910.3 mph13SSW (194°)9948110162731.9°C41.1%17°C6681ft (2036m)13.33v31
668714 Apr 15:54:0689.3 mph13SSW (200°)9948710163331.8°C40.7%16.8°C6740ft (2054m)13.31v31
668614 Apr 15:53:5477.8 mph12SSW (195°)9948110162731.8°C40.7%16.8°C6740ft (2054m)13.33v31
668514 Apr 15:53:4377.6 mph8SSW (192°)9948810163431.8°C40.5%16.7°C6772ft (2064m)13.29v31
668414 Apr 15:53:321112.7 mph15S (176°)9948410163031.8°C40.4%16.7°C6788ft (2069m)13.33v31
668314 Apr 15:53:211113.5 mph17S (180°)9948310162931.8°C40.4%16.7°C6788ft (2069m)13.28v31
668214 Apr 15:53:091012.1 mph17S (175°)9948610163231.7°C40.4%16.6°C6783ft (2067m)13.3v31
668114 Apr 15:52:581314.7 mph17S (182°)9946610161131.7°C40.4%16.6°C6783ft (2067m)13.32v31
668014 Apr 15:52:471819.7 mph22S (178°)9947510162131.7°C40.3%16.6°C6799ft (2072m)13.3v31
667914 Apr 15:52:361517 mph21S (187°)9948210162831.7°C40.4%16.6°C6783ft (2067m)13.29v31
667814 Apr 15:52:241114.7 mph19S (183°)9947510162131.7°C40.3%16.6°C6799ft (2072m)13.31v31
667714 Apr 15:52:131315.1 mph19SSW (194°)9948310162931.8°C40.4%16.7°C6788ft (2069m)13.33v31
667614 Apr 15:52:021213.9 mph16S (188°)9947510162131.8°C40.4%16.7°C6788ft (2069m)13.29v31
667514 Apr 15:51:511112.1 mph14S (180°)9947210161831.8°C40.5%16.7°C6772ft (2064m)13.34v31
667414 Apr 15:51:39813.5 mph19S (190°)9948410163031.8°C40.5%16.7°C6772ft (2064m)13.31v31
667314 Apr 15:51:28812.1 mph16S (176°)9948510163131.8°C40.4%16.7°C6788ft (2069m)13.31v31
667214 Apr 15:51:171112.9 mph15S (190°)9947010161631.8°C40.4%16.7°C6788ft (2069m)13.32v31
667114 Apr 15:51:061313.2 mph14S (185°)9947810162431.8°C40.3%16.6°C6804ft (2074m)13.3v31
667014 Apr 15:50:54912 mph15S (188°)9947210161831.8°C40.4%16.7°C6788ft (2069m)13.35v31
666914 Apr 15:50:43810.3 mph14S (189°)9948110162731.8°C40.4%16.7°C6788ft (2069m)13.31v31
666814 Apr 15:50:321013.2 mph16S (176°)9946910161531.8°C40.4%16.7°C6788ft (2069m)13.32v31
666714 Apr 15:50:211013.3 mph17S (191°)9947110161731.8°C40.5%16.7°C6772ft (2064m)13.29v31
666614 Apr 15:50:09812.1 mph16S (178°)9946710161331.8°C40.6%16.8°C6756ft (2059m)13.33v31
666514 Apr 15:49:58912.4 mph16S (179°)9948410163031.8°C40.6%16.8°C6756ft (2059m)13.27v31
666414 Apr 15:49:471314.4 mph17SSW (194°)9947710162331.8°C40.6%16.8°C6756ft (2059m)13.33v31
666314 Apr 15:49:36912.3 mph15SSW (194°)9947210161831.8°C40.6%16.8°C6756ft (2059m)13.33v31
666214 Apr 15:49:241110.1 mph14S (184°)9946610161131.8°C40.6%16.8°C6756ft (2059m)13.35v31
666114 Apr 15:49:13811.8 mph14S (183°)9946710161331.8°C40.5%16.7°C6772ft (2064m)13.34v31
666014 Apr 15:49:021011 mph12S (185°)9948110162731.9°C40.4%16.8°C6792ft (2070m)13.33v31
665914 Apr 15:48:5188.7 mph11S (187°)9947810162431.8°C40.5%16.7°C6772ft (2064m)13.33v31
665814 Apr 15:48:3989.5 mph11S (179°)9948010162631.8°C40.5%16.7°C6772ft (2064m)13.34v31
665714 Apr 15:48:281111.3 mph12S (187°)9947910162531.8°C40.3%16.6°C6804ft (2074m)13.27v31
665614 Apr 15:48:17910.9 mph13S (190°)9947810162431.8°C40.3%16.6°C6804ft (2074m)13.32v31
665514 Apr 15:48:061113.4 mph15S (181°)9948010162631.9°C40.4%16.8°C6792ft (2070m)13.31v31
665414 Apr 15:47:54810.5 mph13S (182°)9947310161931.9°C40.3%16.7°C6808ft (2075m)13.32v31
665314 Apr 15:47:431212.2 mph15S (183°)9947410162031.9°C40.2%16.7°C6824ft (2080m)13.32v31
665214 Apr 15:47:321315.9 mph19S (181°)9947210161831.9°C40.1%16.7°C6840ft (2085m)13.29v31
665114 Apr 15:47:21911.5 mph16S (175°)9947810162431.9°C40.2%16.7°C6824ft (2080m)13.32v31
665014 Apr 15:47:0989.2 mph14SSE (168°)9947610162231.9°C40.2%16.7°C6824ft (2080m)13.31v31
664914 Apr 15:46:5879.2 mph13S (185°)9947610162231.9°C40.2%16.7°C6824ft (2080m)13.29v31
664814 Apr 15:46:4789.1 mph13S (187°)9947710162331.9°C40.2%16.7°C6824ft (2080m)13.32v31
664714 Apr 15:46:361212.9 mph14S (169°)9947110161731.9°C40%16.6°C6856ft (2090m)13.34v31
664614 Apr 15:46:241114.6 mph18S (183°)9946710161331.9°C40.1%16.7°C6840ft (2085m)13.28v31
664514 Apr 15:46:131313.7 mph15S (184°)9947510162131.9°C40%16.6°C6856ft (2090m)13.34v31
664414 Apr 15:46:021113.4 mph19S (188°)9947010161632°C40%16.7°C6861ft (2091m)13.31v31
664314 Apr 15:45:51910.4 mph14SSE (168°)9947810162432°C40.2%16.8°C6829ft (2081m)13.32v31
664214 Apr 15:45:3978.5 mph13S (180°)9946810161432°C40.2%16.8°C6829ft (2081m)13.3v31
664114 Apr 15:45:2868.3 mph12SSE (160°)9947810162432°C40%16.7°C6861ft (2091m)13.31v31
664014 Apr 15:45:17810.3 mph14SSW (199°)9947810162432°C40%16.7°C6861ft (2091m)13.34v31
663914 Apr 15:45:0669.6 mph13S (181°)9947710162332°C40.1%16.7°C6845ft (2086m)13.3v31
663814 Apr 15:44:54912.9 mph16S (178°)9947310161932°C40%16.7°C6861ft (2091m)13.36v31
663714 Apr 15:44:4378 mph11S (186°)9947710162332°C39.9%16.7°C6877ft (2096m)13.31v31
663614 Apr 15:44:321012.1 mph14S (186°)9947410162032°C39.9%16.7°C6877ft (2096m)13.3v31
663514 Apr 15:44:2199.4 mph10S (186°)9947210161832°C39.9%16.7°C6877ft (2096m)13.34v31
663414 Apr 15:44:09910.9 mph13S (182°)9947410162032°C39.8%16.6°C6893ft (2101m)13.27v31
663314 Apr 15:43:5889 mph11S (188°)9947210161832°C39.8%16.6°C6893ft (2101m)13.33v31
663214 Apr 15:43:47810.3 mph14S (185°)9947410162032°C39.7%16.6°C6909ft (2106m)13.32v31
663114 Apr 15:43:361010.7 mph12SSW (201°)9947710162332°C39.7%16.6°C6909ft (2106m)13.35v31
663014 Apr 15:43:24810.5 mph14S (184°)9947310161932°C39.5%16.5°C6942ft (2116m)13.3v31
662914 Apr 15:43:13911.5 mph16S (177°)9947910162532°C39.4%16.5°C6958ft (2121m)13.36v31
662814 Apr 15:43:021113.7 mph16S (178°)9946210160732°C39.4%16.5°C6958ft (2121m)13.31v31
662714 Apr 15:42:51810.1 mph14S (182°)9947610162232°C39.3%16.4°C6975ft (2126m)13.32v31
662614 Apr 15:42:3989.5 mph12SSW (196°)9947210161832°C39.4%16.5°C6958ft (2121m)13.32v31
662514 Apr 15:42:2868.8 mph12S (185°)9947110161732°C39.4%16.5°C6958ft (2121m)13.34v31
662414 Apr 15:42:17710.3 mph13SSW (194°)9948010162632°C39.2%16.4°C6991ft (2131m)13.31v31
662314 Apr 15:42:051112.9 mph16S (184°)9947910162532°C39.3%16.4°C6975ft (2126m)13.35v31
662214 Apr 15:41:541012.1 mph15SSW (210°)9947510162132°C39.3%16.4°C6975ft (2126m)13.3v31
662114 Apr 15:41:4378.5 mph11S (184°)9947510162132°C39.5%16.5°C6942ft (2116m)13.33v31
662014 Apr 15:41:32810.1 mph13SSW (193°)9947810162431.9°C39.4%16.4°C6954ft (2120m)13.33v31
661914 Apr 15:41:2057.4 mph10SSW (194°)9948010162631.9°C39.2%16.3°C6986ft (2129m)13.29v31
661814 Apr 15:41:0999.9 mph13S (177°)9947610162231.9°C39.1%16.3°C7003ft (2135m)13.32v31
661714 Apr 15:40:581314.9 mph16S (172°)9947710162331.9°C39.2%16.3°C6986ft (2129m)13.38v31
661614 Apr 15:40:471213.9 mph18S (180°)9946310160831.9°C39.5%16.4°C6937ft (2114m)13.32v31
661514 Apr 15:40:351011 mph13S (180°)9947610162231.9°C39.6%16.5°C6921ft (2110m)13.36v31
661414 Apr 15:40:241112.1 mph15S (184°)9947710162331.8°C39.5%16.3°C6933ft (2113m)13.3v31
661314 Apr 15:40:13911.6 mph13SSW (193°)9947510162131.8°C39.6%16.4°C6916ft (2108m)13.34v31
661214 Apr 15:40:0279.7 mph13SSE (161°)9947410162031.8°C39.4%16.3°C6949ft (2118m)13.34v31
661114 Apr 15:39:501212.8 mph14S (177°)9947310161931.8°C39.4%16.3°C6949ft (2118m)13.34v31
661014 Apr 15:39:391516.2 mph17S (182°)9946410160931.8°C39.4%16.3°C6949ft (2118m)13.31v31
660914 Apr 15:39:28912.7 mph16S (189°)9947410162031.8°C39.6%16.4°C6916ft (2108m)13.33v31
660814 Apr 15:39:171012 mph15S (172°)9947410162031.8°C39.5%16.3°C6933ft (2113m)13.28v31
660714 Apr 15:39:06911.6 mph13S (190°)9947010161631.8°C39.7%16.4°C6900ft (2103m)13.34v31
660614 Apr 15:38:5456 mph10SSW (200°)9948010162631.8°C39.6%16.4°C6916ft (2108m)13.35v31
660514 Apr 15:38:431213.5 mph16S (190°)9947810162431.8°C39.6%16.4°C6916ft (2108m)13.33v31
660414 Apr 15:38:3299.8 mph12SSW (201°)9947710162331.8°C39.7%16.4°C6900ft (2103m)13.36v31
660314 Apr 15:38:2189.7 mph12SSW (193°)9947510162131.8°C39.7%16.4°C6900ft (2103m)13.35v31
660214 Apr 15:38:0999 mph10S (189°)9947510162131.8°C39.6%16.4°C6916ft (2108m)13.34v31
660114 Apr 15:37:5888.6 mph12S (182°)9947010161631.8°C39.5%16.3°C6933ft (2113m)13.32v31
660014 Apr 15:37:47710.5 mph13SSW (193°)9947910162531.7°C39.3%16.2°C6961ft (2122m)13.33v31
659914 Apr 15:37:36811.2 mph15S (179°)9947710162331.8°C39.4%16.3°C6949ft (2118m)13.32v31
659814 Apr 15:37:2469.9 mph15S (188°)9947510162131.8°C39.5%16.3°C6933ft (2113m)13.36v31
659714 Apr 15:37:1379.3 mph11S (189°)9947510162131.8°C39.6%16.4°C6916ft (2108m)13.34v31
659614 Apr 15:37:0267.7 mph10SSE (163°)9947410162031.7°C39.7%16.3°C6896ft (2102m)13.34v31
659514 Apr 15:36:5167.1 mph9S (188°)9948110162731.7°C39.6%16.3°C6912ft (2107m)13.35v31
659414 Apr 15:36:3969 mph11SSW (200°)9947410162031.8°C39.6%16.4°C6916ft (2108m)13.36v31
659314 Apr 15:36:28912 mph16S (179°)9948010162631.8°C39.6%16.4°C6916ft (2108m)13.33v31
659214 Apr 15:36:171010.1 mph11S (184°)9948010162631.8°C39.7%16.4°C6900ft (2103m)13.35v31
659114 Apr 15:36:0688.6 mph10S (190°)9948110162731.8°C39.6%16.4°C6916ft (2108m)13.34v31
659014 Apr 15:35:541013.7 mph19SSW (196°)9947410162031.8°C39.4%16.3°C6949ft (2118m)13.34v31
658914 Apr 15:35:43711.1 mph16S (184°)9946710161331.8°C39.6%16.4°C6916ft (2108m)13.35v31
658814 Apr 15:35:32911.4 mph13SSW (194°)9947910162531.8°C39.5%16.3°C6933ft (2113m)13.35v31
658714 Apr 15:35:211414.6 mph16S (182°)9947410162031.8°C39.4%16.3°C6949ft (2118m)13.33v31
658614 Apr 15:35:091113.2 mph18S (169°)9946410160931.8°C39.6%16.4°C6916ft (2108m)13.37v31
658514 Apr 15:34:58911.4 mph15S (188°)9947610162231.8°C39.5%16.3°C6933ft (2113m)13.33v31
658414 Apr 15:34:471113.3 mph17S (184°)9947910162531.8°C39.5%16.3°C6933ft (2113m)13.34v31
658314 Apr 15:34:36910.3 mph13S (181°)9946710161331.8°C39.5%16.3°C6933ft (2113m)13.34v31
658214 Apr 15:34:2489.4 mph12S (187°)9947710162331.8°C39.5%16.3°C6933ft (2113m)13.34v31
658114 Apr 15:34:13910.3 mph13S (189°)9947610162231.8°C39.4%16.3°C6949ft (2118m)13.38v31
658014 Apr 15:34:0268.8 mph15S (189°)9947610162231.8°C39.3%16.3°C6965ft (2123m)13.33v31
657914 Apr 15:33:511012.9 mph16S (188°)9947410162031.8°C39.2%16.2°C6982ft (2128m)13.36v31
657814 Apr 15:33:391010.1 mph13S (188°)9947610162231.8°C39.3%16.3°C6965ft (2123m)13.39v31
657714 Apr 15:33:281213.3 mph17S (186°)9947710162331.8°C39.1%16.2°C6998ft (2133m)13.36v31
657614 Apr 15:33:171011.5 mph13SSW (209°)9948310162931.8°C39%16.1°C7015ft (2138m)13.34v31
657514 Apr 15:33:061213.3 mph18S (188°)9947910162531.8°C39%16.1°C7015ft (2138m)13.38v31
657414 Apr 15:32:541315.2 mph19S (181°)9947210161831.8°C39%16.1°C7015ft (2138m)13.36v31
657314 Apr 15:32:431214.2 mph17SSW (193°)9946810161431.8°C39.3%16.3°C6965ft (2123m)13.36v31
657214 Apr 15:32:321111.5 mph12S (191°)9947510162131.8°C39.2%16.2°C6982ft (2128m)13.35v31
657114 Apr 15:32:2179.3 mph15S (189°)9947310161931.8°C39.3%16.3°C6965ft (2123m)13.35v31
657014 Apr 15:32:09911.1 mph13SSW (200°)9947410162031.8°C39.2%16.2°C6982ft (2128m)13.37v31
656914 Apr 15:31:581215.8 mph18SSW (195°)9947710162331.8°C39.2%16.2°C6982ft (2128m)13.4v31
656814 Apr 15:31:471415.1 mph17SSW (192°)9947210161831.8°C39.3%16.3°C6965ft (2123m)13.37v31
656714 Apr 15:31:3669.5 mph15S (178°)9947610162231.8°C39.4%16.3°C6949ft (2118m)13.32v31
656614 Apr 15:31:2498.6 mph12SSW (193°)9947610162231.8°C39.4%16.3°C6949ft (2118m)13.38v31
656514 Apr 15:31:13912.1 mph16S (188°)9947610162231.7°C39.5%16.2°C6928ft (2112m)13.38v31
656414 Apr 15:31:0268 mph12S (189°)9948210162831.7°C39.5%16.2°C6928ft (2112m)13.38v31
656314 Apr 15:30:5166.3 mph7S (190°)9947910162531.7°C39.4%16.2°C6944ft (2117m)13.36v31
656214 Apr 15:30:3999.9 mph11S (185°)9948310162931.7°C39.3%16.2°C6961ft (2122m)13.37v31
656114 Apr 15:30:28910.1 mph12S (185°)9948210162831.7°C39.2%16.1°C6977ft (2127m)13.38v31
656014 Apr 15:30:1778.1 mph11SSW (194°)9948310162931.7°C39.1%16.1°C6994ft (2132m)13.33v31
655914 Apr 15:30:0667.2 mph9S (185°)9947410162031.7°C38.9%16°C7027ft (2142m)13.38v31
655814 Apr 15:29:5488.2 mph11S (191°)9947510162131.7°C38.8%16°C7043ft (2147m)13.37v31
655714 Apr 15:29:43911.8 mph16S (187°)9948010162631.7°C38.7%15.9°C7060ft (2152m)13.36v31
655614 Apr 15:29:321013.4 mph17SSW (194°)9947910162531.7°C38.6%15.9°C7076ft (2157m)13.37v31
655514 Apr 15:29:211112.6 mph14S (189°)9947510162131.7°C38.7%15.9°C7060ft (2152m)13.37v31
655414 Apr 15:29:09810.8 mph14S (184°)9947710162331.7°C38.7%15.9°C7060ft (2152m)13.35v31
655314 Apr 15:28:581111.7 mph15SSW (193°)9947610162231.7°C38.9%16°C7027ft (2142m)13.38v31
655214 Apr 15:28:471012.9 mph15S (186°)9947210161831.7°C39%16°C7010ft (2137m)13.39v31
655114 Apr 15:28:3679.4 mph14S (180°)9948110162731.8°C39.1%16.2°C6998ft (2133m)13.36v31
655014 Apr 15:28:2468.5 mph17S (188°)9947910162531.7°C39.1%16.1°C6994ft (2132m)13.36v31
654914 Apr 15:28:1377.2 mph8SSW (213°)9948510163131.7°C38.7%15.9°C7060ft (2152m)13.33v31
654814 Apr 15:28:021111.9 mph14S (188°)9947910162531.7°C38.5%15.8°C7093ft (2162m)13.41v31
654714 Apr 15:27:511213.3 mph15SSW (201°)9948710163331.7°C39.1%16.1°C6994ft (2132m)13.36v31
654614 Apr 15:27:391212 mph15S (189°)9948010162631.8°C39.3%16.3°C6965ft (2123m)13.4v31
654514 Apr 15:27:281011.4 mph13S (179°)9947910162531.7°C39.7%16.3°C6896ft (2102m)13.39v31
654414 Apr 15:27:171112 mph16S (187°)9947710162331.7°C39.8%16.4°C6879ft (2097m)13.36v31
654314 Apr 15:27:0699.8 mph12SSW (200°)9947610162231.7°C40%16.4°C6847ft (2087m)13.33v31
654214 Apr 15:26:5466.6 mph10S (186°)9948010162631.7°C40%16.4°C6847ft (2087m)13.37v31
654114 Apr 15:26:4355.9 mph7SSW (208°)9948110162731.7°C39.8%16.4°C6879ft (2097m)13.37v31
654014 Apr 15:26:3288.9 mph11S (190°)9948210162831.7°C39.6%16.3°C6912ft (2107m)13.36v31
653914 Apr 15:26:211011.2 mph13S (180°)9947910162531.7°C39.3%16.2°C6961ft (2122m)13.42v31
653814 Apr 15:26:091313.9 mph15S (186°)9947810162431.7°C39.3%16.2°C6961ft (2122m)13.34v31
653714 Apr 15:25:58911 mph15S (180°)9947710162331.7°C39.5%16.2°C6928ft (2112m)13.4v31
653614 Apr 15:25:4789.5 mph11SSW (195°)9948910163531.7°C39.5%16.2°C6928ft (2112m)13.33v31
653514 Apr 15:25:36910.7 mph13S (190°)9948610163231.7°C39.5%16.2°C6928ft (2112m)13.36v31
653414 Apr 15:25:241212.3 mph14S (175°)9948510163131.7°C39.4%16.2°C6944ft (2117m)13.37v31
653314 Apr 15:25:13910 mph13S (176°)9948410163031.7°C39.3%16.2°C6961ft (2122m)13.35v31
653214 Apr 15:25:0267.9 mph12S (184°)9948910163531.7°C39.4%16.2°C6944ft (2117m)13.4v31
653114 Apr 15:24:5166.8 mph8SSW (200°)9948610163231.7°C39.3%16.2°C6961ft (2122m)13.37v31
653014 Apr 15:24:3968.6 mph13S (181°)9948410163031.7°C39.1%16.1°C6994ft (2132m)13.37v31
652914 Apr 15:24:2878.8 mph13S (183°)9948610163231.7°C39.1%16.1°C6994ft (2132m)13.38v31
652814 Apr 15:24:171112.4 mph14S (184°)9947910162531.7°C39.1%16.1°C6994ft (2132m)13.39v31
652714 Apr 15:24:06810.5 mph14S (190°)9948910163531.7°C39.1%16.1°C6994ft (2132m)13.37v31
652614 Apr 15:23:5478.5 mph11S (176°)9948610163231.7°C39.2%16.1°C6977ft (2127m)13.34v31
652514 Apr 15:23:4378.7 mph11S (188°)9948510163131.7°C39.2%16.1°C6977ft (2127m)13.38v31
652414 Apr 15:23:321010.8 mph12S (186°)9948610163231.7°C39.1%16.1°C6994ft (2132m)13.36v31
652314 Apr 15:23:2199.4 mph11SSW (195°)9947910162531.7°C39.2%16.1°C6977ft (2127m)13.39v31
652214 Apr 15:23:091113.5 mph16S (189°)9948310162931.7°C39.1%16.1°C6994ft (2132m)13.36v31
652114 Apr 15:22:581010.4 mph13S (179°)9948910163531.7°C39.2%16.1°C6977ft (2127m)13.37v31
652014 Apr 15:22:471012.2 mph16S (179°)9948510163131.7°C39.3%16.2°C6961ft (2122m)13.4v31
651914 Apr 15:22:361011.7 mph13SSW (201°)9949010163631.7°C39.2%16.1°C6977ft (2127m)13.35v31
651814 Apr 15:22:24710.7 mph14S (181°)9948410163031.7°C39%16°C7010ft (2137m)13.35v31
651714 Apr 15:22:1389.1 mph11S (178°)9949010163631.7°C38.9%16°C7027ft (2142m)13.4v31
651614 Apr 15:22:021213.4 mph15S (183°)9948510163131.8°C38.7%16°C7064ft (2153m)13.36v31
651514 Apr 15:21:51911.7 mph15S (186°)9948810163431.8°C38.8%16°C7048ft (2148m)13.4v31
651414 Apr 15:21:391214.7 mph18S (184°)9948310162931.7°C38.7%15.9°C7060ft (2152m)13.33v31
651314 Apr 15:21:281014.3 mph16S (187°)9946910161531.8°C38.9%16.1°C7031ft (2143m)13.38v31
651214 Apr 15:21:1788.9 mph11S (185°)9948110162731.8°C39%16.1°C7015ft (2138m)13.36v31
651114 Apr 15:21:0678 mph11S (188°)9948810163431.8°C39%16.1°C7015ft (2138m)13.41v31
651014 Apr 15:20:5468.1 mph10SSE (167°)9948710163331.8°C39.1%16.2°C6998ft (2133m)13.34v31
650914 Apr 15:20:43910.8 mph13S (173°)9948510163131.8°C38.9%16.1°C7031ft (2143m)13.39v31
650814 Apr 15:20:321011.9 mph14S (187°)9948410163031.8°C38.8%16°C7048ft (2148m)13.34v31
650714 Apr 15:20:211010.1 mph11S (177°)9948510163131.8°C38.8%16°C7048ft (2148m)13.39v31
650614 Apr 15:20:091213.4 mph15S (175°)9948010162631.8°C38.7%16°C7064ft (2153m)13.38v31
650514 Apr 15:19:58610.4 mph15SSE (162°)9947910162531.8°C38.7%16°C7064ft (2153m)13.37v31
650414 Apr 15:19:47810.8 mph14S (190°)9947910162531.8°C38.7%16°C7064ft (2153m)13.35v31
650314 Apr 15:19:361011.6 mph14S (183°)9948810163431.8°C38.7%16°C7064ft (2153m)13.38v31
650214 Apr 15:19:2489.3 mph11SSW (193°)9948510163131.8°C38.7%16°C7064ft (2153m)13.36v31
650114 Apr 15:19:1389.1 mph10S (190°)9949010163631.8°C38.6%16°C7081ft (2158m)13.39v31
650014 Apr 15:19:021010.7 mph11S (187°)9948710163331.8°C38.8%16°C7048ft (2148m)13.39v31
649914 Apr 15:18:51810.7 mph13S (174°)9948810163431.8°C38.8%16°C7048ft (2148m)13.38v31
649814 Apr 15:18:3977.8 mph9SSW (199°)9948910163531.8°C38.9%16.1°C7031ft (2143m)13.35v31
649714 Apr 15:18:2867.1 mph9SSW (193°)9948710163331.8°C38.8%16°C7048ft (2148m)13.39v31
649614 Apr 15:18:1788.7 mph11SSW (199°)9948410163031.8°C38.8%16°C7048ft (2148m)13.36v31
649514 Apr 15:18:0689 mph11S (191°)9949110163731.8°C38.9%16.1°C7031ft (2143m)13.38v31
649414 Apr 15:17:5478.3 mph11S (186°)9948210162831.8°C38.9%16.1°C7031ft (2143m)13.32v31
649314 Apr 15:17:43910.8 mph14S (178°)9949010163631.8°C38.7%16°C7064ft (2153m)13.38v31
649214 Apr 15:17:3277.5 mph9SSW (200°)9948810163431.8°C39%16.1°C7015ft (2138m)13.39v31
649114 Apr 15:17:2199.8 mph14SSW (200°)9949110163731.8°C38.8%16°C7048ft (2148m)13.35v31
649014 Apr 15:17:0967 mph10SSW (194°)9948410163031.8°C39%16.1°C7015ft (2138m)13.37v31
648914 Apr 15:16:5857.1 mph9S (188°)9948810163431.8°C38.8%16°C7048ft (2148m)13.36v31
648814 Apr 15:16:4789.5 mph12SSW (196°)9948610163231.8°C38.9%16.1°C7031ft (2143m)13.39v31
648714 Apr 15:16:361011.2 mph13SSW (205°)9948510163131.8°C39%16.1°C7015ft (2138m)13.37v31
648614 Apr 15:16:2478 mph10SSW (196°)9947910162531.8°C39%16.1°C7015ft (2138m)13.34v31
648514 Apr 15:16:1389 mph11SSW (193°)9948010162631.8°C38.9%16.1°C7031ft (2143m)13.35v31
648414 Apr 15:16:02911.1 mph13SSW (202°)9948710163331.8°C39%16.1°C7015ft (2138m)13.36v31
648314 Apr 15:15:51811.1 mph15S (183°)9948910163531.8°C39.2%16.2°C6982ft (2128m)13.36v31
648214 Apr 15:15:3977.8 mph9SSW (210°)9949310163931.8°C39.3%16.3°C6965ft (2123m)13.35v31
648114 Apr 15:15:2856.7 mph9S (191°)9948710163331.8°C39.2%16.2°C6982ft (2128m)13.36v31
648014 Apr 15:15:1878.2 mph9SSW (192°)9949210163831.8°C39.3%16.3°C6965ft (2123m)13.34v31
647914 Apr 15:15:0677.3 mph9SSW (196°)9948510163131.8°C39.3%16.3°C6965ft (2123m)13.37v31
647814 Apr 15:14:5567.8 mph10SSW (196°)9949110163731.8°C39.3%16.3°C6965ft (2123m)13.33v31
647714 Apr 15:14:4467.4 mph9S (179°)9949010163631.8°C39.3%16.3°C6965ft (2123m)13.32v31
647614 Apr 15:14:3358.6 mph12S (178°)9948810163431.8°C39.2%16.2°C6982ft (2128m)13.32v31
647514 Apr 15:14:21910.2 mph12S (179°)9949210163831.8°C39%16.1°C7015ft (2138m)13.35v31
647414 Apr 15:14:101011.5 mph13S (185°)9948210162831.8°C39%16.1°C7015ft (2138m)13.35v31
647314 Apr 15:13:5978.4 mph11S (176°)9948110162731.8°C39%16.1°C7015ft (2138m)13.34v31
647214 Apr 15:13:4889.4 mph11S (190°)9948710163331.8°C39%16.1°C7015ft (2138m)13.36v31
647114 Apr 15:13:3679 mph12S (178°)9948410163031.8°C39%16.1°C7015ft (2138m)13.33v31
647014 Apr 15:13:2578.7 mph11S (190°)9948710163331.8°C39%16.1°C7015ft (2138m)13.33v31
646914 Apr 15:13:14910.8 mph14S (190°)9948010162631.8°C39%16.1°C7015ft (2138m)13.32v31
646814 Apr 15:13:03911.1 mph14SSW (198°)9948810163431.8°C38.9%16.1°C7031ft (2143m)13.29v31
646714 Apr 15:12:5189.6 mph13SSW (196°)9948710163331.8°C38.9%16.1°C7031ft (2143m)13.35v31
646614 Apr 15:12:40810.4 mph12S (182°)9949310163931.8°C39%16.1°C7015ft (2138m)13.31v31
646514 Apr 15:12:2969.5 mph14S (181°)9947510162131.9°C39.1%16.3°C7003ft (2135m)13.33v31
646414 Apr 15:12:17911.6 mph14S (180°)9949110163731.9°C38.8%16.1°C7052ft (2149m)13.31v31
646314 Apr 15:12:06912.4 mph17S (181°)9948110162731.9°C38.8%16.1°C7052ft (2149m)13.31v31
646214 Apr 15:11:541011.6 mph13SSW (193°)9948710163331.9°C38.7%16.1°C7069ft (2155m)13.29v31
646114 Apr 15:11:431212.5 mph13SSW (196°)9948310162931.9°C38.7%16.1°C7069ft (2155m)13.32v31
646014 Apr 15:11:3288.6 mph10S (188°)9948210162831.9°C38.7%16.1°C7069ft (2155m)13.33v31
645914 Apr 15:11:211111.1 mph12SSW (196°)9948310162931.9°C38.7%16.1°C7069ft (2155m)13.34v31
645814 Apr 15:11:0967.6 mph9S (185°)9949010163631.9°C38.7%16.1°C7069ft (2155m)13.33v31
645714 Apr 15:10:5878.4 mph11S (179°)9948810163431.9°C38.4%16°C7119ft (2170m)13.33v31
645614 Apr 15:10:4767.6 mph12SSW (200°)9948910163531.9°C38.5%16°C7102ft (2165m)13.33v31
645514 Apr 15:10:3657.7 mph10S (174°)9948810163431.9°C38.2%15.9°C7152ft (2180m)13.36v31
645414 Apr 15:10:241011.6 mph14SSW (194°)9948510163131.9°C38.2%15.9°C7152ft (2180m)13.32v31
645314 Apr 15:10:131113 mph15S (182°)9948310162931.9°C38.1%15.9°C7169ft (2185m)13.33v31
645214 Apr 15:10:021112 mph14S (187°)9948110162732°C38.1%15.9°C7174ft (2187m)13.32v31
645114 Apr 15:09:5178.7 mph12SSW (197°)9948910163532°C38.2%16°C7157ft (2181m)13.33v31
645014 Apr 15:09:3977.8 mph10S (180°)9948710163331.9°C38.1%15.9°C7169ft (2185m)13.32v31
644914 Apr 15:09:2888.3 mph9SSW (199°)9948910163532°C38%15.9°C7191ft (2192m)13.33v31
644814 Apr 15:09:1789.8 mph12S (190°)9948510163132°C38%15.9°C7191ft (2192m)13.32v31
644714 Apr 15:09:0668 mph9S (176°)9948310162932°C38%15.9°C7191ft (2192m)13.3v31
644614 Apr 15:08:5456.4 mph9S (185°)9948910163532°C37.8%15.8°C7225ft (2202m)13.32v31
644514 Apr 15:08:4355.7 mph7S (189°)9948710163332°C37.7%15.8°C7242ft (2207m)13.32v31
644414 Apr 15:08:3278.6 mph11S (189°)9948810163432°C37.5%15.7°C7276ft (2218m)13.29v31
644314 Apr 15:08:21810.1 mph12SSW (192°)9948310162932°C37.4%15.7°C7293ft (2223m)13.33v31
644214 Apr 15:08:091113.8 mph15S (181°)9948610163232°C37.4%15.7°C7293ft (2223m)13.33v31
644114 Apr 15:07:581010.8 mph13S (189°)9947810162432°C37.5%15.7°C7276ft (2218m)13.33v31
644014 Apr 15:07:47912.1 mph16S (185°)9948710163332.1°C37.5%15.8°C7281ft (2219m)13.31v31
643914 Apr 15:07:3677.4 mph10S (178°)9949010163632.1°C37.4%15.7°C7298ft (2224m)13.33v31
643814 Apr 15:07:2489.8 mph12S (189°)9948610163232.1°C37.4%15.7°C7298ft (2224m)13.33v31
643714 Apr 15:07:131013.2 mph16S (179°)9947810162432.1°C37.5%15.8°C7281ft (2219m)13.3v31
643614 Apr 15:07:0299.7 mph12S (186°)9949110163732.1°C37.6%15.8°C7263ft (2214m)13.32v31
643514 Apr 15:06:511011.1 mph12S (187°)9947910162532.1°C37.8%15.9°C7229ft (2203m)13.3v31
643414 Apr 15:06:39911.6 mph14S (173°)9948710163332.1°C37.8%15.9°C7229ft (2203m)13.32v31
643314 Apr 15:06:2857.5 mph12S (190°)9949210163832.2°C38%16.1°C7200ft (2195m)13.33v31
643214 Apr 15:06:1747.3 mph12S (191°)9949010163632.1°C37.7%15.9°C7246ft (2209m)13.36v31
643114 Apr 15:06:061011.6 mph15S (189°)9948310162932.2°C37.8%16°C7234ft (2205m)13.3v31
643014 Apr 15:05:5478.6 mph10SSW (192°)9948910163532.2°C37.9%16°C7217ft (2200m)13.31v31
642914 Apr 15:05:4377.9 mph10S (187°)9948810163432.2°C38.1%16.1°C7183ft (2189m)13.29v31
642814 Apr 15:05:32811 mph13S (186°)9948710163332.2°C38.2%16.2°C7167ft (2185m)13.31v31
642714 Apr 15:05:2199.4 mph10SSW (204°)9949110163732.2°C38.2%16.2°C7167ft (2185m)13.3v31
642614 Apr 15:05:0977.6 mph8SSW (199°)9949210163832.2°C38.1%16.1°C7183ft (2189m)13.29v31
642514 Apr 15:04:5879.2 mph11S (189°)9948910163532.2°C38%16.1°C7200ft (2195m)13.31v31
642414 Apr 15:04:471010.7 mph12S (181°)9948410163032.2°C37.7%16°C7251ft (2210m)13.31v31
642314 Apr 15:04:3689.6 mph12S (173°)9949110163732.2°C37.5%15.9°C7285ft (2220m)13.32v31
642214 Apr 15:04:241111.9 mph13S (180°)9949110163732.2°C37.5%15.9°C7285ft (2220m)13.31v31
642114 Apr 15:04:131011.3 mph13S (182°)9948810163432.2°C37.4%15.8°C7302ft (2226m)13.3v31
642014 Apr 15:04:021010.7 mph12SSW (196°)9949410164032.3°C37.6%16°C7273ft (2217m)13.31v31
641914 Apr 15:03:51910.2 mph12SSW (209°)9948910163532.3°C37.7%16°C7256ft (2212m)13.28v31
641814 Apr 15:03:391010.6 mph12S (182°)9948910163532.3°C37.9%16.1°C7222ft (2201m)13.35v31
641714 Apr 15:03:28910 mph11SSW (198°)9948510163132.3°C37.8%16.1°C7239ft (2206m)13.29v31
641614 Apr 15:03:1789.4 mph11SSW (192°)9949010163632.3°C37.6%16°C7273ft (2217m)13.33v31
641514 Apr 15:03:0656.2 mph8S (190°)9949110163732.3°C37.5%16°C7290ft (2222m)13.29v31
641414 Apr 15:02:5488.5 mph9S (170°)9949410164032.3°C37.3%15.9°C7324ft (2232m)13.33v31
641314 Apr 15:02:43710.3 mph12S (174°)9949110163732.3°C37.1%15.8°C7359ft (2243m)13.29v31
641214 Apr 15:02:32911.1 mph14S (191°)9949910164532.4°C37.1%15.9°C7364ft (2245m)13.33v31
641114 Apr 15:02:211212.9 mph15S (179°)9949810164432.4°C37%15.8°C7381ft (2250m)13.29v31
641014 Apr 15:02:091013.5 mph16SSW (192°)9948910163532.4°C37.1%15.9°C7364ft (2245m)13.33v31
640914 Apr 15:01:581214.8 mph18S (174°)9948810163432.4°C37.2%15.9°C7347ft (2239m)13.33v31
640814 Apr 15:01:471011.4 mph16S (182°)9950210164832.4°C37.4%16°C7312ft (2229m)13.3v31
640714 Apr 15:01:3688 mph10S (179°)9949110163732.4°C37.5%16°C7295ft (2224m)13.35v31
640614 Apr 15:01:2489.9 mph13SSW (194°)9949910164532.5°C37.5%16.1°C7300ft (2225m)13.34v31
640514 Apr 15:01:13911.4 mph14SSW (193°)9949010163632.5°C37.6%16.2°C7283ft (2220m)13.28v31
640414 Apr 15:01:0266.6 mph8SSW (194°)9949510164132.5°C37.6%16.2°C7283ft (2220m)13.32v31
640314 Apr 15:00:5179.6 mph14SSW (192°)9949110163732.5°C37.5%16.1°C7300ft (2225m)13.32v31
640214 Apr 15:00:3979.3 mph12S (191°)9949010163632.5°C37.6%16.2°C7283ft (2220m)13.32v31
640114 Apr 15:00:281212.9 mph14SSW (198°)9949010163632.5°C37.5%16.1°C7300ft (2225m)13.3v31
640014 Apr 15:00:17911.8 mph16S (182°)9949510164132.5°C37.6%16.2°C7283ft (2220m)13.32v31
639914 Apr 15:00:0668.8 mph12S (187°)9949710164332.5°C37.4%16.1°C7317ft (2230m)13.33v31
639814 Apr 14:59:5499.8 mph13S (187°)9949710164332.5°C37.3%16.1°C7334ft (2235m)13.3v31
639714 Apr 14:59:431012.5 mph15S (174°)9949410164032.5°C37.1%16°C7369ft (2246m)13.35v31
639614 Apr 14:59:321010.5 mph13S (181°)9949710164332.5°C37%15.9°C7386ft (2251m)13.3v31
639514 Apr 14:59:211112.6 mph15S (188°)9948810163432.6°C37.2%16.1°C7356ft (2242m)13.31v31
639414 Apr 14:59:091111.6 mph13S (177°)9949510164132.6°C37.4%16.2°C7322ft (2232m)13.33v31
639314 Apr 14:58:58910.1 mph12S (174°)9949210163832.6°C37.1%16.1°C7374ft (2248m)13.32v31
639214 Apr 14:58:47911.1 mph13S (174°)9949710164332.6°C37%16°C7391ft (2253m)13.35v31
639114 Apr 14:58:36811.9 mph16S (187°)9949510164132.6°C37%16°C7391ft (2253m)13.32v31
639014 Apr 14:58:24610.1 mph14SSW (196°)9949710164332.6°C37%16°C7391ft (2253m)13.33v31
638914 Apr 14:58:1367.9 mph10S (176°)9950310164932.6°C37.1%16.1°C7374ft (2248m)13.29v31
638814 Apr 14:58:0288.7 mph10S (173°)9950710165332.6°C37%16°C7391ft (2253m)13.32v31
638714 Apr 14:57:511010 mph11SSW (192°)9950310164932.6°C36.8%15.9°C7426ft (2263m)13.3v31
638614 Apr 14:57:391010.9 mph12SSE (162°)9949610164232.6°C36.8%15.9°C7426ft (2263m)13.33v31
638514 Apr 14:57:2889.3 mph12SSW (194°)9950110164732.6°C36.7%15.9°C7443ft (2269m)13.31v31
638414 Apr 14:57:1799.2 mph11SSW (197°)9950110164732.6°C36.5%15.8°C7478ft (2279m)13.3v31
638314 Apr 14:57:061112.1 mph14S (183°)9950210164832.7°C36.3%15.8°C7518ft (2291m)13.32v31
638214 Apr 14:56:541111.7 mph14S (178°)9949710164332.7°C36.3%15.8°C7518ft (2291m)13.29v31
638114 Apr 14:56:431010.2 mph12S (175°)9950110164732.7°C36.3%15.8°C7518ft (2291m)13.33v31
638014 Apr 14:56:321112.2 mph13S (184°)9950410165032.7°C36.2%15.8°C7536ft (2297m)13.3v31
637914 Apr 14:56:21810.5 mph14S (170°)9949910164532.8°C36.3%15.9°C7523ft (2293m)13.29v31
637814 Apr 14:56:09811.1 mph15S (187°)9949810164432.8°C36.2%15.8°C7541ft (2298m)13.31v31
637714 Apr 14:55:581013.6 mph19S (188°)9950210164832.8°C36%15.8°C7576ft (2309m)13.35v31
637614 Apr 14:55:471013.2 mph17S (175°)9949110163732.8°C36.2%15.8°C7541ft (2298m)13.36v31
637514 Apr 14:55:361314.5 mph16S (171°)9949910164532.8°C36.2%15.8°C7541ft (2298m)13.31v31
637414 Apr 14:55:2499.3 mph10S (179°)9950110164732.8°C36.2%15.8°C7541ft (2298m)13.29v31
637314 Apr 14:55:131011.1 mph14S (180°)9950310164932.9°C36.3%16°C7528ft (2295m)13.31v31
637214 Apr 14:55:021112.9 mph15S (171°)9949910164532.9°C36.6%16.1°C7475ft (2278m)13.36v31
637114 Apr 14:54:5158.5 mph11SSE (166°)9950310164932.9°C36.4%16°C7511ft (2289m)13.3v31
637014 Apr 14:54:3947.8 mph11S (175°)9950010164632.9°C36.3%16°C7528ft (2295m)13.29v31
636914 Apr 14:54:2879 mph11S (184°)9950410165032.9°C36.4%16°C7511ft (2289m)13.34v31
636814 Apr 14:54:1789.7 mph11S (181°)9950210164832.9°C36.2%15.9°C7546ft (2300m)13.31v31
636714 Apr 14:54:0658.4 mph13S (183°)9950110164732.9°C36.1%15.9°C7564ft (2306m)13.3v31
636614 Apr 14:53:5477.7 mph10S (185°)9950910165533°C35.9%15.9°C7604ft (2318m)13.32v31
636514 Apr 14:53:43810.8 mph13S (186°)9950510165133°C36.1%16°C7569ft (2307m)13.35v31
636414 Apr 14:53:32810.4 mph14S (184°)9950610165233°C36%15.9°C7587ft (2313m)13.32v31
636314 Apr 14:53:21911 mph14SSE (160°)9950210164833°C35.9%15.9°C7604ft (2318m)13.29v31
636214 Apr 14:53:091415.6 mph19S (171°)9950010164633°C36.1%16°C7569ft (2307m)13.32v31
636114 Apr 14:52:581112.6 mph16S (180°)9950810165433°C36.1%16°C7569ft (2307m)13.28v31
636014 Apr 14:52:471011.9 mph13S (180°)9950510165133°C35.9%15.9°C7604ft (2318m)13.33v31
635914 Apr 14:52:36810.2 mph13SSE (165°)9949910164533.1°C35.8%15.9°C7627ft (2325m)13.3v31
635814 Apr 14:52:24710.1 mph13S (191°)9950710165333.1°C35.9%16°C7609ft (2319m)13.31v31
635714 Apr 14:52:13810.4 mph12S (180°)9950810165433.1°C36%16°C7592ft (2314m)13.3v31
635614 Apr 14:52:0278.7 mph11S (189°)9950510165133.1°C36%16°C7592ft (2314m)13.32v31
635514 Apr 14:51:5146.6 mph10SSE (163°)9950910165533.1°C35.9%16°C7609ft (2319m)13.36v31
635414 Apr 14:51:39811.3 mph14S (186°)9951210165833.1°C36.1%16.1°C7574ft (2309m)13.31v31
635314 Apr 14:51:281112.3 mph14S (175°)9951110165733.1°C36.2%16.1°C7556ft (2303m)13.29v31
635214 Apr 14:51:1767 mph10S (188°)9950710165333.1°C36%16°C7592ft (2314m)13.31v31
635114 Apr 14:51:0699.7 mph12S (170°)9950110164733.1°C36.2%16.1°C7556ft (2303m)13.31v31
635014 Apr 14:50:54910.6 mph13S (171°)9950810165433.1°C36%16°C7592ft (2314m)13.31v31
634914 Apr 14:50:4367.7 mph11S (169°)9949210163833.1°C36.2%16.1°C7556ft (2303m)13.35v31
634814 Apr 14:50:3279.7 mph14S (180°)9951210165833.1°C36%16°C7592ft (2314m)13.32v31
634714 Apr 14:50:211112.7 mph15S (177°)9948510163133.1°C36.4%16.2°C7521ft (2292m)13.28v31
634614 Apr 14:50:09109.9 mph11S (183°)9950310164933.1°C36.4%16.2°C7521ft (2292m)13.28v31
634514 Apr 14:49:5888.5 mph10S (189°)9950510165133.1°C36.5%16.2°C7503ft (2287m)13.33v31
634414 Apr 14:49:4789.9 mph13S (187°)9950810165433.1°C36.4%16.2°C7521ft (2292m)13.29v31
634314 Apr 14:49:361111.9 mph13SSW (194°)9950410165033.1°C36.4%16.2°C7521ft (2292m)13.35v31
634214 Apr 14:49:2467.6 mph11SSW (197°)9950810165433.1°C36.3%16.2°C7538ft (2298m)13.3v31
634114 Apr 14:49:1379.8 mph12S (173°)9949610164233.1°C36.1%16.1°C7574ft (2309m)13.32v31
634014 Apr 14:49:0268.3 mph11SSW (198°)9950310164933.2°C36.4%16.3°C7526ft (2294m)13.29v31
633914 Apr 14:48:5155.9 mph9SSE (168°)9950610165233.2°C36.3%16.2°C7543ft (2299m)13.32v31
633814 Apr 14:48:3966.4 mph9S (186°)9950810165433.1°C36.2%16.1°C7556ft (2303m)13.28v31
633714 Apr 14:48:28911 mph14S (189°)9950810165433.1°C36.3%16.2°C7538ft (2298m)13.32v31
633614 Apr 14:48:171010 mph11SSW (192°)9950510165133.1°C36.3%16.2°C7538ft (2298m)13.28v31
633514 Apr 14:48:0688.7 mph10S (175°)9950510165133.1°C36.2%16.1°C7556ft (2303m)13.33v31
633414 Apr 14:47:54911.3 mph15S (178°)9950510165133.1°C36.1%16.1°C7574ft (2309m)13.29v31
633314 Apr 14:47:43710.1 mph13S (185°)9950010164633.1°C36.2%16.1°C7556ft (2303m)13.34v31
633214 Apr 14:47:32810.2 mph13S (185°)9950810165433.2°C36.2%16.2°C7561ft (2305m)13.29v31
633114 Apr 14:47:211010.5 mph13S (186°)9950510165133.2°C36.2%16.2°C7561ft (2305m)13.32v31
633014 Apr 14:47:0978.7 mph10SSW (193°)9950810165433.2°C36.4%16.3°C7526ft (2294m)13.27v31
632914 Apr 14:46:5855.8 mph7SSE (167°)9951010165633.1°C36.4%16.2°C7521ft (2292m)13.33v31
632814 Apr 14:46:4746.1 mph9S (174°)9951010165633.2°C36.4%16.3°C7526ft (2294m)13.35v31
632714 Apr 14:46:3644.9 mph8S (179°)9950910165533.1°C36.2%16.1°C7556ft (2303m)13.35v31
632614 Apr 14:46:2476.9 mph11SSE (155°)9951110165733.1°C36%16°C7592ft (2314m)13.31v31
632514 Apr 14:46:1379.7 mph13S (175°)9951210165833.1°C36.1%16.1°C7574ft (2309m)13.31v31
632414 Apr 14:46:02810.6 mph13S (186°)9951110165733.1°C36.2%16.1°C7556ft (2303m)13.31v31
632314 Apr 14:45:5189.1 mph11SSE (162°)9950310164933.1°C36.3%16.2°C7538ft (2298m)13.29v31
632214 Apr 14:45:3989 mph11S (178°)9951010165633.1°C36.3%16.2°C7538ft (2298m)13.33v31
632114 Apr 14:45:2868 mph10S (182°)9950910165533.1°C36.2%16.1°C7556ft (2303m)13.3v31
632014 Apr 14:45:1777.5 mph9S (189°)9951310166033.1°C35.9%16°C7609ft (2319m)13.31v31
631914 Apr 14:45:061012.3 mph16SSE (155°)9950810165433.1°C35.8%15.9°C7627ft (2325m)13.33v31
631814 Apr 14:44:541213.4 mph15S (180°)9950010164633.1°C35.9%16°C7609ft (2319m)13.34v31
631714 Apr 14:44:431011.4 mph14S (176°)9951110165733.1°C35.9%16°C7609ft (2319m)13.3v31
631614 Apr 14:44:3288.6 mph11S (185°)9950210164833.1°C35.8%15.9°C7627ft (2325m)13.3v31
631514 Apr 14:44:2179 mph10S (178°)9951210165833.1°C35.8%15.9°C7627ft (2325m)13.33v31
631414 Apr 14:44:0999.6 mph10S (181°)9951110165733.1°C35.6%15.8°C7663ft (2336m)13.28v31
631314 Apr 14:43:5879 mph12S (181°)9950910165533.1°C35.5%15.8°C7681ft (2341m)13.31v31
631214 Apr 14:43:47711.4 mph14S (185°)9950710165333.1°C35.4%15.8°C7699ft (2347m)13.35v31
631114 Apr 14:43:3658.4 mph14S (185°)9950810165433.1°C35.7%15.9°C7645ft (2330m)13.3v31
631014 Apr 14:43:2468.1 mph12S (182°)9951410166133.1°C35.6%15.8°C7663ft (2336m)13.29v31
630914 Apr 14:43:131111.7 mph13S (171°)9951110165733.1°C35.5%15.8°C7681ft (2341m)13.33v31
630814 Apr 14:43:02810.1 mph13S (178°)9951010165633.1°C35.7%15.9°C7645ft (2330m)13.33v31
630714 Apr 14:42:5167.5 mph9S (179°)9950810165433.1°C35.5%15.8°C7681ft (2341m)13.34v31
630614 Apr 14:42:3978.6 mph11S (176°)9951010165633.1°C35.4%15.8°C7699ft (2347m)13.29v31
630514 Apr 14:42:28910.9 mph13S (174°)9951010165633.1°C35.5%15.8°C7681ft (2341m)13.32v31
630414 Apr 14:42:17911.6 mph13S (180°)9951110165733°C35.3%15.6°C7712ft (2351m)13.3v31
630314 Apr 14:42:061213 mph14S (182°)9950710165333.1°C35.4%15.8°C7699ft (2347m)13.3v31
630214 Apr 14:41:5499.6 mph12S (179°)9951010165633.1°C35.6%15.8°C7663ft (2336m)13.36v31
630114 Apr 14:41:431213.7 mph15S (176°)9950910165533.1°C35.9%16°C7609ft (2319m)13.34v31
630014 Apr 14:41:3258.3 mph12S (179°)9951010165633.1°C36.4%16.2°C7521ft (2292m)13.3v31
629914 Apr 14:41:2145.3 mph6SSE (165°)9951510166233°C36.3%16.1°C7533ft (2296m)13.34v31
629814 Apr 14:41:0957 mph10S (185°)9951610166333°C36.2%16°C7551ft (2302m)13.3v31
629714 Apr 14:40:5866.8 mph10S (190°)9950910165533°C36.3%16.1°C7533ft (2296m)13.31v31
629614 Apr 14:40:4756.2 mph8S (180°)9951810166533°C36.3%16.1°C7533ft (2296m)13.28v31
629514 Apr 14:40:3678.1 mph10S (182°)9951810166533°C36.4%16.1°C7516ft (2291m)13.33v31
629414 Apr 14:40:24810.2 mph13S (173°)9951710166433°C36.3%16.1°C7533ft (2296m)13.31v31
629314 Apr 14:40:131011.3 mph13S (176°)9951210165832.9°C36.2%15.9°C7546ft (2300m)13.32v31
629214 Apr 14:40:021112 mph14SSE (167°)9950310164933°C36.4%16.1°C7516ft (2291m)13.3v31
629114 Apr 14:39:5157 mph11SSE (166°)9951510166233°C36.4%16.1°C7516ft (2291m)13.34v31
629014 Apr 14:39:3989.1 mph10SSW (193°)9951610166333°C36.5%16.2°C7498ft (2285m)13.35v31
628914 Apr 14:39:2879.3 mph12S (187°)9951710166433°C36.3%16.1°C7533ft (2296m)13.28v31
628814 Apr 14:39:1789.5 mph12SSW (199°)9951410166133°C36.3%16.1°C7533ft (2296m)13.31v31
628714 Apr 14:39:061011.9 mph14S (174°)9949410164033°C36.1%16°C7569ft (2307m)13.35v31
628614 Apr 14:38:5468.5 mph12S (176°)9951010165633°C36.3%16.1°C7533ft (2296m)13.29v31
628514 Apr 14:38:4368.2 mph12S (172°)9951710166433°C36.1%16°C7569ft (2307m)13.32v31
628414 Apr 14:38:32710.6 mph13SSE (166°)9951510166233°C36.1%16°C7569ft (2307m)13.28v31
628314 Apr 14:38:2187.7 mph10SSE (164°)9951910166633°C36.1%16°C7569ft (2307m)13.31v31
628214 Apr 14:38:0967.5 mph10S (181°)9951610166333°C36.1%16°C7569ft (2307m)13.35v31
628114 Apr 14:37:5877.4 mph9SSE (168°)9951810166533°C35.9%15.9°C7604ft (2318m)13.31v31
628014 Apr 14:37:471011.8 mph14S (179°)9951910166633°C35.8%15.8°C7622ft (2323m)13.27v31
627914 Apr 14:37:361213.2 mph15S (174°)9951310166033.1°C35.6%15.8°C7663ft (2336m)13.33v31
627814 Apr 14:37:2499.4 mph12S (183°)9951410166133.1°C35.8%15.9°C7627ft (2325m)13.29v31
627714 Apr 14:37:13910.8 mph14SSW (201°)9951710166433.1°C36%16°C7592ft (2314m)13.33v31
627614 Apr 14:37:0279.7 mph14S (183°)9951910166633.2°C36%16.1°C7597ft (2316m)13.3v31
627514 Apr 14:36:511010.4 mph12S (190°)9951910166633.2°C35.9%16.1°C7614ft (2321m)13.32v31
627414 Apr 14:36:3989.5 mph11S (184°)9951810166533.2°C36%16.1°C7597ft (2316m)13.33v31
627314 Apr 14:36:281012 mph15SSW (192°)9952210166933.2°C35.9%16.1°C7614ft (2321m)13.34v31
627214 Apr 14:36:17810.8 mph14S (179°)9951410166133.2°C36.1%16.2°C7579ft (2310m)13.29v31
627114 Apr 14:36:0689.6 mph12S (182°)9952710167433.2°C36.2%16.2°C7561ft (2305m)13.31v31
627014 Apr 14:35:5488.9 mph10SSW (200°)9951410166133.3°C35.9%16.2°C7619ft (2322m)13.29v31
626914 Apr 14:35:43810.1 mph12S (189°)9951810166533.3°C36.1%16.2°C7584ft (2312m)13.33v31
626814 Apr 14:35:3278.4 mph11S (179°)9951710166433.3°C36.1%16.2°C7584ft (2312m)13.3v31
626714 Apr 14:35:21910.1 mph13S (182°)9952410167133.3°C35.9%16.2°C7619ft (2322m)13.34v31
626614 Apr 14:35:091213 mph15SSE (165°)9952210166933.3°C35.9%16.2°C7619ft (2322m)13.29v31
626514 Apr 14:34:581010.8 mph12S (172°)9952010166733.3°C35.8%16.1°C7637ft (2328m)13.32v31
626414 Apr 14:34:471010.6 mph12S (183°)9952110166833.4°C35.6%16.1°C7678ft (2340m)13.27v31
626314 Apr 14:34:361213 mph15SSE (167°)9951110165733.4°C35.5%16.1°C7696ft (2346m)13.32v31
626214 Apr 14:34:241012.1 mph15S (169°)9952110166833.4°C35.4%16°C7715ft (2352m)13.32v31
626114 Apr 14:34:131010.8 mph14S (179°)9951110165733.4°C35.7%16.2°C7660ft (2335m)13.29v31
626014 Apr 14:34:0289.3 mph13S (179°)9952010166733.4°C35.6%16.1°C7678ft (2340m)13.34v31
625914 Apr 14:33:5199 mph10SSE (164°)9951410166133.4°C35.6%16.1°C7678ft (2340m)13.28v31
625814 Apr 14:33:3987.9 mph9S (181°)9951710166433.4°C35.5%16.1°C7696ft (2346m)13.33v31
625714 Apr 14:33:281010 mph13S (179°)9952010166733.4°C35.4%16°C7715ft (2352m)13.29v31
625614 Apr 14:33:171010.7 mph12S (184°)9951910166633.4°C35.2%15.9°C7751ft (2363m)13.3v31
625514 Apr 14:33:061010.1 mph12SSW (192°)9952310167033.5°C35.4%16.1°C7720ft (2353m)13.31v31
625414 Apr 14:32:5469.1 mph12S (181°)9952310167033.5°C35.4%16.1°C7720ft (2353m)13.31v31
625314 Apr 14:32:431010 mph11S (181°)9951810166533.5°C35.6%16.2°C7683ft (2342m)13.36v31
625214 Apr 14:32:3278 mph9S (170°)9952210166933.5°C35.4%16.1°C7720ft (2353m)13.35v31
625114 Apr 14:32:2189 mph11S (187°)9952010166733.5°C35.2%16°C7756ft (2364m)13.3v31
625014 Apr 14:32:09910.2 mph12SSW (193°)9951910166633.5°C35.1%16°C7774ft (2370m)13.31v31
624914 Apr 14:31:5889.9 mph11S (185°)9951810166533.5°C35.1%16°C7774ft (2370m)13.34v31
624814 Apr 14:31:4757.1 mph10SSE (168°)9951810166533.6°C35%16°C7798ft (2377m)13.32v31
624714 Apr 14:31:3679.2 mph11S (176°)9951510166233.6°C34.8%15.9°C7835ft (2388m)13.32v31
624614 Apr 14:31:241011 mph13S (173°)9952010166733.6°C34.8%15.9°C7835ft (2388m)13.28v31
624514 Apr 14:31:13810.7 mph13S (180°)9951310166033.6°C34.9%16°C7816ft (2382m)13.34v31
624414 Apr 14:31:02910 mph13SSE (167°)9951810166533.6°C35%16°C7798ft (2377m)13.29v31
624314 Apr 14:30:5187.8 mph9S (185°)9951610166333.6°C35%16°C7798ft (2377m)13.35v31
624214 Apr 14:30:391112 mph15S (178°)9952210166933.6°C35%16°C7798ft (2377m)13.28v31
624114 Apr 14:30:2867.6 mph10S (188°)9951910166633.6°C35.2%16.1°C7761ft (2366m)13.32v31
624014 Apr 14:30:1777.5 mph9SSE (166°)9951610166333.6°C35.3%16.2°C7743ft (2360m)13.31v31
623914 Apr 14:30:06910 mph11S (185°)9952510167233.6°C35.2%16.1°C7761ft (2366m)13.29v31
623814 Apr 14:29:54911 mph13S (186°)9952110166833.6°C35.1%16.1°C7779ft (2371m)13.31v31
623714 Apr 14:29:431112.1 mph14S (177°)9951510166233.6°C34.9%16°C7816ft (2382m)13.32v31
623614 Apr 14:29:32811.4 mph14S (181°)9951710166433.7°C35.4%16.3°C7730ft (2356m)13.29v31
623514 Apr 14:29:2199.8 mph12S (187°)9951910166633.7°C35.4%16.3°C7730ft (2356m)13.33v31
623414 Apr 14:29:0998.5 mph10S (177°)9952010166733.6°C35.5%16.2°C7707ft (2349m)13.28v31
623314 Apr 14:28:581011.5 mph14SSE (161°)9952010166733.6°C35.4%16.2°C7725ft (2355m)13.33v31
623214 Apr 14:28:4789.9 mph13S (176°)9952210166933.7°C35.3%16.2°C7748ft (2362m)13.29v31
623114 Apr 14:28:361011.2 mph13S (186°)9951610166333.7°C35.2%16.2°C7766ft (2367m)13.35v31
623014 Apr 14:28:2489.2 mph11S (181°)9951710166433.7°C35.3%16.2°C7748ft (2362m)13.3v31
622914 Apr 14:28:1377.7 mph8S (182°)9952210166933.6°C35.4%16.2°C7725ft (2355m)13.34v31
622814 Apr 14:28:0278.7 mph10S (181°)9952110166833.6°C35.4%16.2°C7725ft (2355m)13.28v31
622714 Apr 14:27:5167.5 mph10S (174°)9952410167133.6°C35.6%16.3°C7689ft (2344m)13.33v31
622614 Apr 14:27:3977.4 mph9S (181°)9952010166733.6°C35.5%16.2°C7707ft (2349m)13.35v31
622514 Apr 14:27:2856.1 mph7SSW (200°)9952410167133.6°C35.1%16.1°C7779ft (2371m)13.3v31
622414 Apr 14:27:171012.4 mph14S (181°)9952110166833.6°C35.1%16.1°C7779ft (2371m)13.28v31
622314 Apr 14:27:0679.9 mph14S (176°)9951110165733.6°C35.3%16.2°C7743ft (2360m)13.28v31
622214 Apr 14:26:5499.2 mph11S (184°)9952010166733.6°C35.3%16.2°C7743ft (2360m)13.33v31
622114 Apr 14:26:43910.3 mph12S (181°)9952110166833.6°C35%16°C7798ft (2377m)13.31v31
622014 Apr 14:26:321114.1 mph17S (185°)9952110166833.6°C34.9%16°C7816ft (2382m)13.31v31
621914 Apr 14:26:211314.9 mph16SSW (192°)9951210165833.7°C35.1%16.2°C7785ft (2373m)13.32v31
621814 Apr 14:26:091011.1 mph13S (189°)9951910166633.7°C35.3%16.2°C7748ft (2362m)13.29v31
621714 Apr 14:25:581012.5 mph15S (186°)9951510166233.7°C35.5%16.3°C7712ft (2351m)13.3v31
621614 Apr 14:25:4779.2 mph11S (174°)9951510166233.7°C35.4%16.3°C7730ft (2356m)13.32v31
621514 Apr 14:25:361213.8 mph18SSW (206°)9951910166633.7°C35.4%16.3°C7730ft (2356m)13.29v31
621414 Apr 14:25:241011.8 mph14S (185°)9951510166233.7°C35.5%16.3°C7712ft (2351m)13.3v31
621314 Apr 14:25:13911.1 mph13S (184°)9951410166133.8°C35.8%16.5°C7663ft (2336m)13.28v31
621214 Apr 14:25:0289.8 mph12S (191°)9952810167533.8°C36%16.6°C7627ft (2325m)13.3v31
621114 Apr 14:24:5166.7 mph9SSE (166°)9952010166733.8°C35.8%16.5°C7663ft (2336m)13.29v31
621014 Apr 14:24:3978.2 mph10SSW (211°)9952210166933.8°C35.9%16.6°C7645ft (2330m)13.3v31
620914 Apr 14:24:2856.3 mph8S (184°)9952310167033.8°C36%16.6°C7627ft (2325m)13.3v31
620814 Apr 14:24:1758.7 mph12S (184°)9952610167333.8°C36.1%16.7°C7609ft (2319m)13.29v31
620714 Apr 14:24:06811.4 mph14SSW (192°)9951710166433.8°C36%16.6°C7627ft (2325m)13.29v31
620614 Apr 14:23:54810.4 mph13SSW (202°)9952610167333.8°C36%16.6°C7627ft (2325m)13.3v31
620514 Apr 14:23:4357 mph10SSW (195°)9951310166033.8°C36.1%16.7°C7609ft (2319m)13.27v31
620414 Apr 14:23:3288.6 mph9S (187°)9952310167033.8°C36%16.6°C7627ft (2325m)13.29v31
620314 Apr 14:23:2178.5 mph11SSW (198°)9952510167233.8°C36.3%16.8°C7573ft (2308m)13.29v31
620214 Apr 14:23:0956.1 mph8SSW (208°)9952810167533.8°C36.2%16.7°C7591ft (2314m)13.29v31
620114 Apr 14:22:5888.4 mph10SSW (197°)9952610167333.8°C35.9%16.6°C7645ft (2330m)13.29v31
620014 Apr 14:22:4789.1 mph10S (180°)9952710167433.8°C35.6%16.5°C7699ft (2347m)13.3v31
619914 Apr 14:22:3689.9 mph11S (187°)9952310167033.8°C35.6%16.5°C7699ft (2347m)13.27v31
619814 Apr 14:22:2479.5 mph11S (177°)9952210166933.8°C35.9%16.6°C7645ft (2330m)13.28v31
619714 Apr 14:22:1367.5 mph9S (185°)9952710167433.8°C36%16.6°C7627ft (2325m)13.27v31
619614 Apr 14:22:0266.3 mph7S (174°)9953110167833.8°C36%16.6°C7627ft (2325m)13.29v31
619514 Apr 14:21:5177.1 mph8S (178°)9952910167633.8°C35.8%16.5°C7663ft (2336m)13.31v31
619414 Apr 14:21:3955.7 mph7SSW (195°)9953110167833.8°C35.5%16.4°C7717ft (2352m)13.28v31
619314 Apr 14:21:2867 mph9S (171°)9952710167433.8°C35.3%16.3°C7753ft (2363m)13.29v31
619214 Apr 14:21:1757.8 mph10S (172°)9953210167933.8°C35.1%16.2°C7790ft (2374m)13.27v31
619114 Apr 14:21:0678.7 mph11S (169°)9953010167733.8°C35.1%16.2°C7790ft (2374m)13.25v31
619014 Apr 14:20:5499.1 mph11SSW (193°)9951910166633.8°C34.8%16.1°C7845ft (2391m)13.29v31
618914 Apr 14:20:4388.3 mph11S (190°)9952810167533.8°C34.8%16.1°C7845ft (2391m)13.27v31
618814 Apr 14:20:3289.9 mph13S (184°)9952610167333.9°C34.7%16.1°C7869ft (2398m)13.29v31
618714 Apr 14:20:21911.6 mph15S (181°)9952110166833.9°C34.9%16.2°C7832ft (2387m)13.26v31
618614 Apr 14:20:0999.8 mph12S (191°)9952710167433.9°C34.9%16.2°C7832ft (2387m)13.28v31
618514 Apr 14:19:5878.7 mph11S (184°)9952110166833.9°C35%16.3°C7813ft (2381m)13.29v31
618414 Apr 14:19:471113.5 mph16S (177°)9952510167234°C34.9%16.3°C7837ft (2389m)13.27v31
618314 Apr 14:19:36912 mph18S (172°)9951710166434°C35.3%16.5°C7763ft (2366m)13.28v31
618214 Apr 14:19:2489.9 mph12SSW (206°)9952710167434°C35.4%16.5°C7745ft (2361m)13.23v31
618114 Apr 14:19:131011.2 mph13S (190°)9952610167334°C35.1%16.4°C7800ft (2377m)13.28v31
618014 Apr 14:19:02912.8 mph16SSW (197°)9952810167534.1°C35.1%16.5°C7805ft (2379m)13.25v31
617914 Apr 14:18:51810.2 mph12SSW (196°)9952710167434.1°C35.4%16.6°C7750ft (2362m)13.24v31
617814 Apr 14:18:3957.6 mph10S (186°)9952510167234.2°C35.5%16.8°C7737ft (2358m)13.28v31
617714 Apr 14:18:28810.3 mph15S (184°)9952310167034.2°C35.4%16.7°C7755ft (2364m)13.27v31
617614 Apr 14:18:171111.7 mph13S (189°)9951210165834.2°C35.4%16.7°C7755ft (2364m)13.31v31
617514 Apr 14:18:061012.5 mph15SSE (159°)9951610166334.2°C35.3%16.7°C7774ft (2370m)13.22v31
617414 Apr 14:17:541111.6 mph13S (173°)9951810166534.3°C35.4%16.8°C7761ft (2366m)13.28v31
617314 Apr 14:17:431112 mph15S (170°)9953010167734.3°C35.4%16.8°C7761ft (2366m)13.29v31
617214 Apr 14:17:3279.6 mph12S (169°)9951410166134.3°C35.7%16.9°C7706ft (2349m)13.25v31
617114 Apr 14:17:2177.7 mph10S (174°)9952710167434.3°C35.9%17°C7670ft (2338m)13.28v31
617014 Apr 14:17:0989.8 mph12S (179°)9952810167534.3°C35.9%17°C7670ft (2338m)13.29v31
616914 Apr 14:16:5889.1 mph13S (183°)9952910167634.3°C35.9%17°C7670ft (2338m)13.23v31
616814 Apr 14:16:4789.7 mph14S (177°)9951910166634.4°C36%17.2°C7657ft (2334m)13.25v31
616714 Apr 14:16:3677.3 mph11SSW (207°)9952510167234.4°C36%17.2°C7657ft (2334m)13.26v31
616614 Apr 14:16:2489.1 mph11S (182°)9953010167734.4°C35.6%17°C7729ft (2356m)13.23v31
616514 Apr 14:16:13911.5 mph14S (177°)9952510167234.4°C35.6%17°C7729ft (2356m)13.28v31
616414 Apr 14:16:02810.6 mph14SSE (166°)9952810167534.4°C35.9%17.1°C7675ft (2339m)13.25v31
616314 Apr 14:15:5155.5 mph8S (186°)9953110167834.4°C36.2%17.3°C7621ft (2323m)13.32v31
616214 Apr 14:15:3989.9 mph13S (171°)9952810167534.4°C36%17.2°C7657ft (2334m)13.28v31
616114 Apr 14:15:28810.7 mph13S (174°)9951510166234.4°C36.3%17.3°C7603ft (2317m)13.28v31
616014 Apr 14:15:1766.8 mph9SSW (197°)9953110167834.5°C36.4%17.4°C7590ft (2313m)13.31v31
615914 Apr 14:15:0677.5 mph9SSE (166°)9953310168034.4°C36.4%17.3°C7585ft (2312m)13.24v31
615814 Apr 14:14:54109.8 mph10SSE (168°)9952310167034.4°C36.2%17.3°C7621ft (2323m)13.23v31
615714 Apr 14:14:4368.6 mph11S (174°)9953010167734.4°C36.3%17.3°C7603ft (2317m)13.26v31
615614 Apr 14:14:3256.5 mph9S (174°)9953010167734.4°C36.2%17.3°C7621ft (2323m)13.26v31
615514 Apr 14:14:2155.7 mph7SSE (166°)9952910167634.4°C36.3%17.3°C7603ft (2317m)13.3v31
615414 Apr 14:14:0945.6 mph7S (181°)9953210167934.4°C36.1%17.2°C7639ft (2328m)13.24v31
615314 Apr 14:13:5868 mph11S (170°)9953210167934.4°C36.2%17.3°C7621ft (2323m)13.29v31
615214 Apr 14:13:4768.9 mph12SSE (168°)9953210167934.4°C36.1%17.2°C7639ft (2328m)13.26v31
615114 Apr 14:13:361010.7 mph13SSE (166°)9952410167134.4°C36%17.2°C7657ft (2334m)13.31v31
615014 Apr 14:13:241112.1 mph15SSE (163°)9953010167734.4°C36%17.2°C7657ft (2334m)13.24v31
614914 Apr 14:13:131112.1 mph14S (171°)9951010165634.5°C36%17.3°C7662ft (2335m)13.27v31
614814 Apr 14:13:0278.7 mph11SSE (164°)9952010166734.5°C36.7%17.6°C7537ft (2297m)13.27v31
614714 Apr 14:12:5199.6 mph12S (184°)9952810167534.4°C36.6%17.4°C7550ft (2301m)13.23v31
614614 Apr 14:12:3989.2 mph10S (171°)9952210166934.4°C36.5%17.4°C7567ft (2306m)13.3v31
614514 Apr 14:12:2866.3 mph7S (179°)9952910167634.5°C36.5%17.5°C7572ft (2308m)13.23v31
614414 Apr 14:12:1878.7 mph10S (183°)9952610167334.5°C36.4%17.4°C7590ft (2313m)13.24v31
614314 Apr 14:12:0778.8 mph10S (179°)9952710167434.5°C36.4%17.4°C7590ft (2313m)13.25v31
614214 Apr 14:11:55810.1 mph12S (186°)9952710167434.4°C36.4%17.3°C7585ft (2312m)13.28v31
614114 Apr 14:11:441010.7 mph13S (175°)9952110166834.5°C36.5%17.5°C7572ft (2308m)13.25v31
614014 Apr 14:11:3378.4 mph10SSE (166°)9952910167634.5°C36.9%17.6°C7502ft (2287m)13.24v31
613914 Apr 14:11:2258.7 mph13SSW (192°)9952910167634.5°C36.6%17.5°C7555ft (2303m)13.26v31
613814 Apr 14:11:10911.3 mph14SSW (194°)9952610167334.5°C36.9%17.6°C7502ft (2287m)13.33v31
613714 Apr 14:10:5989.2 mph11S (172°)9953210167934.5°C36.8%17.6°C7519ft (2292m)13.26v31
613614 Apr 14:10:4899.1 mph11S (177°)9952910167634.5°C36.7%17.6°C7537ft (2297m)13.25v31
613514 Apr 14:10:371011.3 mph14S (184°)9952310167034.5°C36.7%17.6°C7537ft (2297m)13.28v31
613414 Apr 14:10:2546.7 mph8SSW (201°)9952910167634.5°C36.8%17.6°C7519ft (2292m)13.28v31
613314 Apr 14:10:1467.3 mph9S (186°)9952910167634.5°C36.9%17.6°C7502ft (2287m)13.24v31
613214 Apr 14:10:0389.5 mph12S (171°)9952810167534.5°C36.9%17.6°C7502ft (2287m)13.24v31
613114 Apr 14:09:52912 mph16S (185°)9952510167234.5°C37%17.7°C7484ft (2281m)13.28v31
613014 Apr 14:09:40911.6 mph16S (190°)9951210165834.5°C37.2%17.8°C7449ft (2270m)13.29v31
612914 Apr 14:09:2968.7 mph10S (179°)9952710167434.5°C37.3%17.8°C7431ft (2265m)13.27v31
612814 Apr 14:09:1745 mph6S (178°)9953010167734.5°C37.7%18°C7362ft (2244m)13.28v31
612714 Apr 14:09:0655.8 mph7S (186°)9953210167934.5°C37.7%18°C7362ft (2244m)13.25v31
612614 Apr 14:08:5467.6 mph9S (185°)9952810167534.4°C37.7%17.9°C7357ft (2242m)13.25v31
612514 Apr 14:08:4356.1 mph7S (185°)9952410167134.4°C37.8%17.9°C7340ft (2237m)13.3v31
612414 Apr 14:08:3267.6 mph10S (176°)9952810167534.4°C37.7%17.9°C7357ft (2242m)13.24v31
612314 Apr 14:08:2188.8 mph10S (173°)9952310167034.4°C37.9%18°C7323ft (2232m)13.27v31
612214 Apr 14:08:0946.4 mph9S (174°)9952810167534.4°C38%18°C7305ft (2227m)13.28v31
612114 Apr 14:07:5845.5 mph8S (177°)9953210167934.4°C37.7%17.9°C7357ft (2242m)13.24v31
612014 Apr 14:07:4755.9 mph7SSE (160°)9953210167934.4°C37.6%17.9°C7374ft (2248m)13.31v31
611914 Apr 14:07:3644.5 mph6S (169°)9953310168034.3°C37.5%17.7°C7387ft (2252m)13.28v31
611814 Apr 14:07:2445.5 mph7S (177°)9953310168034.3°C37.5%17.7°C7387ft (2252m)13.26v31
611714 Apr 14:07:1355.7 mph6SSE (164°)9953210167934.3°C37.5%17.7°C7387ft (2252m)13.26v31
611614 Apr 14:07:0277.3 mph8SSE (163°)9953110167834.3°C37.5%17.7°C7387ft (2252m)13.23v31
611514 Apr 14:06:5199.2 mph10SSE (166°)9953310168034.3°C37.6%17.8°C7370ft (2246m)13.29v31
611414 Apr 14:06:3988.4 mph9SSE (165°)9952810167534.2°C37.6%17.7°C7365ft (2245m)13.27v31
611314 Apr 14:06:28810.2 mph12SSE (158°)9953110167834.2°C37.6%17.7°C7365ft (2245m)13.24v31
611214 Apr 14:06:1878 mph11S (179°)9952810167534.2°C37.5%17.6°C7382ft (2250m)13.27v31
611114 Apr 14:06:0688.6 mph10S (189°)9952810167534.2°C37.2%17.5°C7434ft (2266m)13.28v31
611014 Apr 14:05:5567.1 mph8S (188°)9953110167834.2°C37.7%17.7°C7347ft (2239m)13.29v31
610914 Apr 14:05:44910.1 mph12S (182°)9953410168134.2°C37.5%17.6°C7382ft (2250m)13.28v31
610814 Apr 14:05:3389 mph10S (172°)9952510167234.2°C37.5%17.6°C7382ft (2250m)13.24v31
610714 Apr 14:05:2178.3 mph10SSW (201°)9952910167634.2°C37.6%17.7°C7365ft (2245m)13.32v31
610614 Apr 14:05:1068.2 mph11S (190°)9953010167734.2°C37.6%17.7°C7365ft (2245m)13.25v31
610514 Apr 14:04:5978.4 mph10S (176°)9952210166934.2°C37.6%17.7°C7365ft (2245m)13.29v31
610414 Apr 14:04:4889.2 mph11S (171°)9952810167534.1°C37.4%17.5°C7395ft (2254m)13.28v31
610314 Apr 14:04:361112 mph13S (170°)9952210166934.1°C37.3%17.5°C7412ft (2259m)13.25v31
610214 Apr 14:04:25810 mph12S (177°)9952210166934.1°C37.7%17.6°C7343ft (2238m)13.29v31
610114 Apr 14:04:1456.6 mph10S (184°)9952010166734.1°C38.1%17.8°C7274ft (2217m)13.28v31
610014 Apr 14:04:0345.2 mph6S (174°)9952710167434.1°C37.7%17.6°C7343ft (2238m)13.26v31
609914 Apr 14:03:5155.3 mph7S (181°)9953110167834.1°C37.8%17.7°C7325ft (2233m)13.28v31
609814 Apr 14:03:4055.9 mph8S (182°)9953210167934.1°C37.6%17.6°C7360ft (2243m)13.29v31
609714 Apr 14:03:2999 mph10S (173°)9952510167234°C37.6%17.5°C7355ft (2242m)13.3v31
609614 Apr 14:03:1778.1 mph10S (169°)9952310167034°C37.6%17.5°C7355ft (2242m)13.25v31
609514 Apr 14:03:0679.4 mph12S (172°)9952910167634°C37.7%17.5°C7338ft (2237m)13.25v31
609414 Apr 14:02:541011 mph12S (185°)9952510167234°C37.9%17.6°C7303ft (2226m)13.25v31
609314 Apr 14:02:4379.1 mph12S (180°)9952610167334°C37.9%17.6°C7303ft (2226m)13.29v31
609214 Apr 14:02:32911.7 mph14S (181°)9952610167334.1°C37.8%17.7°C7325ft (2233m)13.29v31
609114 Apr 14:02:211112.1 mph15S (180°)9952210166934.1°C38%17.8°C7291ft (2222m)13.27v31
609014 Apr 14:02:0988.2 mph10S (179°)9952610167334°C38.1%17.7°C7269ft (2216m)13.29v31
608914 Apr 14:01:5899.8 mph11S (178°)9952210166934.1°C38.1%17.8°C7274ft (2217m)13.28v31
608814 Apr 14:01:4757.1 mph12S (183°)9951710166434°C38.3%17.8°C7235ft (2205m)13.29v31
608714 Apr 14:01:3667.4 mph9S (181°)9952710167434°C38.3%17.8°C7235ft (2205m)13.27v31
608614 Apr 14:01:2455.9 mph7SSW (194°)9953010167734°C38.4%17.8°C7218ft (2200m)13.29v31
608514 Apr 14:01:1355.5 mph7S (179°)9953010167734°C38.2%17.8°C7252ft (2210m)13.28v31
608414 Apr 14:01:0299.9 mph11S (169°)9952710167434°C38.2%17.8°C7252ft (2210m)13.25v31
608314 Apr 14:00:5179.1 mph11S (180°)9952410167134°C38.2%17.8°C7252ft (2210m)13.28v31
608214 Apr 14:00:391010.4 mph12S (175°)9952410167134°C38.3%17.8°C7235ft (2205m)13.28v31
608114 Apr 14:00:2866.7 mph8S (180°)9952410167134°C38.3%17.8°C7235ft (2205m)13.3v31
608014 Apr 14:00:1768.8 mph11SSE (160°)9952410167134°C38.3%17.8°C7235ft (2205m)13.28v31
607914 Apr 14:00:0689.9 mph12S (187°)9953110167834°C38.2%17.8°C7252ft (2210m)13.3v31
607814 Apr 13:59:5489.9 mph12S (173°)9952810167534°C38.1%17.7°C7269ft (2216m)13.29v31
607714 Apr 13:59:4379.4 mph11SSE (168°)9952710167434°C38.1%17.7°C7269ft (2216m)13.27v31
607614 Apr 13:59:321112.3 mph13S (177°)9952310167034°C38.2%17.8°C7252ft (2210m)13.25v31
607514 Apr 13:59:2156.7 mph12S (172°)9952610167334°C38.3%17.8°C7235ft (2205m)13.27v31
607414 Apr 13:59:0967.4 mph9S (188°)9953310168033.9°C38%17.6°C7281ft (2219m)13.27v31
607314 Apr 13:58:58810.3 mph12S (185°)9953310168034°C37.9%17.6°C7303ft (2226m)13.29v31
607214 Apr 13:58:4767.5 mph10SSW (202°)9952710167434°C37.9%17.6°C7303ft (2226m)13.27v31
607114 Apr 13:58:3688.2 mph10S (186°)9953110167834°C37.9%17.6°C7303ft (2226m)13.3v31
607014 Apr 13:58:241010.4 mph11S (184°)9952810167534°C38.2%17.8°C7252ft (2210m)13.29v31
606914 Apr 13:58:13910.2 mph12S (179°)9953110167834°C38%17.7°C7286ft (2221m)13.26v31
606814 Apr 13:58:0268.6 mph13S (188°)9952810167534°C37.9%17.6°C7303ft (2226m)13.25v31
606714 Apr 13:57:5199.4 mph12S (180°)9952710167434.1°C38.1%17.8°C7274ft (2217m)13.3v31
606614 Apr 13:57:3955.9 mph8SSW (193°)9953210167934.1°C38.1%17.8°C7274ft (2217m)13.25v31
606514 Apr 13:57:2889 mph10S (176°)9953210167934.1°C37.9%17.7°C7308ft (2227m)13.29v31
606414 Apr 13:57:1789.8 mph11S (181°)9952810167534.1°C38.2%17.8°C7257ft (2212m)13.3v31
606314 Apr 13:57:06810 mph12SSW (194°)9953410168134.1°C38.3%17.9°C7240ft (2207m)13.27v31
606214 Apr 13:56:5499.8 mph11S (183°)9953110167834.1°C38.3%17.9°C7240ft (2207m)13.26v31
606114 Apr 13:56:4378.6 mph11S (188°)9953210167934.1°C38.1%17.8°C7274ft (2217m)13.29v31
606014 Apr 13:56:3289.3 mph13S (173°)9953210167934.1°C37.9%17.7°C7308ft (2227m)13.24v31
605914 Apr 13:56:211112 mph14S (191°)9953410168134.1°C37.8%17.7°C7325ft (2233m)13.27v31
605814 Apr 13:56:0978.9 mph11S (182°)9953410168134.2°C37.8%17.8°C7330ft (2234m)13.25v31
605714 Apr 13:55:5879.4 mph13S (188°)9953510168234.2°C37.7%17.7°C7347ft (2239m)13.29v31
605614 Apr 13:55:4788.9 mph11S (187°)9953510168234.2°C37.6%17.7°C7365ft (2245m)13.26v31
605514 Apr 13:55:3689.8 mph12SSW (194°)9953310168034.2°C37.7%17.7°C7347ft (2239m)13.27v31
605414 Apr 13:55:2467.4 mph10S (189°)9953610168334.2°C37.7%17.7°C7347ft (2239m)13.28v31
605314 Apr 13:55:1399.7 mph11S (173°)9953010167734.2°C37.5%17.6°C7382ft (2250m)13.25v31
605214 Apr 13:55:02912 mph14S (182°)9953210167934.2°C37.5%17.6°C7382ft (2250m)13.27v31
605114 Apr 13:54:5189.1 mph10S (190°)9954310169034.2°C37.9%17.8°C7313ft (2229m)13.3v31
605014 Apr 13:54:3979.1 mph11S (169°)9953910168634.3°C37.8%17.8°C7335ft (2236m)13.25v31
604914 Apr 13:54:28811 mph14S (176°)9953410168134.3°C37.8%17.8°C7335ft (2236m)13.28v31
604814 Apr 13:54:1878.7 mph11S (179°)9953910168634.3°C37.7%17.8°C7352ft (2241m)13.27v31
604714 Apr 13:54:0678.3 mph10S (174°)9953710168434.3°C37.5%17.7°C7387ft (2252m)13.27v31
604614 Apr 13:53:5577.9 mph10S (184°)9953410168134.3°C37.2%17.6°C7439ft (2267m)13.28v31
604514 Apr 13:53:4489.4 mph12S (186°)9953310168034.3°C37.4%17.7°C7404ft (2257m)13.25v31
604414 Apr 13:53:3378.2 mph10S (174°)9953310168034.3°C37.3%17.6°C7422ft (2262m)13.31v31
604314 Apr 13:53:2188.4 mph10S (172°)9953510168234.3°C37.1%17.6°C7457ft (2273m)13.27v31
604214 Apr 13:53:1077.5 mph9S (181°)9953610168334.3°C37.2%17.6°C7439ft (2267m)13.26v31
604114 Apr 13:52:5977.8 mph9SSW (192°)9953610168334.3°C37.2%17.6°C7439ft (2267m)13.23v31
604014 Apr 13:52:48810.1 mph12SSE (166°)9953510168234.3°C37.1%17.6°C7457ft (2273m)13.26v31
603914 Apr 13:52:3656.5 mph9SSW (193°)9953710168434.4°C36.9%17.6°C7497ft (2285m)13.28v31
603814 Apr 13:52:2567.3 mph9SSE (168°)9953910168634.4°C37.1%17.6°C7462ft (2274m)13.25v31
603714 Apr 13:52:1488.5 mph10S (185°)9954010168734.4°C36.9%17.6°C7497ft (2285m)13.27v31
603614 Apr 13:52:0399.4 mph10SSE (165°)9954010168734.4°C36.9%17.6°C7497ft (2285m)13.28v31
603514 Apr 13:51:511011.2 mph13S (172°)9954110168834.4°C36.8%17.5°C7514ft (2290m)13.28v31
603414 Apr 13:51:4089.7 mph11S (177°)9953510168234.4°C37.2%17.7°C7444ft (2269m)13.25v31
603314 Apr 13:51:2968.1 mph11S (183°)9953810168534.4°C37.3%17.7°C7427ft (2264m)13.29v31
603214 Apr 13:51:17910.5 mph12S (178°)9953710168434.4°C37.5%17.8°C7392ft (2253m)13.27v31
603114 Apr 13:51:06911.5 mph14S (188°)9953610168334.4°C37.6%17.9°C7374ft (2248m)13.24v31
603014 Apr 13:50:5499.2 mph11SSE (159°)9954010168734.5°C37.7%18°C7362ft (2244m)13.26v31
602914 Apr 13:50:4366.7 mph8S (178°)9954110168834.5°C37.9%18.1°C7327ft (2233m)13.3v31
602814 Apr 13:50:3233.8 mph6SSE (148°)9954110168834.5°C37.9%18.1°C7327ft (2233m)13.25v31
602714 Apr 13:50:2167.7 mph10SSE (164°)9954010168734.5°C37.9%18.1°C7327ft (2233m)13.26v31
602614 Apr 13:50:09910.2 mph11SSE (164°)9953910168634.5°C37.9%18.1°C7327ft (2233m)13.29v31
602514 Apr 13:49:5867 mph8SSE (155°)9953910168634.5°C38.1%18.2°C7293ft (2223m)13.25v31
602414 Apr 13:49:4766 mph9S (180°)9953910168634.5°C37.9%18.1°C7327ft (2233m)13.25v31
602314 Apr 13:49:3657.3 mph12SE (146°)9953510168234.5°C38%18.1°C7310ft (2228m)13.26v31
602214 Apr 13:49:2477.6 mph9S (183°)9954510169234.5°C37.9%18.1°C7327ft (2233m)13.27v31
602114 Apr 13:49:1388.5 mph10S (182°)9954010168734.5°C37.9%18.1°C7327ft (2233m)13.26v31
602014 Apr 13:49:0288.5 mph9SSE (162°)9953510168234.5°C38%18.1°C7310ft (2228m)13.25v31
601914 Apr 13:48:5157.4 mph10S (176°)9954210168934.5°C37.8%18°C7345ft (2239m)13.27v31
601814 Apr 13:48:3967.5 mph9SSE (150°)9954510169234.6°C37.7%18.1°C7367ft (2245m)13.25v31
601714 Apr 13:48:2846.2 mph9SSE (163°)9954210168934.6°C37.6%18°C7384ft (2251m)13.26v31
601614 Apr 13:48:1767.8 mph10S (178°)9954510169234.6°C37.5%18°C7401ft (2256m)13.26v31
601514 Apr 13:48:0677.7 mph9SSE (156°)9954310169034.6°C37.3%17.9°C7436ft (2266m)13.25v31
601414 Apr 13:47:541011 mph13S (171°)9954010168734.6°C37.2%17.9°C7454ft (2272m)13.24v31
601314 Apr 13:47:4367.2 mph9S (185°)9954510169234.6°C37.4%17.9°C7419ft (2261m)13.27v31
601214 Apr 13:47:32810.1 mph12S (177°)9954110168834.7°C37.6%18.1°C7389ft (2252m)13.23v31
601114 Apr 13:47:2168.1 mph10S (184°)9954210168934.7°C37.6%18.1°C7389ft (2252m)13.25v31
601014 Apr 13:47:0955.7 mph6S (180°)9954210168934.7°C37.5%18.1°C7406ft (2257m)13.28v31
600914 Apr 13:46:5889.2 mph11SSE (165°)9953910168634.7°C37.6%18.1°C7389ft (2252m)13.23v31
600814 Apr 13:46:4757.2 mph12SSE (165°)9954110168834.7°C37.7%18.2°C7372ft (2247m)13.24v31
600714 Apr 13:46:3644.4 mph5SSE (152°)9954910169634.7°C37.6%18.1°C7389ft (2252m)13.26v31
600614 Apr 13:46:2466 mph7SSE (160°)9954710169434.7°C37.6%18.1°C7389ft (2252m)13.25v31
600514 Apr 13:46:1356.1 mph9SSE (157°)9955010169734.7°C37.5%18.1°C7406ft (2257m)13.26v31
600414 Apr 13:46:0256.9 mph11SSE (167°)9954710169434.7°C37.3%18°C7441ft (2268m)13.27v31
600314 Apr 13:45:5189.9 mph13S (173°)9954810169534.7°C37.5%18.1°C7406ft (2257m)13.25v31
600214 Apr 13:45:3977 mph8S (176°)9954910169634.8°C37.5%18.2°C7411ft (2259m)13.24v31
600114 Apr 13:45:2856.3 mph9S (170°)9954410169134.8°C37.5%18.2°C7411ft (2259m)13.22v31
600014 Apr 13:45:1757.9 mph10S (183°)9955110169834.8°C37.4%18.1°C7429ft (2264m)13.24v31
599914 Apr 13:45:0666.6 mph9SSE (167°)9954610169334.8°C37.4%18.1°C7429ft (2264m)13.3v31
599814 Apr 13:44:5467.6 mph10S (184°)9954810169534.8°C37.3%18.1°C7446ft (2270m)13.25v31
599714 Apr 13:44:43910.1 mph11SSE (167°)9954510169234.8°C37.3%18.1°C7446ft (2270m)13.27v31
599614 Apr 13:44:321011.1 mph13S (182°)9954710169434.8°C37.2%18°C7464ft (2275m)13.25v31
599514 Apr 13:44:211111.7 mph13SSE (161°)9953210167934.9°C37%18°C7504ft (2287m)13.3v31
599414 Apr 13:44:09510.8 mph17SSE (164°)9954310169034.9°C37%18°C7504ft (2287m)13.26v31
599314 Apr 13:43:5877 mph8S (178°)9955010169734.8°C36.9%17.9°C7516ft (2291m)13.24v31
599214 Apr 13:43:4755 mph7S (191°)9955010169734.9°C36.8%18°C7539ft (2298m)13.31v31
599114 Apr 13:43:3644.1 mph5SSW (195°)9954710169434.9°C36.6%17.9°C7575ft (2309m)13.27v31
599014 Apr 13:43:2455.9 mph8SSE (167°)9954610169334.9°C36.3%17.7°C7628ft (2325m)13.28v31
598914 Apr 13:43:13810.1 mph12SSW (198°)9954510169234.9°C36%17.6°C7682ft (2341m)13.28v31
598814 Apr 13:43:021012.3 mph15SSW (206°)9953810168534.9°C36%17.6°C7682ft (2341m)13.23v31
598714 Apr 13:42:511112.1 mph14SSW (211°)9954010168735°C36.6%18°C7579ft (2310m)13.3v31
598614 Apr 13:42:391011.4 mph13S (190°)9954310169035°C36.8%18°C7544ft (2299m)13.24v31
598514 Apr 13:42:281213.6 mph15S (191°)9954110168835°C37.1%18.2°C7491ft (2283m)13.26v31
598414 Apr 13:42:171013.4 mph15SSW (193°)9953410168135°C37.4%18.3°C7438ft (2267m)13.27v31
598314 Apr 13:42:06910.7 mph12SSW (200°)9954010168735°C37.4%18.3°C7438ft (2267m)13.25v31
598214 Apr 13:41:54710.1 mph15S (184°)9954110168835.1°C37.4%18.4°C7443ft (2269m)13.28v31
598114 Apr 13:41:4368.6 mph12S (188°)9954110168835.1°C37.5%18.4°C7426ft (2263m)13.32v31
598014 Apr 13:41:3255.5 mph7SSW (193°)9954610169335°C37.6%18.4°C7403ft (2256m)13.27v31
597914 Apr 13:41:2156.9 mph8S (175°)9954610169335°C37.4%18.3°C7438ft (2267m)13.23v31
597814 Apr 13:41:0956.2 mph10S (183°)9954610169335°C37.5%18.3°C7421ft (2262m)13.28v31
597714 Apr 13:40:58910 mph13S (179°)9954510169235°C37.5%18.3°C7421ft (2262m)13.27v31
597614 Apr 13:40:4788.5 mph9SSE (166°)9954710169435°C37.5%18.3°C7421ft (2262m)13.29v31
597514 Apr 13:40:3678.1 mph10S (175°)9954410169134.9°C37.7%18.3°C7381ft (2250m)13.29v31
597414 Apr 13:40:2477.8 mph9S (181°)9954810169534.9°C37.7%18.3°C7381ft (2250m)13.34v31
597314 Apr 13:40:131010.1 mph12SSE (153°)9954110168834.9°C37.7%18.3°C7381ft (2250m)13.29v31
597214 Apr 13:40:02710.2 mph11SSE (167°)9954110168834.8°C37.8%18.3°C7359ft (2243m)13.29v31
597114 Apr 13:39:5133.5 mph5S (181°)9954810169534.8°C37.9%18.3°C7342ft (2238m)13.33v31
597014 Apr 13:39:3944.7 mph6S (172°)9954710169434.8°C37.7%18.2°C7376ft (2248m)13.3v31
596914 Apr 13:39:2866.9 mph8S (183°)9954810169534.7°C37.7%18.2°C7372ft (2247m)13.38v31
596814 Apr 13:39:1899.6 mph10SSE (168°)9954510169234.7°C37.5%18.1°C7406ft (2257m)13.29v31
596714 Apr 13:39:071012 mph15SSE (162°)9954110168834.7°C37.6%18.1°C7389ft (2252m)13.32v31
596614 Apr 13:38:5599.9 mph12S (176°)9953610168334.6°C37.8%18.1°C7349ft (2240m)13.32v31
596514 Apr 13:38:4478 mph10S (182°)9954910169634.6°C37.6%18°C7384ft (2251m)13.33v31
596414 Apr 13:38:3377.5 mph9SSW (201°)9954710169434.6°C37.5%18°C7401ft (2256m)13.31v31
596314 Apr 13:38:2267.5 mph9S (183°)9954710169434.5°C37.3%17.8°C7431ft (2265m)13.33v31
596214 Apr 13:38:10910.3 mph11S (172°)9954010168734.5°C37.2%17.8°C7449ft (2270m)13.33v31
596114 Apr 13:37:59911.6 mph13S (185°)9954610169334.4°C37.1%17.6°C7462ft (2274m)13.31v31
596014 Apr 13:37:4866.9 mph8S (172°)9954510169234.4°C37%17.6°C7479ft (2280m)13.4v31
595914 Apr 13:37:3766.6 mph8S (178°)9955010169734.3°C37%17.5°C7474ft (2278m)13.29v31
595814 Apr 13:37:2557.3 mph9S (176°)9954610169334.3°C37.2%17.6°C7439ft (2267m)13.33v31
595714 Apr 13:37:1455.5 mph7S (185°)9954610169334.2°C37%17.4°C7469ft (2277m)13.33v31
595614 Apr 13:37:0389 mph10SSE (165°)9954110168834.2°C37.1%17.5°C7452ft (2271m)13.29v31
595514 Apr 13:36:52810 mph14SSE (165°)9954310169034.1°C37.3%17.5°C7412ft (2259m)13.33v31
595414 Apr 13:36:4079.7 mph13S (182°)9953310168034.1°C37.7%17.6°C7343ft (2238m)13.31v31
595314 Apr 13:36:2967.1 mph9S (178°)9954510169234°C37.4%17.4°C7390ft (2252m)13.28v31
595214 Apr 13:36:181112.4 mph14S (184°)9954410169134°C37.3%17.4°C7407ft (2258m)13.29v31
595114 Apr 13:36:071414.8 mph16S (174°)9953810168534°C37.5%17.5°C7372ft (2247m)13.37v31
595014 Apr 13:35:55911.7 mph15S (190°)9954810169533.9°C37.7%17.5°C7333ft (2235m)13.32v31
594914 Apr 13:35:4479.2 mph14S (190°)9954110168833.9°C37.9%17.5°C7299ft (2225m)13.33v31
594814 Apr 13:35:3389.6 mph12S (187°)9954010168733.8°C37.7%17.4°C7328ft (2234m)13.32v31
594714 Apr 13:35:2289.7 mph12S (178°)9954010168733.8°C37.7%17.4°C7328ft (2234m)13.29v31
594614 Apr 13:35:101010.2 mph11S (183°)9954510169233.7°C37.7%17.3°C7323ft (2232m)13.31v31
594514 Apr 13:34:5988.5 mph9S (191°)9954310169033.7°C37.7%17.3°C7323ft (2232m)13.32v31
594414 Apr 13:34:48810.3 mph12S (176°)9953710168433.7°C37.8%17.3°C7306ft (2227m)13.35v31
594314 Apr 13:34:3788.5 mph10S (187°)9954310169033.6°C37.7%17.2°C7319ft (2231m)13.32v31
594214 Apr 13:34:2568.1 mph11S (183°)9954710169433.6°C37.7%17.2°C7319ft (2231m)13.33v31
594114 Apr 13:34:141111.8 mph14S (185°)9953910168633.6°C37.8%17.2°C7301ft (2225m)13.32v31
594014 Apr 13:34:031011.5 mph13S (190°)9954410169133.6°C37.9%17.3°C7284ft (2220m)13.29v31
593914 Apr 13:33:521111.8 mph15S (185°)9954310169033.5°C37.9%17.2°C7279ft (2219m)13.32v31
593814 Apr 13:33:40911.4 mph13S (184°)9954010168733.5°C38%17.2°C7262ft (2213m)13.3v31
593714 Apr 13:33:29510.2 mph14S (176°)9955010169733.5°C38.1%17.3°C7245ft (2208m)13.32v31
593614 Apr 13:33:1745.7 mph10S (173°)9954810169533.4°C38%17.1°C7258ft (2212m)13.37v31
593514 Apr 13:33:0666.6 mph8S (175°)9954010168733.4°C38%17.1°C7258ft (2212m)13.31v31
593414 Apr 13:32:5468.1 mph10S (172°)9954110168833.3°C37.9%17°C7270ft (2216m)13.31v31
593314 Apr 13:32:4356 mph9S (171°)9954510169233.3°C37.6%16.9°C7321ft (2231m)13.34v31
593214 Apr 13:32:3288.5 mph10S (173°)9954210168933.3°C37.4%16.8°C7356ft (2242m)13.32v31
593114 Apr 13:32:2188.4 mph9S (181°)9953910168633.3°C37.5%16.8°C7338ft (2237m)13.33v31
593014 Apr 13:32:0967.1 mph9S (188°)9954410169133.2°C37.3%16.7°C7368ft (2246m)13.32v31
592914 Apr 13:31:5899.6 mph11S (189°)9953810168533.2°C37.2%16.6°C7385ft (2251m)13.28v31
592814 Apr 13:31:4778.2 mph9S (185°)9953510168233.2°C37%16.5°C7420ft (2262m)13.31v31
592714 Apr 13:31:36810.6 mph13S (173°)9954010168733.2°C36.7%16.4°C7473ft (2278m)13.37v31
592614 Apr 13:31:24910.8 mph13SSW (195°)9953610168333.2°C36.5%16.3°C7508ft (2288m)13.29v31
592514 Apr 13:31:131011 mph12S (186°)9953510168233.2°C36.2%16.2°C7561ft (2305m)13.32v31
592414 Apr 13:31:021113.5 mph16SSW (199°)9953110167833.2°C35.8%16°C7632ft (2326m)13.34v31
592314 Apr 13:30:511011.3 mph13SSW (200°)9953310168033.2°C35.9%16.1°C7614ft (2321m)13.33v31
592214 Apr 13:30:391011.6 mph13SSW (198°)9953610168333.2°C35.9%16.1°C7614ft (2321m)13.33v31
592114 Apr 13:30:281213.2 mph14SSW (196°)9953610168333.2°C35.6%15.9°C7668ft (2337m)13.32v31
592014 Apr 13:30:181212.4 mph15S (189°)9953810168533.3°C35.5%16°C7691ft (2344m)13.36v31
591914 Apr 13:30:07811.3 mph14SSW (194°)9953110167833.3°C35.6%16°C7673ft (2339m)13.3v31
591814 Apr 13:29:551012.9 mph15SSW (193°)9953110167833.3°C36.3%16.3°C7548ft (2301m)13.33v31
591714 Apr 13:29:441111.8 mph14S (185°)9953210167933.3°C36.6%16.5°C7495ft (2284m)13.32v31
591614 Apr 13:29:3379.2 mph12S (186°)9953510168233.3°C36.8%16.5°C7460ft (2274m)13.31v31
591514 Apr 13:29:221213.3 mph15S (185°)9953410168133.3°C36.9%16.6°C7443ft (2269m)13.33v31
591414 Apr 13:29:1099.9 mph12S (174°)9952410167133.3°C37.3%16.8°C7373ft (2247m)13.32v31
591314 Apr 13:28:5968.6 mph12SSW (193°)9953710168433.3°C37.2%16.7°C7390ft (2252m)13.33v31
591214 Apr 13:28:4899.5 mph12S (184°)9953710168433.3°C37.6%16.9°C7321ft (2231m)13.3v31
591114 Apr 13:28:3745.7 mph8SSW (207°)9954210168933.3°C37.8%17°C7287ft (2221m)13.27v31
591014 Apr 13:28:2569 mph13SSW (207°)9954010168733.3°C37.7%16.9°C7304ft (2226m)13.31v31
590914 Apr 13:28:1489.1 mph12SW (215°)9953710168433.3°C37.7%16.9°C7304ft (2226m)13.31v31
590814 Apr 13:28:0377.3 mph9SW (214°)9954210168933.3°C37.6%16.9°C7321ft (2231m)13.32v31
590714 Apr 13:27:52911.6 mph15SSW (208°)9954010168733.3°C37.2%16.7°C7390ft (2252m)13.34v31
590614 Apr 13:27:40810.5 mph14SSW (205°)9954010168733.3°C37.8%17°C7287ft (2221m)13.32v31
590514 Apr 13:27:29910.5 mph12SSW (199°)9953610168333.3°C37.8%17°C7287ft (2221m)13.29v31
590414 Apr 13:27:18109.3 mph12SSW (206°)9953910168633.3°C37.8%17°C7287ft (2221m)13.32v31
590314 Apr 13:27:0757.5 mph9SSW (195°)9953610168333.3°C37.7%16.9°C7304ft (2226m)13.31v31
590214 Apr 13:26:5578.9 mph12SSW (195°)9954110168833.3°C37.5%16.8°C7338ft (2237m)13.31v31
590114 Apr 13:26:441112.8 mph15SSW (197°)9953710168433.3°C37.4%16.8°C7356ft (2242m)13.3v31
590014 Apr 13:26:331213.4 mph15SSW (203°)9953610168333.3°C37.6%16.9°C7321ft (2231m)13.33v31
589914 Apr 13:26:221113.2 mph16SSW (203°)9953610168333.3°C37.8%17°C7287ft (2221m)13.32v31
589814 Apr 13:26:10911.6 mph14SSW (208°)9953810168533.3°C37.9%17°C7270ft (2216m)13.32v31
589714 Apr 13:25:5959.1 mph13SSW (204°)9953210167933.2°C38%17°C7248ft (2209m)13.32v31
589614 Apr 13:25:4856.6 mph8SSW (204°)9954010168733.2°C38.1%17°C7231ft (2204m)13.3v31
589514 Apr 13:25:3733.6 mph4S (190°)9954310169033.2°C37.9%16.9°C7265ft (2214m)13.31v31
589414 Apr 13:25:2534.3 mph7SSW (203°)9954210168933.2°C37.9%16.9°C7265ft (2214m)13.3v31
589314 Apr 13:25:1466 mph7SSE (167°)9954310169033.1°C37.7%16.7°C7294ft (2223m)13.31v31
589214 Apr 13:25:03910 mph12S (178°)9954910169633.1°C37.5%16.7°C7329ft (2234m)13.34v31
589114 Apr 13:24:521111.3 mph13SSW (197°)9954510169233.1°C37.1%16.5°C7398ft (2255m)13.33v31
589014 Apr 13:24:401111.8 mph13S (183°)9954210168933.1°C36.8%16.4°C7450ft (2271m)13.3v31
588914 Apr 13:24:291212.5 mph14SSW (193°)9953910168633.1°C36.5%16.2°C7503ft (2287m)13.31v31
588814 Apr 13:24:181112 mph13S (184°)9953610168333.1°C36.4%16.2°C7521ft (2292m)13.33v31
588714 Apr 13:24:07910.8 mph13S (176°)9953810168533.1°C35.8%15.9°C7627ft (2325m)13.3v31
588614 Apr 13:23:5566.7 mph9SSW (202°)9954510169233.1°C35.5%15.8°C7681ft (2341m)13.32v31
588514 Apr 13:23:44910.5 mph14SW (215°)9954510169233.1°C35.2%15.7°C7736ft (2358m)13.32v31
588414 Apr 13:23:331013.2 mph16SSW (213°)9954110168833.1°C35.5%15.8°C7681ft (2341m)13.31v31
588314 Apr 13:23:221012.3 mph15SSW (210°)9954310169033.1°C35.4%15.8°C7699ft (2347m)13.34v31
588214 Apr 13:23:10810.6 mph12SW (215°)9954010168733.1°C35.5%15.8°C7681ft (2341m)13.32v31
588114 Apr 13:22:5977.3 mph10SSW (192°)9953910168633.1°C35.8%15.9°C7627ft (2325m)13.34v31
588014 Apr 13:22:48710.1 mph14SW (214°)9953710168433.1°C35.9%16°C7609ft (2319m)13.33v31
587914 Apr 13:22:3789.6 mph12SSW (206°)9954110168833.1°C35.9%16°C7609ft (2319m)13.3v31
587814 Apr 13:22:25910.3 mph12SW (222°)9954410169133.1°C35.7%15.9°C7645ft (2330m)13.33v31
587714 Apr 13:22:14910.2 mph11SW (219°)9954110168833.1°C35.8%15.9°C7627ft (2325m)13.29v31
587614 Apr 13:22:0347.5 mph11WSW (254°)9953510168233.1°C36%16°C7592ft (2314m)13.35v31
587514 Apr 13:21:5246 mph9SW (235°)9954510169233.1°C36.2%16.1°C7556ft (2303m)13.35v31
587414 Apr 13:21:4045.4 mph9SW (221°)9954410169133.1°C35.7%15.9°C7645ft (2330m)13.3v31
587314 Apr 13:21:291112.1 mph15WSW (241°)9954510169233.1°C35.7%15.9°C7645ft (2330m)13.29v31
587214 Apr 13:21:1856.7 mph10SSW (210°)9955310170033°C35.8%15.8°C7622ft (2323m)13.31v31
587114 Apr 13:21:0777.3 mph12SW (232°)9954410169133°C35.4%15.7°C7694ft (2345m)13.32v31
587014 Apr 13:20:5577.8 mph10SSW (211°)9954810169533°C35.6%15.8°C7658ft (2334m)13.27v31
586914 Apr 13:20:4458.7 mph13SSW (212°)9954410169133°C35.8%15.8°C7622ft (2323m)13.33v31
586814 Apr 13:20:3378.1 mph11SSW (192°)9955410170133°C35.8%15.8°C7622ft (2323m)13.34v31
586714 Apr 13:20:2267.2 mph9SSW (204°)9955010169733°C35.8%15.8°C7622ft (2323m)13.31v31
586614 Apr 13:20:1056.9 mph9SSW (199°)9955210169932.9°C35.5%15.6°C7671ft (2338m)13.33v31
586514 Apr 13:19:59810.4 mph15SSW (197°)9955010169732.9°C35.2%15.5°C7725ft (2355m)13.33v31
586414 Apr 13:19:4867.2 mph9SSW (204°)9955010169732.9°C35.1%15.5°C7744ft (2360m)13.32v31
586314 Apr 13:19:3778.6 mph12SSW (204°)9954910169632.9°C34.6%15.2°C7835ft (2388m)13.29v31
586214 Apr 13:19:251111.9 mph14SSW (195°)9954810169532.9°C34.5%15.2°C7854ft (2394m)13.31v31
586114 Apr 13:19:14914.3 mph18SSW (193°)9954710169432.9°C35%15.4°C7762ft (2366m)13.32v31
586014 Apr 13:19:03910 mph12SSW (193°)9955010169732.9°C34.9%15.4°C7780ft (2371m)13.35v31
585914 Apr 13:18:52810 mph14SSW (205°)9954810169532.9°C35.1%15.5°C7744ft (2360m)13.3v31
585814 Apr 13:18:4098.7 mph9SSW (210°)9954610169332.9°C35%15.4°C7762ft (2366m)13.3v31
585714 Apr 13:18:291112.9 mph17SSW (202°)9954510169232.9°C34.9%15.4°C7780ft (2371m)13.3v31
585614 Apr 13:18:181313.3 mph15SSW (206°)9955110169832.9°C35%15.4°C7762ft (2366m)13.31v31
585514 Apr 13:18:07912.8 mph17SSW (210°)9954410169132.9°C35%15.4°C7762ft (2366m)13.31v31
585414 Apr 13:17:551111.2 mph12SSW (209°)9954810169533°C34.9%15.5°C7785ft (2373m)13.31v31
585314 Apr 13:17:441011.1 mph14SW (223°)9955210169933°C34.8%15.4°C7804ft (2379m)13.3v31
585214 Apr 13:17:331314.5 mph16SSW (197°)9955410170133°C35.2%15.6°C7731ft (2356m)13.31v31
585114 Apr 13:17:22810.8 mph15SSW (206°)9955010169733°C35.3%15.6°C7712ft (2351m)13.33v31
585014 Apr 13:17:1089.9 mph12SSW (201°)9955310170033°C35.7%15.8°C7640ft (2329m)13.29v31
584914 Apr 13:16:5979.6 mph13SSW (192°)9955510170233°C36%15.9°C7587ft (2313m)13.32v31
584814 Apr 13:16:481011.1 mph12SSW (213°)9954710169433°C35.8%15.8°C7622ft (2323m)13.33v31
584714 Apr 13:16:371516.4 mph19SSW (210°)9955010169733°C35.6%15.8°C7658ft (2334m)13.31v31
584614 Apr 13:16:251112.4 mph17SSW (204°)9953710168433.1°C35.9%16°C7609ft (2319m)13.27v31
584514 Apr 13:16:141014.3 mph18SW (217°)9955410170133.1°C35.9%16°C7609ft (2319m)13.33v31
584414 Apr 13:16:031213.9 mph16SW (219°)9955010169733°C35.8%15.8°C7622ft (2323m)13.29v31
584314 Apr 13:15:521112 mph16SW (217°)9955410170133.1°C35.8%15.9°C7627ft (2325m)13.37v31
584214 Apr 13:15:40810.4 mph12SW (214°)9954110168833.1°C35.8%15.9°C7627ft (2325m)13.32v31
584114 Apr 13:15:29911.3 mph14SSW (199°)9955010169733.1°C35.7%15.9°C7645ft (2330m)13.31v31
584014 Apr 13:15:17612.6 mph16SSW (192°)9955010169733.1°C36%16°C7592ft (2314m)13.28v31
583914 Apr 13:15:0679.4 mph12SSW (200°)9954810169533.1°C36.2%16.1°C7556ft (2303m)13.3v31
583814 Apr 13:14:55910.8 mph14SSW (210°)9955010169733.1°C36.1%16.1°C7574ft (2309m)13.27v31
583714 Apr 13:14:44810.7 mph14SSW (193°)9954110168833.1°C36%16°C7592ft (2314m)13.32v31
583614 Apr 13:14:32711.1 mph16SSW (209°)9955210169933.1°C36.3%16.2°C7538ft (2298m)13.35v31
583514 Apr 13:14:2145.3 mph9SSW (210°)9955110169833°C36.3%16.1°C7533ft (2296m)13.3v31
583414 Apr 13:14:1045.8 mph11SSW (206°)9955810170533°C36.1%16°C7569ft (2307m)13.34v31
583314 Apr 13:13:5957.8 mph12SSW (211°)9954910169633°C36.3%16.1°C7533ft (2296m)13.31v31
583214 Apr 13:13:4766.2 mph9SSW (202°)9955710170433°C35.9%15.9°C7604ft (2318m)13.31v31
583114 Apr 13:13:3689.7 mph12SSW (210°)9954910169633°C35.8%15.8°C7622ft (2323m)13.34v31
583014 Apr 13:13:2589.1 mph11SSW (212°)9955410170133°C35.5%15.7°C7676ft (2340m)13.31v31
582914 Apr 13:13:1469.1 mph12SSW (212°)9955310170033°C35.5%15.7°C7676ft (2340m)13.28v31
582814 Apr 13:13:02910.8 mph13SW (217°)9954910169633°C35.3%15.6°C7712ft (2351m)13.29v31
582714 Apr 13:12:5199.9 mph12SSW (208°)9955410170133°C35.7%15.8°C7640ft (2329m)13.3v31
582614 Apr 13:12:40910.4 mph13SSW (213°)9953910168633°C35.6%15.8°C7658ft (2334m)13.33v31
582514 Apr 13:12:29811.3 mph15SSW (212°)9954910169633°C35.6%15.8°C7658ft (2334m)13.33v31
582414 Apr 13:12:181011.4 mph17SSW (206°)9955310170033°C35.5%15.7°C7676ft (2340m)13.28v31
582314 Apr 13:12:071313.5 mph16SSW (203°)9954510169233°C36%15.9°C7587ft (2313m)13.37v31
582214 Apr 13:11:551111 mph16SSW (192°)9954310169033.1°C36.4%16.2°C7521ft (2292m)13.29v31
582114 Apr 13:11:441112.1 mph15SSW (193°)9954310169033°C36.7%16.2°C7463ft (2275m)13.31v31
582014 Apr 13:11:33810.2 mph12S (189°)9954210168933.1°C36.9%16.4°C7433ft (2266m)13.3v31
581914 Apr 13:11:22911.4 mph14SSW (199°)9955110169833.1°C36.8%16.4°C7450ft (2271m)13.28v31
581814 Apr 13:11:101213.8 mph17SSW (208°)9955210169933.1°C37%16.5°C7415ft (2260m)13.33v31
581714 Apr 13:10:59911.4 mph15SSW (205°)9954510169233.1°C36.9%16.4°C7433ft (2266m)13.28v31
581614 Apr 13:10:48910.3 mph13SSW (203°)9955810170533.1°C37%16.5°C7415ft (2260m)13.31v31
581514 Apr 13:10:37811 mph15SSW (200°)9955210169933.1°C37%16.5°C7415ft (2260m)13.32v31
581414 Apr 13:10:2579.5 mph12S (190°)9955310170033.1°C37%16.5°C7415ft (2260m)13.3v31
581314 Apr 13:10:14810.9 mph14SSW (206°)9955610170333.1°C36.7%16.3°C7468ft (2276m)13.33v31
581214 Apr 13:10:03109.7 mph11S (183°)9955110169833.1°C36.7%16.3°C7468ft (2276m)13.32v31
581114 Apr 13:09:52710.2 mph13S (187°)9954710169433.1°C36.7%16.3°C7468ft (2276m)13.32v31
581014 Apr 13:09:401012.3 mph14SSW (193°)9955010169733.1°C36.8%16.4°C7450ft (2271m)13.36v31
580914 Apr 13:09:2989.5 mph13S (189°)9955310170033.1°C36.6%16.3°C7485ft (2281m)13.32v31
580814 Apr 13:09:18913.6 mph16SSW (193°)9954910169633.2°C36.7%16.4°C7473ft (2278m)13.28v31
580714 Apr 13:09:07711.6 mph16S (191°)9956210171033.2°C36.5%16.3°C7508ft (2288m)13.32v31
580614 Apr 13:08:5568.8 mph11SSW (192°)9955510170233.2°C36.4%16.3°C7526ft (2294m)13.3v31
580514 Apr 13:08:44810.8 mph14SSW (197°)9956010170833.2°C36%16.1°C7597ft (2316m)13.28v31
580414 Apr 13:08:33811.5 mph14SSW (201°)9956010170833.2°C35.7%16°C7650ft (2332m)13.34v31
580314 Apr 13:08:22911.1 mph13SSW (194°)9956010170833.2°C35.8%16°C7632ft (2326m)13.33v31
580214 Apr 13:08:101010.7 mph12SSW (204°)9955710170433.2°C35.8%16°C7632ft (2326m)13.34v31
580114 Apr 13:07:5979.3 mph12SSW (192°)9955810170533.2°C35.6%15.9°C7668ft (2337m)13.33v31
580014 Apr 13:07:4899.6 mph12SSW (204°)9955310170033.2°C35.4%15.8°C7704ft (2348m)13.32v31
579914 Apr 13:07:3789.3 mph11SSW (207°)9955610170333.2°C35.3%15.8°C7723ft (2354m)13.33v31
579814 Apr 13:07:25912.9 mph16SSW (200°)9955410170133.3°C35.3%15.9°C7728ft (2355m)13.31v31
579714 Apr 13:07:141011.6 mph13S (180°)9954810169533.3°C35.9%16.2°C7619ft (2322m)13.28v31
579614 Apr 13:07:03811.7 mph15S (190°)9955610170333.3°C36%16.2°C7602ft (2317m)13.31v31
579514 Apr 13:06:521013.5 mph16S (189°)9956110170933.3°C36.3%16.3°C7548ft (2301m)13.3v31
579414 Apr 13:06:401214.8 mph17SSW (204°)9955310170033.3°C36.6%16.5°C7495ft (2284m)13.33v31
579314 Apr 13:06:291113 mph16S (185°)9955610170333.3°C37%16.6°C7425ft (2263m)13.35v31
579214 Apr 13:06:18911.6 mph14SSW (198°)9955910170733.3°C37.1%16.7°C7408ft (2258m)13.3v31
579114 Apr 13:06:0789.5 mph13SSW (212°)9955810170533.3°C38.1%17.1°C7236ft (2206m)13.33v31
579014 Apr 13:05:5558.4 mph11SW (214°)9955510170233.4°C38.2%17.2°C7224ft (2202m)13.29v31
578914 Apr 13:05:4478.6 mph13SSW (194°)9956210171033.4°C38.2%17.2°C7224ft (2202m)13.31v31
578814 Apr 13:05:3378.4 mph10SSW (203°)9956010170833.3°C38.1%17.1°C7236ft (2206m)13.29v31
578714 Apr 13:05:2256.8 mph11SSW (210°)9956210171033.3°C38.5%17.3°C7168ft (2185m)13.32v31
578614 Apr 13:05:1076.9 mph8SSW (196°)9956410171233.3°C38%17°C7253ft (2211m)13.31v31
578514 Apr 13:04:5989.5 mph11S (184°)9956110170933.3°C37.8%17°C7287ft (2221m)13.29v31
578414 Apr 13:04:481010.8 mph12SSW (201°)9956910171733.3°C37.8%17°C7287ft (2221m)13.33v31
578314 Apr 13:04:371414.7 mph16S (189°)9956210171033.3°C37.8%17°C7287ft (2221m)13.35v31
578214 Apr 13:04:2588.4 mph9SSW (202°)9956910171733.3°C38%17°C7253ft (2211m)13.29v31
578114 Apr 13:04:1489.1 mph12SSW (197°)9956510171333.3°C38.1%17.1°C7236ft (2206m)13.28v31
578014 Apr 13:04:0378.1 mph10SSW (193°)9956710171533.3°C38.3%17.2°C7202ft (2195m)13.3v31
577914 Apr 13:03:521112.2 mph13SSW (208°)9956610171433.3°C38.2%17.1°C7219ft (2200m)13.32v31
577814 Apr 13:03:4077.8 mph9SSW (208°)9956710171533.3°C38.4%17.2°C7185ft (2190m)13.32v31
577714 Apr 13:03:2988.4 mph9SSW (199°)9957110171933.3°C38.2%17.1°C7219ft (2200m)13.34v31
577614 Apr 13:03:1857.5 mph9S (190°)9957010171833.3°C38.1%17.1°C7236ft (2206m)13.33v31
577514 Apr 13:03:0789.8 mph12SSW (202°)9957010171833.3°C37.8%17°C7287ft (2221m)13.34v31
577414 Apr 13:02:551112.9 mph15SSW (202°)9956510171333.3°C37.7%16.9°C7304ft (2226m)13.34v31
577314 Apr 13:02:4456.6 mph11SSW (193°)9957010171833.3°C37.8%17°C7287ft (2221m)13.32v31
577214 Apr 13:02:3356 mph7SSW (199°)9957410172233.2°C37.6%16.8°C7316ft (2230m)13.33v31
577114 Apr 13:02:2288.5 mph10SSW (194°)9957810172633.2°C37.5%16.8°C7334ft (2235m)13.33v31
577014 Apr 13:02:10910.1 mph12S (186°)9957310172133.2°C37.4%16.7°C7351ft (2241m)13.34v31
576914 Apr 13:01:5989.7 mph13SSW (192°)9957710172533.2°C37.7%16.8°C7299ft (2225m)13.34v31
576814 Apr 13:01:481011.8 mph14SSW (196°)9956310171133.2°C38%17°C7248ft (2209m)13.34v31
576714 Apr 13:01:3778.2 mph12SSW (199°)9957710172533.2°C37.9%16.9°C7265ft (2214m)13.34v31
576614 Apr 13:01:251010.9 mph13S (190°)9956710171533.2°C37.8%16.9°C7282ft (2220m)13.33v31
576514 Apr 13:01:1478.3 mph10S (189°)9956810171633.2°C37.7%16.8°C7299ft (2225m)13.38v31
576414 Apr 13:01:03910.3 mph12SSW (193°)9957510172333.2°C37.6%16.8°C7316ft (2230m)13.34v31
576314 Apr 13:00:521112.7 mph14S (188°)9956710171533.1°C37.5%16.7°C7329ft (2234m)13.32v31
576214 Apr 13:00:401010.7 mph12SSW (201°)9957010171833.1°C37.4%16.6°C7346ft (2239m)13.33v31
576114 Apr 13:00:29912.8 mph16SSW (201°)9956810171633.1°C37.2%16.5°C7381ft (2250m)13.35v31
576014 Apr 13:00:181112.5 mph14S (176°)9956510171333.1°C37%16.5°C7415ft (2260m)13.35v31
575914 Apr 13:00:07711.3 mph16SSW (193°)9957110171933.1°C36.7%16.3°C7468ft (2276m)13.33v31
575814 Apr 12:59:55810.4 mph14SSW (207°)9956710171533.1°C36.4%16.2°C7521ft (2292m)13.35v31
575714 Apr 12:59:441314.4 mph16SSW (209°)9956710171533.1°C36.6%16.3°C7485ft (2281m)13.34v31
575614 Apr 12:59:3389.7 mph14S (170°)9956010170833.1°C36.4%16.2°C7521ft (2292m)13.34v31
575514 Apr 12:59:2279.4 mph11SW (217°)9957810172633.1°C36%16°C7592ft (2314m)13.33v31
575414 Apr 12:59:1089.3 mph11SSW (192°)9957110171933.1°C36%16°C7592ft (2314m)13.33v31
575314 Apr 12:58:5989.3 mph12SSW (192°)9957610172433.1°C35.8%15.9°C7627ft (2325m)13.34v31
575214 Apr 12:58:4889.4 mph12SW (218°)9957510172333.1°C36.1%16.1°C7574ft (2309m)13.33v31
575114 Apr 12:58:37910.9 mph13SW (215°)9957710172533.1°C35.6%15.8°C7663ft (2336m)13.35v31
575014 Apr 12:58:251010.2 mph12SSW (200°)9957410172233.1°C35.9%16°C7609ft (2319m)13.34v31
574914 Apr 12:58:141011.4 mph14S (188°)9957510172333.1°C35.8%15.9°C7627ft (2325m)13.33v31
574814 Apr 12:58:031014.6 mph19SSW (194°)9957210172033.1°C35.6%15.8°C7663ft (2336m)13.33v31
574714 Apr 12:57:521011.7 mph17SSW (211°)9956310171133.1°C35.1%15.6°C7754ft (2363m)13.32v31
574614 Apr 12:57:401112.3 mph15WSW (241°)9957010171833.1°C35.2%15.7°C7736ft (2358m)13.34v31
574514 Apr 12:57:29912.1 mph14SW (216°)9956410171233.1°C35.6%15.8°C7663ft (2336m)13.35v31
574414 Apr 12:57:181010.9 mph14SSW (208°)9956910171733.1°C36.4%16.2°C7521ft (2292m)13.38v31
574314 Apr 12:57:0778.1 mph11SW (222°)9957010171833.2°C36.3%16.2°C7543ft (2299m)13.35v31
574214 Apr 12:56:5578.8 mph14SSW (206°)9957210172033.2°C36.3%16.2°C7543ft (2299m)13.34v31
574114 Apr 12:56:441011.8 mph15SSW (197°)9956110170933.2°C36.2%16.2°C7561ft (2305m)13.36v31
574014 Apr 12:56:33812.5 mph19S (191°)9956110170933.2°C36.5%16.3°C7508ft (2288m)13.37v31
573914 Apr 12:56:22812.2 mph16SSW (208°)9956710171533.3°C36.4%16.4°C7530ft (2295m)13.34v31
573814 Apr 12:56:1089.8 mph13SSW (206°)9957010171833.3°C36.6%16.5°C7495ft (2284m)13.39v31
573714 Apr 12:55:59910 mph12SSW (192°)9957010171833.3°C36.5%16.4°C7513ft (2290m)13.4v31
573614 Apr 12:55:481012 mph16S (183°)9956810171633.3°C36.4%16.4°C7530ft (2295m)13.38v31
573514 Apr 12:55:371112.2 mph15SSW (192°)9956010170833.3°C35.9%16.2°C7619ft (2322m)13.33v31
573414 Apr 12:55:25812 mph15S (182°)9956810171633.3°C36.1%16.2°C7584ft (2312m)13.35v31
573314 Apr 12:55:141112.4 mph15S (178°)9957110171933.3°C36.4%16.4°C7530ft (2295m)13.37v31
573214 Apr 12:55:031112.7 mph15SSW (204°)9957010171833.3°C37.4%16.8°C7356ft (2242m)13.34v31
573114 Apr 12:54:521112.4 mph15S (188°)9957010171833.3°C37.3%16.8°C7373ft (2247m)13.36v31
573014 Apr 12:54:401415.6 mph19SSW (201°)9955310170033.4°C38.1%17.2°C7241ft (2207m)13.42v31
572914 Apr 12:54:291011.7 mph15SSW (210°)9957210172033.4°C38.3%17.3°C7207ft (2197m)13.34v31
572814 Apr 12:54:1846.6 mph12SSW (213°)9957310172133.4°C38.5%17.3°C7173ft (2186m)13.37v31
572714 Apr 12:54:0769.7 mph18SSW (210°)9957210172033.4°C38.6%17.4°C7156ft (2181m)13.4v31
572614 Apr 12:53:5598.8 mph10SSW (213°)9956110170933.4°C38.6%17.4°C7156ft (2181m)13.43v31
572514 Apr 12:53:4488.7 mph10SW (215°)9957510172333.4°C38.5%17.3°C7173ft (2186m)13.36v31
572414 Apr 12:53:3358.8 mph12S (177°)9956910171733.4°C38.4%17.3°C7190ft (2192m)13.34v31
572314 Apr 12:53:2257.6 mph12S (183°)9957610172433.4°C38.4%17.3°C7190ft (2192m)13.37v31
572214 Apr 12:53:1078.7 mph11SSW (192°)9957610172433.4°C38.2%17.2°C7224ft (2202m)13.37v31
572114 Apr 12:52:5977.7 mph9SSW (205°)9957510172333.4°C38%17.1°C7258ft (2212m)13.37v31
572014 Apr 12:52:481212.5 mph14S (180°)9957610172433.4°C37.9%17.1°C7275ft (2217m)13.37v31
571914 Apr 12:52:371010.5 mph13S (183°)9957610172433.4°C37.8%17.1°C7292ft (2223m)13.34v31
571814 Apr 12:52:25810.3 mph12SSW (199°)9957910172733.3°C37.9%17°C7270ft (2216m)13.41v31
571714 Apr 12:52:1456.2 mph8SSW (195°)9957910172733.3°C37.9%17°C7270ft (2216m)13.33v31
571614 Apr 12:52:03911.4 mph14S (177°)9958110172933.3°C37.9%17°C7270ft (2216m)13.37v31
571514 Apr 12:51:52810.6 mph14S (185°)9958510173333.3°C38.2%17.1°C7219ft (2200m)13.37v31
571414 Apr 12:51:4077.7 mph9SSW (201°)9958410173233.3°C37.9%17°C7270ft (2216m)13.38v31
571314 Apr 12:51:29810.4 mph15SSW (200°)9958310173133.2°C37.6%16.8°C7316ft (2230m)13.35v31
571214 Apr 12:51:1899.8 mph12SSW (196°)9958510173333.2°C37.2%16.6°C7385ft (2251m)13.35v31
571114 Apr 12:51:071112.5 mph14SSW (194°)9957510172333.2°C37.5%16.8°C7334ft (2235m)13.38v31
571014 Apr 12:50:55910.4 mph12SSW (200°)9958410173233.2°C37.5%16.8°C7334ft (2235m)13.36v31
570914 Apr 12:50:4499.5 mph11SSW (212°)9958210173033.2°C37.7%16.8°C7299ft (2225m)13.38v31
570814 Apr 12:50:3378.8 mph10SSW (210°)9958710173533.2°C37.7%16.8°C7299ft (2225m)13.34v31
570714 Apr 12:50:2299.9 mph12SSW (210°)9958110172933.1°C37.9%16.8°C7260ft (2213m)13.35v31
570614 Apr 12:50:1089.1 mph11S (189°)9957910172733.1°C37.9%16.8°C7260ft (2213m)13.35v31
570514 Apr 12:49:5968.5 mph12SSW (208°)9958210173033.1°C37.6%16.7°C7312ft (2229m)13.37v31
570414 Apr 12:49:4857 mph11SSW (213°)9957310172133°C38.4%16.9°C7171ft (2186m)13.37v31
570314 Apr 12:49:3769.3 mph14SSW (209°)9958610173433°C38.2%16.9°C7205ft (2196m)13.38v31
570214 Apr 12:49:25911.6 mph16S (188°)9958510173333°C38.7%17.1°C7120ft (2170m)13.39v31
570114 Apr 12:49:14810.8 mph16SSW (206°)9959110173933°C39.9%17.6°C6922ft (2110m)13.46v31
570014 Apr 12:49:0378.5 mph13S (182°)9958810173632.9°C39.9%17.5°C6918ft (2109m)13.35v31
569914 Apr 12:48:5289.1 mph11S (186°)9957810172632.9°C39.7%17.4°C6950ft (2118m)13.36v31
569814 Apr 12:48:4099.5 mph11S (182°)9958810173632.9°C39.7%17.4°C6950ft (2118m)13.34v31
569714 Apr 12:48:2979.1 mph11SSW (197°)9958810173632.9°C39.5%17.3°C6983ft (2128m)13.48v31
569614 Apr 12:48:181313.6 mph15S (190°)9958510173332.9°C39.9%17.5°C6918ft (2109m)13.36v31
569514 Apr 12:48:071314.3 mph17S (184°)9958110172932.9°C39.9%17.5°C6918ft (2109m)13.4v31
569414 Apr 12:47:551011.7 mph13SSW (196°)9958310173132.8°C40.2%17.5°C6865ft (2092m)13.33v31
569314 Apr 12:47:44910 mph11SSW (199°)9958610173432.8°C40.2%17.5°C6865ft (2092m)13.38v31
569214 Apr 12:47:3379.2 mph11S (190°)9958210173032.8°C40.1%17.5°C6881ft (2097m)13.42v31
569114 Apr 12:47:2278.2 mph10S (189°)9959010173832.8°C39.9%17.4°C6913ft (2107m)13.38v31
569014 Apr 12:47:1087.8 mph9SSW (192°)9958810173632.8°C39.7%17.3°C6946ft (2117m)13.33v31
568914 Apr 12:46:5956.3 mph8S (183°)9959110173932.8°C39.5%17.2°C6979ft (2127m)13.37v31
568814 Apr 12:46:481011.1 mph12SSW (192°)9959110173932.8°C39.2%17.1°C7028ft (2142m)13.36v31
568714 Apr 12:46:37910.3 mph13SSW (199°)9960210175032.7°C39.3%17°C7007ft (2136m)13.38v31
568614 Apr 12:46:2579.5 mph13S (188°)9959010173832.7°C39.1%17°C7040ft (2146m)13.44v31
568514 Apr 12:46:1479.8 mph12SSW (209°)9959410174232.7°C38.9%16.9°C7073ft (2156m)13.38v31
568414 Apr 12:46:031011.2 mph13S (190°)9958910173732.7°C39%16.9°C7056ft (2151m)13.39v31
568314 Apr 12:45:521113.8 mph16S (189°)9959510174332.7°C39.5%17.1°C6974ft (2126m)13.39v31
568214 Apr 12:45:401111.9 mph14SSW (199°)9959910174732.7°C39.6%17.2°C6958ft (2121m)13.39v31
568114 Apr 12:45:291215.2 mph17SW (220°)9960110174932.7°C39.4%17.1°C6990ft (2131m)13.39v31
568014 Apr 12:45:181313.4 mph15SSW (200°)9959110173932.7°C40.1%17.4°C6876ft (2096m)13.37v31
567914 Apr 12:45:07811.8 mph15SW (215°)9959610174432.7°C40.5%17.5°C6812ft (2076m)13.39v31
567814 Apr 12:44:55911 mph14SSW (206°)9958710173532.7°C40.4%17.5°C6828ft (2081m)13.41v31
567714 Apr 12:44:44810.6 mph13SSW (195°)9959210174032.6°C40.5%17.4°C6807ft (2075m)13.4v31
567614 Apr 12:44:331012.1 mph14SSW (193°)9959210174032.6°C40.8%17.6°C6759ft (2060m)13.5v31
567514 Apr 12:44:2278.9 mph13SSW (196°)9959310174132.6°C41.6%17.9°C6633ft (2022m)13.4v31
567414 Apr 12:44:10910.1 mph12SSW (206°)9958910173732.5°C41.5%17.7°C6644ft (2025m)13.39v31
567314 Apr 12:43:5978.8 mph11SSW (198°)9959210174032.5°C41.5%17.7°C6644ft (2025m)13.39v31
567214 Apr 12:43:4869.1 mph11SSW (195°)9959110173932.5°C41.5%17.7°C6644ft (2025m)13.37v31
567114 Apr 12:43:3779.1 mph11SSW (196°)9960110174932.4°C41.9%17.8°C6578ft (2005m)13.38v31
567014 Apr 12:43:2567.8 mph10SSW (194°)9960010174832.4°C41.9%17.8°C6578ft (2005m)13.38v31
566914 Apr 12:43:1489 mph11SSW (210°)9960010174832.4°C41.5%17.6°C6640ft (2024m)13.39v31
566814 Apr 12:43:03910.4 mph12SSW (201°)9960010174832.4°C41.4%17.6°C6656ft (2029m)13.38v31
566714 Apr 12:42:5276.9 mph8SSW (210°)9959910174732.3°C41.5%17.6°C6636ft (2023m)13.38v31
566614 Apr 12:42:4066.4 mph8SSW (205°)9960710175632.3°C41.3%17.5°C6667ft (2032m)13.38v31
566514 Apr 12:42:29712.4 mph16SSW (197°)9960510175332.2°C41.1%17.3°C6694ft (2040m)13.44v31
566414 Apr 12:42:18710.6 mph15SSW (205°)9959810174632.2°C41.6%17.5°C6616ft (2017m)13.38v31
566314 Apr 12:42:0767.1 mph9SSW (204°)9961010175932.2°C41.7%17.5°C6600ft (2012m)13.39v31
566214 Apr 12:41:5559.3 mph12SSW (194°)9961010175932.2°C41.8%17.6°C6585ft (2007m)13.45v31
566114 Apr 12:41:4457.4 mph11SW (215°)9961010175932.2°C41.3%17.4°C6663ft (2031m)13.38v31
566014 Apr 12:41:3378.7 mph11SSW (202°)9960810175732.1°C40.9%17.1°C6721ft (2049m)13.38v31
565914 Apr 12:41:221213.4 mph15SSW (205°)9960310175132.1°C41%17.2°C6706ft (2044m)13.39v31
565814 Apr 12:41:1078.9 mph11SSW (213°)9961210176132.1°C40.9%17.1°C6721ft (2049m)13.38v31
565714 Apr 12:40:591112.9 mph16SW (217°)9960910175832.1°C40.6%17°C6769ft (2063m)13.37v31
565614 Apr 12:40:481012.8 mph17SSW (206°)9960310175132.1°C40.7%17.1°C6753ft (2058m)13.39v31
565514 Apr 12:40:37910.4 mph13SW (221°)9960710175632.1°C41.1%17.2°C6690ft (2039m)13.38v31
565414 Apr 12:40:25910.1 mph13SW (217°)9960810175732.1°C41.5%17.4°C6627ft (2020m)13.41v31
565314 Apr 12:40:1469.6 mph14S (191°)9960610175532°C41.8%17.4°C6576ft (2004m)13.37v31
565214 Apr 12:40:03911.3 mph14SSW (202°)9960810175732°C41.5%17.3°C6623ft (2019m)13.38v31
565114 Apr 12:39:521213.3 mph16SSW (201°)9960910175832°C41.5%17.3°C6623ft (2019m)13.39v31
565014 Apr 12:39:401112.9 mph16SSW (192°)9960710175632°C41.9%17.4°C6560ft (1999m)13.38v31
564914 Apr 12:39:291012.6 mph15SSW (199°)9961410176332°C42.1%17.5°C6529ft (1990m)13.38v31
564814 Apr 12:39:18810.5 mph16S (191°)9960110174932°C42.7%17.7°C6437ft (1962m)13.38v31
564714 Apr 12:39:071110.8 mph12S (185°)9961510176432°C43.1%17.9°C6377ft (1944m)13.38v31
564614 Apr 12:38:55710.8 mph15SSW (202°)9961710176632°C43.4%18°C6332ft (1930m)13.43v31
564514 Apr 12:38:4455.9 mph7SSW (195°)9962110177031.9°C43.6%18°C6297ft (1919m)13.39v31
564414 Apr 12:38:3377.2 mph8S (188°)9961510176431.9°C43.3%17.9°C6342ft (1933m)13.39v31
564314 Apr 12:38:2255.7 mph9SSW (211°)9962110177031.9°C43.1%17.8°C6373ft (1942m)13.4v31
564214 Apr 12:38:1089.5 mph11S (191°)9962210177131.9°C43.1%17.8°C6373ft (1942m)13.38v31
564114 Apr 12:37:5967.5 mph9SSW (205°)9962210177131.8°C43.3%17.8°C6338ft (1932m)13.42v31
564014 Apr 12:37:4856.1 mph9SSW (195°)9962110177031.8°C43.2%17.7°C6353ft (1936m)13.38v31
563914 Apr 12:37:37910.8 mph14S (186°)9962110177031.8°C42.8%17.6°C6414ft (1955m)13.4v31
563814 Apr 12:37:2567.1 mph9S (177°)9962410177331.8°C42.7%17.6°C6429ft (1960m)13.39v31
563714 Apr 12:37:14810.2 mph13S (180°)9962010176931.8°C42.5%17.5°C6459ft (1969m)13.43v31
563614 Apr 12:37:03911.1 mph13S (186°)9961910176831.8°C42.5%17.5°C6459ft (1969m)13.4v31
563514 Apr 12:36:521314.3 mph15SSW (198°)9961910176831.8°C42.2%17.4°C6505ft (1983m)13.37v31
563414 Apr 12:36:401213.5 mph16S (191°)9962010176931.8°C42.3%17.4°C6490ft (1978m)13.4v31
563314 Apr 12:36:291212.9 mph14S (191°)9962410177331.8°C42.3%17.4°C6490ft (1978m)13.37v31
563214 Apr 12:36:181414.3 mph16SSW (195°)9962010176931.8°C42.2%17.4°C6505ft (1983m)13.38v31
563114 Apr 12:36:071012.8 mph16SSW (199°)9962410177331.8°C42.3%17.4°C6490ft (1978m)13.39v31
563014 Apr 12:35:5567.3 mph9SSW (192°)9962710177631.8°C42.4%17.4°C6475ft (1974m)13.39v31
562914 Apr 12:35:441011.3 mph13S (177°)9962710177631.8°C42.2%17.4°C6505ft (1983m)13.39v31
562814 Apr 12:35:33810.8 mph14SSW (192°)9962710177631.8°C42.1%17.3°C6521ft (1988m)13.38v31
562714 Apr 12:35:2267.2 mph11S (175°)9962310177231.8°C42.2%17.4°C6505ft (1983m)13.38v31
562614 Apr 12:35:1078.9 mph13S (182°)9962710177631.8°C41.9%17.3°C6552ft (1997m)13.4v31
562514 Apr 12:34:591010.6 mph13S (177°)9962610177531.8°C41.9%17.3°C6552ft (1997m)13.38v31
562414 Apr 12:34:48911.1 mph17S (183°)9962510177431.8°C41.7%17.2°C6583ft (2006m)13.39v31
562314 Apr 12:34:371214.1 mph20S (171°)9962110177031.8°C41.4%17.1°C6630ft (2021m)13.39v31
562214 Apr 12:34:251010.4 mph12SSW (205°)9962910177831.9°C41.1%17°C6681ft (2036m)13.41v31
562114 Apr 12:34:1488.8 mph11SSW (201°)9962210177131.9°C41%17°C6697ft (2041m)13.39v31
562014 Apr 12:34:031113.8 mph16S (187°)9962610177531.8°C41.1%17°C6677ft (2035m)13.39v31
561914 Apr 12:33:52811.6 mph15S (182°)9962710177631.8°C41%16.9°C6692ft (2040m)13.39v31
561814 Apr 12:33:40810 mph14SSW (194°)9962810177731.8°C41.1%17°C6677ft (2035m)13.39v31
561714 Apr 12:33:2999.5 mph10S (176°)9962810177731.8°C41.1%17°C6677ft (2035m)13.41v31
561614 Apr 12:33:1868.3 mph12S (191°)9962710177631.8°C40.9%16.9°C6708ft (2045m)13.38v31
561514 Apr 12:33:07810.7 mph15SSW (200°)9963010177931.8°C40.8%16.8°C6724ft (2049m)13.38v31
561414 Apr 12:32:551011 mph13S (184°)9963110178031.8°C40.7%16.8°C6740ft (2054m)13.39v31
561314 Apr 12:32:4479.3 mph12S (191°)9963410178331.8°C40.8%16.8°C6724ft (2049m)13.39v31
561214 Apr 12:32:3389.5 mph11SSW (212°)9963010177931.8°C40.7%16.8°C6740ft (2054m)13.39v31
561114 Apr 12:32:2288.6 mph11S (191°)9962110177031.8°C40.8%16.8°C6724ft (2049m)13.42v31
561014 Apr 12:32:1056.6 mph11SSW (197°)9963710178631.8°C40.6%16.8°C6756ft (2059m)13.39v31
560914 Apr 12:31:59910.8 mph13SW (222°)9962510177431.8°C40.6%16.8°C6756ft (2059m)13.43v31
560814 Apr 12:31:4879.6 mph13SSW (210°)9963210178131.8°C40.7%16.8°C6740ft (2054m)13.37v31
560714 Apr 12:31:3788.5 mph11SSW (212°)9963010177931.8°C40.5%16.7°C6772ft (2064m)13.39v31
560614 Apr 12:31:2588.8 mph10SW (215°)9963410178331.8°C40.6%16.8°C6756ft (2059m)13.39v31
560514 Apr 12:31:1458.6 mph14SSW (212°)9963410178331.8°C41.3%17°C6645ft (2025m)13.39v31
560414 Apr 12:31:0344.9 mph6SSW (205°)9963910178831.8°C41.9%17.3°C6552ft (1997m)13.42v31
560314 Apr 12:30:5266.5 mph9SW (214°)9963410178331.8°C41.7%17.2°C6583ft (2006m)13.39v31
560214 Apr 12:30:4068.7 mph10SW (228°)9963110178031.8°C41.8%17.2°C6567ft (2002m)13.39v31
560114 Apr 12:30:2977.8 mph10S (191°)9963510178431.8°C42%17.3°C6536ft (1992m)13.39v31
560014 Apr 12:30:1888.8 mph12SSW (202°)9963510178431.8°C41.9%17.3°C6552ft (1997m)13.38v31
559914 Apr 12:30:071212.9 mph15SW (221°)9962910177831.8°C41.8%17.2°C6567ft (2002m)13.37v31
559814 Apr 12:29:5557.6 mph12SSW (192°)9963010177931.9°C42.3%17.5°C6494ft (1979m)13.38v31
559714 Apr 12:29:4477.8 mph10SSW (207°)9963610178531.9°C42.2%17.5°C6510ft (1984m)13.39v31
559614 Apr 12:29:3389.7 mph14SSW (200°)9964010178931.9°C42%17.4°C6541ft (1994m)13.4v31
559514 Apr 12:29:221011.4 mph13SSW (201°)9963810178731.9°C42%17.4°C6541ft (1994m)13.37v31
559414 Apr 12:29:101011.3 mph13SSW (192°)9963210178131.9°C42%17.4°C6541ft (1994m)13.39v31
559314 Apr 12:28:59910.2 mph13SSW (192°)9963310178231.8°C41.9%17.3°C6552ft (1997m)13.38v31
559214 Apr 12:28:4899.8 mph12SSW (194°)9963810178731.9°C41.5%17.2°C6618ft (2017m)13.39v31
559114 Apr 12:28:3778.4 mph10SSW (195°)9963610178531.9°C41.5%17.2°C6618ft (2017m)13.36v31
559014 Apr 12:28:2589.6 mph12SSW (192°)9963610178531.9°C41.4%17.2°C6634ft (2022m)13.38v31
558914 Apr 12:28:14910.7 mph13S (189°)9963410178331.9°C41%17°C6697ft (2041m)13.41v31
558814 Apr 12:28:03911.4 mph15S (187°)9964110179031.9°C40.7%16.9°C6744ft (2056m)13.39v31
558714 Apr 12:27:521215.2 mph17SSW (195°)9963310178231.9°C40.3%16.7°C6808ft (2075m)13.43v31
558614 Apr 12:27:4099.8 mph12SSW (195°)9964110179031.9°C40.1%16.7°C6840ft (2085m)13.38v31
558514 Apr 12:27:291112.6 mph15S (190°)9963810178732°C40.2%16.8°C6829ft (2081m)13.37v31
558414 Apr 12:27:181112.5 mph16SSW (195°)9963910178832°C40.1%16.7°C6845ft (2086m)13.33v31
558314 Apr 12:27:07913 mph15SSW (199°)9964210179132°C40.7%17°C6749ft (2057m)13.42v31
558214 Apr 12:26:55910.2 mph11SSW (201°)9964210179132°C40.6%16.9°C6765ft (2062m)13.35v31
558114 Apr 12:26:441010.3 mph11SSW (204°)9964310179232.1°C40.3%16.9°C6817ft (2078m)13.37v31
558014 Apr 12:26:331011.3 mph14SSW (210°)9963810178732.1°C40.2%16.9°C6833ft (2083m)13.4v31
557914 Apr 12:26:221515.9 mph18S (189°)9964210179132.1°C40.9%17.1°C6721ft (2049m)13.38v31
557814 Apr 12:26:10911.6 mph16S (191°)9963510178432.1°C41%17.2°C6706ft (2044m)13.35v31
557714 Apr 12:25:5988.4 mph9SSW (206°)9964910179832.1°C41.1%17.2°C6690ft (2039m)13.38v31
557614 Apr 12:25:4877.8 mph9SSW (196°)9964510179432.1°C40.9%17.1°C6721ft (2049m)13.34v31
557514 Apr 12:25:37910.5 mph14SSW (207°)9964510179432.1°C40.5%17°C6785ft (2068m)13.37v31
557414 Apr 12:25:251211.7 mph13SSW (206°)9964310179232.1°C40.5%17°C6785ft (2068m)13.39v31
557314 Apr 12:25:1479.1 mph11SSW (203°)9964710179632.2°C40.4%17°C6805ft (2074m)13.39v31
557214 Apr 12:25:0378.4 mph12SSW (197°)9964810179732.2°C40.5%17.1°C6789ft (2069m)13.39v31
557114 Apr 12:24:52910.1 mph13S (171°)9964210179132.2°C40.2%17°C6838ft (2084m)13.35v31
557014 Apr 12:24:401113.8 mph17S (184°)9963910178832.2°C40.1%16.9°C6854ft (2089m)13.41v31
556914 Apr 12:24:291314.6 mph16S (183°)9964910179832.3°C39.9%16.9°C6891ft (2100m)13.37v31
556814 Apr 12:24:181213.5 mph15S (191°)9964010178932.3°C40.2%17.1°C6842ft (2085m)13.37v31
556714 Apr 12:24:07910.4 mph12S (170°)9965110180032.3°C40.4%17.1°C6810ft (2076m)13.41v31
556614 Apr 12:23:551112 mph13S (186°)9965310180332.3°C40.4%17.1°C6810ft (2076m)13.39v31
556514 Apr 12:23:4478.6 mph12S (179°)9964910179832.4°C40.2%17.1°C6847ft (2087m)13.38v31
556414 Apr 12:23:3367.7 mph10S (180°)9965010179932.4°C39.8%17°C6911ft (2106m)13.39v31
556314 Apr 12:23:22912.4 mph16S (187°)9965010179932.4°C39.9%17°C6895ft (2102m)13.35v31
556214 Apr 12:23:1078.6 mph11S (188°)9965610180632.5°C40%17.2°C6883ft (2098m)13.37v31
556114 Apr 12:22:591011.4 mph13S (190°)9964910179832.5°C39.6%17°C6948ft (2118m)13.4v31
556014 Apr 12:22:48810.3 mph13S (179°)9965510180532.5°C39.7%17°C6932ft (2113m)13.37v31
555914 Apr 12:22:371212.7 mph14S (176°)9964710179632.5°C39.6%17°C6948ft (2118m)13.37v31
555814 Apr 12:22:251111.7 mph14S (189°)9965010179932.6°C39.6%17.1°C6953ft (2119m)13.37v31
555714 Apr 12:22:14910.1 mph11S (188°)9966010181032.6°C39.8%17.2°C6920ft (2109m)13.33v31
555614 Apr 12:22:031113.5 mph16S (187°)9965810180832.6°C39.7%17.1°C6937ft (2114m)13.39v31
555514 Apr 12:21:52710.1 mph12S (183°)9964910179832.6°C39.8%17.2°C6920ft (2109m)13.33v31
555414 Apr 12:21:40811.7 mph14S (189°)9965510180532.7°C39.6%17.2°C6958ft (2121m)13.39v31
555314 Apr 12:21:29911.7 mph16S (185°)9964910179832.7°C39.6%17.2°C6958ft (2121m)13.34v31
555214 Apr 12:21:1889.8 mph13S (190°)9965210180232.8°C39.6%17.3°C6962ft (2122m)13.39v31
555114 Apr 12:21:0788.9 mph11SSW (193°)9964710179632.8°C39.5%17.2°C6979ft (2127m)13.34v31
555014 Apr 12:20:551113.7 mph16SSW (203°)9965410180432.8°C39.1%17.1°C7045ft (2147m)13.41v31
554914 Apr 12:20:441012.4 mph18SSW (195°)9964110179032.9°C39.1%17.1°C7049ft (2149m)13.36v31
554814 Apr 12:20:33109.8 mph16SW (220°)9963910178832.9°C38.9%17.1°C7082ft (2159m)13.34v31
554714 Apr 12:20:221012.7 mph16SSW (201°)9965310180333°C38.9%17.2°C7087ft (2160m)13.33v31
554614 Apr 12:20:10912.2 mph15SSW (204°)9965010179933°C38.7%17.1°C7120ft (2170m)13.36v31
554514 Apr 12:19:591517.5 mph21SSW (211°)9964210179133°C38.9%17.2°C7087ft (2160m)13.36v31
554414 Apr 12:19:481314.9 mph18S (186°)9964910179833.1°C39.3%17.4°C7025ft (2141m)13.36v31
554314 Apr 12:19:371013 mph18SSW (196°)9963010177933.1°C39.5%17.5°C6992ft (2131m)13.4v31
554214 Apr 12:19:25913.7 mph17S (190°)9964710179633.1°C39.3%17.4°C7025ft (2141m)13.32v31
554114 Apr 12:19:141213.3 mph18S (190°)9964910179833.1°C39.5%17.5°C6992ft (2131m)13.35v31
554014 Apr 12:19:0368.3 mph11SSE (164°)9964710179633.1°C39.6%17.5°C6976ft (2126m)13.35v31
553914 Apr 12:18:5256.9 mph12S (188°)9965510180533.1°C39.9%17.6°C6927ft (2111m)13.38v31
553814 Apr 12:18:4057.1 mph11SSW (199°)9965610180633.1°C39.9%17.6°C6927ft (2111m)13.33v31
553714 Apr 12:18:2944 mph8SSW (202°)9966010181033.1°C39.6%17.5°C6976ft (2126m)13.41v31
553614 Apr 12:18:18910.7 mph13SSW (208°)9965310180333.2°C39.6%17.6°C6981ft (2128m)13.38v31
553514 Apr 12:18:071010.7 mph13SSW (195°)9965610180633.1°C39.7%17.6°C6960ft (2121m)13.33v31
553414 Apr 12:17:5588.7 mph10SW (217°)9966310181333.1°C40.1%17.7°C6894ft (2101m)13.38v31
553314 Apr 12:17:44910.9 mph12SSW (193°)9965410180433.1°C40.3%17.8°C6862ft (2092m)13.32v31
553214 Apr 12:17:3379 mph11S (178°)9965810180833.1°C40.3%17.8°C6862ft (2092m)13.36v31
553114 Apr 12:17:2277.5 mph10SSW (204°)9966110181133.1°C40.1%17.7°C6894ft (2101m)13.37v31
553014 Apr 12:17:1099.2 mph11S (189°)9966010181033°C40.2%17.7°C6874ft (2095m)13.37v31
552914 Apr 12:16:5967.3 mph10SSW (201°)9965310180333°C40.5%17.8°C6825ft (2080m)13.43v31
552814 Apr 12:16:4856.3 mph9S (187°)9966110181133°C40.6%17.8°C6809ft (2075m)13.37v31
552714 Apr 12:16:3777.5 mph10S (179°)9966010181033°C40.5%17.8°C6825ft (2080m)13.35v31
552614 Apr 12:16:2577.7 mph9SSW (205°)9966410181432.9°C40.4%17.7°C6837ft (2084m)13.36v31
552514 Apr 12:16:14910.6 mph13S (189°)9965910180932.9°C40.4%17.7°C6837ft (2084m)13.34v31
552414 Apr 12:16:0388.5 mph9SSE (168°)9965910180932.9°C40.3%17.6°C6853ft (2089m)13.37v31
552314 Apr 12:15:52910.5 mph13SSW (202°)9965910180932.9°C39.9%17.5°C6918ft (2109m)13.35v31
552214 Apr 12:15:401013.4 mph17S (188°)9966310181332.9°C39.7%17.4°C6950ft (2118m)13.36v31
552114 Apr 12:15:291112.8 mph15SSW (192°)9964410179332.9°C40%17.5°C6902ft (2104m)13.48v31
552014 Apr 12:15:181112.3 mph14SSW (198°)9966110181132.9°C39.9%17.5°C6918ft (2109m)13.33v31
551914 Apr 12:15:071113.1 mph18S (174°)9965310180332.9°C40.1%17.5°C6885ft (2099m)13.37v31
551814 Apr 12:14:5599.9 mph11S (177°)9966310181332.8°C40.4%17.6°C6832ft (2082m)13.34v31
551714 Apr 12:14:4479.2 mph12SSW (193°)9966310181332.8°C40.6%17.7°C6800ft (2073m)13.38v31
551614 Apr 12:14:3399.5 mph10SSW (193°)9966410181432.8°C40.5%17.6°C6816ft (2078m)13.37v31
551514 Apr 12:14:2256.7 mph8S (188°)9966510181532.8°C40.4%17.6°C6832ft (2082m)13.41v31
551414 Apr 12:14:1067.5 mph9S (173°)9966810181832.8°C40%17.4°C6897ft (2102m)13.38v31
551314 Apr 12:13:5979.6 mph11SSW (197°)9966810181832.9°C39.8%17.4°C6934ft (2113m)13.35v31
551214 Apr 12:13:4867.1 mph9SSW (201°)9967110182132.9°C39.7%17.4°C6950ft (2118m)13.41v31
551114 Apr 12:13:37910.3 mph12SSW (202°)9966610181632.9°C39.7%17.4°C6950ft (2118m)13.33v31
551014 Apr 12:13:251112.1 mph15SSW (199°)9966610181632.8°C39.6%17.3°C6962ft (2122m)13.38v31
550914 Apr 12:13:1478.7 mph12SSW (205°)9966410181432.8°C40%17.4°C6897ft (2102m)13.37v31
550814 Apr 12:13:031213.1 mph16S (181°)9966610181632.9°C39.8%17.4°C6934ft (2113m)13.35v31
550714 Apr 12:12:521011.3 mph13SSW (197°)9966610181632.9°C39.8%17.4°C6934ft (2113m)13.38v31
550614 Apr 12:12:4089.3 mph11SSW (196°)9967010182032.9°C39.7%17.4°C6950ft (2118m)13.4v31
550514 Apr 12:12:29910.3 mph12SSW (201°)9967110182132.9°C39.4%17.3°C7000ft (2134m)13.37v31
550414 Apr 12:12:18810.9 mph14SSW (207°)9967210182232.8°C39.3%17.1°C7012ft (2137m)13.35v31
550314 Apr 12:12:0679.4 mph12SSW (202°)9967210182232.8°C39.5%17.2°C6979ft (2127m)13.37v31
550214 Apr 12:11:5589.3 mph12SSW (203°)9967310182332.8°C39.5%17.2°C6979ft (2127m)13.37v31
550114 Apr 12:11:441212.5 mph14SSW (199°)9967310182332.8°C39.2%17.1°C7028ft (2142m)13.37v31
550014 Apr 12:11:321213.6 mph17S (187°)9967910182932.9°C39.2%17.2°C7033ft (2144m)13.33v31
549914 Apr 12:11:211313.9 mph16SSW (202°)9967410182432.9°C39.6%17.3°C6967ft (2124m)13.39v31
549814 Apr 12:11:101012.1 mph14SSW (209°)9968110183132.9°C39.7%17.4°C6950ft (2118m)13.36v31
549714 Apr 12:10:591213.4 mph17SSW (196°)9967010182032.9°C40.2%17.6°C6869ft (2094m)13.37v31
549614 Apr 12:10:47810.4 mph14SSW (203°)9967410182432.9°C40.3%17.6°C6853ft (2089m)13.37v31
549514 Apr 12:10:3668.8 mph11SSW (196°)9967110182132.9°C40.1%17.5°C6885ft (2099m)13.34v31
549414 Apr 12:10:251213.5 mph16SSW (202°)9967010182032.9°C39.9%17.5°C6918ft (2109m)13.36v31
549314 Apr 12:10:141012.9 mph19SSW (207°)9966710181732.9°C40.3%17.6°C6853ft (2089m)13.38v31
549214 Apr 12:10:021113.2 mph16SSW (194°)9967110182132.9°C40.2%17.6°C6869ft (2094m)13.32v31
549114 Apr 12:09:51811.1 mph14SSW (204°)9967210182232.8°C40.1%17.5°C6881ft (2097m)13.36v31
549014 Apr 12:09:4078.8 mph11S (191°)9967410182432.8°C40.1%17.5°C6881ft (2097m)13.39v31
548914 Apr 12:09:291012.6 mph17SSW (195°)9967710182732.8°C40.1%17.5°C6881ft (2097m)13.37v31
548814 Apr 12:09:1889.5 mph11SSW (202°)9968010183032.9°C39.9%17.5°C6918ft (2109m)13.35v31
548714 Apr 12:09:0789.6 mph12S (189°)9968110183132.9°C39.7%17.4°C6950ft (2118m)13.37v31
548614 Apr 12:08:551114.9 mph19S (190°)9968310183332.9°C39.8%17.4°C6934ft (2113m)13.36v31
548514 Apr 12:08:441012.6 mph17S (184°)9967510182532.9°C39.8%17.4°C6934ft (2113m)13.35v31
548414 Apr 12:08:33810.5 mph13SSW (200°)9968310183332.9°C39.6%17.3°C6967ft (2124m)13.37v31
548314 Apr 12:08:22911 mph13S (189°)9968110183132.9°C39.4%17.3°C7000ft (2134m)13.37v31
548214 Apr 12:08:1099.9 mph12SSW (204°)9968110183133°C39.4%17.4°C7004ft (2135m)13.35v31
548114 Apr 12:07:591315.1 mph18S (190°)9967510182533°C39.3%17.3°C7021ft (2140m)13.35v31
548014 Apr 12:07:4889.4 mph12SSW (193°)9968310183333°C39.5%17.4°C6988ft (2130m)13.37v31
547914 Apr 12:07:3768 mph11S (177°)9968010183033°C39.4%17.4°C7004ft (2135m)13.35v31
547814 Apr 12:07:2578.6 mph10SSW (202°)9968910183933°C39.2%17.3°C7037ft (2145m)13.39v31
547714 Apr 12:07:141012.2 mph14SSW (202°)9967810182833°C39.1%17.2°C7054ft (2150m)13.36v31
547614 Apr 12:07:03812.4 mph15S (176°)9968110183133°C39.3%17.3°C7021ft (2140m)13.37v31
547514 Apr 12:06:5279.6 mph13SSW (199°)9968910183933°C39.2%17.3°C7037ft (2145m)13.37v31
547414 Apr 12:06:401011.4 mph14S (186°)9968110183133.1°C39%17.3°C7075ft (2156m)13.35v31
547314 Apr 12:06:291111.9 mph14S (177°)9968210183233.1°C39.1%17.3°C7058ft (2151m)13.37v31
547214 Apr 12:06:181113 mph15S (182°)9967510182533.1°C39%17.3°C7075ft (2156m)13.39v31
547114 Apr 12:06:071011.3 mph13SSE (164°)9968010183033.1°C39.1%17.3°C7058ft (2151m)13.37v31
547014 Apr 12:05:551011.4 mph14S (173°)9968710183733.2°C39%17.4°C7080ft (2158m)13.33v31
546914 Apr 12:05:4478 mph10S (185°)9968410183433.2°C39%17.4°C7080ft (2158m)13.36v31
546814 Apr 12:05:33910.4 mph13S (184°)9968510183533.2°C38.6%17.2°C7147ft (2178m)13.38v31
546714 Apr 12:05:22910.6 mph13SSW (194°)9967810182833.2°C38.4%17.1°C7180ft (2188m)13.38v31
546614 Apr 12:05:101212.7 mph15S (190°)9968110183133.3°C38.4%17.2°C7185ft (2190m)13.33v31
546514 Apr 12:04:59710.3 mph13S (172°)9969010184033.3°C38.7%17.3°C7135ft (2175m)13.38v31
546414 Apr 12:04:481314.5 mph16S (183°)9968710183733.3°C38.8%17.4°C7118ft (2170m)13.33v31
546314 Apr 12:04:37810.6 mph13S (185°)9968510183533.3°C38.9%17.4°C7101ft (2164m)13.38v31
546214 Apr 12:04:2577.6 mph10SSW (193°)9969410184433.3°C38.9%17.4°C7101ft (2164m)13.34v31
546114 Apr 12:04:141010.6 mph12S (174°)9969010184033.3°C38.8%17.4°C7118ft (2170m)13.36v31
546014 Apr 12:04:03710.1 mph14S (170°)9969010184033.4°C39%17.5°C7089ft (2161m)13.35v31
545914 Apr 12:03:5267 mph9SSW (211°)9969310184333.4°C38.8%17.5°C7122ft (2171m)13.35v31
545814 Apr 12:03:4056.1 mph9S (187°)9969010184033.4°C38.6%17.4°C7156ft (2181m)13.35v31
545714 Apr 12:03:2957 mph11S (189°)9969310184333.4°C38.4%17.3°C7190ft (2192m)13.35v31
545614 Apr 12:03:1889.9 mph13SSW (195°)9968210183233.5°C38%17.2°C7262ft (2213m)13.34v31
545514 Apr 12:03:071010.2 mph12SSW (197°)9968410183433.5°C38.1%17.3°C7245ft (2208m)13.33v31
545414 Apr 12:02:5578 mph10SSW (210°)9968910183933.5°C38%17.2°C7262ft (2213m)13.33v31
545314 Apr 12:02:44109.8 mph11SSW (200°)9968510183533.5°C37.9%17.2°C7279ft (2219m)13.32v31
545214 Apr 12:02:3388.4 mph10SSW (194°)9968710183733.5°C38%17.2°C7262ft (2213m)13.32v31
545114 Apr 12:02:2288.5 mph11S (183°)9969210184233.6°C37.8%17.2°C7301ft (2225m)13.32v31
545014 Apr 12:02:101011.1 mph13S (174°)9968610183633.6°C38.2%17.4°C7233ft (2205m)13.35v31
544914 Apr 12:01:59910.4 mph13S (172°)9968710183733.6°C37.9%17.3°C7284ft (2220m)13.34v31
544814 Apr 12:01:4866.8 mph9S (180°)9969710184733.6°C37.8%17.2°C7301ft (2225m)13.32v31
544714 Apr 12:01:371011.3 mph14S (187°)9969610184633.7°C37.5%17.2°C7358ft (2243m)13.34v31
544614 Apr 12:01:25910.6 mph13S (189°)9968910183933.7°C37.6%17.2°C7341ft (2238m)13.33v31
544514 Apr 12:01:1479 mph13SSW (192°)9968610183633.7°C37.6%17.2°C7341ft (2238m)13.34v31
544414 Apr 12:01:0379.8 mph15S (180°)9968010183033.7°C37.6%17.2°C7341ft (2238m)13.32v31
544314 Apr 12:00:5279.5 mph13SSW (194°)9968710183733.7°C37.6%17.2°C7341ft (2238m)13.33v31
544214 Apr 12:00:4077.3 mph10S (183°)9969510184533.8°C37.6%17.3°C7345ft (2239m)13.32v31
544114 Apr 12:00:2977.6 mph10S (174°)9969310184333.8°C37.4%17.2°C7380ft (2249m)13.35v31
544014 Apr 12:00:181012 mph15SSW (192°)9970010185133.8°C37.2%17.2°C7415ft (2260m)13.33v31
543914 Apr 12:00:071215.2 mph18S (175°)9970110185233.8°C37.3%17.2°C7397ft (2255m)13.33v31
543814 Apr 11:59:551012.9 mph15S (184°)9969010184033.8°C37.6%17.3°C7345ft (2239m)13.35v31
543714 Apr 11:59:4478.5 mph11S (172°)9968910183933.9°C37.4%17.3°C7385ft (2251m)13.34v31
543614 Apr 11:59:331113.8 mph16SSE (168°)9969210184233.9°C37.3%17.3°C7402ft (2256m)13.34v31
543514 Apr 11:59:221215.6 mph21SSE (166°)9969210184233.9°C37.3%17.3°C7402ft (2256m)13.33v31
543414 Apr 11:59:101113 mph18S (188°)9968810183834°C37.6%17.5°C7355ft (2242m)13.34v31
543314 Apr 11:58:591011.5 mph14S (190°)9968110183134°C37.6%17.5°C7355ft (2242m)13.34v31
543214 Apr 11:58:481313.8 mph15S (188°)9969910185034°C37.8%17.6°C7321ft (2231m)13.34v31
543114 Apr 11:58:3758.5 mph13S (171°)9970110185234°C37.8%17.6°C7321ft (2231m)13.32v31
543014 Apr 11:58:25710 mph16S (169°)9969810184934°C37.9%17.6°C7303ft (2226m)13.38v31
542914 Apr 11:58:1467.9 mph12S (174°)9969210184234°C38.3%17.8°C7235ft (2205m)13.34v31
542814 Apr 11:58:0345.6 mph9S (188°)9970410185533.9°C38.4%17.7°C7213ft (2199m)13.32v31
542714 Apr 11:57:5245.3 mph6SSW (204°)9970410185533.9°C38.1%17.6°C7264ft (2214m)13.33v31
542614 Apr 11:57:4045.6 mph8SSW (193°)9969810184933.9°C37.8%17.5°C7316ft (2230m)13.33v31
542514 Apr 11:57:2978.6 mph11SSW (199°)9969910185033.9°C37.6%17.4°C7350ft (2240m)13.33v31
542414 Apr 11:57:1899.3 mph11S (188°)9969610184633.9°C37.7%17.5°C7333ft (2235m)13.34v31
542314 Apr 11:57:0756.3 mph9S (189°)9970210185333.9°C37.7%17.5°C7333ft (2235m)13.35v31
542214 Apr 11:56:5588.9 mph11S (187°)9970110185233.9°C37.6%17.4°C7350ft (2240m)13.33v31
542114 Apr 11:56:4477.3 mph9S (175°)9970410185533.9°C37.2%17.2°C7420ft (2262m)13.33v31
542014 Apr 11:56:331112.1 mph14SSW (193°)9969310184334°C36.9%17.2°C7477ft (2279m)13.33v31
541914 Apr 11:56:22811.7 mph14SSW (201°)9969710184734°C37%17.2°C7459ft (2274m)13.34v31
541814 Apr 11:56:101011.8 mph14SSW (201°)9969610184634°C37.1%17.3°C7442ft (2268m)13.32v31
541714 Apr 11:55:591011.5 mph13S (191°)9969810184934°C37.3%17.4°C7407ft (2258m)13.33v31
541614 Apr 11:55:481313.6 mph15S (187°)9969510184534°C37.2%17.3°C7424ft (2263m)13.33v31
541514 Apr 11:55:3778.6 mph11S (186°)9968710183734°C37.3%17.4°C7407ft (2258m)13.34v31
541414 Apr 11:55:2589.4 mph12S (175°)9969710184734°C37%17.2°C7459ft (2274m)13.42v31
541314 Apr 11:55:141213.6 mph15S (191°)9970210185334°C36.8%17.2°C7495ft (2284m)13.34v31
541214 Apr 11:55:031415.1 mph17S (189°)9969510184534°C36.6%17.1°C7530ft (2295m)13.32v31
541114 Apr 11:54:521314.4 mph16SSW (194°)9969110184134.1°C36.5%17.1°C7553ft (2302m)13.33v31
541014 Apr 11:54:401515.8 mph17S (185°)9969210184234.1°C36.4%17.1°C7570ft (2307m)13.4v31
540914 Apr 11:54:291414.8 mph16SSW (201°)9969810184934.1°C36.5%17.1°C7553ft (2302m)13.35v31
540814 Apr 11:54:181113.3 mph15S (187°)9969410184434.1°C36.6%17.2°C7535ft (2297m)13.35v31
540714 Apr 11:54:071010.8 mph13SSW (197°)9969510184534.1°C36.8%17.2°C7499ft (2286m)13.34v31
540614 Apr 11:53:551012.4 mph16S (187°)9969310184334.1°C36.9%17.3°C7482ft (2281m)13.34v31
540514 Apr 11:53:441314.8 mph18S (183°)9968610183634.1°C37.1%17.4°C7447ft (2270m)13.33v31
540414 Apr 11:53:331314 mph15S (176°)9969110184134.1°C37.2%17.4°C7429ft (2264m)13.33v31
540314 Apr 11:53:22712.8 mph17S (179°)9969810184934.1°C37.3%17.5°C7412ft (2259m)13.33v31
540214 Apr 11:53:1057.7 mph11SSE (168°)9969510184534.1°C37.2%17.4°C7429ft (2264m)13.41v31
540114 Apr 11:52:5968.8 mph11S (181°)9969910185034.1°C36.7%17.2°C7517ft (2291m)13.33v31
540014 Apr 11:52:481010.8 mph12S (184°)9969910185034.1°C36.7%17.2°C7517ft (2291m)13.34v31
539914 Apr 11:52:371114.5 mph17S (187°)9969610184634.1°C36.5%17.1°C7553ft (2302m)13.33v31
539814 Apr 11:52:251014.2 mph18S (191°)9969410184434.1°C36.8%17.2°C7499ft (2286m)13.34v31
539714 Apr 11:52:1488.9 mph11S (185°)9970410185534.1°C36.9%17.3°C7482ft (2281m)13.33v31
539614 Apr 11:52:03910.1 mph12S (174°)9970210185334.1°C36.6%17.2°C7535ft (2297m)13.33v31
539514 Apr 11:51:521013.7 mph19S (176°)9970110185234.2°C36.4%17.2°C7575ft (2309m)13.33v31
539414 Apr 11:51:401517.3 mph21S (189°)9969410184434.2°C36.6%17.2°C7540ft (2298m)13.34v31
539314 Apr 11:51:291214.2 mph17S (185°)9968610183634.2°C36.8%17.3°C7504ft (2287m)13.33v31
539214 Apr 11:51:18610.6 mph16S (186°)9970010185134.3°C36.9%17.5°C7492ft (2284m)13.34v31
539114 Apr 11:51:071015 mph19SSW (203°)9970110185234.3°C36.6%17.3°C7545ft (2300m)13.44v31
539014 Apr 11:50:551214.1 mph16S (181°)9970110185234.3°C36.7%17.4°C7527ft (2294m)13.34v31
538914 Apr 11:50:4477.9 mph11S (191°)9970410185534.3°C37%17.5°C7474ft (2278m)13.34v31
538814 Apr 11:50:3378.7 mph10S (187°)9970210185334.3°C36.7%17.4°C7527ft (2294m)13.34v31
538714 Apr 11:50:221010.8 mph13SSE (166°)9970510185634.3°C36.7%17.4°C7527ft (2294m)13.32v31
538614 Apr 11:50:101314.5 mph17S (178°)9970810185934.3°C36.8%17.4°C7509ft (2289m)13.33v31
538514 Apr 11:49:591011.2 mph14S (170°)9969310184334.3°C36.9%17.5°C7492ft (2284m)13.34v31
538414 Apr 11:49:48913 mph15S (178°)9969810184934.3°C36.6%17.3°C7545ft (2300m)13.34v31
538314 Apr 11:49:37910.2 mph12S (172°)9970710185834.4°C36.3%17.3°C7603ft (2317m)13.33v31
538214 Apr 11:49:2579.6 mph12S (185°)9970310185434.3°C36.3%17.2°C7598ft (2316m)13.33v31
538114 Apr 11:49:14810.4 mph14S (187°)9970510185634.4°C36%17.2°C7657ft (2334m)13.32v31
538014 Apr 11:49:031517.1 mph19S (189°)9970010185134.4°C36.2%17.3°C7621ft (2323m)13.33v31
537914 Apr 11:48:521011.6 mph15S (183°)9970710185834.3°C36.4%17.3°C7580ft (2310m)13.32v31
537814 Apr 11:48:401213 mph15S (177°)9969910185034.4°C36.2%17.3°C7621ft (2323m)13.32v31
537714 Apr 11:48:29910.7 mph12S (184°)9971110186234.4°C35.9%17.1°C7675ft (2339m)13.33v31
537614 Apr 11:48:181213.1 mph14S (187°)9971110186234.4°C36%17.2°C7657ft (2334m)13.42v31
537514 Apr 11:48:071011.3 mph14SSE (168°)9970510185634.5°C36.3%17.4°C7608ft (2319m)13.34v31
537414 Apr 11:47:551213.5 mph15S (181°)9970710185834.5°C36.4%17.4°C7590ft (2313m)13.33v31
537314 Apr 11:47:441214.4 mph17S (181°)9970110185234.5°C36.7%17.6°C7537ft (2297m)13.34v31
537214 Apr 11:47:331314.4 mph17S (182°)9969810184934.5°C36.7%17.6°C7537ft (2297m)13.35v31
537114 Apr 11:47:221214.7 mph17S (177°)9970810185934.6°C36.7%17.6°C7542ft (2299m)13.32v31
537014 Apr 11:47:1088.7 mph10SSW (193°)9970910186034.6°C37%17.8°C7489ft (2283m)13.33v31
536914 Apr 11:46:5989.7 mph12SSW (192°)9971410186534.5°C36.8%17.6°C7519ft (2292m)13.34v31
536814 Apr 11:46:4899.7 mph11S (182°)9971410186534.5°C36.8%17.6°C7519ft (2292m)13.34v31
536714 Apr 11:46:371113.2 mph15S (185°)9970910186034.5°C37%17.7°C7484ft (2281m)13.35v31
536614 Apr 11:46:2578.4 mph10S (175°)9971210186334.6°C37.3%17.9°C7436ft (2266m)13.34v31
536514 Apr 11:46:1488.5 mph10S (183°)9971710186834.5°C37%17.7°C7484ft (2281m)13.33v31
536414 Apr 11:46:0389 mph12S (175°)9972110187234.6°C37.2%17.9°C7454ft (2272m)13.32v31
536314 Apr 11:45:52109.7 mph11S (186°)9972110187234.6°C37.1%17.8°C7471ft (2277m)13.33v31
536214 Apr 11:45:4077.8 mph12S (179°)9971310186434.6°C36.8%17.7°C7524ft (2293m)13.34v31
536114 Apr 11:45:2977.9 mph9SSW (201°)9971610186734.6°C36.7%17.6°C7542ft (2299m)13.31v31
536014 Apr 11:45:1866.9 mph11S (191°)9971710186834.6°C36.5%17.6°C7577ft (2309m)13.39v31
535914 Apr 11:45:0779.3 mph12SW (217°)9971710186834.6°C36.5%17.6°C7577ft (2309m)13.35v31
535814 Apr 11:44:5578.3 mph10SSW (213°)9972010187134.6°C36.6%17.6°C7560ft (2304m)13.33v31
535714 Apr 11:44:441112 mph13SSW (206°)9971110186234.6°C36.4%17.5°C7595ft (2315m)13.34v31
535614 Apr 11:44:3389.8 mph13SSW (203°)9971610186734.6°C37.1%17.8°C7471ft (2277m)13.33v31
535514 Apr 11:44:2257.3 mph10SW (219°)9971210186334.6°C37.1%17.8°C7471ft (2277m)13.32v31
535414 Apr 11:44:1066.9 mph8SSW (213°)9971310186434.6°C36.8%17.7°C7524ft (2293m)13.33v31
535314 Apr 11:43:5979 mph10SW (227°)9971610186734.6°C36.5%17.6°C7577ft (2309m)13.35v31
535214 Apr 11:43:481112.1 mph13SSW (210°)9971710186834.6°C36.4%17.5°C7595ft (2315m)13.36v31
535114 Apr 11:43:371010.8 mph13S (182°)9971610186734.6°C36.4%17.5°C7595ft (2315m)13.36v31
535014 Apr 11:43:2559 mph14S (189°)9971710186834.6°C36.5%17.6°C7577ft (2309m)13.37v31
534914 Apr 11:43:14810.4 mph14S (187°)9971910187034.6°C36.3%17.5°C7613ft (2320m)13.38v31
534814 Apr 11:43:03910.7 mph13SSW (204°)9972410187534.6°C36.7%17.6°C7542ft (2299m)13.43v31
534714 Apr 11:42:5289.6 mph13SSW (208°)9972210187334.7°C36.4%17.6°C7600ft (2316m)13.36v31
534614 Apr 11:42:40910 mph12SSW (195°)9972210187334.6°C36.4%17.5°C7595ft (2315m)13.35v31
534514 Apr 11:42:29912.5 mph16SSW (195°)9971910187034.7°C36.2%17.5°C7636ft (2327m)13.35v31
534414 Apr 11:42:1888.1 mph9S (178°)9971910187034.7°C36.3%17.6°C7618ft (2322m)13.36v31
534314 Apr 11:42:07912.6 mph16SSE (167°)9971510186634.7°C36.1%17.5°C7654ft (2333m)13.37v31
534214 Apr 11:41:551215.8 mph19S (182°)9970410185534.8°C36.1%17.6°C7659ft (2334m)13.33v31
534114 Apr 11:41:441316.1 mph20S (177°)9971810186934.8°C36.1%17.6°C7659ft (2334m)13.38v31
534014 Apr 11:41:331113.4 mph19S (189°)9972210187334.8°C36.2%17.6°C7641ft (2329m)13.37v31
533914 Apr 11:41:2278.4 mph11S (190°)9972510187634.8°C36.7%17.8°C7552ft (2302m)13.47v31
533814 Apr 11:41:1068 mph11S (180°)9971910187034.9°C36.7%17.9°C7557ft (2303m)13.33v31
533714 Apr 11:40:591112.3 mph14S (177°)9972210187334.9°C36.4%17.8°C7610ft (2320m)13.34v31
533614 Apr 11:40:48910.7 mph13S (179°)9971010186134.9°C36.5%17.8°C7592ft (2314m)13.35v31
533514 Apr 11:40:37810.9 mph14S (175°)9971810186934.9°C36.5%17.8°C7592ft (2314m)13.38v31
533414 Apr 11:40:251111.2 mph14S (173°)9971910187034.9°C36.6%17.9°C7575ft (2309m)13.35v31
533314 Apr 11:40:1499.2 mph10S (175°)9972210187334.9°C36.9%18°C7521ft (2292m)13.44v31